<?xml version="1.0" encoding="UTF-8" standalone="no" ?>
<gpx xmlns="http://www.topografix.com/GPX/1/1" xmlns:xsi="http://www.w3.org/2001/XMLSchema-instance" xsi:schemaLocation="http://www.topografix.com/GPX/1/1 http://www.topografix.com/GPX/1/1/gpx.xsd" version="1.1" creator="VisuGPX - https://www.visugpx.com">
  <metadata>
    <name>Trek ardennes avril 2024 en 4 jours</name>
    <desc><![CDATA[Entraînement pour le gr20 sur 4 jours avec de beaux points de vue]]></desc>
  </metadata>
  <wpt lat="49.90643" lon="4.70682">
    <ele>133.3</ele>
    <name><![CDATA[Bivouac ]]></name>
    <type><![CDATA[camping]]></type>
  </wpt>
  <wpt lat="49.87291" lon="4.78509">
    <ele>144.4</ele>
    <name><![CDATA[Bivouac ]]></name>
    <type><![CDATA[camping]]></type>
  </wpt>
  <wpt lat="49.87978" lon="4.70613">
    <ele>142</ele>
    <name><![CDATA[Depart]]></name>
    <type><![CDATA[_]]></type>
  </wpt>
  <wpt lat="49.92942" lon="4.67706">
    <ele>131.7</ele>
    <name><![CDATA[Bivouac ]]></name>
    <type><![CDATA[camping]]></type>
  </wpt>
  <trk>
    <name><![CDATA[ardennes jour 1]]></name>
    <extensions>
      <line xmlns="http://www.topografix.com/GPX/gpx_style/0/2">
        <color>0000FF</color>
        <width>4</width>
      </line>
    </extensions>
    <trkseg>
      <trkpt lat="49.87981" lon="4.70608">
        <ele>139</ele>
        <time>2024-05-08T10:07:30Z</time>
      </trkpt>
      <trkpt lat="49.87982" lon="4.70608">
        <ele>139</ele>
        <time>2024-05-08T10:07:31Z</time>
      </trkpt>
      <trkpt lat="49.87982" lon="4.70608">
        <ele>139</ele>
        <time>2024-05-08T10:07:32Z</time>
      </trkpt>
      <trkpt lat="49.87982" lon="4.70607">
        <ele>139</ele>
        <time>2024-05-08T10:07:33Z</time>
      </trkpt>
      <trkpt lat="49.87983" lon="4.70607">
        <ele>139</ele>
        <time>2024-05-08T10:07:34Z</time>
      </trkpt>
      <trkpt lat="49.87983" lon="4.70607">
        <ele>139</ele>
        <time>2024-05-08T10:07:35Z</time>
      </trkpt>
      <trkpt lat="49.87983" lon="4.70606">
        <ele>139</ele>
        <time>2024-05-08T10:07:36Z</time>
      </trkpt>
      <trkpt lat="49.87984" lon="4.70605">
        <ele>139</ele>
        <time>2024-05-08T10:07:56Z</time>
      </trkpt>
      <trkpt lat="49.87984" lon="4.70605">
        <ele>139</ele>
        <time>2024-05-08T10:07:57Z</time>
      </trkpt>
      <trkpt lat="49.87984" lon="4.70604">
        <ele>139</ele>
        <time>2024-05-08T10:07:58Z</time>
      </trkpt>
      <trkpt lat="49.87984" lon="4.70605">
        <ele>139</ele>
        <time>2024-05-08T10:07:59Z</time>
      </trkpt>
      <trkpt lat="49.87984" lon="4.70605">
        <ele>139</ele>
        <time>2024-05-08T10:08:00Z</time>
      </trkpt>
      <trkpt lat="49.87983" lon="4.70606">
        <ele>139</ele>
        <time>2024-05-08T10:08:01Z</time>
      </trkpt>
      <trkpt lat="49.87983" lon="4.70607">
        <ele>139</ele>
        <time>2024-05-08T10:08:02Z</time>
      </trkpt>
      <trkpt lat="49.87982" lon="4.70608">
        <ele>139</ele>
        <time>2024-05-08T10:08:03Z</time>
      </trkpt>
      <trkpt lat="49.87981" lon="4.70609">
        <ele>139</ele>
        <time>2024-05-08T10:08:04Z</time>
      </trkpt>
      <trkpt lat="49.8798" lon="4.70611">
        <ele>139</ele>
        <time>2024-05-08T10:08:05Z</time>
      </trkpt>
      <trkpt lat="49.87979" lon="4.70612">
        <ele>139</ele>
        <time>2024-05-08T10:08:06Z</time>
      </trkpt>
      <trkpt lat="49.87978" lon="4.70613">
        <ele>139</ele>
        <time>2024-05-08T10:08:07Z</time>
      </trkpt>
      <trkpt lat="49.87977" lon="4.70614">
        <ele>139</ele>
        <time>2024-05-08T10:08:08Z</time>
      </trkpt>
      <trkpt lat="49.87976" lon="4.70615">
        <ele>139</ele>
        <time>2024-05-08T10:08:09Z</time>
      </trkpt>
      <trkpt lat="49.87975" lon="4.70616">
        <ele>139</ele>
        <time>2024-05-08T10:08:10Z</time>
      </trkpt>
      <trkpt lat="49.87974" lon="4.70616">
        <ele>139</ele>
        <time>2024-05-08T10:08:11Z</time>
      </trkpt>
      <trkpt lat="49.87973" lon="4.70617">
        <ele>139</ele>
        <time>2024-05-08T10:08:12Z</time>
      </trkpt>
      <trkpt lat="49.87972" lon="4.70618">
        <ele>139</ele>
        <time>2024-05-08T10:08:13Z</time>
      </trkpt>
      <trkpt lat="49.87971" lon="4.70618">
        <ele>139</ele>
        <time>2024-05-08T10:08:14Z</time>
      </trkpt>
      <trkpt lat="49.8797" lon="4.70619">
        <ele>139</ele>
        <time>2024-05-08T10:08:15Z</time>
      </trkpt>
      <trkpt lat="49.87969" lon="4.7062">
        <ele>139</ele>
        <time>2024-05-08T10:08:16Z</time>
      </trkpt>
      <trkpt lat="49.87968" lon="4.7062">
        <ele>139</ele>
        <time>2024-05-08T10:08:17Z</time>
      </trkpt>
      <trkpt lat="49.87967" lon="4.70621">
        <ele>139</ele>
        <time>2024-05-08T10:08:18Z</time>
      </trkpt>
      <trkpt lat="49.87966" lon="4.70622">
        <ele>139</ele>
        <time>2024-05-08T10:08:19Z</time>
      </trkpt>
      <trkpt lat="49.87964" lon="4.70623">
        <ele>139</ele>
        <time>2024-05-08T10:08:20Z</time>
      </trkpt>
      <trkpt lat="49.87963" lon="4.70623">
        <ele>139</ele>
        <time>2024-05-08T10:08:21Z</time>
      </trkpt>
      <trkpt lat="49.87962" lon="4.70624">
        <ele>139</ele>
        <time>2024-05-08T10:08:22Z</time>
      </trkpt>
      <trkpt lat="49.87961" lon="4.70625">
        <ele>139</ele>
        <time>2024-05-08T10:08:23Z</time>
      </trkpt>
      <trkpt lat="49.8796" lon="4.70626">
        <ele>139</ele>
        <time>2024-05-08T10:08:24Z</time>
      </trkpt>
      <trkpt lat="49.87959" lon="4.70627">
        <ele>139</ele>
        <time>2024-05-08T10:08:25Z</time>
      </trkpt>
      <trkpt lat="49.87957" lon="4.70628">
        <ele>139</ele>
        <time>2024-05-08T10:08:26Z</time>
      </trkpt>
      <trkpt lat="49.87956" lon="4.70628">
        <ele>139</ele>
        <time>2024-05-08T10:08:27Z</time>
      </trkpt>
      <trkpt lat="49.87955" lon="4.70629">
        <ele>139</ele>
        <time>2024-05-08T10:08:28Z</time>
      </trkpt>
      <trkpt lat="49.87954" lon="4.7063">
        <ele>139</ele>
        <time>2024-05-08T10:08:29Z</time>
      </trkpt>
      <trkpt lat="49.87953" lon="4.70631">
        <ele>139</ele>
        <time>2024-05-08T10:08:30Z</time>
      </trkpt>
      <trkpt lat="49.87952" lon="4.70632">
        <ele>139</ele>
        <time>2024-05-08T10:08:31Z</time>
      </trkpt>
      <trkpt lat="49.8795" lon="4.70633">
        <ele>139</ele>
        <time>2024-05-08T10:08:32Z</time>
      </trkpt>
      <trkpt lat="49.87949" lon="4.70634">
        <ele>139</ele>
        <time>2024-05-08T10:08:33Z</time>
      </trkpt>
      <trkpt lat="49.87948" lon="4.70635">
        <ele>139</ele>
        <time>2024-05-08T10:08:34Z</time>
      </trkpt>
      <trkpt lat="49.87947" lon="4.70636">
        <ele>139</ele>
        <time>2024-05-08T10:08:35Z</time>
      </trkpt>
      <trkpt lat="49.87946" lon="4.70637">
        <ele>139</ele>
        <time>2024-05-08T10:08:36Z</time>
      </trkpt>
      <trkpt lat="49.87945" lon="4.70637">
        <ele>139</ele>
        <time>2024-05-08T10:08:37Z</time>
      </trkpt>
      <trkpt lat="49.87944" lon="4.70638">
        <ele>139</ele>
        <time>2024-05-08T10:08:38Z</time>
      </trkpt>
      <trkpt lat="49.87942" lon="4.70639">
        <ele>139</ele>
        <time>2024-05-08T10:08:39Z</time>
      </trkpt>
      <trkpt lat="49.87941" lon="4.7064">
        <ele>139</ele>
        <time>2024-05-08T10:08:40Z</time>
      </trkpt>
      <trkpt lat="49.8794" lon="4.70641">
        <ele>139</ele>
        <time>2024-05-08T10:08:41Z</time>
      </trkpt>
      <trkpt lat="49.87938" lon="4.70642">
        <ele>139</ele>
        <time>2024-05-08T10:08:42Z</time>
      </trkpt>
      <trkpt lat="49.87937" lon="4.70643">
        <ele>139</ele>
        <time>2024-05-08T10:08:43Z</time>
      </trkpt>
      <trkpt lat="49.87936" lon="4.70643">
        <ele>139</ele>
        <time>2024-05-08T10:08:44Z</time>
      </trkpt>
      <trkpt lat="49.87934" lon="4.70644">
        <ele>139</ele>
        <time>2024-05-08T10:08:45Z</time>
      </trkpt>
      <trkpt lat="49.87933" lon="4.70645">
        <ele>139</ele>
        <time>2024-05-08T10:08:46Z</time>
      </trkpt>
      <trkpt lat="49.87932" lon="4.70645">
        <ele>139</ele>
        <time>2024-05-08T10:08:47Z</time>
      </trkpt>
      <trkpt lat="49.87931" lon="4.70646">
        <ele>139</ele>
        <time>2024-05-08T10:08:48Z</time>
      </trkpt>
      <trkpt lat="49.87929" lon="4.70646">
        <ele>139</ele>
        <time>2024-05-08T10:08:49Z</time>
      </trkpt>
      <trkpt lat="49.87928" lon="4.70647">
        <ele>139</ele>
        <time>2024-05-08T10:08:50Z</time>
      </trkpt>
      <trkpt lat="49.87927" lon="4.70647">
        <ele>139</ele>
        <time>2024-05-08T10:08:51Z</time>
      </trkpt>
      <trkpt lat="49.87925" lon="4.70648">
        <ele>139</ele>
        <time>2024-05-08T10:08:52Z</time>
      </trkpt>
      <trkpt lat="49.87924" lon="4.70649">
        <ele>139</ele>
        <time>2024-05-08T10:08:53Z</time>
      </trkpt>
      <trkpt lat="49.87923" lon="4.70649">
        <ele>139</ele>
        <time>2024-05-08T10:08:54Z</time>
      </trkpt>
      <trkpt lat="49.87921" lon="4.7065">
        <ele>139</ele>
        <time>2024-05-08T10:08:55Z</time>
      </trkpt>
      <trkpt lat="49.8792" lon="4.7065">
        <ele>139</ele>
        <time>2024-05-08T10:08:56Z</time>
      </trkpt>
      <trkpt lat="49.87919" lon="4.70651">
        <ele>139</ele>
        <time>2024-05-08T10:08:57Z</time>
      </trkpt>
      <trkpt lat="49.87917" lon="4.70651">
        <ele>139</ele>
        <time>2024-05-08T10:08:58Z</time>
      </trkpt>
      <trkpt lat="49.87916" lon="4.70652">
        <ele>139</ele>
        <time>2024-05-08T10:08:59Z</time>
      </trkpt>
      <trkpt lat="49.87914" lon="4.70652">
        <ele>139</ele>
        <time>2024-05-08T10:09:00Z</time>
      </trkpt>
      <trkpt lat="49.87913" lon="4.70653">
        <ele>139</ele>
        <time>2024-05-08T10:09:01Z</time>
      </trkpt>
      <trkpt lat="49.87911" lon="4.70653">
        <ele>139</ele>
        <time>2024-05-08T10:09:02Z</time>
      </trkpt>
      <trkpt lat="49.8791" lon="4.70654">
        <ele>139</ele>
        <time>2024-05-08T10:09:03Z</time>
      </trkpt>
      <trkpt lat="49.87909" lon="4.70654">
        <ele>139</ele>
        <time>2024-05-08T10:09:04Z</time>
      </trkpt>
      <trkpt lat="49.87907" lon="4.70654">
        <ele>139</ele>
        <time>2024-05-08T10:09:05Z</time>
      </trkpt>
      <trkpt lat="49.87906" lon="4.70655">
        <ele>139</ele>
        <time>2024-05-08T10:09:06Z</time>
      </trkpt>
      <trkpt lat="49.87905" lon="4.70655">
        <ele>139</ele>
        <time>2024-05-08T10:09:07Z</time>
      </trkpt>
      <trkpt lat="49.87904" lon="4.70655">
        <ele>139</ele>
        <time>2024-05-08T10:09:08Z</time>
      </trkpt>
      <trkpt lat="49.87902" lon="4.70656">
        <ele>139</ele>
        <time>2024-05-08T10:09:09Z</time>
      </trkpt>
      <trkpt lat="49.87901" lon="4.70656">
        <ele>139</ele>
        <time>2024-05-08T10:09:10Z</time>
      </trkpt>
      <trkpt lat="49.879" lon="4.70657">
        <ele>139</ele>
        <time>2024-05-08T10:09:11Z</time>
      </trkpt>
      <trkpt lat="49.87899" lon="4.70657">
        <ele>139</ele>
        <time>2024-05-08T10:09:12Z</time>
      </trkpt>
      <trkpt lat="49.87897" lon="4.70658">
        <ele>139</ele>
        <time>2024-05-08T10:09:13Z</time>
      </trkpt>
      <trkpt lat="49.87896" lon="4.70658">
        <ele>139</ele>
        <time>2024-05-08T10:09:14Z</time>
      </trkpt>
      <trkpt lat="49.87895" lon="4.70659">
        <ele>139</ele>
        <time>2024-05-08T10:09:15Z</time>
      </trkpt>
      <trkpt lat="49.87893" lon="4.70659">
        <ele>139</ele>
        <time>2024-05-08T10:09:16Z</time>
      </trkpt>
      <trkpt lat="49.87892" lon="4.70659">
        <ele>139</ele>
        <time>2024-05-08T10:09:17Z</time>
      </trkpt>
      <trkpt lat="49.87891" lon="4.7066">
        <ele>139</ele>
        <time>2024-05-08T10:09:18Z</time>
      </trkpt>
      <trkpt lat="49.8789" lon="4.7066">
        <ele>139</ele>
        <time>2024-05-08T10:09:19Z</time>
      </trkpt>
      <trkpt lat="49.87888" lon="4.70661">
        <ele>139</ele>
        <time>2024-05-08T10:09:20Z</time>
      </trkpt>
      <trkpt lat="49.87887" lon="4.70661">
        <ele>139</ele>
        <time>2024-05-08T10:09:21Z</time>
      </trkpt>
      <trkpt lat="49.87885" lon="4.70662">
        <ele>139</ele>
        <time>2024-05-08T10:09:22Z</time>
      </trkpt>
      <trkpt lat="49.87884" lon="4.70662">
        <ele>139</ele>
        <time>2024-05-08T10:09:23Z</time>
      </trkpt>
      <trkpt lat="49.87883" lon="4.70663">
        <ele>139</ele>
        <time>2024-05-08T10:09:24Z</time>
      </trkpt>
      <trkpt lat="49.87881" lon="4.70664">
        <ele>139</ele>
        <time>2024-05-08T10:09:25Z</time>
      </trkpt>
      <trkpt lat="49.8788" lon="4.70664">
        <ele>139</ele>
        <time>2024-05-08T10:09:26Z</time>
      </trkpt>
      <trkpt lat="49.87878" lon="4.70665">
        <ele>139</ele>
        <time>2024-05-08T10:09:27Z</time>
      </trkpt>
      <trkpt lat="49.87877" lon="4.70665">
        <ele>139</ele>
        <time>2024-05-08T10:09:28Z</time>
      </trkpt>
      <trkpt lat="49.87876" lon="4.70665">
        <ele>139</ele>
        <time>2024-05-08T10:09:29Z</time>
      </trkpt>
      <trkpt lat="49.87875" lon="4.70666">
        <ele>139</ele>
        <time>2024-05-08T10:09:30Z</time>
      </trkpt>
      <trkpt lat="49.87873" lon="4.70666">
        <ele>139</ele>
        <time>2024-05-08T10:09:31Z</time>
      </trkpt>
      <trkpt lat="49.87872" lon="4.70666">
        <ele>139</ele>
        <time>2024-05-08T10:09:32Z</time>
      </trkpt>
      <trkpt lat="49.87871" lon="4.70667">
        <ele>139</ele>
        <time>2024-05-08T10:09:33Z</time>
      </trkpt>
      <trkpt lat="49.87869" lon="4.70667">
        <ele>139</ele>
        <time>2024-05-08T10:09:34Z</time>
      </trkpt>
      <trkpt lat="49.87868" lon="4.70667">
        <ele>139</ele>
        <time>2024-05-08T10:09:35Z</time>
      </trkpt>
      <trkpt lat="49.87867" lon="4.70667">
        <ele>139</ele>
        <time>2024-05-08T10:09:36Z</time>
      </trkpt>
      <trkpt lat="49.87866" lon="4.70667">
        <ele>139</ele>
        <time>2024-05-08T10:09:37Z</time>
      </trkpt>
      <trkpt lat="49.87865" lon="4.70667">
        <ele>139</ele>
        <time>2024-05-08T10:09:38Z</time>
      </trkpt>
      <trkpt lat="49.87864" lon="4.70667">
        <ele>139</ele>
        <time>2024-05-08T10:09:39Z</time>
      </trkpt>
      <trkpt lat="49.87863" lon="4.70667">
        <ele>139</ele>
        <time>2024-05-08T10:09:40Z</time>
      </trkpt>
      <trkpt lat="49.87862" lon="4.70667">
        <ele>139</ele>
        <time>2024-05-08T10:09:41Z</time>
      </trkpt>
      <trkpt lat="49.8786" lon="4.70667">
        <ele>138</ele>
        <time>2024-05-08T10:09:42Z</time>
      </trkpt>
      <trkpt lat="49.87859" lon="4.70668">
        <ele>138</ele>
        <time>2024-05-08T10:09:43Z</time>
      </trkpt>
      <trkpt lat="49.87858" lon="4.70669">
        <ele>138</ele>
        <time>2024-05-08T10:09:44Z</time>
      </trkpt>
      <trkpt lat="49.87856" lon="4.70669">
        <ele>138</ele>
        <time>2024-05-08T10:09:45Z</time>
      </trkpt>
      <trkpt lat="49.87855" lon="4.7067">
        <ele>138</ele>
        <time>2024-05-08T10:09:46Z</time>
      </trkpt>
      <trkpt lat="49.87854" lon="4.7067">
        <ele>138</ele>
        <time>2024-05-08T10:09:47Z</time>
      </trkpt>
      <trkpt lat="49.87852" lon="4.70671">
        <ele>138</ele>
        <time>2024-05-08T10:09:48Z</time>
      </trkpt>
      <trkpt lat="49.87851" lon="4.70671">
        <ele>138</ele>
        <time>2024-05-08T10:09:49Z</time>
      </trkpt>
      <trkpt lat="49.87849" lon="4.70672">
        <ele>138</ele>
        <time>2024-05-08T10:09:50Z</time>
      </trkpt>
      <trkpt lat="49.87848" lon="4.70672">
        <ele>139</ele>
        <time>2024-05-08T10:09:51Z</time>
      </trkpt>
      <trkpt lat="49.87847" lon="4.70672">
        <ele>139</ele>
        <time>2024-05-08T10:09:52Z</time>
      </trkpt>
      <trkpt lat="49.87845" lon="4.70672">
        <ele>139</ele>
        <time>2024-05-08T10:09:53Z</time>
      </trkpt>
      <trkpt lat="49.87844" lon="4.70672">
        <ele>139</ele>
        <time>2024-05-08T10:09:54Z</time>
      </trkpt>
      <trkpt lat="49.87843" lon="4.70672">
        <ele>139</ele>
        <time>2024-05-08T10:09:55Z</time>
      </trkpt>
      <trkpt lat="49.87842" lon="4.70673">
        <ele>139</ele>
        <time>2024-05-08T10:09:56Z</time>
      </trkpt>
      <trkpt lat="49.87841" lon="4.70673">
        <ele>139</ele>
        <time>2024-05-08T10:09:57Z</time>
      </trkpt>
      <trkpt lat="49.87839" lon="4.70673">
        <ele>139</ele>
        <time>2024-05-08T10:09:58Z</time>
      </trkpt>
      <trkpt lat="49.87838" lon="4.70673">
        <ele>139</ele>
        <time>2024-05-08T10:09:59Z</time>
      </trkpt>
      <trkpt lat="49.87837" lon="4.70673">
        <ele>139</ele>
        <time>2024-05-08T10:10:00Z</time>
      </trkpt>
      <trkpt lat="49.87836" lon="4.70673">
        <ele>139</ele>
        <time>2024-05-08T10:10:01Z</time>
      </trkpt>
      <trkpt lat="49.87834" lon="4.70673">
        <ele>139</ele>
        <time>2024-05-08T10:10:02Z</time>
      </trkpt>
      <trkpt lat="49.87833" lon="4.70674">
        <ele>139</ele>
        <time>2024-05-08T10:10:03Z</time>
      </trkpt>
      <trkpt lat="49.87832" lon="4.70674">
        <ele>139</ele>
        <time>2024-05-08T10:10:04Z</time>
      </trkpt>
      <trkpt lat="49.8783" lon="4.70674">
        <ele>139</ele>
        <time>2024-05-08T10:10:05Z</time>
      </trkpt>
      <trkpt lat="49.87829" lon="4.70674">
        <ele>140</ele>
        <time>2024-05-08T10:10:06Z</time>
      </trkpt>
      <trkpt lat="49.87828" lon="4.70675">
        <ele>140</ele>
        <time>2024-05-08T10:10:07Z</time>
      </trkpt>
      <trkpt lat="49.87827" lon="4.70675">
        <ele>140</ele>
        <time>2024-05-08T10:10:08Z</time>
      </trkpt>
      <trkpt lat="49.87826" lon="4.70676">
        <ele>140</ele>
        <time>2024-05-08T10:10:09Z</time>
      </trkpt>
      <trkpt lat="49.87824" lon="4.70676">
        <ele>140</ele>
        <time>2024-05-08T10:10:10Z</time>
      </trkpt>
      <trkpt lat="49.87823" lon="4.70677">
        <ele>140</ele>
        <time>2024-05-08T10:10:11Z</time>
      </trkpt>
      <trkpt lat="49.87822" lon="4.70678">
        <ele>140</ele>
        <time>2024-05-08T10:10:12Z</time>
      </trkpt>
      <trkpt lat="49.87821" lon="4.7068">
        <ele>140</ele>
        <time>2024-05-08T10:10:13Z</time>
      </trkpt>
      <trkpt lat="49.87819" lon="4.70681">
        <ele>140</ele>
        <time>2024-05-08T10:10:14Z</time>
      </trkpt>
      <trkpt lat="49.87818" lon="4.70682">
        <ele>140</ele>
        <time>2024-05-08T10:10:15Z</time>
      </trkpt>
      <trkpt lat="49.87816" lon="4.70684">
        <ele>140</ele>
        <time>2024-05-08T10:10:16Z</time>
      </trkpt>
      <trkpt lat="49.87815" lon="4.70685">
        <ele>139</ele>
        <time>2024-05-08T10:10:17Z</time>
      </trkpt>
      <trkpt lat="49.87813" lon="4.70686">
        <ele>139</ele>
        <time>2024-05-08T10:10:18Z</time>
      </trkpt>
      <trkpt lat="49.87812" lon="4.70687">
        <ele>139</ele>
        <time>2024-05-08T10:10:19Z</time>
      </trkpt>
      <trkpt lat="49.87811" lon="4.70688">
        <ele>139</ele>
        <time>2024-05-08T10:10:20Z</time>
      </trkpt>
      <trkpt lat="49.87809" lon="4.70689">
        <ele>139</ele>
        <time>2024-05-08T10:10:21Z</time>
      </trkpt>
      <trkpt lat="49.87808" lon="4.7069">
        <ele>139</ele>
        <time>2024-05-08T10:10:22Z</time>
      </trkpt>
      <trkpt lat="49.87807" lon="4.7069">
        <ele>139</ele>
        <time>2024-05-08T10:10:23Z</time>
      </trkpt>
      <trkpt lat="49.87806" lon="4.70691">
        <ele>139</ele>
        <time>2024-05-08T10:10:24Z</time>
      </trkpt>
      <trkpt lat="49.87805" lon="4.70692">
        <ele>139</ele>
        <time>2024-05-08T10:10:25Z</time>
      </trkpt>
      <trkpt lat="49.87803" lon="4.70693">
        <ele>139</ele>
        <time>2024-05-08T10:10:26Z</time>
      </trkpt>
      <trkpt lat="49.87802" lon="4.70694">
        <ele>139</ele>
        <time>2024-05-08T10:10:27Z</time>
      </trkpt>
      <trkpt lat="49.87801" lon="4.70695">
        <ele>139</ele>
        <time>2024-05-08T10:10:28Z</time>
      </trkpt>
      <trkpt lat="49.878" lon="4.70696">
        <ele>139</ele>
        <time>2024-05-08T10:10:29Z</time>
      </trkpt>
      <trkpt lat="49.87799" lon="4.70697">
        <ele>139</ele>
        <time>2024-05-08T10:10:30Z</time>
      </trkpt>
      <trkpt lat="49.87797" lon="4.70698">
        <ele>139</ele>
        <time>2024-05-08T10:10:31Z</time>
      </trkpt>
      <trkpt lat="49.87796" lon="4.70699">
        <ele>139</ele>
        <time>2024-05-08T10:10:32Z</time>
      </trkpt>
      <trkpt lat="49.87795" lon="4.70701">
        <ele>139</ele>
        <time>2024-05-08T10:10:33Z</time>
      </trkpt>
      <trkpt lat="49.87794" lon="4.70702">
        <ele>139</ele>
        <time>2024-05-08T10:10:34Z</time>
      </trkpt>
      <trkpt lat="49.87793" lon="4.70703">
        <ele>139</ele>
        <time>2024-05-08T10:10:35Z</time>
      </trkpt>
      <trkpt lat="49.87792" lon="4.70704">
        <ele>139</ele>
        <time>2024-05-08T10:10:36Z</time>
      </trkpt>
      <trkpt lat="49.8779" lon="4.70705">
        <ele>139</ele>
        <time>2024-05-08T10:10:37Z</time>
      </trkpt>
      <trkpt lat="49.87789" lon="4.70706">
        <ele>139</ele>
        <time>2024-05-08T10:10:38Z</time>
      </trkpt>
      <trkpt lat="49.87787" lon="4.70707">
        <ele>139</ele>
        <time>2024-05-08T10:10:39Z</time>
      </trkpt>
      <trkpt lat="49.87786" lon="4.70708">
        <ele>139</ele>
        <time>2024-05-08T10:10:40Z</time>
      </trkpt>
      <trkpt lat="49.87785" lon="4.70709">
        <ele>139</ele>
        <time>2024-05-08T10:10:41Z</time>
      </trkpt>
      <trkpt lat="49.87783" lon="4.7071">
        <ele>139</ele>
        <time>2024-05-08T10:10:42Z</time>
      </trkpt>
      <trkpt lat="49.87782" lon="4.70711">
        <ele>139</ele>
        <time>2024-05-08T10:10:43Z</time>
      </trkpt>
      <trkpt lat="49.87781" lon="4.70712">
        <ele>139</ele>
        <time>2024-05-08T10:10:44Z</time>
      </trkpt>
      <trkpt lat="49.87779" lon="4.70713">
        <ele>139</ele>
        <time>2024-05-08T10:10:45Z</time>
      </trkpt>
      <trkpt lat="49.87778" lon="4.70715">
        <ele>139</ele>
        <time>2024-05-08T10:10:46Z</time>
      </trkpt>
      <trkpt lat="49.87777" lon="4.70716">
        <ele>139</ele>
        <time>2024-05-08T10:10:47Z</time>
      </trkpt>
      <trkpt lat="49.87776" lon="4.70717">
        <ele>139</ele>
        <time>2024-05-08T10:10:48Z</time>
      </trkpt>
      <trkpt lat="49.87775" lon="4.70718">
        <ele>139</ele>
        <time>2024-05-08T10:10:49Z</time>
      </trkpt>
      <trkpt lat="49.87773" lon="4.7072">
        <ele>139</ele>
        <time>2024-05-08T10:10:50Z</time>
      </trkpt>
      <trkpt lat="49.87772" lon="4.70721">
        <ele>139</ele>
        <time>2024-05-08T10:10:51Z</time>
      </trkpt>
      <trkpt lat="49.87771" lon="4.70722">
        <ele>138</ele>
        <time>2024-05-08T10:10:52Z</time>
      </trkpt>
      <trkpt lat="49.8777" lon="4.70723">
        <ele>138</ele>
        <time>2024-05-08T10:10:53Z</time>
      </trkpt>
      <trkpt lat="49.87768" lon="4.70724">
        <ele>138</ele>
        <time>2024-05-08T10:10:54Z</time>
      </trkpt>
      <trkpt lat="49.87767" lon="4.70725">
        <ele>138</ele>
        <time>2024-05-08T10:10:55Z</time>
      </trkpt>
      <trkpt lat="49.87766" lon="4.70726">
        <ele>138</ele>
        <time>2024-05-08T10:10:56Z</time>
      </trkpt>
      <trkpt lat="49.87765" lon="4.70726">
        <ele>138</ele>
        <time>2024-05-08T10:10:57Z</time>
      </trkpt>
      <trkpt lat="49.87764" lon="4.70727">
        <ele>138</ele>
        <time>2024-05-08T10:10:58Z</time>
      </trkpt>
      <trkpt lat="49.87763" lon="4.70728">
        <ele>138</ele>
        <time>2024-05-08T10:10:59Z</time>
      </trkpt>
      <trkpt lat="49.87761" lon="4.70729">
        <ele>138</ele>
        <time>2024-05-08T10:11:00Z</time>
      </trkpt>
      <trkpt lat="49.8776" lon="4.70729">
        <ele>138</ele>
        <time>2024-05-08T10:11:01Z</time>
      </trkpt>
      <trkpt lat="49.87759" lon="4.7073">
        <ele>138</ele>
        <time>2024-05-08T10:11:02Z</time>
      </trkpt>
      <trkpt lat="49.87758" lon="4.70731">
        <ele>138</ele>
        <time>2024-05-08T10:11:03Z</time>
      </trkpt>
      <trkpt lat="49.87757" lon="4.70732">
        <ele>138</ele>
        <time>2024-05-08T10:11:04Z</time>
      </trkpt>
      <trkpt lat="49.87755" lon="4.70733">
        <ele>138</ele>
        <time>2024-05-08T10:11:05Z</time>
      </trkpt>
      <trkpt lat="49.87754" lon="4.70734">
        <ele>138</ele>
        <time>2024-05-08T10:11:06Z</time>
      </trkpt>
      <trkpt lat="49.87753" lon="4.70734">
        <ele>137</ele>
        <time>2024-05-08T10:11:07Z</time>
      </trkpt>
      <trkpt lat="49.87751" lon="4.70735">
        <ele>137</ele>
        <time>2024-05-08T10:11:08Z</time>
      </trkpt>
      <trkpt lat="49.8775" lon="4.70736">
        <ele>137</ele>
        <time>2024-05-08T10:11:09Z</time>
      </trkpt>
      <trkpt lat="49.87749" lon="4.70737">
        <ele>137</ele>
        <time>2024-05-08T10:11:10Z</time>
      </trkpt>
      <trkpt lat="49.87747" lon="4.70737">
        <ele>137</ele>
        <time>2024-05-08T10:11:11Z</time>
      </trkpt>
      <trkpt lat="49.87746" lon="4.70738">
        <ele>137</ele>
        <time>2024-05-08T10:11:12Z</time>
      </trkpt>
      <trkpt lat="49.87745" lon="4.70739">
        <ele>137</ele>
        <time>2024-05-08T10:11:13Z</time>
      </trkpt>
      <trkpt lat="49.87744" lon="4.70739">
        <ele>137</ele>
        <time>2024-05-08T10:11:14Z</time>
      </trkpt>
      <trkpt lat="49.87742" lon="4.7074">
        <ele>137</ele>
        <time>2024-05-08T10:11:15Z</time>
      </trkpt>
      <trkpt lat="49.87741" lon="4.70741">
        <ele>137</ele>
        <time>2024-05-08T10:11:16Z</time>
      </trkpt>
      <trkpt lat="49.8774" lon="4.70741">
        <ele>137</ele>
        <time>2024-05-08T10:11:17Z</time>
      </trkpt>
      <trkpt lat="49.87738" lon="4.70742">
        <ele>137</ele>
        <time>2024-05-08T10:11:18Z</time>
      </trkpt>
      <trkpt lat="49.87737" lon="4.70742">
        <ele>137</ele>
        <time>2024-05-08T10:11:19Z</time>
      </trkpt>
      <trkpt lat="49.87736" lon="4.70743">
        <ele>137</ele>
        <time>2024-05-08T10:11:20Z</time>
      </trkpt>
      <trkpt lat="49.87734" lon="4.70743">
        <ele>137</ele>
        <time>2024-05-08T10:11:21Z</time>
      </trkpt>
      <trkpt lat="49.87733" lon="4.70744">
        <ele>136</ele>
        <time>2024-05-08T10:11:22Z</time>
      </trkpt>
      <trkpt lat="49.87732" lon="4.70744">
        <ele>136</ele>
        <time>2024-05-08T10:11:23Z</time>
      </trkpt>
      <trkpt lat="49.8773" lon="4.70745">
        <ele>136</ele>
        <time>2024-05-08T10:11:24Z</time>
      </trkpt>
      <trkpt lat="49.87729" lon="4.70746">
        <ele>136</ele>
        <time>2024-05-08T10:11:25Z</time>
      </trkpt>
      <trkpt lat="49.87728" lon="4.70746">
        <ele>136</ele>
        <time>2024-05-08T10:11:26Z</time>
      </trkpt>
      <trkpt lat="49.87726" lon="4.70747">
        <ele>136</ele>
        <time>2024-05-08T10:11:27Z</time>
      </trkpt>
      <trkpt lat="49.87725" lon="4.70748">
        <ele>136</ele>
        <time>2024-05-08T10:11:28Z</time>
      </trkpt>
      <trkpt lat="49.87724" lon="4.70748">
        <ele>136</ele>
        <time>2024-05-08T10:11:29Z</time>
      </trkpt>
      <trkpt lat="49.87723" lon="4.70749">
        <ele>136</ele>
        <time>2024-05-08T10:11:30Z</time>
      </trkpt>
      <trkpt lat="49.87722" lon="4.70749">
        <ele>136</ele>
        <time>2024-05-08T10:11:31Z</time>
      </trkpt>
      <trkpt lat="49.8772" lon="4.7075">
        <ele>136</ele>
        <time>2024-05-08T10:11:32Z</time>
      </trkpt>
      <trkpt lat="49.87719" lon="4.70751">
        <ele>136</ele>
        <time>2024-05-08T10:11:33Z</time>
      </trkpt>
      <trkpt lat="49.87718" lon="4.70751">
        <ele>136</ele>
        <time>2024-05-08T10:11:34Z</time>
      </trkpt>
      <trkpt lat="49.87717" lon="4.70752">
        <ele>136</ele>
        <time>2024-05-08T10:11:35Z</time>
      </trkpt>
      <trkpt lat="49.87715" lon="4.70752">
        <ele>136</ele>
        <time>2024-05-08T10:11:36Z</time>
      </trkpt>
      <trkpt lat="49.87714" lon="4.70753">
        <ele>136</ele>
        <time>2024-05-08T10:11:37Z</time>
      </trkpt>
      <trkpt lat="49.87713" lon="4.70754">
        <ele>136</ele>
        <time>2024-05-08T10:11:38Z</time>
      </trkpt>
      <trkpt lat="49.87711" lon="4.70754">
        <ele>136</ele>
        <time>2024-05-08T10:11:39Z</time>
      </trkpt>
      <trkpt lat="49.8771" lon="4.70755">
        <ele>136</ele>
        <time>2024-05-08T10:11:40Z</time>
      </trkpt>
      <trkpt lat="49.87709" lon="4.70755">
        <ele>136</ele>
        <time>2024-05-08T10:11:41Z</time>
      </trkpt>
      <trkpt lat="49.87707" lon="4.70756">
        <ele>136</ele>
        <time>2024-05-08T10:11:42Z</time>
      </trkpt>
      <trkpt lat="49.87706" lon="4.70756">
        <ele>136</ele>
        <time>2024-05-08T10:11:43Z</time>
      </trkpt>
      <trkpt lat="49.87705" lon="4.70757">
        <ele>136</ele>
        <time>2024-05-08T10:11:44Z</time>
      </trkpt>
      <trkpt lat="49.87703" lon="4.70757">
        <ele>136</ele>
        <time>2024-05-08T10:11:45Z</time>
      </trkpt>
      <trkpt lat="49.87702" lon="4.70758">
        <ele>136</ele>
        <time>2024-05-08T10:11:46Z</time>
      </trkpt>
      <trkpt lat="49.87701" lon="4.70758">
        <ele>135</ele>
        <time>2024-05-08T10:11:47Z</time>
      </trkpt>
      <trkpt lat="49.87699" lon="4.70759">
        <ele>135</ele>
        <time>2024-05-08T10:11:48Z</time>
      </trkpt>
      <trkpt lat="49.87698" lon="4.70759">
        <ele>135</ele>
        <time>2024-05-08T10:11:49Z</time>
      </trkpt>
      <trkpt lat="49.87696" lon="4.7076">
        <ele>135</ele>
        <time>2024-05-08T10:11:50Z</time>
      </trkpt>
      <trkpt lat="49.87695" lon="4.70761">
        <ele>135</ele>
        <time>2024-05-08T10:11:51Z</time>
      </trkpt>
      <trkpt lat="49.87693" lon="4.70761">
        <ele>135</ele>
        <time>2024-05-08T10:11:52Z</time>
      </trkpt>
      <trkpt lat="49.87692" lon="4.70761">
        <ele>135</ele>
        <time>2024-05-08T10:11:53Z</time>
      </trkpt>
      <trkpt lat="49.87691" lon="4.70762">
        <ele>135</ele>
        <time>2024-05-08T10:11:54Z</time>
      </trkpt>
      <trkpt lat="49.87689" lon="4.70762">
        <ele>135</ele>
        <time>2024-05-08T10:11:55Z</time>
      </trkpt>
      <trkpt lat="49.87688" lon="4.70763">
        <ele>135</ele>
        <time>2024-05-08T10:11:56Z</time>
      </trkpt>
      <trkpt lat="49.87686" lon="4.70763">
        <ele>135</ele>
        <time>2024-05-08T10:11:57Z</time>
      </trkpt>
      <trkpt lat="49.87685" lon="4.70763">
        <ele>135</ele>
        <time>2024-05-08T10:11:58Z</time>
      </trkpt>
      <trkpt lat="49.87684" lon="4.70764">
        <ele>135</ele>
        <time>2024-05-08T10:11:59Z</time>
      </trkpt>
      <trkpt lat="49.87682" lon="4.70764">
        <ele>135</ele>
        <time>2024-05-08T10:12:00Z</time>
      </trkpt>
      <trkpt lat="49.87681" lon="4.70764">
        <ele>135</ele>
        <time>2024-05-08T10:12:01Z</time>
      </trkpt>
      <trkpt lat="49.8768" lon="4.70765">
        <ele>135</ele>
        <time>2024-05-08T10:12:02Z</time>
      </trkpt>
      <trkpt lat="49.87678" lon="4.70765">
        <ele>135</ele>
        <time>2024-05-08T10:12:03Z</time>
      </trkpt>
      <trkpt lat="49.87677" lon="4.70765">
        <ele>135</ele>
        <time>2024-05-08T10:12:04Z</time>
      </trkpt>
      <trkpt lat="49.87676" lon="4.70765">
        <ele>135</ele>
        <time>2024-05-08T10:12:05Z</time>
      </trkpt>
      <trkpt lat="49.87674" lon="4.70765">
        <ele>135</ele>
        <time>2024-05-08T10:12:06Z</time>
      </trkpt>
      <trkpt lat="49.87673" lon="4.70765">
        <ele>135</ele>
        <time>2024-05-08T10:12:07Z</time>
      </trkpt>
      <trkpt lat="49.87672" lon="4.70765">
        <ele>135</ele>
        <time>2024-05-08T10:12:08Z</time>
      </trkpt>
      <trkpt lat="49.8767" lon="4.70765">
        <ele>135</ele>
        <time>2024-05-08T10:12:09Z</time>
      </trkpt>
      <trkpt lat="49.87669" lon="4.70765">
        <ele>135</ele>
        <time>2024-05-08T10:12:10Z</time>
      </trkpt>
      <trkpt lat="49.87667" lon="4.70766">
        <ele>135</ele>
        <time>2024-05-08T10:12:11Z</time>
      </trkpt>
      <trkpt lat="49.87666" lon="4.70766">
        <ele>135</ele>
        <time>2024-05-08T10:12:12Z</time>
      </trkpt>
      <trkpt lat="49.87665" lon="4.70766">
        <ele>135</ele>
        <time>2024-05-08T10:12:13Z</time>
      </trkpt>
      <trkpt lat="49.87663" lon="4.70766">
        <ele>135</ele>
        <time>2024-05-08T10:12:14Z</time>
      </trkpt>
      <trkpt lat="49.87662" lon="4.70767">
        <ele>135</ele>
        <time>2024-05-08T10:12:15Z</time>
      </trkpt>
      <trkpt lat="49.8766" lon="4.70767">
        <ele>135</ele>
        <time>2024-05-08T10:12:16Z</time>
      </trkpt>
      <trkpt lat="49.87659" lon="4.70767">
        <ele>135</ele>
        <time>2024-05-08T10:12:17Z</time>
      </trkpt>
      <trkpt lat="49.87658" lon="4.70767">
        <ele>135</ele>
        <time>2024-05-08T10:12:18Z</time>
      </trkpt>
      <trkpt lat="49.87657" lon="4.70767">
        <ele>135</ele>
        <time>2024-05-08T10:12:19Z</time>
      </trkpt>
      <trkpt lat="49.87655" lon="4.70768">
        <ele>135</ele>
        <time>2024-05-08T10:12:20Z</time>
      </trkpt>
      <trkpt lat="49.87654" lon="4.70768">
        <ele>135</ele>
        <time>2024-05-08T10:12:21Z</time>
      </trkpt>
      <trkpt lat="49.87653" lon="4.70768">
        <ele>135</ele>
        <time>2024-05-08T10:12:22Z</time>
      </trkpt>
      <trkpt lat="49.87651" lon="4.70768">
        <ele>135</ele>
        <time>2024-05-08T10:12:23Z</time>
      </trkpt>
      <trkpt lat="49.8765" lon="4.70769">
        <ele>135</ele>
        <time>2024-05-08T10:12:24Z</time>
      </trkpt>
      <trkpt lat="49.87649" lon="4.70769">
        <ele>135</ele>
        <time>2024-05-08T10:12:25Z</time>
      </trkpt>
      <trkpt lat="49.87647" lon="4.7077">
        <ele>135</ele>
        <time>2024-05-08T10:12:26Z</time>
      </trkpt>
      <trkpt lat="49.87646" lon="4.7077">
        <ele>134</ele>
        <time>2024-05-08T10:12:27Z</time>
      </trkpt>
      <trkpt lat="49.87645" lon="4.7077">
        <ele>134</ele>
        <time>2024-05-08T10:12:28Z</time>
      </trkpt>
      <trkpt lat="49.87643" lon="4.70771">
        <ele>134</ele>
        <time>2024-05-08T10:12:29Z</time>
      </trkpt>
      <trkpt lat="49.87642" lon="4.70771">
        <ele>134</ele>
        <time>2024-05-08T10:12:30Z</time>
      </trkpt>
      <trkpt lat="49.87641" lon="4.70771">
        <ele>134</ele>
        <time>2024-05-08T10:12:31Z</time>
      </trkpt>
      <trkpt lat="49.87639" lon="4.70771">
        <ele>134</ele>
        <time>2024-05-08T10:12:32Z</time>
      </trkpt>
      <trkpt lat="49.87638" lon="4.70771">
        <ele>134</ele>
        <time>2024-05-08T10:12:33Z</time>
      </trkpt>
      <trkpt lat="49.87637" lon="4.70771">
        <ele>134</ele>
        <time>2024-05-08T10:12:34Z</time>
      </trkpt>
      <trkpt lat="49.87636" lon="4.70771">
        <ele>134</ele>
        <time>2024-05-08T10:12:35Z</time>
      </trkpt>
      <trkpt lat="49.87634" lon="4.70771">
        <ele>134</ele>
        <time>2024-05-08T10:12:36Z</time>
      </trkpt>
      <trkpt lat="49.87633" lon="4.70772">
        <ele>134</ele>
        <time>2024-05-08T10:12:37Z</time>
      </trkpt>
      <trkpt lat="49.87632" lon="4.70772">
        <ele>134</ele>
        <time>2024-05-08T10:12:38Z</time>
      </trkpt>
      <trkpt lat="49.8763" lon="4.70772">
        <ele>134</ele>
        <time>2024-05-08T10:12:39Z</time>
      </trkpt>
      <trkpt lat="49.87629" lon="4.70772">
        <ele>134</ele>
        <time>2024-05-08T10:12:40Z</time>
      </trkpt>
      <trkpt lat="49.87628" lon="4.70772">
        <ele>134</ele>
        <time>2024-05-08T10:12:41Z</time>
      </trkpt>
      <trkpt lat="49.87626" lon="4.70773">
        <ele>134</ele>
        <time>2024-05-08T10:12:42Z</time>
      </trkpt>
      <trkpt lat="49.87625" lon="4.70773">
        <ele>134</ele>
        <time>2024-05-08T10:12:43Z</time>
      </trkpt>
      <trkpt lat="49.87624" lon="4.70774">
        <ele>134</ele>
        <time>2024-05-08T10:12:44Z</time>
      </trkpt>
      <trkpt lat="49.87622" lon="4.70774">
        <ele>134</ele>
        <time>2024-05-08T10:12:45Z</time>
      </trkpt>
      <trkpt lat="49.87621" lon="4.70775">
        <ele>134</ele>
        <time>2024-05-08T10:12:46Z</time>
      </trkpt>
      <trkpt lat="49.8762" lon="4.70775">
        <ele>134</ele>
        <time>2024-05-08T10:12:47Z</time>
      </trkpt>
      <trkpt lat="49.87618" lon="4.70776">
        <ele>134</ele>
        <time>2024-05-08T10:12:48Z</time>
      </trkpt>
      <trkpt lat="49.87617" lon="4.70776">
        <ele>134</ele>
        <time>2024-05-08T10:12:49Z</time>
      </trkpt>
      <trkpt lat="49.87616" lon="4.70776">
        <ele>134</ele>
        <time>2024-05-08T10:12:50Z</time>
      </trkpt>
      <trkpt lat="49.87614" lon="4.70777">
        <ele>134</ele>
        <time>2024-05-08T10:12:51Z</time>
      </trkpt>
      <trkpt lat="49.87613" lon="4.70777">
        <ele>134</ele>
        <time>2024-05-08T10:12:52Z</time>
      </trkpt>
      <trkpt lat="49.87611" lon="4.70777">
        <ele>134</ele>
        <time>2024-05-08T10:12:53Z</time>
      </trkpt>
      <trkpt lat="49.8761" lon="4.70778">
        <ele>134</ele>
        <time>2024-05-08T10:12:54Z</time>
      </trkpt>
      <trkpt lat="49.87608" lon="4.70778">
        <ele>134</ele>
        <time>2024-05-08T10:12:55Z</time>
      </trkpt>
      <trkpt lat="49.87607" lon="4.70778">
        <ele>134</ele>
        <time>2024-05-08T10:12:56Z</time>
      </trkpt>
      <trkpt lat="49.87606" lon="4.70779">
        <ele>134</ele>
        <time>2024-05-08T10:12:57Z</time>
      </trkpt>
      <trkpt lat="49.87604" lon="4.70779">
        <ele>134</ele>
        <time>2024-05-08T10:12:58Z</time>
      </trkpt>
      <trkpt lat="49.87603" lon="4.70779">
        <ele>134</ele>
        <time>2024-05-08T10:12:59Z</time>
      </trkpt>
      <trkpt lat="49.87601" lon="4.7078">
        <ele>134</ele>
        <time>2024-05-08T10:13:00Z</time>
      </trkpt>
      <trkpt lat="49.876" lon="4.7078">
        <ele>134</ele>
        <time>2024-05-08T10:13:01Z</time>
      </trkpt>
      <trkpt lat="49.87598" lon="4.7078">
        <ele>134</ele>
        <time>2024-05-08T10:13:02Z</time>
      </trkpt>
      <trkpt lat="49.87597" lon="4.70781">
        <ele>134</ele>
        <time>2024-05-08T10:13:03Z</time>
      </trkpt>
      <trkpt lat="49.87596" lon="4.70781">
        <ele>134</ele>
        <time>2024-05-08T10:13:04Z</time>
      </trkpt>
      <trkpt lat="49.87594" lon="4.70781">
        <ele>134</ele>
        <time>2024-05-08T10:13:05Z</time>
      </trkpt>
      <trkpt lat="49.87593" lon="4.70782">
        <ele>134</ele>
        <time>2024-05-08T10:13:06Z</time>
      </trkpt>
      <trkpt lat="49.87592" lon="4.70782">
        <ele>134</ele>
        <time>2024-05-08T10:13:07Z</time>
      </trkpt>
      <trkpt lat="49.87591" lon="4.70782">
        <ele>134</ele>
        <time>2024-05-08T10:13:08Z</time>
      </trkpt>
      <trkpt lat="49.87589" lon="4.70782">
        <ele>134</ele>
        <time>2024-05-08T10:13:09Z</time>
      </trkpt>
      <trkpt lat="49.87588" lon="4.70782">
        <ele>134</ele>
        <time>2024-05-08T10:13:10Z</time>
      </trkpt>
      <trkpt lat="49.87586" lon="4.70783">
        <ele>134</ele>
        <time>2024-05-08T10:13:11Z</time>
      </trkpt>
      <trkpt lat="49.87585" lon="4.70783">
        <ele>134</ele>
        <time>2024-05-08T10:13:12Z</time>
      </trkpt>
      <trkpt lat="49.87584" lon="4.70783">
        <ele>134</ele>
        <time>2024-05-08T10:13:13Z</time>
      </trkpt>
      <trkpt lat="49.87582" lon="4.70783">
        <ele>134</ele>
        <time>2024-05-08T10:13:14Z</time>
      </trkpt>
      <trkpt lat="49.87581" lon="4.70783">
        <ele>134</ele>
        <time>2024-05-08T10:13:15Z</time>
      </trkpt>
      <trkpt lat="49.8758" lon="4.70784">
        <ele>134</ele>
        <time>2024-05-08T10:13:16Z</time>
      </trkpt>
      <trkpt lat="49.87578" lon="4.70784">
        <ele>134</ele>
        <time>2024-05-08T10:13:17Z</time>
      </trkpt>
      <trkpt lat="49.87577" lon="4.70784">
        <ele>134</ele>
        <time>2024-05-08T10:13:18Z</time>
      </trkpt>
      <trkpt lat="49.87576" lon="4.70784">
        <ele>134</ele>
        <time>2024-05-08T10:13:19Z</time>
      </trkpt>
      <trkpt lat="49.87575" lon="4.70784">
        <ele>134</ele>
        <time>2024-05-08T10:13:20Z</time>
      </trkpt>
      <trkpt lat="49.87573" lon="4.70785">
        <ele>134</ele>
        <time>2024-05-08T10:13:21Z</time>
      </trkpt>
      <trkpt lat="49.87572" lon="4.70785">
        <ele>134</ele>
        <time>2024-05-08T10:13:22Z</time>
      </trkpt>
      <trkpt lat="49.87571" lon="4.70785">
        <ele>134</ele>
        <time>2024-05-08T10:13:23Z</time>
      </trkpt>
      <trkpt lat="49.8757" lon="4.70785">
        <ele>134</ele>
        <time>2024-05-08T10:13:24Z</time>
      </trkpt>
      <trkpt lat="49.87568" lon="4.70785">
        <ele>134</ele>
        <time>2024-05-08T10:13:25Z</time>
      </trkpt>
      <trkpt lat="49.87567" lon="4.70785">
        <ele>134</ele>
        <time>2024-05-08T10:13:26Z</time>
      </trkpt>
      <trkpt lat="49.87566" lon="4.70785">
        <ele>134</ele>
        <time>2024-05-08T10:13:27Z</time>
      </trkpt>
      <trkpt lat="49.87565" lon="4.70785">
        <ele>134</ele>
        <time>2024-05-08T10:13:28Z</time>
      </trkpt>
      <trkpt lat="49.87564" lon="4.70785">
        <ele>134</ele>
        <time>2024-05-08T10:13:29Z</time>
      </trkpt>
      <trkpt lat="49.87562" lon="4.70785">
        <ele>134</ele>
        <time>2024-05-08T10:13:30Z</time>
      </trkpt>
      <trkpt lat="49.87561" lon="4.70785">
        <ele>134</ele>
        <time>2024-05-08T10:13:31Z</time>
      </trkpt>
      <trkpt lat="49.8756" lon="4.70785">
        <ele>134</ele>
        <time>2024-05-08T10:13:32Z</time>
      </trkpt>
      <trkpt lat="49.87559" lon="4.70785">
        <ele>134</ele>
        <time>2024-05-08T10:13:33Z</time>
      </trkpt>
      <trkpt lat="49.87557" lon="4.70785">
        <ele>134</ele>
        <time>2024-05-08T10:13:34Z</time>
      </trkpt>
      <trkpt lat="49.87556" lon="4.70785">
        <ele>134</ele>
        <time>2024-05-08T10:13:35Z</time>
      </trkpt>
      <trkpt lat="49.87555" lon="4.70786">
        <ele>134</ele>
        <time>2024-05-08T10:13:36Z</time>
      </trkpt>
      <trkpt lat="49.87553" lon="4.70786">
        <ele>133</ele>
        <time>2024-05-08T10:13:37Z</time>
      </trkpt>
      <trkpt lat="49.87552" lon="4.70786">
        <ele>133</ele>
        <time>2024-05-08T10:13:38Z</time>
      </trkpt>
      <trkpt lat="49.87551" lon="4.70786">
        <ele>133</ele>
        <time>2024-05-08T10:13:39Z</time>
      </trkpt>
      <trkpt lat="49.8755" lon="4.70786">
        <ele>133</ele>
        <time>2024-05-08T10:13:40Z</time>
      </trkpt>
      <trkpt lat="49.87548" lon="4.70786">
        <ele>133</ele>
        <time>2024-05-08T10:13:41Z</time>
      </trkpt>
      <trkpt lat="49.87547" lon="4.70787">
        <ele>133</ele>
        <time>2024-05-08T10:13:42Z</time>
      </trkpt>
      <trkpt lat="49.87546" lon="4.70787">
        <ele>133</ele>
        <time>2024-05-08T10:13:43Z</time>
      </trkpt>
      <trkpt lat="49.87545" lon="4.70787">
        <ele>133</ele>
        <time>2024-05-08T10:13:44Z</time>
      </trkpt>
      <trkpt lat="49.87543" lon="4.70787">
        <ele>133</ele>
        <time>2024-05-08T10:13:45Z</time>
      </trkpt>
      <trkpt lat="49.87542" lon="4.70787">
        <ele>133</ele>
        <time>2024-05-08T10:13:46Z</time>
      </trkpt>
      <trkpt lat="49.87541" lon="4.70788">
        <ele>133</ele>
        <time>2024-05-08T10:13:47Z</time>
      </trkpt>
      <trkpt lat="49.87539" lon="4.70788">
        <ele>133</ele>
        <time>2024-05-08T10:13:48Z</time>
      </trkpt>
      <trkpt lat="49.87538" lon="4.70788">
        <ele>133</ele>
        <time>2024-05-08T10:13:49Z</time>
      </trkpt>
      <trkpt lat="49.87537" lon="4.70788">
        <ele>133</ele>
        <time>2024-05-08T10:13:50Z</time>
      </trkpt>
      <trkpt lat="49.87535" lon="4.70788">
        <ele>133</ele>
        <time>2024-05-08T10:13:51Z</time>
      </trkpt>
      <trkpt lat="49.87534" lon="4.70788">
        <ele>133</ele>
        <time>2024-05-08T10:13:52Z</time>
      </trkpt>
      <trkpt lat="49.87533" lon="4.70788">
        <ele>133</ele>
        <time>2024-05-08T10:13:53Z</time>
      </trkpt>
      <trkpt lat="49.87531" lon="4.70788">
        <ele>133</ele>
        <time>2024-05-08T10:13:54Z</time>
      </trkpt>
      <trkpt lat="49.8753" lon="4.70788">
        <ele>133</ele>
        <time>2024-05-08T10:13:55Z</time>
      </trkpt>
      <trkpt lat="49.87529" lon="4.70788">
        <ele>133</ele>
        <time>2024-05-08T10:13:56Z</time>
      </trkpt>
      <trkpt lat="49.87527" lon="4.70788">
        <ele>133</ele>
        <time>2024-05-08T10:13:57Z</time>
      </trkpt>
      <trkpt lat="49.87526" lon="4.70789">
        <ele>133</ele>
        <time>2024-05-08T10:13:58Z</time>
      </trkpt>
      <trkpt lat="49.87525" lon="4.70789">
        <ele>133</ele>
        <time>2024-05-08T10:13:59Z</time>
      </trkpt>
      <trkpt lat="49.87523" lon="4.70789">
        <ele>133</ele>
        <time>2024-05-08T10:14:00Z</time>
      </trkpt>
      <trkpt lat="49.87522" lon="4.70789">
        <ele>133</ele>
        <time>2024-05-08T10:14:01Z</time>
      </trkpt>
      <trkpt lat="49.8752" lon="4.70789">
        <ele>133</ele>
        <time>2024-05-08T10:14:02Z</time>
      </trkpt>
      <trkpt lat="49.87519" lon="4.70788">
        <ele>133</ele>
        <time>2024-05-08T10:14:03Z</time>
      </trkpt>
      <trkpt lat="49.87518" lon="4.70788">
        <ele>133</ele>
        <time>2024-05-08T10:14:04Z</time>
      </trkpt>
      <trkpt lat="49.87517" lon="4.70788">
        <ele>133</ele>
        <time>2024-05-08T10:14:05Z</time>
      </trkpt>
      <trkpt lat="49.87515" lon="4.70788">
        <ele>133</ele>
        <time>2024-05-08T10:14:06Z</time>
      </trkpt>
      <trkpt lat="49.87514" lon="4.70788">
        <ele>133</ele>
        <time>2024-05-08T10:14:07Z</time>
      </trkpt>
      <trkpt lat="49.87513" lon="4.70788">
        <ele>133</ele>
        <time>2024-05-08T10:14:08Z</time>
      </trkpt>
      <trkpt lat="49.87511" lon="4.70788">
        <ele>133</ele>
        <time>2024-05-08T10:14:09Z</time>
      </trkpt>
      <trkpt lat="49.8751" lon="4.70788">
        <ele>133</ele>
        <time>2024-05-08T10:14:10Z</time>
      </trkpt>
      <trkpt lat="49.87509" lon="4.70788">
        <ele>134</ele>
        <time>2024-05-08T10:14:11Z</time>
      </trkpt>
      <trkpt lat="49.87507" lon="4.70788">
        <ele>134</ele>
        <time>2024-05-08T10:14:12Z</time>
      </trkpt>
      <trkpt lat="49.87506" lon="4.70788">
        <ele>134</ele>
        <time>2024-05-08T10:14:13Z</time>
      </trkpt>
      <trkpt lat="49.87505" lon="4.70788">
        <ele>134</ele>
        <time>2024-05-08T10:14:14Z</time>
      </trkpt>
      <trkpt lat="49.87503" lon="4.70788">
        <ele>134</ele>
        <time>2024-05-08T10:14:15Z</time>
      </trkpt>
      <trkpt lat="49.87502" lon="4.70788">
        <ele>134</ele>
        <time>2024-05-08T10:14:16Z</time>
      </trkpt>
      <trkpt lat="49.87501" lon="4.70788">
        <ele>134</ele>
        <time>2024-05-08T10:14:17Z</time>
      </trkpt>
      <trkpt lat="49.875" lon="4.70788">
        <ele>134</ele>
        <time>2024-05-08T10:14:18Z</time>
      </trkpt>
      <trkpt lat="49.87498" lon="4.70788">
        <ele>134</ele>
        <time>2024-05-08T10:14:19Z</time>
      </trkpt>
      <trkpt lat="49.87497" lon="4.70788">
        <ele>134</ele>
        <time>2024-05-08T10:14:20Z</time>
      </trkpt>
      <trkpt lat="49.87496" lon="4.70789">
        <ele>134</ele>
        <time>2024-05-08T10:14:21Z</time>
      </trkpt>
      <trkpt lat="49.87494" lon="4.70789">
        <ele>134</ele>
        <time>2024-05-08T10:14:22Z</time>
      </trkpt>
      <trkpt lat="49.87493" lon="4.70789">
        <ele>134</ele>
        <time>2024-05-08T10:14:23Z</time>
      </trkpt>
      <trkpt lat="49.87492" lon="4.7079">
        <ele>134</ele>
        <time>2024-05-08T10:14:24Z</time>
      </trkpt>
      <trkpt lat="49.87491" lon="4.7079">
        <ele>134</ele>
        <time>2024-05-08T10:14:25Z</time>
      </trkpt>
      <trkpt lat="49.8749" lon="4.70791">
        <ele>134</ele>
        <time>2024-05-08T10:14:26Z</time>
      </trkpt>
      <trkpt lat="49.87489" lon="4.70791">
        <ele>134</ele>
        <time>2024-05-08T10:14:27Z</time>
      </trkpt>
      <trkpt lat="49.87488" lon="4.70791">
        <ele>134</ele>
        <time>2024-05-08T10:14:28Z</time>
      </trkpt>
      <trkpt lat="49.87486" lon="4.70792">
        <ele>134</ele>
        <time>2024-05-08T10:14:29Z</time>
      </trkpt>
      <trkpt lat="49.87485" lon="4.70792">
        <ele>134</ele>
        <time>2024-05-08T10:14:30Z</time>
      </trkpt>
      <trkpt lat="49.87484" lon="4.70792">
        <ele>134</ele>
        <time>2024-05-08T10:14:31Z</time>
      </trkpt>
      <trkpt lat="49.87483" lon="4.70793">
        <ele>134</ele>
        <time>2024-05-08T10:14:32Z</time>
      </trkpt>
      <trkpt lat="49.87482" lon="4.70793">
        <ele>134</ele>
        <time>2024-05-08T10:14:33Z</time>
      </trkpt>
      <trkpt lat="49.87481" lon="4.70794">
        <ele>134</ele>
        <time>2024-05-08T10:14:34Z</time>
      </trkpt>
      <trkpt lat="49.8748" lon="4.70794">
        <ele>134</ele>
        <time>2024-05-08T10:14:35Z</time>
      </trkpt>
      <trkpt lat="49.87478" lon="4.70795">
        <ele>134</ele>
        <time>2024-05-08T10:14:36Z</time>
      </trkpt>
      <trkpt lat="49.87477" lon="4.70796">
        <ele>134</ele>
        <time>2024-05-08T10:14:37Z</time>
      </trkpt>
      <trkpt lat="49.87476" lon="4.70796">
        <ele>134</ele>
        <time>2024-05-08T10:14:38Z</time>
      </trkpt>
      <trkpt lat="49.87475" lon="4.70797">
        <ele>134</ele>
        <time>2024-05-08T10:14:39Z</time>
      </trkpt>
      <trkpt lat="49.87474" lon="4.70799">
        <ele>134</ele>
        <time>2024-05-08T10:14:40Z</time>
      </trkpt>
      <trkpt lat="49.87474" lon="4.708">
        <ele>135</ele>
        <time>2024-05-08T10:14:41Z</time>
      </trkpt>
      <trkpt lat="49.87473" lon="4.70801">
        <ele>134</ele>
        <time>2024-05-08T10:14:42Z</time>
      </trkpt>
      <trkpt lat="49.87472" lon="4.70802">
        <ele>134</ele>
        <time>2024-05-08T10:14:43Z</time>
      </trkpt>
      <trkpt lat="49.87471" lon="4.70803">
        <ele>134</ele>
        <time>2024-05-08T10:14:44Z</time>
      </trkpt>
      <trkpt lat="49.8747" lon="4.70805">
        <ele>134</ele>
        <time>2024-05-08T10:14:45Z</time>
      </trkpt>
      <trkpt lat="49.87469" lon="4.70806">
        <ele>134</ele>
        <time>2024-05-08T10:14:46Z</time>
      </trkpt>
      <trkpt lat="49.87468" lon="4.70807">
        <ele>134</ele>
        <time>2024-05-08T10:14:47Z</time>
      </trkpt>
      <trkpt lat="49.87467" lon="4.70808">
        <ele>134</ele>
        <time>2024-05-08T10:14:48Z</time>
      </trkpt>
      <trkpt lat="49.87466" lon="4.7081">
        <ele>134</ele>
        <time>2024-05-08T10:14:49Z</time>
      </trkpt>
      <trkpt lat="49.87465" lon="4.70811">
        <ele>134</ele>
        <time>2024-05-08T10:14:50Z</time>
      </trkpt>
      <trkpt lat="49.87464" lon="4.70812">
        <ele>134</ele>
        <time>2024-05-08T10:14:51Z</time>
      </trkpt>
      <trkpt lat="49.87463" lon="4.70814">
        <ele>134</ele>
        <time>2024-05-08T10:14:52Z</time>
      </trkpt>
      <trkpt lat="49.87462" lon="4.70815">
        <ele>134</ele>
        <time>2024-05-08T10:14:53Z</time>
      </trkpt>
      <trkpt lat="49.87461" lon="4.70816">
        <ele>134</ele>
        <time>2024-05-08T10:14:54Z</time>
      </trkpt>
      <trkpt lat="49.8746" lon="4.70817">
        <ele>134</ele>
        <time>2024-05-08T10:14:55Z</time>
      </trkpt>
      <trkpt lat="49.87459" lon="4.70818">
        <ele>134</ele>
        <time>2024-05-08T10:14:56Z</time>
      </trkpt>
      <trkpt lat="49.87458" lon="4.7082">
        <ele>134</ele>
        <time>2024-05-08T10:14:57Z</time>
      </trkpt>
      <trkpt lat="49.87457" lon="4.70821">
        <ele>134</ele>
        <time>2024-05-08T10:14:58Z</time>
      </trkpt>
      <trkpt lat="49.87456" lon="4.70822">
        <ele>134</ele>
        <time>2024-05-08T10:14:59Z</time>
      </trkpt>
      <trkpt lat="49.87455" lon="4.70823">
        <ele>134</ele>
        <time>2024-05-08T10:15:00Z</time>
      </trkpt>
      <trkpt lat="49.87454" lon="4.70824">
        <ele>134</ele>
        <time>2024-05-08T10:15:01Z</time>
      </trkpt>
      <trkpt lat="49.87453" lon="4.70825">
        <ele>134</ele>
        <time>2024-05-08T10:15:02Z</time>
      </trkpt>
      <trkpt lat="49.87451" lon="4.70826">
        <ele>134</ele>
        <time>2024-05-08T10:15:03Z</time>
      </trkpt>
      <trkpt lat="49.8745" lon="4.70827">
        <ele>134</ele>
        <time>2024-05-08T10:15:04Z</time>
      </trkpt>
      <trkpt lat="49.87449" lon="4.70828">
        <ele>134</ele>
        <time>2024-05-08T10:15:05Z</time>
      </trkpt>
      <trkpt lat="49.87448" lon="4.70829">
        <ele>134</ele>
        <time>2024-05-08T10:15:06Z</time>
      </trkpt>
      <trkpt lat="49.87447" lon="4.7083">
        <ele>134</ele>
        <time>2024-05-08T10:15:07Z</time>
      </trkpt>
      <trkpt lat="49.87445" lon="4.70831">
        <ele>134</ele>
        <time>2024-05-08T10:15:08Z</time>
      </trkpt>
      <trkpt lat="49.87444" lon="4.70832">
        <ele>134</ele>
        <time>2024-05-08T10:15:09Z</time>
      </trkpt>
      <trkpt lat="49.87443" lon="4.70832">
        <ele>134</ele>
        <time>2024-05-08T10:15:10Z</time>
      </trkpt>
      <trkpt lat="49.87442" lon="4.70833">
        <ele>134</ele>
        <time>2024-05-08T10:15:11Z</time>
      </trkpt>
      <trkpt lat="49.8744" lon="4.70834">
        <ele>134</ele>
        <time>2024-05-08T10:15:12Z</time>
      </trkpt>
      <trkpt lat="49.87439" lon="4.70835">
        <ele>134</ele>
        <time>2024-05-08T10:15:13Z</time>
      </trkpt>
      <trkpt lat="49.87438" lon="4.70836">
        <ele>134</ele>
        <time>2024-05-08T10:15:14Z</time>
      </trkpt>
      <trkpt lat="49.87437" lon="4.70837">
        <ele>134</ele>
        <time>2024-05-08T10:15:15Z</time>
      </trkpt>
      <trkpt lat="49.87435" lon="4.70838">
        <ele>134</ele>
        <time>2024-05-08T10:15:16Z</time>
      </trkpt>
      <trkpt lat="49.87434" lon="4.70838">
        <ele>134</ele>
        <time>2024-05-08T10:15:17Z</time>
      </trkpt>
      <trkpt lat="49.87433" lon="4.70839">
        <ele>134</ele>
        <time>2024-05-08T10:15:18Z</time>
      </trkpt>
      <trkpt lat="49.87432" lon="4.7084">
        <ele>134</ele>
        <time>2024-05-08T10:15:19Z</time>
      </trkpt>
      <trkpt lat="49.8743" lon="4.70841">
        <ele>134</ele>
        <time>2024-05-08T10:15:20Z</time>
      </trkpt>
      <trkpt lat="49.87429" lon="4.70842">
        <ele>134</ele>
        <time>2024-05-08T10:15:21Z</time>
      </trkpt>
      <trkpt lat="49.87428" lon="4.70843">
        <ele>134</ele>
        <time>2024-05-08T10:15:22Z</time>
      </trkpt>
      <trkpt lat="49.87427" lon="4.70844">
        <ele>134</ele>
        <time>2024-05-08T10:15:23Z</time>
      </trkpt>
      <trkpt lat="49.87425" lon="4.70845">
        <ele>134</ele>
        <time>2024-05-08T10:15:24Z</time>
      </trkpt>
      <trkpt lat="49.87424" lon="4.70846">
        <ele>134</ele>
        <time>2024-05-08T10:15:25Z</time>
      </trkpt>
      <trkpt lat="49.87423" lon="4.70847">
        <ele>134</ele>
        <time>2024-05-08T10:15:26Z</time>
      </trkpt>
      <trkpt lat="49.87422" lon="4.70848">
        <ele>134</ele>
        <time>2024-05-08T10:15:27Z</time>
      </trkpt>
      <trkpt lat="49.8742" lon="4.70849">
        <ele>134</ele>
        <time>2024-05-08T10:15:28Z</time>
      </trkpt>
      <trkpt lat="49.87419" lon="4.7085">
        <ele>134</ele>
        <time>2024-05-08T10:15:29Z</time>
      </trkpt>
      <trkpt lat="49.87418" lon="4.70851">
        <ele>134</ele>
        <time>2024-05-08T10:15:30Z</time>
      </trkpt>
      <trkpt lat="49.87417" lon="4.70852">
        <ele>134</ele>
        <time>2024-05-08T10:15:31Z</time>
      </trkpt>
      <trkpt lat="49.87415" lon="4.70852">
        <ele>134</ele>
        <time>2024-05-08T10:15:32Z</time>
      </trkpt>
      <trkpt lat="49.87414" lon="4.70853">
        <ele>134</ele>
        <time>2024-05-08T10:15:33Z</time>
      </trkpt>
      <trkpt lat="49.87413" lon="4.70854">
        <ele>134</ele>
        <time>2024-05-08T10:15:34Z</time>
      </trkpt>
      <trkpt lat="49.87412" lon="4.70855">
        <ele>134</ele>
        <time>2024-05-08T10:15:35Z</time>
      </trkpt>
      <trkpt lat="49.87411" lon="4.70855">
        <ele>134</ele>
        <time>2024-05-08T10:15:36Z</time>
      </trkpt>
      <trkpt lat="49.8741" lon="4.70856">
        <ele>134</ele>
        <time>2024-05-08T10:15:37Z</time>
      </trkpt>
      <trkpt lat="49.87408" lon="4.70856">
        <ele>134</ele>
        <time>2024-05-08T10:15:38Z</time>
      </trkpt>
      <trkpt lat="49.87407" lon="4.70857">
        <ele>134</ele>
        <time>2024-05-08T10:15:39Z</time>
      </trkpt>
      <trkpt lat="49.87406" lon="4.70858">
        <ele>134</ele>
        <time>2024-05-08T10:15:40Z</time>
      </trkpt>
      <trkpt lat="49.87405" lon="4.70859">
        <ele>134</ele>
        <time>2024-05-08T10:15:41Z</time>
      </trkpt>
      <trkpt lat="49.87404" lon="4.7086">
        <ele>134</ele>
        <time>2024-05-08T10:15:42Z</time>
      </trkpt>
      <trkpt lat="49.87402" lon="4.70861">
        <ele>134</ele>
        <time>2024-05-08T10:15:43Z</time>
      </trkpt>
      <trkpt lat="49.87401" lon="4.70861">
        <ele>134</ele>
        <time>2024-05-08T10:15:44Z</time>
      </trkpt>
      <trkpt lat="49.87399" lon="4.70862">
        <ele>134</ele>
        <time>2024-05-08T10:15:45Z</time>
      </trkpt>
      <trkpt lat="49.87398" lon="4.70863">
        <ele>134</ele>
        <time>2024-05-08T10:15:46Z</time>
      </trkpt>
      <trkpt lat="49.87396" lon="4.70864">
        <ele>134</ele>
        <time>2024-05-08T10:15:47Z</time>
      </trkpt>
      <trkpt lat="49.87395" lon="4.70864">
        <ele>134</ele>
        <time>2024-05-08T10:15:48Z</time>
      </trkpt>
      <trkpt lat="49.87394" lon="4.70865">
        <ele>134</ele>
        <time>2024-05-08T10:15:49Z</time>
      </trkpt>
      <trkpt lat="49.87393" lon="4.70866">
        <ele>134</ele>
        <time>2024-05-08T10:15:50Z</time>
      </trkpt>
      <trkpt lat="49.87391" lon="4.70867">
        <ele>134</ele>
        <time>2024-05-08T10:15:51Z</time>
      </trkpt>
      <trkpt lat="49.8739" lon="4.70867">
        <ele>134</ele>
        <time>2024-05-08T10:15:52Z</time>
      </trkpt>
      <trkpt lat="49.87389" lon="4.70868">
        <ele>134</ele>
        <time>2024-05-08T10:15:53Z</time>
      </trkpt>
      <trkpt lat="49.87387" lon="4.70869">
        <ele>134</ele>
        <time>2024-05-08T10:15:54Z</time>
      </trkpt>
      <trkpt lat="49.87386" lon="4.7087">
        <ele>134</ele>
        <time>2024-05-08T10:15:55Z</time>
      </trkpt>
      <trkpt lat="49.87384" lon="4.70871">
        <ele>134</ele>
        <time>2024-05-08T10:15:56Z</time>
      </trkpt>
      <trkpt lat="49.87383" lon="4.70872">
        <ele>134</ele>
        <time>2024-05-08T10:15:57Z</time>
      </trkpt>
      <trkpt lat="49.87382" lon="4.70873">
        <ele>134</ele>
        <time>2024-05-08T10:15:58Z</time>
      </trkpt>
      <trkpt lat="49.8738" lon="4.70874">
        <ele>134</ele>
        <time>2024-05-08T10:15:59Z</time>
      </trkpt>
      <trkpt lat="49.87379" lon="4.70875">
        <ele>134</ele>
        <time>2024-05-08T10:16:00Z</time>
      </trkpt>
      <trkpt lat="49.87378" lon="4.70876">
        <ele>134</ele>
        <time>2024-05-08T10:16:01Z</time>
      </trkpt>
      <trkpt lat="49.87376" lon="4.70876">
        <ele>134</ele>
        <time>2024-05-08T10:16:02Z</time>
      </trkpt>
      <trkpt lat="49.87375" lon="4.70877">
        <ele>134</ele>
        <time>2024-05-08T10:16:03Z</time>
      </trkpt>
      <trkpt lat="49.87374" lon="4.70878">
        <ele>134</ele>
        <time>2024-05-08T10:16:04Z</time>
      </trkpt>
      <trkpt lat="49.87373" lon="4.70879">
        <ele>134</ele>
        <time>2024-05-08T10:16:05Z</time>
      </trkpt>
      <trkpt lat="49.87371" lon="4.7088">
        <ele>134</ele>
        <time>2024-05-08T10:16:06Z</time>
      </trkpt>
      <trkpt lat="49.8737" lon="4.70881">
        <ele>134</ele>
        <time>2024-05-08T10:16:07Z</time>
      </trkpt>
      <trkpt lat="49.87369" lon="4.70881">
        <ele>134</ele>
        <time>2024-05-08T10:16:08Z</time>
      </trkpt>
      <trkpt lat="49.87367" lon="4.70883">
        <ele>134</ele>
        <time>2024-05-08T10:16:09Z</time>
      </trkpt>
      <trkpt lat="49.87366" lon="4.70884">
        <ele>134</ele>
        <time>2024-05-08T10:16:10Z</time>
      </trkpt>
      <trkpt lat="49.87365" lon="4.70885">
        <ele>134</ele>
        <time>2024-05-08T10:16:11Z</time>
      </trkpt>
      <trkpt lat="49.87363" lon="4.70886">
        <ele>133</ele>
        <time>2024-05-08T10:16:12Z</time>
      </trkpt>
      <trkpt lat="49.87362" lon="4.70887">
        <ele>133</ele>
        <time>2024-05-08T10:16:13Z</time>
      </trkpt>
      <trkpt lat="49.87361" lon="4.70888">
        <ele>133</ele>
        <time>2024-05-08T10:16:14Z</time>
      </trkpt>
      <trkpt lat="49.87359" lon="4.70889">
        <ele>133</ele>
        <time>2024-05-08T10:16:15Z</time>
      </trkpt>
      <trkpt lat="49.87358" lon="4.7089">
        <ele>133</ele>
        <time>2024-05-08T10:16:16Z</time>
      </trkpt>
      <trkpt lat="49.87357" lon="4.70892">
        <ele>133</ele>
        <time>2024-05-08T10:16:17Z</time>
      </trkpt>
      <trkpt lat="49.87355" lon="4.70893">
        <ele>133</ele>
        <time>2024-05-08T10:16:18Z</time>
      </trkpt>
      <trkpt lat="49.87354" lon="4.70894">
        <ele>133</ele>
        <time>2024-05-08T10:16:19Z</time>
      </trkpt>
      <trkpt lat="49.87353" lon="4.70896">
        <ele>133</ele>
        <time>2024-05-08T10:16:20Z</time>
      </trkpt>
      <trkpt lat="49.87352" lon="4.70897">
        <ele>133</ele>
        <time>2024-05-08T10:16:21Z</time>
      </trkpt>
      <trkpt lat="49.8735" lon="4.70898">
        <ele>133</ele>
        <time>2024-05-08T10:16:22Z</time>
      </trkpt>
      <trkpt lat="49.87349" lon="4.70899">
        <ele>133</ele>
        <time>2024-05-08T10:16:23Z</time>
      </trkpt>
      <trkpt lat="49.87348" lon="4.709">
        <ele>133</ele>
        <time>2024-05-08T10:16:24Z</time>
      </trkpt>
      <trkpt lat="49.87347" lon="4.70901">
        <ele>133</ele>
        <time>2024-05-08T10:16:25Z</time>
      </trkpt>
      <trkpt lat="49.87346" lon="4.70902">
        <ele>133</ele>
        <time>2024-05-08T10:16:26Z</time>
      </trkpt>
      <trkpt lat="49.87345" lon="4.70903">
        <ele>133</ele>
        <time>2024-05-08T10:16:27Z</time>
      </trkpt>
      <trkpt lat="49.87344" lon="4.70904">
        <ele>133</ele>
        <time>2024-05-08T10:16:28Z</time>
      </trkpt>
      <trkpt lat="49.87343" lon="4.70905">
        <ele>133</ele>
        <time>2024-05-08T10:16:29Z</time>
      </trkpt>
      <trkpt lat="49.87342" lon="4.70906">
        <ele>133</ele>
        <time>2024-05-08T10:16:30Z</time>
      </trkpt>
      <trkpt lat="49.8734" lon="4.70907">
        <ele>133</ele>
        <time>2024-05-08T10:16:31Z</time>
      </trkpt>
      <trkpt lat="49.87339" lon="4.70909">
        <ele>133</ele>
        <time>2024-05-08T10:16:32Z</time>
      </trkpt>
      <trkpt lat="49.87338" lon="4.7091">
        <ele>133</ele>
        <time>2024-05-08T10:16:33Z</time>
      </trkpt>
      <trkpt lat="49.87337" lon="4.70911">
        <ele>133</ele>
        <time>2024-05-08T10:16:34Z</time>
      </trkpt>
      <trkpt lat="49.87336" lon="4.70912">
        <ele>133</ele>
        <time>2024-05-08T10:16:35Z</time>
      </trkpt>
      <trkpt lat="49.87335" lon="4.70913">
        <ele>133</ele>
        <time>2024-05-08T10:16:36Z</time>
      </trkpt>
      <trkpt lat="49.87333" lon="4.70915">
        <ele>133</ele>
        <time>2024-05-08T10:16:37Z</time>
      </trkpt>
      <trkpt lat="49.87332" lon="4.70916">
        <ele>133</ele>
        <time>2024-05-08T10:16:38Z</time>
      </trkpt>
      <trkpt lat="49.87331" lon="4.70917">
        <ele>133</ele>
        <time>2024-05-08T10:16:39Z</time>
      </trkpt>
      <trkpt lat="49.8733" lon="4.70918">
        <ele>133</ele>
        <time>2024-05-08T10:16:40Z</time>
      </trkpt>
      <trkpt lat="49.87328" lon="4.70918">
        <ele>133</ele>
        <time>2024-05-08T10:16:41Z</time>
      </trkpt>
      <trkpt lat="49.87327" lon="4.70919">
        <ele>133</ele>
        <time>2024-05-08T10:16:42Z</time>
      </trkpt>
      <trkpt lat="49.87326" lon="4.7092">
        <ele>133</ele>
        <time>2024-05-08T10:16:43Z</time>
      </trkpt>
      <trkpt lat="49.87325" lon="4.70921">
        <ele>133</ele>
        <time>2024-05-08T10:16:44Z</time>
      </trkpt>
      <trkpt lat="49.87324" lon="4.70922">
        <ele>133</ele>
        <time>2024-05-08T10:16:45Z</time>
      </trkpt>
      <trkpt lat="49.87323" lon="4.70923">
        <ele>133</ele>
        <time>2024-05-08T10:16:46Z</time>
      </trkpt>
      <trkpt lat="49.87321" lon="4.70924">
        <ele>133</ele>
        <time>2024-05-08T10:16:47Z</time>
      </trkpt>
      <trkpt lat="49.8732" lon="4.70925">
        <ele>133</ele>
        <time>2024-05-08T10:16:48Z</time>
      </trkpt>
      <trkpt lat="49.87319" lon="4.70926">
        <ele>133</ele>
        <time>2024-05-08T10:16:49Z</time>
      </trkpt>
      <trkpt lat="49.87318" lon="4.70927">
        <ele>133</ele>
        <time>2024-05-08T10:16:50Z</time>
      </trkpt>
      <trkpt lat="49.87317" lon="4.70929">
        <ele>133</ele>
        <time>2024-05-08T10:16:51Z</time>
      </trkpt>
      <trkpt lat="49.87316" lon="4.7093">
        <ele>133</ele>
        <time>2024-05-08T10:16:52Z</time>
      </trkpt>
      <trkpt lat="49.87315" lon="4.70931">
        <ele>133</ele>
        <time>2024-05-08T10:16:53Z</time>
      </trkpt>
      <trkpt lat="49.87314" lon="4.70932">
        <ele>133</ele>
        <time>2024-05-08T10:16:54Z</time>
      </trkpt>
      <trkpt lat="49.87312" lon="4.70933">
        <ele>133</ele>
        <time>2024-05-08T10:16:55Z</time>
      </trkpt>
      <trkpt lat="49.87311" lon="4.70934">
        <ele>133</ele>
        <time>2024-05-08T10:16:56Z</time>
      </trkpt>
      <trkpt lat="49.8731" lon="4.70936">
        <ele>133</ele>
        <time>2024-05-08T10:16:57Z</time>
      </trkpt>
      <trkpt lat="49.87309" lon="4.70937">
        <ele>133</ele>
        <time>2024-05-08T10:16:58Z</time>
      </trkpt>
      <trkpt lat="49.87308" lon="4.70938">
        <ele>133</ele>
        <time>2024-05-08T10:16:59Z</time>
      </trkpt>
      <trkpt lat="49.87307" lon="4.70939">
        <ele>133</ele>
        <time>2024-05-08T10:17:00Z</time>
      </trkpt>
      <trkpt lat="49.87306" lon="4.7094">
        <ele>133</ele>
        <time>2024-05-08T10:17:01Z</time>
      </trkpt>
      <trkpt lat="49.87304" lon="4.70941">
        <ele>133</ele>
        <time>2024-05-08T10:17:02Z</time>
      </trkpt>
      <trkpt lat="49.87303" lon="4.70942">
        <ele>133</ele>
        <time>2024-05-08T10:17:03Z</time>
      </trkpt>
      <trkpt lat="49.87302" lon="4.70943">
        <ele>133</ele>
        <time>2024-05-08T10:17:04Z</time>
      </trkpt>
      <trkpt lat="49.87301" lon="4.70944">
        <ele>133</ele>
        <time>2024-05-08T10:17:05Z</time>
      </trkpt>
      <trkpt lat="49.873" lon="4.70945">
        <ele>133</ele>
        <time>2024-05-08T10:17:06Z</time>
      </trkpt>
      <trkpt lat="49.87299" lon="4.70946">
        <ele>133</ele>
        <time>2024-05-08T10:17:07Z</time>
      </trkpt>
      <trkpt lat="49.87297" lon="4.70947">
        <ele>133</ele>
        <time>2024-05-08T10:17:08Z</time>
      </trkpt>
      <trkpt lat="49.87296" lon="4.70949">
        <ele>133</ele>
        <time>2024-05-08T10:17:09Z</time>
      </trkpt>
      <trkpt lat="49.87295" lon="4.7095">
        <ele>133</ele>
        <time>2024-05-08T10:17:10Z</time>
      </trkpt>
      <trkpt lat="49.87294" lon="4.70951">
        <ele>133</ele>
        <time>2024-05-08T10:17:11Z</time>
      </trkpt>
      <trkpt lat="49.87292" lon="4.70952">
        <ele>133</ele>
        <time>2024-05-08T10:17:12Z</time>
      </trkpt>
      <trkpt lat="49.87291" lon="4.70953">
        <ele>133</ele>
        <time>2024-05-08T10:17:13Z</time>
      </trkpt>
      <trkpt lat="49.8729" lon="4.70955">
        <ele>133</ele>
        <time>2024-05-08T10:17:14Z</time>
      </trkpt>
      <trkpt lat="49.87289" lon="4.70956">
        <ele>133</ele>
        <time>2024-05-08T10:17:15Z</time>
      </trkpt>
      <trkpt lat="49.87287" lon="4.70957">
        <ele>133</ele>
        <time>2024-05-08T10:17:16Z</time>
      </trkpt>
      <trkpt lat="49.87286" lon="4.70958">
        <ele>133</ele>
        <time>2024-05-08T10:17:17Z</time>
      </trkpt>
      <trkpt lat="49.87285" lon="4.70959">
        <ele>133</ele>
        <time>2024-05-08T10:17:18Z</time>
      </trkpt>
      <trkpt lat="49.87284" lon="4.7096">
        <ele>133</ele>
        <time>2024-05-08T10:17:19Z</time>
      </trkpt>
      <trkpt lat="49.87283" lon="4.70961">
        <ele>133</ele>
        <time>2024-05-08T10:17:20Z</time>
      </trkpt>
      <trkpt lat="49.87282" lon="4.70962">
        <ele>133</ele>
        <time>2024-05-08T10:17:21Z</time>
      </trkpt>
      <trkpt lat="49.8728" lon="4.70963">
        <ele>133</ele>
        <time>2024-05-08T10:17:22Z</time>
      </trkpt>
      <trkpt lat="49.87279" lon="4.70965">
        <ele>133</ele>
        <time>2024-05-08T10:17:23Z</time>
      </trkpt>
      <trkpt lat="49.87278" lon="4.70966">
        <ele>133</ele>
        <time>2024-05-08T10:17:24Z</time>
      </trkpt>
      <trkpt lat="49.87277" lon="4.70967">
        <ele>133</ele>
        <time>2024-05-08T10:17:25Z</time>
      </trkpt>
      <trkpt lat="49.87275" lon="4.70968">
        <ele>133</ele>
        <time>2024-05-08T10:17:26Z</time>
      </trkpt>
      <trkpt lat="49.87274" lon="4.70969">
        <ele>133</ele>
        <time>2024-05-08T10:17:27Z</time>
      </trkpt>
      <trkpt lat="49.87273" lon="4.7097">
        <ele>133</ele>
        <time>2024-05-08T10:17:28Z</time>
      </trkpt>
      <trkpt lat="49.87272" lon="4.70972">
        <ele>133</ele>
        <time>2024-05-08T10:17:29Z</time>
      </trkpt>
      <trkpt lat="49.87271" lon="4.70973">
        <ele>133</ele>
        <time>2024-05-08T10:17:30Z</time>
      </trkpt>
      <trkpt lat="49.8727" lon="4.70974">
        <ele>133</ele>
        <time>2024-05-08T10:17:31Z</time>
      </trkpt>
      <trkpt lat="49.87268" lon="4.70975">
        <ele>133</ele>
        <time>2024-05-08T10:17:32Z</time>
      </trkpt>
      <trkpt lat="49.87267" lon="4.70976">
        <ele>133</ele>
        <time>2024-05-08T10:17:33Z</time>
      </trkpt>
      <trkpt lat="49.87266" lon="4.70977">
        <ele>133</ele>
        <time>2024-05-08T10:17:34Z</time>
      </trkpt>
      <trkpt lat="49.87265" lon="4.70979">
        <ele>133</ele>
        <time>2024-05-08T10:17:35Z</time>
      </trkpt>
      <trkpt lat="49.87264" lon="4.7098">
        <ele>134</ele>
        <time>2024-05-08T10:17:36Z</time>
      </trkpt>
      <trkpt lat="49.87263" lon="4.70981">
        <ele>134</ele>
        <time>2024-05-08T10:17:37Z</time>
      </trkpt>
      <trkpt lat="49.87261" lon="4.70982">
        <ele>134</ele>
        <time>2024-05-08T10:17:38Z</time>
      </trkpt>
      <trkpt lat="49.8726" lon="4.70984">
        <ele>134</ele>
        <time>2024-05-08T10:17:39Z</time>
      </trkpt>
      <trkpt lat="49.87259" lon="4.70985">
        <ele>134</ele>
        <time>2024-05-08T10:17:40Z</time>
      </trkpt>
      <trkpt lat="49.87258" lon="4.70986">
        <ele>134</ele>
        <time>2024-05-08T10:17:41Z</time>
      </trkpt>
      <trkpt lat="49.87257" lon="4.70987">
        <ele>134</ele>
        <time>2024-05-08T10:17:42Z</time>
      </trkpt>
      <trkpt lat="49.87255" lon="4.70989">
        <ele>134</ele>
        <time>2024-05-08T10:17:43Z</time>
      </trkpt>
      <trkpt lat="49.87254" lon="4.7099">
        <ele>134</ele>
        <time>2024-05-08T10:17:44Z</time>
      </trkpt>
      <trkpt lat="49.87253" lon="4.70991">
        <ele>134</ele>
        <time>2024-05-08T10:17:45Z</time>
      </trkpt>
      <trkpt lat="49.87252" lon="4.70992">
        <ele>134</ele>
        <time>2024-05-08T10:17:46Z</time>
      </trkpt>
      <trkpt lat="49.87251" lon="4.70994">
        <ele>134</ele>
        <time>2024-05-08T10:17:47Z</time>
      </trkpt>
      <trkpt lat="49.87249" lon="4.70995">
        <ele>134</ele>
        <time>2024-05-08T10:17:48Z</time>
      </trkpt>
      <trkpt lat="49.87248" lon="4.70996">
        <ele>134</ele>
        <time>2024-05-08T10:17:49Z</time>
      </trkpt>
      <trkpt lat="49.87247" lon="4.70997">
        <ele>134</ele>
        <time>2024-05-08T10:17:50Z</time>
      </trkpt>
      <trkpt lat="49.87246" lon="4.70998">
        <ele>134</ele>
        <time>2024-05-08T10:17:51Z</time>
      </trkpt>
      <trkpt lat="49.87245" lon="4.70999">
        <ele>134</ele>
        <time>2024-05-08T10:17:52Z</time>
      </trkpt>
      <trkpt lat="49.87244" lon="4.71">
        <ele>134</ele>
        <time>2024-05-08T10:17:53Z</time>
      </trkpt>
      <trkpt lat="49.87243" lon="4.71001">
        <ele>134</ele>
        <time>2024-05-08T10:17:54Z</time>
      </trkpt>
      <trkpt lat="49.87242" lon="4.71002">
        <ele>134</ele>
        <time>2024-05-08T10:17:55Z</time>
      </trkpt>
      <trkpt lat="49.87241" lon="4.71003">
        <ele>134</ele>
        <time>2024-05-08T10:17:56Z</time>
      </trkpt>
      <trkpt lat="49.87239" lon="4.71004">
        <ele>134</ele>
        <time>2024-05-08T10:17:57Z</time>
      </trkpt>
      <trkpt lat="49.87238" lon="4.71006">
        <ele>134</ele>
        <time>2024-05-08T10:17:58Z</time>
      </trkpt>
      <trkpt lat="49.87237" lon="4.71007">
        <ele>134</ele>
        <time>2024-05-08T10:17:59Z</time>
      </trkpt>
      <trkpt lat="49.87236" lon="4.71008">
        <ele>134</ele>
        <time>2024-05-08T10:18:00Z</time>
      </trkpt>
      <trkpt lat="49.87235" lon="4.71009">
        <ele>134</ele>
        <time>2024-05-08T10:18:01Z</time>
      </trkpt>
      <trkpt lat="49.87234" lon="4.7101">
        <ele>134</ele>
        <time>2024-05-08T10:18:02Z</time>
      </trkpt>
      <trkpt lat="49.87232" lon="4.71011">
        <ele>134</ele>
        <time>2024-05-08T10:18:03Z</time>
      </trkpt>
      <trkpt lat="49.87231" lon="4.71013">
        <ele>134</ele>
        <time>2024-05-08T10:18:04Z</time>
      </trkpt>
      <trkpt lat="49.8723" lon="4.71014">
        <ele>134</ele>
        <time>2024-05-08T10:18:05Z</time>
      </trkpt>
      <trkpt lat="49.87229" lon="4.71015">
        <ele>134</ele>
        <time>2024-05-08T10:18:06Z</time>
      </trkpt>
      <trkpt lat="49.87227" lon="4.71016">
        <ele>134</ele>
        <time>2024-05-08T10:18:07Z</time>
      </trkpt>
      <trkpt lat="49.87226" lon="4.71017">
        <ele>134</ele>
        <time>2024-05-08T10:18:08Z</time>
      </trkpt>
      <trkpt lat="49.87225" lon="4.71018">
        <ele>134</ele>
        <time>2024-05-08T10:18:09Z</time>
      </trkpt>
      <trkpt lat="49.87224" lon="4.71019">
        <ele>134</ele>
        <time>2024-05-08T10:18:10Z</time>
      </trkpt>
      <trkpt lat="49.87223" lon="4.7102">
        <ele>134</ele>
        <time>2024-05-08T10:18:11Z</time>
      </trkpt>
      <trkpt lat="49.87222" lon="4.71021">
        <ele>134</ele>
        <time>2024-05-08T10:18:12Z</time>
      </trkpt>
      <trkpt lat="49.87221" lon="4.71022">
        <ele>134</ele>
        <time>2024-05-08T10:18:13Z</time>
      </trkpt>
      <trkpt lat="49.8722" lon="4.71023">
        <ele>134</ele>
        <time>2024-05-08T10:18:14Z</time>
      </trkpt>
      <trkpt lat="49.87219" lon="4.71024">
        <ele>134</ele>
        <time>2024-05-08T10:18:15Z</time>
      </trkpt>
      <trkpt lat="49.87217" lon="4.71025">
        <ele>134</ele>
        <time>2024-05-08T10:18:16Z</time>
      </trkpt>
      <trkpt lat="49.87216" lon="4.71026">
        <ele>134</ele>
        <time>2024-05-08T10:18:17Z</time>
      </trkpt>
      <trkpt lat="49.87215" lon="4.71027">
        <ele>134</ele>
        <time>2024-05-08T10:18:18Z</time>
      </trkpt>
      <trkpt lat="49.87214" lon="4.71029">
        <ele>134</ele>
        <time>2024-05-08T10:18:19Z</time>
      </trkpt>
      <trkpt lat="49.87213" lon="4.7103">
        <ele>134</ele>
        <time>2024-05-08T10:18:20Z</time>
      </trkpt>
      <trkpt lat="49.87211" lon="4.71031">
        <ele>134</ele>
        <time>2024-05-08T10:18:21Z</time>
      </trkpt>
      <trkpt lat="49.8721" lon="4.71032">
        <ele>134</ele>
        <time>2024-05-08T10:18:22Z</time>
      </trkpt>
      <trkpt lat="49.87209" lon="4.71033">
        <ele>134</ele>
        <time>2024-05-08T10:18:23Z</time>
      </trkpt>
      <trkpt lat="49.87208" lon="4.71035">
        <ele>134</ele>
        <time>2024-05-08T10:18:24Z</time>
      </trkpt>
      <trkpt lat="49.87207" lon="4.71036">
        <ele>134</ele>
        <time>2024-05-08T10:18:25Z</time>
      </trkpt>
      <trkpt lat="49.87205" lon="4.71037">
        <ele>135</ele>
        <time>2024-05-08T10:18:26Z</time>
      </trkpt>
      <trkpt lat="49.87204" lon="4.71038">
        <ele>135</ele>
        <time>2024-05-08T10:18:27Z</time>
      </trkpt>
      <trkpt lat="49.87203" lon="4.71039">
        <ele>135</ele>
        <time>2024-05-08T10:18:28Z</time>
      </trkpt>
      <trkpt lat="49.87202" lon="4.7104">
        <ele>135</ele>
        <time>2024-05-08T10:18:29Z</time>
      </trkpt>
      <trkpt lat="49.87201" lon="4.71041">
        <ele>135</ele>
        <time>2024-05-08T10:18:30Z</time>
      </trkpt>
      <trkpt lat="49.872" lon="4.71042">
        <ele>135</ele>
        <time>2024-05-08T10:18:31Z</time>
      </trkpt>
      <trkpt lat="49.87198" lon="4.71043">
        <ele>135</ele>
        <time>2024-05-08T10:18:32Z</time>
      </trkpt>
      <trkpt lat="49.87197" lon="4.71044">
        <ele>135</ele>
        <time>2024-05-08T10:18:33Z</time>
      </trkpt>
      <trkpt lat="49.87196" lon="4.71045">
        <ele>135</ele>
        <time>2024-05-08T10:18:34Z</time>
      </trkpt>
      <trkpt lat="49.87195" lon="4.71046">
        <ele>135</ele>
        <time>2024-05-08T10:18:35Z</time>
      </trkpt>
      <trkpt lat="49.87194" lon="4.71048">
        <ele>135</ele>
        <time>2024-05-08T10:18:36Z</time>
      </trkpt>
      <trkpt lat="49.87192" lon="4.71049">
        <ele>135</ele>
        <time>2024-05-08T10:18:37Z</time>
      </trkpt>
      <trkpt lat="49.87191" lon="4.7105">
        <ele>135</ele>
        <time>2024-05-08T10:18:38Z</time>
      </trkpt>
      <trkpt lat="49.8719" lon="4.71051">
        <ele>135</ele>
        <time>2024-05-08T10:18:39Z</time>
      </trkpt>
      <trkpt lat="49.87189" lon="4.71052">
        <ele>135</ele>
        <time>2024-05-08T10:18:40Z</time>
      </trkpt>
      <trkpt lat="49.87188" lon="4.71053">
        <ele>135</ele>
        <time>2024-05-08T10:18:41Z</time>
      </trkpt>
      <trkpt lat="49.87187" lon="4.71054">
        <ele>135</ele>
        <time>2024-05-08T10:18:42Z</time>
      </trkpt>
      <trkpt lat="49.87185" lon="4.71055">
        <ele>135</ele>
        <time>2024-05-08T10:18:43Z</time>
      </trkpt>
      <trkpt lat="49.87184" lon="4.71056">
        <ele>135</ele>
        <time>2024-05-08T10:18:44Z</time>
      </trkpt>
      <trkpt lat="49.87183" lon="4.71057">
        <ele>135</ele>
        <time>2024-05-08T10:18:45Z</time>
      </trkpt>
      <trkpt lat="49.87182" lon="4.71058">
        <ele>135</ele>
        <time>2024-05-08T10:18:46Z</time>
      </trkpt>
      <trkpt lat="49.87181" lon="4.71059">
        <ele>135</ele>
        <time>2024-05-08T10:18:47Z</time>
      </trkpt>
      <trkpt lat="49.8718" lon="4.7106">
        <ele>135</ele>
        <time>2024-05-08T10:18:48Z</time>
      </trkpt>
      <trkpt lat="49.87178" lon="4.71061">
        <ele>135</ele>
        <time>2024-05-08T10:18:49Z</time>
      </trkpt>
      <trkpt lat="49.87177" lon="4.71062">
        <ele>135</ele>
        <time>2024-05-08T10:18:50Z</time>
      </trkpt>
      <trkpt lat="49.87176" lon="4.71063">
        <ele>135</ele>
        <time>2024-05-08T10:18:51Z</time>
      </trkpt>
      <trkpt lat="49.87175" lon="4.71064">
        <ele>135</ele>
        <time>2024-05-08T10:18:52Z</time>
      </trkpt>
      <trkpt lat="49.87174" lon="4.71064">
        <ele>135</ele>
        <time>2024-05-08T10:18:53Z</time>
      </trkpt>
      <trkpt lat="49.87173" lon="4.71065">
        <ele>135</ele>
        <time>2024-05-08T10:18:54Z</time>
      </trkpt>
      <trkpt lat="49.87171" lon="4.71066">
        <ele>135</ele>
        <time>2024-05-08T10:18:55Z</time>
      </trkpt>
      <trkpt lat="49.8717" lon="4.71067">
        <ele>135</ele>
        <time>2024-05-08T10:18:56Z</time>
      </trkpt>
      <trkpt lat="49.87169" lon="4.71068">
        <ele>135</ele>
        <time>2024-05-08T10:18:57Z</time>
      </trkpt>
      <trkpt lat="49.87168" lon="4.7107">
        <ele>135</ele>
        <time>2024-05-08T10:18:58Z</time>
      </trkpt>
      <trkpt lat="49.87166" lon="4.71071">
        <ele>135</ele>
        <time>2024-05-08T10:18:59Z</time>
      </trkpt>
      <trkpt lat="49.87165" lon="4.71072">
        <ele>135</ele>
        <time>2024-05-08T10:19:00Z</time>
      </trkpt>
      <trkpt lat="49.87164" lon="4.71073">
        <ele>136</ele>
        <time>2024-05-08T10:19:01Z</time>
      </trkpt>
      <trkpt lat="49.87163" lon="4.71074">
        <ele>136</ele>
        <time>2024-05-08T10:19:02Z</time>
      </trkpt>
      <trkpt lat="49.87162" lon="4.71075">
        <ele>136</ele>
        <time>2024-05-08T10:19:03Z</time>
      </trkpt>
      <trkpt lat="49.8716" lon="4.71076">
        <ele>136</ele>
        <time>2024-05-08T10:19:04Z</time>
      </trkpt>
      <trkpt lat="49.87159" lon="4.71078">
        <ele>136</ele>
        <time>2024-05-08T10:19:05Z</time>
      </trkpt>
      <trkpt lat="49.87158" lon="4.71079">
        <ele>136</ele>
        <time>2024-05-08T10:19:06Z</time>
      </trkpt>
      <trkpt lat="49.87157" lon="4.7108">
        <ele>136</ele>
        <time>2024-05-08T10:19:07Z</time>
      </trkpt>
      <trkpt lat="49.87156" lon="4.71081">
        <ele>136</ele>
        <time>2024-05-08T10:19:08Z</time>
      </trkpt>
      <trkpt lat="49.87155" lon="4.71083">
        <ele>136</ele>
        <time>2024-05-08T10:19:09Z</time>
      </trkpt>
      <trkpt lat="49.87154" lon="4.71084">
        <ele>136</ele>
        <time>2024-05-08T10:19:10Z</time>
      </trkpt>
      <trkpt lat="49.87152" lon="4.71085">
        <ele>136</ele>
        <time>2024-05-08T10:19:11Z</time>
      </trkpt>
      <trkpt lat="49.87151" lon="4.71086">
        <ele>136</ele>
        <time>2024-05-08T10:19:12Z</time>
      </trkpt>
      <trkpt lat="49.8715" lon="4.71087">
        <ele>136</ele>
        <time>2024-05-08T10:19:13Z</time>
      </trkpt>
      <trkpt lat="49.87148" lon="4.71088">
        <ele>136</ele>
        <time>2024-05-08T10:19:14Z</time>
      </trkpt>
      <trkpt lat="49.87147" lon="4.71089">
        <ele>136</ele>
        <time>2024-05-08T10:19:15Z</time>
      </trkpt>
      <trkpt lat="49.87146" lon="4.7109">
        <ele>136</ele>
        <time>2024-05-08T10:19:16Z</time>
      </trkpt>
      <trkpt lat="49.87144" lon="4.71091">
        <ele>136</ele>
        <time>2024-05-08T10:19:17Z</time>
      </trkpt>
      <trkpt lat="49.87143" lon="4.71091">
        <ele>136</ele>
        <time>2024-05-08T10:19:18Z</time>
      </trkpt>
      <trkpt lat="49.87142" lon="4.71092">
        <ele>136</ele>
        <time>2024-05-08T10:19:19Z</time>
      </trkpt>
      <trkpt lat="49.8714" lon="4.71093">
        <ele>136</ele>
        <time>2024-05-08T10:19:20Z</time>
      </trkpt>
      <trkpt lat="49.87139" lon="4.71094">
        <ele>136</ele>
        <time>2024-05-08T10:19:21Z</time>
      </trkpt>
      <trkpt lat="49.87138" lon="4.71095">
        <ele>136</ele>
        <time>2024-05-08T10:19:22Z</time>
      </trkpt>
      <trkpt lat="49.87137" lon="4.71096">
        <ele>136</ele>
        <time>2024-05-08T10:19:23Z</time>
      </trkpt>
      <trkpt lat="49.87136" lon="4.71096">
        <ele>136</ele>
        <time>2024-05-08T10:19:24Z</time>
      </trkpt>
      <trkpt lat="49.87134" lon="4.71097">
        <ele>136</ele>
        <time>2024-05-08T10:19:25Z</time>
      </trkpt>
      <trkpt lat="49.87133" lon="4.71097">
        <ele>136</ele>
        <time>2024-05-08T10:19:26Z</time>
      </trkpt>
      <trkpt lat="49.87132" lon="4.71096">
        <ele>136</ele>
        <time>2024-05-08T10:19:27Z</time>
      </trkpt>
      <trkpt lat="49.87131" lon="4.71095">
        <ele>136</ele>
        <time>2024-05-08T10:19:28Z</time>
      </trkpt>
      <trkpt lat="49.87131" lon="4.71094">
        <ele>136</ele>
        <time>2024-05-08T10:19:29Z</time>
      </trkpt>
      <trkpt lat="49.8713" lon="4.71092">
        <ele>136</ele>
        <time>2024-05-08T10:19:30Z</time>
      </trkpt>
      <trkpt lat="49.87131" lon="4.7109">
        <ele>137</ele>
        <time>2024-05-08T10:19:31Z</time>
      </trkpt>
      <trkpt lat="49.87131" lon="4.71089">
        <ele>137</ele>
        <time>2024-05-08T10:19:32Z</time>
      </trkpt>
      <trkpt lat="49.87132" lon="4.71086">
        <ele>137</ele>
        <time>2024-05-08T10:19:33Z</time>
      </trkpt>
      <trkpt lat="49.87133" lon="4.71084">
        <ele>137</ele>
        <time>2024-05-08T10:19:34Z</time>
      </trkpt>
      <trkpt lat="49.87134" lon="4.71082">
        <ele>137</ele>
        <time>2024-05-08T10:19:35Z</time>
      </trkpt>
      <trkpt lat="49.87134" lon="4.7108">
        <ele>138</ele>
        <time>2024-05-08T10:19:36Z</time>
      </trkpt>
      <trkpt lat="49.87135" lon="4.71078">
        <ele>138</ele>
        <time>2024-05-08T10:19:37Z</time>
      </trkpt>
      <trkpt lat="49.87135" lon="4.71076">
        <ele>138</ele>
        <time>2024-05-08T10:19:38Z</time>
      </trkpt>
      <trkpt lat="49.87136" lon="4.71074">
        <ele>138</ele>
        <time>2024-05-08T10:19:39Z</time>
      </trkpt>
      <trkpt lat="49.87137" lon="4.71072">
        <ele>138</ele>
        <time>2024-05-08T10:19:40Z</time>
      </trkpt>
      <trkpt lat="49.87137" lon="4.71071">
        <ele>139</ele>
        <time>2024-05-08T10:19:41Z</time>
      </trkpt>
      <trkpt lat="49.87138" lon="4.71069">
        <ele>139</ele>
        <time>2024-05-08T10:19:42Z</time>
      </trkpt>
      <trkpt lat="49.87139" lon="4.71068">
        <ele>139</ele>
        <time>2024-05-08T10:19:43Z</time>
      </trkpt>
      <trkpt lat="49.8714" lon="4.71067">
        <ele>139</ele>
        <time>2024-05-08T10:19:44Z</time>
      </trkpt>
      <trkpt lat="49.87141" lon="4.71065">
        <ele>139</ele>
        <time>2024-05-08T10:19:45Z</time>
      </trkpt>
      <trkpt lat="49.87142" lon="4.71064">
        <ele>139</ele>
        <time>2024-05-08T10:19:46Z</time>
      </trkpt>
      <trkpt lat="49.87143" lon="4.71062">
        <ele>139</ele>
        <time>2024-05-08T10:19:47Z</time>
      </trkpt>
      <trkpt lat="49.87143" lon="4.7106">
        <ele>139</ele>
        <time>2024-05-08T10:19:48Z</time>
      </trkpt>
      <trkpt lat="49.87144" lon="4.71058">
        <ele>139</ele>
        <time>2024-05-08T10:19:49Z</time>
      </trkpt>
      <trkpt lat="49.87145" lon="4.71057">
        <ele>139</ele>
        <time>2024-05-08T10:19:50Z</time>
      </trkpt>
      <trkpt lat="49.87146" lon="4.71055">
        <ele>140</ele>
        <time>2024-05-08T10:19:51Z</time>
      </trkpt>
      <trkpt lat="49.87147" lon="4.71053">
        <ele>140</ele>
        <time>2024-05-08T10:19:52Z</time>
      </trkpt>
      <trkpt lat="49.87147" lon="4.71051">
        <ele>140</ele>
        <time>2024-05-08T10:19:53Z</time>
      </trkpt>
      <trkpt lat="49.87148" lon="4.71049">
        <ele>140</ele>
        <time>2024-05-08T10:19:54Z</time>
      </trkpt>
      <trkpt lat="49.87149" lon="4.71048">
        <ele>140</ele>
        <time>2024-05-08T10:19:55Z</time>
      </trkpt>
      <trkpt lat="49.8715" lon="4.71046">
        <ele>141</ele>
        <time>2024-05-08T10:19:56Z</time>
      </trkpt>
      <trkpt lat="49.8715" lon="4.71045">
        <ele>141</ele>
        <time>2024-05-08T10:19:57Z</time>
      </trkpt>
      <trkpt lat="49.87151" lon="4.71043">
        <ele>141</ele>
        <time>2024-05-08T10:19:58Z</time>
      </trkpt>
      <trkpt lat="49.87152" lon="4.71041">
        <ele>141</ele>
        <time>2024-05-08T10:19:59Z</time>
      </trkpt>
      <trkpt lat="49.87152" lon="4.71039">
        <ele>141</ele>
        <time>2024-05-08T10:20:00Z</time>
      </trkpt>
      <trkpt lat="49.87153" lon="4.71037">
        <ele>142</ele>
        <time>2024-05-08T10:20:01Z</time>
      </trkpt>
      <trkpt lat="49.87153" lon="4.71035">
        <ele>142</ele>
        <time>2024-05-08T10:20:02Z</time>
      </trkpt>
      <trkpt lat="49.87153" lon="4.71033">
        <ele>142</ele>
        <time>2024-05-08T10:20:03Z</time>
      </trkpt>
      <trkpt lat="49.87154" lon="4.71031">
        <ele>142</ele>
        <time>2024-05-08T10:20:04Z</time>
      </trkpt>
      <trkpt lat="49.87154" lon="4.71029">
        <ele>142</ele>
        <time>2024-05-08T10:20:05Z</time>
      </trkpt>
      <trkpt lat="49.87154" lon="4.71027">
        <ele>142</ele>
        <time>2024-05-08T10:20:06Z</time>
      </trkpt>
      <trkpt lat="49.87155" lon="4.71026">
        <ele>142</ele>
        <time>2024-05-08T10:20:07Z</time>
      </trkpt>
      <trkpt lat="49.87155" lon="4.71024">
        <ele>142</ele>
        <time>2024-05-08T10:20:08Z</time>
      </trkpt>
      <trkpt lat="49.87155" lon="4.71022">
        <ele>142</ele>
        <time>2024-05-08T10:20:09Z</time>
      </trkpt>
      <trkpt lat="49.87155" lon="4.71021">
        <ele>142</ele>
        <time>2024-05-08T10:20:10Z</time>
      </trkpt>
      <trkpt lat="49.87156" lon="4.7102">
        <ele>143</ele>
        <time>2024-05-08T10:20:11Z</time>
      </trkpt>
      <trkpt lat="49.87156" lon="4.71018">
        <ele>143</ele>
        <time>2024-05-08T10:20:12Z</time>
      </trkpt>
      <trkpt lat="49.87156" lon="4.71017">
        <ele>143</ele>
        <time>2024-05-08T10:20:13Z</time>
      </trkpt>
      <trkpt lat="49.87157" lon="4.71016">
        <ele>143</ele>
        <time>2024-05-08T10:20:14Z</time>
      </trkpt>
      <trkpt lat="49.87157" lon="4.71014">
        <ele>143</ele>
        <time>2024-05-08T10:20:15Z</time>
      </trkpt>
      <trkpt lat="49.87157" lon="4.71013">
        <ele>143</ele>
        <time>2024-05-08T10:20:16Z</time>
      </trkpt>
      <trkpt lat="49.87158" lon="4.71012">
        <ele>143</ele>
        <time>2024-05-08T10:20:17Z</time>
      </trkpt>
      <trkpt lat="49.87158" lon="4.71011">
        <ele>143</ele>
        <time>2024-05-08T10:20:18Z</time>
      </trkpt>
      <trkpt lat="49.87158" lon="4.7101">
        <ele>143</ele>
        <time>2024-05-08T10:20:19Z</time>
      </trkpt>
      <trkpt lat="49.87158" lon="4.71009">
        <ele>143</ele>
        <time>2024-05-08T10:20:20Z</time>
      </trkpt>
      <trkpt lat="49.87158" lon="4.71008">
        <ele>144</ele>
        <time>2024-05-08T10:20:21Z</time>
      </trkpt>
      <trkpt lat="49.87158" lon="4.71006">
        <ele>144</ele>
        <time>2024-05-08T10:20:22Z</time>
      </trkpt>
      <trkpt lat="49.87158" lon="4.71005">
        <ele>144</ele>
        <time>2024-05-08T10:20:23Z</time>
      </trkpt>
      <trkpt lat="49.87159" lon="4.71003">
        <ele>144</ele>
        <time>2024-05-08T10:20:24Z</time>
      </trkpt>
      <trkpt lat="49.8716" lon="4.71001">
        <ele>144</ele>
        <time>2024-05-08T10:20:25Z</time>
      </trkpt>
      <trkpt lat="49.87161" lon="4.70999">
        <ele>144</ele>
        <time>2024-05-08T10:20:26Z</time>
      </trkpt>
      <trkpt lat="49.87162" lon="4.70997">
        <ele>144</ele>
        <time>2024-05-08T10:20:27Z</time>
      </trkpt>
      <trkpt lat="49.87163" lon="4.70994">
        <ele>144</ele>
        <time>2024-05-08T10:20:28Z</time>
      </trkpt>
      <trkpt lat="49.87164" lon="4.70992">
        <ele>144</ele>
        <time>2024-05-08T10:20:29Z</time>
      </trkpt>
      <trkpt lat="49.87165" lon="4.7099">
        <ele>144</ele>
        <time>2024-05-08T10:20:30Z</time>
      </trkpt>
      <trkpt lat="49.87166" lon="4.70988">
        <ele>145</ele>
        <time>2024-05-08T10:20:31Z</time>
      </trkpt>
      <trkpt lat="49.87167" lon="4.70986">
        <ele>145</ele>
        <time>2024-05-08T10:20:32Z</time>
      </trkpt>
      <trkpt lat="49.87168" lon="4.70985">
        <ele>145</ele>
        <time>2024-05-08T10:20:33Z</time>
      </trkpt>
      <trkpt lat="49.87169" lon="4.70983">
        <ele>145</ele>
        <time>2024-05-08T10:20:34Z</time>
      </trkpt>
      <trkpt lat="49.8717" lon="4.70982">
        <ele>145</ele>
        <time>2024-05-08T10:20:35Z</time>
      </trkpt>
      <trkpt lat="49.87171" lon="4.70981">
        <ele>145</ele>
        <time>2024-05-08T10:20:36Z</time>
      </trkpt>
      <trkpt lat="49.87172" lon="4.70979">
        <ele>145</ele>
        <time>2024-05-08T10:20:37Z</time>
      </trkpt>
      <trkpt lat="49.87173" lon="4.70978">
        <ele>145</ele>
        <time>2024-05-08T10:20:38Z</time>
      </trkpt>
      <trkpt lat="49.87174" lon="4.70977">
        <ele>145</ele>
        <time>2024-05-08T10:20:39Z</time>
      </trkpt>
      <trkpt lat="49.87175" lon="4.70975">
        <ele>145</ele>
        <time>2024-05-08T10:20:40Z</time>
      </trkpt>
      <trkpt lat="49.87176" lon="4.70973">
        <ele>146</ele>
        <time>2024-05-08T10:20:41Z</time>
      </trkpt>
      <trkpt lat="49.87177" lon="4.70972">
        <ele>146</ele>
        <time>2024-05-08T10:20:42Z</time>
      </trkpt>
      <trkpt lat="49.87178" lon="4.7097">
        <ele>146</ele>
        <time>2024-05-08T10:20:43Z</time>
      </trkpt>
      <trkpt lat="49.8718" lon="4.70969">
        <ele>146</ele>
        <time>2024-05-08T10:20:44Z</time>
      </trkpt>
      <trkpt lat="49.8718" lon="4.70967">
        <ele>146</ele>
        <time>2024-05-08T10:20:45Z</time>
      </trkpt>
      <trkpt lat="49.87181" lon="4.70966">
        <ele>147</ele>
        <time>2024-05-08T10:20:46Z</time>
      </trkpt>
      <trkpt lat="49.87182" lon="4.70964">
        <ele>147</ele>
        <time>2024-05-08T10:20:47Z</time>
      </trkpt>
      <trkpt lat="49.87183" lon="4.70963">
        <ele>147</ele>
        <time>2024-05-08T10:20:48Z</time>
      </trkpt>
      <trkpt lat="49.87183" lon="4.70962">
        <ele>147</ele>
        <time>2024-05-08T10:20:49Z</time>
      </trkpt>
      <trkpt lat="49.87184" lon="4.70961">
        <ele>147</ele>
        <time>2024-05-08T10:20:50Z</time>
      </trkpt>
      <trkpt lat="49.87184" lon="4.7096">
        <ele>147</ele>
        <time>2024-05-08T10:20:51Z</time>
      </trkpt>
      <trkpt lat="49.87185" lon="4.70959">
        <ele>147</ele>
        <time>2024-05-08T10:20:52Z</time>
      </trkpt>
      <trkpt lat="49.87186" lon="4.70958">
        <ele>147</ele>
        <time>2024-05-08T10:20:53Z</time>
      </trkpt>
      <trkpt lat="49.87187" lon="4.70957">
        <ele>147</ele>
        <time>2024-05-08T10:20:54Z</time>
      </trkpt>
      <trkpt lat="49.87188" lon="4.70956">
        <ele>147</ele>
        <time>2024-05-08T10:20:55Z</time>
      </trkpt>
      <trkpt lat="49.87189" lon="4.70956">
        <ele>148</ele>
        <time>2024-05-08T10:20:56Z</time>
      </trkpt>
      <trkpt lat="49.8719" lon="4.70954">
        <ele>148</ele>
        <time>2024-05-08T10:20:57Z</time>
      </trkpt>
      <trkpt lat="49.87191" lon="4.70952">
        <ele>148</ele>
        <time>2024-05-08T10:20:58Z</time>
      </trkpt>
      <trkpt lat="49.87192" lon="4.70951">
        <ele>148</ele>
        <time>2024-05-08T10:20:59Z</time>
      </trkpt>
      <trkpt lat="49.87193" lon="4.70949">
        <ele>148</ele>
        <time>2024-05-08T10:21:00Z</time>
      </trkpt>
      <trkpt lat="49.87194" lon="4.70948">
        <ele>148</ele>
        <time>2024-05-08T10:21:01Z</time>
      </trkpt>
      <trkpt lat="49.87195" lon="4.70946">
        <ele>148</ele>
        <time>2024-05-08T10:21:02Z</time>
      </trkpt>
      <trkpt lat="49.87196" lon="4.70945">
        <ele>148</ele>
        <time>2024-05-08T10:21:03Z</time>
      </trkpt>
      <trkpt lat="49.87197" lon="4.70944">
        <ele>148</ele>
        <time>2024-05-08T10:21:04Z</time>
      </trkpt>
      <trkpt lat="49.87198" lon="4.70942">
        <ele>148</ele>
        <time>2024-05-08T10:21:05Z</time>
      </trkpt>
      <trkpt lat="49.87198" lon="4.7094">
        <ele>149</ele>
        <time>2024-05-08T10:21:06Z</time>
      </trkpt>
      <trkpt lat="49.87199" lon="4.70938">
        <ele>149</ele>
        <time>2024-05-08T10:21:07Z</time>
      </trkpt>
      <trkpt lat="49.872" lon="4.70936">
        <ele>149</ele>
        <time>2024-05-08T10:21:08Z</time>
      </trkpt>
      <trkpt lat="49.872" lon="4.70934">
        <ele>149</ele>
        <time>2024-05-08T10:21:09Z</time>
      </trkpt>
      <trkpt lat="49.87201" lon="4.70932">
        <ele>149</ele>
        <time>2024-05-08T10:21:10Z</time>
      </trkpt>
      <trkpt lat="49.87202" lon="4.70931">
        <ele>149</ele>
        <time>2024-05-08T10:21:11Z</time>
      </trkpt>
      <trkpt lat="49.87203" lon="4.70929">
        <ele>149</ele>
        <time>2024-05-08T10:21:12Z</time>
      </trkpt>
      <trkpt lat="49.87203" lon="4.70928">
        <ele>149</ele>
        <time>2024-05-08T10:21:13Z</time>
      </trkpt>
      <trkpt lat="49.87204" lon="4.70927">
        <ele>149</ele>
        <time>2024-05-08T10:21:14Z</time>
      </trkpt>
      <trkpt lat="49.87204" lon="4.70926">
        <ele>149</ele>
        <time>2024-05-08T10:21:15Z</time>
      </trkpt>
      <trkpt lat="49.87205" lon="4.70925">
        <ele>149</ele>
        <time>2024-05-08T10:21:16Z</time>
      </trkpt>
      <trkpt lat="49.87205" lon="4.70924">
        <ele>149</ele>
        <time>2024-05-08T10:21:17Z</time>
      </trkpt>
      <trkpt lat="49.87206" lon="4.70923">
        <ele>149</ele>
        <time>2024-05-08T10:21:18Z</time>
      </trkpt>
      <trkpt lat="49.87207" lon="4.70921">
        <ele>149</ele>
        <time>2024-05-08T10:21:19Z</time>
      </trkpt>
      <trkpt lat="49.87208" lon="4.70919">
        <ele>149</ele>
        <time>2024-05-08T10:21:20Z</time>
      </trkpt>
      <trkpt lat="49.87209" lon="4.70918">
        <ele>149</ele>
        <time>2024-05-08T10:21:21Z</time>
      </trkpt>
      <trkpt lat="49.87211" lon="4.70916">
        <ele>149</ele>
        <time>2024-05-08T10:21:22Z</time>
      </trkpt>
      <trkpt lat="49.87212" lon="4.70914">
        <ele>149</ele>
        <time>2024-05-08T10:21:23Z</time>
      </trkpt>
      <trkpt lat="49.87213" lon="4.70912">
        <ele>149</ele>
        <time>2024-05-08T10:21:24Z</time>
      </trkpt>
      <trkpt lat="49.87215" lon="4.7091">
        <ele>149</ele>
        <time>2024-05-08T10:21:25Z</time>
      </trkpt>
      <trkpt lat="49.87216" lon="4.70909">
        <ele>149</ele>
        <time>2024-05-08T10:21:26Z</time>
      </trkpt>
      <trkpt lat="49.87217" lon="4.70908">
        <ele>149</ele>
        <time>2024-05-08T10:21:27Z</time>
      </trkpt>
      <trkpt lat="49.87219" lon="4.70907">
        <ele>149</ele>
        <time>2024-05-08T10:21:28Z</time>
      </trkpt>
      <trkpt lat="49.8722" lon="4.70906">
        <ele>149</ele>
        <time>2024-05-08T10:21:29Z</time>
      </trkpt>
      <trkpt lat="49.87222" lon="4.70905">
        <ele>149</ele>
        <time>2024-05-08T10:21:30Z</time>
      </trkpt>
      <trkpt lat="49.87223" lon="4.70904">
        <ele>149</ele>
        <time>2024-05-08T10:21:31Z</time>
      </trkpt>
      <trkpt lat="49.87224" lon="4.70904">
        <ele>149</ele>
        <time>2024-05-08T10:21:32Z</time>
      </trkpt>
      <trkpt lat="49.87225" lon="4.70903">
        <ele>149</ele>
        <time>2024-05-08T10:21:33Z</time>
      </trkpt>
      <trkpt lat="49.87227" lon="4.70902">
        <ele>149</ele>
        <time>2024-05-08T10:21:34Z</time>
      </trkpt>
      <trkpt lat="49.87228" lon="4.70902">
        <ele>149</ele>
        <time>2024-05-08T10:21:35Z</time>
      </trkpt>
      <trkpt lat="49.87229" lon="4.70901">
        <ele>149</ele>
        <time>2024-05-08T10:21:36Z</time>
      </trkpt>
      <trkpt lat="49.8723" lon="4.70901">
        <ele>149</ele>
        <time>2024-05-08T10:21:37Z</time>
      </trkpt>
      <trkpt lat="49.87231" lon="4.709">
        <ele>149</ele>
        <time>2024-05-08T10:21:38Z</time>
      </trkpt>
      <trkpt lat="49.87231" lon="4.709">
        <ele>149</ele>
        <time>2024-05-08T10:21:39Z</time>
      </trkpt>
      <trkpt lat="49.87231" lon="4.70901">
        <ele>149</ele>
        <time>2024-05-08T10:21:40Z</time>
      </trkpt>
      <trkpt lat="49.8723" lon="4.70902">
        <ele>149</ele>
        <time>2024-05-08T10:21:41Z</time>
      </trkpt>
      <trkpt lat="49.8723" lon="4.70903">
        <ele>149</ele>
        <time>2024-05-08T10:21:42Z</time>
      </trkpt>
      <trkpt lat="49.87228" lon="4.70904">
        <ele>149</ele>
        <time>2024-05-08T10:21:43Z</time>
      </trkpt>
      <trkpt lat="49.87227" lon="4.70905">
        <ele>149</ele>
        <time>2024-05-08T10:21:44Z</time>
      </trkpt>
      <trkpt lat="49.87226" lon="4.70907">
        <ele>149</ele>
        <time>2024-05-08T10:21:45Z</time>
      </trkpt>
      <trkpt lat="49.87225" lon="4.70908">
        <ele>149</ele>
        <time>2024-05-08T10:21:46Z</time>
      </trkpt>
      <trkpt lat="49.87223" lon="4.70909">
        <ele>149</ele>
        <time>2024-05-08T10:21:47Z</time>
      </trkpt>
      <trkpt lat="49.87221" lon="4.7091">
        <ele>149</ele>
        <time>2024-05-08T10:21:48Z</time>
      </trkpt>
      <trkpt lat="49.8722" lon="4.70912">
        <ele>149</ele>
        <time>2024-05-08T10:21:49Z</time>
      </trkpt>
      <trkpt lat="49.87218" lon="4.70913">
        <ele>149</ele>
        <time>2024-05-08T10:21:50Z</time>
      </trkpt>
      <trkpt lat="49.87217" lon="4.70915">
        <ele>149</ele>
        <time>2024-05-08T10:21:51Z</time>
      </trkpt>
      <trkpt lat="49.87215" lon="4.70917">
        <ele>149</ele>
        <time>2024-05-08T10:21:52Z</time>
      </trkpt>
      <trkpt lat="49.87214" lon="4.70919">
        <ele>149</ele>
        <time>2024-05-08T10:21:53Z</time>
      </trkpt>
      <trkpt lat="49.87212" lon="4.70921">
        <ele>149</ele>
        <time>2024-05-08T10:21:54Z</time>
      </trkpt>
      <trkpt lat="49.87211" lon="4.70922">
        <ele>149</ele>
        <time>2024-05-08T10:21:55Z</time>
      </trkpt>
      <trkpt lat="49.8721" lon="4.70923">
        <ele>149</ele>
        <time>2024-05-08T10:21:56Z</time>
      </trkpt>
      <trkpt lat="49.87209" lon="4.70923">
        <ele>149</ele>
        <time>2024-05-08T10:21:57Z</time>
      </trkpt>
      <trkpt lat="49.87208" lon="4.70923">
        <ele>149</ele>
        <time>2024-05-08T10:21:58Z</time>
      </trkpt>
      <trkpt lat="49.87208" lon="4.70921">
        <ele>149</ele>
        <time>2024-05-08T10:21:59Z</time>
      </trkpt>
      <trkpt lat="49.87208" lon="4.7092">
        <ele>149</ele>
        <time>2024-05-08T10:22:00Z</time>
      </trkpt>
      <trkpt lat="49.87208" lon="4.70918">
        <ele>150</ele>
        <time>2024-05-08T10:22:01Z</time>
      </trkpt>
      <trkpt lat="49.87208" lon="4.70916">
        <ele>150</ele>
        <time>2024-05-08T10:22:02Z</time>
      </trkpt>
      <trkpt lat="49.87208" lon="4.70914">
        <ele>150</ele>
        <time>2024-05-08T10:22:03Z</time>
      </trkpt>
      <trkpt lat="49.87209" lon="4.70912">
        <ele>150</ele>
        <time>2024-05-08T10:22:04Z</time>
      </trkpt>
      <trkpt lat="49.87209" lon="4.7091">
        <ele>150</ele>
        <time>2024-05-08T10:22:05Z</time>
      </trkpt>
      <trkpt lat="49.8721" lon="4.70909">
        <ele>151</ele>
        <time>2024-05-08T10:22:06Z</time>
      </trkpt>
      <trkpt lat="49.8721" lon="4.70907">
        <ele>151</ele>
        <time>2024-05-08T10:22:07Z</time>
      </trkpt>
      <trkpt lat="49.8721" lon="4.70905">
        <ele>151</ele>
        <time>2024-05-08T10:22:08Z</time>
      </trkpt>
      <trkpt lat="49.8721" lon="4.70904">
        <ele>151</ele>
        <time>2024-05-08T10:22:09Z</time>
      </trkpt>
      <trkpt lat="49.87209" lon="4.70903">
        <ele>151</ele>
        <time>2024-05-08T10:22:10Z</time>
      </trkpt>
      <trkpt lat="49.87209" lon="4.70902">
        <ele>151</ele>
        <time>2024-05-08T10:22:11Z</time>
      </trkpt>
      <trkpt lat="49.87208" lon="4.709">
        <ele>151</ele>
        <time>2024-05-08T10:22:12Z</time>
      </trkpt>
      <trkpt lat="49.87208" lon="4.70899">
        <ele>151</ele>
        <time>2024-05-08T10:22:13Z</time>
      </trkpt>
      <trkpt lat="49.87207" lon="4.70898">
        <ele>151</ele>
        <time>2024-05-08T10:22:14Z</time>
      </trkpt>
      <trkpt lat="49.87206" lon="4.70897">
        <ele>151</ele>
        <time>2024-05-08T10:22:15Z</time>
      </trkpt>
      <trkpt lat="49.87206" lon="4.70895">
        <ele>152</ele>
        <time>2024-05-08T10:22:16Z</time>
      </trkpt>
      <trkpt lat="49.87205" lon="4.70894">
        <ele>152</ele>
        <time>2024-05-08T10:22:17Z</time>
      </trkpt>
      <trkpt lat="49.87204" lon="4.70893">
        <ele>152</ele>
        <time>2024-05-08T10:22:18Z</time>
      </trkpt>
      <trkpt lat="49.87203" lon="4.70892">
        <ele>152</ele>
        <time>2024-05-08T10:22:19Z</time>
      </trkpt>
      <trkpt lat="49.87203" lon="4.70892">
        <ele>152</ele>
        <time>2024-05-08T10:22:20Z</time>
      </trkpt>
      <trkpt lat="49.87202" lon="4.70891">
        <ele>153</ele>
        <time>2024-05-08T10:22:21Z</time>
      </trkpt>
      <trkpt lat="49.87202" lon="4.7089">
        <ele>153</ele>
        <time>2024-05-08T10:22:22Z</time>
      </trkpt>
      <trkpt lat="49.87201" lon="4.7089">
        <ele>153</ele>
        <time>2024-05-08T10:22:23Z</time>
      </trkpt>
      <trkpt lat="49.872" lon="4.7089">
        <ele>153</ele>
        <time>2024-05-08T10:22:24Z</time>
      </trkpt>
      <trkpt lat="49.87199" lon="4.70889">
        <ele>153</ele>
        <time>2024-05-08T10:22:25Z</time>
      </trkpt>
      <trkpt lat="49.87199" lon="4.70889">
        <ele>154</ele>
        <time>2024-05-08T10:22:26Z</time>
      </trkpt>
      <trkpt lat="49.87198" lon="4.70889">
        <ele>154</ele>
        <time>2024-05-08T10:22:27Z</time>
      </trkpt>
      <trkpt lat="49.87197" lon="4.70888">
        <ele>154</ele>
        <time>2024-05-08T10:22:28Z</time>
      </trkpt>
      <trkpt lat="49.87196" lon="4.70888">
        <ele>154</ele>
        <time>2024-05-08T10:22:29Z</time>
      </trkpt>
      <trkpt lat="49.87196" lon="4.70888">
        <ele>154</ele>
        <time>2024-05-08T10:22:30Z</time>
      </trkpt>
      <trkpt lat="49.87196" lon="4.70888">
        <ele>155</ele>
        <time>2024-05-08T10:22:31Z</time>
      </trkpt>
      <trkpt lat="49.87195" lon="4.70888">
        <ele>155</ele>
        <time>2024-05-08T10:22:32Z</time>
      </trkpt>
      <trkpt lat="49.87195" lon="4.70888">
        <ele>155</ele>
        <time>2024-05-08T10:22:33Z</time>
      </trkpt>
      <trkpt lat="49.87194" lon="4.70888">
        <ele>155</ele>
        <time>2024-05-08T10:22:34Z</time>
      </trkpt>
      <trkpt lat="49.87194" lon="4.70888">
        <ele>155</ele>
        <time>2024-05-08T10:22:35Z</time>
      </trkpt>
      <trkpt lat="49.87193" lon="4.70888">
        <ele>156</ele>
        <time>2024-05-08T10:22:36Z</time>
      </trkpt>
      <trkpt lat="49.87192" lon="4.70887">
        <ele>156</ele>
        <time>2024-05-08T10:22:37Z</time>
      </trkpt>
      <trkpt lat="49.87191" lon="4.70887">
        <ele>156</ele>
        <time>2024-05-08T10:22:38Z</time>
      </trkpt>
      <trkpt lat="49.8719" lon="4.70886">
        <ele>156</ele>
        <time>2024-05-08T10:22:39Z</time>
      </trkpt>
      <trkpt lat="49.8719" lon="4.70886">
        <ele>156</ele>
        <time>2024-05-08T10:22:40Z</time>
      </trkpt>
      <trkpt lat="49.87189" lon="4.70885">
        <ele>157</ele>
        <time>2024-05-08T10:22:41Z</time>
      </trkpt>
      <trkpt lat="49.87188" lon="4.70884">
        <ele>157</ele>
        <time>2024-05-08T10:22:42Z</time>
      </trkpt>
      <trkpt lat="49.87187" lon="4.70883">
        <ele>157</ele>
        <time>2024-05-08T10:22:43Z</time>
      </trkpt>
      <trkpt lat="49.87187" lon="4.70883">
        <ele>157</ele>
        <time>2024-05-08T10:22:44Z</time>
      </trkpt>
      <trkpt lat="49.87186" lon="4.70882">
        <ele>157</ele>
        <time>2024-05-08T10:22:45Z</time>
      </trkpt>
      <trkpt lat="49.87186" lon="4.70882">
        <ele>158</ele>
        <time>2024-05-08T10:22:46Z</time>
      </trkpt>
      <trkpt lat="49.87185" lon="4.70882">
        <ele>158</ele>
        <time>2024-05-08T10:22:47Z</time>
      </trkpt>
      <trkpt lat="49.87184" lon="4.70882">
        <ele>158</ele>
        <time>2024-05-08T10:22:48Z</time>
      </trkpt>
      <trkpt lat="49.87183" lon="4.70883">
        <ele>158</ele>
        <time>2024-05-08T10:22:49Z</time>
      </trkpt>
      <trkpt lat="49.87182" lon="4.70883">
        <ele>158</ele>
        <time>2024-05-08T10:22:50Z</time>
      </trkpt>
      <trkpt lat="49.87181" lon="4.70884">
        <ele>158</ele>
        <time>2024-05-08T10:22:51Z</time>
      </trkpt>
      <trkpt lat="49.8718" lon="4.70885">
        <ele>158</ele>
        <time>2024-05-08T10:22:52Z</time>
      </trkpt>
      <trkpt lat="49.8718" lon="4.70886">
        <ele>158</ele>
        <time>2024-05-08T10:22:53Z</time>
      </trkpt>
      <trkpt lat="49.87179" lon="4.70886">
        <ele>158</ele>
        <time>2024-05-08T10:22:54Z</time>
      </trkpt>
      <trkpt lat="49.87179" lon="4.70887">
        <ele>158</ele>
        <time>2024-05-08T10:22:55Z</time>
      </trkpt>
      <trkpt lat="49.87178" lon="4.70887">
        <ele>159</ele>
        <time>2024-05-08T10:22:56Z</time>
      </trkpt>
      <trkpt lat="49.87178" lon="4.70886">
        <ele>159</ele>
        <time>2024-05-08T10:22:57Z</time>
      </trkpt>
      <trkpt lat="49.87177" lon="4.70886">
        <ele>159</ele>
        <time>2024-05-08T10:22:58Z</time>
      </trkpt>
      <trkpt lat="49.87177" lon="4.70885">
        <ele>159</ele>
        <time>2024-05-08T10:22:59Z</time>
      </trkpt>
      <trkpt lat="49.87176" lon="4.70885">
        <ele>159</ele>
        <time>2024-05-08T10:23:00Z</time>
      </trkpt>
      <trkpt lat="49.87176" lon="4.70885">
        <ele>159</ele>
        <time>2024-05-08T10:23:01Z</time>
      </trkpt>
      <trkpt lat="49.87175" lon="4.70884">
        <ele>159</ele>
        <time>2024-05-08T10:23:02Z</time>
      </trkpt>
      <trkpt lat="49.87175" lon="4.70884">
        <ele>159</ele>
        <time>2024-05-08T10:23:03Z</time>
      </trkpt>
      <trkpt lat="49.87175" lon="4.70884">
        <ele>159</ele>
        <time>2024-05-08T10:23:04Z</time>
      </trkpt>
      <trkpt lat="49.87174" lon="4.70883">
        <ele>159</ele>
        <time>2024-05-08T10:23:05Z</time>
      </trkpt>
      <trkpt lat="49.87174" lon="4.70883">
        <ele>160</ele>
        <time>2024-05-08T10:23:06Z</time>
      </trkpt>
      <trkpt lat="49.87173" lon="4.70883">
        <ele>160</ele>
        <time>2024-05-08T10:23:07Z</time>
      </trkpt>
      <trkpt lat="49.87172" lon="4.70882">
        <ele>160</ele>
        <time>2024-05-08T10:23:08Z</time>
      </trkpt>
      <trkpt lat="49.87171" lon="4.70882">
        <ele>160</ele>
        <time>2024-05-08T10:23:09Z</time>
      </trkpt>
      <trkpt lat="49.8717" lon="4.70882">
        <ele>160</ele>
        <time>2024-05-08T10:23:10Z</time>
      </trkpt>
      <trkpt lat="49.87169" lon="4.70882">
        <ele>160</ele>
        <time>2024-05-08T10:23:11Z</time>
      </trkpt>
      <trkpt lat="49.87168" lon="4.70882">
        <ele>160</ele>
        <time>2024-05-08T10:23:12Z</time>
      </trkpt>
      <trkpt lat="49.87167" lon="4.70882">
        <ele>160</ele>
        <time>2024-05-08T10:23:13Z</time>
      </trkpt>
      <trkpt lat="49.87166" lon="4.70881">
        <ele>161</ele>
        <time>2024-05-08T10:23:14Z</time>
      </trkpt>
      <trkpt lat="49.87165" lon="4.70881">
        <ele>161</ele>
        <time>2024-05-08T10:23:15Z</time>
      </trkpt>
      <trkpt lat="49.87164" lon="4.7088">
        <ele>162</ele>
        <time>2024-05-08T10:23:16Z</time>
      </trkpt>
      <trkpt lat="49.87163" lon="4.7088">
        <ele>162</ele>
        <time>2024-05-08T10:23:17Z</time>
      </trkpt>
      <trkpt lat="49.87162" lon="4.70879">
        <ele>162</ele>
        <time>2024-05-08T10:23:18Z</time>
      </trkpt>
      <trkpt lat="49.87161" lon="4.70878">
        <ele>162</ele>
        <time>2024-05-08T10:23:19Z</time>
      </trkpt>
      <trkpt lat="49.87161" lon="4.70877">
        <ele>162</ele>
        <time>2024-05-08T10:23:20Z</time>
      </trkpt>
      <trkpt lat="49.8716" lon="4.70876">
        <ele>163</ele>
        <time>2024-05-08T10:23:21Z</time>
      </trkpt>
      <trkpt lat="49.87159" lon="4.70875">
        <ele>163</ele>
        <time>2024-05-08T10:23:22Z</time>
      </trkpt>
      <trkpt lat="49.87159" lon="4.70875">
        <ele>163</ele>
        <time>2024-05-08T10:23:23Z</time>
      </trkpt>
      <trkpt lat="49.87158" lon="4.70874">
        <ele>163</ele>
        <time>2024-05-08T10:23:24Z</time>
      </trkpt>
      <trkpt lat="49.87158" lon="4.70874">
        <ele>163</ele>
        <time>2024-05-08T10:23:25Z</time>
      </trkpt>
      <trkpt lat="49.87157" lon="4.70874">
        <ele>164</ele>
        <time>2024-05-08T10:23:26Z</time>
      </trkpt>
      <trkpt lat="49.87156" lon="4.70874">
        <ele>164</ele>
        <time>2024-05-08T10:23:27Z</time>
      </trkpt>
      <trkpt lat="49.87156" lon="4.70874">
        <ele>164</ele>
        <time>2024-05-08T10:23:28Z</time>
      </trkpt>
      <trkpt lat="49.87155" lon="4.70874">
        <ele>164</ele>
        <time>2024-05-08T10:23:29Z</time>
      </trkpt>
      <trkpt lat="49.87153" lon="4.70872">
        <ele>173</ele>
        <time>2024-05-08T10:25:14Z</time>
      </trkpt>
      <trkpt lat="49.87152" lon="4.70871">
        <ele>173</ele>
        <time>2024-05-08T10:25:15Z</time>
      </trkpt>
      <trkpt lat="49.8715" lon="4.70869">
        <ele>173</ele>
        <time>2024-05-08T10:25:16Z</time>
      </trkpt>
      <trkpt lat="49.87149" lon="4.70868">
        <ele>173</ele>
        <time>2024-05-08T10:25:17Z</time>
      </trkpt>
      <trkpt lat="49.87149" lon="4.70867">
        <ele>173</ele>
        <time>2024-05-08T10:25:18Z</time>
      </trkpt>
      <trkpt lat="49.87149" lon="4.70863">
        <ele>173</ele>
        <time>2024-05-08T10:29:05Z</time>
      </trkpt>
      <trkpt lat="49.87149" lon="4.7086">
        <ele>173</ele>
        <time>2024-05-08T10:29:06Z</time>
      </trkpt>
      <trkpt lat="49.87149" lon="4.70858">
        <ele>173</ele>
        <time>2024-05-08T10:29:07Z</time>
      </trkpt>
      <trkpt lat="49.87149" lon="4.70857">
        <ele>173</ele>
        <time>2024-05-08T10:29:08Z</time>
      </trkpt>
      <trkpt lat="49.87149" lon="4.70855">
        <ele>173</ele>
        <time>2024-05-08T10:29:09Z</time>
      </trkpt>
      <trkpt lat="49.87149" lon="4.70854">
        <ele>173</ele>
        <time>2024-05-08T10:29:10Z</time>
      </trkpt>
      <trkpt lat="49.87148" lon="4.70853">
        <ele>173</ele>
        <time>2024-05-08T10:29:11Z</time>
      </trkpt>
      <trkpt lat="49.87148" lon="4.70852">
        <ele>173</ele>
        <time>2024-05-08T10:29:12Z</time>
      </trkpt>
      <trkpt lat="49.87147" lon="4.70851">
        <ele>173</ele>
        <time>2024-05-08T10:29:13Z</time>
      </trkpt>
      <trkpt lat="49.87147" lon="4.7085">
        <ele>173</ele>
        <time>2024-05-08T10:29:14Z</time>
      </trkpt>
      <trkpt lat="49.87146" lon="4.70849">
        <ele>173</ele>
        <time>2024-05-08T10:29:15Z</time>
      </trkpt>
      <trkpt lat="49.87145" lon="4.70848">
        <ele>173</ele>
        <time>2024-05-08T10:29:16Z</time>
      </trkpt>
      <trkpt lat="49.87144" lon="4.70847">
        <ele>172</ele>
        <time>2024-05-08T10:29:17Z</time>
      </trkpt>
      <trkpt lat="49.87143" lon="4.70846">
        <ele>172</ele>
        <time>2024-05-08T10:29:18Z</time>
      </trkpt>
      <trkpt lat="49.87141" lon="4.70846">
        <ele>172</ele>
        <time>2024-05-08T10:29:19Z</time>
      </trkpt>
      <trkpt lat="49.8714" lon="4.70846">
        <ele>172</ele>
        <time>2024-05-08T10:29:20Z</time>
      </trkpt>
      <trkpt lat="49.87139" lon="4.70846">
        <ele>172</ele>
        <time>2024-05-08T10:29:21Z</time>
      </trkpt>
      <trkpt lat="49.87137" lon="4.70846">
        <ele>172</ele>
        <time>2024-05-08T10:29:22Z</time>
      </trkpt>
      <trkpt lat="49.87136" lon="4.70845">
        <ele>172</ele>
        <time>2024-05-08T10:29:23Z</time>
      </trkpt>
      <trkpt lat="49.87135" lon="4.70844">
        <ele>172</ele>
        <time>2024-05-08T10:29:24Z</time>
      </trkpt>
      <trkpt lat="49.87134" lon="4.70843">
        <ele>172</ele>
        <time>2024-05-08T10:29:25Z</time>
      </trkpt>
      <trkpt lat="49.87134" lon="4.70843">
        <ele>172</ele>
        <time>2024-05-08T10:29:26Z</time>
      </trkpt>
      <trkpt lat="49.87134" lon="4.70842">
        <ele>172</ele>
        <time>2024-05-08T10:29:27Z</time>
      </trkpt>
      <trkpt lat="49.87133" lon="4.7084">
        <ele>173</ele>
        <time>2024-05-08T10:29:33Z</time>
      </trkpt>
      <trkpt lat="49.87132" lon="4.70839">
        <ele>173</ele>
        <time>2024-05-08T10:29:34Z</time>
      </trkpt>
      <trkpt lat="49.87131" lon="4.70838">
        <ele>173</ele>
        <time>2024-05-08T10:29:35Z</time>
      </trkpt>
      <trkpt lat="49.87131" lon="4.70838">
        <ele>173</ele>
        <time>2024-05-08T10:29:36Z</time>
      </trkpt>
      <trkpt lat="49.8713" lon="4.70837">
        <ele>173</ele>
        <time>2024-05-08T10:29:37Z</time>
      </trkpt>
      <trkpt lat="49.8713" lon="4.70836">
        <ele>173</ele>
        <time>2024-05-08T10:29:38Z</time>
      </trkpt>
      <trkpt lat="49.87129" lon="4.70836">
        <ele>173</ele>
        <time>2024-05-08T10:29:39Z</time>
      </trkpt>
      <trkpt lat="49.87129" lon="4.70835">
        <ele>173</ele>
        <time>2024-05-08T10:29:40Z</time>
      </trkpt>
      <trkpt lat="49.87128" lon="4.70835">
        <ele>173</ele>
        <time>2024-05-08T10:29:41Z</time>
      </trkpt>
      <trkpt lat="49.87128" lon="4.70834">
        <ele>173</ele>
        <time>2024-05-08T10:29:42Z</time>
      </trkpt>
      <trkpt lat="49.87127" lon="4.70834">
        <ele>173</ele>
        <time>2024-05-08T10:29:43Z</time>
      </trkpt>
      <trkpt lat="49.87127" lon="4.70833">
        <ele>173</ele>
        <time>2024-05-08T10:29:44Z</time>
      </trkpt>
      <trkpt lat="49.87126" lon="4.70833">
        <ele>173</ele>
        <time>2024-05-08T10:29:45Z</time>
      </trkpt>
      <trkpt lat="49.87125" lon="4.70832">
        <ele>174</ele>
        <time>2024-05-08T10:29:46Z</time>
      </trkpt>
      <trkpt lat="49.87124" lon="4.70832">
        <ele>174</ele>
        <time>2024-05-08T10:29:47Z</time>
      </trkpt>
      <trkpt lat="49.87123" lon="4.70831">
        <ele>174</ele>
        <time>2024-05-08T10:29:48Z</time>
      </trkpt>
      <trkpt lat="49.87121" lon="4.70831">
        <ele>174</ele>
        <time>2024-05-08T10:29:49Z</time>
      </trkpt>
      <trkpt lat="49.87121" lon="4.70831">
        <ele>174</ele>
        <time>2024-05-08T10:29:50Z</time>
      </trkpt>
      <trkpt lat="49.8712" lon="4.70831">
        <ele>175</ele>
        <time>2024-05-08T10:29:51Z</time>
      </trkpt>
      <trkpt lat="49.8712" lon="4.70831">
        <ele>175</ele>
        <time>2024-05-08T10:29:52Z</time>
      </trkpt>
      <trkpt lat="49.87119" lon="4.7083">
        <ele>175</ele>
        <time>2024-05-08T10:29:53Z</time>
      </trkpt>
      <trkpt lat="49.87119" lon="4.7083">
        <ele>175</ele>
        <time>2024-05-08T10:29:54Z</time>
      </trkpt>
      <trkpt lat="49.87118" lon="4.7083">
        <ele>175</ele>
        <time>2024-05-08T10:29:55Z</time>
      </trkpt>
      <trkpt lat="49.87117" lon="4.7083">
        <ele>176</ele>
        <time>2024-05-08T10:29:56Z</time>
      </trkpt>
      <trkpt lat="49.87115" lon="4.70829">
        <ele>176</ele>
        <time>2024-05-08T10:30:02Z</time>
      </trkpt>
      <trkpt lat="49.87115" lon="4.70829">
        <ele>176</ele>
        <time>2024-05-08T10:30:03Z</time>
      </trkpt>
      <trkpt lat="49.87114" lon="4.70829">
        <ele>176</ele>
        <time>2024-05-08T10:30:04Z</time>
      </trkpt>
      <trkpt lat="49.87113" lon="4.70828">
        <ele>176</ele>
        <time>2024-05-08T10:30:05Z</time>
      </trkpt>
      <trkpt lat="49.87112" lon="4.70828">
        <ele>177</ele>
        <time>2024-05-08T10:30:06Z</time>
      </trkpt>
      <trkpt lat="49.87111" lon="4.70828">
        <ele>177</ele>
        <time>2024-05-08T10:30:07Z</time>
      </trkpt>
      <trkpt lat="49.8711" lon="4.70827">
        <ele>177</ele>
        <time>2024-05-08T10:30:08Z</time>
      </trkpt>
      <trkpt lat="49.87109" lon="4.70826">
        <ele>178</ele>
        <time>2024-05-08T10:30:09Z</time>
      </trkpt>
      <trkpt lat="49.87108" lon="4.70826">
        <ele>178</ele>
        <time>2024-05-08T10:30:10Z</time>
      </trkpt>
      <trkpt lat="49.87107" lon="4.70825">
        <ele>179</ele>
        <time>2024-05-08T10:30:11Z</time>
      </trkpt>
      <trkpt lat="49.87107" lon="4.70824">
        <ele>179</ele>
        <time>2024-05-08T10:30:12Z</time>
      </trkpt>
      <trkpt lat="49.87106" lon="4.70824">
        <ele>179</ele>
        <time>2024-05-08T10:30:13Z</time>
      </trkpt>
      <trkpt lat="49.87106" lon="4.70823">
        <ele>179</ele>
        <time>2024-05-08T10:30:14Z</time>
      </trkpt>
      <trkpt lat="49.87106" lon="4.70823">
        <ele>179</ele>
        <time>2024-05-08T10:30:15Z</time>
      </trkpt>
      <trkpt lat="49.87105" lon="4.70823">
        <ele>180</ele>
        <time>2024-05-08T10:30:16Z</time>
      </trkpt>
      <trkpt lat="49.87105" lon="4.70823">
        <ele>180</ele>
        <time>2024-05-08T10:30:17Z</time>
      </trkpt>
      <trkpt lat="49.87104" lon="4.70823">
        <ele>180</ele>
        <time>2024-05-08T10:30:18Z</time>
      </trkpt>
      <trkpt lat="49.87104" lon="4.70823">
        <ele>180</ele>
        <time>2024-05-08T10:30:19Z</time>
      </trkpt>
      <trkpt lat="49.87103" lon="4.70822">
        <ele>180</ele>
        <time>2024-05-08T10:30:20Z</time>
      </trkpt>
      <trkpt lat="49.871" lon="4.7082">
        <ele>183</ele>
        <time>2024-05-08T10:30:31Z</time>
      </trkpt>
      <trkpt lat="49.87098" lon="4.70819">
        <ele>183</ele>
        <time>2024-05-08T10:30:32Z</time>
      </trkpt>
      <trkpt lat="49.87097" lon="4.70818">
        <ele>183</ele>
        <time>2024-05-08T10:30:33Z</time>
      </trkpt>
      <trkpt lat="49.87096" lon="4.70818">
        <ele>183</ele>
        <time>2024-05-08T10:30:34Z</time>
      </trkpt>
      <trkpt lat="49.87095" lon="4.70817">
        <ele>183</ele>
        <time>2024-05-08T10:30:35Z</time>
      </trkpt>
      <trkpt lat="49.87095" lon="4.70817">
        <ele>184</ele>
        <time>2024-05-08T10:30:36Z</time>
      </trkpt>
      <trkpt lat="49.87094" lon="4.70817">
        <ele>184</ele>
        <time>2024-05-08T10:30:37Z</time>
      </trkpt>
      <trkpt lat="49.87093" lon="4.70816">
        <ele>184</ele>
        <time>2024-05-08T10:30:38Z</time>
      </trkpt>
      <trkpt lat="49.87092" lon="4.70816">
        <ele>184</ele>
        <time>2024-05-08T10:30:39Z</time>
      </trkpt>
      <trkpt lat="49.87091" lon="4.70815">
        <ele>184</ele>
        <time>2024-05-08T10:30:40Z</time>
      </trkpt>
      <trkpt lat="49.87091" lon="4.70815">
        <ele>185</ele>
        <time>2024-05-08T10:30:41Z</time>
      </trkpt>
      <trkpt lat="49.87091" lon="4.70815">
        <ele>185</ele>
        <time>2024-05-08T10:30:42Z</time>
      </trkpt>
      <trkpt lat="49.8709" lon="4.70814">
        <ele>185</ele>
        <time>2024-05-08T10:30:43Z</time>
      </trkpt>
      <trkpt lat="49.8709" lon="4.70814">
        <ele>185</ele>
        <time>2024-05-08T10:30:44Z</time>
      </trkpt>
      <trkpt lat="49.8709" lon="4.70814">
        <ele>185</ele>
        <time>2024-05-08T10:30:45Z</time>
      </trkpt>
      <trkpt lat="49.8709" lon="4.70813">
        <ele>186</ele>
        <time>2024-05-08T10:30:46Z</time>
      </trkpt>
      <trkpt lat="49.87089" lon="4.70813">
        <ele>186</ele>
        <time>2024-05-08T10:30:47Z</time>
      </trkpt>
      <trkpt lat="49.87088" lon="4.70813">
        <ele>186</ele>
        <time>2024-05-08T10:30:48Z</time>
      </trkpt>
      <trkpt lat="49.87088" lon="4.70813">
        <ele>186</ele>
        <time>2024-05-08T10:30:49Z</time>
      </trkpt>
      <trkpt lat="49.87087" lon="4.70812">
        <ele>186</ele>
        <time>2024-05-08T10:30:50Z</time>
      </trkpt>
      <trkpt lat="49.87086" lon="4.70812">
        <ele>187</ele>
        <time>2024-05-08T10:30:51Z</time>
      </trkpt>
      <trkpt lat="49.87086" lon="4.70811">
        <ele>187</ele>
        <time>2024-05-08T10:30:52Z</time>
      </trkpt>
      <trkpt lat="49.87085" lon="4.70811">
        <ele>187</ele>
        <time>2024-05-08T10:30:53Z</time>
      </trkpt>
      <trkpt lat="49.87085" lon="4.70811">
        <ele>187</ele>
        <time>2024-05-08T10:30:54Z</time>
      </trkpt>
      <trkpt lat="49.87085" lon="4.7081">
        <ele>187</ele>
        <time>2024-05-08T10:30:55Z</time>
      </trkpt>
      <trkpt lat="49.87085" lon="4.7081">
        <ele>188</ele>
        <time>2024-05-08T10:30:56Z</time>
      </trkpt>
      <trkpt lat="49.87084" lon="4.7081">
        <ele>188</ele>
        <time>2024-05-08T10:30:57Z</time>
      </trkpt>
      <trkpt lat="49.87083" lon="4.70809">
        <ele>188</ele>
        <time>2024-05-08T10:30:58Z</time>
      </trkpt>
      <trkpt lat="49.87082" lon="4.70807">
        <ele>188</ele>
        <time>2024-05-08T10:30:59Z</time>
      </trkpt>
      <trkpt lat="49.87082" lon="4.70807">
        <ele>188</ele>
        <time>2024-05-08T10:31:00Z</time>
      </trkpt>
      <trkpt lat="49.87081" lon="4.70806">
        <ele>189</ele>
        <time>2024-05-08T10:31:01Z</time>
      </trkpt>
      <trkpt lat="49.8708" lon="4.70805">
        <ele>189</ele>
        <time>2024-05-08T10:31:02Z</time>
      </trkpt>
      <trkpt lat="49.87079" lon="4.70804">
        <ele>189</ele>
        <time>2024-05-08T10:31:03Z</time>
      </trkpt>
      <trkpt lat="49.87078" lon="4.70804">
        <ele>189</ele>
        <time>2024-05-08T10:31:04Z</time>
      </trkpt>
      <trkpt lat="49.87078" lon="4.70803">
        <ele>189</ele>
        <time>2024-05-08T10:31:05Z</time>
      </trkpt>
      <trkpt lat="49.87077" lon="4.70802">
        <ele>189</ele>
        <time>2024-05-08T10:31:06Z</time>
      </trkpt>
      <trkpt lat="49.87076" lon="4.70801">
        <ele>189</ele>
        <time>2024-05-08T10:31:07Z</time>
      </trkpt>
      <trkpt lat="49.87074" lon="4.708">
        <ele>190</ele>
        <time>2024-05-08T10:31:25Z</time>
      </trkpt>
      <trkpt lat="49.87074" lon="4.70799">
        <ele>190</ele>
        <time>2024-05-08T10:31:26Z</time>
      </trkpt>
      <trkpt lat="49.87073" lon="4.70798">
        <ele>190</ele>
        <time>2024-05-08T10:31:27Z</time>
      </trkpt>
      <trkpt lat="49.87073" lon="4.70796">
        <ele>191</ele>
        <time>2024-05-08T10:31:37Z</time>
      </trkpt>
      <trkpt lat="49.87073" lon="4.70795">
        <ele>191</ele>
        <time>2024-05-08T10:31:38Z</time>
      </trkpt>
      <trkpt lat="49.87072" lon="4.70794">
        <ele>191</ele>
        <time>2024-05-08T10:31:39Z</time>
      </trkpt>
      <trkpt lat="49.87072" lon="4.70793">
        <ele>191</ele>
        <time>2024-05-08T10:31:40Z</time>
      </trkpt>
      <trkpt lat="49.87071" lon="4.70793">
        <ele>192</ele>
        <time>2024-05-08T10:31:41Z</time>
      </trkpt>
      <trkpt lat="49.87071" lon="4.70793">
        <ele>192</ele>
        <time>2024-05-08T10:31:42Z</time>
      </trkpt>
      <trkpt lat="49.8707" lon="4.70792">
        <ele>192</ele>
        <time>2024-05-08T10:31:43Z</time>
      </trkpt>
      <trkpt lat="49.8707" lon="4.70792">
        <ele>192</ele>
        <time>2024-05-08T10:31:44Z</time>
      </trkpt>
      <trkpt lat="49.87069" lon="4.70792">
        <ele>192</ele>
        <time>2024-05-08T10:31:45Z</time>
      </trkpt>
      <trkpt lat="49.87069" lon="4.70791">
        <ele>192</ele>
        <time>2024-05-08T10:31:46Z</time>
      </trkpt>
      <trkpt lat="49.87069" lon="4.70791">
        <ele>192</ele>
        <time>2024-05-08T10:31:47Z</time>
      </trkpt>
      <trkpt lat="49.87068" lon="4.7079">
        <ele>192</ele>
        <time>2024-05-08T10:31:48Z</time>
      </trkpt>
      <trkpt lat="49.87068" lon="4.70789">
        <ele>192</ele>
        <time>2024-05-08T10:31:49Z</time>
      </trkpt>
      <trkpt lat="49.87067" lon="4.70788">
        <ele>192</ele>
        <time>2024-05-08T10:31:50Z</time>
      </trkpt>
      <trkpt lat="49.87067" lon="4.70787">
        <ele>193</ele>
        <time>2024-05-08T10:31:51Z</time>
      </trkpt>
      <trkpt lat="49.87066" lon="4.70786">
        <ele>193</ele>
        <time>2024-05-08T10:31:52Z</time>
      </trkpt>
      <trkpt lat="49.87066" lon="4.70784">
        <ele>193</ele>
        <time>2024-05-08T10:31:53Z</time>
      </trkpt>
      <trkpt lat="49.87065" lon="4.70783">
        <ele>193</ele>
        <time>2024-05-08T10:31:54Z</time>
      </trkpt>
      <trkpt lat="49.87065" lon="4.70782">
        <ele>193</ele>
        <time>2024-05-08T10:31:55Z</time>
      </trkpt>
      <trkpt lat="49.87065" lon="4.70781">
        <ele>194</ele>
        <time>2024-05-08T10:31:56Z</time>
      </trkpt>
      <trkpt lat="49.87064" lon="4.7078">
        <ele>194</ele>
        <time>2024-05-08T10:31:57Z</time>
      </trkpt>
      <trkpt lat="49.87064" lon="4.70779">
        <ele>194</ele>
        <time>2024-05-08T10:31:58Z</time>
      </trkpt>
      <trkpt lat="49.87063" lon="4.70776">
        <ele>196</ele>
        <time>2024-05-08T10:32:13Z</time>
      </trkpt>
      <trkpt lat="49.87063" lon="4.70773">
        <ele>196</ele>
        <time>2024-05-08T10:32:14Z</time>
      </trkpt>
      <trkpt lat="49.87063" lon="4.70771">
        <ele>196</ele>
        <time>2024-05-08T10:32:15Z</time>
      </trkpt>
      <trkpt lat="49.87063" lon="4.70769">
        <ele>196</ele>
        <time>2024-05-08T10:32:16Z</time>
      </trkpt>
      <trkpt lat="49.87062" lon="4.70768">
        <ele>196</ele>
        <time>2024-05-08T10:32:17Z</time>
      </trkpt>
      <trkpt lat="49.87062" lon="4.70767">
        <ele>196</ele>
        <time>2024-05-08T10:32:18Z</time>
      </trkpt>
      <trkpt lat="49.87062" lon="4.70766">
        <ele>196</ele>
        <time>2024-05-08T10:32:19Z</time>
      </trkpt>
      <trkpt lat="49.87062" lon="4.70766">
        <ele>196</ele>
        <time>2024-05-08T10:32:20Z</time>
      </trkpt>
      <trkpt lat="49.87061" lon="4.70765">
        <ele>197</ele>
        <time>2024-05-08T10:32:21Z</time>
      </trkpt>
      <trkpt lat="49.87061" lon="4.70764">
        <ele>197</ele>
        <time>2024-05-08T10:32:22Z</time>
      </trkpt>
      <trkpt lat="49.8706" lon="4.70764">
        <ele>197</ele>
        <time>2024-05-08T10:32:23Z</time>
      </trkpt>
      <trkpt lat="49.87059" lon="4.70764">
        <ele>197</ele>
        <time>2024-05-08T10:32:24Z</time>
      </trkpt>
      <trkpt lat="49.87058" lon="4.70764">
        <ele>197</ele>
        <time>2024-05-08T10:32:25Z</time>
      </trkpt>
      <trkpt lat="49.87057" lon="4.70764">
        <ele>198</ele>
        <time>2024-05-08T10:32:26Z</time>
      </trkpt>
      <trkpt lat="49.87056" lon="4.70764">
        <ele>198</ele>
        <time>2024-05-08T10:32:27Z</time>
      </trkpt>
      <trkpt lat="49.87055" lon="4.70764">
        <ele>198</ele>
        <time>2024-05-08T10:32:28Z</time>
      </trkpt>
      <trkpt lat="49.87054" lon="4.70764">
        <ele>198</ele>
        <time>2024-05-08T10:32:29Z</time>
      </trkpt>
      <trkpt lat="49.87054" lon="4.70764">
        <ele>198</ele>
        <time>2024-05-08T10:32:30Z</time>
      </trkpt>
      <trkpt lat="49.87053" lon="4.70763">
        <ele>199</ele>
        <time>2024-05-08T10:32:31Z</time>
      </trkpt>
      <trkpt lat="49.87053" lon="4.70763">
        <ele>199</ele>
        <time>2024-05-08T10:32:32Z</time>
      </trkpt>
      <trkpt lat="49.87052" lon="4.70764">
        <ele>201</ele>
        <time>2024-05-08T10:32:42Z</time>
      </trkpt>
      <trkpt lat="49.87051" lon="4.70764">
        <ele>201</ele>
        <time>2024-05-08T10:32:43Z</time>
      </trkpt>
      <trkpt lat="49.8705" lon="4.70765">
        <ele>201</ele>
        <time>2024-05-08T10:32:44Z</time>
      </trkpt>
      <trkpt lat="49.8705" lon="4.70765">
        <ele>201</ele>
        <time>2024-05-08T10:32:45Z</time>
      </trkpt>
      <trkpt lat="49.87048" lon="4.70766">
        <ele>202</ele>
        <time>2024-05-08T10:32:54Z</time>
      </trkpt>
      <trkpt lat="49.87047" lon="4.70766">
        <ele>202</ele>
        <time>2024-05-08T10:32:55Z</time>
      </trkpt>
      <trkpt lat="49.87046" lon="4.70767">
        <ele>203</ele>
        <time>2024-05-08T10:32:56Z</time>
      </trkpt>
      <trkpt lat="49.87043" lon="4.70769">
        <ele>205</ele>
        <time>2024-05-08T10:33:06Z</time>
      </trkpt>
      <trkpt lat="49.87041" lon="4.7077">
        <ele>205</ele>
        <time>2024-05-08T10:33:07Z</time>
      </trkpt>
      <trkpt lat="49.87039" lon="4.7077">
        <ele>205</ele>
        <time>2024-05-08T10:33:08Z</time>
      </trkpt>
      <trkpt lat="49.87038" lon="4.70771">
        <ele>205</ele>
        <time>2024-05-08T10:33:09Z</time>
      </trkpt>
      <trkpt lat="49.87036" lon="4.70771">
        <ele>205</ele>
        <time>2024-05-08T10:33:10Z</time>
      </trkpt>
      <trkpt lat="49.87035" lon="4.70771">
        <ele>206</ele>
        <time>2024-05-08T10:33:11Z</time>
      </trkpt>
      <trkpt lat="49.87033" lon="4.70771">
        <ele>206</ele>
        <time>2024-05-08T10:33:12Z</time>
      </trkpt>
      <trkpt lat="49.87032" lon="4.70771">
        <ele>206</ele>
        <time>2024-05-08T10:33:13Z</time>
      </trkpt>
      <trkpt lat="49.8703" lon="4.70771">
        <ele>206</ele>
        <time>2024-05-08T10:33:14Z</time>
      </trkpt>
      <trkpt lat="49.87029" lon="4.70771">
        <ele>206</ele>
        <time>2024-05-08T10:33:15Z</time>
      </trkpt>
      <trkpt lat="49.87028" lon="4.7077">
        <ele>207</ele>
        <time>2024-05-08T10:33:16Z</time>
      </trkpt>
      <trkpt lat="49.87025" lon="4.70772">
        <ele>210</ele>
        <time>2024-05-08T10:33:55Z</time>
      </trkpt>
      <trkpt lat="49.87024" lon="4.70773">
        <ele>210</ele>
        <time>2024-05-08T10:33:56Z</time>
      </trkpt>
      <trkpt lat="49.87023" lon="4.70774">
        <ele>210</ele>
        <time>2024-05-08T10:33:57Z</time>
      </trkpt>
      <trkpt lat="49.87022" lon="4.70774">
        <ele>210</ele>
        <time>2024-05-08T10:33:58Z</time>
      </trkpt>
      <trkpt lat="49.87021" lon="4.70775">
        <ele>210</ele>
        <time>2024-05-08T10:33:59Z</time>
      </trkpt>
      <trkpt lat="49.8702" lon="4.70775">
        <ele>210</ele>
        <time>2024-05-08T10:34:00Z</time>
      </trkpt>
      <trkpt lat="49.87019" lon="4.70776">
        <ele>211</ele>
        <time>2024-05-08T10:34:01Z</time>
      </trkpt>
      <trkpt lat="49.87018" lon="4.70777">
        <ele>211</ele>
        <time>2024-05-08T10:34:02Z</time>
      </trkpt>
      <trkpt lat="49.87016" lon="4.70777">
        <ele>211</ele>
        <time>2024-05-08T10:34:03Z</time>
      </trkpt>
      <trkpt lat="49.87016" lon="4.70777">
        <ele>211</ele>
        <time>2024-05-08T10:34:04Z</time>
      </trkpt>
      <trkpt lat="49.87015" lon="4.70778">
        <ele>211</ele>
        <time>2024-05-08T10:34:05Z</time>
      </trkpt>
      <trkpt lat="49.87014" lon="4.70778">
        <ele>212</ele>
        <time>2024-05-08T10:34:06Z</time>
      </trkpt>
      <trkpt lat="49.87013" lon="4.70778">
        <ele>212</ele>
        <time>2024-05-08T10:34:07Z</time>
      </trkpt>
      <trkpt lat="49.8701" lon="4.70778">
        <ele>213</ele>
        <time>2024-05-08T10:34:17Z</time>
      </trkpt>
      <trkpt lat="49.87009" lon="4.70778">
        <ele>213</ele>
        <time>2024-05-08T10:34:18Z</time>
      </trkpt>
      <trkpt lat="49.87008" lon="4.70778">
        <ele>213</ele>
        <time>2024-05-08T10:34:19Z</time>
      </trkpt>
      <trkpt lat="49.87008" lon="4.70778">
        <ele>213</ele>
        <time>2024-05-08T10:34:20Z</time>
      </trkpt>
      <trkpt lat="49.87007" lon="4.70777">
        <ele>214</ele>
        <time>2024-05-08T10:34:21Z</time>
      </trkpt>
      <trkpt lat="49.87006" lon="4.70777">
        <ele>214</ele>
        <time>2024-05-08T10:34:22Z</time>
      </trkpt>
      <trkpt lat="49.87005" lon="4.70777">
        <ele>214</ele>
        <time>2024-05-08T10:34:23Z</time>
      </trkpt>
      <trkpt lat="49.87004" lon="4.70777">
        <ele>214</ele>
        <time>2024-05-08T10:34:24Z</time>
      </trkpt>
      <trkpt lat="49.87003" lon="4.70778">
        <ele>214</ele>
        <time>2024-05-08T10:34:25Z</time>
      </trkpt>
      <trkpt lat="49.87002" lon="4.70778">
        <ele>215</ele>
        <time>2024-05-08T10:34:26Z</time>
      </trkpt>
      <trkpt lat="49.87001" lon="4.70779">
        <ele>215</ele>
        <time>2024-05-08T10:34:27Z</time>
      </trkpt>
      <trkpt lat="49.86999" lon="4.7078">
        <ele>216</ele>
        <time>2024-05-08T10:34:34Z</time>
      </trkpt>
      <trkpt lat="49.86998" lon="4.70781">
        <ele>216</ele>
        <time>2024-05-08T10:34:35Z</time>
      </trkpt>
      <trkpt lat="49.86997" lon="4.70782">
        <ele>217</ele>
        <time>2024-05-08T10:34:36Z</time>
      </trkpt>
      <trkpt lat="49.86997" lon="4.70783">
        <ele>217</ele>
        <time>2024-05-08T10:34:37Z</time>
      </trkpt>
      <trkpt lat="49.86996" lon="4.70784">
        <ele>217</ele>
        <time>2024-05-08T10:34:38Z</time>
      </trkpt>
      <trkpt lat="49.86995" lon="4.70784">
        <ele>217</ele>
        <time>2024-05-08T10:34:39Z</time>
      </trkpt>
      <trkpt lat="49.86995" lon="4.70785">
        <ele>217</ele>
        <time>2024-05-08T10:34:40Z</time>
      </trkpt>
      <trkpt lat="49.86994" lon="4.70785">
        <ele>218</ele>
        <time>2024-05-08T10:34:41Z</time>
      </trkpt>
      <trkpt lat="49.86993" lon="4.70785">
        <ele>218</ele>
        <time>2024-05-08T10:34:42Z</time>
      </trkpt>
      <trkpt lat="49.86992" lon="4.70785">
        <ele>218</ele>
        <time>2024-05-08T10:34:43Z</time>
      </trkpt>
      <trkpt lat="49.86991" lon="4.70785">
        <ele>218</ele>
        <time>2024-05-08T10:34:44Z</time>
      </trkpt>
      <trkpt lat="49.8699" lon="4.70785">
        <ele>218</ele>
        <time>2024-05-08T10:34:45Z</time>
      </trkpt>
      <trkpt lat="49.86989" lon="4.70784">
        <ele>218</ele>
        <time>2024-05-08T10:34:46Z</time>
      </trkpt>
      <trkpt lat="49.86988" lon="4.70784">
        <ele>218</ele>
        <time>2024-05-08T10:34:47Z</time>
      </trkpt>
      <trkpt lat="49.86987" lon="4.70784">
        <ele>218</ele>
        <time>2024-05-08T10:34:48Z</time>
      </trkpt>
      <trkpt lat="49.86986" lon="4.70784">
        <ele>218</ele>
        <time>2024-05-08T10:34:49Z</time>
      </trkpt>
      <trkpt lat="49.86985" lon="4.70784">
        <ele>218</ele>
        <time>2024-05-08T10:34:50Z</time>
      </trkpt>
      <trkpt lat="49.86984" lon="4.70785">
        <ele>219</ele>
        <time>2024-05-08T10:34:51Z</time>
      </trkpt>
      <trkpt lat="49.86983" lon="4.70785">
        <ele>219</ele>
        <time>2024-05-08T10:34:52Z</time>
      </trkpt>
      <trkpt lat="49.86983" lon="4.70785">
        <ele>219</ele>
        <time>2024-05-08T10:34:53Z</time>
      </trkpt>
      <trkpt lat="49.86982" lon="4.70785">
        <ele>220</ele>
        <time>2024-05-08T10:34:54Z</time>
      </trkpt>
      <trkpt lat="49.86982" lon="4.70786">
        <ele>220</ele>
        <time>2024-05-08T10:34:55Z</time>
      </trkpt>
      <trkpt lat="49.86981" lon="4.70786">
        <ele>221</ele>
        <time>2024-05-08T10:34:56Z</time>
      </trkpt>
      <trkpt lat="49.86981" lon="4.70787">
        <ele>221</ele>
        <time>2024-05-08T10:34:57Z</time>
      </trkpt>
      <trkpt lat="49.8698" lon="4.70787">
        <ele>221</ele>
        <time>2024-05-08T10:34:58Z</time>
      </trkpt>
      <trkpt lat="49.86979" lon="4.70787">
        <ele>221</ele>
        <time>2024-05-08T10:34:59Z</time>
      </trkpt>
      <trkpt lat="49.86978" lon="4.70788">
        <ele>221</ele>
        <time>2024-05-08T10:35:00Z</time>
      </trkpt>
      <trkpt lat="49.86977" lon="4.70788">
        <ele>222</ele>
        <time>2024-05-08T10:35:01Z</time>
      </trkpt>
      <trkpt lat="49.86976" lon="4.70788">
        <ele>223</ele>
        <time>2024-05-08T10:35:22Z</time>
      </trkpt>
      <trkpt lat="49.86976" lon="4.70788">
        <ele>223</ele>
        <time>2024-05-08T10:35:23Z</time>
      </trkpt>
      <trkpt lat="49.86975" lon="4.70789">
        <ele>223</ele>
        <time>2024-05-08T10:35:24Z</time>
      </trkpt>
      <trkpt lat="49.86975" lon="4.70789">
        <ele>223</ele>
        <time>2024-05-08T10:35:25Z</time>
      </trkpt>
      <trkpt lat="49.86974" lon="4.70789">
        <ele>224</ele>
        <time>2024-05-08T10:35:26Z</time>
      </trkpt>
      <trkpt lat="49.86973" lon="4.7079">
        <ele>224</ele>
        <time>2024-05-08T10:35:27Z</time>
      </trkpt>
      <trkpt lat="49.86972" lon="4.7079">
        <ele>224</ele>
        <time>2024-05-08T10:35:28Z</time>
      </trkpt>
      <trkpt lat="49.86972" lon="4.70791">
        <ele>224</ele>
        <time>2024-05-08T10:35:29Z</time>
      </trkpt>
      <trkpt lat="49.86971" lon="4.70792">
        <ele>224</ele>
        <time>2024-05-08T10:35:30Z</time>
      </trkpt>
      <trkpt lat="49.8697" lon="4.70792">
        <ele>225</ele>
        <time>2024-05-08T10:35:31Z</time>
      </trkpt>
      <trkpt lat="49.86969" lon="4.70793">
        <ele>225</ele>
        <time>2024-05-08T10:35:32Z</time>
      </trkpt>
      <trkpt lat="49.86968" lon="4.70794">
        <ele>225</ele>
        <time>2024-05-08T10:35:33Z</time>
      </trkpt>
      <trkpt lat="49.86967" lon="4.70794">
        <ele>225</ele>
        <time>2024-05-08T10:35:34Z</time>
      </trkpt>
      <trkpt lat="49.86967" lon="4.70795">
        <ele>225</ele>
        <time>2024-05-08T10:35:35Z</time>
      </trkpt>
      <trkpt lat="49.86966" lon="4.70795">
        <ele>226</ele>
        <time>2024-05-08T10:35:36Z</time>
      </trkpt>
      <trkpt lat="49.86965" lon="4.70795">
        <ele>226</ele>
        <time>2024-05-08T10:35:37Z</time>
      </trkpt>
      <trkpt lat="49.86964" lon="4.70795">
        <ele>226</ele>
        <time>2024-05-08T10:35:38Z</time>
      </trkpt>
      <trkpt lat="49.86962" lon="4.70796">
        <ele>227</ele>
        <time>2024-05-08T10:35:47Z</time>
      </trkpt>
      <trkpt lat="49.86961" lon="4.70796">
        <ele>227</ele>
        <time>2024-05-08T10:35:48Z</time>
      </trkpt>
      <trkpt lat="49.86959" lon="4.70797">
        <ele>227</ele>
        <time>2024-05-08T10:35:49Z</time>
      </trkpt>
      <trkpt lat="49.86959" lon="4.70797">
        <ele>227</ele>
        <time>2024-05-08T10:35:50Z</time>
      </trkpt>
      <trkpt lat="49.86958" lon="4.70797">
        <ele>228</ele>
        <time>2024-05-08T10:35:51Z</time>
      </trkpt>
      <trkpt lat="49.86957" lon="4.70798">
        <ele>228</ele>
        <time>2024-05-08T10:35:52Z</time>
      </trkpt>
      <trkpt lat="49.86956" lon="4.70798">
        <ele>228</ele>
        <time>2024-05-08T10:35:53Z</time>
      </trkpt>
      <trkpt lat="49.86955" lon="4.70798">
        <ele>228</ele>
        <time>2024-05-08T10:35:54Z</time>
      </trkpt>
      <trkpt lat="49.86953" lon="4.70799">
        <ele>228</ele>
        <time>2024-05-08T10:35:55Z</time>
      </trkpt>
      <trkpt lat="49.86952" lon="4.708">
        <ele>229</ele>
        <time>2024-05-08T10:35:56Z</time>
      </trkpt>
      <trkpt lat="49.86951" lon="4.708">
        <ele>229</ele>
        <time>2024-05-08T10:35:57Z</time>
      </trkpt>
      <trkpt lat="49.86951" lon="4.708">
        <ele>229</ele>
        <time>2024-05-08T10:35:58Z</time>
      </trkpt>
      <trkpt lat="49.86949" lon="4.70801">
        <ele>229</ele>
        <time>2024-05-08T10:35:59Z</time>
      </trkpt>
      <trkpt lat="49.86948" lon="4.70801">
        <ele>229</ele>
        <time>2024-05-08T10:36:00Z</time>
      </trkpt>
      <trkpt lat="49.86947" lon="4.70802">
        <ele>230</ele>
        <time>2024-05-08T10:36:01Z</time>
      </trkpt>
      <trkpt lat="49.86946" lon="4.70802">
        <ele>230</ele>
        <time>2024-05-08T10:36:02Z</time>
      </trkpt>
      <trkpt lat="49.86945" lon="4.70802">
        <ele>230</ele>
        <time>2024-05-08T10:36:03Z</time>
      </trkpt>
      <trkpt lat="49.86944" lon="4.70802">
        <ele>230</ele>
        <time>2024-05-08T10:36:04Z</time>
      </trkpt>
      <trkpt lat="49.86942" lon="4.708">
        <ele>232</ele>
        <time>2024-05-08T10:36:26Z</time>
      </trkpt>
      <trkpt lat="49.8694" lon="4.70799">
        <ele>232</ele>
        <time>2024-05-08T10:36:27Z</time>
      </trkpt>
      <trkpt lat="49.86939" lon="4.70798">
        <ele>232</ele>
        <time>2024-05-08T10:36:28Z</time>
      </trkpt>
      <trkpt lat="49.86938" lon="4.70798">
        <ele>232</ele>
        <time>2024-05-08T10:36:29Z</time>
      </trkpt>
      <trkpt lat="49.86937" lon="4.70798">
        <ele>232</ele>
        <time>2024-05-08T10:36:30Z</time>
      </trkpt>
      <trkpt lat="49.86936" lon="4.70798">
        <ele>233</ele>
        <time>2024-05-08T10:36:31Z</time>
      </trkpt>
      <trkpt lat="49.86935" lon="4.70798">
        <ele>233</ele>
        <time>2024-05-08T10:36:32Z</time>
      </trkpt>
      <trkpt lat="49.86934" lon="4.70798">
        <ele>233</ele>
        <time>2024-05-08T10:36:33Z</time>
      </trkpt>
      <trkpt lat="49.86933" lon="4.70798">
        <ele>233</ele>
        <time>2024-05-08T10:36:34Z</time>
      </trkpt>
      <trkpt lat="49.86932" lon="4.70798">
        <ele>233</ele>
        <time>2024-05-08T10:36:35Z</time>
      </trkpt>
      <trkpt lat="49.86931" lon="4.70798">
        <ele>234</ele>
        <time>2024-05-08T10:36:36Z</time>
      </trkpt>
      <trkpt lat="49.8693" lon="4.70799">
        <ele>234</ele>
        <time>2024-05-08T10:36:37Z</time>
      </trkpt>
      <trkpt lat="49.86928" lon="4.708">
        <ele>234</ele>
        <time>2024-05-08T10:36:38Z</time>
      </trkpt>
      <trkpt lat="49.86927" lon="4.70801">
        <ele>234</ele>
        <time>2024-05-08T10:36:39Z</time>
      </trkpt>
      <trkpt lat="49.86926" lon="4.70801">
        <ele>234</ele>
        <time>2024-05-08T10:36:40Z</time>
      </trkpt>
      <trkpt lat="49.86925" lon="4.70802">
        <ele>235</ele>
        <time>2024-05-08T10:36:41Z</time>
      </trkpt>
      <trkpt lat="49.86924" lon="4.70803">
        <ele>235</ele>
        <time>2024-05-08T10:36:42Z</time>
      </trkpt>
      <trkpt lat="49.86923" lon="4.70804">
        <ele>235</ele>
        <time>2024-05-08T10:36:43Z</time>
      </trkpt>
      <trkpt lat="49.86922" lon="4.70805">
        <ele>235</ele>
        <time>2024-05-08T10:36:44Z</time>
      </trkpt>
      <trkpt lat="49.86921" lon="4.70805">
        <ele>235</ele>
        <time>2024-05-08T10:36:45Z</time>
      </trkpt>
      <trkpt lat="49.8692" lon="4.70806">
        <ele>236</ele>
        <time>2024-05-08T10:36:46Z</time>
      </trkpt>
      <trkpt lat="49.8692" lon="4.70806">
        <ele>236</ele>
        <time>2024-05-08T10:36:47Z</time>
      </trkpt>
      <trkpt lat="49.86919" lon="4.70806">
        <ele>236</ele>
        <time>2024-05-08T10:36:48Z</time>
      </trkpt>
      <trkpt lat="49.86918" lon="4.70807">
        <ele>236</ele>
        <time>2024-05-08T10:36:49Z</time>
      </trkpt>
      <trkpt lat="49.86917" lon="4.70807">
        <ele>236</ele>
        <time>2024-05-08T10:36:50Z</time>
      </trkpt>
      <trkpt lat="49.86916" lon="4.70807">
        <ele>237</ele>
        <time>2024-05-08T10:36:51Z</time>
      </trkpt>
      <trkpt lat="49.86915" lon="4.70807">
        <ele>237</ele>
        <time>2024-05-08T10:36:52Z</time>
      </trkpt>
      <trkpt lat="49.86914" lon="4.70807">
        <ele>237</ele>
        <time>2024-05-08T10:36:53Z</time>
      </trkpt>
      <trkpt lat="49.86913" lon="4.70807">
        <ele>237</ele>
        <time>2024-05-08T10:36:54Z</time>
      </trkpt>
      <trkpt lat="49.86912" lon="4.70807">
        <ele>237</ele>
        <time>2024-05-08T10:36:55Z</time>
      </trkpt>
      <trkpt lat="49.86911" lon="4.70807">
        <ele>238</ele>
        <time>2024-05-08T10:36:56Z</time>
      </trkpt>
      <trkpt lat="49.8691" lon="4.70806">
        <ele>238</ele>
        <time>2024-05-08T10:36:57Z</time>
      </trkpt>
      <trkpt lat="49.86909" lon="4.70806">
        <ele>238</ele>
        <time>2024-05-08T10:36:58Z</time>
      </trkpt>
      <trkpt lat="49.86908" lon="4.70806">
        <ele>238</ele>
        <time>2024-05-08T10:36:59Z</time>
      </trkpt>
      <trkpt lat="49.86906" lon="4.70807">
        <ele>238</ele>
        <time>2024-05-08T10:37:00Z</time>
      </trkpt>
      <trkpt lat="49.86905" lon="4.70807">
        <ele>239</ele>
        <time>2024-05-08T10:37:01Z</time>
      </trkpt>
      <trkpt lat="49.86904" lon="4.70808">
        <ele>239</ele>
        <time>2024-05-08T10:37:02Z</time>
      </trkpt>
      <trkpt lat="49.86903" lon="4.70808">
        <ele>239</ele>
        <time>2024-05-08T10:37:03Z</time>
      </trkpt>
      <trkpt lat="49.86902" lon="4.70809">
        <ele>239</ele>
        <time>2024-05-08T10:37:04Z</time>
      </trkpt>
      <trkpt lat="49.86901" lon="4.70809">
        <ele>239</ele>
        <time>2024-05-08T10:37:05Z</time>
      </trkpt>
      <trkpt lat="49.869" lon="4.70809">
        <ele>240</ele>
        <time>2024-05-08T10:37:06Z</time>
      </trkpt>
      <trkpt lat="49.86899" lon="4.70809">
        <ele>240</ele>
        <time>2024-05-08T10:37:07Z</time>
      </trkpt>
      <trkpt lat="49.86899" lon="4.7081">
        <ele>240</ele>
        <time>2024-05-08T10:37:08Z</time>
      </trkpt>
      <trkpt lat="49.86898" lon="4.7081">
        <ele>240</ele>
        <time>2024-05-08T10:37:09Z</time>
      </trkpt>
      <trkpt lat="49.86898" lon="4.70811">
        <ele>240</ele>
        <time>2024-05-08T10:37:10Z</time>
      </trkpt>
      <trkpt lat="49.86898" lon="4.70812">
        <ele>241</ele>
        <time>2024-05-08T10:37:11Z</time>
      </trkpt>
      <trkpt lat="49.86898" lon="4.70812">
        <ele>241</ele>
        <time>2024-05-08T10:37:12Z</time>
      </trkpt>
      <trkpt lat="49.86897" lon="4.70813">
        <ele>241</ele>
        <time>2024-05-08T10:37:13Z</time>
      </trkpt>
      <trkpt lat="49.86897" lon="4.70814">
        <ele>241</ele>
        <time>2024-05-08T10:37:14Z</time>
      </trkpt>
      <trkpt lat="49.86896" lon="4.70814">
        <ele>241</ele>
        <time>2024-05-08T10:37:15Z</time>
      </trkpt>
      <trkpt lat="49.86895" lon="4.70814">
        <ele>241</ele>
        <time>2024-05-08T10:37:16Z</time>
      </trkpt>
      <trkpt lat="49.86895" lon="4.70814">
        <ele>241</ele>
        <time>2024-05-08T10:37:17Z</time>
      </trkpt>
      <trkpt lat="49.86894" lon="4.70814">
        <ele>241</ele>
        <time>2024-05-08T10:37:18Z</time>
      </trkpt>
      <trkpt lat="49.86893" lon="4.70813">
        <ele>241</ele>
        <time>2024-05-08T10:37:19Z</time>
      </trkpt>
      <trkpt lat="49.86892" lon="4.70813">
        <ele>241</ele>
        <time>2024-05-08T10:37:20Z</time>
      </trkpt>
      <trkpt lat="49.86892" lon="4.70813">
        <ele>242</ele>
        <time>2024-05-08T10:37:21Z</time>
      </trkpt>
      <trkpt lat="49.86892" lon="4.70813">
        <ele>242</ele>
        <time>2024-05-08T10:37:22Z</time>
      </trkpt>
      <trkpt lat="49.86891" lon="4.70813">
        <ele>242</ele>
        <time>2024-05-08T10:37:23Z</time>
      </trkpt>
      <trkpt lat="49.86891" lon="4.70813">
        <ele>242</ele>
        <time>2024-05-08T10:37:24Z</time>
      </trkpt>
      <trkpt lat="49.86891" lon="4.70813">
        <ele>242</ele>
        <time>2024-05-08T10:37:25Z</time>
      </trkpt>
      <trkpt lat="49.8689" lon="4.70813">
        <ele>243</ele>
        <time>2024-05-08T10:37:26Z</time>
      </trkpt>
      <trkpt lat="49.86889" lon="4.70814">
        <ele>243</ele>
        <time>2024-05-08T10:37:27Z</time>
      </trkpt>
      <trkpt lat="49.86889" lon="4.70814">
        <ele>243</ele>
        <time>2024-05-08T10:37:28Z</time>
      </trkpt>
      <trkpt lat="49.86888" lon="4.70815">
        <ele>243</ele>
        <time>2024-05-08T10:37:29Z</time>
      </trkpt>
      <trkpt lat="49.86887" lon="4.70815">
        <ele>243</ele>
        <time>2024-05-08T10:37:30Z</time>
      </trkpt>
      <trkpt lat="49.86887" lon="4.70815">
        <ele>243</ele>
        <time>2024-05-08T10:37:31Z</time>
      </trkpt>
      <trkpt lat="49.86886" lon="4.70816">
        <ele>243</ele>
        <time>2024-05-08T10:37:32Z</time>
      </trkpt>
      <trkpt lat="49.86885" lon="4.70816">
        <ele>243</ele>
        <time>2024-05-08T10:37:33Z</time>
      </trkpt>
      <trkpt lat="49.86884" lon="4.70817">
        <ele>243</ele>
        <time>2024-05-08T10:37:34Z</time>
      </trkpt>
      <trkpt lat="49.86883" lon="4.70818">
        <ele>243</ele>
        <time>2024-05-08T10:37:35Z</time>
      </trkpt>
      <trkpt lat="49.86882" lon="4.70819">
        <ele>244</ele>
        <time>2024-05-08T10:37:36Z</time>
      </trkpt>
      <trkpt lat="49.86881" lon="4.70819">
        <ele>244</ele>
        <time>2024-05-08T10:37:37Z</time>
      </trkpt>
      <trkpt lat="49.8688" lon="4.70819">
        <ele>244</ele>
        <time>2024-05-08T10:37:38Z</time>
      </trkpt>
      <trkpt lat="49.8688" lon="4.7082">
        <ele>244</ele>
        <time>2024-05-08T10:37:39Z</time>
      </trkpt>
      <trkpt lat="49.86879" lon="4.7082">
        <ele>244</ele>
        <time>2024-05-08T10:37:40Z</time>
      </trkpt>
      <trkpt lat="49.86878" lon="4.7082">
        <ele>244</ele>
        <time>2024-05-08T10:37:41Z</time>
      </trkpt>
      <trkpt lat="49.86878" lon="4.70821">
        <ele>244</ele>
        <time>2024-05-08T10:37:42Z</time>
      </trkpt>
      <trkpt lat="49.86877" lon="4.70822">
        <ele>244</ele>
        <time>2024-05-08T10:37:43Z</time>
      </trkpt>
      <trkpt lat="49.86877" lon="4.70823">
        <ele>244</ele>
        <time>2024-05-08T10:37:44Z</time>
      </trkpt>
      <trkpt lat="49.86876" lon="4.70824">
        <ele>244</ele>
        <time>2024-05-08T10:37:45Z</time>
      </trkpt>
      <trkpt lat="49.86876" lon="4.70825">
        <ele>245</ele>
        <time>2024-05-08T10:37:46Z</time>
      </trkpt>
      <trkpt lat="49.86876" lon="4.70826">
        <ele>245</ele>
        <time>2024-05-08T10:37:47Z</time>
      </trkpt>
      <trkpt lat="49.86876" lon="4.70827">
        <ele>245</ele>
        <time>2024-05-08T10:37:48Z</time>
      </trkpt>
      <trkpt lat="49.86875" lon="4.70828">
        <ele>245</ele>
        <time>2024-05-08T10:37:49Z</time>
      </trkpt>
      <trkpt lat="49.86874" lon="4.70829">
        <ele>245</ele>
        <time>2024-05-08T10:37:50Z</time>
      </trkpt>
      <trkpt lat="49.86874" lon="4.7083">
        <ele>246</ele>
        <time>2024-05-08T10:37:51Z</time>
      </trkpt>
      <trkpt lat="49.86872" lon="4.70831">
        <ele>246</ele>
        <time>2024-05-08T10:37:52Z</time>
      </trkpt>
      <trkpt lat="49.86871" lon="4.70832">
        <ele>246</ele>
        <time>2024-05-08T10:37:53Z</time>
      </trkpt>
      <trkpt lat="49.86869" lon="4.70833">
        <ele>246</ele>
        <time>2024-05-08T10:37:54Z</time>
      </trkpt>
      <trkpt lat="49.86867" lon="4.70835">
        <ele>246</ele>
        <time>2024-05-08T10:37:55Z</time>
      </trkpt>
      <trkpt lat="49.86866" lon="4.70836">
        <ele>247</ele>
        <time>2024-05-08T10:37:56Z</time>
      </trkpt>
      <trkpt lat="49.86864" lon="4.70837">
        <ele>247</ele>
        <time>2024-05-08T10:37:57Z</time>
      </trkpt>
      <trkpt lat="49.86863" lon="4.70839">
        <ele>247</ele>
        <time>2024-05-08T10:37:58Z</time>
      </trkpt>
      <trkpt lat="49.86862" lon="4.7084">
        <ele>247</ele>
        <time>2024-05-08T10:37:59Z</time>
      </trkpt>
      <trkpt lat="49.86861" lon="4.70841">
        <ele>247</ele>
        <time>2024-05-08T10:38:00Z</time>
      </trkpt>
      <trkpt lat="49.86861" lon="4.70841">
        <ele>247</ele>
        <time>2024-05-08T10:38:01Z</time>
      </trkpt>
      <trkpt lat="49.8686" lon="4.70842">
        <ele>247</ele>
        <time>2024-05-08T10:38:02Z</time>
      </trkpt>
      <trkpt lat="49.8686" lon="4.70843">
        <ele>247</ele>
        <time>2024-05-08T10:38:03Z</time>
      </trkpt>
      <trkpt lat="49.86859" lon="4.70843">
        <ele>247</ele>
        <time>2024-05-08T10:38:04Z</time>
      </trkpt>
      <trkpt lat="49.86859" lon="4.70844">
        <ele>247</ele>
        <time>2024-05-08T10:38:05Z</time>
      </trkpt>
      <trkpt lat="49.86858" lon="4.70845">
        <ele>248</ele>
        <time>2024-05-08T10:38:06Z</time>
      </trkpt>
      <trkpt lat="49.86858" lon="4.70846">
        <ele>248</ele>
        <time>2024-05-08T10:38:07Z</time>
      </trkpt>
      <trkpt lat="49.86857" lon="4.70847">
        <ele>248</ele>
        <time>2024-05-08T10:38:08Z</time>
      </trkpt>
      <trkpt lat="49.86856" lon="4.70848">
        <ele>248</ele>
        <time>2024-05-08T10:38:09Z</time>
      </trkpt>
      <trkpt lat="49.86854" lon="4.7085">
        <ele>248</ele>
        <time>2024-05-08T10:38:22Z</time>
      </trkpt>
      <trkpt lat="49.86854" lon="4.70851">
        <ele>248</ele>
        <time>2024-05-08T10:38:23Z</time>
      </trkpt>
      <trkpt lat="49.86854" lon="4.70852">
        <ele>248</ele>
        <time>2024-05-08T10:38:24Z</time>
      </trkpt>
      <trkpt lat="49.86853" lon="4.70852">
        <ele>248</ele>
        <time>2024-05-08T10:38:25Z</time>
      </trkpt>
      <trkpt lat="49.86852" lon="4.70853">
        <ele>249</ele>
        <time>2024-05-08T10:38:26Z</time>
      </trkpt>
      <trkpt lat="49.86852" lon="4.70854">
        <ele>249</ele>
        <time>2024-05-08T10:38:27Z</time>
      </trkpt>
      <trkpt lat="49.86851" lon="4.70854">
        <ele>249</ele>
        <time>2024-05-08T10:38:28Z</time>
      </trkpt>
      <trkpt lat="49.8685" lon="4.70855">
        <ele>249</ele>
        <time>2024-05-08T10:38:29Z</time>
      </trkpt>
      <trkpt lat="49.86849" lon="4.70856">
        <ele>249</ele>
        <time>2024-05-08T10:38:30Z</time>
      </trkpt>
      <trkpt lat="49.86848" lon="4.70857">
        <ele>249</ele>
        <time>2024-05-08T10:38:31Z</time>
      </trkpt>
      <trkpt lat="49.86848" lon="4.70858">
        <ele>249</ele>
        <time>2024-05-08T10:38:32Z</time>
      </trkpt>
      <trkpt lat="49.86847" lon="4.70859">
        <ele>249</ele>
        <time>2024-05-08T10:38:33Z</time>
      </trkpt>
      <trkpt lat="49.86846" lon="4.70859">
        <ele>249</ele>
        <time>2024-05-08T10:38:34Z</time>
      </trkpt>
      <trkpt lat="49.86845" lon="4.7086">
        <ele>249</ele>
        <time>2024-05-08T10:38:35Z</time>
      </trkpt>
      <trkpt lat="49.86844" lon="4.70861">
        <ele>250</ele>
        <time>2024-05-08T10:38:36Z</time>
      </trkpt>
      <trkpt lat="49.86844" lon="4.70861">
        <ele>250</ele>
        <time>2024-05-08T10:38:37Z</time>
      </trkpt>
      <trkpt lat="49.86843" lon="4.70862">
        <ele>250</ele>
        <time>2024-05-08T10:38:38Z</time>
      </trkpt>
      <trkpt lat="49.86842" lon="4.70863">
        <ele>250</ele>
        <time>2024-05-08T10:38:39Z</time>
      </trkpt>
      <trkpt lat="49.86842" lon="4.70864">
        <ele>250</ele>
        <time>2024-05-08T10:38:40Z</time>
      </trkpt>
      <trkpt lat="49.86841" lon="4.70865">
        <ele>251</ele>
        <time>2024-05-08T10:38:41Z</time>
      </trkpt>
      <trkpt lat="49.86841" lon="4.70866">
        <ele>251</ele>
        <time>2024-05-08T10:38:42Z</time>
      </trkpt>
      <trkpt lat="49.86841" lon="4.70867">
        <ele>251</ele>
        <time>2024-05-08T10:38:43Z</time>
      </trkpt>
      <trkpt lat="49.8684" lon="4.70868">
        <ele>251</ele>
        <time>2024-05-08T10:38:44Z</time>
      </trkpt>
      <trkpt lat="49.86839" lon="4.70869">
        <ele>251</ele>
        <time>2024-05-08T10:38:45Z</time>
      </trkpt>
      <trkpt lat="49.86838" lon="4.7087">
        <ele>251</ele>
        <time>2024-05-08T10:38:46Z</time>
      </trkpt>
      <trkpt lat="49.86837" lon="4.7087">
        <ele>251</ele>
        <time>2024-05-08T10:38:47Z</time>
      </trkpt>
      <trkpt lat="49.86836" lon="4.70871">
        <ele>251</ele>
        <time>2024-05-08T10:38:48Z</time>
      </trkpt>
      <trkpt lat="49.86835" lon="4.70871">
        <ele>251</ele>
        <time>2024-05-08T10:38:49Z</time>
      </trkpt>
      <trkpt lat="49.86834" lon="4.70872">
        <ele>251</ele>
        <time>2024-05-08T10:38:50Z</time>
      </trkpt>
      <trkpt lat="49.86833" lon="4.70872">
        <ele>251</ele>
        <time>2024-05-08T10:38:51Z</time>
      </trkpt>
      <trkpt lat="49.86832" lon="4.70873">
        <ele>251</ele>
        <time>2024-05-08T10:38:52Z</time>
      </trkpt>
      <trkpt lat="49.86831" lon="4.70873">
        <ele>251</ele>
        <time>2024-05-08T10:38:53Z</time>
      </trkpt>
      <trkpt lat="49.8683" lon="4.70873">
        <ele>251</ele>
        <time>2024-05-08T10:38:54Z</time>
      </trkpt>
      <trkpt lat="49.86829" lon="4.70874">
        <ele>251</ele>
        <time>2024-05-08T10:38:55Z</time>
      </trkpt>
      <trkpt lat="49.86828" lon="4.70875">
        <ele>252</ele>
        <time>2024-05-08T10:38:56Z</time>
      </trkpt>
      <trkpt lat="49.86827" lon="4.70875">
        <ele>252</ele>
        <time>2024-05-08T10:38:57Z</time>
      </trkpt>
      <trkpt lat="49.86825" lon="4.70876">
        <ele>252</ele>
        <time>2024-05-08T10:38:58Z</time>
      </trkpt>
      <trkpt lat="49.86824" lon="4.70876">
        <ele>252</ele>
        <time>2024-05-08T10:38:59Z</time>
      </trkpt>
      <trkpt lat="49.86823" lon="4.70876">
        <ele>252</ele>
        <time>2024-05-08T10:39:00Z</time>
      </trkpt>
      <trkpt lat="49.86822" lon="4.70877">
        <ele>252</ele>
        <time>2024-05-08T10:39:01Z</time>
      </trkpt>
      <trkpt lat="49.86821" lon="4.70877">
        <ele>252</ele>
        <time>2024-05-08T10:39:02Z</time>
      </trkpt>
      <trkpt lat="49.8682" lon="4.70878">
        <ele>252</ele>
        <time>2024-05-08T10:39:03Z</time>
      </trkpt>
      <trkpt lat="49.86819" lon="4.70879">
        <ele>252</ele>
        <time>2024-05-08T10:39:04Z</time>
      </trkpt>
      <trkpt lat="49.86818" lon="4.7088">
        <ele>252</ele>
        <time>2024-05-08T10:39:05Z</time>
      </trkpt>
      <trkpt lat="49.86818" lon="4.70881">
        <ele>253</ele>
        <time>2024-05-08T10:39:06Z</time>
      </trkpt>
      <trkpt lat="49.86817" lon="4.70882">
        <ele>253</ele>
        <time>2024-05-08T10:39:07Z</time>
      </trkpt>
      <trkpt lat="49.86816" lon="4.70884">
        <ele>253</ele>
        <time>2024-05-08T10:39:08Z</time>
      </trkpt>
      <trkpt lat="49.86814" lon="4.70886">
        <ele>253</ele>
        <time>2024-05-08T10:39:09Z</time>
      </trkpt>
      <trkpt lat="49.86812" lon="4.70887">
        <ele>253</ele>
        <time>2024-05-08T10:39:10Z</time>
      </trkpt>
      <trkpt lat="49.86811" lon="4.70889">
        <ele>253</ele>
        <time>2024-05-08T10:39:11Z</time>
      </trkpt>
      <trkpt lat="49.8681" lon="4.7089">
        <ele>253</ele>
        <time>2024-05-08T10:39:12Z</time>
      </trkpt>
      <trkpt lat="49.86809" lon="4.70891">
        <ele>253</ele>
        <time>2024-05-08T10:39:13Z</time>
      </trkpt>
      <trkpt lat="49.86808" lon="4.70892">
        <ele>253</ele>
        <time>2024-05-08T10:39:14Z</time>
      </trkpt>
      <trkpt lat="49.86808" lon="4.70893">
        <ele>253</ele>
        <time>2024-05-08T10:39:15Z</time>
      </trkpt>
      <trkpt lat="49.86807" lon="4.70893">
        <ele>254</ele>
        <time>2024-05-08T10:39:16Z</time>
      </trkpt>
      <trkpt lat="49.86806" lon="4.70894">
        <ele>254</ele>
        <time>2024-05-08T10:39:17Z</time>
      </trkpt>
      <trkpt lat="49.86805" lon="4.70895">
        <ele>254</ele>
        <time>2024-05-08T10:39:18Z</time>
      </trkpt>
      <trkpt lat="49.86804" lon="4.70895">
        <ele>254</ele>
        <time>2024-05-08T10:39:19Z</time>
      </trkpt>
      <trkpt lat="49.86804" lon="4.70896">
        <ele>254</ele>
        <time>2024-05-08T10:39:20Z</time>
      </trkpt>
      <trkpt lat="49.86803" lon="4.70897">
        <ele>255</ele>
        <time>2024-05-08T10:39:21Z</time>
      </trkpt>
      <trkpt lat="49.86803" lon="4.70898">
        <ele>255</ele>
        <time>2024-05-08T10:39:22Z</time>
      </trkpt>
      <trkpt lat="49.86802" lon="4.70899">
        <ele>255</ele>
        <time>2024-05-08T10:39:23Z</time>
      </trkpt>
      <trkpt lat="49.86801" lon="4.70901">
        <ele>255</ele>
        <time>2024-05-08T10:39:24Z</time>
      </trkpt>
      <trkpt lat="49.86801" lon="4.70901">
        <ele>255</ele>
        <time>2024-05-08T10:39:25Z</time>
      </trkpt>
      <trkpt lat="49.868" lon="4.70901">
        <ele>255</ele>
        <time>2024-05-08T10:39:26Z</time>
      </trkpt>
      <trkpt lat="49.868" lon="4.70902">
        <ele>255</ele>
        <time>2024-05-08T10:39:27Z</time>
      </trkpt>
      <trkpt lat="49.86799" lon="4.70902">
        <ele>255</ele>
        <time>2024-05-08T10:39:28Z</time>
      </trkpt>
      <trkpt lat="49.86798" lon="4.70902">
        <ele>255</ele>
        <time>2024-05-08T10:39:29Z</time>
      </trkpt>
      <trkpt lat="49.86797" lon="4.70903">
        <ele>255</ele>
        <time>2024-05-08T10:39:30Z</time>
      </trkpt>
      <trkpt lat="49.86796" lon="4.70903">
        <ele>255</ele>
        <time>2024-05-08T10:39:31Z</time>
      </trkpt>
      <trkpt lat="49.86795" lon="4.70903">
        <ele>255</ele>
        <time>2024-05-08T10:39:32Z</time>
      </trkpt>
      <trkpt lat="49.86794" lon="4.70904">
        <ele>255</ele>
        <time>2024-05-08T10:39:33Z</time>
      </trkpt>
      <trkpt lat="49.86792" lon="4.70904">
        <ele>255</ele>
        <time>2024-05-08T10:39:34Z</time>
      </trkpt>
      <trkpt lat="49.86791" lon="4.70904">
        <ele>255</ele>
        <time>2024-05-08T10:39:35Z</time>
      </trkpt>
      <trkpt lat="49.86789" lon="4.70904">
        <ele>256</ele>
        <time>2024-05-08T10:39:36Z</time>
      </trkpt>
      <trkpt lat="49.86788" lon="4.70904">
        <ele>256</ele>
        <time>2024-05-08T10:39:37Z</time>
      </trkpt>
      <trkpt lat="49.86786" lon="4.70904">
        <ele>256</ele>
        <time>2024-05-08T10:39:38Z</time>
      </trkpt>
      <trkpt lat="49.86785" lon="4.70904">
        <ele>256</ele>
        <time>2024-05-08T10:39:39Z</time>
      </trkpt>
      <trkpt lat="49.86784" lon="4.70904">
        <ele>256</ele>
        <time>2024-05-08T10:39:40Z</time>
      </trkpt>
      <trkpt lat="49.86783" lon="4.70905">
        <ele>257</ele>
        <time>2024-05-08T10:39:41Z</time>
      </trkpt>
      <trkpt lat="49.86782" lon="4.70905">
        <ele>257</ele>
        <time>2024-05-08T10:39:42Z</time>
      </trkpt>
      <trkpt lat="49.86781" lon="4.70905">
        <ele>257</ele>
        <time>2024-05-08T10:39:43Z</time>
      </trkpt>
      <trkpt lat="49.8678" lon="4.70905">
        <ele>257</ele>
        <time>2024-05-08T10:39:44Z</time>
      </trkpt>
      <trkpt lat="49.86779" lon="4.70905">
        <ele>257</ele>
        <time>2024-05-08T10:39:45Z</time>
      </trkpt>
      <trkpt lat="49.86779" lon="4.70906">
        <ele>257</ele>
        <time>2024-05-08T10:39:46Z</time>
      </trkpt>
      <trkpt lat="49.86778" lon="4.70906">
        <ele>257</ele>
        <time>2024-05-08T10:39:47Z</time>
      </trkpt>
      <trkpt lat="49.86778" lon="4.70907">
        <ele>257</ele>
        <time>2024-05-08T10:39:48Z</time>
      </trkpt>
      <trkpt lat="49.86777" lon="4.70908">
        <ele>257</ele>
        <time>2024-05-08T10:39:49Z</time>
      </trkpt>
      <trkpt lat="49.86776" lon="4.70908">
        <ele>257</ele>
        <time>2024-05-08T10:39:50Z</time>
      </trkpt>
      <trkpt lat="49.86775" lon="4.70909">
        <ele>258</ele>
        <time>2024-05-08T10:39:51Z</time>
      </trkpt>
      <trkpt lat="49.86774" lon="4.7091">
        <ele>258</ele>
        <time>2024-05-08T10:39:52Z</time>
      </trkpt>
      <trkpt lat="49.86774" lon="4.70911">
        <ele>258</ele>
        <time>2024-05-08T10:39:53Z</time>
      </trkpt>
      <trkpt lat="49.86773" lon="4.70911">
        <ele>258</ele>
        <time>2024-05-08T10:39:54Z</time>
      </trkpt>
      <trkpt lat="49.86772" lon="4.70912">
        <ele>258</ele>
        <time>2024-05-08T10:39:55Z</time>
      </trkpt>
      <trkpt lat="49.86772" lon="4.70912">
        <ele>258</ele>
        <time>2024-05-08T10:39:56Z</time>
      </trkpt>
      <trkpt lat="49.86771" lon="4.70913">
        <ele>258</ele>
        <time>2024-05-08T10:39:57Z</time>
      </trkpt>
      <trkpt lat="49.8677" lon="4.70913">
        <ele>258</ele>
        <time>2024-05-08T10:39:58Z</time>
      </trkpt>
      <trkpt lat="49.86769" lon="4.70914">
        <ele>258</ele>
        <time>2024-05-08T10:39:59Z</time>
      </trkpt>
      <trkpt lat="49.86768" lon="4.70915">
        <ele>258</ele>
        <time>2024-05-08T10:40:00Z</time>
      </trkpt>
      <trkpt lat="49.86767" lon="4.70915">
        <ele>259</ele>
        <time>2024-05-08T10:40:01Z</time>
      </trkpt>
      <trkpt lat="49.86765" lon="4.70916">
        <ele>259</ele>
        <time>2024-05-08T10:40:02Z</time>
      </trkpt>
      <trkpt lat="49.86764" lon="4.70917">
        <ele>259</ele>
        <time>2024-05-08T10:40:03Z</time>
      </trkpt>
      <trkpt lat="49.86763" lon="4.70918">
        <ele>259</ele>
        <time>2024-05-08T10:40:04Z</time>
      </trkpt>
      <trkpt lat="49.86762" lon="4.70919">
        <ele>259</ele>
        <time>2024-05-08T10:40:05Z</time>
      </trkpt>
      <trkpt lat="49.86761" lon="4.7092">
        <ele>259</ele>
        <time>2024-05-08T10:40:06Z</time>
      </trkpt>
      <trkpt lat="49.8676" lon="4.70921">
        <ele>259</ele>
        <time>2024-05-08T10:40:07Z</time>
      </trkpt>
      <trkpt lat="49.8676" lon="4.70922">
        <ele>259</ele>
        <time>2024-05-08T10:40:08Z</time>
      </trkpt>
      <trkpt lat="49.86759" lon="4.70924">
        <ele>259</ele>
        <time>2024-05-08T10:40:09Z</time>
      </trkpt>
      <trkpt lat="49.86759" lon="4.70925">
        <ele>259</ele>
        <time>2024-05-08T10:40:10Z</time>
      </trkpt>
      <trkpt lat="49.86758" lon="4.70925">
        <ele>259</ele>
        <time>2024-05-08T10:40:11Z</time>
      </trkpt>
      <trkpt lat="49.86757" lon="4.70926">
        <ele>259</ele>
        <time>2024-05-08T10:40:12Z</time>
      </trkpt>
      <trkpt lat="49.86756" lon="4.70927">
        <ele>259</ele>
        <time>2024-05-08T10:40:13Z</time>
      </trkpt>
      <trkpt lat="49.86755" lon="4.70928">
        <ele>259</ele>
        <time>2024-05-08T10:40:14Z</time>
      </trkpt>
      <trkpt lat="49.86753" lon="4.70929">
        <ele>259</ele>
        <time>2024-05-08T10:40:15Z</time>
      </trkpt>
      <trkpt lat="49.86752" lon="4.7093">
        <ele>260</ele>
        <time>2024-05-08T10:40:16Z</time>
      </trkpt>
      <trkpt lat="49.86751" lon="4.70931">
        <ele>260</ele>
        <time>2024-05-08T10:40:17Z</time>
      </trkpt>
      <trkpt lat="49.86749" lon="4.70931">
        <ele>260</ele>
        <time>2024-05-08T10:40:18Z</time>
      </trkpt>
      <trkpt lat="49.86748" lon="4.70931">
        <ele>260</ele>
        <time>2024-05-08T10:40:19Z</time>
      </trkpt>
      <trkpt lat="49.86747" lon="4.70931">
        <ele>260</ele>
        <time>2024-05-08T10:40:20Z</time>
      </trkpt>
      <trkpt lat="49.86745" lon="4.70931">
        <ele>260</ele>
        <time>2024-05-08T10:40:21Z</time>
      </trkpt>
      <trkpt lat="49.86744" lon="4.70931">
        <ele>260</ele>
        <time>2024-05-08T10:40:22Z</time>
      </trkpt>
      <trkpt lat="49.86742" lon="4.70931">
        <ele>260</ele>
        <time>2024-05-08T10:40:23Z</time>
      </trkpt>
      <trkpt lat="49.86742" lon="4.70932">
        <ele>260</ele>
        <time>2024-05-08T10:40:24Z</time>
      </trkpt>
      <trkpt lat="49.86741" lon="4.70932">
        <ele>260</ele>
        <time>2024-05-08T10:40:25Z</time>
      </trkpt>
      <trkpt lat="49.86741" lon="4.70933">
        <ele>261</ele>
        <time>2024-05-08T10:40:26Z</time>
      </trkpt>
      <trkpt lat="49.86741" lon="4.70933">
        <ele>261</ele>
        <time>2024-05-08T10:40:27Z</time>
      </trkpt>
      <trkpt lat="49.8674" lon="4.70934">
        <ele>261</ele>
        <time>2024-05-08T10:40:28Z</time>
      </trkpt>
      <trkpt lat="49.8674" lon="4.70934">
        <ele>261</ele>
        <time>2024-05-08T10:40:29Z</time>
      </trkpt>
      <trkpt lat="49.8674" lon="4.70935">
        <ele>261</ele>
        <time>2024-05-08T10:40:30Z</time>
      </trkpt>
      <trkpt lat="49.8674" lon="4.70936">
        <ele>261</ele>
        <time>2024-05-08T10:40:31Z</time>
      </trkpt>
      <trkpt lat="49.86739" lon="4.70937">
        <ele>261</ele>
        <time>2024-05-08T10:40:32Z</time>
      </trkpt>
      <trkpt lat="49.86739" lon="4.70938">
        <ele>261</ele>
        <time>2024-05-08T10:40:33Z</time>
      </trkpt>
      <trkpt lat="49.86738" lon="4.70939">
        <ele>261</ele>
        <time>2024-05-08T10:40:34Z</time>
      </trkpt>
      <trkpt lat="49.86736" lon="4.7094">
        <ele>261</ele>
        <time>2024-05-08T10:40:35Z</time>
      </trkpt>
      <trkpt lat="49.86735" lon="4.7094">
        <ele>261</ele>
        <time>2024-05-08T10:40:36Z</time>
      </trkpt>
      <trkpt lat="49.86733" lon="4.70941">
        <ele>261</ele>
        <time>2024-05-08T10:40:37Z</time>
      </trkpt>
      <trkpt lat="49.86732" lon="4.70941">
        <ele>261</ele>
        <time>2024-05-08T10:40:38Z</time>
      </trkpt>
      <trkpt lat="49.86731" lon="4.70941">
        <ele>261</ele>
        <time>2024-05-08T10:40:39Z</time>
      </trkpt>
      <trkpt lat="49.8673" lon="4.70941">
        <ele>261</ele>
        <time>2024-05-08T10:40:40Z</time>
      </trkpt>
      <trkpt lat="49.86729" lon="4.7094">
        <ele>262</ele>
        <time>2024-05-08T10:40:41Z</time>
      </trkpt>
      <trkpt lat="49.86728" lon="4.70939">
        <ele>262</ele>
        <time>2024-05-08T10:40:42Z</time>
      </trkpt>
      <trkpt lat="49.86727" lon="4.70938">
        <ele>262</ele>
        <time>2024-05-08T10:40:43Z</time>
      </trkpt>
      <trkpt lat="49.86726" lon="4.70937">
        <ele>262</ele>
        <time>2024-05-08T10:40:44Z</time>
      </trkpt>
      <trkpt lat="49.86725" lon="4.70936">
        <ele>262</ele>
        <time>2024-05-08T10:40:45Z</time>
      </trkpt>
      <trkpt lat="49.86724" lon="4.70935">
        <ele>263</ele>
        <time>2024-05-08T10:40:46Z</time>
      </trkpt>
      <trkpt lat="49.86723" lon="4.70934">
        <ele>263</ele>
        <time>2024-05-08T10:40:47Z</time>
      </trkpt>
      <trkpt lat="49.86722" lon="4.70933">
        <ele>264</ele>
        <time>2024-05-08T10:41:15Z</time>
      </trkpt>
      <trkpt lat="49.86722" lon="4.70933">
        <ele>264</ele>
        <time>2024-05-08T10:41:16Z</time>
      </trkpt>
      <trkpt lat="49.86722" lon="4.70933">
        <ele>264</ele>
        <time>2024-05-08T10:41:17Z</time>
      </trkpt>
      <trkpt lat="49.86721" lon="4.70933">
        <ele>264</ele>
        <time>2024-05-08T10:41:18Z</time>
      </trkpt>
      <trkpt lat="49.86721" lon="4.70934">
        <ele>264</ele>
        <time>2024-05-08T10:41:19Z</time>
      </trkpt>
      <trkpt lat="49.8672" lon="4.70934">
        <ele>264</ele>
        <time>2024-05-08T10:41:20Z</time>
      </trkpt>
      <trkpt lat="49.8672" lon="4.70934">
        <ele>264</ele>
        <time>2024-05-08T10:41:21Z</time>
      </trkpt>
      <trkpt lat="49.86719" lon="4.70934">
        <ele>264</ele>
        <time>2024-05-08T10:41:22Z</time>
      </trkpt>
      <trkpt lat="49.86718" lon="4.70934">
        <ele>264</ele>
        <time>2024-05-08T10:41:23Z</time>
      </trkpt>
      <trkpt lat="49.86718" lon="4.70935">
        <ele>264</ele>
        <time>2024-05-08T10:41:24Z</time>
      </trkpt>
      <trkpt lat="49.86717" lon="4.70935">
        <ele>264</ele>
        <time>2024-05-08T10:41:25Z</time>
      </trkpt>
      <trkpt lat="49.86716" lon="4.70936">
        <ele>265</ele>
        <time>2024-05-08T10:41:26Z</time>
      </trkpt>
      <trkpt lat="49.86716" lon="4.70936">
        <ele>265</ele>
        <time>2024-05-08T10:41:27Z</time>
      </trkpt>
      <trkpt lat="49.86715" lon="4.70937">
        <ele>265</ele>
        <time>2024-05-08T10:41:28Z</time>
      </trkpt>
      <trkpt lat="49.86714" lon="4.70937">
        <ele>265</ele>
        <time>2024-05-08T10:41:29Z</time>
      </trkpt>
      <trkpt lat="49.86714" lon="4.70938">
        <ele>265</ele>
        <time>2024-05-08T10:41:30Z</time>
      </trkpt>
      <trkpt lat="49.86713" lon="4.70939">
        <ele>265</ele>
        <time>2024-05-08T10:41:31Z</time>
      </trkpt>
      <trkpt lat="49.86713" lon="4.7094">
        <ele>265</ele>
        <time>2024-05-08T10:41:32Z</time>
      </trkpt>
      <trkpt lat="49.86712" lon="4.7094">
        <ele>265</ele>
        <time>2024-05-08T10:41:33Z</time>
      </trkpt>
      <trkpt lat="49.86711" lon="4.70941">
        <ele>265</ele>
        <time>2024-05-08T10:41:34Z</time>
      </trkpt>
      <trkpt lat="49.86711" lon="4.70941">
        <ele>265</ele>
        <time>2024-05-08T10:41:35Z</time>
      </trkpt>
      <trkpt lat="49.8671" lon="4.70942">
        <ele>265</ele>
        <time>2024-05-08T10:41:36Z</time>
      </trkpt>
      <trkpt lat="49.86709" lon="4.70943">
        <ele>265</ele>
        <time>2024-05-08T10:41:37Z</time>
      </trkpt>
      <trkpt lat="49.86708" lon="4.70944">
        <ele>265</ele>
        <time>2024-05-08T10:41:38Z</time>
      </trkpt>
      <trkpt lat="49.86707" lon="4.70945">
        <ele>265</ele>
        <time>2024-05-08T10:41:39Z</time>
      </trkpt>
      <trkpt lat="49.86707" lon="4.70946">
        <ele>265</ele>
        <time>2024-05-08T10:41:40Z</time>
      </trkpt>
      <trkpt lat="49.86707" lon="4.70947">
        <ele>265</ele>
        <time>2024-05-08T10:41:41Z</time>
      </trkpt>
      <trkpt lat="49.86706" lon="4.70949">
        <ele>265</ele>
        <time>2024-05-08T10:41:42Z</time>
      </trkpt>
      <trkpt lat="49.86706" lon="4.7095">
        <ele>265</ele>
        <time>2024-05-08T10:41:43Z</time>
      </trkpt>
      <trkpt lat="49.86706" lon="4.70952">
        <ele>265</ele>
        <time>2024-05-08T10:41:44Z</time>
      </trkpt>
      <trkpt lat="49.86705" lon="4.70953">
        <ele>265</ele>
        <time>2024-05-08T10:41:45Z</time>
      </trkpt>
      <trkpt lat="49.86704" lon="4.70955">
        <ele>265</ele>
        <time>2024-05-08T10:41:46Z</time>
      </trkpt>
      <trkpt lat="49.86703" lon="4.70956">
        <ele>265</ele>
        <time>2024-05-08T10:41:47Z</time>
      </trkpt>
      <trkpt lat="49.86702" lon="4.70957">
        <ele>265</ele>
        <time>2024-05-08T10:41:48Z</time>
      </trkpt>
      <trkpt lat="49.86701" lon="4.70958">
        <ele>265</ele>
        <time>2024-05-08T10:41:49Z</time>
      </trkpt>
      <trkpt lat="49.867" lon="4.70959">
        <ele>265</ele>
        <time>2024-05-08T10:41:50Z</time>
      </trkpt>
      <trkpt lat="49.86699" lon="4.7096">
        <ele>265</ele>
        <time>2024-05-08T10:41:51Z</time>
      </trkpt>
      <trkpt lat="49.86699" lon="4.7096">
        <ele>265</ele>
        <time>2024-05-08T10:41:52Z</time>
      </trkpt>
      <trkpt lat="49.86698" lon="4.70961">
        <ele>265</ele>
        <time>2024-05-08T10:41:53Z</time>
      </trkpt>
      <trkpt lat="49.86694" lon="4.70963">
        <ele>266</ele>
        <time>2024-05-08T10:42:05Z</time>
      </trkpt>
      <trkpt lat="49.86693" lon="4.70965">
        <ele>266</ele>
        <time>2024-05-08T10:42:06Z</time>
      </trkpt>
      <trkpt lat="49.86692" lon="4.70966">
        <ele>266</ele>
        <time>2024-05-08T10:42:07Z</time>
      </trkpt>
      <trkpt lat="49.8669" lon="4.70968">
        <ele>266</ele>
        <time>2024-05-08T10:42:08Z</time>
      </trkpt>
      <trkpt lat="49.86689" lon="4.70969">
        <ele>266</ele>
        <time>2024-05-08T10:42:09Z</time>
      </trkpt>
      <trkpt lat="49.86688" lon="4.7097">
        <ele>266</ele>
        <time>2024-05-08T10:42:10Z</time>
      </trkpt>
      <trkpt lat="49.86687" lon="4.70972">
        <ele>266</ele>
        <time>2024-05-08T10:42:11Z</time>
      </trkpt>
      <trkpt lat="49.86685" lon="4.70972">
        <ele>266</ele>
        <time>2024-05-08T10:42:12Z</time>
      </trkpt>
      <trkpt lat="49.86684" lon="4.70973">
        <ele>266</ele>
        <time>2024-05-08T10:42:13Z</time>
      </trkpt>
      <trkpt lat="49.86682" lon="4.70973">
        <ele>266</ele>
        <time>2024-05-08T10:42:14Z</time>
      </trkpt>
      <trkpt lat="49.86681" lon="4.70973">
        <ele>266</ele>
        <time>2024-05-08T10:42:15Z</time>
      </trkpt>
      <trkpt lat="49.86679" lon="4.70974">
        <ele>267</ele>
        <time>2024-05-08T10:42:16Z</time>
      </trkpt>
      <trkpt lat="49.86678" lon="4.70974">
        <ele>267</ele>
        <time>2024-05-08T10:42:17Z</time>
      </trkpt>
      <trkpt lat="49.86677" lon="4.70975">
        <ele>267</ele>
        <time>2024-05-08T10:42:18Z</time>
      </trkpt>
      <trkpt lat="49.86676" lon="4.70975">
        <ele>267</ele>
        <time>2024-05-08T10:42:19Z</time>
      </trkpt>
      <trkpt lat="49.86675" lon="4.70976">
        <ele>267</ele>
        <time>2024-05-08T10:42:20Z</time>
      </trkpt>
      <trkpt lat="49.86674" lon="4.70978">
        <ele>267</ele>
        <time>2024-05-08T10:42:21Z</time>
      </trkpt>
      <trkpt lat="49.86673" lon="4.70979">
        <ele>267</ele>
        <time>2024-05-08T10:42:22Z</time>
      </trkpt>
      <trkpt lat="49.86672" lon="4.70981">
        <ele>267</ele>
        <time>2024-05-08T10:42:23Z</time>
      </trkpt>
      <trkpt lat="49.86671" lon="4.70982">
        <ele>267</ele>
        <time>2024-05-08T10:42:24Z</time>
      </trkpt>
      <trkpt lat="49.8667" lon="4.70983">
        <ele>267</ele>
        <time>2024-05-08T10:42:25Z</time>
      </trkpt>
      <trkpt lat="49.86668" lon="4.70984">
        <ele>267</ele>
        <time>2024-05-08T10:42:26Z</time>
      </trkpt>
      <trkpt lat="49.86667" lon="4.70985">
        <ele>267</ele>
        <time>2024-05-08T10:42:27Z</time>
      </trkpt>
      <trkpt lat="49.86666" lon="4.70986">
        <ele>267</ele>
        <time>2024-05-08T10:42:28Z</time>
      </trkpt>
      <trkpt lat="49.86666" lon="4.70986">
        <ele>267</ele>
        <time>2024-05-08T10:42:29Z</time>
      </trkpt>
      <trkpt lat="49.86665" lon="4.70987">
        <ele>267</ele>
        <time>2024-05-08T10:42:30Z</time>
      </trkpt>
      <trkpt lat="49.86664" lon="4.70988">
        <ele>267</ele>
        <time>2024-05-08T10:42:31Z</time>
      </trkpt>
      <trkpt lat="49.86664" lon="4.70989">
        <ele>267</ele>
        <time>2024-05-08T10:42:32Z</time>
      </trkpt>
      <trkpt lat="49.86663" lon="4.7099">
        <ele>267</ele>
        <time>2024-05-08T10:42:33Z</time>
      </trkpt>
      <trkpt lat="49.86662" lon="4.70991">
        <ele>267</ele>
        <time>2024-05-08T10:42:34Z</time>
      </trkpt>
      <trkpt lat="49.86662" lon="4.70992">
        <ele>267</ele>
        <time>2024-05-08T10:42:35Z</time>
      </trkpt>
      <trkpt lat="49.86661" lon="4.70993">
        <ele>267</ele>
        <time>2024-05-08T10:42:36Z</time>
      </trkpt>
      <trkpt lat="49.8666" lon="4.70994">
        <ele>267</ele>
        <time>2024-05-08T10:42:37Z</time>
      </trkpt>
      <trkpt lat="49.86659" lon="4.70994">
        <ele>267</ele>
        <time>2024-05-08T10:42:38Z</time>
      </trkpt>
      <trkpt lat="49.86658" lon="4.70995">
        <ele>267</ele>
        <time>2024-05-08T10:42:39Z</time>
      </trkpt>
      <trkpt lat="49.86658" lon="4.70996">
        <ele>267</ele>
        <time>2024-05-08T10:42:40Z</time>
      </trkpt>
      <trkpt lat="49.86657" lon="4.70997">
        <ele>267</ele>
        <time>2024-05-08T10:42:41Z</time>
      </trkpt>
      <trkpt lat="49.86656" lon="4.70998">
        <ele>267</ele>
        <time>2024-05-08T10:42:42Z</time>
      </trkpt>
      <trkpt lat="49.86656" lon="4.70998">
        <ele>267</ele>
        <time>2024-05-08T10:42:43Z</time>
      </trkpt>
      <trkpt lat="49.86655" lon="4.70999">
        <ele>267</ele>
        <time>2024-05-08T10:42:44Z</time>
      </trkpt>
      <trkpt lat="49.86654" lon="4.71">
        <ele>267</ele>
        <time>2024-05-08T10:42:45Z</time>
      </trkpt>
      <trkpt lat="49.86653" lon="4.71001">
        <ele>267</ele>
        <time>2024-05-08T10:42:46Z</time>
      </trkpt>
      <trkpt lat="49.86652" lon="4.71002">
        <ele>267</ele>
        <time>2024-05-08T10:42:47Z</time>
      </trkpt>
      <trkpt lat="49.86652" lon="4.71003">
        <ele>267</ele>
        <time>2024-05-08T10:42:48Z</time>
      </trkpt>
      <trkpt lat="49.86651" lon="4.71004">
        <ele>267</ele>
        <time>2024-05-08T10:42:49Z</time>
      </trkpt>
      <trkpt lat="49.8665" lon="4.71005">
        <ele>267</ele>
        <time>2024-05-08T10:42:50Z</time>
      </trkpt>
      <trkpt lat="49.86649" lon="4.71006">
        <ele>267</ele>
        <time>2024-05-08T10:42:51Z</time>
      </trkpt>
      <trkpt lat="49.86648" lon="4.71006">
        <ele>267</ele>
        <time>2024-05-08T10:42:52Z</time>
      </trkpt>
      <trkpt lat="49.86647" lon="4.71007">
        <ele>267</ele>
        <time>2024-05-08T10:42:53Z</time>
      </trkpt>
      <trkpt lat="49.86646" lon="4.71009">
        <ele>267</ele>
        <time>2024-05-08T10:42:54Z</time>
      </trkpt>
      <trkpt lat="49.86645" lon="4.7101">
        <ele>267</ele>
        <time>2024-05-08T10:42:55Z</time>
      </trkpt>
      <trkpt lat="49.86643" lon="4.71012">
        <ele>267</ele>
        <time>2024-05-08T10:42:56Z</time>
      </trkpt>
      <trkpt lat="49.86641" lon="4.71014">
        <ele>267</ele>
        <time>2024-05-08T10:42:57Z</time>
      </trkpt>
      <trkpt lat="49.86641" lon="4.71015">
        <ele>267</ele>
        <time>2024-05-08T10:42:58Z</time>
      </trkpt>
      <trkpt lat="49.8664" lon="4.71015">
        <ele>267</ele>
        <time>2024-05-08T10:42:59Z</time>
      </trkpt>
      <trkpt lat="49.8664" lon="4.71016">
        <ele>267</ele>
        <time>2024-05-08T10:43:00Z</time>
      </trkpt>
      <trkpt lat="49.86639" lon="4.71016">
        <ele>267</ele>
        <time>2024-05-08T10:43:01Z</time>
      </trkpt>
      <trkpt lat="49.86638" lon="4.71017">
        <ele>267</ele>
        <time>2024-05-08T10:43:02Z</time>
      </trkpt>
      <trkpt lat="49.86637" lon="4.71017">
        <ele>267</ele>
        <time>2024-05-08T10:43:03Z</time>
      </trkpt>
      <trkpt lat="49.86636" lon="4.71018">
        <ele>267</ele>
        <time>2024-05-08T10:43:04Z</time>
      </trkpt>
      <trkpt lat="49.86635" lon="4.71019">
        <ele>267</ele>
        <time>2024-05-08T10:43:05Z</time>
      </trkpt>
      <trkpt lat="49.86634" lon="4.7102">
        <ele>268</ele>
        <time>2024-05-08T10:43:06Z</time>
      </trkpt>
      <trkpt lat="49.86633" lon="4.71021">
        <ele>268</ele>
        <time>2024-05-08T10:43:07Z</time>
      </trkpt>
      <trkpt lat="49.86633" lon="4.71022">
        <ele>268</ele>
        <time>2024-05-08T10:43:08Z</time>
      </trkpt>
      <trkpt lat="49.86632" lon="4.71022">
        <ele>268</ele>
        <time>2024-05-08T10:43:09Z</time>
      </trkpt>
      <trkpt lat="49.86631" lon="4.71023">
        <ele>268</ele>
        <time>2024-05-08T10:43:10Z</time>
      </trkpt>
      <trkpt lat="49.86628" lon="4.71025">
        <ele>269</ele>
        <time>2024-05-08T10:43:16Z</time>
      </trkpt>
      <trkpt lat="49.86626" lon="4.71026">
        <ele>269</ele>
        <time>2024-05-08T10:43:17Z</time>
      </trkpt>
      <trkpt lat="49.86625" lon="4.71027">
        <ele>269</ele>
        <time>2024-05-08T10:43:18Z</time>
      </trkpt>
      <trkpt lat="49.86624" lon="4.71028">
        <ele>269</ele>
        <time>2024-05-08T10:43:19Z</time>
      </trkpt>
      <trkpt lat="49.86623" lon="4.71029">
        <ele>269</ele>
        <time>2024-05-08T10:43:20Z</time>
      </trkpt>
      <trkpt lat="49.86622" lon="4.71033">
        <ele>270</ele>
        <time>2024-05-08T10:43:28Z</time>
      </trkpt>
      <trkpt lat="49.86621" lon="4.71034">
        <ele>270</ele>
        <time>2024-05-08T10:43:29Z</time>
      </trkpt>
      <trkpt lat="49.86621" lon="4.71035">
        <ele>270</ele>
        <time>2024-05-08T10:43:30Z</time>
      </trkpt>
      <trkpt lat="49.8662" lon="4.71036">
        <ele>271</ele>
        <time>2024-05-08T10:43:31Z</time>
      </trkpt>
      <trkpt lat="49.86619" lon="4.71036">
        <ele>271</ele>
        <time>2024-05-08T10:43:32Z</time>
      </trkpt>
      <trkpt lat="49.86617" lon="4.71039">
        <ele>272</ele>
        <time>2024-05-08T10:43:38Z</time>
      </trkpt>
      <trkpt lat="49.86616" lon="4.7104">
        <ele>272</ele>
        <time>2024-05-08T10:43:39Z</time>
      </trkpt>
      <trkpt lat="49.86615" lon="4.71041">
        <ele>272</ele>
        <time>2024-05-08T10:43:40Z</time>
      </trkpt>
      <trkpt lat="49.86614" lon="4.71042">
        <ele>273</ele>
        <time>2024-05-08T10:43:41Z</time>
      </trkpt>
      <trkpt lat="49.86613" lon="4.71043">
        <ele>273</ele>
        <time>2024-05-08T10:43:42Z</time>
      </trkpt>
      <trkpt lat="49.86612" lon="4.71043">
        <ele>273</ele>
        <time>2024-05-08T10:43:43Z</time>
      </trkpt>
      <trkpt lat="49.86612" lon="4.71043">
        <ele>273</ele>
        <time>2024-05-08T10:43:44Z</time>
      </trkpt>
      <trkpt lat="49.86611" lon="4.71044">
        <ele>273</ele>
        <time>2024-05-08T10:43:45Z</time>
      </trkpt>
      <trkpt lat="49.8661" lon="4.71045">
        <ele>274</ele>
        <time>2024-05-08T10:43:46Z</time>
      </trkpt>
      <trkpt lat="49.86608" lon="4.71047">
        <ele>274</ele>
        <time>2024-05-08T10:43:55Z</time>
      </trkpt>
      <trkpt lat="49.86608" lon="4.71047">
        <ele>275</ele>
        <time>2024-05-08T10:43:56Z</time>
      </trkpt>
      <trkpt lat="49.86607" lon="4.71048">
        <ele>275</ele>
        <time>2024-05-08T10:43:57Z</time>
      </trkpt>
      <trkpt lat="49.86606" lon="4.71049">
        <ele>275</ele>
        <time>2024-05-08T10:43:58Z</time>
      </trkpt>
      <trkpt lat="49.86605" lon="4.71049">
        <ele>276</ele>
        <time>2024-05-08T10:43:59Z</time>
      </trkpt>
      <trkpt lat="49.86605" lon="4.7105">
        <ele>276</ele>
        <time>2024-05-08T10:44:00Z</time>
      </trkpt>
      <trkpt lat="49.86604" lon="4.71052">
        <ele>277</ele>
        <time>2024-05-08T10:44:01Z</time>
      </trkpt>
      <trkpt lat="49.86604" lon="4.71053">
        <ele>277</ele>
        <time>2024-05-08T10:44:02Z</time>
      </trkpt>
      <trkpt lat="49.86603" lon="4.71053">
        <ele>277</ele>
        <time>2024-05-08T10:44:03Z</time>
      </trkpt>
      <trkpt lat="49.86603" lon="4.71054">
        <ele>277</ele>
        <time>2024-05-08T10:44:04Z</time>
      </trkpt>
      <trkpt lat="49.86602" lon="4.71055">
        <ele>277</ele>
        <time>2024-05-08T10:44:05Z</time>
      </trkpt>
      <trkpt lat="49.86602" lon="4.71055">
        <ele>278</ele>
        <time>2024-05-08T10:44:06Z</time>
      </trkpt>
      <trkpt lat="49.86602" lon="4.71056">
        <ele>278</ele>
        <time>2024-05-08T10:44:07Z</time>
      </trkpt>
      <trkpt lat="49.86602" lon="4.71056">
        <ele>278</ele>
        <time>2024-05-08T10:44:08Z</time>
      </trkpt>
      <trkpt lat="49.86601" lon="4.71057">
        <ele>278</ele>
        <time>2024-05-08T10:44:09Z</time>
      </trkpt>
      <trkpt lat="49.86601" lon="4.71058">
        <ele>278</ele>
        <time>2024-05-08T10:44:10Z</time>
      </trkpt>
      <trkpt lat="49.866" lon="4.71058">
        <ele>279</ele>
        <time>2024-05-08T10:44:11Z</time>
      </trkpt>
      <trkpt lat="49.86599" lon="4.71059">
        <ele>279</ele>
        <time>2024-05-08T10:44:12Z</time>
      </trkpt>
      <trkpt lat="49.86598" lon="4.7106">
        <ele>279</ele>
        <time>2024-05-08T10:44:13Z</time>
      </trkpt>
      <trkpt lat="49.86597" lon="4.71061">
        <ele>279</ele>
        <time>2024-05-08T10:44:14Z</time>
      </trkpt>
      <trkpt lat="49.86597" lon="4.71062">
        <ele>279</ele>
        <time>2024-05-08T10:44:15Z</time>
      </trkpt>
      <trkpt lat="49.86596" lon="4.71062">
        <ele>280</ele>
        <time>2024-05-08T10:44:16Z</time>
      </trkpt>
      <trkpt lat="49.86595" lon="4.71063">
        <ele>280</ele>
        <time>2024-05-08T10:44:17Z</time>
      </trkpt>
      <trkpt lat="49.86594" lon="4.71064">
        <ele>280</ele>
        <time>2024-05-08T10:44:18Z</time>
      </trkpt>
      <trkpt lat="49.86594" lon="4.71064">
        <ele>280</ele>
        <time>2024-05-08T10:44:19Z</time>
      </trkpt>
      <trkpt lat="49.86593" lon="4.71065">
        <ele>280</ele>
        <time>2024-05-08T10:44:20Z</time>
      </trkpt>
      <trkpt lat="49.86593" lon="4.71066">
        <ele>280</ele>
        <time>2024-05-08T10:44:21Z</time>
      </trkpt>
      <trkpt lat="49.86592" lon="4.71067">
        <ele>280</ele>
        <time>2024-05-08T10:44:22Z</time>
      </trkpt>
      <trkpt lat="49.86592" lon="4.71069">
        <ele>280</ele>
        <time>2024-05-08T10:44:23Z</time>
      </trkpt>
      <trkpt lat="49.86591" lon="4.7107">
        <ele>280</ele>
        <time>2024-05-08T10:44:24Z</time>
      </trkpt>
      <trkpt lat="49.86591" lon="4.71071">
        <ele>280</ele>
        <time>2024-05-08T10:44:25Z</time>
      </trkpt>
      <trkpt lat="49.8659" lon="4.71073">
        <ele>281</ele>
        <time>2024-05-08T10:44:26Z</time>
      </trkpt>
      <trkpt lat="49.86589" lon="4.71074">
        <ele>281</ele>
        <time>2024-05-08T10:44:27Z</time>
      </trkpt>
      <trkpt lat="49.86589" lon="4.71076">
        <ele>281</ele>
        <time>2024-05-08T10:44:28Z</time>
      </trkpt>
      <trkpt lat="49.86587" lon="4.71077">
        <ele>281</ele>
        <time>2024-05-08T10:44:29Z</time>
      </trkpt>
      <trkpt lat="49.86586" lon="4.71078">
        <ele>281</ele>
        <time>2024-05-08T10:44:30Z</time>
      </trkpt>
      <trkpt lat="49.86585" lon="4.71079">
        <ele>282</ele>
        <time>2024-05-08T10:44:31Z</time>
      </trkpt>
      <trkpt lat="49.86583" lon="4.71081">
        <ele>282</ele>
        <time>2024-05-08T10:44:32Z</time>
      </trkpt>
      <trkpt lat="49.86582" lon="4.71082">
        <ele>282</ele>
        <time>2024-05-08T10:44:33Z</time>
      </trkpt>
      <trkpt lat="49.86581" lon="4.71083">
        <ele>282</ele>
        <time>2024-05-08T10:44:34Z</time>
      </trkpt>
      <trkpt lat="49.8658" lon="4.71085">
        <ele>282</ele>
        <time>2024-05-08T10:44:35Z</time>
      </trkpt>
      <trkpt lat="49.86579" lon="4.71086">
        <ele>283</ele>
        <time>2024-05-08T10:44:36Z</time>
      </trkpt>
      <trkpt lat="49.86578" lon="4.71087">
        <ele>283</ele>
        <time>2024-05-08T10:44:37Z</time>
      </trkpt>
      <trkpt lat="49.86577" lon="4.71087">
        <ele>283</ele>
        <time>2024-05-08T10:44:38Z</time>
      </trkpt>
      <trkpt lat="49.86576" lon="4.71087">
        <ele>283</ele>
        <time>2024-05-08T10:44:39Z</time>
      </trkpt>
      <trkpt lat="49.86575" lon="4.71088">
        <ele>283</ele>
        <time>2024-05-08T10:44:40Z</time>
      </trkpt>
      <trkpt lat="49.86574" lon="4.71088">
        <ele>284</ele>
        <time>2024-05-08T10:44:41Z</time>
      </trkpt>
      <trkpt lat="49.86573" lon="4.71088">
        <ele>284</ele>
        <time>2024-05-08T10:44:42Z</time>
      </trkpt>
      <trkpt lat="49.86572" lon="4.71088">
        <ele>284</ele>
        <time>2024-05-08T10:44:43Z</time>
      </trkpt>
      <trkpt lat="49.86572" lon="4.71089">
        <ele>284</ele>
        <time>2024-05-08T10:44:44Z</time>
      </trkpt>
      <trkpt lat="49.86571" lon="4.71089">
        <ele>284</ele>
        <time>2024-05-08T10:44:45Z</time>
      </trkpt>
      <trkpt lat="49.86571" lon="4.71088">
        <ele>285</ele>
        <time>2024-05-08T10:44:46Z</time>
      </trkpt>
      <trkpt lat="49.86571" lon="4.71088">
        <ele>285</ele>
        <time>2024-05-08T10:44:47Z</time>
      </trkpt>
      <trkpt lat="49.86571" lon="4.71088">
        <ele>285</ele>
        <time>2024-05-08T10:44:48Z</time>
      </trkpt>
      <trkpt lat="49.8657" lon="4.71088">
        <ele>285</ele>
        <time>2024-05-08T10:44:49Z</time>
      </trkpt>
      <trkpt lat="49.8657" lon="4.71087">
        <ele>285</ele>
        <time>2024-05-08T10:44:50Z</time>
      </trkpt>
      <trkpt lat="49.86569" lon="4.71087">
        <ele>285</ele>
        <time>2024-05-08T10:44:51Z</time>
      </trkpt>
      <trkpt lat="49.86569" lon="4.71086">
        <ele>285</ele>
        <time>2024-05-08T10:44:52Z</time>
      </trkpt>
      <trkpt lat="49.86568" lon="4.71085">
        <ele>285</ele>
        <time>2024-05-08T10:44:53Z</time>
      </trkpt>
      <trkpt lat="49.86567" lon="4.71085">
        <ele>285</ele>
        <time>2024-05-08T10:44:54Z</time>
      </trkpt>
      <trkpt lat="49.86566" lon="4.71084">
        <ele>285</ele>
        <time>2024-05-08T10:44:55Z</time>
      </trkpt>
      <trkpt lat="49.86565" lon="4.71083">
        <ele>286</ele>
        <time>2024-05-08T10:44:56Z</time>
      </trkpt>
      <trkpt lat="49.86564" lon="4.71083">
        <ele>286</ele>
        <time>2024-05-08T10:44:57Z</time>
      </trkpt>
      <trkpt lat="49.86563" lon="4.71084">
        <ele>286</ele>
        <time>2024-05-08T10:44:58Z</time>
      </trkpt>
      <trkpt lat="49.86562" lon="4.71084">
        <ele>286</ele>
        <time>2024-05-08T10:44:59Z</time>
      </trkpt>
      <trkpt lat="49.86561" lon="4.71084">
        <ele>286</ele>
        <time>2024-05-08T10:45:00Z</time>
      </trkpt>
      <trkpt lat="49.8656" lon="4.71084">
        <ele>287</ele>
        <time>2024-05-08T10:45:01Z</time>
      </trkpt>
      <trkpt lat="49.86559" lon="4.71084">
        <ele>287</ele>
        <time>2024-05-08T10:45:02Z</time>
      </trkpt>
      <trkpt lat="49.86558" lon="4.71084">
        <ele>287</ele>
        <time>2024-05-08T10:45:03Z</time>
      </trkpt>
      <trkpt lat="49.86558" lon="4.71084">
        <ele>287</ele>
        <time>2024-05-08T10:45:04Z</time>
      </trkpt>
      <trkpt lat="49.86557" lon="4.71083">
        <ele>287</ele>
        <time>2024-05-08T10:45:05Z</time>
      </trkpt>
      <trkpt lat="49.86556" lon="4.71084">
        <ele>288</ele>
        <time>2024-05-08T10:45:06Z</time>
      </trkpt>
      <trkpt lat="49.86556" lon="4.71085">
        <ele>288</ele>
        <time>2024-05-08T10:45:07Z</time>
      </trkpt>
      <trkpt lat="49.86555" lon="4.71086">
        <ele>288</ele>
        <time>2024-05-08T10:45:08Z</time>
      </trkpt>
      <trkpt lat="49.86554" lon="4.71086">
        <ele>288</ele>
        <time>2024-05-08T10:45:09Z</time>
      </trkpt>
      <trkpt lat="49.86553" lon="4.71087">
        <ele>288</ele>
        <time>2024-05-08T10:45:10Z</time>
      </trkpt>
      <trkpt lat="49.86552" lon="4.71088">
        <ele>289</ele>
        <time>2024-05-08T10:45:11Z</time>
      </trkpt>
      <trkpt lat="49.86551" lon="4.71088">
        <ele>289</ele>
        <time>2024-05-08T10:45:12Z</time>
      </trkpt>
      <trkpt lat="49.8655" lon="4.71089">
        <ele>289</ele>
        <time>2024-05-08T10:45:13Z</time>
      </trkpt>
      <trkpt lat="49.86549" lon="4.71089">
        <ele>289</ele>
        <time>2024-05-08T10:45:14Z</time>
      </trkpt>
      <trkpt lat="49.86548" lon="4.71089">
        <ele>289</ele>
        <time>2024-05-08T10:45:15Z</time>
      </trkpt>
      <trkpt lat="49.86547" lon="4.71088">
        <ele>289</ele>
        <time>2024-05-08T10:45:16Z</time>
      </trkpt>
      <trkpt lat="49.86545" lon="4.71088">
        <ele>289</ele>
        <time>2024-05-08T10:45:17Z</time>
      </trkpt>
      <trkpt lat="49.86544" lon="4.71088">
        <ele>289</ele>
        <time>2024-05-08T10:45:18Z</time>
      </trkpt>
      <trkpt lat="49.86543" lon="4.71088">
        <ele>289</ele>
        <time>2024-05-08T10:45:19Z</time>
      </trkpt>
      <trkpt lat="49.86542" lon="4.71089">
        <ele>289</ele>
        <time>2024-05-08T10:45:20Z</time>
      </trkpt>
      <trkpt lat="49.86541" lon="4.71089">
        <ele>289</ele>
        <time>2024-05-08T10:45:21Z</time>
      </trkpt>
      <trkpt lat="49.8654" lon="4.7109">
        <ele>289</ele>
        <time>2024-05-08T10:45:22Z</time>
      </trkpt>
      <trkpt lat="49.86539" lon="4.7109">
        <ele>289</ele>
        <time>2024-05-08T10:45:23Z</time>
      </trkpt>
      <trkpt lat="49.86539" lon="4.7109">
        <ele>289</ele>
        <time>2024-05-08T10:45:24Z</time>
      </trkpt>
      <trkpt lat="49.86538" lon="4.7109">
        <ele>289</ele>
        <time>2024-05-08T10:45:25Z</time>
      </trkpt>
      <trkpt lat="49.86537" lon="4.71089">
        <ele>290</ele>
        <time>2024-05-08T10:45:26Z</time>
      </trkpt>
      <trkpt lat="49.86536" lon="4.71089">
        <ele>290</ele>
        <time>2024-05-08T10:45:27Z</time>
      </trkpt>
      <trkpt lat="49.86535" lon="4.71089">
        <ele>290</ele>
        <time>2024-05-08T10:45:28Z</time>
      </trkpt>
      <trkpt lat="49.86534" lon="4.71089">
        <ele>290</ele>
        <time>2024-05-08T10:45:29Z</time>
      </trkpt>
      <trkpt lat="49.86533" lon="4.71088">
        <ele>290</ele>
        <time>2024-05-08T10:45:30Z</time>
      </trkpt>
      <trkpt lat="49.86533" lon="4.71088">
        <ele>290</ele>
        <time>2024-05-08T10:45:31Z</time>
      </trkpt>
      <trkpt lat="49.86532" lon="4.71088">
        <ele>290</ele>
        <time>2024-05-08T10:45:32Z</time>
      </trkpt>
      <trkpt lat="49.86531" lon="4.71088">
        <ele>290</ele>
        <time>2024-05-08T10:45:33Z</time>
      </trkpt>
      <trkpt lat="49.8653" lon="4.71087">
        <ele>290</ele>
        <time>2024-05-08T10:45:34Z</time>
      </trkpt>
      <trkpt lat="49.86529" lon="4.71087">
        <ele>290</ele>
        <time>2024-05-08T10:45:35Z</time>
      </trkpt>
      <trkpt lat="49.86528" lon="4.71087">
        <ele>291</ele>
        <time>2024-05-08T10:45:36Z</time>
      </trkpt>
      <trkpt lat="49.86527" lon="4.71087">
        <ele>291</ele>
        <time>2024-05-08T10:45:37Z</time>
      </trkpt>
      <trkpt lat="49.86526" lon="4.71087">
        <ele>291</ele>
        <time>2024-05-08T10:45:38Z</time>
      </trkpt>
      <trkpt lat="49.86526" lon="4.71087">
        <ele>291</ele>
        <time>2024-05-08T10:45:39Z</time>
      </trkpt>
      <trkpt lat="49.86525" lon="4.71087">
        <ele>291</ele>
        <time>2024-05-08T10:45:40Z</time>
      </trkpt>
      <trkpt lat="49.86525" lon="4.71087">
        <ele>292</ele>
        <time>2024-05-08T10:45:41Z</time>
      </trkpt>
      <trkpt lat="49.86524" lon="4.71084">
        <ele>293</ele>
        <time>2024-05-08T10:46:11Z</time>
      </trkpt>
      <trkpt lat="49.86523" lon="4.71083">
        <ele>293</ele>
        <time>2024-05-08T10:46:12Z</time>
      </trkpt>
      <trkpt lat="49.86522" lon="4.71081">
        <ele>293</ele>
        <time>2024-05-08T10:46:13Z</time>
      </trkpt>
      <trkpt lat="49.86522" lon="4.71081">
        <ele>293</ele>
        <time>2024-05-08T10:46:14Z</time>
      </trkpt>
      <trkpt lat="49.86521" lon="4.7108">
        <ele>293</ele>
        <time>2024-05-08T10:46:15Z</time>
      </trkpt>
      <trkpt lat="49.8652" lon="4.7108">
        <ele>294</ele>
        <time>2024-05-08T10:46:16Z</time>
      </trkpt>
      <trkpt lat="49.8652" lon="4.71079">
        <ele>294</ele>
        <time>2024-05-08T10:46:17Z</time>
      </trkpt>
      <trkpt lat="49.86519" lon="4.71079">
        <ele>294</ele>
        <time>2024-05-08T10:46:18Z</time>
      </trkpt>
      <trkpt lat="49.86518" lon="4.71079">
        <ele>294</ele>
        <time>2024-05-08T10:46:19Z</time>
      </trkpt>
      <trkpt lat="49.86517" lon="4.71079">
        <ele>294</ele>
        <time>2024-05-08T10:46:20Z</time>
      </trkpt>
      <trkpt lat="49.86516" lon="4.71079">
        <ele>295</ele>
        <time>2024-05-08T10:46:21Z</time>
      </trkpt>
      <trkpt lat="49.86515" lon="4.71078">
        <ele>295</ele>
        <time>2024-05-08T10:46:22Z</time>
      </trkpt>
      <trkpt lat="49.86514" lon="4.71077">
        <ele>295</ele>
        <time>2024-05-08T10:46:23Z</time>
      </trkpt>
      <trkpt lat="49.86513" lon="4.71077">
        <ele>295</ele>
        <time>2024-05-08T10:46:24Z</time>
      </trkpt>
      <trkpt lat="49.86512" lon="4.71076">
        <ele>295</ele>
        <time>2024-05-08T10:46:25Z</time>
      </trkpt>
      <trkpt lat="49.86511" lon="4.71076">
        <ele>295</ele>
        <time>2024-05-08T10:46:26Z</time>
      </trkpt>
      <trkpt lat="49.8651" lon="4.71075">
        <ele>295</ele>
        <time>2024-05-08T10:46:27Z</time>
      </trkpt>
      <trkpt lat="49.8651" lon="4.71075">
        <ele>295</ele>
        <time>2024-05-08T10:46:28Z</time>
      </trkpt>
      <trkpt lat="49.86509" lon="4.71074">
        <ele>295</ele>
        <time>2024-05-08T10:46:29Z</time>
      </trkpt>
      <trkpt lat="49.86508" lon="4.71074">
        <ele>295</ele>
        <time>2024-05-08T10:46:30Z</time>
      </trkpt>
      <trkpt lat="49.86507" lon="4.71074">
        <ele>296</ele>
        <time>2024-05-08T10:46:31Z</time>
      </trkpt>
      <trkpt lat="49.86506" lon="4.71073">
        <ele>296</ele>
        <time>2024-05-08T10:46:32Z</time>
      </trkpt>
      <trkpt lat="49.86505" lon="4.71073">
        <ele>296</ele>
        <time>2024-05-08T10:46:33Z</time>
      </trkpt>
      <trkpt lat="49.86504" lon="4.71072">
        <ele>296</ele>
        <time>2024-05-08T10:46:34Z</time>
      </trkpt>
      <trkpt lat="49.86503" lon="4.71071">
        <ele>296</ele>
        <time>2024-05-08T10:46:35Z</time>
      </trkpt>
      <trkpt lat="49.86502" lon="4.71071">
        <ele>297</ele>
        <time>2024-05-08T10:46:36Z</time>
      </trkpt>
      <trkpt lat="49.86501" lon="4.7107">
        <ele>297</ele>
        <time>2024-05-08T10:46:37Z</time>
      </trkpt>
      <trkpt lat="49.865" lon="4.71069">
        <ele>297</ele>
        <time>2024-05-08T10:46:38Z</time>
      </trkpt>
      <trkpt lat="49.86499" lon="4.71069">
        <ele>297</ele>
        <time>2024-05-08T10:46:39Z</time>
      </trkpt>
      <trkpt lat="49.86498" lon="4.71068">
        <ele>297</ele>
        <time>2024-05-08T10:46:40Z</time>
      </trkpt>
      <trkpt lat="49.86497" lon="4.71068">
        <ele>298</ele>
        <time>2024-05-08T10:46:41Z</time>
      </trkpt>
      <trkpt lat="49.86496" lon="4.71067">
        <ele>298</ele>
        <time>2024-05-08T10:46:42Z</time>
      </trkpt>
      <trkpt lat="49.86495" lon="4.71066">
        <ele>298</ele>
        <time>2024-05-08T10:46:43Z</time>
      </trkpt>
      <trkpt lat="49.86494" lon="4.71066">
        <ele>298</ele>
        <time>2024-05-08T10:46:44Z</time>
      </trkpt>
      <trkpt lat="49.86493" lon="4.71066">
        <ele>298</ele>
        <time>2024-05-08T10:46:45Z</time>
      </trkpt>
      <trkpt lat="49.86491" lon="4.71065">
        <ele>298</ele>
        <time>2024-05-08T10:46:46Z</time>
      </trkpt>
      <trkpt lat="49.8649" lon="4.71065">
        <ele>298</ele>
        <time>2024-05-08T10:46:47Z</time>
      </trkpt>
      <trkpt lat="49.8649" lon="4.71064">
        <ele>298</ele>
        <time>2024-05-08T10:46:48Z</time>
      </trkpt>
      <trkpt lat="49.86489" lon="4.71063">
        <ele>298</ele>
        <time>2024-05-08T10:46:49Z</time>
      </trkpt>
      <trkpt lat="49.86489" lon="4.71062">
        <ele>298</ele>
        <time>2024-05-08T10:46:50Z</time>
      </trkpt>
      <trkpt lat="49.86488" lon="4.71061">
        <ele>299</ele>
        <time>2024-05-08T10:46:51Z</time>
      </trkpt>
      <trkpt lat="49.86487" lon="4.7106">
        <ele>299</ele>
        <time>2024-05-08T10:46:52Z</time>
      </trkpt>
      <trkpt lat="49.86487" lon="4.71059">
        <ele>299</ele>
        <time>2024-05-08T10:46:53Z</time>
      </trkpt>
      <trkpt lat="49.86486" lon="4.71058">
        <ele>299</ele>
        <time>2024-05-08T10:46:54Z</time>
      </trkpt>
      <trkpt lat="49.86485" lon="4.71058">
        <ele>299</ele>
        <time>2024-05-08T10:46:55Z</time>
      </trkpt>
      <trkpt lat="49.86484" lon="4.71057">
        <ele>299</ele>
        <time>2024-05-08T10:46:56Z</time>
      </trkpt>
      <trkpt lat="49.86484" lon="4.71057">
        <ele>299</ele>
        <time>2024-05-08T10:46:57Z</time>
      </trkpt>
      <trkpt lat="49.86483" lon="4.71057">
        <ele>299</ele>
        <time>2024-05-08T10:46:58Z</time>
      </trkpt>
      <trkpt lat="49.86482" lon="4.71057">
        <ele>299</ele>
        <time>2024-05-08T10:46:59Z</time>
      </trkpt>
      <trkpt lat="49.86481" lon="4.71056">
        <ele>299</ele>
        <time>2024-05-08T10:47:00Z</time>
      </trkpt>
      <trkpt lat="49.86481" lon="4.71056">
        <ele>300</ele>
        <time>2024-05-08T10:47:01Z</time>
      </trkpt>
      <trkpt lat="49.8648" lon="4.71056">
        <ele>300</ele>
        <time>2024-05-08T10:47:02Z</time>
      </trkpt>
      <trkpt lat="49.86479" lon="4.71055">
        <ele>300</ele>
        <time>2024-05-08T10:47:03Z</time>
      </trkpt>
      <trkpt lat="49.86479" lon="4.71055">
        <ele>300</ele>
        <time>2024-05-08T10:47:04Z</time>
      </trkpt>
      <trkpt lat="49.86478" lon="4.71055">
        <ele>300</ele>
        <time>2024-05-08T10:47:05Z</time>
      </trkpt>
      <trkpt lat="49.86477" lon="4.71055">
        <ele>301</ele>
        <time>2024-05-08T10:47:06Z</time>
      </trkpt>
      <trkpt lat="49.86477" lon="4.71055">
        <ele>301</ele>
        <time>2024-05-08T10:47:07Z</time>
      </trkpt>
      <trkpt lat="49.86476" lon="4.71055">
        <ele>301</ele>
        <time>2024-05-08T10:47:08Z</time>
      </trkpt>
      <trkpt lat="49.86475" lon="4.71055">
        <ele>301</ele>
        <time>2024-05-08T10:47:09Z</time>
      </trkpt>
      <trkpt lat="49.86475" lon="4.71055">
        <ele>301</ele>
        <time>2024-05-08T10:47:10Z</time>
      </trkpt>
      <trkpt lat="49.86474" lon="4.71055">
        <ele>301</ele>
        <time>2024-05-08T10:47:11Z</time>
      </trkpt>
      <trkpt lat="49.86473" lon="4.71055">
        <ele>301</ele>
        <time>2024-05-08T10:47:12Z</time>
      </trkpt>
      <trkpt lat="49.86472" lon="4.71055">
        <ele>301</ele>
        <time>2024-05-08T10:47:13Z</time>
      </trkpt>
      <trkpt lat="49.86472" lon="4.71055">
        <ele>301</ele>
        <time>2024-05-08T10:47:14Z</time>
      </trkpt>
      <trkpt lat="49.86471" lon="4.71055">
        <ele>301</ele>
        <time>2024-05-08T10:47:15Z</time>
      </trkpt>
      <trkpt lat="49.86471" lon="4.71055">
        <ele>302</ele>
        <time>2024-05-08T10:47:16Z</time>
      </trkpt>
      <trkpt lat="49.8647" lon="4.71056">
        <ele>302</ele>
        <time>2024-05-08T10:47:17Z</time>
      </trkpt>
      <trkpt lat="49.8647" lon="4.71056">
        <ele>302</ele>
        <time>2024-05-08T10:47:18Z</time>
      </trkpt>
      <trkpt lat="49.86469" lon="4.71056">
        <ele>302</ele>
        <time>2024-05-08T10:47:19Z</time>
      </trkpt>
      <trkpt lat="49.86468" lon="4.71057">
        <ele>302</ele>
        <time>2024-05-08T10:47:20Z</time>
      </trkpt>
      <trkpt lat="49.86468" lon="4.71057">
        <ele>303</ele>
        <time>2024-05-08T10:47:21Z</time>
      </trkpt>
      <trkpt lat="49.86467" lon="4.71058">
        <ele>303</ele>
        <time>2024-05-08T10:47:22Z</time>
      </trkpt>
      <trkpt lat="49.86466" lon="4.71059">
        <ele>303</ele>
        <time>2024-05-08T10:47:23Z</time>
      </trkpt>
      <trkpt lat="49.86466" lon="4.71059">
        <ele>303</ele>
        <time>2024-05-08T10:47:24Z</time>
      </trkpt>
      <trkpt lat="49.86465" lon="4.7106">
        <ele>303</ele>
        <time>2024-05-08T10:47:25Z</time>
      </trkpt>
      <trkpt lat="49.86464" lon="4.7106">
        <ele>304</ele>
        <time>2024-05-08T10:47:26Z</time>
      </trkpt>
      <trkpt lat="49.86463" lon="4.71061">
        <ele>304</ele>
        <time>2024-05-08T10:47:27Z</time>
      </trkpt>
      <trkpt lat="49.86462" lon="4.71062">
        <ele>304</ele>
        <time>2024-05-08T10:47:28Z</time>
      </trkpt>
      <trkpt lat="49.86461" lon="4.71062">
        <ele>304</ele>
        <time>2024-05-08T10:47:29Z</time>
      </trkpt>
      <trkpt lat="49.8646" lon="4.71063">
        <ele>304</ele>
        <time>2024-05-08T10:47:30Z</time>
      </trkpt>
      <trkpt lat="49.8646" lon="4.71064">
        <ele>304</ele>
        <time>2024-05-08T10:47:31Z</time>
      </trkpt>
      <trkpt lat="49.86459" lon="4.71064">
        <ele>304</ele>
        <time>2024-05-08T10:47:32Z</time>
      </trkpt>
      <trkpt lat="49.86458" lon="4.71064">
        <ele>304</ele>
        <time>2024-05-08T10:47:33Z</time>
      </trkpt>
      <trkpt lat="49.86457" lon="4.71063">
        <ele>304</ele>
        <time>2024-05-08T10:47:34Z</time>
      </trkpt>
      <trkpt lat="49.86454" lon="4.71064">
        <ele>307</ele>
        <time>2024-05-08T10:47:48Z</time>
      </trkpt>
      <trkpt lat="49.86453" lon="4.71065">
        <ele>308</ele>
        <time>2024-05-08T10:47:49Z</time>
      </trkpt>
      <trkpt lat="49.86451" lon="4.71066">
        <ele>308</ele>
        <time>2024-05-08T10:47:50Z</time>
      </trkpt>
      <trkpt lat="49.86447" lon="4.71067">
        <ele>311</ele>
        <time>2024-05-08T10:48:04Z</time>
      </trkpt>
      <trkpt lat="49.86445" lon="4.71068">
        <ele>311</ele>
        <time>2024-05-08T10:48:05Z</time>
      </trkpt>
      <trkpt lat="49.86444" lon="4.71069">
        <ele>312</ele>
        <time>2024-05-08T10:48:06Z</time>
      </trkpt>
      <trkpt lat="49.86443" lon="4.7107">
        <ele>312</ele>
        <time>2024-05-08T10:48:07Z</time>
      </trkpt>
      <trkpt lat="49.86442" lon="4.7107">
        <ele>312</ele>
        <time>2024-05-08T10:48:08Z</time>
      </trkpt>
      <trkpt lat="49.86442" lon="4.71071">
        <ele>313</ele>
        <time>2024-05-08T10:48:09Z</time>
      </trkpt>
      <trkpt lat="49.86441" lon="4.71072">
        <ele>313</ele>
        <time>2024-05-08T10:48:10Z</time>
      </trkpt>
      <trkpt lat="49.8644" lon="4.71072">
        <ele>314</ele>
        <time>2024-05-08T10:48:11Z</time>
      </trkpt>
      <trkpt lat="49.86439" lon="4.71073">
        <ele>314</ele>
        <time>2024-05-08T10:48:12Z</time>
      </trkpt>
      <trkpt lat="49.86439" lon="4.71074">
        <ele>314</ele>
        <time>2024-05-08T10:48:13Z</time>
      </trkpt>
      <trkpt lat="49.86438" lon="4.71074">
        <ele>314</ele>
        <time>2024-05-08T10:48:14Z</time>
      </trkpt>
      <trkpt lat="49.86437" lon="4.71075">
        <ele>314</ele>
        <time>2024-05-08T10:48:15Z</time>
      </trkpt>
      <trkpt lat="49.86437" lon="4.71075">
        <ele>315</ele>
        <time>2024-05-08T10:48:16Z</time>
      </trkpt>
      <trkpt lat="49.86436" lon="4.71075">
        <ele>315</ele>
        <time>2024-05-08T10:48:17Z</time>
      </trkpt>
      <trkpt lat="49.86436" lon="4.71075">
        <ele>315</ele>
        <time>2024-05-08T10:48:18Z</time>
      </trkpt>
      <trkpt lat="49.86435" lon="4.71075">
        <ele>315</ele>
        <time>2024-05-08T10:48:19Z</time>
      </trkpt>
      <trkpt lat="49.86435" lon="4.71075">
        <ele>315</ele>
        <time>2024-05-08T10:48:20Z</time>
      </trkpt>
      <trkpt lat="49.86434" lon="4.71075">
        <ele>316</ele>
        <time>2024-05-08T10:48:21Z</time>
      </trkpt>
      <trkpt lat="49.86434" lon="4.71074">
        <ele>316</ele>
        <time>2024-05-08T10:48:22Z</time>
      </trkpt>
      <trkpt lat="49.86433" lon="4.71074">
        <ele>316</ele>
        <time>2024-05-08T10:48:23Z</time>
      </trkpt>
      <trkpt lat="49.86433" lon="4.71074">
        <ele>316</ele>
        <time>2024-05-08T10:48:24Z</time>
      </trkpt>
      <trkpt lat="49.86433" lon="4.71074">
        <ele>316</ele>
        <time>2024-05-08T10:48:25Z</time>
      </trkpt>
      <trkpt lat="49.86432" lon="4.71073">
        <ele>317</ele>
        <time>2024-05-08T10:48:26Z</time>
      </trkpt>
      <trkpt lat="49.86431" lon="4.71073">
        <ele>317</ele>
        <time>2024-05-08T10:48:27Z</time>
      </trkpt>
      <trkpt lat="49.86431" lon="4.71073">
        <ele>317</ele>
        <time>2024-05-08T10:48:28Z</time>
      </trkpt>
      <trkpt lat="49.8643" lon="4.71073">
        <ele>317</ele>
        <time>2024-05-08T10:48:29Z</time>
      </trkpt>
      <trkpt lat="49.86429" lon="4.71073">
        <ele>317</ele>
        <time>2024-05-08T10:48:30Z</time>
      </trkpt>
      <trkpt lat="49.86428" lon="4.71072">
        <ele>318</ele>
        <time>2024-05-08T10:48:31Z</time>
      </trkpt>
      <trkpt lat="49.86427" lon="4.71072">
        <ele>318</ele>
        <time>2024-05-08T10:48:32Z</time>
      </trkpt>
      <trkpt lat="49.86425" lon="4.71072">
        <ele>318</ele>
        <time>2024-05-08T10:48:33Z</time>
      </trkpt>
      <trkpt lat="49.86424" lon="4.71072">
        <ele>318</ele>
        <time>2024-05-08T10:48:34Z</time>
      </trkpt>
      <trkpt lat="49.86422" lon="4.71072">
        <ele>318</ele>
        <time>2024-05-08T10:48:35Z</time>
      </trkpt>
      <trkpt lat="49.86421" lon="4.71072">
        <ele>319</ele>
        <time>2024-05-08T10:48:36Z</time>
      </trkpt>
      <trkpt lat="49.86419" lon="4.71072">
        <ele>319</ele>
        <time>2024-05-08T10:48:37Z</time>
      </trkpt>
      <trkpt lat="49.86418" lon="4.71072">
        <ele>319</ele>
        <time>2024-05-08T10:48:38Z</time>
      </trkpt>
      <trkpt lat="49.86417" lon="4.71072">
        <ele>319</ele>
        <time>2024-05-08T10:48:39Z</time>
      </trkpt>
      <trkpt lat="49.86416" lon="4.71072">
        <ele>319</ele>
        <time>2024-05-08T10:48:40Z</time>
      </trkpt>
      <trkpt lat="49.86415" lon="4.71072">
        <ele>320</ele>
        <time>2024-05-08T10:48:41Z</time>
      </trkpt>
      <trkpt lat="49.86414" lon="4.71072">
        <ele>320</ele>
        <time>2024-05-08T10:48:42Z</time>
      </trkpt>
      <trkpt lat="49.86414" lon="4.71076">
        <ele>320</ele>
        <time>2024-05-08T10:51:52Z</time>
      </trkpt>
      <trkpt lat="49.86414" lon="4.71078">
        <ele>320</ele>
        <time>2024-05-08T10:51:53Z</time>
      </trkpt>
      <trkpt lat="49.86414" lon="4.7108">
        <ele>320</ele>
        <time>2024-05-08T10:51:54Z</time>
      </trkpt>
      <trkpt lat="49.86414" lon="4.71082">
        <ele>320</ele>
        <time>2024-05-08T10:51:55Z</time>
      </trkpt>
      <trkpt lat="49.86414" lon="4.71083">
        <ele>320</ele>
        <time>2024-05-08T10:51:56Z</time>
      </trkpt>
      <trkpt lat="49.86414" lon="4.71084">
        <ele>319</ele>
        <time>2024-05-08T10:51:57Z</time>
      </trkpt>
      <trkpt lat="49.86415" lon="4.71086">
        <ele>319</ele>
        <time>2024-05-08T10:51:58Z</time>
      </trkpt>
      <trkpt lat="49.86414" lon="4.71087">
        <ele>319</ele>
        <time>2024-05-08T10:51:59Z</time>
      </trkpt>
      <trkpt lat="49.86414" lon="4.71089">
        <ele>319</ele>
        <time>2024-05-08T10:52:00Z</time>
      </trkpt>
      <trkpt lat="49.86414" lon="4.7109">
        <ele>319</ele>
        <time>2024-05-08T10:52:01Z</time>
      </trkpt>
      <trkpt lat="49.86414" lon="4.71092">
        <ele>318</ele>
        <time>2024-05-08T10:52:02Z</time>
      </trkpt>
      <trkpt lat="49.86414" lon="4.71093">
        <ele>318</ele>
        <time>2024-05-08T10:52:03Z</time>
      </trkpt>
      <trkpt lat="49.86413" lon="4.71095">
        <ele>318</ele>
        <time>2024-05-08T10:52:04Z</time>
      </trkpt>
      <trkpt lat="49.86413" lon="4.71096">
        <ele>318</ele>
        <time>2024-05-08T10:52:05Z</time>
      </trkpt>
      <trkpt lat="49.86413" lon="4.71098">
        <ele>318</ele>
        <time>2024-05-08T10:52:06Z</time>
      </trkpt>
      <trkpt lat="49.86412" lon="4.71099">
        <ele>317</ele>
        <time>2024-05-08T10:52:07Z</time>
      </trkpt>
      <trkpt lat="49.86412" lon="4.71101">
        <ele>317</ele>
        <time>2024-05-08T10:52:08Z</time>
      </trkpt>
      <trkpt lat="49.86412" lon="4.71102">
        <ele>317</ele>
        <time>2024-05-08T10:52:09Z</time>
      </trkpt>
      <trkpt lat="49.86412" lon="4.71103">
        <ele>317</ele>
        <time>2024-05-08T10:52:10Z</time>
      </trkpt>
      <trkpt lat="49.86411" lon="4.71105">
        <ele>317</ele>
        <time>2024-05-08T10:52:11Z</time>
      </trkpt>
      <trkpt lat="49.86411" lon="4.71107">
        <ele>316</ele>
        <time>2024-05-08T10:52:12Z</time>
      </trkpt>
      <trkpt lat="49.86411" lon="4.71108">
        <ele>316</ele>
        <time>2024-05-08T10:52:13Z</time>
      </trkpt>
      <trkpt lat="49.86411" lon="4.7111">
        <ele>316</ele>
        <time>2024-05-08T10:52:14Z</time>
      </trkpt>
      <trkpt lat="49.86411" lon="4.7111">
        <ele>316</ele>
        <time>2024-05-08T10:52:15Z</time>
      </trkpt>
      <trkpt lat="49.86411" lon="4.7111">
        <ele>316</ele>
        <time>2024-05-08T10:52:16Z</time>
      </trkpt>
      <trkpt lat="49.86411" lon="4.71111">
        <ele>315</ele>
        <time>2024-05-08T10:52:17Z</time>
      </trkpt>
      <trkpt lat="49.86411" lon="4.71112">
        <ele>315</ele>
        <time>2024-05-08T10:52:18Z</time>
      </trkpt>
      <trkpt lat="49.86412" lon="4.71113">
        <ele>315</ele>
        <time>2024-05-08T10:52:19Z</time>
      </trkpt>
      <trkpt lat="49.86412" lon="4.71114">
        <ele>315</ele>
        <time>2024-05-08T10:52:20Z</time>
      </trkpt>
      <trkpt lat="49.86412" lon="4.71115">
        <ele>315</ele>
        <time>2024-05-08T10:52:21Z</time>
      </trkpt>
      <trkpt lat="49.86412" lon="4.71117">
        <ele>314</ele>
        <time>2024-05-08T10:52:22Z</time>
      </trkpt>
      <trkpt lat="49.86412" lon="4.71118">
        <ele>314</ele>
        <time>2024-05-08T10:52:23Z</time>
      </trkpt>
      <trkpt lat="49.86412" lon="4.7112">
        <ele>313</ele>
        <time>2024-05-08T10:52:24Z</time>
      </trkpt>
      <trkpt lat="49.86412" lon="4.71122">
        <ele>313</ele>
        <time>2024-05-08T10:52:25Z</time>
      </trkpt>
      <trkpt lat="49.86412" lon="4.71124">
        <ele>313</ele>
        <time>2024-05-08T10:52:26Z</time>
      </trkpt>
      <trkpt lat="49.86411" lon="4.71126">
        <ele>313</ele>
        <time>2024-05-08T10:52:27Z</time>
      </trkpt>
      <trkpt lat="49.86411" lon="4.71128">
        <ele>313</ele>
        <time>2024-05-08T10:52:28Z</time>
      </trkpt>
      <trkpt lat="49.86411" lon="4.7113">
        <ele>313</ele>
        <time>2024-05-08T10:52:29Z</time>
      </trkpt>
      <trkpt lat="49.86411" lon="4.71132">
        <ele>313</ele>
        <time>2024-05-08T10:52:30Z</time>
      </trkpt>
      <trkpt lat="49.8641" lon="4.71134">
        <ele>313</ele>
        <time>2024-05-08T10:52:31Z</time>
      </trkpt>
      <trkpt lat="49.8641" lon="4.71135">
        <ele>312</ele>
        <time>2024-05-08T10:52:32Z</time>
      </trkpt>
      <trkpt lat="49.86409" lon="4.71137">
        <ele>312</ele>
        <time>2024-05-08T10:52:33Z</time>
      </trkpt>
      <trkpt lat="49.86409" lon="4.71139">
        <ele>312</ele>
        <time>2024-05-08T10:52:34Z</time>
      </trkpt>
      <trkpt lat="49.86408" lon="4.7114">
        <ele>312</ele>
        <time>2024-05-08T10:52:35Z</time>
      </trkpt>
      <trkpt lat="49.86408" lon="4.71141">
        <ele>312</ele>
        <time>2024-05-08T10:52:36Z</time>
      </trkpt>
      <trkpt lat="49.86408" lon="4.71142">
        <ele>311</ele>
        <time>2024-05-08T10:52:37Z</time>
      </trkpt>
      <trkpt lat="49.86408" lon="4.71144">
        <ele>311</ele>
        <time>2024-05-08T10:52:38Z</time>
      </trkpt>
      <trkpt lat="49.86408" lon="4.71145">
        <ele>311</ele>
        <time>2024-05-08T10:52:39Z</time>
      </trkpt>
      <trkpt lat="49.86408" lon="4.71147">
        <ele>311</ele>
        <time>2024-05-08T10:52:40Z</time>
      </trkpt>
      <trkpt lat="49.86408" lon="4.71148">
        <ele>311</ele>
        <time>2024-05-08T10:52:41Z</time>
      </trkpt>
      <trkpt lat="49.86408" lon="4.71149">
        <ele>310</ele>
        <time>2024-05-08T10:52:42Z</time>
      </trkpt>
      <trkpt lat="49.86408" lon="4.71151">
        <ele>310</ele>
        <time>2024-05-08T10:52:43Z</time>
      </trkpt>
      <trkpt lat="49.86408" lon="4.71152">
        <ele>310</ele>
        <time>2024-05-08T10:52:44Z</time>
      </trkpt>
      <trkpt lat="49.86408" lon="4.71154">
        <ele>310</ele>
        <time>2024-05-08T10:52:45Z</time>
      </trkpt>
      <trkpt lat="49.86408" lon="4.71155">
        <ele>310</ele>
        <time>2024-05-08T10:52:46Z</time>
      </trkpt>
      <trkpt lat="49.86408" lon="4.71157">
        <ele>309</ele>
        <time>2024-05-08T10:52:47Z</time>
      </trkpt>
      <trkpt lat="49.86407" lon="4.71158">
        <ele>309</ele>
        <time>2024-05-08T10:52:48Z</time>
      </trkpt>
      <trkpt lat="49.86407" lon="4.71159">
        <ele>309</ele>
        <time>2024-05-08T10:52:49Z</time>
      </trkpt>
      <trkpt lat="49.86407" lon="4.7116">
        <ele>309</ele>
        <time>2024-05-08T10:52:50Z</time>
      </trkpt>
      <trkpt lat="49.86407" lon="4.71161">
        <ele>309</ele>
        <time>2024-05-08T10:52:51Z</time>
      </trkpt>
      <trkpt lat="49.86406" lon="4.71162">
        <ele>309</ele>
        <time>2024-05-08T10:52:52Z</time>
      </trkpt>
      <trkpt lat="49.86406" lon="4.71164">
        <ele>309</ele>
        <time>2024-05-08T10:52:53Z</time>
      </trkpt>
      <trkpt lat="49.86405" lon="4.71165">
        <ele>309</ele>
        <time>2024-05-08T10:52:54Z</time>
      </trkpt>
      <trkpt lat="49.86405" lon="4.71166">
        <ele>309</ele>
        <time>2024-05-08T10:52:55Z</time>
      </trkpt>
      <trkpt lat="49.86405" lon="4.71167">
        <ele>309</ele>
        <time>2024-05-08T10:52:56Z</time>
      </trkpt>
      <trkpt lat="49.86404" lon="4.71168">
        <ele>309</ele>
        <time>2024-05-08T10:52:57Z</time>
      </trkpt>
      <trkpt lat="49.86404" lon="4.71169">
        <ele>309</ele>
        <time>2024-05-08T10:52:58Z</time>
      </trkpt>
      <trkpt lat="49.86403" lon="4.71171">
        <ele>309</ele>
        <time>2024-05-08T10:52:59Z</time>
      </trkpt>
      <trkpt lat="49.86403" lon="4.71172">
        <ele>309</ele>
        <time>2024-05-08T10:53:00Z</time>
      </trkpt>
      <trkpt lat="49.86402" lon="4.71174">
        <ele>309</ele>
        <time>2024-05-08T10:53:01Z</time>
      </trkpt>
      <trkpt lat="49.86402" lon="4.71176">
        <ele>309</ele>
        <time>2024-05-08T10:53:02Z</time>
      </trkpt>
      <trkpt lat="49.86402" lon="4.71177">
        <ele>309</ele>
        <time>2024-05-08T10:53:03Z</time>
      </trkpt>
      <trkpt lat="49.86402" lon="4.71179">
        <ele>309</ele>
        <time>2024-05-08T10:53:04Z</time>
      </trkpt>
      <trkpt lat="49.86401" lon="4.71181">
        <ele>309</ele>
        <time>2024-05-08T10:53:05Z</time>
      </trkpt>
      <trkpt lat="49.86401" lon="4.71182">
        <ele>309</ele>
        <time>2024-05-08T10:53:06Z</time>
      </trkpt>
      <trkpt lat="49.86401" lon="4.71184">
        <ele>308</ele>
        <time>2024-05-08T10:53:07Z</time>
      </trkpt>
      <trkpt lat="49.864" lon="4.71185">
        <ele>308</ele>
        <time>2024-05-08T10:53:08Z</time>
      </trkpt>
      <trkpt lat="49.864" lon="4.71186">
        <ele>307</ele>
        <time>2024-05-08T10:53:09Z</time>
      </trkpt>
      <trkpt lat="49.86399" lon="4.71188">
        <ele>307</ele>
        <time>2024-05-08T10:53:10Z</time>
      </trkpt>
      <trkpt lat="49.86399" lon="4.71189">
        <ele>307</ele>
        <time>2024-05-08T10:53:11Z</time>
      </trkpt>
      <trkpt lat="49.86398" lon="4.71191">
        <ele>307</ele>
        <time>2024-05-08T10:53:12Z</time>
      </trkpt>
      <trkpt lat="49.86398" lon="4.71192">
        <ele>307</ele>
        <time>2024-05-08T10:53:13Z</time>
      </trkpt>
      <trkpt lat="49.86397" lon="4.71194">
        <ele>307</ele>
        <time>2024-05-08T10:53:14Z</time>
      </trkpt>
      <trkpt lat="49.86397" lon="4.71196">
        <ele>307</ele>
        <time>2024-05-08T10:53:15Z</time>
      </trkpt>
      <trkpt lat="49.86396" lon="4.71198">
        <ele>307</ele>
        <time>2024-05-08T10:53:16Z</time>
      </trkpt>
      <trkpt lat="49.86396" lon="4.712">
        <ele>307</ele>
        <time>2024-05-08T10:53:17Z</time>
      </trkpt>
      <trkpt lat="49.86396" lon="4.71202">
        <ele>307</ele>
        <time>2024-05-08T10:53:18Z</time>
      </trkpt>
      <trkpt lat="49.86395" lon="4.71203">
        <ele>307</ele>
        <time>2024-05-08T10:53:19Z</time>
      </trkpt>
      <trkpt lat="49.86395" lon="4.71205">
        <ele>307</ele>
        <time>2024-05-08T10:53:20Z</time>
      </trkpt>
      <trkpt lat="49.86394" lon="4.71207">
        <ele>307</ele>
        <time>2024-05-08T10:53:21Z</time>
      </trkpt>
      <trkpt lat="49.86392" lon="4.71209">
        <ele>307</ele>
        <time>2024-05-08T10:53:22Z</time>
      </trkpt>
      <trkpt lat="49.86391" lon="4.71211">
        <ele>307</ele>
        <time>2024-05-08T10:53:23Z</time>
      </trkpt>
      <trkpt lat="49.86389" lon="4.71213">
        <ele>307</ele>
        <time>2024-05-08T10:53:24Z</time>
      </trkpt>
      <trkpt lat="49.86388" lon="4.71214">
        <ele>307</ele>
        <time>2024-05-08T10:53:25Z</time>
      </trkpt>
      <trkpt lat="49.86387" lon="4.71217">
        <ele>307</ele>
        <time>2024-05-08T10:53:26Z</time>
      </trkpt>
      <trkpt lat="49.86386" lon="4.71219">
        <ele>307</ele>
        <time>2024-05-08T10:53:27Z</time>
      </trkpt>
      <trkpt lat="49.86386" lon="4.71221">
        <ele>307</ele>
        <time>2024-05-08T10:53:28Z</time>
      </trkpt>
      <trkpt lat="49.86386" lon="4.71224">
        <ele>308</ele>
        <time>2024-05-08T10:53:29Z</time>
      </trkpt>
      <trkpt lat="49.86386" lon="4.71226">
        <ele>308</ele>
        <time>2024-05-08T10:53:30Z</time>
      </trkpt>
      <trkpt lat="49.86386" lon="4.71228">
        <ele>309</ele>
        <time>2024-05-08T10:53:31Z</time>
      </trkpt>
      <trkpt lat="49.86386" lon="4.7123">
        <ele>308</ele>
        <time>2024-05-08T10:53:32Z</time>
      </trkpt>
      <trkpt lat="49.86386" lon="4.71232">
        <ele>308</ele>
        <time>2024-05-08T10:53:33Z</time>
      </trkpt>
      <trkpt lat="49.86386" lon="4.71233">
        <ele>307</ele>
        <time>2024-05-08T10:53:34Z</time>
      </trkpt>
      <trkpt lat="49.86386" lon="4.71235">
        <ele>307</ele>
        <time>2024-05-08T10:53:35Z</time>
      </trkpt>
      <trkpt lat="49.86385" lon="4.71236">
        <ele>307</ele>
        <time>2024-05-08T10:53:36Z</time>
      </trkpt>
      <trkpt lat="49.86385" lon="4.71238">
        <ele>307</ele>
        <time>2024-05-08T10:53:37Z</time>
      </trkpt>
      <trkpt lat="49.86384" lon="4.71239">
        <ele>307</ele>
        <time>2024-05-08T10:53:38Z</time>
      </trkpt>
      <trkpt lat="49.86384" lon="4.71241">
        <ele>308</ele>
        <time>2024-05-08T10:53:39Z</time>
      </trkpt>
      <trkpt lat="49.86383" lon="4.71242">
        <ele>308</ele>
        <time>2024-05-08T10:53:40Z</time>
      </trkpt>
      <trkpt lat="49.86383" lon="4.71243">
        <ele>309</ele>
        <time>2024-05-08T10:53:41Z</time>
      </trkpt>
      <trkpt lat="49.86383" lon="4.71244">
        <ele>309</ele>
        <time>2024-05-08T10:53:42Z</time>
      </trkpt>
      <trkpt lat="49.86383" lon="4.71245">
        <ele>309</ele>
        <time>2024-05-08T10:53:43Z</time>
      </trkpt>
      <trkpt lat="49.86382" lon="4.71246">
        <ele>309</ele>
        <time>2024-05-08T10:53:44Z</time>
      </trkpt>
      <trkpt lat="49.86382" lon="4.71247">
        <ele>309</ele>
        <time>2024-05-08T10:53:45Z</time>
      </trkpt>
      <trkpt lat="49.86382" lon="4.71248">
        <ele>309</ele>
        <time>2024-05-08T10:53:46Z</time>
      </trkpt>
      <trkpt lat="49.86381" lon="4.71249">
        <ele>308</ele>
        <time>2024-05-08T10:53:47Z</time>
      </trkpt>
      <trkpt lat="49.86381" lon="4.7125">
        <ele>308</ele>
        <time>2024-05-08T10:53:48Z</time>
      </trkpt>
      <trkpt lat="49.86381" lon="4.71252">
        <ele>307</ele>
        <time>2024-05-08T10:53:49Z</time>
      </trkpt>
      <trkpt lat="49.8638" lon="4.71253">
        <ele>307</ele>
        <time>2024-05-08T10:53:50Z</time>
      </trkpt>
      <trkpt lat="49.8638" lon="4.71254">
        <ele>307</ele>
        <time>2024-05-08T10:53:51Z</time>
      </trkpt>
      <trkpt lat="49.8638" lon="4.71255">
        <ele>307</ele>
        <time>2024-05-08T10:53:52Z</time>
      </trkpt>
      <trkpt lat="49.86379" lon="4.71257">
        <ele>307</ele>
        <time>2024-05-08T10:53:53Z</time>
      </trkpt>
      <trkpt lat="49.86379" lon="4.71258">
        <ele>307</ele>
        <time>2024-05-08T10:53:54Z</time>
      </trkpt>
      <trkpt lat="49.86379" lon="4.7126">
        <ele>308</ele>
        <time>2024-05-08T10:54:09Z</time>
      </trkpt>
      <trkpt lat="49.86378" lon="4.71261">
        <ele>308</ele>
        <time>2024-05-08T10:54:10Z</time>
      </trkpt>
      <trkpt lat="49.86378" lon="4.71262">
        <ele>309</ele>
        <time>2024-05-08T10:54:11Z</time>
      </trkpt>
      <trkpt lat="49.86378" lon="4.71264">
        <ele>309</ele>
        <time>2024-05-08T10:54:12Z</time>
      </trkpt>
      <trkpt lat="49.86377" lon="4.71265">
        <ele>309</ele>
        <time>2024-05-08T10:54:13Z</time>
      </trkpt>
      <trkpt lat="49.86377" lon="4.71267">
        <ele>309</ele>
        <time>2024-05-08T10:54:14Z</time>
      </trkpt>
      <trkpt lat="49.86377" lon="4.71268">
        <ele>309</ele>
        <time>2024-05-08T10:54:15Z</time>
      </trkpt>
      <trkpt lat="49.86377" lon="4.7127">
        <ele>309</ele>
        <time>2024-05-08T10:54:16Z</time>
      </trkpt>
      <trkpt lat="49.86377" lon="4.71272">
        <ele>309</ele>
        <time>2024-05-08T10:54:17Z</time>
      </trkpt>
      <trkpt lat="49.86376" lon="4.71274">
        <ele>309</ele>
        <time>2024-05-08T10:54:18Z</time>
      </trkpt>
      <trkpt lat="49.86376" lon="4.71275">
        <ele>309</ele>
        <time>2024-05-08T10:54:19Z</time>
      </trkpt>
      <trkpt lat="49.86376" lon="4.71277">
        <ele>309</ele>
        <time>2024-05-08T10:54:20Z</time>
      </trkpt>
      <trkpt lat="49.86376" lon="4.71278">
        <ele>309</ele>
        <time>2024-05-08T10:54:21Z</time>
      </trkpt>
      <trkpt lat="49.86376" lon="4.71279">
        <ele>309</ele>
        <time>2024-05-08T10:54:22Z</time>
      </trkpt>
      <trkpt lat="49.86376" lon="4.7128">
        <ele>309</ele>
        <time>2024-05-08T10:54:23Z</time>
      </trkpt>
      <trkpt lat="49.86376" lon="4.71282">
        <ele>309</ele>
        <time>2024-05-08T10:54:24Z</time>
      </trkpt>
      <trkpt lat="49.86376" lon="4.71283">
        <ele>309</ele>
        <time>2024-05-08T10:54:25Z</time>
      </trkpt>
      <trkpt lat="49.86376" lon="4.71284">
        <ele>309</ele>
        <time>2024-05-08T10:54:26Z</time>
      </trkpt>
      <trkpt lat="49.86375" lon="4.71286">
        <ele>309</ele>
        <time>2024-05-08T10:54:27Z</time>
      </trkpt>
      <trkpt lat="49.86375" lon="4.71288">
        <ele>309</ele>
        <time>2024-05-08T10:54:28Z</time>
      </trkpt>
      <trkpt lat="49.86374" lon="4.71289">
        <ele>309</ele>
        <time>2024-05-08T10:54:29Z</time>
      </trkpt>
      <trkpt lat="49.86374" lon="4.71291">
        <ele>309</ele>
        <time>2024-05-08T10:54:30Z</time>
      </trkpt>
      <trkpt lat="49.86373" lon="4.71293">
        <ele>310</ele>
        <time>2024-05-08T10:54:31Z</time>
      </trkpt>
      <trkpt lat="49.86373" lon="4.71295">
        <ele>310</ele>
        <time>2024-05-08T10:54:32Z</time>
      </trkpt>
      <trkpt lat="49.86372" lon="4.71297">
        <ele>310</ele>
        <time>2024-05-08T10:54:33Z</time>
      </trkpt>
      <trkpt lat="49.86371" lon="4.71298">
        <ele>310</ele>
        <time>2024-05-08T10:54:34Z</time>
      </trkpt>
      <trkpt lat="49.8637" lon="4.71299">
        <ele>310</ele>
        <time>2024-05-08T10:54:35Z</time>
      </trkpt>
      <trkpt lat="49.8637" lon="4.71301">
        <ele>311</ele>
        <time>2024-05-08T10:54:36Z</time>
      </trkpt>
      <trkpt lat="49.86369" lon="4.71302">
        <ele>311</ele>
        <time>2024-05-08T10:54:37Z</time>
      </trkpt>
      <trkpt lat="49.86368" lon="4.71303">
        <ele>311</ele>
        <time>2024-05-08T10:54:38Z</time>
      </trkpt>
      <trkpt lat="49.86368" lon="4.71304">
        <ele>311</ele>
        <time>2024-05-08T10:54:39Z</time>
      </trkpt>
      <trkpt lat="49.86368" lon="4.71305">
        <ele>311</ele>
        <time>2024-05-08T10:54:40Z</time>
      </trkpt>
      <trkpt lat="49.86368" lon="4.71306">
        <ele>311</ele>
        <time>2024-05-08T10:54:41Z</time>
      </trkpt>
      <trkpt lat="49.86367" lon="4.71308">
        <ele>311</ele>
        <time>2024-05-08T10:54:42Z</time>
      </trkpt>
      <trkpt lat="49.86367" lon="4.71309">
        <ele>311</ele>
        <time>2024-05-08T10:54:43Z</time>
      </trkpt>
      <trkpt lat="49.86367" lon="4.71311">
        <ele>311</ele>
        <time>2024-05-08T10:54:44Z</time>
      </trkpt>
      <trkpt lat="49.86367" lon="4.71312">
        <ele>311</ele>
        <time>2024-05-08T10:54:45Z</time>
      </trkpt>
      <trkpt lat="49.86367" lon="4.71315">
        <ele>311</ele>
        <time>2024-05-08T10:54:46Z</time>
      </trkpt>
      <trkpt lat="49.86367" lon="4.71317">
        <ele>311</ele>
        <time>2024-05-08T10:54:47Z</time>
      </trkpt>
      <trkpt lat="49.86367" lon="4.71319">
        <ele>311</ele>
        <time>2024-05-08T10:54:48Z</time>
      </trkpt>
      <trkpt lat="49.86367" lon="4.71321">
        <ele>311</ele>
        <time>2024-05-08T10:54:49Z</time>
      </trkpt>
      <trkpt lat="49.86366" lon="4.71323">
        <ele>311</ele>
        <time>2024-05-08T10:54:50Z</time>
      </trkpt>
      <trkpt lat="49.86366" lon="4.71325">
        <ele>311</ele>
        <time>2024-05-08T10:54:51Z</time>
      </trkpt>
      <trkpt lat="49.86366" lon="4.71326">
        <ele>311</ele>
        <time>2024-05-08T10:54:52Z</time>
      </trkpt>
      <trkpt lat="49.86365" lon="4.71328">
        <ele>311</ele>
        <time>2024-05-08T10:54:53Z</time>
      </trkpt>
      <trkpt lat="49.86365" lon="4.71329">
        <ele>311</ele>
        <time>2024-05-08T10:54:54Z</time>
      </trkpt>
      <trkpt lat="49.86364" lon="4.7133">
        <ele>311</ele>
        <time>2024-05-08T10:54:55Z</time>
      </trkpt>
      <trkpt lat="49.86364" lon="4.71332">
        <ele>311</ele>
        <time>2024-05-08T10:54:56Z</time>
      </trkpt>
      <trkpt lat="49.86363" lon="4.71333">
        <ele>311</ele>
        <time>2024-05-08T10:54:57Z</time>
      </trkpt>
      <trkpt lat="49.86363" lon="4.71335">
        <ele>311</ele>
        <time>2024-05-08T10:54:58Z</time>
      </trkpt>
      <trkpt lat="49.86363" lon="4.71336">
        <ele>311</ele>
        <time>2024-05-08T10:54:59Z</time>
      </trkpt>
      <trkpt lat="49.86363" lon="4.71337">
        <ele>311</ele>
        <time>2024-05-08T10:55:00Z</time>
      </trkpt>
      <trkpt lat="49.86363" lon="4.71339">
        <ele>311</ele>
        <time>2024-05-08T10:55:01Z</time>
      </trkpt>
      <trkpt lat="49.86363" lon="4.7134">
        <ele>311</ele>
        <time>2024-05-08T10:55:02Z</time>
      </trkpt>
      <trkpt lat="49.86364" lon="4.71342">
        <ele>311</ele>
        <time>2024-05-08T10:55:03Z</time>
      </trkpt>
      <trkpt lat="49.86363" lon="4.71343">
        <ele>311</ele>
        <time>2024-05-08T10:55:04Z</time>
      </trkpt>
      <trkpt lat="49.86363" lon="4.71345">
        <ele>311</ele>
        <time>2024-05-08T10:55:05Z</time>
      </trkpt>
      <trkpt lat="49.86363" lon="4.71347">
        <ele>311</ele>
        <time>2024-05-08T10:55:06Z</time>
      </trkpt>
      <trkpt lat="49.86363" lon="4.71349">
        <ele>310</ele>
        <time>2024-05-08T10:55:07Z</time>
      </trkpt>
      <trkpt lat="49.86363" lon="4.7135">
        <ele>310</ele>
        <time>2024-05-08T10:55:08Z</time>
      </trkpt>
      <trkpt lat="49.86363" lon="4.71352">
        <ele>310</ele>
        <time>2024-05-08T10:55:09Z</time>
      </trkpt>
      <trkpt lat="49.86362" lon="4.71354">
        <ele>310</ele>
        <time>2024-05-08T10:55:10Z</time>
      </trkpt>
      <trkpt lat="49.86362" lon="4.71355">
        <ele>310</ele>
        <time>2024-05-08T10:55:11Z</time>
      </trkpt>
      <trkpt lat="49.86362" lon="4.71357">
        <ele>309</ele>
        <time>2024-05-08T10:55:12Z</time>
      </trkpt>
      <trkpt lat="49.86362" lon="4.71358">
        <ele>309</ele>
        <time>2024-05-08T10:55:13Z</time>
      </trkpt>
      <trkpt lat="49.86362" lon="4.71359">
        <ele>309</ele>
        <time>2024-05-08T10:55:14Z</time>
      </trkpt>
      <trkpt lat="49.86362" lon="4.71361">
        <ele>309</ele>
        <time>2024-05-08T10:55:15Z</time>
      </trkpt>
      <trkpt lat="49.86362" lon="4.71362">
        <ele>309</ele>
        <time>2024-05-08T10:55:16Z</time>
      </trkpt>
      <trkpt lat="49.86362" lon="4.71363">
        <ele>309</ele>
        <time>2024-05-08T10:55:17Z</time>
      </trkpt>
      <trkpt lat="49.86362" lon="4.71364">
        <ele>309</ele>
        <time>2024-05-08T10:55:18Z</time>
      </trkpt>
      <trkpt lat="49.86362" lon="4.71366">
        <ele>309</ele>
        <time>2024-05-08T10:55:19Z</time>
      </trkpt>
      <trkpt lat="49.86361" lon="4.71368">
        <ele>309</ele>
        <time>2024-05-08T10:55:20Z</time>
      </trkpt>
      <trkpt lat="49.86361" lon="4.7137">
        <ele>309</ele>
        <time>2024-05-08T10:55:21Z</time>
      </trkpt>
      <trkpt lat="49.8636" lon="4.71372">
        <ele>309</ele>
        <time>2024-05-08T10:55:22Z</time>
      </trkpt>
      <trkpt lat="49.8636" lon="4.71373">
        <ele>309</ele>
        <time>2024-05-08T10:55:23Z</time>
      </trkpt>
      <trkpt lat="49.86359" lon="4.71375">
        <ele>309</ele>
        <time>2024-05-08T10:55:24Z</time>
      </trkpt>
      <trkpt lat="49.86359" lon="4.71376">
        <ele>309</ele>
        <time>2024-05-08T10:55:25Z</time>
      </trkpt>
      <trkpt lat="49.86359" lon="4.71377">
        <ele>309</ele>
        <time>2024-05-08T10:55:26Z</time>
      </trkpt>
      <trkpt lat="49.86359" lon="4.71379">
        <ele>309</ele>
        <time>2024-05-08T10:55:27Z</time>
      </trkpt>
      <trkpt lat="49.86359" lon="4.7138">
        <ele>309</ele>
        <time>2024-05-08T10:55:28Z</time>
      </trkpt>
      <trkpt lat="49.86358" lon="4.71381">
        <ele>309</ele>
        <time>2024-05-08T10:55:29Z</time>
      </trkpt>
      <trkpt lat="49.86358" lon="4.71383">
        <ele>309</ele>
        <time>2024-05-08T10:55:30Z</time>
      </trkpt>
      <trkpt lat="49.86358" lon="4.71384">
        <ele>309</ele>
        <time>2024-05-08T10:55:31Z</time>
      </trkpt>
      <trkpt lat="49.86358" lon="4.71386">
        <ele>309</ele>
        <time>2024-05-08T10:55:32Z</time>
      </trkpt>
      <trkpt lat="49.86359" lon="4.71388">
        <ele>309</ele>
        <time>2024-05-08T10:55:33Z</time>
      </trkpt>
      <trkpt lat="49.86359" lon="4.71391">
        <ele>309</ele>
        <time>2024-05-08T10:55:34Z</time>
      </trkpt>
      <trkpt lat="49.86358" lon="4.71393">
        <ele>309</ele>
        <time>2024-05-08T10:55:35Z</time>
      </trkpt>
      <trkpt lat="49.86358" lon="4.71396">
        <ele>309</ele>
        <time>2024-05-08T10:55:36Z</time>
      </trkpt>
      <trkpt lat="49.86358" lon="4.71398">
        <ele>308</ele>
        <time>2024-05-08T10:55:37Z</time>
      </trkpt>
      <trkpt lat="49.86358" lon="4.714">
        <ele>308</ele>
        <time>2024-05-08T10:55:38Z</time>
      </trkpt>
      <trkpt lat="49.86357" lon="4.71402">
        <ele>307</ele>
        <time>2024-05-08T10:55:39Z</time>
      </trkpt>
      <trkpt lat="49.86357" lon="4.71404">
        <ele>307</ele>
        <time>2024-05-08T10:55:40Z</time>
      </trkpt>
      <trkpt lat="49.86357" lon="4.71405">
        <ele>307</ele>
        <time>2024-05-08T10:55:41Z</time>
      </trkpt>
      <trkpt lat="49.86356" lon="4.71407">
        <ele>307</ele>
        <time>2024-05-08T10:55:42Z</time>
      </trkpt>
      <trkpt lat="49.86356" lon="4.71409">
        <ele>307</ele>
        <time>2024-05-08T10:55:43Z</time>
      </trkpt>
      <trkpt lat="49.86356" lon="4.7141">
        <ele>308</ele>
        <time>2024-05-08T10:55:44Z</time>
      </trkpt>
      <trkpt lat="49.86356" lon="4.71412">
        <ele>308</ele>
        <time>2024-05-08T10:55:45Z</time>
      </trkpt>
      <trkpt lat="49.86356" lon="4.71414">
        <ele>309</ele>
        <time>2024-05-08T10:55:46Z</time>
      </trkpt>
      <trkpt lat="49.86356" lon="4.71415">
        <ele>309</ele>
        <time>2024-05-08T10:55:47Z</time>
      </trkpt>
      <trkpt lat="49.86356" lon="4.71416">
        <ele>309</ele>
        <time>2024-05-08T10:55:48Z</time>
      </trkpt>
      <trkpt lat="49.86356" lon="4.71417">
        <ele>309</ele>
        <time>2024-05-08T10:55:49Z</time>
      </trkpt>
      <trkpt lat="49.86356" lon="4.71419">
        <ele>309</ele>
        <time>2024-05-08T10:55:50Z</time>
      </trkpt>
      <trkpt lat="49.86356" lon="4.71421">
        <ele>309</ele>
        <time>2024-05-08T10:55:51Z</time>
      </trkpt>
      <trkpt lat="49.86356" lon="4.71422">
        <ele>308</ele>
        <time>2024-05-08T10:55:52Z</time>
      </trkpt>
      <trkpt lat="49.86356" lon="4.71423">
        <ele>308</ele>
        <time>2024-05-08T10:55:53Z</time>
      </trkpt>
      <trkpt lat="49.86356" lon="4.71425">
        <ele>307</ele>
        <time>2024-05-08T10:55:54Z</time>
      </trkpt>
      <trkpt lat="49.86356" lon="4.71427">
        <ele>307</ele>
        <time>2024-05-08T10:55:55Z</time>
      </trkpt>
      <trkpt lat="49.86356" lon="4.71429">
        <ele>307</ele>
        <time>2024-05-08T10:55:56Z</time>
      </trkpt>
      <trkpt lat="49.86356" lon="4.71431">
        <ele>307</ele>
        <time>2024-05-08T10:55:57Z</time>
      </trkpt>
      <trkpt lat="49.86355" lon="4.71434">
        <ele>307</ele>
        <time>2024-05-08T10:55:58Z</time>
      </trkpt>
      <trkpt lat="49.86355" lon="4.71436">
        <ele>307</ele>
        <time>2024-05-08T10:55:59Z</time>
      </trkpt>
      <trkpt lat="49.86355" lon="4.71438">
        <ele>307</ele>
        <time>2024-05-08T10:56:00Z</time>
      </trkpt>
      <trkpt lat="49.86355" lon="4.7144">
        <ele>307</ele>
        <time>2024-05-08T10:56:01Z</time>
      </trkpt>
      <trkpt lat="49.86355" lon="4.71443">
        <ele>307</ele>
        <time>2024-05-08T10:56:02Z</time>
      </trkpt>
      <trkpt lat="49.86355" lon="4.71445">
        <ele>307</ele>
        <time>2024-05-08T10:56:03Z</time>
      </trkpt>
      <trkpt lat="49.86355" lon="4.71447">
        <ele>307</ele>
        <time>2024-05-08T10:56:04Z</time>
      </trkpt>
      <trkpt lat="49.86354" lon="4.7145">
        <ele>307</ele>
        <time>2024-05-08T10:56:05Z</time>
      </trkpt>
      <trkpt lat="49.86354" lon="4.71451">
        <ele>307</ele>
        <time>2024-05-08T10:56:06Z</time>
      </trkpt>
      <trkpt lat="49.86354" lon="4.71452">
        <ele>306</ele>
        <time>2024-05-08T10:56:07Z</time>
      </trkpt>
      <trkpt lat="49.86354" lon="4.71453">
        <ele>306</ele>
        <time>2024-05-08T10:56:08Z</time>
      </trkpt>
      <trkpt lat="49.86353" lon="4.71454">
        <ele>306</ele>
        <time>2024-05-08T10:56:09Z</time>
      </trkpt>
      <trkpt lat="49.86353" lon="4.71455">
        <ele>306</ele>
        <time>2024-05-08T10:56:10Z</time>
      </trkpt>
      <trkpt lat="49.86353" lon="4.71456">
        <ele>306</ele>
        <time>2024-05-08T10:56:11Z</time>
      </trkpt>
      <trkpt lat="49.86353" lon="4.71457">
        <ele>306</ele>
        <time>2024-05-08T10:56:12Z</time>
      </trkpt>
      <trkpt lat="49.86352" lon="4.71459">
        <ele>306</ele>
        <time>2024-05-08T10:56:13Z</time>
      </trkpt>
      <trkpt lat="49.86352" lon="4.7146">
        <ele>306</ele>
        <time>2024-05-08T10:56:14Z</time>
      </trkpt>
      <trkpt lat="49.86351" lon="4.71461">
        <ele>306</ele>
        <time>2024-05-08T10:56:15Z</time>
      </trkpt>
      <trkpt lat="49.86351" lon="4.71463">
        <ele>306</ele>
        <time>2024-05-08T10:56:16Z</time>
      </trkpt>
      <trkpt lat="49.86351" lon="4.71464">
        <ele>306</ele>
        <time>2024-05-08T10:56:17Z</time>
      </trkpt>
      <trkpt lat="49.86351" lon="4.71465">
        <ele>306</ele>
        <time>2024-05-08T10:56:18Z</time>
      </trkpt>
      <trkpt lat="49.8635" lon="4.71466">
        <ele>306</ele>
        <time>2024-05-08T10:56:19Z</time>
      </trkpt>
      <trkpt lat="49.8635" lon="4.71467">
        <ele>306</ele>
        <time>2024-05-08T10:56:20Z</time>
      </trkpt>
      <trkpt lat="49.8635" lon="4.71469">
        <ele>307</ele>
        <time>2024-05-08T10:56:21Z</time>
      </trkpt>
      <trkpt lat="49.8635" lon="4.7147">
        <ele>307</ele>
        <time>2024-05-08T10:56:22Z</time>
      </trkpt>
      <trkpt lat="49.8635" lon="4.71471">
        <ele>307</ele>
        <time>2024-05-08T10:56:23Z</time>
      </trkpt>
      <trkpt lat="49.86349" lon="4.71473">
        <ele>307</ele>
        <time>2024-05-08T10:56:24Z</time>
      </trkpt>
      <trkpt lat="49.86349" lon="4.71475">
        <ele>307</ele>
        <time>2024-05-08T10:56:25Z</time>
      </trkpt>
      <trkpt lat="49.86349" lon="4.71476">
        <ele>307</ele>
        <time>2024-05-08T10:56:26Z</time>
      </trkpt>
      <trkpt lat="49.86348" lon="4.71477">
        <ele>307</ele>
        <time>2024-05-08T10:56:27Z</time>
      </trkpt>
      <trkpt lat="49.86348" lon="4.71479">
        <ele>307</ele>
        <time>2024-05-08T10:56:28Z</time>
      </trkpt>
      <trkpt lat="49.86347" lon="4.7148">
        <ele>307</ele>
        <time>2024-05-08T10:56:29Z</time>
      </trkpt>
      <trkpt lat="49.86346" lon="4.71482">
        <ele>307</ele>
        <time>2024-05-08T10:56:30Z</time>
      </trkpt>
      <trkpt lat="49.86345" lon="4.71483">
        <ele>307</ele>
        <time>2024-05-08T10:56:31Z</time>
      </trkpt>
      <trkpt lat="49.86345" lon="4.71485">
        <ele>307</ele>
        <time>2024-05-08T10:56:32Z</time>
      </trkpt>
      <trkpt lat="49.86344" lon="4.71486">
        <ele>307</ele>
        <time>2024-05-08T10:56:33Z</time>
      </trkpt>
      <trkpt lat="49.86344" lon="4.71488">
        <ele>307</ele>
        <time>2024-05-08T10:56:34Z</time>
      </trkpt>
      <trkpt lat="49.86344" lon="4.71489">
        <ele>307</ele>
        <time>2024-05-08T10:56:35Z</time>
      </trkpt>
      <trkpt lat="49.86343" lon="4.7149">
        <ele>307</ele>
        <time>2024-05-08T10:56:36Z</time>
      </trkpt>
      <trkpt lat="49.86343" lon="4.71491">
        <ele>307</ele>
        <time>2024-05-08T10:56:37Z</time>
      </trkpt>
      <trkpt lat="49.86343" lon="4.71492">
        <ele>307</ele>
        <time>2024-05-08T10:56:38Z</time>
      </trkpt>
      <trkpt lat="49.86342" lon="4.71493">
        <ele>308</ele>
        <time>2024-05-08T10:56:39Z</time>
      </trkpt>
      <trkpt lat="49.86341" lon="4.71494">
        <ele>308</ele>
        <time>2024-05-08T10:56:40Z</time>
      </trkpt>
      <trkpt lat="49.86341" lon="4.71494">
        <ele>309</ele>
        <time>2024-05-08T10:56:41Z</time>
      </trkpt>
      <trkpt lat="49.8634" lon="4.71495">
        <ele>309</ele>
        <time>2024-05-08T10:56:42Z</time>
      </trkpt>
      <trkpt lat="49.86339" lon="4.71497">
        <ele>309</ele>
        <time>2024-05-08T10:56:43Z</time>
      </trkpt>
      <trkpt lat="49.86338" lon="4.71498">
        <ele>309</ele>
        <time>2024-05-08T10:56:44Z</time>
      </trkpt>
      <trkpt lat="49.86338" lon="4.715">
        <ele>309</ele>
        <time>2024-05-08T10:56:45Z</time>
      </trkpt>
      <trkpt lat="49.86337" lon="4.71501">
        <ele>309</ele>
        <time>2024-05-08T10:56:46Z</time>
      </trkpt>
      <trkpt lat="49.86337" lon="4.71503">
        <ele>309</ele>
        <time>2024-05-08T10:56:47Z</time>
      </trkpt>
      <trkpt lat="49.86336" lon="4.71505">
        <ele>309</ele>
        <time>2024-05-08T10:56:48Z</time>
      </trkpt>
      <trkpt lat="49.86335" lon="4.71507">
        <ele>309</ele>
        <time>2024-05-08T10:56:49Z</time>
      </trkpt>
      <trkpt lat="49.86334" lon="4.71508">
        <ele>309</ele>
        <time>2024-05-08T10:56:50Z</time>
      </trkpt>
      <trkpt lat="49.86333" lon="4.7151">
        <ele>310</ele>
        <time>2024-05-08T10:56:51Z</time>
      </trkpt>
      <trkpt lat="49.86333" lon="4.71512">
        <ele>310</ele>
        <time>2024-05-08T10:56:52Z</time>
      </trkpt>
      <trkpt lat="49.86332" lon="4.71514">
        <ele>310</ele>
        <time>2024-05-08T10:56:53Z</time>
      </trkpt>
      <trkpt lat="49.86331" lon="4.71516">
        <ele>310</ele>
        <time>2024-05-08T10:56:54Z</time>
      </trkpt>
      <trkpt lat="49.86331" lon="4.71518">
        <ele>310</ele>
        <time>2024-05-08T10:56:55Z</time>
      </trkpt>
      <trkpt lat="49.8633" lon="4.7152">
        <ele>310</ele>
        <time>2024-05-08T10:56:56Z</time>
      </trkpt>
      <trkpt lat="49.8633" lon="4.71522">
        <ele>310</ele>
        <time>2024-05-08T10:56:57Z</time>
      </trkpt>
      <trkpt lat="49.86329" lon="4.71524">
        <ele>310</ele>
        <time>2024-05-08T10:56:58Z</time>
      </trkpt>
      <trkpt lat="49.86328" lon="4.71526">
        <ele>310</ele>
        <time>2024-05-08T10:56:59Z</time>
      </trkpt>
      <trkpt lat="49.86327" lon="4.71527">
        <ele>310</ele>
        <time>2024-05-08T10:57:00Z</time>
      </trkpt>
      <trkpt lat="49.86327" lon="4.71528">
        <ele>311</ele>
        <time>2024-05-08T10:57:01Z</time>
      </trkpt>
      <trkpt lat="49.86327" lon="4.71529">
        <ele>311</ele>
        <time>2024-05-08T10:57:02Z</time>
      </trkpt>
      <trkpt lat="49.86326" lon="4.7153">
        <ele>311</ele>
        <time>2024-05-08T10:57:03Z</time>
      </trkpt>
      <trkpt lat="49.86326" lon="4.71532">
        <ele>311</ele>
        <time>2024-05-08T10:57:04Z</time>
      </trkpt>
      <trkpt lat="49.86326" lon="4.71533">
        <ele>311</ele>
        <time>2024-05-08T10:57:05Z</time>
      </trkpt>
      <trkpt lat="49.86326" lon="4.71535">
        <ele>311</ele>
        <time>2024-05-08T10:57:06Z</time>
      </trkpt>
      <trkpt lat="49.86326" lon="4.71536">
        <ele>311</ele>
        <time>2024-05-08T10:57:07Z</time>
      </trkpt>
      <trkpt lat="49.86326" lon="4.71537">
        <ele>311</ele>
        <time>2024-05-08T10:57:08Z</time>
      </trkpt>
      <trkpt lat="49.86326" lon="4.71538">
        <ele>311</ele>
        <time>2024-05-08T10:57:09Z</time>
      </trkpt>
      <trkpt lat="49.86326" lon="4.7154">
        <ele>311</ele>
        <time>2024-05-08T10:57:10Z</time>
      </trkpt>
      <trkpt lat="49.86326" lon="4.71541">
        <ele>311</ele>
        <time>2024-05-08T10:57:11Z</time>
      </trkpt>
      <trkpt lat="49.86326" lon="4.71543">
        <ele>311</ele>
        <time>2024-05-08T10:57:12Z</time>
      </trkpt>
      <trkpt lat="49.86325" lon="4.71544">
        <ele>311</ele>
        <time>2024-05-08T10:57:13Z</time>
      </trkpt>
      <trkpt lat="49.86325" lon="4.71545">
        <ele>311</ele>
        <time>2024-05-08T10:57:14Z</time>
      </trkpt>
      <trkpt lat="49.86324" lon="4.71547">
        <ele>311</ele>
        <time>2024-05-08T10:57:15Z</time>
      </trkpt>
      <trkpt lat="49.86323" lon="4.71548">
        <ele>312</ele>
        <time>2024-05-08T10:57:16Z</time>
      </trkpt>
      <trkpt lat="49.86323" lon="4.7155">
        <ele>312</ele>
        <time>2024-05-08T10:57:17Z</time>
      </trkpt>
      <trkpt lat="49.86322" lon="4.71551">
        <ele>312</ele>
        <time>2024-05-08T10:57:18Z</time>
      </trkpt>
      <trkpt lat="49.86322" lon="4.71553">
        <ele>312</ele>
        <time>2024-05-08T10:57:19Z</time>
      </trkpt>
      <trkpt lat="49.86322" lon="4.71555">
        <ele>312</ele>
        <time>2024-05-08T10:57:20Z</time>
      </trkpt>
      <trkpt lat="49.86322" lon="4.71556">
        <ele>313</ele>
        <time>2024-05-08T10:57:21Z</time>
      </trkpt>
      <trkpt lat="49.86322" lon="4.71558">
        <ele>313</ele>
        <time>2024-05-08T10:57:22Z</time>
      </trkpt>
      <trkpt lat="49.86321" lon="4.7156">
        <ele>313</ele>
        <time>2024-05-08T10:57:23Z</time>
      </trkpt>
      <trkpt lat="49.86321" lon="4.71561">
        <ele>313</ele>
        <time>2024-05-08T10:57:24Z</time>
      </trkpt>
      <trkpt lat="49.8632" lon="4.71563">
        <ele>313</ele>
        <time>2024-05-08T10:57:25Z</time>
      </trkpt>
      <trkpt lat="49.8632" lon="4.71565">
        <ele>313</ele>
        <time>2024-05-08T10:57:26Z</time>
      </trkpt>
      <trkpt lat="49.86319" lon="4.71567">
        <ele>313</ele>
        <time>2024-05-08T10:57:27Z</time>
      </trkpt>
      <trkpt lat="49.86319" lon="4.71568">
        <ele>313</ele>
        <time>2024-05-08T10:57:28Z</time>
      </trkpt>
      <trkpt lat="49.86318" lon="4.7157">
        <ele>313</ele>
        <time>2024-05-08T10:57:29Z</time>
      </trkpt>
      <trkpt lat="49.86318" lon="4.71572">
        <ele>313</ele>
        <time>2024-05-08T10:57:30Z</time>
      </trkpt>
      <trkpt lat="49.86317" lon="4.71574">
        <ele>314</ele>
        <time>2024-05-08T10:57:31Z</time>
      </trkpt>
      <trkpt lat="49.86317" lon="4.71575">
        <ele>313</ele>
        <time>2024-05-08T10:57:32Z</time>
      </trkpt>
      <trkpt lat="49.86317" lon="4.71578">
        <ele>313</ele>
        <time>2024-05-08T10:57:33Z</time>
      </trkpt>
      <trkpt lat="49.86317" lon="4.7158">
        <ele>313</ele>
        <time>2024-05-08T10:57:34Z</time>
      </trkpt>
      <trkpt lat="49.86317" lon="4.71582">
        <ele>313</ele>
        <time>2024-05-08T10:57:35Z</time>
      </trkpt>
      <trkpt lat="49.86317" lon="4.71584">
        <ele>313</ele>
        <time>2024-05-08T10:57:36Z</time>
      </trkpt>
      <trkpt lat="49.86317" lon="4.71586">
        <ele>313</ele>
        <time>2024-05-08T10:57:37Z</time>
      </trkpt>
      <trkpt lat="49.86318" lon="4.71588">
        <ele>313</ele>
        <time>2024-05-08T10:57:38Z</time>
      </trkpt>
      <trkpt lat="49.86318" lon="4.7159">
        <ele>313</ele>
        <time>2024-05-08T10:57:39Z</time>
      </trkpt>
      <trkpt lat="49.86318" lon="4.71592">
        <ele>313</ele>
        <time>2024-05-08T10:57:40Z</time>
      </trkpt>
      <trkpt lat="49.86318" lon="4.71594">
        <ele>313</ele>
        <time>2024-05-08T10:57:41Z</time>
      </trkpt>
      <trkpt lat="49.86318" lon="4.71596">
        <ele>313</ele>
        <time>2024-05-08T10:57:42Z</time>
      </trkpt>
      <trkpt lat="49.86318" lon="4.71597">
        <ele>313</ele>
        <time>2024-05-08T10:57:43Z</time>
      </trkpt>
      <trkpt lat="49.86318" lon="4.71599">
        <ele>313</ele>
        <time>2024-05-08T10:57:44Z</time>
      </trkpt>
      <trkpt lat="49.86318" lon="4.71601">
        <ele>313</ele>
        <time>2024-05-08T10:57:45Z</time>
      </trkpt>
      <trkpt lat="49.86317" lon="4.71603">
        <ele>313</ele>
        <time>2024-05-08T10:57:46Z</time>
      </trkpt>
      <trkpt lat="49.86317" lon="4.71605">
        <ele>312</ele>
        <time>2024-05-08T10:57:47Z</time>
      </trkpt>
      <trkpt lat="49.86317" lon="4.71607">
        <ele>312</ele>
        <time>2024-05-08T10:57:48Z</time>
      </trkpt>
      <trkpt lat="49.86317" lon="4.71609">
        <ele>312</ele>
        <time>2024-05-08T10:57:49Z</time>
      </trkpt>
      <trkpt lat="49.86317" lon="4.71611">
        <ele>312</ele>
        <time>2024-05-08T10:57:50Z</time>
      </trkpt>
      <trkpt lat="49.86317" lon="4.71614">
        <ele>312</ele>
        <time>2024-05-08T10:57:51Z</time>
      </trkpt>
      <trkpt lat="49.86317" lon="4.71616">
        <ele>312</ele>
        <time>2024-05-08T10:57:52Z</time>
      </trkpt>
      <trkpt lat="49.86318" lon="4.71618">
        <ele>312</ele>
        <time>2024-05-08T10:57:53Z</time>
      </trkpt>
      <trkpt lat="49.86318" lon="4.7162">
        <ele>312</ele>
        <time>2024-05-08T10:57:54Z</time>
      </trkpt>
      <trkpt lat="49.86319" lon="4.71621">
        <ele>312</ele>
        <time>2024-05-08T10:57:55Z</time>
      </trkpt>
      <trkpt lat="49.86319" lon="4.71622">
        <ele>312</ele>
        <time>2024-05-08T10:57:56Z</time>
      </trkpt>
      <trkpt lat="49.8632" lon="4.71624">
        <ele>312</ele>
        <time>2024-05-08T10:57:57Z</time>
      </trkpt>
      <trkpt lat="49.8632" lon="4.71625">
        <ele>312</ele>
        <time>2024-05-08T10:57:58Z</time>
      </trkpt>
      <trkpt lat="49.8632" lon="4.71627">
        <ele>312</ele>
        <time>2024-05-08T10:57:59Z</time>
      </trkpt>
      <trkpt lat="49.86321" lon="4.71628">
        <ele>312</ele>
        <time>2024-05-08T10:58:00Z</time>
      </trkpt>
      <trkpt lat="49.86321" lon="4.7163">
        <ele>312</ele>
        <time>2024-05-08T10:58:01Z</time>
      </trkpt>
      <trkpt lat="49.86321" lon="4.71632">
        <ele>311</ele>
        <time>2024-05-08T10:58:02Z</time>
      </trkpt>
      <trkpt lat="49.86321" lon="4.71634">
        <ele>311</ele>
        <time>2024-05-08T10:58:03Z</time>
      </trkpt>
      <trkpt lat="49.86321" lon="4.71636">
        <ele>311</ele>
        <time>2024-05-08T10:58:04Z</time>
      </trkpt>
      <trkpt lat="49.86322" lon="4.71638">
        <ele>311</ele>
        <time>2024-05-08T10:58:05Z</time>
      </trkpt>
      <trkpt lat="49.86322" lon="4.71639">
        <ele>311</ele>
        <time>2024-05-08T10:58:06Z</time>
      </trkpt>
      <trkpt lat="49.86322" lon="4.71641">
        <ele>310</ele>
        <time>2024-05-08T10:58:07Z</time>
      </trkpt>
      <trkpt lat="49.86323" lon="4.71643">
        <ele>310</ele>
        <time>2024-05-08T10:58:08Z</time>
      </trkpt>
      <trkpt lat="49.86323" lon="4.71645">
        <ele>310</ele>
        <time>2024-05-08T10:58:09Z</time>
      </trkpt>
      <trkpt lat="49.86324" lon="4.71647">
        <ele>310</ele>
        <time>2024-05-08T10:58:10Z</time>
      </trkpt>
      <trkpt lat="49.86324" lon="4.71649">
        <ele>310</ele>
        <time>2024-05-08T10:58:11Z</time>
      </trkpt>
      <trkpt lat="49.86324" lon="4.71651">
        <ele>309</ele>
        <time>2024-05-08T10:58:12Z</time>
      </trkpt>
      <trkpt lat="49.86324" lon="4.71652">
        <ele>309</ele>
        <time>2024-05-08T10:58:13Z</time>
      </trkpt>
      <trkpt lat="49.86325" lon="4.71654">
        <ele>309</ele>
        <time>2024-05-08T10:58:14Z</time>
      </trkpt>
      <trkpt lat="49.86325" lon="4.71655">
        <ele>309</ele>
        <time>2024-05-08T10:58:15Z</time>
      </trkpt>
      <trkpt lat="49.86325" lon="4.71657">
        <ele>309</ele>
        <time>2024-05-08T10:58:16Z</time>
      </trkpt>
      <trkpt lat="49.86325" lon="4.71658">
        <ele>309</ele>
        <time>2024-05-08T10:58:17Z</time>
      </trkpt>
      <trkpt lat="49.86325" lon="4.71659">
        <ele>309</ele>
        <time>2024-05-08T10:58:18Z</time>
      </trkpt>
      <trkpt lat="49.86325" lon="4.7166">
        <ele>309</ele>
        <time>2024-05-08T10:58:19Z</time>
      </trkpt>
      <trkpt lat="49.86326" lon="4.71662">
        <ele>309</ele>
        <time>2024-05-08T10:58:20Z</time>
      </trkpt>
      <trkpt lat="49.86326" lon="4.71663">
        <ele>309</ele>
        <time>2024-05-08T10:58:21Z</time>
      </trkpt>
      <trkpt lat="49.86326" lon="4.71665">
        <ele>309</ele>
        <time>2024-05-08T10:58:22Z</time>
      </trkpt>
      <trkpt lat="49.86326" lon="4.71667">
        <ele>309</ele>
        <time>2024-05-08T10:58:23Z</time>
      </trkpt>
      <trkpt lat="49.86326" lon="4.71669">
        <ele>309</ele>
        <time>2024-05-08T10:58:24Z</time>
      </trkpt>
      <trkpt lat="49.86327" lon="4.71671">
        <ele>309</ele>
        <time>2024-05-08T10:58:25Z</time>
      </trkpt>
      <trkpt lat="49.86327" lon="4.71673">
        <ele>309</ele>
        <time>2024-05-08T10:58:26Z</time>
      </trkpt>
      <trkpt lat="49.86328" lon="4.71675">
        <ele>309</ele>
        <time>2024-05-08T10:58:27Z</time>
      </trkpt>
      <trkpt lat="49.86328" lon="4.71677">
        <ele>309</ele>
        <time>2024-05-08T10:58:28Z</time>
      </trkpt>
      <trkpt lat="49.86329" lon="4.71679">
        <ele>309</ele>
        <time>2024-05-08T10:58:29Z</time>
      </trkpt>
      <trkpt lat="49.86329" lon="4.71681">
        <ele>309</ele>
        <time>2024-05-08T10:58:30Z</time>
      </trkpt>
      <trkpt lat="49.86329" lon="4.71683">
        <ele>310</ele>
        <time>2024-05-08T10:58:31Z</time>
      </trkpt>
      <trkpt lat="49.86329" lon="4.71684">
        <ele>310</ele>
        <time>2024-05-08T10:58:32Z</time>
      </trkpt>
      <trkpt lat="49.86329" lon="4.71686">
        <ele>310</ele>
        <time>2024-05-08T10:58:33Z</time>
      </trkpt>
      <trkpt lat="49.86329" lon="4.71688">
        <ele>310</ele>
        <time>2024-05-08T10:58:34Z</time>
      </trkpt>
      <trkpt lat="49.86328" lon="4.71689">
        <ele>310</ele>
        <time>2024-05-08T10:58:35Z</time>
      </trkpt>
      <trkpt lat="49.86328" lon="4.7169">
        <ele>311</ele>
        <time>2024-05-08T10:58:36Z</time>
      </trkpt>
      <trkpt lat="49.86327" lon="4.71692">
        <ele>311</ele>
        <time>2024-05-08T10:58:37Z</time>
      </trkpt>
      <trkpt lat="49.86326" lon="4.71693">
        <ele>311</ele>
        <time>2024-05-08T10:58:38Z</time>
      </trkpt>
      <trkpt lat="49.86326" lon="4.71694">
        <ele>311</ele>
        <time>2024-05-08T10:58:39Z</time>
      </trkpt>
      <trkpt lat="49.86326" lon="4.71695">
        <ele>311</ele>
        <time>2024-05-08T10:58:40Z</time>
      </trkpt>
      <trkpt lat="49.86325" lon="4.71697">
        <ele>311</ele>
        <time>2024-05-08T10:58:41Z</time>
      </trkpt>
      <trkpt lat="49.86324" lon="4.71698">
        <ele>311</ele>
        <time>2024-05-08T10:58:42Z</time>
      </trkpt>
      <trkpt lat="49.86324" lon="4.71699">
        <ele>311</ele>
        <time>2024-05-08T10:58:43Z</time>
      </trkpt>
      <trkpt lat="49.86323" lon="4.71701">
        <ele>311</ele>
        <time>2024-05-08T10:58:44Z</time>
      </trkpt>
      <trkpt lat="49.86323" lon="4.71702">
        <ele>311</ele>
        <time>2024-05-08T10:58:45Z</time>
      </trkpt>
      <trkpt lat="49.86323" lon="4.71703">
        <ele>311</ele>
        <time>2024-05-08T10:58:46Z</time>
      </trkpt>
      <trkpt lat="49.86324" lon="4.71704">
        <ele>311</ele>
        <time>2024-05-08T10:58:47Z</time>
      </trkpt>
      <trkpt lat="49.86324" lon="4.71706">
        <ele>311</ele>
        <time>2024-05-08T10:58:48Z</time>
      </trkpt>
      <trkpt lat="49.86325" lon="4.71707">
        <ele>311</ele>
        <time>2024-05-08T10:58:49Z</time>
      </trkpt>
      <trkpt lat="49.86326" lon="4.71709">
        <ele>311</ele>
        <time>2024-05-08T10:58:50Z</time>
      </trkpt>
      <trkpt lat="49.86326" lon="4.71711">
        <ele>311</ele>
        <time>2024-05-08T10:58:51Z</time>
      </trkpt>
      <trkpt lat="49.86326" lon="4.71712">
        <ele>310</ele>
        <time>2024-05-08T10:58:52Z</time>
      </trkpt>
      <trkpt lat="49.86327" lon="4.71714">
        <ele>310</ele>
        <time>2024-05-08T10:58:53Z</time>
      </trkpt>
      <trkpt lat="49.86327" lon="4.71715">
        <ele>310</ele>
        <time>2024-05-08T10:58:54Z</time>
      </trkpt>
      <trkpt lat="49.86328" lon="4.71716">
        <ele>310</ele>
        <time>2024-05-08T10:58:55Z</time>
      </trkpt>
      <trkpt lat="49.86328" lon="4.71718">
        <ele>310</ele>
        <time>2024-05-08T10:58:56Z</time>
      </trkpt>
      <trkpt lat="49.86329" lon="4.71719">
        <ele>309</ele>
        <time>2024-05-08T10:58:57Z</time>
      </trkpt>
      <trkpt lat="49.86329" lon="4.7172">
        <ele>309</ele>
        <time>2024-05-08T10:58:58Z</time>
      </trkpt>
      <trkpt lat="49.8633" lon="4.71721">
        <ele>309</ele>
        <time>2024-05-08T10:58:59Z</time>
      </trkpt>
      <trkpt lat="49.8633" lon="4.71723">
        <ele>309</ele>
        <time>2024-05-08T10:59:00Z</time>
      </trkpt>
      <trkpt lat="49.86331" lon="4.71724">
        <ele>309</ele>
        <time>2024-05-08T10:59:01Z</time>
      </trkpt>
      <trkpt lat="49.86331" lon="4.71725">
        <ele>308</ele>
        <time>2024-05-08T10:59:02Z</time>
      </trkpt>
      <trkpt lat="49.86331" lon="4.71726">
        <ele>308</ele>
        <time>2024-05-08T10:59:03Z</time>
      </trkpt>
      <trkpt lat="49.86331" lon="4.71728">
        <ele>307</ele>
        <time>2024-05-08T10:59:04Z</time>
      </trkpt>
      <trkpt lat="49.86331" lon="4.71729">
        <ele>307</ele>
        <time>2024-05-08T10:59:05Z</time>
      </trkpt>
      <trkpt lat="49.86331" lon="4.71731">
        <ele>307</ele>
        <time>2024-05-08T10:59:06Z</time>
      </trkpt>
      <trkpt lat="49.86331" lon="4.71733">
        <ele>307</ele>
        <time>2024-05-08T10:59:07Z</time>
      </trkpt>
      <trkpt lat="49.86331" lon="4.71736">
        <ele>307</ele>
        <time>2024-05-08T10:59:08Z</time>
      </trkpt>
      <trkpt lat="49.86331" lon="4.71738">
        <ele>307</ele>
        <time>2024-05-08T10:59:09Z</time>
      </trkpt>
      <trkpt lat="49.86332" lon="4.71741">
        <ele>307</ele>
        <time>2024-05-08T10:59:10Z</time>
      </trkpt>
      <trkpt lat="49.86332" lon="4.71743">
        <ele>307</ele>
        <time>2024-05-08T10:59:11Z</time>
      </trkpt>
      <trkpt lat="49.86331" lon="4.71746">
        <ele>307</ele>
        <time>2024-05-08T10:59:12Z</time>
      </trkpt>
      <trkpt lat="49.86331" lon="4.71748">
        <ele>307</ele>
        <time>2024-05-08T10:59:13Z</time>
      </trkpt>
      <trkpt lat="49.8633" lon="4.7175">
        <ele>308</ele>
        <time>2024-05-08T10:59:14Z</time>
      </trkpt>
      <trkpt lat="49.8633" lon="4.71752">
        <ele>308</ele>
        <time>2024-05-08T10:59:15Z</time>
      </trkpt>
      <trkpt lat="49.86329" lon="4.71753">
        <ele>309</ele>
        <time>2024-05-08T10:59:16Z</time>
      </trkpt>
      <trkpt lat="49.86329" lon="4.71755">
        <ele>308</ele>
        <time>2024-05-08T10:59:17Z</time>
      </trkpt>
      <trkpt lat="49.86329" lon="4.71756">
        <ele>308</ele>
        <time>2024-05-08T10:59:18Z</time>
      </trkpt>
      <trkpt lat="49.86329" lon="4.71757">
        <ele>307</ele>
        <time>2024-05-08T10:59:19Z</time>
      </trkpt>
      <trkpt lat="49.86329" lon="4.71759">
        <ele>307</ele>
        <time>2024-05-08T10:59:20Z</time>
      </trkpt>
      <trkpt lat="49.86329" lon="4.7176">
        <ele>307</ele>
        <time>2024-05-08T10:59:21Z</time>
      </trkpt>
      <trkpt lat="49.86329" lon="4.71762">
        <ele>307</ele>
        <time>2024-05-08T10:59:22Z</time>
      </trkpt>
      <trkpt lat="49.86329" lon="4.71763">
        <ele>307</ele>
        <time>2024-05-08T10:59:23Z</time>
      </trkpt>
      <trkpt lat="49.86329" lon="4.71765">
        <ele>307</ele>
        <time>2024-05-08T10:59:24Z</time>
      </trkpt>
      <trkpt lat="49.8633" lon="4.71767">
        <ele>307</ele>
        <time>2024-05-08T10:59:25Z</time>
      </trkpt>
      <trkpt lat="49.8633" lon="4.71768">
        <ele>307</ele>
        <time>2024-05-08T10:59:26Z</time>
      </trkpt>
      <trkpt lat="49.86331" lon="4.7177">
        <ele>306</ele>
        <time>2024-05-08T10:59:27Z</time>
      </trkpt>
      <trkpt lat="49.86332" lon="4.71771">
        <ele>306</ele>
        <time>2024-05-08T10:59:28Z</time>
      </trkpt>
      <trkpt lat="49.86332" lon="4.71773">
        <ele>306</ele>
        <time>2024-05-08T10:59:29Z</time>
      </trkpt>
      <trkpt lat="49.86332" lon="4.71774">
        <ele>306</ele>
        <time>2024-05-08T10:59:30Z</time>
      </trkpt>
      <trkpt lat="49.86333" lon="4.71775">
        <ele>306</ele>
        <time>2024-05-08T10:59:31Z</time>
      </trkpt>
      <trkpt lat="49.86333" lon="4.71776">
        <ele>306</ele>
        <time>2024-05-08T10:59:32Z</time>
      </trkpt>
      <trkpt lat="49.86333" lon="4.71777">
        <ele>306</ele>
        <time>2024-05-08T10:59:33Z</time>
      </trkpt>
      <trkpt lat="49.86333" lon="4.71779">
        <ele>306</ele>
        <time>2024-05-08T10:59:34Z</time>
      </trkpt>
      <trkpt lat="49.86333" lon="4.7178">
        <ele>306</ele>
        <time>2024-05-08T10:59:35Z</time>
      </trkpt>
      <trkpt lat="49.86334" lon="4.71782">
        <ele>306</ele>
        <time>2024-05-08T10:59:36Z</time>
      </trkpt>
      <trkpt lat="49.86334" lon="4.71783">
        <ele>305</ele>
        <time>2024-05-08T10:59:37Z</time>
      </trkpt>
      <trkpt lat="49.86334" lon="4.71784">
        <ele>305</ele>
        <time>2024-05-08T10:59:38Z</time>
      </trkpt>
      <trkpt lat="49.86335" lon="4.71785">
        <ele>305</ele>
        <time>2024-05-08T10:59:39Z</time>
      </trkpt>
      <trkpt lat="49.86335" lon="4.71787">
        <ele>305</ele>
        <time>2024-05-08T10:59:40Z</time>
      </trkpt>
      <trkpt lat="49.86335" lon="4.71787">
        <ele>305</ele>
        <time>2024-05-08T10:59:41Z</time>
      </trkpt>
      <trkpt lat="49.86336" lon="4.71788">
        <ele>305</ele>
        <time>2024-05-08T10:59:42Z</time>
      </trkpt>
      <trkpt lat="49.86336" lon="4.7179">
        <ele>305</ele>
        <time>2024-05-08T10:59:43Z</time>
      </trkpt>
      <trkpt lat="49.86337" lon="4.71791">
        <ele>305</ele>
        <time>2024-05-08T10:59:44Z</time>
      </trkpt>
      <trkpt lat="49.86338" lon="4.71792">
        <ele>305</ele>
        <time>2024-05-08T10:59:45Z</time>
      </trkpt>
      <trkpt lat="49.86339" lon="4.71793">
        <ele>305</ele>
        <time>2024-05-08T10:59:46Z</time>
      </trkpt>
      <trkpt lat="49.86339" lon="4.71795">
        <ele>305</ele>
        <time>2024-05-08T10:59:47Z</time>
      </trkpt>
      <trkpt lat="49.8634" lon="4.71796">
        <ele>305</ele>
        <time>2024-05-08T10:59:48Z</time>
      </trkpt>
      <trkpt lat="49.86341" lon="4.71798">
        <ele>305</ele>
        <time>2024-05-08T10:59:49Z</time>
      </trkpt>
      <trkpt lat="49.86341" lon="4.71799">
        <ele>305</ele>
        <time>2024-05-08T10:59:50Z</time>
      </trkpt>
      <trkpt lat="49.86342" lon="4.71801">
        <ele>305</ele>
        <time>2024-05-08T10:59:51Z</time>
      </trkpt>
      <trkpt lat="49.86343" lon="4.71802">
        <ele>305</ele>
        <time>2024-05-08T10:59:52Z</time>
      </trkpt>
      <trkpt lat="49.86343" lon="4.71803">
        <ele>305</ele>
        <time>2024-05-08T10:59:53Z</time>
      </trkpt>
      <trkpt lat="49.86344" lon="4.71804">
        <ele>305</ele>
        <time>2024-05-08T10:59:54Z</time>
      </trkpt>
      <trkpt lat="49.86345" lon="4.71806">
        <ele>305</ele>
        <time>2024-05-08T10:59:55Z</time>
      </trkpt>
      <trkpt lat="49.86346" lon="4.71807">
        <ele>305</ele>
        <time>2024-05-08T10:59:56Z</time>
      </trkpt>
      <trkpt lat="49.86346" lon="4.71809">
        <ele>305</ele>
        <time>2024-05-08T10:59:57Z</time>
      </trkpt>
      <trkpt lat="49.86346" lon="4.7181">
        <ele>305</ele>
        <time>2024-05-08T10:59:58Z</time>
      </trkpt>
      <trkpt lat="49.86346" lon="4.71812">
        <ele>305</ele>
        <time>2024-05-08T10:59:59Z</time>
      </trkpt>
      <trkpt lat="49.86346" lon="4.71813">
        <ele>305</ele>
        <time>2024-05-08T11:00:00Z</time>
      </trkpt>
      <trkpt lat="49.86345" lon="4.71814">
        <ele>306</ele>
        <time>2024-05-08T11:00:01Z</time>
      </trkpt>
      <trkpt lat="49.86345" lon="4.71815">
        <ele>306</ele>
        <time>2024-05-08T11:00:02Z</time>
      </trkpt>
      <trkpt lat="49.86344" lon="4.71816">
        <ele>307</ele>
        <time>2024-05-08T11:00:03Z</time>
      </trkpt>
      <trkpt lat="49.86344" lon="4.71817">
        <ele>307</ele>
        <time>2024-05-08T11:00:04Z</time>
      </trkpt>
      <trkpt lat="49.86343" lon="4.71818">
        <ele>308</ele>
        <time>2024-05-08T11:00:05Z</time>
      </trkpt>
      <trkpt lat="49.86343" lon="4.71818">
        <ele>309</ele>
        <time>2024-05-08T11:00:06Z</time>
      </trkpt>
      <trkpt lat="49.86343" lon="4.7182">
        <ele>309</ele>
        <time>2024-05-08T11:00:07Z</time>
      </trkpt>
      <trkpt lat="49.86343" lon="4.71821">
        <ele>309</ele>
        <time>2024-05-08T11:00:08Z</time>
      </trkpt>
      <trkpt lat="49.86344" lon="4.71822">
        <ele>309</ele>
        <time>2024-05-08T11:00:09Z</time>
      </trkpt>
      <trkpt lat="49.86344" lon="4.71823">
        <ele>309</ele>
        <time>2024-05-08T11:00:10Z</time>
      </trkpt>
      <trkpt lat="49.86344" lon="4.71824">
        <ele>310</ele>
        <time>2024-05-08T11:00:11Z</time>
      </trkpt>
      <trkpt lat="49.86345" lon="4.71825">
        <ele>310</ele>
        <time>2024-05-08T11:00:12Z</time>
      </trkpt>
      <trkpt lat="49.86347" lon="4.71827">
        <ele>310</ele>
        <time>2024-05-08T11:03:14Z</time>
      </trkpt>
      <trkpt lat="49.86348" lon="4.71828">
        <ele>310</ele>
        <time>2024-05-08T11:03:15Z</time>
      </trkpt>
      <trkpt lat="49.86349" lon="4.7183">
        <ele>310</ele>
        <time>2024-05-08T11:03:16Z</time>
      </trkpt>
      <trkpt lat="49.86348" lon="4.7183">
        <ele>309</ele>
        <time>2024-05-08T11:03:17Z</time>
      </trkpt>
      <trkpt lat="49.86348" lon="4.71831">
        <ele>309</ele>
        <time>2024-05-08T11:03:18Z</time>
      </trkpt>
      <trkpt lat="49.86347" lon="4.71831">
        <ele>309</ele>
        <time>2024-05-08T11:03:19Z</time>
      </trkpt>
      <trkpt lat="49.86346" lon="4.71832">
        <ele>309</ele>
        <time>2024-05-08T11:03:20Z</time>
      </trkpt>
      <trkpt lat="49.86345" lon="4.71832">
        <ele>309</ele>
        <time>2024-05-08T11:03:21Z</time>
      </trkpt>
      <trkpt lat="49.86343" lon="4.71832">
        <ele>308</ele>
        <time>2024-05-08T11:03:22Z</time>
      </trkpt>
      <trkpt lat="49.86342" lon="4.71833">
        <ele>308</ele>
        <time>2024-05-08T11:03:23Z</time>
      </trkpt>
      <trkpt lat="49.86341" lon="4.71833">
        <ele>307</ele>
        <time>2024-05-08T11:03:24Z</time>
      </trkpt>
      <trkpt lat="49.8634" lon="4.71834">
        <ele>307</ele>
        <time>2024-05-08T11:03:25Z</time>
      </trkpt>
      <trkpt lat="49.86339" lon="4.71835">
        <ele>307</ele>
        <time>2024-05-08T11:03:26Z</time>
      </trkpt>
      <trkpt lat="49.86337" lon="4.71835">
        <ele>306</ele>
        <time>2024-05-08T11:03:27Z</time>
      </trkpt>
      <trkpt lat="49.86336" lon="4.71836">
        <ele>306</ele>
        <time>2024-05-08T11:03:28Z</time>
      </trkpt>
      <trkpt lat="49.86335" lon="4.71836">
        <ele>305</ele>
        <time>2024-05-08T11:03:29Z</time>
      </trkpt>
      <trkpt lat="49.86334" lon="4.71837">
        <ele>305</ele>
        <time>2024-05-08T11:03:30Z</time>
      </trkpt>
      <trkpt lat="49.86332" lon="4.71836">
        <ele>305</ele>
        <time>2024-05-08T11:03:31Z</time>
      </trkpt>
      <trkpt lat="49.86331" lon="4.71836">
        <ele>304</ele>
        <time>2024-05-08T11:03:32Z</time>
      </trkpt>
      <trkpt lat="49.8633" lon="4.71836">
        <ele>304</ele>
        <time>2024-05-08T11:03:33Z</time>
      </trkpt>
      <trkpt lat="49.86328" lon="4.71836">
        <ele>304</ele>
        <time>2024-05-08T11:03:34Z</time>
      </trkpt>
      <trkpt lat="49.86327" lon="4.71835">
        <ele>304</ele>
        <time>2024-05-08T11:03:35Z</time>
      </trkpt>
      <trkpt lat="49.86326" lon="4.71835">
        <ele>304</ele>
        <time>2024-05-08T11:03:36Z</time>
      </trkpt>
      <trkpt lat="49.86325" lon="4.71834">
        <ele>304</ele>
        <time>2024-05-08T11:03:37Z</time>
      </trkpt>
      <trkpt lat="49.86324" lon="4.71834">
        <ele>304</ele>
        <time>2024-05-08T11:03:38Z</time>
      </trkpt>
      <trkpt lat="49.86323" lon="4.71833">
        <ele>304</ele>
        <time>2024-05-08T11:03:39Z</time>
      </trkpt>
      <trkpt lat="49.86322" lon="4.71833">
        <ele>304</ele>
        <time>2024-05-08T11:03:40Z</time>
      </trkpt>
      <trkpt lat="49.86321" lon="4.71833">
        <ele>304</ele>
        <time>2024-05-08T11:03:41Z</time>
      </trkpt>
      <trkpt lat="49.8632" lon="4.71832">
        <ele>304</ele>
        <time>2024-05-08T11:03:42Z</time>
      </trkpt>
      <trkpt lat="49.86318" lon="4.71832">
        <ele>304</ele>
        <time>2024-05-08T11:03:43Z</time>
      </trkpt>
      <trkpt lat="49.86317" lon="4.71832">
        <ele>304</ele>
        <time>2024-05-08T11:03:44Z</time>
      </trkpt>
      <trkpt lat="49.86316" lon="4.71833">
        <ele>304</ele>
        <time>2024-05-08T11:03:45Z</time>
      </trkpt>
      <trkpt lat="49.86315" lon="4.71833">
        <ele>304</ele>
        <time>2024-05-08T11:03:46Z</time>
      </trkpt>
      <trkpt lat="49.86314" lon="4.71833">
        <ele>304</ele>
        <time>2024-05-08T11:03:47Z</time>
      </trkpt>
      <trkpt lat="49.86313" lon="4.71833">
        <ele>304</ele>
        <time>2024-05-08T11:03:48Z</time>
      </trkpt>
      <trkpt lat="49.86312" lon="4.71833">
        <ele>304</ele>
        <time>2024-05-08T11:03:49Z</time>
      </trkpt>
      <trkpt lat="49.86311" lon="4.71833">
        <ele>304</ele>
        <time>2024-05-08T11:03:50Z</time>
      </trkpt>
      <trkpt lat="49.8631" lon="4.71833">
        <ele>305</ele>
        <time>2024-05-08T11:03:51Z</time>
      </trkpt>
      <trkpt lat="49.86309" lon="4.71834">
        <ele>305</ele>
        <time>2024-05-08T11:03:52Z</time>
      </trkpt>
      <trkpt lat="49.86309" lon="4.71834">
        <ele>305</ele>
        <time>2024-05-08T11:03:53Z</time>
      </trkpt>
      <trkpt lat="49.86308" lon="4.71834">
        <ele>305</ele>
        <time>2024-05-08T11:03:54Z</time>
      </trkpt>
      <trkpt lat="49.86307" lon="4.71834">
        <ele>305</ele>
        <time>2024-05-08T11:03:55Z</time>
      </trkpt>
      <trkpt lat="49.86306" lon="4.71834">
        <ele>306</ele>
        <time>2024-05-08T11:03:56Z</time>
      </trkpt>
      <trkpt lat="49.86305" lon="4.71834">
        <ele>306</ele>
        <time>2024-05-08T11:03:57Z</time>
      </trkpt>
      <trkpt lat="49.86304" lon="4.71834">
        <ele>306</ele>
        <time>2024-05-08T11:03:58Z</time>
      </trkpt>
      <trkpt lat="49.86303" lon="4.71834">
        <ele>306</ele>
        <time>2024-05-08T11:03:59Z</time>
      </trkpt>
      <trkpt lat="49.86302" lon="4.71834">
        <ele>306</ele>
        <time>2024-05-08T11:04:00Z</time>
      </trkpt>
      <trkpt lat="49.86301" lon="4.71834">
        <ele>307</ele>
        <time>2024-05-08T11:04:01Z</time>
      </trkpt>
      <trkpt lat="49.863" lon="4.71834">
        <ele>307</ele>
        <time>2024-05-08T11:04:02Z</time>
      </trkpt>
      <trkpt lat="49.86299" lon="4.71834">
        <ele>307</ele>
        <time>2024-05-08T11:04:03Z</time>
      </trkpt>
      <trkpt lat="49.86298" lon="4.71834">
        <ele>308</ele>
        <time>2024-05-08T11:04:04Z</time>
      </trkpt>
      <trkpt lat="49.86297" lon="4.71834">
        <ele>308</ele>
        <time>2024-05-08T11:04:05Z</time>
      </trkpt>
      <trkpt lat="49.86296" lon="4.71834">
        <ele>309</ele>
        <time>2024-05-08T11:04:06Z</time>
      </trkpt>
      <trkpt lat="49.86295" lon="4.71835">
        <ele>309</ele>
        <time>2024-05-08T11:04:07Z</time>
      </trkpt>
      <trkpt lat="49.86294" lon="4.71835">
        <ele>309</ele>
        <time>2024-05-08T11:04:08Z</time>
      </trkpt>
      <trkpt lat="49.86293" lon="4.71835">
        <ele>309</ele>
        <time>2024-05-08T11:04:09Z</time>
      </trkpt>
      <trkpt lat="49.86292" lon="4.71836">
        <ele>309</ele>
        <time>2024-05-08T11:04:10Z</time>
      </trkpt>
      <trkpt lat="49.86291" lon="4.71836">
        <ele>309</ele>
        <time>2024-05-08T11:04:11Z</time>
      </trkpt>
      <trkpt lat="49.86291" lon="4.71837">
        <ele>309</ele>
        <time>2024-05-08T11:04:12Z</time>
      </trkpt>
      <trkpt lat="49.8629" lon="4.71837">
        <ele>309</ele>
        <time>2024-05-08T11:04:13Z</time>
      </trkpt>
      <trkpt lat="49.86289" lon="4.71838">
        <ele>309</ele>
        <time>2024-05-08T11:04:14Z</time>
      </trkpt>
      <trkpt lat="49.86288" lon="4.71838">
        <ele>309</ele>
        <time>2024-05-08T11:04:15Z</time>
      </trkpt>
      <trkpt lat="49.86288" lon="4.71839">
        <ele>310</ele>
        <time>2024-05-08T11:04:16Z</time>
      </trkpt>
      <trkpt lat="49.86287" lon="4.71839">
        <ele>310</ele>
        <time>2024-05-08T11:04:17Z</time>
      </trkpt>
      <trkpt lat="49.86287" lon="4.71839">
        <ele>310</ele>
        <time>2024-05-08T11:04:18Z</time>
      </trkpt>
      <trkpt lat="49.86286" lon="4.71839">
        <ele>310</ele>
        <time>2024-05-08T11:04:19Z</time>
      </trkpt>
      <trkpt lat="49.86285" lon="4.7184">
        <ele>310</ele>
        <time>2024-05-08T11:04:20Z</time>
      </trkpt>
      <trkpt lat="49.86285" lon="4.71841">
        <ele>310</ele>
        <time>2024-05-08T11:04:21Z</time>
      </trkpt>
      <trkpt lat="49.86284" lon="4.71841">
        <ele>310</ele>
        <time>2024-05-08T11:04:22Z</time>
      </trkpt>
      <trkpt lat="49.86283" lon="4.71842">
        <ele>310</ele>
        <time>2024-05-08T11:04:23Z</time>
      </trkpt>
      <trkpt lat="49.86283" lon="4.71843">
        <ele>310</ele>
        <time>2024-05-08T11:04:24Z</time>
      </trkpt>
      <trkpt lat="49.86282" lon="4.71844">
        <ele>310</ele>
        <time>2024-05-08T11:04:25Z</time>
      </trkpt>
      <trkpt lat="49.86281" lon="4.71844">
        <ele>311</ele>
        <time>2024-05-08T11:04:26Z</time>
      </trkpt>
      <trkpt lat="49.8628" lon="4.71844">
        <ele>311</ele>
        <time>2024-05-08T11:04:27Z</time>
      </trkpt>
      <trkpt lat="49.86279" lon="4.71844">
        <ele>311</ele>
        <time>2024-05-08T11:04:28Z</time>
      </trkpt>
      <trkpt lat="49.86278" lon="4.71843">
        <ele>311</ele>
        <time>2024-05-08T11:04:29Z</time>
      </trkpt>
      <trkpt lat="49.86277" lon="4.71843">
        <ele>311</ele>
        <time>2024-05-08T11:04:30Z</time>
      </trkpt>
      <trkpt lat="49.86276" lon="4.71843">
        <ele>312</ele>
        <time>2024-05-08T11:04:31Z</time>
      </trkpt>
      <trkpt lat="49.86276" lon="4.71843">
        <ele>312</ele>
        <time>2024-05-08T11:04:32Z</time>
      </trkpt>
      <trkpt lat="49.86275" lon="4.71843">
        <ele>312</ele>
        <time>2024-05-08T11:04:33Z</time>
      </trkpt>
      <trkpt lat="49.86274" lon="4.71843">
        <ele>312</ele>
        <time>2024-05-08T11:04:34Z</time>
      </trkpt>
      <trkpt lat="49.86273" lon="4.71844">
        <ele>312</ele>
        <time>2024-05-08T11:04:35Z</time>
      </trkpt>
      <trkpt lat="49.86273" lon="4.71845">
        <ele>313</ele>
        <time>2024-05-08T11:04:36Z</time>
      </trkpt>
      <trkpt lat="49.86272" lon="4.71846">
        <ele>313</ele>
        <time>2024-05-08T11:04:37Z</time>
      </trkpt>
      <trkpt lat="49.86271" lon="4.71846">
        <ele>313</ele>
        <time>2024-05-08T11:04:38Z</time>
      </trkpt>
      <trkpt lat="49.86271" lon="4.71846">
        <ele>313</ele>
        <time>2024-05-08T11:04:39Z</time>
      </trkpt>
      <trkpt lat="49.8627" lon="4.71846">
        <ele>313</ele>
        <time>2024-05-08T11:04:40Z</time>
      </trkpt>
      <trkpt lat="49.8627" lon="4.71847">
        <ele>313</ele>
        <time>2024-05-08T11:04:41Z</time>
      </trkpt>
      <trkpt lat="49.86269" lon="4.71847">
        <ele>313</ele>
        <time>2024-05-08T11:04:42Z</time>
      </trkpt>
      <trkpt lat="49.86269" lon="4.71848">
        <ele>313</ele>
        <time>2024-05-08T11:04:43Z</time>
      </trkpt>
      <trkpt lat="49.86268" lon="4.71849">
        <ele>313</ele>
        <time>2024-05-08T11:04:44Z</time>
      </trkpt>
      <trkpt lat="49.86268" lon="4.7185">
        <ele>313</ele>
        <time>2024-05-08T11:04:45Z</time>
      </trkpt>
      <trkpt lat="49.86267" lon="4.71851">
        <ele>314</ele>
        <time>2024-05-08T11:04:46Z</time>
      </trkpt>
      <trkpt lat="49.86267" lon="4.71852">
        <ele>314</ele>
        <time>2024-05-08T11:04:47Z</time>
      </trkpt>
      <trkpt lat="49.86266" lon="4.71852">
        <ele>314</ele>
        <time>2024-05-08T11:04:48Z</time>
      </trkpt>
      <trkpt lat="49.86266" lon="4.71853">
        <ele>314</ele>
        <time>2024-05-08T11:04:49Z</time>
      </trkpt>
      <trkpt lat="49.86266" lon="4.71855">
        <ele>314</ele>
        <time>2024-05-08T11:04:50Z</time>
      </trkpt>
      <trkpt lat="49.86266" lon="4.71856">
        <ele>314</ele>
        <time>2024-05-08T11:04:51Z</time>
      </trkpt>
      <trkpt lat="49.86266" lon="4.71857">
        <ele>313</ele>
        <time>2024-05-08T11:04:52Z</time>
      </trkpt>
      <trkpt lat="49.86266" lon="4.71859">
        <ele>313</ele>
        <time>2024-05-08T11:04:53Z</time>
      </trkpt>
      <trkpt lat="49.86266" lon="4.7186">
        <ele>313</ele>
        <time>2024-05-08T11:04:54Z</time>
      </trkpt>
      <trkpt lat="49.86266" lon="4.71862">
        <ele>313</ele>
        <time>2024-05-08T11:04:55Z</time>
      </trkpt>
      <trkpt lat="49.86266" lon="4.71864">
        <ele>313</ele>
        <time>2024-05-08T11:04:56Z</time>
      </trkpt>
      <trkpt lat="49.86265" lon="4.71865">
        <ele>313</ele>
        <time>2024-05-08T11:04:57Z</time>
      </trkpt>
      <trkpt lat="49.86265" lon="4.71867">
        <ele>313</ele>
        <time>2024-05-08T11:04:58Z</time>
      </trkpt>
      <trkpt lat="49.86264" lon="4.71868">
        <ele>313</ele>
        <time>2024-05-08T11:04:59Z</time>
      </trkpt>
      <trkpt lat="49.86263" lon="4.71869">
        <ele>313</ele>
        <time>2024-05-08T11:05:00Z</time>
      </trkpt>
      <trkpt lat="49.86263" lon="4.7187">
        <ele>313</ele>
        <time>2024-05-08T11:05:01Z</time>
      </trkpt>
      <trkpt lat="49.86263" lon="4.71872">
        <ele>313</ele>
        <time>2024-05-08T11:05:02Z</time>
      </trkpt>
      <trkpt lat="49.86263" lon="4.71874">
        <ele>314</ele>
        <time>2024-05-08T11:05:23Z</time>
      </trkpt>
      <trkpt lat="49.86263" lon="4.71875">
        <ele>314</ele>
        <time>2024-05-08T11:05:24Z</time>
      </trkpt>
      <trkpt lat="49.86263" lon="4.71876">
        <ele>314</ele>
        <time>2024-05-08T11:05:25Z</time>
      </trkpt>
      <trkpt lat="49.86263" lon="4.71877">
        <ele>314</ele>
        <time>2024-05-08T11:05:26Z</time>
      </trkpt>
      <trkpt lat="49.86263" lon="4.71878">
        <ele>313</ele>
        <time>2024-05-08T11:05:27Z</time>
      </trkpt>
      <trkpt lat="49.86263" lon="4.7188">
        <ele>313</ele>
        <time>2024-05-08T11:05:28Z</time>
      </trkpt>
      <trkpt lat="49.86263" lon="4.71881">
        <ele>313</ele>
        <time>2024-05-08T11:05:29Z</time>
      </trkpt>
      <trkpt lat="49.86264" lon="4.71883">
        <ele>313</ele>
        <time>2024-05-08T11:05:30Z</time>
      </trkpt>
      <trkpt lat="49.86264" lon="4.71884">
        <ele>313</ele>
        <time>2024-05-08T11:05:31Z</time>
      </trkpt>
      <trkpt lat="49.86264" lon="4.71886">
        <ele>313</ele>
        <time>2024-05-08T11:05:32Z</time>
      </trkpt>
      <trkpt lat="49.86264" lon="4.71887">
        <ele>313</ele>
        <time>2024-05-08T11:05:33Z</time>
      </trkpt>
      <trkpt lat="49.86264" lon="4.71889">
        <ele>313</ele>
        <time>2024-05-08T11:05:34Z</time>
      </trkpt>
      <trkpt lat="49.86264" lon="4.7189">
        <ele>313</ele>
        <time>2024-05-08T11:05:35Z</time>
      </trkpt>
      <trkpt lat="49.86264" lon="4.71892">
        <ele>313</ele>
        <time>2024-05-08T11:05:36Z</time>
      </trkpt>
      <trkpt lat="49.86264" lon="4.71893">
        <ele>312</ele>
        <time>2024-05-08T11:05:37Z</time>
      </trkpt>
      <trkpt lat="49.86264" lon="4.71895">
        <ele>312</ele>
        <time>2024-05-08T11:05:38Z</time>
      </trkpt>
      <trkpt lat="49.86265" lon="4.71896">
        <ele>312</ele>
        <time>2024-05-08T11:05:39Z</time>
      </trkpt>
      <trkpt lat="49.86265" lon="4.71897">
        <ele>312</ele>
        <time>2024-05-08T11:05:40Z</time>
      </trkpt>
      <trkpt lat="49.86265" lon="4.71899">
        <ele>312</ele>
        <time>2024-05-08T11:05:41Z</time>
      </trkpt>
      <trkpt lat="49.86265" lon="4.719">
        <ele>312</ele>
        <time>2024-05-08T11:05:42Z</time>
      </trkpt>
      <trkpt lat="49.86266" lon="4.71902">
        <ele>312</ele>
        <time>2024-05-08T11:05:43Z</time>
      </trkpt>
      <trkpt lat="49.86266" lon="4.71903">
        <ele>312</ele>
        <time>2024-05-08T11:05:44Z</time>
      </trkpt>
      <trkpt lat="49.86267" lon="4.71905">
        <ele>312</ele>
        <time>2024-05-08T11:05:45Z</time>
      </trkpt>
      <trkpt lat="49.86267" lon="4.71906">
        <ele>312</ele>
        <time>2024-05-08T11:05:46Z</time>
      </trkpt>
      <trkpt lat="49.86267" lon="4.71908">
        <ele>312</ele>
        <time>2024-05-08T11:05:47Z</time>
      </trkpt>
      <trkpt lat="49.86268" lon="4.71909">
        <ele>312</ele>
        <time>2024-05-08T11:05:48Z</time>
      </trkpt>
      <trkpt lat="49.86268" lon="4.71911">
        <ele>312</ele>
        <time>2024-05-08T11:05:49Z</time>
      </trkpt>
      <trkpt lat="49.86268" lon="4.71912">
        <ele>312</ele>
        <time>2024-05-08T11:05:50Z</time>
      </trkpt>
      <trkpt lat="49.86268" lon="4.71914">
        <ele>312</ele>
        <time>2024-05-08T11:05:51Z</time>
      </trkpt>
      <trkpt lat="49.86268" lon="4.71915">
        <ele>311</ele>
        <time>2024-05-08T11:05:52Z</time>
      </trkpt>
      <trkpt lat="49.86269" lon="4.71917">
        <ele>311</ele>
        <time>2024-05-08T11:05:53Z</time>
      </trkpt>
      <trkpt lat="49.86269" lon="4.71919">
        <ele>311</ele>
        <time>2024-05-08T11:05:54Z</time>
      </trkpt>
      <trkpt lat="49.86269" lon="4.7192">
        <ele>311</ele>
        <time>2024-05-08T11:05:55Z</time>
      </trkpt>
      <trkpt lat="49.8627" lon="4.71922">
        <ele>311</ele>
        <time>2024-05-08T11:05:56Z</time>
      </trkpt>
      <trkpt lat="49.8627" lon="4.71923">
        <ele>311</ele>
        <time>2024-05-08T11:05:57Z</time>
      </trkpt>
      <trkpt lat="49.8627" lon="4.71925">
        <ele>311</ele>
        <time>2024-05-08T11:05:58Z</time>
      </trkpt>
      <trkpt lat="49.8627" lon="4.71927">
        <ele>311</ele>
        <time>2024-05-08T11:05:59Z</time>
      </trkpt>
      <trkpt lat="49.86271" lon="4.71928">
        <ele>311</ele>
        <time>2024-05-08T11:06:00Z</time>
      </trkpt>
      <trkpt lat="49.86271" lon="4.7193">
        <ele>311</ele>
        <time>2024-05-08T11:06:01Z</time>
      </trkpt>
      <trkpt lat="49.86272" lon="4.71931">
        <ele>310</ele>
        <time>2024-05-08T11:06:02Z</time>
      </trkpt>
      <trkpt lat="49.86272" lon="4.71933">
        <ele>310</ele>
        <time>2024-05-08T11:06:03Z</time>
      </trkpt>
      <trkpt lat="49.86273" lon="4.71934">
        <ele>310</ele>
        <time>2024-05-08T11:06:04Z</time>
      </trkpt>
      <trkpt lat="49.86273" lon="4.71935">
        <ele>310</ele>
        <time>2024-05-08T11:06:05Z</time>
      </trkpt>
      <trkpt lat="49.86274" lon="4.71937">
        <ele>310</ele>
        <time>2024-05-08T11:06:06Z</time>
      </trkpt>
      <trkpt lat="49.86275" lon="4.71938">
        <ele>310</ele>
        <time>2024-05-08T11:06:07Z</time>
      </trkpt>
      <trkpt lat="49.86275" lon="4.71939">
        <ele>310</ele>
        <time>2024-05-08T11:06:08Z</time>
      </trkpt>
      <trkpt lat="49.86276" lon="4.7194">
        <ele>310</ele>
        <time>2024-05-08T11:06:09Z</time>
      </trkpt>
      <trkpt lat="49.86277" lon="4.71941">
        <ele>310</ele>
        <time>2024-05-08T11:06:10Z</time>
      </trkpt>
      <trkpt lat="49.86277" lon="4.71943">
        <ele>310</ele>
        <time>2024-05-08T11:06:11Z</time>
      </trkpt>
      <trkpt lat="49.86278" lon="4.71944">
        <ele>309</ele>
        <time>2024-05-08T11:06:12Z</time>
      </trkpt>
      <trkpt lat="49.86279" lon="4.71945">
        <ele>309</ele>
        <time>2024-05-08T11:06:13Z</time>
      </trkpt>
      <trkpt lat="49.8628" lon="4.71946">
        <ele>309</ele>
        <time>2024-05-08T11:06:14Z</time>
      </trkpt>
      <trkpt lat="49.8628" lon="4.71947">
        <ele>309</ele>
        <time>2024-05-08T11:06:15Z</time>
      </trkpt>
      <trkpt lat="49.86281" lon="4.71949">
        <ele>309</ele>
        <time>2024-05-08T11:06:16Z</time>
      </trkpt>
      <trkpt lat="49.86282" lon="4.7195">
        <ele>308</ele>
        <time>2024-05-08T11:06:17Z</time>
      </trkpt>
      <trkpt lat="49.86282" lon="4.71951">
        <ele>308</ele>
        <time>2024-05-08T11:06:18Z</time>
      </trkpt>
      <trkpt lat="49.86282" lon="4.71953">
        <ele>307</ele>
        <time>2024-05-08T11:06:19Z</time>
      </trkpt>
      <trkpt lat="49.86283" lon="4.71954">
        <ele>307</ele>
        <time>2024-05-08T11:06:20Z</time>
      </trkpt>
      <trkpt lat="49.86284" lon="4.71956">
        <ele>307</ele>
        <time>2024-05-08T11:06:21Z</time>
      </trkpt>
      <trkpt lat="49.86285" lon="4.71958">
        <ele>306</ele>
        <time>2024-05-08T11:06:22Z</time>
      </trkpt>
      <trkpt lat="49.86286" lon="4.7196">
        <ele>306</ele>
        <time>2024-05-08T11:06:23Z</time>
      </trkpt>
      <trkpt lat="49.86287" lon="4.71962">
        <ele>306</ele>
        <time>2024-05-08T11:06:24Z</time>
      </trkpt>
      <trkpt lat="49.86288" lon="4.71964">
        <ele>306</ele>
        <time>2024-05-08T11:06:25Z</time>
      </trkpt>
      <trkpt lat="49.8629" lon="4.71966">
        <ele>306</ele>
        <time>2024-05-08T11:06:26Z</time>
      </trkpt>
      <trkpt lat="49.86291" lon="4.71967">
        <ele>306</ele>
        <time>2024-05-08T11:06:27Z</time>
      </trkpt>
      <trkpt lat="49.86291" lon="4.71969">
        <ele>306</ele>
        <time>2024-05-08T11:06:28Z</time>
      </trkpt>
      <trkpt lat="49.86292" lon="4.7197">
        <ele>306</ele>
        <time>2024-05-08T11:06:29Z</time>
      </trkpt>
      <trkpt lat="49.86293" lon="4.71971">
        <ele>306</ele>
        <time>2024-05-08T11:06:30Z</time>
      </trkpt>
      <trkpt lat="49.86293" lon="4.71972">
        <ele>306</ele>
        <time>2024-05-08T11:06:31Z</time>
      </trkpt>
      <trkpt lat="49.86294" lon="4.71973">
        <ele>306</ele>
        <time>2024-05-08T11:06:32Z</time>
      </trkpt>
      <trkpt lat="49.86295" lon="4.71974">
        <ele>306</ele>
        <time>2024-05-08T11:06:33Z</time>
      </trkpt>
      <trkpt lat="49.86295" lon="4.71974">
        <ele>306</ele>
        <time>2024-05-08T11:06:34Z</time>
      </trkpt>
      <trkpt lat="49.86295" lon="4.71974">
        <ele>306</ele>
        <time>2024-05-08T11:06:35Z</time>
      </trkpt>
      <trkpt lat="49.86295" lon="4.71975">
        <ele>306</ele>
        <time>2024-05-08T11:06:36Z</time>
      </trkpt>
      <trkpt lat="49.86296" lon="4.71976">
        <ele>306</ele>
        <time>2024-05-08T11:06:37Z</time>
      </trkpt>
      <trkpt lat="49.86296" lon="4.71977">
        <ele>306</ele>
        <time>2024-05-08T11:06:38Z</time>
      </trkpt>
      <trkpt lat="49.86297" lon="4.71978">
        <ele>306</ele>
        <time>2024-05-08T11:06:39Z</time>
      </trkpt>
      <trkpt lat="49.86297" lon="4.71979">
        <ele>306</ele>
        <time>2024-05-08T11:06:40Z</time>
      </trkpt>
      <trkpt lat="49.86298" lon="4.71981">
        <ele>306</ele>
        <time>2024-05-08T11:06:41Z</time>
      </trkpt>
      <trkpt lat="49.86299" lon="4.71982">
        <ele>306</ele>
        <time>2024-05-08T11:06:42Z</time>
      </trkpt>
      <trkpt lat="49.86299" lon="4.71984">
        <ele>306</ele>
        <time>2024-05-08T11:06:43Z</time>
      </trkpt>
      <trkpt lat="49.863" lon="4.71985">
        <ele>306</ele>
        <time>2024-05-08T11:06:44Z</time>
      </trkpt>
      <trkpt lat="49.86301" lon="4.71986">
        <ele>306</ele>
        <time>2024-05-08T11:06:45Z</time>
      </trkpt>
      <trkpt lat="49.86301" lon="4.71987">
        <ele>306</ele>
        <time>2024-05-08T11:06:46Z</time>
      </trkpt>
      <trkpt lat="49.86302" lon="4.71988">
        <ele>306</ele>
        <time>2024-05-08T11:06:47Z</time>
      </trkpt>
      <trkpt lat="49.86302" lon="4.71988">
        <ele>306</ele>
        <time>2024-05-08T11:06:48Z</time>
      </trkpt>
      <trkpt lat="49.86303" lon="4.71989">
        <ele>306</ele>
        <time>2024-05-08T11:06:49Z</time>
      </trkpt>
      <trkpt lat="49.86304" lon="4.7199">
        <ele>306</ele>
        <time>2024-05-08T11:06:50Z</time>
      </trkpt>
      <trkpt lat="49.86305" lon="4.71991">
        <ele>306</ele>
        <time>2024-05-08T11:06:51Z</time>
      </trkpt>
      <trkpt lat="49.86306" lon="4.71993">
        <ele>306</ele>
        <time>2024-05-08T11:06:52Z</time>
      </trkpt>
      <trkpt lat="49.86307" lon="4.71994">
        <ele>306</ele>
        <time>2024-05-08T11:06:53Z</time>
      </trkpt>
      <trkpt lat="49.86308" lon="4.71996">
        <ele>306</ele>
        <time>2024-05-08T11:06:54Z</time>
      </trkpt>
      <trkpt lat="49.86309" lon="4.71997">
        <ele>306</ele>
        <time>2024-05-08T11:06:55Z</time>
      </trkpt>
      <trkpt lat="49.86309" lon="4.71998">
        <ele>307</ele>
        <time>2024-05-08T11:06:56Z</time>
      </trkpt>
      <trkpt lat="49.8631" lon="4.71999">
        <ele>307</ele>
        <time>2024-05-08T11:06:57Z</time>
      </trkpt>
      <trkpt lat="49.86311" lon="4.72001">
        <ele>307</ele>
        <time>2024-05-08T11:06:58Z</time>
      </trkpt>
      <trkpt lat="49.86311" lon="4.72002">
        <ele>308</ele>
        <time>2024-05-08T11:06:59Z</time>
      </trkpt>
      <trkpt lat="49.86312" lon="4.72003">
        <ele>308</ele>
        <time>2024-05-08T11:07:00Z</time>
      </trkpt>
      <trkpt lat="49.86312" lon="4.72005">
        <ele>309</ele>
        <time>2024-05-08T11:07:01Z</time>
      </trkpt>
      <trkpt lat="49.86313" lon="4.72006">
        <ele>309</ele>
        <time>2024-05-08T11:07:02Z</time>
      </trkpt>
      <trkpt lat="49.86313" lon="4.72008">
        <ele>309</ele>
        <time>2024-05-08T11:07:03Z</time>
      </trkpt>
      <trkpt lat="49.86314" lon="4.72009">
        <ele>309</ele>
        <time>2024-05-08T11:07:04Z</time>
      </trkpt>
      <trkpt lat="49.86314" lon="4.72011">
        <ele>309</ele>
        <time>2024-05-08T11:07:05Z</time>
      </trkpt>
      <trkpt lat="49.86314" lon="4.72012">
        <ele>310</ele>
        <time>2024-05-08T11:07:06Z</time>
      </trkpt>
      <trkpt lat="49.86314" lon="4.72012">
        <ele>310</ele>
        <time>2024-05-08T11:07:07Z</time>
      </trkpt>
      <trkpt lat="49.86315" lon="4.72013">
        <ele>310</ele>
        <time>2024-05-08T11:07:08Z</time>
      </trkpt>
      <trkpt lat="49.86315" lon="4.72015">
        <ele>310</ele>
        <time>2024-05-08T11:07:09Z</time>
      </trkpt>
      <trkpt lat="49.86315" lon="4.72016">
        <ele>310</ele>
        <time>2024-05-08T11:07:10Z</time>
      </trkpt>
      <trkpt lat="49.86315" lon="4.72017">
        <ele>311</ele>
        <time>2024-05-08T11:07:11Z</time>
      </trkpt>
      <trkpt lat="49.86315" lon="4.72019">
        <ele>311</ele>
        <time>2024-05-08T11:07:12Z</time>
      </trkpt>
      <trkpt lat="49.86315" lon="4.7202">
        <ele>311</ele>
        <time>2024-05-08T11:07:13Z</time>
      </trkpt>
      <trkpt lat="49.86315" lon="4.72022">
        <ele>311</ele>
        <time>2024-05-08T11:07:14Z</time>
      </trkpt>
      <trkpt lat="49.86315" lon="4.72023">
        <ele>311</ele>
        <time>2024-05-08T11:07:15Z</time>
      </trkpt>
      <trkpt lat="49.86315" lon="4.72024">
        <ele>312</ele>
        <time>2024-05-08T11:07:16Z</time>
      </trkpt>
      <trkpt lat="49.86315" lon="4.72025">
        <ele>312</ele>
        <time>2024-05-08T11:07:17Z</time>
      </trkpt>
      <trkpt lat="49.86316" lon="4.72027">
        <ele>312</ele>
        <time>2024-05-08T11:07:18Z</time>
      </trkpt>
      <trkpt lat="49.86316" lon="4.72028">
        <ele>312</ele>
        <time>2024-05-08T11:07:19Z</time>
      </trkpt>
      <trkpt lat="49.86316" lon="4.7203">
        <ele>312</ele>
        <time>2024-05-08T11:07:20Z</time>
      </trkpt>
      <trkpt lat="49.86317" lon="4.72032">
        <ele>313</ele>
        <time>2024-05-08T11:07:21Z</time>
      </trkpt>
      <trkpt lat="49.86317" lon="4.72033">
        <ele>313</ele>
        <time>2024-05-08T11:07:22Z</time>
      </trkpt>
      <trkpt lat="49.86318" lon="4.72035">
        <ele>313</ele>
        <time>2024-05-08T11:07:23Z</time>
      </trkpt>
      <trkpt lat="49.8632" lon="4.72038">
        <ele>315</ele>
        <time>2024-05-08T11:07:32Z</time>
      </trkpt>
      <trkpt lat="49.8632" lon="4.72038">
        <ele>315</ele>
        <time>2024-05-08T11:07:33Z</time>
      </trkpt>
      <trkpt lat="49.86321" lon="4.72038">
        <ele>315</ele>
        <time>2024-05-08T11:07:34Z</time>
      </trkpt>
      <trkpt lat="49.86321" lon="4.72037">
        <ele>315</ele>
        <time>2024-05-08T11:07:35Z</time>
      </trkpt>
      <trkpt lat="49.86322" lon="4.72037">
        <ele>315</ele>
        <time>2024-05-08T11:07:36Z</time>
      </trkpt>
      <trkpt lat="49.86323" lon="4.72032">
        <ele>315</ele>
        <time>2024-05-08T11:07:43Z</time>
      </trkpt>
      <trkpt lat="49.86323" lon="4.72031">
        <ele>315</ele>
        <time>2024-05-08T11:07:44Z</time>
      </trkpt>
      <trkpt lat="49.86324" lon="4.72031">
        <ele>315</ele>
        <time>2024-05-08T11:07:45Z</time>
      </trkpt>
      <trkpt lat="49.86324" lon="4.7203">
        <ele>315</ele>
        <time>2024-05-08T11:07:46Z</time>
      </trkpt>
      <trkpt lat="49.86325" lon="4.72029">
        <ele>315</ele>
        <time>2024-05-08T11:07:47Z</time>
      </trkpt>
      <trkpt lat="49.86325" lon="4.72029">
        <ele>315</ele>
        <time>2024-05-08T11:07:48Z</time>
      </trkpt>
      <trkpt lat="49.86326" lon="4.72028">
        <ele>315</ele>
        <time>2024-05-08T11:07:49Z</time>
      </trkpt>
      <trkpt lat="49.86327" lon="4.72027">
        <ele>315</ele>
        <time>2024-05-08T11:07:50Z</time>
      </trkpt>
      <trkpt lat="49.86328" lon="4.72027">
        <ele>315</ele>
        <time>2024-05-08T11:07:51Z</time>
      </trkpt>
      <trkpt lat="49.86329" lon="4.72026">
        <ele>314</ele>
        <time>2024-05-08T11:08:32Z</time>
      </trkpt>
      <trkpt lat="49.8633" lon="4.72026">
        <ele>314</ele>
        <time>2024-05-08T11:08:33Z</time>
      </trkpt>
      <trkpt lat="49.86331" lon="4.72026">
        <ele>314</ele>
        <time>2024-05-08T11:08:34Z</time>
      </trkpt>
      <trkpt lat="49.86331" lon="4.72026">
        <ele>314</ele>
        <time>2024-05-08T11:08:35Z</time>
      </trkpt>
      <trkpt lat="49.8633" lon="4.72027">
        <ele>314</ele>
        <time>2024-05-08T11:08:36Z</time>
      </trkpt>
      <trkpt lat="49.8633" lon="4.72027">
        <ele>314</ele>
        <time>2024-05-08T11:08:37Z</time>
      </trkpt>
      <trkpt lat="49.86329" lon="4.72028">
        <ele>315</ele>
        <time>2024-05-08T11:08:46Z</time>
      </trkpt>
      <trkpt lat="49.86328" lon="4.72029">
        <ele>314</ele>
        <time>2024-05-08T11:08:47Z</time>
      </trkpt>
      <trkpt lat="49.86327" lon="4.72029">
        <ele>314</ele>
        <time>2024-05-08T11:08:48Z</time>
      </trkpt>
      <trkpt lat="49.86327" lon="4.7203">
        <ele>314</ele>
        <time>2024-05-08T11:08:49Z</time>
      </trkpt>
      <trkpt lat="49.86326" lon="4.72031">
        <ele>314</ele>
        <time>2024-05-08T11:08:50Z</time>
      </trkpt>
      <trkpt lat="49.86325" lon="4.72032">
        <ele>314</ele>
        <time>2024-05-08T11:08:51Z</time>
      </trkpt>
      <trkpt lat="49.86324" lon="4.72033">
        <ele>314</ele>
        <time>2024-05-08T11:08:52Z</time>
      </trkpt>
      <trkpt lat="49.86323" lon="4.72034">
        <ele>314</ele>
        <time>2024-05-08T11:08:53Z</time>
      </trkpt>
      <trkpt lat="49.86322" lon="4.72035">
        <ele>314</ele>
        <time>2024-05-08T11:08:54Z</time>
      </trkpt>
      <trkpt lat="49.86322" lon="4.72037">
        <ele>314</ele>
        <time>2024-05-08T11:08:55Z</time>
      </trkpt>
      <trkpt lat="49.86321" lon="4.72038">
        <ele>315</ele>
        <time>2024-05-08T11:08:56Z</time>
      </trkpt>
      <trkpt lat="49.8632" lon="4.7204">
        <ele>315</ele>
        <time>2024-05-08T11:08:57Z</time>
      </trkpt>
      <trkpt lat="49.86319" lon="4.72041">
        <ele>315</ele>
        <time>2024-05-08T11:08:58Z</time>
      </trkpt>
      <trkpt lat="49.86318" lon="4.72043">
        <ele>315</ele>
        <time>2024-05-08T11:08:59Z</time>
      </trkpt>
      <trkpt lat="49.86317" lon="4.72044">
        <ele>315</ele>
        <time>2024-05-08T11:09:00Z</time>
      </trkpt>
      <trkpt lat="49.86316" lon="4.72045">
        <ele>315</ele>
        <time>2024-05-08T11:09:01Z</time>
      </trkpt>
      <trkpt lat="49.86315" lon="4.72046">
        <ele>315</ele>
        <time>2024-05-08T11:09:02Z</time>
      </trkpt>
      <trkpt lat="49.86315" lon="4.72047">
        <ele>315</ele>
        <time>2024-05-08T11:09:03Z</time>
      </trkpt>
      <trkpt lat="49.86314" lon="4.72048">
        <ele>315</ele>
        <time>2024-05-08T11:09:04Z</time>
      </trkpt>
      <trkpt lat="49.86314" lon="4.72049">
        <ele>315</ele>
        <time>2024-05-08T11:09:05Z</time>
      </trkpt>
      <trkpt lat="49.86314" lon="4.72049">
        <ele>316</ele>
        <time>2024-05-08T11:09:06Z</time>
      </trkpt>
      <trkpt lat="49.86314" lon="4.7205">
        <ele>316</ele>
        <time>2024-05-08T11:09:07Z</time>
      </trkpt>
      <trkpt lat="49.86314" lon="4.72051">
        <ele>316</ele>
        <time>2024-05-08T11:09:08Z</time>
      </trkpt>
      <trkpt lat="49.86313" lon="4.72052">
        <ele>316</ele>
        <time>2024-05-08T11:09:09Z</time>
      </trkpt>
      <trkpt lat="49.86313" lon="4.72054">
        <ele>316</ele>
        <time>2024-05-08T11:09:10Z</time>
      </trkpt>
      <trkpt lat="49.86312" lon="4.72055">
        <ele>316</ele>
        <time>2024-05-08T11:09:11Z</time>
      </trkpt>
      <trkpt lat="49.86311" lon="4.72057">
        <ele>316</ele>
        <time>2024-05-08T11:09:12Z</time>
      </trkpt>
      <trkpt lat="49.8631" lon="4.72058">
        <ele>316</ele>
        <time>2024-05-08T11:09:13Z</time>
      </trkpt>
      <trkpt lat="49.86309" lon="4.7206">
        <ele>316</ele>
        <time>2024-05-08T11:09:14Z</time>
      </trkpt>
      <trkpt lat="49.86309" lon="4.72062">
        <ele>317</ele>
        <time>2024-05-08T11:09:22Z</time>
      </trkpt>
      <trkpt lat="49.86308" lon="4.72064">
        <ele>317</ele>
        <time>2024-05-08T11:09:23Z</time>
      </trkpt>
      <trkpt lat="49.86308" lon="4.72065">
        <ele>317</ele>
        <time>2024-05-08T11:09:24Z</time>
      </trkpt>
      <trkpt lat="49.86308" lon="4.72067">
        <ele>317</ele>
        <time>2024-05-08T11:09:25Z</time>
      </trkpt>
      <trkpt lat="49.86307" lon="4.72068">
        <ele>317</ele>
        <time>2024-05-08T11:09:26Z</time>
      </trkpt>
      <trkpt lat="49.86307" lon="4.7207">
        <ele>317</ele>
        <time>2024-05-08T11:09:27Z</time>
      </trkpt>
      <trkpt lat="49.86306" lon="4.72071">
        <ele>317</ele>
        <time>2024-05-08T11:09:28Z</time>
      </trkpt>
      <trkpt lat="49.86305" lon="4.72072">
        <ele>317</ele>
        <time>2024-05-08T11:09:29Z</time>
      </trkpt>
      <trkpt lat="49.86305" lon="4.72073">
        <ele>317</ele>
        <time>2024-05-08T11:09:30Z</time>
      </trkpt>
      <trkpt lat="49.86304" lon="4.72075">
        <ele>317</ele>
        <time>2024-05-08T11:09:31Z</time>
      </trkpt>
      <trkpt lat="49.86304" lon="4.72076">
        <ele>317</ele>
        <time>2024-05-08T11:09:32Z</time>
      </trkpt>
      <trkpt lat="49.86303" lon="4.72077">
        <ele>317</ele>
        <time>2024-05-08T11:09:33Z</time>
      </trkpt>
      <trkpt lat="49.86302" lon="4.72078">
        <ele>317</ele>
        <time>2024-05-08T11:09:34Z</time>
      </trkpt>
      <trkpt lat="49.86301" lon="4.72079">
        <ele>317</ele>
        <time>2024-05-08T11:09:35Z</time>
      </trkpt>
      <trkpt lat="49.863" lon="4.72081">
        <ele>317</ele>
        <time>2024-05-08T11:09:36Z</time>
      </trkpt>
      <trkpt lat="49.863" lon="4.72082">
        <ele>317</ele>
        <time>2024-05-08T11:09:37Z</time>
      </trkpt>
      <trkpt lat="49.86299" lon="4.72083">
        <ele>317</ele>
        <time>2024-05-08T11:09:38Z</time>
      </trkpt>
      <trkpt lat="49.86298" lon="4.72083">
        <ele>317</ele>
        <time>2024-05-08T11:09:39Z</time>
      </trkpt>
      <trkpt lat="49.86297" lon="4.72084">
        <ele>317</ele>
        <time>2024-05-08T11:09:40Z</time>
      </trkpt>
      <trkpt lat="49.86297" lon="4.72085">
        <ele>318</ele>
        <time>2024-05-08T11:09:41Z</time>
      </trkpt>
      <trkpt lat="49.86297" lon="4.72085">
        <ele>318</ele>
        <time>2024-05-08T11:09:42Z</time>
      </trkpt>
      <trkpt lat="49.86296" lon="4.72086">
        <ele>318</ele>
        <time>2024-05-08T11:09:43Z</time>
      </trkpt>
      <trkpt lat="49.86295" lon="4.72087">
        <ele>318</ele>
        <time>2024-05-08T11:09:44Z</time>
      </trkpt>
      <trkpt lat="49.86295" lon="4.72088">
        <ele>318</ele>
        <time>2024-05-08T11:09:45Z</time>
      </trkpt>
      <trkpt lat="49.86294" lon="4.72089">
        <ele>318</ele>
        <time>2024-05-08T11:09:46Z</time>
      </trkpt>
      <trkpt lat="49.86293" lon="4.7209">
        <ele>318</ele>
        <time>2024-05-08T11:09:47Z</time>
      </trkpt>
      <trkpt lat="49.86292" lon="4.72091">
        <ele>318</ele>
        <time>2024-05-08T11:09:48Z</time>
      </trkpt>
      <trkpt lat="49.86292" lon="4.72092">
        <ele>319</ele>
        <time>2024-05-08T11:09:56Z</time>
      </trkpt>
      <trkpt lat="49.86291" lon="4.72093">
        <ele>319</ele>
        <time>2024-05-08T11:09:57Z</time>
      </trkpt>
      <trkpt lat="49.86291" lon="4.72093">
        <ele>319</ele>
        <time>2024-05-08T11:09:58Z</time>
      </trkpt>
      <trkpt lat="49.8629" lon="4.72094">
        <ele>319</ele>
        <time>2024-05-08T11:09:59Z</time>
      </trkpt>
      <trkpt lat="49.8629" lon="4.72095">
        <ele>319</ele>
        <time>2024-05-08T11:10:00Z</time>
      </trkpt>
      <trkpt lat="49.86289" lon="4.72097">
        <ele>319</ele>
        <time>2024-05-08T11:10:06Z</time>
      </trkpt>
      <trkpt lat="49.86289" lon="4.72097">
        <ele>319</ele>
        <time>2024-05-08T11:10:07Z</time>
      </trkpt>
      <trkpt lat="49.86289" lon="4.72098">
        <ele>319</ele>
        <time>2024-05-08T11:10:08Z</time>
      </trkpt>
      <trkpt lat="49.86289" lon="4.72097">
        <ele>319</ele>
        <time>2024-05-08T11:10:09Z</time>
      </trkpt>
      <trkpt lat="49.86289" lon="4.72097">
        <ele>319</ele>
        <time>2024-05-08T11:10:10Z</time>
      </trkpt>
      <trkpt lat="49.8629" lon="4.72096">
        <ele>320</ele>
        <time>2024-05-08T11:10:11Z</time>
      </trkpt>
      <trkpt lat="49.8629" lon="4.72096">
        <ele>319</ele>
        <time>2024-05-08T11:10:12Z</time>
      </trkpt>
      <trkpt lat="49.86291" lon="4.72095">
        <ele>319</ele>
        <time>2024-05-08T11:10:13Z</time>
      </trkpt>
      <trkpt lat="49.86291" lon="4.72093">
        <ele>319</ele>
        <time>2024-05-08T11:10:14Z</time>
      </trkpt>
      <trkpt lat="49.86292" lon="4.72092">
        <ele>319</ele>
        <time>2024-05-08T11:10:15Z</time>
      </trkpt>
      <trkpt lat="49.86292" lon="4.72091">
        <ele>319</ele>
        <time>2024-05-08T11:10:16Z</time>
      </trkpt>
      <trkpt lat="49.86293" lon="4.7209">
        <ele>318</ele>
        <time>2024-05-08T11:10:17Z</time>
      </trkpt>
      <trkpt lat="49.86293" lon="4.72088">
        <ele>318</ele>
        <time>2024-05-08T11:10:18Z</time>
      </trkpt>
      <trkpt lat="49.86294" lon="4.72087">
        <ele>318</ele>
        <time>2024-05-08T11:10:19Z</time>
      </trkpt>
      <trkpt lat="49.86295" lon="4.72085">
        <ele>318</ele>
        <time>2024-05-08T11:10:20Z</time>
      </trkpt>
      <trkpt lat="49.86295" lon="4.72084">
        <ele>318</ele>
        <time>2024-05-08T11:10:21Z</time>
      </trkpt>
      <trkpt lat="49.86296" lon="4.72083">
        <ele>318</ele>
        <time>2024-05-08T11:10:22Z</time>
      </trkpt>
      <trkpt lat="49.86296" lon="4.72082">
        <ele>318</ele>
        <time>2024-05-08T11:10:23Z</time>
      </trkpt>
      <trkpt lat="49.86297" lon="4.7208">
        <ele>318</ele>
        <time>2024-05-08T11:10:24Z</time>
      </trkpt>
      <trkpt lat="49.86297" lon="4.72079">
        <ele>318</ele>
        <time>2024-05-08T11:10:25Z</time>
      </trkpt>
      <trkpt lat="49.86298" lon="4.72078">
        <ele>318</ele>
        <time>2024-05-08T11:10:26Z</time>
      </trkpt>
      <trkpt lat="49.86298" lon="4.72076">
        <ele>317</ele>
        <time>2024-05-08T11:10:27Z</time>
      </trkpt>
      <trkpt lat="49.86298" lon="4.72075">
        <ele>317</ele>
        <time>2024-05-08T11:10:28Z</time>
      </trkpt>
      <trkpt lat="49.86299" lon="4.72074">
        <ele>317</ele>
        <time>2024-05-08T11:10:29Z</time>
      </trkpt>
      <trkpt lat="49.863" lon="4.72072">
        <ele>317</ele>
        <time>2024-05-08T11:10:30Z</time>
      </trkpt>
      <trkpt lat="49.86301" lon="4.72071">
        <ele>317</ele>
        <time>2024-05-08T11:10:31Z</time>
      </trkpt>
      <trkpt lat="49.86301" lon="4.72071">
        <ele>317</ele>
        <time>2024-05-08T11:10:32Z</time>
      </trkpt>
      <trkpt lat="49.86302" lon="4.7207">
        <ele>317</ele>
        <time>2024-05-08T11:10:33Z</time>
      </trkpt>
      <trkpt lat="49.86304" lon="4.7207">
        <ele>317</ele>
        <time>2024-05-08T11:10:34Z</time>
      </trkpt>
      <trkpt lat="49.86305" lon="4.7207">
        <ele>317</ele>
        <time>2024-05-08T11:10:35Z</time>
      </trkpt>
      <trkpt lat="49.86306" lon="4.72071">
        <ele>317</ele>
        <time>2024-05-08T11:10:36Z</time>
      </trkpt>
      <trkpt lat="49.86307" lon="4.72072">
        <ele>317</ele>
        <time>2024-05-08T11:10:37Z</time>
      </trkpt>
      <trkpt lat="49.86308" lon="4.72073">
        <ele>317</ele>
        <time>2024-05-08T11:10:38Z</time>
      </trkpt>
      <trkpt lat="49.86308" lon="4.72074">
        <ele>317</ele>
        <time>2024-05-08T11:10:39Z</time>
      </trkpt>
      <trkpt lat="49.86309" lon="4.72076">
        <ele>317</ele>
        <time>2024-05-08T11:10:40Z</time>
      </trkpt>
      <trkpt lat="49.8631" lon="4.72078">
        <ele>317</ele>
        <time>2024-05-08T11:10:41Z</time>
      </trkpt>
      <trkpt lat="49.86311" lon="4.72079">
        <ele>317</ele>
        <time>2024-05-08T11:10:42Z</time>
      </trkpt>
      <trkpt lat="49.86311" lon="4.7208">
        <ele>317</ele>
        <time>2024-05-08T11:10:43Z</time>
      </trkpt>
      <trkpt lat="49.86312" lon="4.72082">
        <ele>317</ele>
        <time>2024-05-08T11:10:44Z</time>
      </trkpt>
      <trkpt lat="49.86313" lon="4.72083">
        <ele>317</ele>
        <time>2024-05-08T11:10:45Z</time>
      </trkpt>
      <trkpt lat="49.86314" lon="4.72084">
        <ele>317</ele>
        <time>2024-05-08T11:10:46Z</time>
      </trkpt>
      <trkpt lat="49.86314" lon="4.72086">
        <ele>316</ele>
        <time>2024-05-08T11:10:47Z</time>
      </trkpt>
      <trkpt lat="49.86315" lon="4.72088">
        <ele>316</ele>
        <time>2024-05-08T11:10:48Z</time>
      </trkpt>
      <trkpt lat="49.86315" lon="4.72089">
        <ele>316</ele>
        <time>2024-05-08T11:10:49Z</time>
      </trkpt>
      <trkpt lat="49.86316" lon="4.72091">
        <ele>316</ele>
        <time>2024-05-08T11:10:50Z</time>
      </trkpt>
      <trkpt lat="49.86316" lon="4.72093">
        <ele>316</ele>
        <time>2024-05-08T11:10:51Z</time>
      </trkpt>
      <trkpt lat="49.86316" lon="4.72094">
        <ele>316</ele>
        <time>2024-05-08T11:10:52Z</time>
      </trkpt>
      <trkpt lat="49.86317" lon="4.72095">
        <ele>316</ele>
        <time>2024-05-08T11:10:53Z</time>
      </trkpt>
      <trkpt lat="49.86317" lon="4.72097">
        <ele>316</ele>
        <time>2024-05-08T11:10:54Z</time>
      </trkpt>
      <trkpt lat="49.86317" lon="4.72099">
        <ele>316</ele>
        <time>2024-05-08T11:10:55Z</time>
      </trkpt>
      <trkpt lat="49.86318" lon="4.721">
        <ele>316</ele>
        <time>2024-05-08T11:10:56Z</time>
      </trkpt>
      <trkpt lat="49.86319" lon="4.72102">
        <ele>315</ele>
        <time>2024-05-08T11:10:57Z</time>
      </trkpt>
      <trkpt lat="49.86319" lon="4.72102">
        <ele>315</ele>
        <time>2024-05-08T11:10:58Z</time>
      </trkpt>
      <trkpt lat="49.86319" lon="4.72103">
        <ele>315</ele>
        <time>2024-05-08T11:10:59Z</time>
      </trkpt>
      <trkpt lat="49.8632" lon="4.72103">
        <ele>315</ele>
        <time>2024-05-08T11:11:00Z</time>
      </trkpt>
      <trkpt lat="49.8632" lon="4.72104">
        <ele>315</ele>
        <time>2024-05-08T11:11:01Z</time>
      </trkpt>
      <trkpt lat="49.86321" lon="4.72106">
        <ele>315</ele>
        <time>2024-05-08T11:11:02Z</time>
      </trkpt>
      <trkpt lat="49.86321" lon="4.72107">
        <ele>315</ele>
        <time>2024-05-08T11:11:03Z</time>
      </trkpt>
      <trkpt lat="49.86322" lon="4.72108">
        <ele>315</ele>
        <time>2024-05-08T11:11:04Z</time>
      </trkpt>
      <trkpt lat="49.86322" lon="4.7211">
        <ele>315</ele>
        <time>2024-05-08T11:11:05Z</time>
      </trkpt>
      <trkpt lat="49.86322" lon="4.72111">
        <ele>315</ele>
        <time>2024-05-08T11:11:06Z</time>
      </trkpt>
      <trkpt lat="49.86322" lon="4.72113">
        <ele>315</ele>
        <time>2024-05-08T11:11:07Z</time>
      </trkpt>
      <trkpt lat="49.86322" lon="4.72114">
        <ele>315</ele>
        <time>2024-05-08T11:11:08Z</time>
      </trkpt>
      <trkpt lat="49.86322" lon="4.72116">
        <ele>315</ele>
        <time>2024-05-08T11:11:09Z</time>
      </trkpt>
      <trkpt lat="49.86323" lon="4.72117">
        <ele>315</ele>
        <time>2024-05-08T11:11:10Z</time>
      </trkpt>
      <trkpt lat="49.86323" lon="4.72119">
        <ele>315</ele>
        <time>2024-05-08T11:11:11Z</time>
      </trkpt>
      <trkpt lat="49.86323" lon="4.7212">
        <ele>314</ele>
        <time>2024-05-08T11:11:12Z</time>
      </trkpt>
      <trkpt lat="49.86324" lon="4.72122">
        <ele>314</ele>
        <time>2024-05-08T11:11:13Z</time>
      </trkpt>
      <trkpt lat="49.86324" lon="4.72124">
        <ele>314</ele>
        <time>2024-05-08T11:11:14Z</time>
      </trkpt>
      <trkpt lat="49.86325" lon="4.72126">
        <ele>314</ele>
        <time>2024-05-08T11:11:15Z</time>
      </trkpt>
      <trkpt lat="49.86325" lon="4.72128">
        <ele>314</ele>
        <time>2024-05-08T11:11:16Z</time>
      </trkpt>
      <trkpt lat="49.86326" lon="4.7213">
        <ele>314</ele>
        <time>2024-05-08T11:11:17Z</time>
      </trkpt>
      <trkpt lat="49.86326" lon="4.72132">
        <ele>314</ele>
        <time>2024-05-08T11:11:18Z</time>
      </trkpt>
      <trkpt lat="49.86327" lon="4.72134">
        <ele>314</ele>
        <time>2024-05-08T11:11:19Z</time>
      </trkpt>
      <trkpt lat="49.86328" lon="4.72136">
        <ele>314</ele>
        <time>2024-05-08T11:11:20Z</time>
      </trkpt>
      <trkpt lat="49.86329" lon="4.72137">
        <ele>314</ele>
        <time>2024-05-08T11:11:21Z</time>
      </trkpt>
      <trkpt lat="49.86329" lon="4.72139">
        <ele>314</ele>
        <time>2024-05-08T11:11:22Z</time>
      </trkpt>
      <trkpt lat="49.8633" lon="4.72141">
        <ele>314</ele>
        <time>2024-05-08T11:11:23Z</time>
      </trkpt>
      <trkpt lat="49.86331" lon="4.72143">
        <ele>314</ele>
        <time>2024-05-08T11:11:24Z</time>
      </trkpt>
      <trkpt lat="49.86331" lon="4.72145">
        <ele>314</ele>
        <time>2024-05-08T11:11:25Z</time>
      </trkpt>
      <trkpt lat="49.86332" lon="4.72147">
        <ele>314</ele>
        <time>2024-05-08T11:11:26Z</time>
      </trkpt>
      <trkpt lat="49.86333" lon="4.72149">
        <ele>314</ele>
        <time>2024-05-08T11:11:27Z</time>
      </trkpt>
      <trkpt lat="49.86333" lon="4.72151">
        <ele>314</ele>
        <time>2024-05-08T11:11:28Z</time>
      </trkpt>
      <trkpt lat="49.86334" lon="4.72153">
        <ele>314</ele>
        <time>2024-05-08T11:11:29Z</time>
      </trkpt>
      <trkpt lat="49.86335" lon="4.72155">
        <ele>314</ele>
        <time>2024-05-08T11:11:30Z</time>
      </trkpt>
      <trkpt lat="49.86335" lon="4.72157">
        <ele>314</ele>
        <time>2024-05-08T11:11:31Z</time>
      </trkpt>
      <trkpt lat="49.86336" lon="4.72158">
        <ele>314</ele>
        <time>2024-05-08T11:11:32Z</time>
      </trkpt>
      <trkpt lat="49.86336" lon="4.7216">
        <ele>314</ele>
        <time>2024-05-08T11:11:33Z</time>
      </trkpt>
      <trkpt lat="49.86336" lon="4.72161">
        <ele>314</ele>
        <time>2024-05-08T11:11:34Z</time>
      </trkpt>
      <trkpt lat="49.86336" lon="4.72162">
        <ele>314</ele>
        <time>2024-05-08T11:11:35Z</time>
      </trkpt>
      <trkpt lat="49.86336" lon="4.72163">
        <ele>314</ele>
        <time>2024-05-08T11:11:36Z</time>
      </trkpt>
      <trkpt lat="49.86336" lon="4.72164">
        <ele>314</ele>
        <time>2024-05-08T11:11:37Z</time>
      </trkpt>
      <trkpt lat="49.86336" lon="4.72165">
        <ele>314</ele>
        <time>2024-05-08T11:11:38Z</time>
      </trkpt>
      <trkpt lat="49.86336" lon="4.72166">
        <ele>314</ele>
        <time>2024-05-08T11:11:39Z</time>
      </trkpt>
      <trkpt lat="49.86336" lon="4.72167">
        <ele>314</ele>
        <time>2024-05-08T11:11:40Z</time>
      </trkpt>
      <trkpt lat="49.86335" lon="4.72169">
        <ele>314</ele>
        <time>2024-05-08T11:11:41Z</time>
      </trkpt>
      <trkpt lat="49.86335" lon="4.7217">
        <ele>314</ele>
        <time>2024-05-08T11:11:42Z</time>
      </trkpt>
      <trkpt lat="49.86335" lon="4.72172">
        <ele>314</ele>
        <time>2024-05-08T11:11:43Z</time>
      </trkpt>
      <trkpt lat="49.86335" lon="4.72174">
        <ele>314</ele>
        <time>2024-05-08T11:11:44Z</time>
      </trkpt>
      <trkpt lat="49.86335" lon="4.72175">
        <ele>314</ele>
        <time>2024-05-08T11:11:45Z</time>
      </trkpt>
      <trkpt lat="49.86335" lon="4.72177">
        <ele>314</ele>
        <time>2024-05-08T11:11:46Z</time>
      </trkpt>
      <trkpt lat="49.86334" lon="4.72179">
        <ele>314</ele>
        <time>2024-05-08T11:11:47Z</time>
      </trkpt>
      <trkpt lat="49.86334" lon="4.7218">
        <ele>314</ele>
        <time>2024-05-08T11:11:48Z</time>
      </trkpt>
      <trkpt lat="49.86334" lon="4.72182">
        <ele>314</ele>
        <time>2024-05-08T11:11:49Z</time>
      </trkpt>
      <trkpt lat="49.86334" lon="4.72183">
        <ele>314</ele>
        <time>2024-05-08T11:11:50Z</time>
      </trkpt>
      <trkpt lat="49.86334" lon="4.72184">
        <ele>315</ele>
        <time>2024-05-08T11:11:51Z</time>
      </trkpt>
      <trkpt lat="49.86334" lon="4.72186">
        <ele>315</ele>
        <time>2024-05-08T11:11:52Z</time>
      </trkpt>
      <trkpt lat="49.86334" lon="4.72187">
        <ele>315</ele>
        <time>2024-05-08T11:11:53Z</time>
      </trkpt>
      <trkpt lat="49.86335" lon="4.72188">
        <ele>315</ele>
        <time>2024-05-08T11:11:54Z</time>
      </trkpt>
      <trkpt lat="49.86335" lon="4.7219">
        <ele>315</ele>
        <time>2024-05-08T11:11:55Z</time>
      </trkpt>
      <trkpt lat="49.86336" lon="4.72191">
        <ele>316</ele>
        <time>2024-05-08T11:11:56Z</time>
      </trkpt>
      <trkpt lat="49.86336" lon="4.72193">
        <ele>316</ele>
        <time>2024-05-08T11:11:57Z</time>
      </trkpt>
      <trkpt lat="49.86337" lon="4.72194">
        <ele>316</ele>
        <time>2024-05-08T11:11:58Z</time>
      </trkpt>
      <trkpt lat="49.86337" lon="4.72196">
        <ele>316</ele>
        <time>2024-05-08T11:11:59Z</time>
      </trkpt>
      <trkpt lat="49.86337" lon="4.72197">
        <ele>316</ele>
        <time>2024-05-08T11:12:00Z</time>
      </trkpt>
      <trkpt lat="49.86337" lon="4.72198">
        <ele>316</ele>
        <time>2024-05-08T11:12:01Z</time>
      </trkpt>
      <trkpt lat="49.86337" lon="4.722">
        <ele>316</ele>
        <time>2024-05-08T11:12:02Z</time>
      </trkpt>
      <trkpt lat="49.86337" lon="4.72201">
        <ele>316</ele>
        <time>2024-05-08T11:12:03Z</time>
      </trkpt>
      <trkpt lat="49.86338" lon="4.72203">
        <ele>316</ele>
        <time>2024-05-08T11:12:04Z</time>
      </trkpt>
      <trkpt lat="49.86338" lon="4.72204">
        <ele>316</ele>
        <time>2024-05-08T11:12:05Z</time>
      </trkpt>
      <trkpt lat="49.86338" lon="4.72206">
        <ele>317</ele>
        <time>2024-05-08T11:12:06Z</time>
      </trkpt>
      <trkpt lat="49.86338" lon="4.72208">
        <ele>317</ele>
        <time>2024-05-08T11:12:07Z</time>
      </trkpt>
      <trkpt lat="49.86338" lon="4.72209">
        <ele>317</ele>
        <time>2024-05-08T11:12:08Z</time>
      </trkpt>
      <trkpt lat="49.86338" lon="4.72211">
        <ele>317</ele>
        <time>2024-05-08T11:12:09Z</time>
      </trkpt>
      <trkpt lat="49.86338" lon="4.72212">
        <ele>317</ele>
        <time>2024-05-08T11:12:10Z</time>
      </trkpt>
      <trkpt lat="49.86338" lon="4.72214">
        <ele>318</ele>
        <time>2024-05-08T11:12:11Z</time>
      </trkpt>
      <trkpt lat="49.86338" lon="4.72215">
        <ele>318</ele>
        <time>2024-05-08T11:12:12Z</time>
      </trkpt>
      <trkpt lat="49.86338" lon="4.72216">
        <ele>318</ele>
        <time>2024-05-08T11:12:13Z</time>
      </trkpt>
      <trkpt lat="49.86338" lon="4.72217">
        <ele>318</ele>
        <time>2024-05-08T11:12:14Z</time>
      </trkpt>
      <trkpt lat="49.86338" lon="4.72218">
        <ele>318</ele>
        <time>2024-05-08T11:12:15Z</time>
      </trkpt>
      <trkpt lat="49.86339" lon="4.72219">
        <ele>319</ele>
        <time>2024-05-08T11:12:16Z</time>
      </trkpt>
      <trkpt lat="49.86339" lon="4.72221">
        <ele>319</ele>
        <time>2024-05-08T11:12:17Z</time>
      </trkpt>
      <trkpt lat="49.8634" lon="4.72222">
        <ele>319</ele>
        <time>2024-05-08T11:12:18Z</time>
      </trkpt>
      <trkpt lat="49.86341" lon="4.72223">
        <ele>319</ele>
        <time>2024-05-08T11:12:19Z</time>
      </trkpt>
      <trkpt lat="49.86341" lon="4.72224">
        <ele>319</ele>
        <time>2024-05-08T11:12:20Z</time>
      </trkpt>
      <trkpt lat="49.86342" lon="4.72225">
        <ele>320</ele>
        <time>2024-05-08T11:12:21Z</time>
      </trkpt>
      <trkpt lat="49.86342" lon="4.72226">
        <ele>320</ele>
        <time>2024-05-08T11:12:22Z</time>
      </trkpt>
      <trkpt lat="49.86343" lon="4.72227">
        <ele>320</ele>
        <time>2024-05-08T11:12:23Z</time>
      </trkpt>
      <trkpt lat="49.86344" lon="4.72228">
        <ele>320</ele>
        <time>2024-05-08T11:12:24Z</time>
      </trkpt>
      <trkpt lat="49.86345" lon="4.72229">
        <ele>320</ele>
        <time>2024-05-08T11:12:25Z</time>
      </trkpt>
      <trkpt lat="49.86346" lon="4.7223">
        <ele>320</ele>
        <time>2024-05-08T11:12:26Z</time>
      </trkpt>
      <trkpt lat="49.86346" lon="4.72231">
        <ele>319</ele>
        <time>2024-05-08T11:12:27Z</time>
      </trkpt>
      <trkpt lat="49.86347" lon="4.72232">
        <ele>319</ele>
        <time>2024-05-08T11:12:28Z</time>
      </trkpt>
      <trkpt lat="49.86348" lon="4.72233">
        <ele>318</ele>
        <time>2024-05-08T11:12:29Z</time>
      </trkpt>
      <trkpt lat="49.86348" lon="4.72234">
        <ele>318</ele>
        <time>2024-05-08T11:12:30Z</time>
      </trkpt>
      <trkpt lat="49.86349" lon="4.72235">
        <ele>318</ele>
        <time>2024-05-08T11:12:31Z</time>
      </trkpt>
      <trkpt lat="49.8635" lon="4.72236">
        <ele>317</ele>
        <time>2024-05-08T11:12:32Z</time>
      </trkpt>
      <trkpt lat="49.8635" lon="4.72237">
        <ele>317</ele>
        <time>2024-05-08T11:12:33Z</time>
      </trkpt>
      <trkpt lat="49.86351" lon="4.72238">
        <ele>317</ele>
        <time>2024-05-08T11:12:34Z</time>
      </trkpt>
      <trkpt lat="49.86352" lon="4.7224">
        <ele>317</ele>
        <time>2024-05-08T11:12:35Z</time>
      </trkpt>
      <trkpt lat="49.86353" lon="4.72241">
        <ele>317</ele>
        <time>2024-05-08T11:12:36Z</time>
      </trkpt>
      <trkpt lat="49.86353" lon="4.72243">
        <ele>317</ele>
        <time>2024-05-08T11:12:37Z</time>
      </trkpt>
      <trkpt lat="49.86354" lon="4.72245">
        <ele>317</ele>
        <time>2024-05-08T11:12:38Z</time>
      </trkpt>
      <trkpt lat="49.86354" lon="4.72246">
        <ele>317</ele>
        <time>2024-05-08T11:12:39Z</time>
      </trkpt>
      <trkpt lat="49.86355" lon="4.72248">
        <ele>317</ele>
        <time>2024-05-08T11:12:40Z</time>
      </trkpt>
      <trkpt lat="49.86355" lon="4.7225">
        <ele>317</ele>
        <time>2024-05-08T11:12:41Z</time>
      </trkpt>
      <trkpt lat="49.86355" lon="4.72251">
        <ele>317</ele>
        <time>2024-05-08T11:12:42Z</time>
      </trkpt>
      <trkpt lat="49.86356" lon="4.72254">
        <ele>317</ele>
        <time>2024-05-08T11:12:43Z</time>
      </trkpt>
      <trkpt lat="49.86356" lon="4.72256">
        <ele>317</ele>
        <time>2024-05-08T11:12:44Z</time>
      </trkpt>
      <trkpt lat="49.86356" lon="4.72258">
        <ele>317</ele>
        <time>2024-05-08T11:12:45Z</time>
      </trkpt>
      <trkpt lat="49.86358" lon="4.72263">
        <ele>317</ele>
        <time>2024-05-08T11:32:00Z</time>
      </trkpt>
      <trkpt lat="49.86358" lon="4.72264">
        <ele>317</ele>
        <time>2024-05-08T11:32:01Z</time>
      </trkpt>
      <trkpt lat="49.86359" lon="4.72265">
        <ele>317</ele>
        <time>2024-05-08T11:32:02Z</time>
      </trkpt>
      <trkpt lat="49.86358" lon="4.72267">
        <ele>318</ele>
        <time>2024-05-08T11:40:14Z</time>
      </trkpt>
      <trkpt lat="49.86356" lon="4.72268">
        <ele>318</ele>
        <time>2024-05-08T11:40:15Z</time>
      </trkpt>
      <trkpt lat="49.86355" lon="4.72269">
        <ele>318</ele>
        <time>2024-05-08T11:40:16Z</time>
      </trkpt>
      <trkpt lat="49.86354" lon="4.72268">
        <ele>317</ele>
        <time>2024-05-08T11:40:17Z</time>
      </trkpt>
      <trkpt lat="49.86353" lon="4.72268">
        <ele>317</ele>
        <time>2024-05-08T11:40:18Z</time>
      </trkpt>
      <trkpt lat="49.86353" lon="4.72268">
        <ele>317</ele>
        <time>2024-05-08T11:42:15Z</time>
      </trkpt>
      <trkpt lat="49.86352" lon="4.72268">
        <ele>317</ele>
        <time>2024-05-08T11:42:16Z</time>
      </trkpt>
      <trkpt lat="49.86352" lon="4.72269">
        <ele>317</ele>
        <time>2024-05-08T11:42:17Z</time>
      </trkpt>
      <trkpt lat="49.86351" lon="4.72269">
        <ele>317</ele>
        <time>2024-05-08T11:42:18Z</time>
      </trkpt>
      <trkpt lat="49.86351" lon="4.7227">
        <ele>317</ele>
        <time>2024-05-08T11:42:19Z</time>
      </trkpt>
      <trkpt lat="49.86351" lon="4.72271">
        <ele>317</ele>
        <time>2024-05-08T11:42:20Z</time>
      </trkpt>
      <trkpt lat="49.86351" lon="4.72271">
        <ele>317</ele>
        <time>2024-05-08T11:42:21Z</time>
      </trkpt>
      <trkpt lat="49.8635" lon="4.72272">
        <ele>316</ele>
        <time>2024-05-08T11:42:22Z</time>
      </trkpt>
      <trkpt lat="49.8635" lon="4.72273">
        <ele>316</ele>
        <time>2024-05-08T11:42:23Z</time>
      </trkpt>
      <trkpt lat="49.86349" lon="4.72274">
        <ele>316</ele>
        <time>2024-05-08T11:42:24Z</time>
      </trkpt>
      <trkpt lat="49.86349" lon="4.72275">
        <ele>316</ele>
        <time>2024-05-08T11:42:25Z</time>
      </trkpt>
      <trkpt lat="49.86348" lon="4.72276">
        <ele>316</ele>
        <time>2024-05-08T11:42:26Z</time>
      </trkpt>
      <trkpt lat="49.86347" lon="4.72277">
        <ele>315</ele>
        <time>2024-05-08T11:42:27Z</time>
      </trkpt>
      <trkpt lat="49.86347" lon="4.72278">
        <ele>315</ele>
        <time>2024-05-08T11:42:28Z</time>
      </trkpt>
      <trkpt lat="49.86346" lon="4.72279">
        <ele>315</ele>
        <time>2024-05-08T11:42:29Z</time>
      </trkpt>
      <trkpt lat="49.86345" lon="4.72281">
        <ele>315</ele>
        <time>2024-05-08T11:42:30Z</time>
      </trkpt>
      <trkpt lat="49.86345" lon="4.72282">
        <ele>315</ele>
        <time>2024-05-08T11:42:31Z</time>
      </trkpt>
      <trkpt lat="49.86345" lon="4.72283">
        <ele>315</ele>
        <time>2024-05-08T11:42:32Z</time>
      </trkpt>
      <trkpt lat="49.86345" lon="4.72284">
        <ele>315</ele>
        <time>2024-05-08T11:42:33Z</time>
      </trkpt>
      <trkpt lat="49.86345" lon="4.72285">
        <ele>315</ele>
        <time>2024-05-08T11:42:34Z</time>
      </trkpt>
      <trkpt lat="49.86345" lon="4.72287">
        <ele>315</ele>
        <time>2024-05-08T11:42:35Z</time>
      </trkpt>
      <trkpt lat="49.86345" lon="4.72288">
        <ele>315</ele>
        <time>2024-05-08T11:42:36Z</time>
      </trkpt>
      <trkpt lat="49.86345" lon="4.7229">
        <ele>314</ele>
        <time>2024-05-08T11:42:37Z</time>
      </trkpt>
      <trkpt lat="49.86345" lon="4.72291">
        <ele>314</ele>
        <time>2024-05-08T11:42:38Z</time>
      </trkpt>
      <trkpt lat="49.86346" lon="4.72293">
        <ele>314</ele>
        <time>2024-05-08T11:42:39Z</time>
      </trkpt>
      <trkpt lat="49.86346" lon="4.72294">
        <ele>314</ele>
        <time>2024-05-08T11:42:40Z</time>
      </trkpt>
      <trkpt lat="49.86346" lon="4.72296">
        <ele>314</ele>
        <time>2024-05-08T11:42:41Z</time>
      </trkpt>
      <trkpt lat="49.86346" lon="4.72297">
        <ele>314</ele>
        <time>2024-05-08T11:42:42Z</time>
      </trkpt>
      <trkpt lat="49.86347" lon="4.72299">
        <ele>314</ele>
        <time>2024-05-08T11:42:43Z</time>
      </trkpt>
      <trkpt lat="49.86347" lon="4.723">
        <ele>314</ele>
        <time>2024-05-08T11:42:44Z</time>
      </trkpt>
      <trkpt lat="49.86348" lon="4.72301">
        <ele>314</ele>
        <time>2024-05-08T11:42:45Z</time>
      </trkpt>
      <trkpt lat="49.86348" lon="4.72303">
        <ele>314</ele>
        <time>2024-05-08T11:42:46Z</time>
      </trkpt>
      <trkpt lat="49.86349" lon="4.72304">
        <ele>313</ele>
        <time>2024-05-08T11:42:47Z</time>
      </trkpt>
      <trkpt lat="49.8635" lon="4.72305">
        <ele>313</ele>
        <time>2024-05-08T11:42:48Z</time>
      </trkpt>
      <trkpt lat="49.8635" lon="4.72307">
        <ele>313</ele>
        <time>2024-05-08T11:42:49Z</time>
      </trkpt>
      <trkpt lat="49.86351" lon="4.72308">
        <ele>313</ele>
        <time>2024-05-08T11:42:50Z</time>
      </trkpt>
      <trkpt lat="49.86351" lon="4.72309">
        <ele>313</ele>
        <time>2024-05-08T11:42:51Z</time>
      </trkpt>
      <trkpt lat="49.86351" lon="4.7231">
        <ele>313</ele>
        <time>2024-05-08T11:42:52Z</time>
      </trkpt>
      <trkpt lat="49.86351" lon="4.72311">
        <ele>313</ele>
        <time>2024-05-08T11:42:53Z</time>
      </trkpt>
      <trkpt lat="49.86351" lon="4.72312">
        <ele>313</ele>
        <time>2024-05-08T11:42:54Z</time>
      </trkpt>
      <trkpt lat="49.86352" lon="4.72313">
        <ele>313</ele>
        <time>2024-05-08T11:42:55Z</time>
      </trkpt>
      <trkpt lat="49.86352" lon="4.72314">
        <ele>313</ele>
        <time>2024-05-08T11:42:56Z</time>
      </trkpt>
      <trkpt lat="49.86352" lon="4.72316">
        <ele>313</ele>
        <time>2024-05-08T11:42:57Z</time>
      </trkpt>
      <trkpt lat="49.86353" lon="4.72317">
        <ele>313</ele>
        <time>2024-05-08T11:42:58Z</time>
      </trkpt>
      <trkpt lat="49.86353" lon="4.72318">
        <ele>313</ele>
        <time>2024-05-08T11:42:59Z</time>
      </trkpt>
      <trkpt lat="49.86353" lon="4.7232">
        <ele>313</ele>
        <time>2024-05-08T11:43:00Z</time>
      </trkpt>
      <trkpt lat="49.86354" lon="4.72321">
        <ele>313</ele>
        <time>2024-05-08T11:43:01Z</time>
      </trkpt>
      <trkpt lat="49.86354" lon="4.72323">
        <ele>313</ele>
        <time>2024-05-08T11:43:02Z</time>
      </trkpt>
      <trkpt lat="49.86354" lon="4.72325">
        <ele>313</ele>
        <time>2024-05-08T11:43:03Z</time>
      </trkpt>
      <trkpt lat="49.86354" lon="4.72327">
        <ele>313</ele>
        <time>2024-05-08T11:43:04Z</time>
      </trkpt>
      <trkpt lat="49.86354" lon="4.72328">
        <ele>313</ele>
        <time>2024-05-08T11:43:05Z</time>
      </trkpt>
      <trkpt lat="49.86354" lon="4.7233">
        <ele>313</ele>
        <time>2024-05-08T11:43:06Z</time>
      </trkpt>
      <trkpt lat="49.86354" lon="4.72332">
        <ele>313</ele>
        <time>2024-05-08T11:43:07Z</time>
      </trkpt>
      <trkpt lat="49.86355" lon="4.72334">
        <ele>313</ele>
        <time>2024-05-08T11:43:08Z</time>
      </trkpt>
      <trkpt lat="49.86354" lon="4.72336">
        <ele>313</ele>
        <time>2024-05-08T11:43:09Z</time>
      </trkpt>
      <trkpt lat="49.86354" lon="4.72337">
        <ele>313</ele>
        <time>2024-05-08T11:43:10Z</time>
      </trkpt>
      <trkpt lat="49.86354" lon="4.72338">
        <ele>314</ele>
        <time>2024-05-08T11:43:11Z</time>
      </trkpt>
      <trkpt lat="49.86353" lon="4.7234">
        <ele>314</ele>
        <time>2024-05-08T11:43:12Z</time>
      </trkpt>
      <trkpt lat="49.86353" lon="4.72341">
        <ele>314</ele>
        <time>2024-05-08T11:43:13Z</time>
      </trkpt>
      <trkpt lat="49.86353" lon="4.72342">
        <ele>314</ele>
        <time>2024-05-08T11:43:14Z</time>
      </trkpt>
      <trkpt lat="49.86352" lon="4.72344">
        <ele>315</ele>
        <time>2024-05-08T11:43:23Z</time>
      </trkpt>
      <trkpt lat="49.86352" lon="4.72345">
        <ele>315</ele>
        <time>2024-05-08T11:43:24Z</time>
      </trkpt>
      <trkpt lat="49.86352" lon="4.72347">
        <ele>315</ele>
        <time>2024-05-08T11:43:25Z</time>
      </trkpt>
      <trkpt lat="49.86352" lon="4.72348">
        <ele>316</ele>
        <time>2024-05-08T11:43:26Z</time>
      </trkpt>
      <trkpt lat="49.86352" lon="4.72349">
        <ele>316</ele>
        <time>2024-05-08T11:43:27Z</time>
      </trkpt>
      <trkpt lat="49.86353" lon="4.7235">
        <ele>316</ele>
        <time>2024-05-08T11:43:28Z</time>
      </trkpt>
      <trkpt lat="49.86353" lon="4.72351">
        <ele>316</ele>
        <time>2024-05-08T11:43:29Z</time>
      </trkpt>
      <trkpt lat="49.86354" lon="4.72352">
        <ele>316</ele>
        <time>2024-05-08T11:43:30Z</time>
      </trkpt>
      <trkpt lat="49.86355" lon="4.72354">
        <ele>316</ele>
        <time>2024-05-08T11:43:31Z</time>
      </trkpt>
      <trkpt lat="49.86356" lon="4.72355">
        <ele>315</ele>
        <time>2024-05-08T11:43:32Z</time>
      </trkpt>
      <trkpt lat="49.86356" lon="4.72357">
        <ele>315</ele>
        <time>2024-05-08T11:43:33Z</time>
      </trkpt>
      <trkpt lat="49.86357" lon="4.72357">
        <ele>315</ele>
        <time>2024-05-08T11:43:34Z</time>
      </trkpt>
      <trkpt lat="49.86357" lon="4.72358">
        <ele>315</ele>
        <time>2024-05-08T11:43:35Z</time>
      </trkpt>
      <trkpt lat="49.86358" lon="4.72359">
        <ele>315</ele>
        <time>2024-05-08T11:43:36Z</time>
      </trkpt>
      <trkpt lat="49.86358" lon="4.7236">
        <ele>315</ele>
        <time>2024-05-08T11:43:37Z</time>
      </trkpt>
      <trkpt lat="49.86359" lon="4.72361">
        <ele>315</ele>
        <time>2024-05-08T11:43:38Z</time>
      </trkpt>
      <trkpt lat="49.86359" lon="4.72362">
        <ele>315</ele>
        <time>2024-05-08T11:43:39Z</time>
      </trkpt>
      <trkpt lat="49.8636" lon="4.72363">
        <ele>315</ele>
        <time>2024-05-08T11:43:40Z</time>
      </trkpt>
      <trkpt lat="49.86361" lon="4.72364">
        <ele>315</ele>
        <time>2024-05-08T11:43:41Z</time>
      </trkpt>
      <trkpt lat="49.86362" lon="4.72365">
        <ele>315</ele>
        <time>2024-05-08T11:43:42Z</time>
      </trkpt>
      <trkpt lat="49.86363" lon="4.72366">
        <ele>315</ele>
        <time>2024-05-08T11:43:43Z</time>
      </trkpt>
      <trkpt lat="49.86364" lon="4.72368">
        <ele>315</ele>
        <time>2024-05-08T11:43:44Z</time>
      </trkpt>
      <trkpt lat="49.86365" lon="4.72369">
        <ele>315</ele>
        <time>2024-05-08T11:43:45Z</time>
      </trkpt>
      <trkpt lat="49.86366" lon="4.72371">
        <ele>315</ele>
        <time>2024-05-08T11:43:46Z</time>
      </trkpt>
      <trkpt lat="49.86367" lon="4.72372">
        <ele>314</ele>
        <time>2024-05-08T11:43:47Z</time>
      </trkpt>
      <trkpt lat="49.86368" lon="4.72373">
        <ele>314</ele>
        <time>2024-05-08T11:43:48Z</time>
      </trkpt>
      <trkpt lat="49.86369" lon="4.72375">
        <ele>314</ele>
        <time>2024-05-08T11:43:49Z</time>
      </trkpt>
      <trkpt lat="49.8637" lon="4.72376">
        <ele>314</ele>
        <time>2024-05-08T11:43:50Z</time>
      </trkpt>
      <trkpt lat="49.8637" lon="4.72378">
        <ele>314</ele>
        <time>2024-05-08T11:43:51Z</time>
      </trkpt>
      <trkpt lat="49.8637" lon="4.72379">
        <ele>314</ele>
        <time>2024-05-08T11:43:52Z</time>
      </trkpt>
      <trkpt lat="49.86371" lon="4.72381">
        <ele>314</ele>
        <time>2024-05-08T11:43:53Z</time>
      </trkpt>
      <trkpt lat="49.86371" lon="4.72383">
        <ele>314</ele>
        <time>2024-05-08T11:43:54Z</time>
      </trkpt>
      <trkpt lat="49.86371" lon="4.72385">
        <ele>314</ele>
        <time>2024-05-08T11:43:55Z</time>
      </trkpt>
      <trkpt lat="49.86371" lon="4.72386">
        <ele>314</ele>
        <time>2024-05-08T11:43:56Z</time>
      </trkpt>
      <trkpt lat="49.86371" lon="4.72388">
        <ele>313</ele>
        <time>2024-05-08T11:43:57Z</time>
      </trkpt>
      <trkpt lat="49.86371" lon="4.7239">
        <ele>313</ele>
        <time>2024-05-08T11:43:58Z</time>
      </trkpt>
      <trkpt lat="49.86371" lon="4.72392">
        <ele>313</ele>
        <time>2024-05-08T11:43:59Z</time>
      </trkpt>
      <trkpt lat="49.86371" lon="4.72394">
        <ele>313</ele>
        <time>2024-05-08T11:44:00Z</time>
      </trkpt>
      <trkpt lat="49.86371" lon="4.72396">
        <ele>313</ele>
        <time>2024-05-08T11:44:01Z</time>
      </trkpt>
      <trkpt lat="49.8637" lon="4.72397">
        <ele>313</ele>
        <time>2024-05-08T11:44:02Z</time>
      </trkpt>
      <trkpt lat="49.8637" lon="4.72398">
        <ele>313</ele>
        <time>2024-05-08T11:44:03Z</time>
      </trkpt>
      <trkpt lat="49.8637" lon="4.72399">
        <ele>313</ele>
        <time>2024-05-08T11:44:04Z</time>
      </trkpt>
      <trkpt lat="49.8637" lon="4.724">
        <ele>313</ele>
        <time>2024-05-08T11:44:05Z</time>
      </trkpt>
      <trkpt lat="49.8637" lon="4.72401">
        <ele>314</ele>
        <time>2024-05-08T11:44:06Z</time>
      </trkpt>
      <trkpt lat="49.8637" lon="4.72402">
        <ele>314</ele>
        <time>2024-05-08T11:44:07Z</time>
      </trkpt>
      <trkpt lat="49.8637" lon="4.72403">
        <ele>314</ele>
        <time>2024-05-08T11:44:08Z</time>
      </trkpt>
      <trkpt lat="49.8637" lon="4.72404">
        <ele>314</ele>
        <time>2024-05-08T11:44:09Z</time>
      </trkpt>
      <trkpt lat="49.86371" lon="4.72404">
        <ele>314</ele>
        <time>2024-05-08T11:44:10Z</time>
      </trkpt>
      <trkpt lat="49.86371" lon="4.72405">
        <ele>314</ele>
        <time>2024-05-08T11:44:11Z</time>
      </trkpt>
      <trkpt lat="49.86371" lon="4.72406">
        <ele>314</ele>
        <time>2024-05-08T11:44:12Z</time>
      </trkpt>
      <trkpt lat="49.86371" lon="4.72407">
        <ele>314</ele>
        <time>2024-05-08T11:44:13Z</time>
      </trkpt>
      <trkpt lat="49.86371" lon="4.72408">
        <ele>314</ele>
        <time>2024-05-08T11:44:14Z</time>
      </trkpt>
      <trkpt lat="49.86371" lon="4.72409">
        <ele>314</ele>
        <time>2024-05-08T11:44:15Z</time>
      </trkpt>
      <trkpt lat="49.86371" lon="4.7241">
        <ele>315</ele>
        <time>2024-05-08T11:44:16Z</time>
      </trkpt>
      <trkpt lat="49.86371" lon="4.72411">
        <ele>315</ele>
        <time>2024-05-08T11:44:17Z</time>
      </trkpt>
      <trkpt lat="49.86371" lon="4.72413">
        <ele>315</ele>
        <time>2024-05-08T11:44:18Z</time>
      </trkpt>
      <trkpt lat="49.86372" lon="4.72414">
        <ele>315</ele>
        <time>2024-05-08T11:44:19Z</time>
      </trkpt>
      <trkpt lat="49.86372" lon="4.72415">
        <ele>315</ele>
        <time>2024-05-08T11:44:20Z</time>
      </trkpt>
      <trkpt lat="49.86372" lon="4.72416">
        <ele>315</ele>
        <time>2024-05-08T11:44:21Z</time>
      </trkpt>
      <trkpt lat="49.86372" lon="4.72417">
        <ele>315</ele>
        <time>2024-05-08T11:44:22Z</time>
      </trkpt>
      <trkpt lat="49.86372" lon="4.72418">
        <ele>315</ele>
        <time>2024-05-08T11:44:23Z</time>
      </trkpt>
      <trkpt lat="49.86372" lon="4.72419">
        <ele>315</ele>
        <time>2024-05-08T11:44:24Z</time>
      </trkpt>
      <trkpt lat="49.86373" lon="4.72425">
        <ele>317</ele>
        <time>2024-05-08T11:44:37Z</time>
      </trkpt>
      <trkpt lat="49.86373" lon="4.72428">
        <ele>317</ele>
        <time>2024-05-08T11:44:38Z</time>
      </trkpt>
      <trkpt lat="49.86373" lon="4.72431">
        <ele>317</ele>
        <time>2024-05-08T11:44:39Z</time>
      </trkpt>
      <trkpt lat="49.86373" lon="4.72434">
        <ele>317</ele>
        <time>2024-05-08T11:44:40Z</time>
      </trkpt>
      <trkpt lat="49.86373" lon="4.72436">
        <ele>318</ele>
        <time>2024-05-08T11:44:41Z</time>
      </trkpt>
      <trkpt lat="49.86373" lon="4.72438">
        <ele>318</ele>
        <time>2024-05-08T11:44:42Z</time>
      </trkpt>
      <trkpt lat="49.86373" lon="4.7244">
        <ele>318</ele>
        <time>2024-05-08T11:44:43Z</time>
      </trkpt>
      <trkpt lat="49.86372" lon="4.72441">
        <ele>318</ele>
        <time>2024-05-08T11:44:44Z</time>
      </trkpt>
      <trkpt lat="49.86372" lon="4.72443">
        <ele>318</ele>
        <time>2024-05-08T11:44:45Z</time>
      </trkpt>
      <trkpt lat="49.86371" lon="4.72444">
        <ele>319</ele>
        <time>2024-05-08T11:44:46Z</time>
      </trkpt>
      <trkpt lat="49.86371" lon="4.72445">
        <ele>319</ele>
        <time>2024-05-08T11:44:47Z</time>
      </trkpt>
      <trkpt lat="49.86371" lon="4.72446">
        <ele>319</ele>
        <time>2024-05-08T11:44:48Z</time>
      </trkpt>
      <trkpt lat="49.86371" lon="4.72447">
        <ele>319</ele>
        <time>2024-05-08T11:44:49Z</time>
      </trkpt>
      <trkpt lat="49.86371" lon="4.72449">
        <ele>319</ele>
        <time>2024-05-08T11:44:50Z</time>
      </trkpt>
      <trkpt lat="49.86371" lon="4.7245">
        <ele>319</ele>
        <time>2024-05-08T11:44:51Z</time>
      </trkpt>
      <trkpt lat="49.86372" lon="4.72451">
        <ele>319</ele>
        <time>2024-05-08T11:44:52Z</time>
      </trkpt>
      <trkpt lat="49.86372" lon="4.72453">
        <ele>319</ele>
        <time>2024-05-08T11:44:53Z</time>
      </trkpt>
      <trkpt lat="49.86372" lon="4.72454">
        <ele>319</ele>
        <time>2024-05-08T11:44:54Z</time>
      </trkpt>
      <trkpt lat="49.86372" lon="4.72456">
        <ele>319</ele>
        <time>2024-05-08T11:44:55Z</time>
      </trkpt>
      <trkpt lat="49.86372" lon="4.72457">
        <ele>320</ele>
        <time>2024-05-08T11:44:56Z</time>
      </trkpt>
      <trkpt lat="49.86373" lon="4.72458">
        <ele>320</ele>
        <time>2024-05-08T11:44:57Z</time>
      </trkpt>
      <trkpt lat="49.86373" lon="4.7246">
        <ele>320</ele>
        <time>2024-05-08T11:44:58Z</time>
      </trkpt>
      <trkpt lat="49.86373" lon="4.72461">
        <ele>320</ele>
        <time>2024-05-08T11:44:59Z</time>
      </trkpt>
      <trkpt lat="49.86373" lon="4.72463">
        <ele>320</ele>
        <time>2024-05-08T11:45:00Z</time>
      </trkpt>
      <trkpt lat="49.86374" lon="4.72465">
        <ele>321</ele>
        <time>2024-05-08T11:45:01Z</time>
      </trkpt>
      <trkpt lat="49.86374" lon="4.72467">
        <ele>321</ele>
        <time>2024-05-08T11:45:02Z</time>
      </trkpt>
      <trkpt lat="49.86374" lon="4.7247">
        <ele>321</ele>
        <time>2024-05-08T11:45:03Z</time>
      </trkpt>
      <trkpt lat="49.86374" lon="4.72472">
        <ele>321</ele>
        <time>2024-05-08T11:45:04Z</time>
      </trkpt>
      <trkpt lat="49.86374" lon="4.72474">
        <ele>321</ele>
        <time>2024-05-08T11:45:05Z</time>
      </trkpt>
      <trkpt lat="49.86374" lon="4.72476">
        <ele>322</ele>
        <time>2024-05-08T11:45:06Z</time>
      </trkpt>
      <trkpt lat="49.86374" lon="4.72477">
        <ele>322</ele>
        <time>2024-05-08T11:45:07Z</time>
      </trkpt>
      <trkpt lat="49.86373" lon="4.72479">
        <ele>322</ele>
        <time>2024-05-08T11:45:08Z</time>
      </trkpt>
      <trkpt lat="49.86373" lon="4.72481">
        <ele>322</ele>
        <time>2024-05-08T11:45:09Z</time>
      </trkpt>
      <trkpt lat="49.86372" lon="4.72482">
        <ele>322</ele>
        <time>2024-05-08T11:45:10Z</time>
      </trkpt>
      <trkpt lat="49.86372" lon="4.72484">
        <ele>323</ele>
        <time>2024-05-08T11:45:11Z</time>
      </trkpt>
      <trkpt lat="49.86372" lon="4.72486">
        <ele>323</ele>
        <time>2024-05-08T11:45:12Z</time>
      </trkpt>
      <trkpt lat="49.86371" lon="4.72487">
        <ele>323</ele>
        <time>2024-05-08T11:45:13Z</time>
      </trkpt>
      <trkpt lat="49.86371" lon="4.72489">
        <ele>323</ele>
        <time>2024-05-08T11:45:14Z</time>
      </trkpt>
      <trkpt lat="49.86371" lon="4.7249">
        <ele>323</ele>
        <time>2024-05-08T11:45:15Z</time>
      </trkpt>
      <trkpt lat="49.86371" lon="4.72492">
        <ele>323</ele>
        <time>2024-05-08T11:45:16Z</time>
      </trkpt>
      <trkpt lat="49.86371" lon="4.72494">
        <ele>323</ele>
        <time>2024-05-08T11:45:17Z</time>
      </trkpt>
      <trkpt lat="49.86372" lon="4.72495">
        <ele>323</ele>
        <time>2024-05-08T11:45:18Z</time>
      </trkpt>
      <trkpt lat="49.86372" lon="4.72497">
        <ele>323</ele>
        <time>2024-05-08T11:45:19Z</time>
      </trkpt>
      <trkpt lat="49.86372" lon="4.72499">
        <ele>323</ele>
        <time>2024-05-08T11:45:20Z</time>
      </trkpt>
      <trkpt lat="49.86373" lon="4.725">
        <ele>324</ele>
        <time>2024-05-08T11:45:21Z</time>
      </trkpt>
      <trkpt lat="49.86373" lon="4.72501">
        <ele>324</ele>
        <time>2024-05-08T11:45:22Z</time>
      </trkpt>
      <trkpt lat="49.86374" lon="4.72502">
        <ele>324</ele>
        <time>2024-05-08T11:45:23Z</time>
      </trkpt>
      <trkpt lat="49.86375" lon="4.72502">
        <ele>324</ele>
        <time>2024-05-08T11:45:24Z</time>
      </trkpt>
      <trkpt lat="49.86376" lon="4.72503">
        <ele>324</ele>
        <time>2024-05-08T11:45:25Z</time>
      </trkpt>
      <trkpt lat="49.86377" lon="4.72503">
        <ele>324</ele>
        <time>2024-05-08T11:45:26Z</time>
      </trkpt>
      <trkpt lat="49.86378" lon="4.72504">
        <ele>323</ele>
        <time>2024-05-08T11:45:27Z</time>
      </trkpt>
      <trkpt lat="49.86379" lon="4.72505">
        <ele>323</ele>
        <time>2024-05-08T11:45:28Z</time>
      </trkpt>
      <trkpt lat="49.86381" lon="4.72505">
        <ele>323</ele>
        <time>2024-05-08T11:45:29Z</time>
      </trkpt>
      <trkpt lat="49.86382" lon="4.72505">
        <ele>323</ele>
        <time>2024-05-08T11:45:30Z</time>
      </trkpt>
      <trkpt lat="49.86383" lon="4.72506">
        <ele>323</ele>
        <time>2024-05-08T11:45:31Z</time>
      </trkpt>
      <trkpt lat="49.86384" lon="4.72506">
        <ele>322</ele>
        <time>2024-05-08T11:45:32Z</time>
      </trkpt>
      <trkpt lat="49.86385" lon="4.72506">
        <ele>322</ele>
        <time>2024-05-08T11:45:33Z</time>
      </trkpt>
      <trkpt lat="49.86385" lon="4.72506">
        <ele>322</ele>
        <time>2024-05-08T11:45:34Z</time>
      </trkpt>
      <trkpt lat="49.86386" lon="4.72506">
        <ele>322</ele>
        <time>2024-05-08T11:45:35Z</time>
      </trkpt>
      <trkpt lat="49.86386" lon="4.72505">
        <ele>322</ele>
        <time>2024-05-08T11:45:36Z</time>
      </trkpt>
      <trkpt lat="49.86387" lon="4.72505">
        <ele>321</ele>
        <time>2024-05-08T11:45:37Z</time>
      </trkpt>
      <trkpt lat="49.86388" lon="4.72505">
        <ele>321</ele>
        <time>2024-05-08T11:45:38Z</time>
      </trkpt>
      <trkpt lat="49.86388" lon="4.72504">
        <ele>320</ele>
        <time>2024-05-08T11:45:39Z</time>
      </trkpt>
      <trkpt lat="49.86389" lon="4.72504">
        <ele>320</ele>
        <time>2024-05-08T11:45:40Z</time>
      </trkpt>
      <trkpt lat="49.8639" lon="4.72504">
        <ele>320</ele>
        <time>2024-05-08T11:45:41Z</time>
      </trkpt>
      <trkpt lat="49.8639" lon="4.72504">
        <ele>320</ele>
        <time>2024-05-08T11:45:42Z</time>
      </trkpt>
      <trkpt lat="49.86391" lon="4.72505">
        <ele>320</ele>
        <time>2024-05-08T11:45:43Z</time>
      </trkpt>
      <trkpt lat="49.86391" lon="4.72505">
        <ele>320</ele>
        <time>2024-05-08T11:45:44Z</time>
      </trkpt>
      <trkpt lat="49.86392" lon="4.72506">
        <ele>320</ele>
        <time>2024-05-08T11:45:45Z</time>
      </trkpt>
      <trkpt lat="49.86392" lon="4.72508">
        <ele>320</ele>
        <time>2024-05-08T11:45:46Z</time>
      </trkpt>
      <trkpt lat="49.86392" lon="4.72509">
        <ele>319</ele>
        <time>2024-05-08T11:45:47Z</time>
      </trkpt>
      <trkpt lat="49.86391" lon="4.7251">
        <ele>319</ele>
        <time>2024-05-08T11:45:48Z</time>
      </trkpt>
      <trkpt lat="49.86391" lon="4.72511">
        <ele>319</ele>
        <time>2024-05-08T11:45:49Z</time>
      </trkpt>
      <trkpt lat="49.86391" lon="4.72512">
        <ele>319</ele>
        <time>2024-05-08T11:45:50Z</time>
      </trkpt>
      <trkpt lat="49.8639" lon="4.72514">
        <ele>319</ele>
        <time>2024-05-08T11:45:51Z</time>
      </trkpt>
      <trkpt lat="49.8639" lon="4.72515">
        <ele>319</ele>
        <time>2024-05-08T11:45:52Z</time>
      </trkpt>
      <trkpt lat="49.8639" lon="4.72516">
        <ele>319</ele>
        <time>2024-05-08T11:45:53Z</time>
      </trkpt>
      <trkpt lat="49.86389" lon="4.72517">
        <ele>319</ele>
        <time>2024-05-08T11:45:54Z</time>
      </trkpt>
      <trkpt lat="49.86389" lon="4.72518">
        <ele>319</ele>
        <time>2024-05-08T11:45:55Z</time>
      </trkpt>
      <trkpt lat="49.86388" lon="4.72519">
        <ele>319</ele>
        <time>2024-05-08T11:45:56Z</time>
      </trkpt>
      <trkpt lat="49.86388" lon="4.7252">
        <ele>318</ele>
        <time>2024-05-08T11:45:57Z</time>
      </trkpt>
      <trkpt lat="49.86387" lon="4.72521">
        <ele>318</ele>
        <time>2024-05-08T11:45:58Z</time>
      </trkpt>
      <trkpt lat="49.86387" lon="4.72522">
        <ele>318</ele>
        <time>2024-05-08T11:45:59Z</time>
      </trkpt>
      <trkpt lat="49.86386" lon="4.72524">
        <ele>318</ele>
        <time>2024-05-08T11:46:00Z</time>
      </trkpt>
      <trkpt lat="49.86386" lon="4.72525">
        <ele>318</ele>
        <time>2024-05-08T11:46:01Z</time>
      </trkpt>
      <trkpt lat="49.86385" lon="4.72526">
        <ele>318</ele>
        <time>2024-05-08T11:46:02Z</time>
      </trkpt>
      <trkpt lat="49.86385" lon="4.72528">
        <ele>318</ele>
        <time>2024-05-08T11:46:03Z</time>
      </trkpt>
      <trkpt lat="49.86384" lon="4.72529">
        <ele>318</ele>
        <time>2024-05-08T11:46:04Z</time>
      </trkpt>
      <trkpt lat="49.86384" lon="4.72531">
        <ele>318</ele>
        <time>2024-05-08T11:46:05Z</time>
      </trkpt>
      <trkpt lat="49.86383" lon="4.72532">
        <ele>318</ele>
        <time>2024-05-08T11:46:06Z</time>
      </trkpt>
      <trkpt lat="49.86383" lon="4.72533">
        <ele>318</ele>
        <time>2024-05-08T11:46:07Z</time>
      </trkpt>
      <trkpt lat="49.86383" lon="4.72535">
        <ele>318</ele>
        <time>2024-05-08T11:46:08Z</time>
      </trkpt>
      <trkpt lat="49.86383" lon="4.72536">
        <ele>318</ele>
        <time>2024-05-08T11:46:09Z</time>
      </trkpt>
      <trkpt lat="49.86382" lon="4.72538">
        <ele>318</ele>
        <time>2024-05-08T11:46:10Z</time>
      </trkpt>
      <trkpt lat="49.86383" lon="4.72539">
        <ele>318</ele>
        <time>2024-05-08T11:46:11Z</time>
      </trkpt>
      <trkpt lat="49.86383" lon="4.7254">
        <ele>317</ele>
        <time>2024-05-08T11:46:12Z</time>
      </trkpt>
      <trkpt lat="49.86383" lon="4.7254">
        <ele>317</ele>
        <time>2024-05-08T11:46:13Z</time>
      </trkpt>
      <trkpt lat="49.86383" lon="4.72541">
        <ele>316</ele>
        <time>2024-05-08T11:46:14Z</time>
      </trkpt>
      <trkpt lat="49.86383" lon="4.72541">
        <ele>316</ele>
        <time>2024-05-08T11:46:15Z</time>
      </trkpt>
      <trkpt lat="49.86384" lon="4.72541">
        <ele>316</ele>
        <time>2024-05-08T11:46:16Z</time>
      </trkpt>
      <trkpt lat="49.86384" lon="4.72541">
        <ele>315</ele>
        <time>2024-05-08T11:46:17Z</time>
      </trkpt>
      <trkpt lat="49.86384" lon="4.7254">
        <ele>315</ele>
        <time>2024-05-08T11:46:18Z</time>
      </trkpt>
      <trkpt lat="49.86385" lon="4.7254">
        <ele>315</ele>
        <time>2024-05-08T11:46:19Z</time>
      </trkpt>
      <trkpt lat="49.86386" lon="4.72539">
        <ele>315</ele>
        <time>2024-05-08T11:46:20Z</time>
      </trkpt>
      <trkpt lat="49.86386" lon="4.72538">
        <ele>315</ele>
        <time>2024-05-08T11:46:21Z</time>
      </trkpt>
      <trkpt lat="49.86387" lon="4.72538">
        <ele>314</ele>
        <time>2024-05-08T11:46:22Z</time>
      </trkpt>
      <trkpt lat="49.86388" lon="4.72538">
        <ele>314</ele>
        <time>2024-05-08T11:46:23Z</time>
      </trkpt>
      <trkpt lat="49.86388" lon="4.72537">
        <ele>313</ele>
        <time>2024-05-08T11:46:24Z</time>
      </trkpt>
      <trkpt lat="49.86389" lon="4.72537">
        <ele>313</ele>
        <time>2024-05-08T11:46:25Z</time>
      </trkpt>
      <trkpt lat="49.8639" lon="4.72537">
        <ele>313</ele>
        <time>2024-05-08T11:46:26Z</time>
      </trkpt>
      <trkpt lat="49.86391" lon="4.72537">
        <ele>312</ele>
        <time>2024-05-08T11:46:27Z</time>
      </trkpt>
      <trkpt lat="49.86392" lon="4.72536">
        <ele>312</ele>
        <time>2024-05-08T11:46:28Z</time>
      </trkpt>
      <trkpt lat="49.86393" lon="4.72536">
        <ele>312</ele>
        <time>2024-05-08T11:46:29Z</time>
      </trkpt>
      <trkpt lat="49.86395" lon="4.72536">
        <ele>312</ele>
        <time>2024-05-08T11:46:30Z</time>
      </trkpt>
      <trkpt lat="49.86395" lon="4.72536">
        <ele>312</ele>
        <time>2024-05-08T11:46:31Z</time>
      </trkpt>
      <trkpt lat="49.86396" lon="4.72537">
        <ele>311</ele>
        <time>2024-05-08T11:46:32Z</time>
      </trkpt>
      <trkpt lat="49.86397" lon="4.72537">
        <ele>311</ele>
        <time>2024-05-08T11:46:33Z</time>
      </trkpt>
      <trkpt lat="49.86398" lon="4.72537">
        <ele>311</ele>
        <time>2024-05-08T11:46:34Z</time>
      </trkpt>
      <trkpt lat="49.86398" lon="4.72538">
        <ele>311</ele>
        <time>2024-05-08T11:46:35Z</time>
      </trkpt>
      <trkpt lat="49.86398" lon="4.72539">
        <ele>311</ele>
        <time>2024-05-08T11:46:36Z</time>
      </trkpt>
      <trkpt lat="49.86398" lon="4.72541">
        <ele>310</ele>
        <time>2024-05-08T11:46:37Z</time>
      </trkpt>
      <trkpt lat="49.86398" lon="4.72542">
        <ele>310</ele>
        <time>2024-05-08T11:46:38Z</time>
      </trkpt>
      <trkpt lat="49.86398" lon="4.72544">
        <ele>310</ele>
        <time>2024-05-08T11:46:39Z</time>
      </trkpt>
      <trkpt lat="49.86397" lon="4.72545">
        <ele>310</ele>
        <time>2024-05-08T11:46:40Z</time>
      </trkpt>
      <trkpt lat="49.86397" lon="4.72547">
        <ele>310</ele>
        <time>2024-05-08T11:46:41Z</time>
      </trkpt>
      <trkpt lat="49.86397" lon="4.72548">
        <ele>309</ele>
        <time>2024-05-08T11:46:42Z</time>
      </trkpt>
      <trkpt lat="49.86397" lon="4.7255">
        <ele>309</ele>
        <time>2024-05-08T11:46:43Z</time>
      </trkpt>
      <trkpt lat="49.86397" lon="4.72552">
        <ele>309</ele>
        <time>2024-05-08T11:46:44Z</time>
      </trkpt>
      <trkpt lat="49.86396" lon="4.72554">
        <ele>309</ele>
        <time>2024-05-08T11:46:51Z</time>
      </trkpt>
      <trkpt lat="49.86396" lon="4.72555">
        <ele>309</ele>
        <time>2024-05-08T11:46:52Z</time>
      </trkpt>
      <trkpt lat="49.86396" lon="4.72557">
        <ele>309</ele>
        <time>2024-05-08T11:46:53Z</time>
      </trkpt>
      <trkpt lat="49.86396" lon="4.72558">
        <ele>309</ele>
        <time>2024-05-08T11:46:54Z</time>
      </trkpt>
      <trkpt lat="49.86396" lon="4.7256">
        <ele>309</ele>
        <time>2024-05-08T11:46:55Z</time>
      </trkpt>
      <trkpt lat="49.86396" lon="4.72561">
        <ele>309</ele>
        <time>2024-05-08T11:46:56Z</time>
      </trkpt>
      <trkpt lat="49.86396" lon="4.72563">
        <ele>308</ele>
        <time>2024-05-08T11:46:57Z</time>
      </trkpt>
      <trkpt lat="49.86396" lon="4.72565">
        <ele>308</ele>
        <time>2024-05-08T11:46:58Z</time>
      </trkpt>
      <trkpt lat="49.86397" lon="4.72566">
        <ele>307</ele>
        <time>2024-05-08T11:46:59Z</time>
      </trkpt>
      <trkpt lat="49.86398" lon="4.72572">
        <ele>307</ele>
        <time>2024-05-08T11:47:05Z</time>
      </trkpt>
      <trkpt lat="49.86398" lon="4.72573">
        <ele>307</ele>
        <time>2024-05-08T11:47:06Z</time>
      </trkpt>
      <trkpt lat="49.86399" lon="4.72575">
        <ele>306</ele>
        <time>2024-05-08T11:47:07Z</time>
      </trkpt>
      <trkpt lat="49.86399" lon="4.72576">
        <ele>306</ele>
        <time>2024-05-08T11:47:08Z</time>
      </trkpt>
      <trkpt lat="49.864" lon="4.72578">
        <ele>306</ele>
        <time>2024-05-08T11:47:09Z</time>
      </trkpt>
      <trkpt lat="49.86401" lon="4.7258">
        <ele>306</ele>
        <time>2024-05-08T11:47:10Z</time>
      </trkpt>
      <trkpt lat="49.86402" lon="4.72582">
        <ele>306</ele>
        <time>2024-05-08T11:47:11Z</time>
      </trkpt>
      <trkpt lat="49.86402" lon="4.72583">
        <ele>305</ele>
        <time>2024-05-08T11:47:12Z</time>
      </trkpt>
      <trkpt lat="49.86403" lon="4.72585">
        <ele>305</ele>
        <time>2024-05-08T11:47:13Z</time>
      </trkpt>
      <trkpt lat="49.86404" lon="4.72586">
        <ele>305</ele>
        <time>2024-05-08T11:47:14Z</time>
      </trkpt>
      <trkpt lat="49.86405" lon="4.72588">
        <ele>305</ele>
        <time>2024-05-08T11:47:15Z</time>
      </trkpt>
      <trkpt lat="49.86405" lon="4.72589">
        <ele>305</ele>
        <time>2024-05-08T11:47:16Z</time>
      </trkpt>
      <trkpt lat="49.86406" lon="4.7259">
        <ele>304</ele>
        <time>2024-05-08T11:47:17Z</time>
      </trkpt>
      <trkpt lat="49.86406" lon="4.72591">
        <ele>304</ele>
        <time>2024-05-08T11:47:18Z</time>
      </trkpt>
      <trkpt lat="49.86407" lon="4.72591">
        <ele>304</ele>
        <time>2024-05-08T11:47:19Z</time>
      </trkpt>
      <trkpt lat="49.86407" lon="4.72592">
        <ele>304</ele>
        <time>2024-05-08T11:47:20Z</time>
      </trkpt>
      <trkpt lat="49.86407" lon="4.72592">
        <ele>304</ele>
        <time>2024-05-08T11:47:21Z</time>
      </trkpt>
      <trkpt lat="49.86407" lon="4.72593">
        <ele>303</ele>
        <time>2024-05-08T11:47:22Z</time>
      </trkpt>
      <trkpt lat="49.86407" lon="4.72593">
        <ele>303</ele>
        <time>2024-05-08T11:47:23Z</time>
      </trkpt>
      <trkpt lat="49.86407" lon="4.72594">
        <ele>303</ele>
        <time>2024-05-08T11:47:24Z</time>
      </trkpt>
      <trkpt lat="49.86408" lon="4.72595">
        <ele>303</ele>
        <time>2024-05-08T11:47:25Z</time>
      </trkpt>
      <trkpt lat="49.86408" lon="4.72595">
        <ele>303</ele>
        <time>2024-05-08T11:47:26Z</time>
      </trkpt>
      <trkpt lat="49.86408" lon="4.72596">
        <ele>303</ele>
        <time>2024-05-08T11:47:27Z</time>
      </trkpt>
      <trkpt lat="49.86409" lon="4.72597">
        <ele>303</ele>
        <time>2024-05-08T11:47:28Z</time>
      </trkpt>
      <trkpt lat="49.86409" lon="4.72598">
        <ele>303</ele>
        <time>2024-05-08T11:47:29Z</time>
      </trkpt>
      <trkpt lat="49.8641" lon="4.72599">
        <ele>303</ele>
        <time>2024-05-08T11:47:30Z</time>
      </trkpt>
      <trkpt lat="49.8641" lon="4.726">
        <ele>303</ele>
        <time>2024-05-08T11:47:31Z</time>
      </trkpt>
      <trkpt lat="49.86411" lon="4.72601">
        <ele>302</ele>
        <time>2024-05-08T11:47:32Z</time>
      </trkpt>
      <trkpt lat="49.86411" lon="4.72602">
        <ele>302</ele>
        <time>2024-05-08T11:47:33Z</time>
      </trkpt>
      <trkpt lat="49.86412" lon="4.72603">
        <ele>302</ele>
        <time>2024-05-08T11:47:34Z</time>
      </trkpt>
      <trkpt lat="49.86413" lon="4.72604">
        <ele>302</ele>
        <time>2024-05-08T11:47:35Z</time>
      </trkpt>
      <trkpt lat="49.86413" lon="4.72606">
        <ele>302</ele>
        <time>2024-05-08T11:47:36Z</time>
      </trkpt>
      <trkpt lat="49.86414" lon="4.72607">
        <ele>302</ele>
        <time>2024-05-08T11:47:37Z</time>
      </trkpt>
      <trkpt lat="49.86414" lon="4.72609">
        <ele>302</ele>
        <time>2024-05-08T11:47:38Z</time>
      </trkpt>
      <trkpt lat="49.86414" lon="4.72611">
        <ele>302</ele>
        <time>2024-05-08T11:47:39Z</time>
      </trkpt>
      <trkpt lat="49.86414" lon="4.72613">
        <ele>302</ele>
        <time>2024-05-08T11:47:40Z</time>
      </trkpt>
      <trkpt lat="49.86414" lon="4.72616">
        <ele>302</ele>
        <time>2024-05-08T11:47:41Z</time>
      </trkpt>
      <trkpt lat="49.86414" lon="4.72618">
        <ele>302</ele>
        <time>2024-05-08T11:47:42Z</time>
      </trkpt>
      <trkpt lat="49.86413" lon="4.7262">
        <ele>302</ele>
        <time>2024-05-08T11:47:43Z</time>
      </trkpt>
      <trkpt lat="49.86412" lon="4.72622">
        <ele>302</ele>
        <time>2024-05-08T11:47:44Z</time>
      </trkpt>
      <trkpt lat="49.86412" lon="4.72622">
        <ele>302</ele>
        <time>2024-05-08T11:47:45Z</time>
      </trkpt>
      <trkpt lat="49.86411" lon="4.72623">
        <ele>303</ele>
        <time>2024-05-08T11:47:46Z</time>
      </trkpt>
      <trkpt lat="49.86411" lon="4.72624">
        <ele>303</ele>
        <time>2024-05-08T11:47:47Z</time>
      </trkpt>
      <trkpt lat="49.8641" lon="4.72624">
        <ele>303</ele>
        <time>2024-05-08T11:47:48Z</time>
      </trkpt>
      <trkpt lat="49.8641" lon="4.72625">
        <ele>303</ele>
        <time>2024-05-08T11:47:49Z</time>
      </trkpt>
      <trkpt lat="49.86409" lon="4.72625">
        <ele>303</ele>
        <time>2024-05-08T11:47:50Z</time>
      </trkpt>
      <trkpt lat="49.86408" lon="4.72626">
        <ele>303</ele>
        <time>2024-05-08T11:47:51Z</time>
      </trkpt>
      <trkpt lat="49.86407" lon="4.72627">
        <ele>303</ele>
        <time>2024-05-08T11:47:52Z</time>
      </trkpt>
      <trkpt lat="49.86406" lon="4.72627">
        <ele>303</ele>
        <time>2024-05-08T11:47:53Z</time>
      </trkpt>
      <trkpt lat="49.86406" lon="4.72628">
        <ele>304</ele>
        <time>2024-05-08T11:47:54Z</time>
      </trkpt>
      <trkpt lat="49.86406" lon="4.72628">
        <ele>304</ele>
        <time>2024-05-08T11:47:55Z</time>
      </trkpt>
      <trkpt lat="49.86405" lon="4.72628">
        <ele>305</ele>
        <time>2024-05-08T11:47:56Z</time>
      </trkpt>
      <trkpt lat="49.86405" lon="4.72629">
        <ele>305</ele>
        <time>2024-05-08T11:47:57Z</time>
      </trkpt>
      <trkpt lat="49.86405" lon="4.72629">
        <ele>305</ele>
        <time>2024-05-08T11:47:58Z</time>
      </trkpt>
      <trkpt lat="49.86404" lon="4.7263">
        <ele>305</ele>
        <time>2024-05-08T11:47:59Z</time>
      </trkpt>
      <trkpt lat="49.86404" lon="4.72631">
        <ele>305</ele>
        <time>2024-05-08T11:48:00Z</time>
      </trkpt>
      <trkpt lat="49.86404" lon="4.72632">
        <ele>306</ele>
        <time>2024-05-08T11:48:01Z</time>
      </trkpt>
      <trkpt lat="49.86404" lon="4.72633">
        <ele>306</ele>
        <time>2024-05-08T11:48:02Z</time>
      </trkpt>
      <trkpt lat="49.86404" lon="4.72634">
        <ele>306</ele>
        <time>2024-05-08T11:48:03Z</time>
      </trkpt>
      <trkpt lat="49.86404" lon="4.72636">
        <ele>306</ele>
        <time>2024-05-08T11:48:04Z</time>
      </trkpt>
      <trkpt lat="49.86405" lon="4.72637">
        <ele>306</ele>
        <time>2024-05-08T11:48:05Z</time>
      </trkpt>
      <trkpt lat="49.86405" lon="4.72639">
        <ele>306</ele>
        <time>2024-05-08T11:48:06Z</time>
      </trkpt>
      <trkpt lat="49.86405" lon="4.7264">
        <ele>306</ele>
        <time>2024-05-08T11:48:07Z</time>
      </trkpt>
      <trkpt lat="49.86405" lon="4.72641">
        <ele>306</ele>
        <time>2024-05-08T11:48:08Z</time>
      </trkpt>
      <trkpt lat="49.86405" lon="4.72643">
        <ele>306</ele>
        <time>2024-05-08T11:48:09Z</time>
      </trkpt>
      <trkpt lat="49.86405" lon="4.72644">
        <ele>306</ele>
        <time>2024-05-08T11:48:10Z</time>
      </trkpt>
      <trkpt lat="49.86405" lon="4.72645">
        <ele>307</ele>
        <time>2024-05-08T11:48:11Z</time>
      </trkpt>
      <trkpt lat="49.86405" lon="4.72647">
        <ele>307</ele>
        <time>2024-05-08T11:48:12Z</time>
      </trkpt>
      <trkpt lat="49.86405" lon="4.72648">
        <ele>307</ele>
        <time>2024-05-08T11:48:13Z</time>
      </trkpt>
      <trkpt lat="49.86405" lon="4.72649">
        <ele>308</ele>
        <time>2024-05-08T11:48:14Z</time>
      </trkpt>
      <trkpt lat="49.86404" lon="4.7265">
        <ele>308</ele>
        <time>2024-05-08T11:48:15Z</time>
      </trkpt>
      <trkpt lat="49.86404" lon="4.72651">
        <ele>309</ele>
        <time>2024-05-08T11:48:16Z</time>
      </trkpt>
      <trkpt lat="49.86404" lon="4.72653">
        <ele>309</ele>
        <time>2024-05-08T11:48:17Z</time>
      </trkpt>
      <trkpt lat="49.86403" lon="4.72654">
        <ele>309</ele>
        <time>2024-05-08T11:48:18Z</time>
      </trkpt>
      <trkpt lat="49.86403" lon="4.72655">
        <ele>309</ele>
        <time>2024-05-08T11:48:19Z</time>
      </trkpt>
      <trkpt lat="49.86403" lon="4.72657">
        <ele>309</ele>
        <time>2024-05-08T11:48:20Z</time>
      </trkpt>
      <trkpt lat="49.86403" lon="4.72658">
        <ele>310</ele>
        <time>2024-05-08T11:48:21Z</time>
      </trkpt>
      <trkpt lat="49.86403" lon="4.7266">
        <ele>310</ele>
        <time>2024-05-08T11:48:22Z</time>
      </trkpt>
      <trkpt lat="49.86403" lon="4.72661">
        <ele>310</ele>
        <time>2024-05-08T11:48:23Z</time>
      </trkpt>
      <trkpt lat="49.86404" lon="4.72663">
        <ele>310</ele>
        <time>2024-05-08T11:48:24Z</time>
      </trkpt>
      <trkpt lat="49.86404" lon="4.72664">
        <ele>310</ele>
        <time>2024-05-08T11:48:25Z</time>
      </trkpt>
      <trkpt lat="49.86404" lon="4.72666">
        <ele>310</ele>
        <time>2024-05-08T11:48:26Z</time>
      </trkpt>
      <trkpt lat="49.86404" lon="4.72667">
        <ele>310</ele>
        <time>2024-05-08T11:48:27Z</time>
      </trkpt>
      <trkpt lat="49.86404" lon="4.72668">
        <ele>310</ele>
        <time>2024-05-08T11:48:28Z</time>
      </trkpt>
      <trkpt lat="49.86404" lon="4.7267">
        <ele>310</ele>
        <time>2024-05-08T11:48:29Z</time>
      </trkpt>
      <trkpt lat="49.86404" lon="4.72672">
        <ele>310</ele>
        <time>2024-05-08T11:48:30Z</time>
      </trkpt>
      <trkpt lat="49.86404" lon="4.72673">
        <ele>310</ele>
        <time>2024-05-08T11:48:31Z</time>
      </trkpt>
      <trkpt lat="49.86404" lon="4.72675">
        <ele>310</ele>
        <time>2024-05-08T11:48:32Z</time>
      </trkpt>
      <trkpt lat="49.86405" lon="4.72677">
        <ele>310</ele>
        <time>2024-05-08T11:48:33Z</time>
      </trkpt>
      <trkpt lat="49.86405" lon="4.72679">
        <ele>310</ele>
        <time>2024-05-08T11:48:34Z</time>
      </trkpt>
      <trkpt lat="49.86405" lon="4.7268">
        <ele>310</ele>
        <time>2024-05-08T11:48:35Z</time>
      </trkpt>
      <trkpt lat="49.86405" lon="4.72682">
        <ele>310</ele>
        <time>2024-05-08T11:48:36Z</time>
      </trkpt>
      <trkpt lat="49.86405" lon="4.72684">
        <ele>310</ele>
        <time>2024-05-08T11:48:44Z</time>
      </trkpt>
      <trkpt lat="49.86405" lon="4.72685">
        <ele>310</ele>
        <time>2024-05-08T11:48:45Z</time>
      </trkpt>
      <trkpt lat="49.86405" lon="4.72686">
        <ele>310</ele>
        <time>2024-05-08T11:48:46Z</time>
      </trkpt>
      <trkpt lat="49.86405" lon="4.72687">
        <ele>310</ele>
        <time>2024-05-08T11:48:47Z</time>
      </trkpt>
      <trkpt lat="49.86405" lon="4.72689">
        <ele>310</ele>
        <time>2024-05-08T11:48:48Z</time>
      </trkpt>
      <trkpt lat="49.86405" lon="4.7269">
        <ele>310</ele>
        <time>2024-05-08T11:48:49Z</time>
      </trkpt>
      <trkpt lat="49.86405" lon="4.72691">
        <ele>310</ele>
        <time>2024-05-08T11:48:50Z</time>
      </trkpt>
      <trkpt lat="49.86405" lon="4.72693">
        <ele>311</ele>
        <time>2024-05-08T11:48:51Z</time>
      </trkpt>
      <trkpt lat="49.86405" lon="4.72694">
        <ele>311</ele>
        <time>2024-05-08T11:48:52Z</time>
      </trkpt>
      <trkpt lat="49.86405" lon="4.72695">
        <ele>311</ele>
        <time>2024-05-08T11:48:53Z</time>
      </trkpt>
      <trkpt lat="49.86405" lon="4.72696">
        <ele>311</ele>
        <time>2024-05-08T11:48:54Z</time>
      </trkpt>
      <trkpt lat="49.86405" lon="4.72697">
        <ele>311</ele>
        <time>2024-05-08T11:48:55Z</time>
      </trkpt>
      <trkpt lat="49.86406" lon="4.72698">
        <ele>311</ele>
        <time>2024-05-08T11:48:56Z</time>
      </trkpt>
      <trkpt lat="49.86406" lon="4.72699">
        <ele>311</ele>
        <time>2024-05-08T11:48:57Z</time>
      </trkpt>
      <trkpt lat="49.86406" lon="4.727">
        <ele>311</ele>
        <time>2024-05-08T11:48:58Z</time>
      </trkpt>
      <trkpt lat="49.86407" lon="4.727">
        <ele>311</ele>
        <time>2024-05-08T11:48:59Z</time>
      </trkpt>
      <trkpt lat="49.86407" lon="4.72701">
        <ele>311</ele>
        <time>2024-05-08T11:49:00Z</time>
      </trkpt>
      <trkpt lat="49.86408" lon="4.72701">
        <ele>311</ele>
        <time>2024-05-08T11:49:01Z</time>
      </trkpt>
      <trkpt lat="49.86409" lon="4.72702">
        <ele>310</ele>
        <time>2024-05-08T11:49:02Z</time>
      </trkpt>
      <trkpt lat="49.8641" lon="4.72702">
        <ele>310</ele>
        <time>2024-05-08T11:49:03Z</time>
      </trkpt>
      <trkpt lat="49.8641" lon="4.72703">
        <ele>310</ele>
        <time>2024-05-08T11:49:04Z</time>
      </trkpt>
      <trkpt lat="49.86411" lon="4.72704">
        <ele>310</ele>
        <time>2024-05-08T11:49:05Z</time>
      </trkpt>
      <trkpt lat="49.86412" lon="4.72705">
        <ele>310</ele>
        <time>2024-05-08T11:49:06Z</time>
      </trkpt>
      <trkpt lat="49.86412" lon="4.72706">
        <ele>310</ele>
        <time>2024-05-08T11:49:07Z</time>
      </trkpt>
      <trkpt lat="49.86413" lon="4.72707">
        <ele>310</ele>
        <time>2024-05-08T11:49:08Z</time>
      </trkpt>
      <trkpt lat="49.86413" lon="4.72707">
        <ele>310</ele>
        <time>2024-05-08T11:49:09Z</time>
      </trkpt>
      <trkpt lat="49.86414" lon="4.72708">
        <ele>310</ele>
        <time>2024-05-08T11:49:10Z</time>
      </trkpt>
      <trkpt lat="49.86414" lon="4.72709">
        <ele>310</ele>
        <time>2024-05-08T11:49:11Z</time>
      </trkpt>
      <trkpt lat="49.86415" lon="4.7271">
        <ele>309</ele>
        <time>2024-05-08T11:49:12Z</time>
      </trkpt>
      <trkpt lat="49.86415" lon="4.72711">
        <ele>309</ele>
        <time>2024-05-08T11:49:13Z</time>
      </trkpt>
      <trkpt lat="49.86415" lon="4.72712">
        <ele>309</ele>
        <time>2024-05-08T11:49:14Z</time>
      </trkpt>
      <trkpt lat="49.86415" lon="4.72712">
        <ele>309</ele>
        <time>2024-05-08T11:49:15Z</time>
      </trkpt>
      <trkpt lat="49.86415" lon="4.72713">
        <ele>309</ele>
        <time>2024-05-08T11:49:16Z</time>
      </trkpt>
      <trkpt lat="49.86416" lon="4.72714">
        <ele>309</ele>
        <time>2024-05-08T11:49:17Z</time>
      </trkpt>
      <trkpt lat="49.86416" lon="4.72715">
        <ele>309</ele>
        <time>2024-05-08T11:49:18Z</time>
      </trkpt>
      <trkpt lat="49.86416" lon="4.72716">
        <ele>309</ele>
        <time>2024-05-08T11:49:19Z</time>
      </trkpt>
      <trkpt lat="49.86417" lon="4.72718">
        <ele>309</ele>
        <time>2024-05-08T11:49:20Z</time>
      </trkpt>
      <trkpt lat="49.86417" lon="4.7272">
        <ele>309</ele>
        <time>2024-05-08T11:49:21Z</time>
      </trkpt>
      <trkpt lat="49.86417" lon="4.72722">
        <ele>309</ele>
        <time>2024-05-08T11:49:22Z</time>
      </trkpt>
      <trkpt lat="49.86417" lon="4.72723">
        <ele>309</ele>
        <time>2024-05-08T11:49:23Z</time>
      </trkpt>
      <trkpt lat="49.86418" lon="4.72725">
        <ele>309</ele>
        <time>2024-05-08T11:49:24Z</time>
      </trkpt>
      <trkpt lat="49.86418" lon="4.72727">
        <ele>309</ele>
        <time>2024-05-08T11:49:25Z</time>
      </trkpt>
      <trkpt lat="49.86418" lon="4.72729">
        <ele>309</ele>
        <time>2024-05-08T11:49:26Z</time>
      </trkpt>
      <trkpt lat="49.86418" lon="4.7273">
        <ele>309</ele>
        <time>2024-05-08T11:49:27Z</time>
      </trkpt>
      <trkpt lat="49.86418" lon="4.72732">
        <ele>309</ele>
        <time>2024-05-08T11:49:28Z</time>
      </trkpt>
      <trkpt lat="49.86418" lon="4.72734">
        <ele>309</ele>
        <time>2024-05-08T11:49:29Z</time>
      </trkpt>
      <trkpt lat="49.86418" lon="4.72735">
        <ele>309</ele>
        <time>2024-05-08T11:49:30Z</time>
      </trkpt>
      <trkpt lat="49.86418" lon="4.72737">
        <ele>310</ele>
        <time>2024-05-08T11:49:31Z</time>
      </trkpt>
      <trkpt lat="49.86418" lon="4.72738">
        <ele>310</ele>
        <time>2024-05-08T11:49:32Z</time>
      </trkpt>
      <trkpt lat="49.86418" lon="4.7274">
        <ele>310</ele>
        <time>2024-05-08T11:49:33Z</time>
      </trkpt>
      <trkpt lat="49.86418" lon="4.72742">
        <ele>310</ele>
        <time>2024-05-08T11:49:34Z</time>
      </trkpt>
      <trkpt lat="49.86418" lon="4.72743">
        <ele>310</ele>
        <time>2024-05-08T11:49:35Z</time>
      </trkpt>
      <trkpt lat="49.86418" lon="4.72745">
        <ele>310</ele>
        <time>2024-05-08T11:49:36Z</time>
      </trkpt>
      <trkpt lat="49.86419" lon="4.72746">
        <ele>310</ele>
        <time>2024-05-08T11:49:37Z</time>
      </trkpt>
      <trkpt lat="49.86419" lon="4.72747">
        <ele>310</ele>
        <time>2024-05-08T11:49:38Z</time>
      </trkpt>
      <trkpt lat="49.86419" lon="4.72748">
        <ele>310</ele>
        <time>2024-05-08T11:49:39Z</time>
      </trkpt>
      <trkpt lat="49.8642" lon="4.72749">
        <ele>310</ele>
        <time>2024-05-08T11:49:40Z</time>
      </trkpt>
      <trkpt lat="49.8642" lon="4.7275">
        <ele>310</ele>
        <time>2024-05-08T11:49:41Z</time>
      </trkpt>
      <trkpt lat="49.86421" lon="4.72751">
        <ele>309</ele>
        <time>2024-05-08T11:49:42Z</time>
      </trkpt>
      <trkpt lat="49.86421" lon="4.72753">
        <ele>309</ele>
        <time>2024-05-08T11:49:43Z</time>
      </trkpt>
      <trkpt lat="49.86422" lon="4.72754">
        <ele>309</ele>
        <time>2024-05-08T11:49:44Z</time>
      </trkpt>
      <trkpt lat="49.86423" lon="4.72756">
        <ele>309</ele>
        <time>2024-05-08T11:49:45Z</time>
      </trkpt>
      <trkpt lat="49.86423" lon="4.72758">
        <ele>309</ele>
        <time>2024-05-08T11:49:46Z</time>
      </trkpt>
      <trkpt lat="49.86423" lon="4.72759">
        <ele>309</ele>
        <time>2024-05-08T11:49:47Z</time>
      </trkpt>
      <trkpt lat="49.86424" lon="4.72761">
        <ele>309</ele>
        <time>2024-05-08T11:49:48Z</time>
      </trkpt>
      <trkpt lat="49.86424" lon="4.72763">
        <ele>309</ele>
        <time>2024-05-08T11:49:49Z</time>
      </trkpt>
      <trkpt lat="49.86424" lon="4.72765">
        <ele>309</ele>
        <time>2024-05-08T11:49:50Z</time>
      </trkpt>
      <trkpt lat="49.86425" lon="4.72766">
        <ele>309</ele>
        <time>2024-05-08T11:49:51Z</time>
      </trkpt>
      <trkpt lat="49.86425" lon="4.72768">
        <ele>309</ele>
        <time>2024-05-08T11:49:52Z</time>
      </trkpt>
      <trkpt lat="49.86425" lon="4.72769">
        <ele>309</ele>
        <time>2024-05-08T11:49:53Z</time>
      </trkpt>
      <trkpt lat="49.86426" lon="4.72771">
        <ele>309</ele>
        <time>2024-05-08T11:49:54Z</time>
      </trkpt>
      <trkpt lat="49.86426" lon="4.72772">
        <ele>309</ele>
        <time>2024-05-08T11:49:55Z</time>
      </trkpt>
      <trkpt lat="49.86427" lon="4.72773">
        <ele>309</ele>
        <time>2024-05-08T11:49:56Z</time>
      </trkpt>
      <trkpt lat="49.86427" lon="4.72774">
        <ele>308</ele>
        <time>2024-05-08T11:49:57Z</time>
      </trkpt>
      <trkpt lat="49.86427" lon="4.72775">
        <ele>308</ele>
        <time>2024-05-08T11:49:58Z</time>
      </trkpt>
      <trkpt lat="49.86427" lon="4.72776">
        <ele>307</ele>
        <time>2024-05-08T11:49:59Z</time>
      </trkpt>
      <trkpt lat="49.86428" lon="4.72778">
        <ele>307</ele>
        <time>2024-05-08T11:50:00Z</time>
      </trkpt>
      <trkpt lat="49.86428" lon="4.72779">
        <ele>307</ele>
        <time>2024-05-08T11:50:01Z</time>
      </trkpt>
      <trkpt lat="49.86428" lon="4.7278">
        <ele>307</ele>
        <time>2024-05-08T11:50:02Z</time>
      </trkpt>
      <trkpt lat="49.86429" lon="4.72781">
        <ele>307</ele>
        <time>2024-05-08T11:50:03Z</time>
      </trkpt>
      <trkpt lat="49.86429" lon="4.72783">
        <ele>307</ele>
        <time>2024-05-08T11:50:04Z</time>
      </trkpt>
      <trkpt lat="49.86429" lon="4.72784">
        <ele>307</ele>
        <time>2024-05-08T11:50:05Z</time>
      </trkpt>
      <trkpt lat="49.8643" lon="4.72786">
        <ele>307</ele>
        <time>2024-05-08T11:50:06Z</time>
      </trkpt>
      <trkpt lat="49.8643" lon="4.72787">
        <ele>307</ele>
        <time>2024-05-08T11:50:07Z</time>
      </trkpt>
      <trkpt lat="49.8643" lon="4.72789">
        <ele>307</ele>
        <time>2024-05-08T11:50:08Z</time>
      </trkpt>
      <trkpt lat="49.8643" lon="4.7279">
        <ele>307</ele>
        <time>2024-05-08T11:50:09Z</time>
      </trkpt>
      <trkpt lat="49.8643" lon="4.72791">
        <ele>307</ele>
        <time>2024-05-08T11:50:10Z</time>
      </trkpt>
      <trkpt lat="49.8643" lon="4.72792">
        <ele>307</ele>
        <time>2024-05-08T11:50:11Z</time>
      </trkpt>
      <trkpt lat="49.8643" lon="4.72794">
        <ele>307</ele>
        <time>2024-05-08T11:50:12Z</time>
      </trkpt>
      <trkpt lat="49.8643" lon="4.72795">
        <ele>307</ele>
        <time>2024-05-08T11:50:13Z</time>
      </trkpt>
      <trkpt lat="49.8643" lon="4.72796">
        <ele>307</ele>
        <time>2024-05-08T11:50:14Z</time>
      </trkpt>
      <trkpt lat="49.8643" lon="4.72798">
        <ele>307</ele>
        <time>2024-05-08T11:50:15Z</time>
      </trkpt>
      <trkpt lat="49.8643" lon="4.72799">
        <ele>307</ele>
        <time>2024-05-08T11:50:16Z</time>
      </trkpt>
      <trkpt lat="49.8643" lon="4.72801">
        <ele>307</ele>
        <time>2024-05-08T11:50:17Z</time>
      </trkpt>
      <trkpt lat="49.8643" lon="4.72802">
        <ele>307</ele>
        <time>2024-05-08T11:50:18Z</time>
      </trkpt>
      <trkpt lat="49.8643" lon="4.72804">
        <ele>307</ele>
        <time>2024-05-08T11:50:19Z</time>
      </trkpt>
      <trkpt lat="49.86431" lon="4.72805">
        <ele>307</ele>
        <time>2024-05-08T11:50:20Z</time>
      </trkpt>
      <trkpt lat="49.86431" lon="4.72807">
        <ele>307</ele>
        <time>2024-05-08T11:50:21Z</time>
      </trkpt>
      <trkpt lat="49.86431" lon="4.72808">
        <ele>307</ele>
        <time>2024-05-08T11:50:22Z</time>
      </trkpt>
      <trkpt lat="49.86431" lon="4.7281">
        <ele>307</ele>
        <time>2024-05-08T11:50:23Z</time>
      </trkpt>
      <trkpt lat="49.86431" lon="4.72811">
        <ele>308</ele>
        <time>2024-05-08T11:50:24Z</time>
      </trkpt>
      <trkpt lat="49.86431" lon="4.72813">
        <ele>309</ele>
        <time>2024-05-08T11:50:30Z</time>
      </trkpt>
      <trkpt lat="49.86432" lon="4.72815">
        <ele>309</ele>
        <time>2024-05-08T11:50:31Z</time>
      </trkpt>
      <trkpt lat="49.86432" lon="4.72816">
        <ele>309</ele>
        <time>2024-05-08T11:50:32Z</time>
      </trkpt>
      <trkpt lat="49.86432" lon="4.72817">
        <ele>309</ele>
        <time>2024-05-08T11:50:33Z</time>
      </trkpt>
      <trkpt lat="49.86432" lon="4.72819">
        <ele>309</ele>
        <time>2024-05-08T11:50:34Z</time>
      </trkpt>
      <trkpt lat="49.86433" lon="4.7282">
        <ele>309</ele>
        <time>2024-05-08T11:50:35Z</time>
      </trkpt>
      <trkpt lat="49.86433" lon="4.72821">
        <ele>309</ele>
        <time>2024-05-08T11:50:36Z</time>
      </trkpt>
      <trkpt lat="49.86433" lon="4.72822">
        <ele>309</ele>
        <time>2024-05-08T11:50:37Z</time>
      </trkpt>
      <trkpt lat="49.86434" lon="4.72823">
        <ele>309</ele>
        <time>2024-05-08T11:50:38Z</time>
      </trkpt>
      <trkpt lat="49.86434" lon="4.72825">
        <ele>309</ele>
        <time>2024-05-08T11:50:39Z</time>
      </trkpt>
      <trkpt lat="49.86435" lon="4.72826">
        <ele>309</ele>
        <time>2024-05-08T11:50:40Z</time>
      </trkpt>
      <trkpt lat="49.86435" lon="4.72826">
        <ele>309</ele>
        <time>2024-05-08T11:50:41Z</time>
      </trkpt>
      <trkpt lat="49.86435" lon="4.72827">
        <ele>309</ele>
        <time>2024-05-08T11:50:42Z</time>
      </trkpt>
      <trkpt lat="49.86435" lon="4.72827">
        <ele>309</ele>
        <time>2024-05-08T11:50:43Z</time>
      </trkpt>
      <trkpt lat="49.86436" lon="4.72828">
        <ele>309</ele>
        <time>2024-05-08T11:50:44Z</time>
      </trkpt>
      <trkpt lat="49.86436" lon="4.72829">
        <ele>309</ele>
        <time>2024-05-08T11:50:45Z</time>
      </trkpt>
      <trkpt lat="49.86437" lon="4.72829">
        <ele>309</ele>
        <time>2024-05-08T11:50:46Z</time>
      </trkpt>
      <trkpt lat="49.86437" lon="4.7283">
        <ele>309</ele>
        <time>2024-05-08T11:50:47Z</time>
      </trkpt>
      <trkpt lat="49.86438" lon="4.7283">
        <ele>309</ele>
        <time>2024-05-08T11:50:48Z</time>
      </trkpt>
      <trkpt lat="49.86438" lon="4.7283">
        <ele>309</ele>
        <time>2024-05-08T11:50:49Z</time>
      </trkpt>
      <trkpt lat="49.86439" lon="4.72831">
        <ele>309</ele>
        <time>2024-05-08T11:50:50Z</time>
      </trkpt>
      <trkpt lat="49.86439" lon="4.72831">
        <ele>310</ele>
        <time>2024-05-08T11:50:51Z</time>
      </trkpt>
      <trkpt lat="49.8644" lon="4.72831">
        <ele>310</ele>
        <time>2024-05-08T11:50:52Z</time>
      </trkpt>
      <trkpt lat="49.8644" lon="4.72832">
        <ele>310</ele>
        <time>2024-05-08T11:50:53Z</time>
      </trkpt>
      <trkpt lat="49.86441" lon="4.72832">
        <ele>310</ele>
        <time>2024-05-08T11:50:54Z</time>
      </trkpt>
      <trkpt lat="49.86441" lon="4.72833">
        <ele>310</ele>
        <time>2024-05-08T11:50:55Z</time>
      </trkpt>
      <trkpt lat="49.86442" lon="4.72834">
        <ele>311</ele>
        <time>2024-05-08T11:50:56Z</time>
      </trkpt>
      <trkpt lat="49.86442" lon="4.72835">
        <ele>311</ele>
        <time>2024-05-08T11:50:57Z</time>
      </trkpt>
      <trkpt lat="49.86443" lon="4.72836">
        <ele>311</ele>
        <time>2024-05-08T11:50:58Z</time>
      </trkpt>
      <trkpt lat="49.86443" lon="4.72838">
        <ele>311</ele>
        <time>2024-05-08T11:50:59Z</time>
      </trkpt>
      <trkpt lat="49.86443" lon="4.72839">
        <ele>311</ele>
        <time>2024-05-08T11:51:00Z</time>
      </trkpt>
      <trkpt lat="49.86443" lon="4.72841">
        <ele>312</ele>
        <time>2024-05-08T11:51:01Z</time>
      </trkpt>
      <trkpt lat="49.86443" lon="4.72843">
        <ele>312</ele>
        <time>2024-05-08T11:51:02Z</time>
      </trkpt>
      <trkpt lat="49.86442" lon="4.72844">
        <ele>312</ele>
        <time>2024-05-08T11:51:03Z</time>
      </trkpt>
      <trkpt lat="49.86442" lon="4.72846">
        <ele>312</ele>
        <time>2024-05-08T11:51:04Z</time>
      </trkpt>
      <trkpt lat="49.86442" lon="4.72847">
        <ele>312</ele>
        <time>2024-05-08T11:51:05Z</time>
      </trkpt>
      <trkpt lat="49.86442" lon="4.72849">
        <ele>312</ele>
        <time>2024-05-08T11:51:06Z</time>
      </trkpt>
      <trkpt lat="49.86442" lon="4.72851">
        <ele>312</ele>
        <time>2024-05-08T11:51:07Z</time>
      </trkpt>
      <trkpt lat="49.86442" lon="4.72853">
        <ele>312</ele>
        <time>2024-05-08T11:51:14Z</time>
      </trkpt>
      <trkpt lat="49.86442" lon="4.72854">
        <ele>312</ele>
        <time>2024-05-08T11:51:15Z</time>
      </trkpt>
      <trkpt lat="49.86442" lon="4.72855">
        <ele>312</ele>
        <time>2024-05-08T11:51:16Z</time>
      </trkpt>
      <trkpt lat="49.86442" lon="4.72857">
        <ele>312</ele>
        <time>2024-05-08T11:51:17Z</time>
      </trkpt>
      <trkpt lat="49.86441" lon="4.72858">
        <ele>312</ele>
        <time>2024-05-08T11:51:18Z</time>
      </trkpt>
      <trkpt lat="49.86441" lon="4.7286">
        <ele>312</ele>
        <time>2024-05-08T11:51:19Z</time>
      </trkpt>
      <trkpt lat="49.86441" lon="4.72861">
        <ele>312</ele>
        <time>2024-05-08T11:51:20Z</time>
      </trkpt>
      <trkpt lat="49.86441" lon="4.72863">
        <ele>312</ele>
        <time>2024-05-08T11:51:21Z</time>
      </trkpt>
      <trkpt lat="49.86441" lon="4.72865">
        <ele>312</ele>
        <time>2024-05-08T11:51:22Z</time>
      </trkpt>
      <trkpt lat="49.86441" lon="4.72867">
        <ele>312</ele>
        <time>2024-05-08T11:51:23Z</time>
      </trkpt>
      <trkpt lat="49.8644" lon="4.72868">
        <ele>312</ele>
        <time>2024-05-08T11:51:24Z</time>
      </trkpt>
      <trkpt lat="49.8644" lon="4.7287">
        <ele>312</ele>
        <time>2024-05-08T11:51:25Z</time>
      </trkpt>
      <trkpt lat="49.8644" lon="4.72872">
        <ele>312</ele>
        <time>2024-05-08T11:51:26Z</time>
      </trkpt>
      <trkpt lat="49.8644" lon="4.72873">
        <ele>312</ele>
        <time>2024-05-08T11:51:27Z</time>
      </trkpt>
      <trkpt lat="49.8644" lon="4.72875">
        <ele>312</ele>
        <time>2024-05-08T11:51:28Z</time>
      </trkpt>
      <trkpt lat="49.86439" lon="4.72877">
        <ele>312</ele>
        <time>2024-05-08T11:51:34Z</time>
      </trkpt>
      <trkpt lat="49.86439" lon="4.72878">
        <ele>312</ele>
        <time>2024-05-08T11:51:35Z</time>
      </trkpt>
      <trkpt lat="49.86439" lon="4.72879">
        <ele>312</ele>
        <time>2024-05-08T11:51:36Z</time>
      </trkpt>
      <trkpt lat="49.86439" lon="4.7288">
        <ele>312</ele>
        <time>2024-05-08T11:51:37Z</time>
      </trkpt>
      <trkpt lat="49.86438" lon="4.72881">
        <ele>312</ele>
        <time>2024-05-08T11:51:38Z</time>
      </trkpt>
      <trkpt lat="49.86438" lon="4.72883">
        <ele>313</ele>
        <time>2024-05-08T11:51:39Z</time>
      </trkpt>
      <trkpt lat="49.86438" lon="4.72884">
        <ele>313</ele>
        <time>2024-05-08T11:51:40Z</time>
      </trkpt>
      <trkpt lat="49.86438" lon="4.72885">
        <ele>314</ele>
        <time>2024-05-08T11:51:41Z</time>
      </trkpt>
      <trkpt lat="49.86437" lon="4.72886">
        <ele>314</ele>
        <time>2024-05-08T11:51:42Z</time>
      </trkpt>
      <trkpt lat="49.86437" lon="4.72887">
        <ele>314</ele>
        <time>2024-05-08T11:51:43Z</time>
      </trkpt>
      <trkpt lat="49.86436" lon="4.72887">
        <ele>314</ele>
        <time>2024-05-08T11:51:44Z</time>
      </trkpt>
      <trkpt lat="49.86436" lon="4.72888">
        <ele>314</ele>
        <time>2024-05-08T11:51:45Z</time>
      </trkpt>
      <trkpt lat="49.86436" lon="4.72889">
        <ele>315</ele>
        <time>2024-05-08T11:51:46Z</time>
      </trkpt>
      <trkpt lat="49.86435" lon="4.72889">
        <ele>315</ele>
        <time>2024-05-08T11:51:47Z</time>
      </trkpt>
      <trkpt lat="49.86435" lon="4.7289">
        <ele>315</ele>
        <time>2024-05-08T11:51:48Z</time>
      </trkpt>
      <trkpt lat="49.86434" lon="4.72891">
        <ele>316</ele>
        <time>2024-05-08T11:51:49Z</time>
      </trkpt>
      <trkpt lat="49.86433" lon="4.72891">
        <ele>316</ele>
        <time>2024-05-08T11:51:50Z</time>
      </trkpt>
      <trkpt lat="49.86433" lon="4.72892">
        <ele>317</ele>
        <time>2024-05-08T11:51:51Z</time>
      </trkpt>
      <trkpt lat="49.86432" lon="4.72892">
        <ele>317</ele>
        <time>2024-05-08T11:51:52Z</time>
      </trkpt>
      <trkpt lat="49.86432" lon="4.72893">
        <ele>317</ele>
        <time>2024-05-08T11:51:53Z</time>
      </trkpt>
      <trkpt lat="49.86432" lon="4.72893">
        <ele>317</ele>
        <time>2024-05-08T11:51:54Z</time>
      </trkpt>
      <trkpt lat="49.86431" lon="4.72894">
        <ele>317</ele>
        <time>2024-05-08T11:51:55Z</time>
      </trkpt>
      <trkpt lat="49.86431" lon="4.72895">
        <ele>318</ele>
        <time>2024-05-08T11:51:56Z</time>
      </trkpt>
      <trkpt lat="49.86431" lon="4.72896">
        <ele>318</ele>
        <time>2024-05-08T11:51:57Z</time>
      </trkpt>
      <trkpt lat="49.86432" lon="4.72898">
        <ele>318</ele>
        <time>2024-05-08T11:51:58Z</time>
      </trkpt>
      <trkpt lat="49.86432" lon="4.72899">
        <ele>319</ele>
        <time>2024-05-08T11:51:59Z</time>
      </trkpt>
      <trkpt lat="49.86432" lon="4.729">
        <ele>319</ele>
        <time>2024-05-08T11:52:00Z</time>
      </trkpt>
      <trkpt lat="49.86432" lon="4.72901">
        <ele>320</ele>
        <time>2024-05-08T11:52:01Z</time>
      </trkpt>
      <trkpt lat="49.86432" lon="4.72902">
        <ele>320</ele>
        <time>2024-05-08T11:52:02Z</time>
      </trkpt>
      <trkpt lat="49.86431" lon="4.72903">
        <ele>320</ele>
        <time>2024-05-08T11:52:03Z</time>
      </trkpt>
      <trkpt lat="49.86431" lon="4.72905">
        <ele>320</ele>
        <time>2024-05-08T11:52:04Z</time>
      </trkpt>
      <trkpt lat="49.8643" lon="4.72906">
        <ele>320</ele>
        <time>2024-05-08T11:52:05Z</time>
      </trkpt>
      <trkpt lat="49.8643" lon="4.72907">
        <ele>321</ele>
        <time>2024-05-08T11:52:06Z</time>
      </trkpt>
      <trkpt lat="49.8643" lon="4.72908">
        <ele>321</ele>
        <time>2024-05-08T11:52:07Z</time>
      </trkpt>
      <trkpt lat="49.8643" lon="4.72909">
        <ele>321</ele>
        <time>2024-05-08T11:52:08Z</time>
      </trkpt>
      <trkpt lat="49.8643" lon="4.7291">
        <ele>321</ele>
        <time>2024-05-08T11:52:09Z</time>
      </trkpt>
      <trkpt lat="49.8643" lon="4.72911">
        <ele>321</ele>
        <time>2024-05-08T11:52:10Z</time>
      </trkpt>
      <trkpt lat="49.8643" lon="4.72913">
        <ele>322</ele>
        <time>2024-05-08T11:52:11Z</time>
      </trkpt>
      <trkpt lat="49.8643" lon="4.72914">
        <ele>322</ele>
        <time>2024-05-08T11:52:12Z</time>
      </trkpt>
      <trkpt lat="49.8643" lon="4.72915">
        <ele>322</ele>
        <time>2024-05-08T11:52:13Z</time>
      </trkpt>
      <trkpt lat="49.8643" lon="4.72916">
        <ele>322</ele>
        <time>2024-05-08T11:52:14Z</time>
      </trkpt>
      <trkpt lat="49.8643" lon="4.72917">
        <ele>322</ele>
        <time>2024-05-08T11:52:15Z</time>
      </trkpt>
      <trkpt lat="49.86431" lon="4.72918">
        <ele>322</ele>
        <time>2024-05-08T11:52:16Z</time>
      </trkpt>
      <trkpt lat="49.86431" lon="4.72919">
        <ele>322</ele>
        <time>2024-05-08T11:52:17Z</time>
      </trkpt>
      <trkpt lat="49.86432" lon="4.7292">
        <ele>324</ele>
        <time>2024-05-08T11:53:53Z</time>
      </trkpt>
      <trkpt lat="49.86433" lon="4.72921">
        <ele>324</ele>
        <time>2024-05-08T11:53:54Z</time>
      </trkpt>
      <trkpt lat="49.86433" lon="4.72921">
        <ele>324</ele>
        <time>2024-05-08T11:53:55Z</time>
      </trkpt>
      <trkpt lat="49.86433" lon="4.72921">
        <ele>324</ele>
        <time>2024-05-08T11:53:56Z</time>
      </trkpt>
      <trkpt lat="49.86433" lon="4.7292">
        <ele>323</ele>
        <time>2024-05-08T11:53:57Z</time>
      </trkpt>
      <trkpt lat="49.86432" lon="4.7292">
        <ele>323</ele>
        <time>2024-05-08T11:53:58Z</time>
      </trkpt>
      <trkpt lat="49.86432" lon="4.72919">
        <ele>323</ele>
        <time>2024-05-08T11:53:59Z</time>
      </trkpt>
      <trkpt lat="49.86431" lon="4.72919">
        <ele>323</ele>
        <time>2024-05-08T11:54:00Z</time>
      </trkpt>
      <trkpt lat="49.86431" lon="4.72918">
        <ele>323</ele>
        <time>2024-05-08T11:54:01Z</time>
      </trkpt>
      <trkpt lat="49.8643" lon="4.72916">
        <ele>322</ele>
        <time>2024-05-08T11:54:02Z</time>
      </trkpt>
      <trkpt lat="49.8643" lon="4.72915">
        <ele>322</ele>
        <time>2024-05-08T11:54:03Z</time>
      </trkpt>
      <trkpt lat="49.8643" lon="4.72914">
        <ele>322</ele>
        <time>2024-05-08T11:54:04Z</time>
      </trkpt>
      <trkpt lat="49.8643" lon="4.72912">
        <ele>322</ele>
        <time>2024-05-08T11:54:05Z</time>
      </trkpt>
      <trkpt lat="49.8643" lon="4.72911">
        <ele>322</ele>
        <time>2024-05-08T11:54:06Z</time>
      </trkpt>
      <trkpt lat="49.8643" lon="4.72909">
        <ele>321</ele>
        <time>2024-05-08T11:54:07Z</time>
      </trkpt>
      <trkpt lat="49.8643" lon="4.72908">
        <ele>321</ele>
        <time>2024-05-08T11:54:08Z</time>
      </trkpt>
      <trkpt lat="49.8643" lon="4.72907">
        <ele>321</ele>
        <time>2024-05-08T11:54:09Z</time>
      </trkpt>
      <trkpt lat="49.8643" lon="4.72906">
        <ele>321</ele>
        <time>2024-05-08T11:54:10Z</time>
      </trkpt>
      <trkpt lat="49.8643" lon="4.72904">
        <ele>321</ele>
        <time>2024-05-08T11:54:11Z</time>
      </trkpt>
      <trkpt lat="49.8643" lon="4.72903">
        <ele>320</ele>
        <time>2024-05-08T11:54:12Z</time>
      </trkpt>
      <trkpt lat="49.86431" lon="4.72901">
        <ele>319</ele>
        <time>2024-05-08T11:54:20Z</time>
      </trkpt>
      <trkpt lat="49.86431" lon="4.72899">
        <ele>319</ele>
        <time>2024-05-08T11:54:21Z</time>
      </trkpt>
      <trkpt lat="49.86431" lon="4.72897">
        <ele>319</ele>
        <time>2024-05-08T11:54:22Z</time>
      </trkpt>
      <trkpt lat="49.8643" lon="4.72896">
        <ele>319</ele>
        <time>2024-05-08T11:54:23Z</time>
      </trkpt>
      <trkpt lat="49.8643" lon="4.72895">
        <ele>319</ele>
        <time>2024-05-08T11:54:24Z</time>
      </trkpt>
      <trkpt lat="49.8643" lon="4.72894">
        <ele>319</ele>
        <time>2024-05-08T11:54:25Z</time>
      </trkpt>
      <trkpt lat="49.86429" lon="4.72893">
        <ele>319</ele>
        <time>2024-05-08T11:54:26Z</time>
      </trkpt>
      <trkpt lat="49.86429" lon="4.72892">
        <ele>319</ele>
        <time>2024-05-08T11:54:27Z</time>
      </trkpt>
      <trkpt lat="49.86429" lon="4.72891">
        <ele>319</ele>
        <time>2024-05-08T11:54:28Z</time>
      </trkpt>
      <trkpt lat="49.86428" lon="4.72891">
        <ele>319</ele>
        <time>2024-05-08T11:54:29Z</time>
      </trkpt>
      <trkpt lat="49.86427" lon="4.7289">
        <ele>319</ele>
        <time>2024-05-08T11:54:30Z</time>
      </trkpt>
      <trkpt lat="49.86427" lon="4.72889">
        <ele>319</ele>
        <time>2024-05-08T11:54:31Z</time>
      </trkpt>
      <trkpt lat="49.86426" lon="4.72888">
        <ele>318</ele>
        <time>2024-05-08T11:54:32Z</time>
      </trkpt>
      <trkpt lat="49.86425" lon="4.72887">
        <ele>318</ele>
        <time>2024-05-08T11:54:33Z</time>
      </trkpt>
      <trkpt lat="49.86424" lon="4.72886">
        <ele>318</ele>
        <time>2024-05-08T11:54:34Z</time>
      </trkpt>
      <trkpt lat="49.86423" lon="4.72886">
        <ele>318</ele>
        <time>2024-05-08T11:54:35Z</time>
      </trkpt>
      <trkpt lat="49.86421" lon="4.72885">
        <ele>318</ele>
        <time>2024-05-08T11:54:36Z</time>
      </trkpt>
      <trkpt lat="49.8642" lon="4.72885">
        <ele>318</ele>
        <time>2024-05-08T11:54:37Z</time>
      </trkpt>
      <trkpt lat="49.86419" lon="4.72884">
        <ele>318</ele>
        <time>2024-05-08T11:54:38Z</time>
      </trkpt>
      <trkpt lat="49.86418" lon="4.72884">
        <ele>318</ele>
        <time>2024-05-08T11:54:39Z</time>
      </trkpt>
      <trkpt lat="49.86417" lon="4.72883">
        <ele>318</ele>
        <time>2024-05-08T11:54:40Z</time>
      </trkpt>
      <trkpt lat="49.86416" lon="4.72882">
        <ele>318</ele>
        <time>2024-05-08T11:54:41Z</time>
      </trkpt>
      <trkpt lat="49.86416" lon="4.72881">
        <ele>318</ele>
        <time>2024-05-08T11:54:42Z</time>
      </trkpt>
      <trkpt lat="49.86415" lon="4.7288">
        <ele>318</ele>
        <time>2024-05-08T11:54:43Z</time>
      </trkpt>
      <trkpt lat="49.86414" lon="4.72879">
        <ele>318</ele>
        <time>2024-05-08T11:54:44Z</time>
      </trkpt>
      <trkpt lat="49.86413" lon="4.72878">
        <ele>318</ele>
        <time>2024-05-08T11:54:45Z</time>
      </trkpt>
      <trkpt lat="49.86412" lon="4.72877">
        <ele>318</ele>
        <time>2024-05-08T11:54:46Z</time>
      </trkpt>
      <trkpt lat="49.86412" lon="4.72876">
        <ele>318</ele>
        <time>2024-05-08T11:54:47Z</time>
      </trkpt>
      <trkpt lat="49.86411" lon="4.72874">
        <ele>318</ele>
        <time>2024-05-08T11:54:48Z</time>
      </trkpt>
      <trkpt lat="49.86411" lon="4.72873">
        <ele>318</ele>
        <time>2024-05-08T11:54:49Z</time>
      </trkpt>
      <trkpt lat="49.8641" lon="4.72872">
        <ele>318</ele>
        <time>2024-05-08T11:54:50Z</time>
      </trkpt>
      <trkpt lat="49.8641" lon="4.72871">
        <ele>319</ele>
        <time>2024-05-08T11:54:51Z</time>
      </trkpt>
      <trkpt lat="49.86409" lon="4.7287">
        <ele>319</ele>
        <time>2024-05-08T11:54:52Z</time>
      </trkpt>
      <trkpt lat="49.86409" lon="4.72869">
        <ele>319</ele>
        <time>2024-05-08T11:54:53Z</time>
      </trkpt>
      <trkpt lat="49.86409" lon="4.72868">
        <ele>319</ele>
        <time>2024-05-08T11:54:54Z</time>
      </trkpt>
      <trkpt lat="49.86409" lon="4.72867">
        <ele>319</ele>
        <time>2024-05-08T11:54:55Z</time>
      </trkpt>
      <trkpt lat="49.86408" lon="4.72867">
        <ele>319</ele>
        <time>2024-05-08T11:54:56Z</time>
      </trkpt>
      <trkpt lat="49.86408" lon="4.72866">
        <ele>319</ele>
        <time>2024-05-08T11:54:57Z</time>
      </trkpt>
      <trkpt lat="49.86407" lon="4.72865">
        <ele>319</ele>
        <time>2024-05-08T11:54:58Z</time>
      </trkpt>
      <trkpt lat="49.86407" lon="4.72865">
        <ele>319</ele>
        <time>2024-05-08T11:54:59Z</time>
      </trkpt>
      <trkpt lat="49.86406" lon="4.72864">
        <ele>319</ele>
        <time>2024-05-08T11:55:00Z</time>
      </trkpt>
      <trkpt lat="49.86405" lon="4.72863">
        <ele>319</ele>
        <time>2024-05-08T11:55:01Z</time>
      </trkpt>
      <trkpt lat="49.86405" lon="4.72862">
        <ele>319</ele>
        <time>2024-05-08T11:55:02Z</time>
      </trkpt>
      <trkpt lat="49.86404" lon="4.72862">
        <ele>319</ele>
        <time>2024-05-08T11:55:03Z</time>
      </trkpt>
      <trkpt lat="49.86403" lon="4.72861">
        <ele>319</ele>
        <time>2024-05-08T11:55:04Z</time>
      </trkpt>
      <trkpt lat="49.86402" lon="4.7286">
        <ele>319</ele>
        <time>2024-05-08T11:55:05Z</time>
      </trkpt>
      <trkpt lat="49.86401" lon="4.72859">
        <ele>320</ele>
        <time>2024-05-08T11:55:06Z</time>
      </trkpt>
      <trkpt lat="49.864" lon="4.72859">
        <ele>320</ele>
        <time>2024-05-08T11:55:07Z</time>
      </trkpt>
      <trkpt lat="49.86399" lon="4.72858">
        <ele>320</ele>
        <time>2024-05-08T11:55:08Z</time>
      </trkpt>
      <trkpt lat="49.86398" lon="4.72857">
        <ele>320</ele>
        <time>2024-05-08T11:55:09Z</time>
      </trkpt>
      <trkpt lat="49.86397" lon="4.72857">
        <ele>320</ele>
        <time>2024-05-08T11:55:10Z</time>
      </trkpt>
      <trkpt lat="49.86396" lon="4.72856">
        <ele>320</ele>
        <time>2024-05-08T11:55:11Z</time>
      </trkpt>
      <trkpt lat="49.86395" lon="4.72855">
        <ele>320</ele>
        <time>2024-05-08T11:55:12Z</time>
      </trkpt>
      <trkpt lat="49.86393" lon="4.72855">
        <ele>320</ele>
        <time>2024-05-08T11:55:13Z</time>
      </trkpt>
      <trkpt lat="49.86392" lon="4.72854">
        <ele>320</ele>
        <time>2024-05-08T11:55:14Z</time>
      </trkpt>
      <trkpt lat="49.86391" lon="4.72853">
        <ele>320</ele>
        <time>2024-05-08T11:55:15Z</time>
      </trkpt>
      <trkpt lat="49.8639" lon="4.72852">
        <ele>321</ele>
        <time>2024-05-08T11:55:16Z</time>
      </trkpt>
      <trkpt lat="49.8639" lon="4.72852">
        <ele>321</ele>
        <time>2024-05-08T11:55:17Z</time>
      </trkpt>
      <trkpt lat="49.86389" lon="4.72851">
        <ele>321</ele>
        <time>2024-05-08T11:55:18Z</time>
      </trkpt>
      <trkpt lat="49.86388" lon="4.7285">
        <ele>321</ele>
        <time>2024-05-08T11:55:19Z</time>
      </trkpt>
      <trkpt lat="49.86387" lon="4.72849">
        <ele>321</ele>
        <time>2024-05-08T11:55:20Z</time>
      </trkpt>
      <trkpt lat="49.86386" lon="4.72848">
        <ele>321</ele>
        <time>2024-05-08T11:55:21Z</time>
      </trkpt>
      <trkpt lat="49.86385" lon="4.72847">
        <ele>321</ele>
        <time>2024-05-08T11:55:22Z</time>
      </trkpt>
      <trkpt lat="49.86384" lon="4.72846">
        <ele>321</ele>
        <time>2024-05-08T11:55:23Z</time>
      </trkpt>
      <trkpt lat="49.86383" lon="4.72845">
        <ele>321</ele>
        <time>2024-05-08T11:55:24Z</time>
      </trkpt>
      <trkpt lat="49.86382" lon="4.72843">
        <ele>321</ele>
        <time>2024-05-08T11:55:25Z</time>
      </trkpt>
      <trkpt lat="49.86381" lon="4.72843">
        <ele>321</ele>
        <time>2024-05-08T11:55:26Z</time>
      </trkpt>
      <trkpt lat="49.8638" lon="4.72842">
        <ele>321</ele>
        <time>2024-05-08T11:55:27Z</time>
      </trkpt>
      <trkpt lat="49.86379" lon="4.72841">
        <ele>321</ele>
        <time>2024-05-08T11:55:28Z</time>
      </trkpt>
      <trkpt lat="49.86378" lon="4.7284">
        <ele>321</ele>
        <time>2024-05-08T11:55:29Z</time>
      </trkpt>
      <trkpt lat="49.86377" lon="4.72839">
        <ele>321</ele>
        <time>2024-05-08T11:55:30Z</time>
      </trkpt>
      <trkpt lat="49.86376" lon="4.72839">
        <ele>322</ele>
        <time>2024-05-08T11:55:31Z</time>
      </trkpt>
      <trkpt lat="49.86375" lon="4.72838">
        <ele>322</ele>
        <time>2024-05-08T11:55:32Z</time>
      </trkpt>
      <trkpt lat="49.86374" lon="4.72837">
        <ele>322</ele>
        <time>2024-05-08T11:55:33Z</time>
      </trkpt>
      <trkpt lat="49.86373" lon="4.72836">
        <ele>322</ele>
        <time>2024-05-08T11:55:34Z</time>
      </trkpt>
      <trkpt lat="49.86372" lon="4.72836">
        <ele>322</ele>
        <time>2024-05-08T11:55:35Z</time>
      </trkpt>
      <trkpt lat="49.86371" lon="4.72835">
        <ele>322</ele>
        <time>2024-05-08T11:55:36Z</time>
      </trkpt>
      <trkpt lat="49.8637" lon="4.72834">
        <ele>322</ele>
        <time>2024-05-08T11:55:37Z</time>
      </trkpt>
      <trkpt lat="49.86369" lon="4.72833">
        <ele>322</ele>
        <time>2024-05-08T11:55:38Z</time>
      </trkpt>
      <trkpt lat="49.86368" lon="4.72832">
        <ele>322</ele>
        <time>2024-05-08T11:55:39Z</time>
      </trkpt>
      <trkpt lat="49.86367" lon="4.72831">
        <ele>322</ele>
        <time>2024-05-08T11:55:40Z</time>
      </trkpt>
      <trkpt lat="49.86366" lon="4.72831">
        <ele>323</ele>
        <time>2024-05-08T11:55:41Z</time>
      </trkpt>
      <trkpt lat="49.86365" lon="4.7283">
        <ele>323</ele>
        <time>2024-05-08T11:55:42Z</time>
      </trkpt>
      <trkpt lat="49.86364" lon="4.72829">
        <ele>323</ele>
        <time>2024-05-08T11:55:43Z</time>
      </trkpt>
      <trkpt lat="49.86364" lon="4.72827">
        <ele>323</ele>
        <time>2024-05-08T11:55:44Z</time>
      </trkpt>
      <trkpt lat="49.86363" lon="4.72826">
        <ele>323</ele>
        <time>2024-05-08T11:55:45Z</time>
      </trkpt>
      <trkpt lat="49.86362" lon="4.72825">
        <ele>323</ele>
        <time>2024-05-08T11:55:46Z</time>
      </trkpt>
      <trkpt lat="49.86362" lon="4.72824">
        <ele>323</ele>
        <time>2024-05-08T11:55:47Z</time>
      </trkpt>
      <trkpt lat="49.86361" lon="4.72823">
        <ele>323</ele>
        <time>2024-05-08T11:55:48Z</time>
      </trkpt>
      <trkpt lat="49.86361" lon="4.72822">
        <ele>323</ele>
        <time>2024-05-08T11:55:49Z</time>
      </trkpt>
      <trkpt lat="49.86361" lon="4.72821">
        <ele>323</ele>
        <time>2024-05-08T11:55:50Z</time>
      </trkpt>
      <trkpt lat="49.86361" lon="4.72821">
        <ele>324</ele>
        <time>2024-05-08T11:55:51Z</time>
      </trkpt>
      <trkpt lat="49.8636" lon="4.72821">
        <ele>324</ele>
        <time>2024-05-08T11:55:52Z</time>
      </trkpt>
      <trkpt lat="49.8636" lon="4.7282">
        <ele>324</ele>
        <time>2024-05-08T11:55:53Z</time>
      </trkpt>
      <trkpt lat="49.86359" lon="4.72821">
        <ele>324</ele>
        <time>2024-05-08T11:55:54Z</time>
      </trkpt>
      <trkpt lat="49.86358" lon="4.72821">
        <ele>324</ele>
        <time>2024-05-08T11:55:55Z</time>
      </trkpt>
      <trkpt lat="49.86357" lon="4.72821">
        <ele>324</ele>
        <time>2024-05-08T11:55:56Z</time>
      </trkpt>
      <trkpt lat="49.86356" lon="4.72822">
        <ele>324</ele>
        <time>2024-05-08T11:55:57Z</time>
      </trkpt>
      <trkpt lat="49.86354" lon="4.72822">
        <ele>324</ele>
        <time>2024-05-08T11:55:58Z</time>
      </trkpt>
      <trkpt lat="49.86353" lon="4.72822">
        <ele>324</ele>
        <time>2024-05-08T11:55:59Z</time>
      </trkpt>
      <trkpt lat="49.86351" lon="4.72822">
        <ele>324</ele>
        <time>2024-05-08T11:56:00Z</time>
      </trkpt>
      <trkpt lat="49.8635" lon="4.72821">
        <ele>324</ele>
        <time>2024-05-08T11:56:01Z</time>
      </trkpt>
      <trkpt lat="49.86349" lon="4.7282">
        <ele>324</ele>
        <time>2024-05-08T11:56:02Z</time>
      </trkpt>
      <trkpt lat="49.86347" lon="4.7282">
        <ele>324</ele>
        <time>2024-05-08T11:56:03Z</time>
      </trkpt>
      <trkpt lat="49.86346" lon="4.72819">
        <ele>324</ele>
        <time>2024-05-08T11:56:04Z</time>
      </trkpt>
      <trkpt lat="49.86345" lon="4.72817">
        <ele>324</ele>
        <time>2024-05-08T11:56:05Z</time>
      </trkpt>
      <trkpt lat="49.86344" lon="4.72816">
        <ele>325</ele>
        <time>2024-05-08T11:56:06Z</time>
      </trkpt>
      <trkpt lat="49.86343" lon="4.72816">
        <ele>325</ele>
        <time>2024-05-08T11:56:07Z</time>
      </trkpt>
      <trkpt lat="49.86342" lon="4.72814">
        <ele>325</ele>
        <time>2024-05-08T11:56:08Z</time>
      </trkpt>
      <trkpt lat="49.86342" lon="4.72813">
        <ele>325</ele>
        <time>2024-05-08T11:56:09Z</time>
      </trkpt>
      <trkpt lat="49.86341" lon="4.72812">
        <ele>325</ele>
        <time>2024-05-08T11:56:10Z</time>
      </trkpt>
      <trkpt lat="49.8634" lon="4.72811">
        <ele>325</ele>
        <time>2024-05-08T11:56:11Z</time>
      </trkpt>
      <trkpt lat="49.86339" lon="4.7281">
        <ele>325</ele>
        <time>2024-05-08T11:56:12Z</time>
      </trkpt>
      <trkpt lat="49.86338" lon="4.72809">
        <ele>325</ele>
        <time>2024-05-08T11:56:13Z</time>
      </trkpt>
      <trkpt lat="49.86337" lon="4.72808">
        <ele>325</ele>
        <time>2024-05-08T11:56:14Z</time>
      </trkpt>
      <trkpt lat="49.86337" lon="4.72807">
        <ele>325</ele>
        <time>2024-05-08T11:56:15Z</time>
      </trkpt>
      <trkpt lat="49.86336" lon="4.72806">
        <ele>326</ele>
        <time>2024-05-08T11:56:16Z</time>
      </trkpt>
      <trkpt lat="49.86335" lon="4.72805">
        <ele>326</ele>
        <time>2024-05-08T11:56:17Z</time>
      </trkpt>
      <trkpt lat="49.86334" lon="4.72805">
        <ele>326</ele>
        <time>2024-05-08T11:56:18Z</time>
      </trkpt>
      <trkpt lat="49.86333" lon="4.72804">
        <ele>326</ele>
        <time>2024-05-08T11:56:19Z</time>
      </trkpt>
      <trkpt lat="49.86332" lon="4.72803">
        <ele>326</ele>
        <time>2024-05-08T11:56:20Z</time>
      </trkpt>
      <trkpt lat="49.86331" lon="4.72803">
        <ele>327</ele>
        <time>2024-05-08T11:56:21Z</time>
      </trkpt>
      <trkpt lat="49.86331" lon="4.72802">
        <ele>327</ele>
        <time>2024-05-08T11:56:22Z</time>
      </trkpt>
      <trkpt lat="49.8633" lon="4.72802">
        <ele>327</ele>
        <time>2024-05-08T11:56:23Z</time>
      </trkpt>
      <trkpt lat="49.86329" lon="4.72801">
        <ele>327</ele>
        <time>2024-05-08T11:56:24Z</time>
      </trkpt>
      <trkpt lat="49.86329" lon="4.728">
        <ele>327</ele>
        <time>2024-05-08T11:56:25Z</time>
      </trkpt>
      <trkpt lat="49.86328" lon="4.728">
        <ele>328</ele>
        <time>2024-05-08T11:56:26Z</time>
      </trkpt>
      <trkpt lat="49.86328" lon="4.72799">
        <ele>328</ele>
        <time>2024-05-08T11:56:27Z</time>
      </trkpt>
      <trkpt lat="49.86327" lon="4.72798">
        <ele>328</ele>
        <time>2024-05-08T11:56:28Z</time>
      </trkpt>
      <trkpt lat="49.86327" lon="4.72797">
        <ele>328</ele>
        <time>2024-05-08T11:56:29Z</time>
      </trkpt>
      <trkpt lat="49.86327" lon="4.72796">
        <ele>328</ele>
        <time>2024-05-08T11:56:30Z</time>
      </trkpt>
      <trkpt lat="49.86326" lon="4.72795">
        <ele>329</ele>
        <time>2024-05-08T11:56:31Z</time>
      </trkpt>
      <trkpt lat="49.86326" lon="4.72795">
        <ele>329</ele>
        <time>2024-05-08T11:56:32Z</time>
      </trkpt>
      <trkpt lat="49.86326" lon="4.72794">
        <ele>329</ele>
        <time>2024-05-08T11:56:33Z</time>
      </trkpt>
      <trkpt lat="49.86326" lon="4.72793">
        <ele>329</ele>
        <time>2024-05-08T11:56:34Z</time>
      </trkpt>
      <trkpt lat="49.86325" lon="4.72793">
        <ele>329</ele>
        <time>2024-05-08T11:56:35Z</time>
      </trkpt>
      <trkpt lat="49.86325" lon="4.72792">
        <ele>330</ele>
        <time>2024-05-08T11:56:36Z</time>
      </trkpt>
      <trkpt lat="49.86324" lon="4.72792">
        <ele>330</ele>
        <time>2024-05-08T11:56:37Z</time>
      </trkpt>
      <trkpt lat="49.86323" lon="4.72791">
        <ele>330</ele>
        <time>2024-05-08T11:56:38Z</time>
      </trkpt>
      <trkpt lat="49.86323" lon="4.7279">
        <ele>331</ele>
        <time>2024-05-08T11:56:39Z</time>
      </trkpt>
      <trkpt lat="49.86322" lon="4.7279">
        <ele>331</ele>
        <time>2024-05-08T11:56:40Z</time>
      </trkpt>
      <trkpt lat="49.86321" lon="4.72789">
        <ele>332</ele>
        <time>2024-05-08T11:56:41Z</time>
      </trkpt>
      <trkpt lat="49.8632" lon="4.72788">
        <ele>332</ele>
        <time>2024-05-08T11:56:42Z</time>
      </trkpt>
      <trkpt lat="49.8632" lon="4.72787">
        <ele>332</ele>
        <time>2024-05-08T11:56:43Z</time>
      </trkpt>
      <trkpt lat="49.86319" lon="4.72786">
        <ele>332</ele>
        <time>2024-05-08T11:56:44Z</time>
      </trkpt>
      <trkpt lat="49.86319" lon="4.72785">
        <ele>332</ele>
        <time>2024-05-08T11:56:45Z</time>
      </trkpt>
      <trkpt lat="49.86318" lon="4.72784">
        <ele>333</ele>
        <time>2024-05-08T11:56:46Z</time>
      </trkpt>
      <trkpt lat="49.86318" lon="4.72783">
        <ele>333</ele>
        <time>2024-05-08T11:56:47Z</time>
      </trkpt>
      <trkpt lat="49.86317" lon="4.72782">
        <ele>333</ele>
        <time>2024-05-08T11:56:48Z</time>
      </trkpt>
      <trkpt lat="49.86317" lon="4.72781">
        <ele>333</ele>
        <time>2024-05-08T11:56:49Z</time>
      </trkpt>
      <trkpt lat="49.86316" lon="4.7278">
        <ele>333</ele>
        <time>2024-05-08T11:56:50Z</time>
      </trkpt>
      <trkpt lat="49.86316" lon="4.72779">
        <ele>334</ele>
        <time>2024-05-08T11:56:51Z</time>
      </trkpt>
      <trkpt lat="49.86315" lon="4.72778">
        <ele>334</ele>
        <time>2024-05-08T11:56:52Z</time>
      </trkpt>
      <trkpt lat="49.86314" lon="4.72777">
        <ele>334</ele>
        <time>2024-05-08T11:56:53Z</time>
      </trkpt>
      <trkpt lat="49.86314" lon="4.72776">
        <ele>334</ele>
        <time>2024-05-08T11:56:54Z</time>
      </trkpt>
      <trkpt lat="49.86314" lon="4.72776">
        <ele>334</ele>
        <time>2024-05-08T11:56:55Z</time>
      </trkpt>
      <trkpt lat="49.86314" lon="4.72776">
        <ele>334</ele>
        <time>2024-05-08T11:56:56Z</time>
      </trkpt>
      <trkpt lat="49.86314" lon="4.72777">
        <ele>334</ele>
        <time>2024-05-08T11:56:57Z</time>
      </trkpt>
      <trkpt lat="49.86315" lon="4.72777">
        <ele>334</ele>
        <time>2024-05-08T11:56:58Z</time>
      </trkpt>
      <trkpt lat="49.86315" lon="4.72778">
        <ele>334</ele>
        <time>2024-05-08T11:56:59Z</time>
      </trkpt>
      <trkpt lat="49.86314" lon="4.72779">
        <ele>334</ele>
        <time>2024-05-08T11:57:00Z</time>
      </trkpt>
      <trkpt lat="49.86314" lon="4.7278">
        <ele>334</ele>
        <time>2024-05-08T11:57:01Z</time>
      </trkpt>
      <trkpt lat="49.86313" lon="4.72781">
        <ele>334</ele>
        <time>2024-05-08T11:57:02Z</time>
      </trkpt>
      <trkpt lat="49.86313" lon="4.72782">
        <ele>334</ele>
        <time>2024-05-08T11:57:03Z</time>
      </trkpt>
      <trkpt lat="49.86312" lon="4.72783">
        <ele>334</ele>
        <time>2024-05-08T11:57:04Z</time>
      </trkpt>
      <trkpt lat="49.86311" lon="4.72784">
        <ele>334</ele>
        <time>2024-05-08T11:57:05Z</time>
      </trkpt>
      <trkpt lat="49.86311" lon="4.72785">
        <ele>335</ele>
        <time>2024-05-08T11:57:06Z</time>
      </trkpt>
      <trkpt lat="49.8631" lon="4.72786">
        <ele>335</ele>
        <time>2024-05-08T11:57:07Z</time>
      </trkpt>
      <trkpt lat="49.8631" lon="4.72787">
        <ele>335</ele>
        <time>2024-05-08T11:57:08Z</time>
      </trkpt>
      <trkpt lat="49.86309" lon="4.72788">
        <ele>335</ele>
        <time>2024-05-08T11:57:09Z</time>
      </trkpt>
      <trkpt lat="49.86309" lon="4.72789">
        <ele>335</ele>
        <time>2024-05-08T11:57:10Z</time>
      </trkpt>
      <trkpt lat="49.86308" lon="4.72791">
        <ele>335</ele>
        <time>2024-05-08T11:57:11Z</time>
      </trkpt>
      <trkpt lat="49.86307" lon="4.72793">
        <ele>335</ele>
        <time>2024-05-08T11:57:12Z</time>
      </trkpt>
      <trkpt lat="49.86307" lon="4.72794">
        <ele>335</ele>
        <time>2024-05-08T11:57:13Z</time>
      </trkpt>
      <trkpt lat="49.86307" lon="4.72796">
        <ele>335</ele>
        <time>2024-05-08T11:57:14Z</time>
      </trkpt>
      <trkpt lat="49.86306" lon="4.72797">
        <ele>335</ele>
        <time>2024-05-08T11:57:15Z</time>
      </trkpt>
      <trkpt lat="49.86306" lon="4.72798">
        <ele>336</ele>
        <time>2024-05-08T11:57:16Z</time>
      </trkpt>
      <trkpt lat="49.86305" lon="4.72799">
        <ele>336</ele>
        <time>2024-05-08T11:57:17Z</time>
      </trkpt>
      <trkpt lat="49.86305" lon="4.728">
        <ele>336</ele>
        <time>2024-05-08T11:57:18Z</time>
      </trkpt>
      <trkpt lat="49.86304" lon="4.72801">
        <ele>336</ele>
        <time>2024-05-08T11:57:19Z</time>
      </trkpt>
      <trkpt lat="49.86304" lon="4.72802">
        <ele>336</ele>
        <time>2024-05-08T11:57:20Z</time>
      </trkpt>
      <trkpt lat="49.86303" lon="4.72803">
        <ele>336</ele>
        <time>2024-05-08T11:57:21Z</time>
      </trkpt>
      <trkpt lat="49.86303" lon="4.72805">
        <ele>336</ele>
        <time>2024-05-08T11:57:22Z</time>
      </trkpt>
      <trkpt lat="49.86302" lon="4.72806">
        <ele>336</ele>
        <time>2024-05-08T11:57:23Z</time>
      </trkpt>
      <trkpt lat="49.86301" lon="4.72808">
        <ele>336</ele>
        <time>2024-05-08T11:57:24Z</time>
      </trkpt>
      <trkpt lat="49.86301" lon="4.72809">
        <ele>336</ele>
        <time>2024-05-08T11:57:25Z</time>
      </trkpt>
      <trkpt lat="49.863" lon="4.72811">
        <ele>336</ele>
        <time>2024-05-08T11:57:26Z</time>
      </trkpt>
      <trkpt lat="49.863" lon="4.72813">
        <ele>336</ele>
        <time>2024-05-08T11:57:27Z</time>
      </trkpt>
      <trkpt lat="49.86299" lon="4.72815">
        <ele>336</ele>
        <time>2024-05-08T11:57:28Z</time>
      </trkpt>
      <trkpt lat="49.86299" lon="4.72816">
        <ele>336</ele>
        <time>2024-05-08T11:57:29Z</time>
      </trkpt>
      <trkpt lat="49.86298" lon="4.72818">
        <ele>336</ele>
        <time>2024-05-08T11:57:30Z</time>
      </trkpt>
      <trkpt lat="49.86298" lon="4.7282">
        <ele>336</ele>
        <time>2024-05-08T11:57:31Z</time>
      </trkpt>
      <trkpt lat="49.86297" lon="4.72822">
        <ele>336</ele>
        <time>2024-05-08T11:57:32Z</time>
      </trkpt>
      <trkpt lat="49.86296" lon="4.72823">
        <ele>336</ele>
        <time>2024-05-08T11:57:33Z</time>
      </trkpt>
      <trkpt lat="49.86296" lon="4.72825">
        <ele>336</ele>
        <time>2024-05-08T11:57:34Z</time>
      </trkpt>
      <trkpt lat="49.86295" lon="4.72826">
        <ele>336</ele>
        <time>2024-05-08T11:57:35Z</time>
      </trkpt>
      <trkpt lat="49.86294" lon="4.72827">
        <ele>336</ele>
        <time>2024-05-08T11:57:36Z</time>
      </trkpt>
      <trkpt lat="49.86294" lon="4.72829">
        <ele>336</ele>
        <time>2024-05-08T11:57:37Z</time>
      </trkpt>
      <trkpt lat="49.86293" lon="4.7283">
        <ele>336</ele>
        <time>2024-05-08T11:57:38Z</time>
      </trkpt>
      <trkpt lat="49.86292" lon="4.72831">
        <ele>336</ele>
        <time>2024-05-08T11:57:39Z</time>
      </trkpt>
      <trkpt lat="49.86291" lon="4.72833">
        <ele>336</ele>
        <time>2024-05-08T11:57:40Z</time>
      </trkpt>
      <trkpt lat="49.8629" lon="4.72834">
        <ele>336</ele>
        <time>2024-05-08T11:57:41Z</time>
      </trkpt>
      <trkpt lat="49.86289" lon="4.72836">
        <ele>336</ele>
        <time>2024-05-08T11:57:42Z</time>
      </trkpt>
      <trkpt lat="49.86288" lon="4.72837">
        <ele>336</ele>
        <time>2024-05-08T11:57:43Z</time>
      </trkpt>
      <trkpt lat="49.86287" lon="4.72838">
        <ele>336</ele>
        <time>2024-05-08T11:57:44Z</time>
      </trkpt>
      <trkpt lat="49.86286" lon="4.72839">
        <ele>336</ele>
        <time>2024-05-08T11:57:45Z</time>
      </trkpt>
      <trkpt lat="49.86285" lon="4.72841">
        <ele>336</ele>
        <time>2024-05-08T11:57:46Z</time>
      </trkpt>
      <trkpt lat="49.86285" lon="4.72841">
        <ele>336</ele>
        <time>2024-05-08T11:57:47Z</time>
      </trkpt>
      <trkpt lat="49.86284" lon="4.72842">
        <ele>336</ele>
        <time>2024-05-08T11:57:48Z</time>
      </trkpt>
      <trkpt lat="49.86283" lon="4.72843">
        <ele>336</ele>
        <time>2024-05-08T11:57:49Z</time>
      </trkpt>
      <trkpt lat="49.86283" lon="4.72843">
        <ele>336</ele>
        <time>2024-05-08T11:57:50Z</time>
      </trkpt>
      <trkpt lat="49.86282" lon="4.72844">
        <ele>336</ele>
        <time>2024-05-08T11:57:51Z</time>
      </trkpt>
      <trkpt lat="49.86281" lon="4.72845">
        <ele>336</ele>
        <time>2024-05-08T11:57:52Z</time>
      </trkpt>
      <trkpt lat="49.86281" lon="4.72846">
        <ele>336</ele>
        <time>2024-05-08T11:57:53Z</time>
      </trkpt>
      <trkpt lat="49.8628" lon="4.72847">
        <ele>336</ele>
        <time>2024-05-08T11:57:54Z</time>
      </trkpt>
      <trkpt lat="49.86279" lon="4.72848">
        <ele>336</ele>
        <time>2024-05-08T11:57:55Z</time>
      </trkpt>
      <trkpt lat="49.86278" lon="4.72849">
        <ele>336</ele>
        <time>2024-05-08T11:57:56Z</time>
      </trkpt>
      <trkpt lat="49.86277" lon="4.7285">
        <ele>336</ele>
        <time>2024-05-08T11:57:57Z</time>
      </trkpt>
      <trkpt lat="49.86276" lon="4.72852">
        <ele>336</ele>
        <time>2024-05-08T11:57:58Z</time>
      </trkpt>
      <trkpt lat="49.86276" lon="4.72853">
        <ele>336</ele>
        <time>2024-05-08T11:57:59Z</time>
      </trkpt>
      <trkpt lat="49.86275" lon="4.72854">
        <ele>336</ele>
        <time>2024-05-08T11:58:00Z</time>
      </trkpt>
      <trkpt lat="49.86274" lon="4.72855">
        <ele>336</ele>
        <time>2024-05-08T11:58:01Z</time>
      </trkpt>
      <trkpt lat="49.86273" lon="4.72856">
        <ele>336</ele>
        <time>2024-05-08T11:58:02Z</time>
      </trkpt>
      <trkpt lat="49.86272" lon="4.72856">
        <ele>336</ele>
        <time>2024-05-08T11:58:03Z</time>
      </trkpt>
      <trkpt lat="49.86271" lon="4.72857">
        <ele>336</ele>
        <time>2024-05-08T11:58:04Z</time>
      </trkpt>
      <trkpt lat="49.8627" lon="4.72858">
        <ele>336</ele>
        <time>2024-05-08T11:58:05Z</time>
      </trkpt>
      <trkpt lat="49.86269" lon="4.72858">
        <ele>337</ele>
        <time>2024-05-08T11:58:06Z</time>
      </trkpt>
      <trkpt lat="49.86268" lon="4.72859">
        <ele>337</ele>
        <time>2024-05-08T11:58:07Z</time>
      </trkpt>
      <trkpt lat="49.86267" lon="4.72859">
        <ele>337</ele>
        <time>2024-05-08T11:58:08Z</time>
      </trkpt>
      <trkpt lat="49.86266" lon="4.7286">
        <ele>337</ele>
        <time>2024-05-08T11:58:09Z</time>
      </trkpt>
      <trkpt lat="49.86265" lon="4.7286">
        <ele>337</ele>
        <time>2024-05-08T11:58:10Z</time>
      </trkpt>
      <trkpt lat="49.86264" lon="4.72861">
        <ele>337</ele>
        <time>2024-05-08T11:58:11Z</time>
      </trkpt>
      <trkpt lat="49.86262" lon="4.72862">
        <ele>337</ele>
        <time>2024-05-08T11:58:12Z</time>
      </trkpt>
      <trkpt lat="49.86261" lon="4.72862">
        <ele>337</ele>
        <time>2024-05-08T11:58:13Z</time>
      </trkpt>
      <trkpt lat="49.8626" lon="4.72863">
        <ele>337</ele>
        <time>2024-05-08T11:58:14Z</time>
      </trkpt>
      <trkpt lat="49.86259" lon="4.72863">
        <ele>337</ele>
        <time>2024-05-08T11:58:15Z</time>
      </trkpt>
      <trkpt lat="49.86258" lon="4.72863">
        <ele>338</ele>
        <time>2024-05-08T11:58:16Z</time>
      </trkpt>
      <trkpt lat="49.86257" lon="4.72864">
        <ele>338</ele>
        <time>2024-05-08T11:58:17Z</time>
      </trkpt>
      <trkpt lat="49.86256" lon="4.72864">
        <ele>338</ele>
        <time>2024-05-08T11:58:18Z</time>
      </trkpt>
      <trkpt lat="49.86255" lon="4.72865">
        <ele>338</ele>
        <time>2024-05-08T11:58:19Z</time>
      </trkpt>
      <trkpt lat="49.86253" lon="4.72866">
        <ele>338</ele>
        <time>2024-05-08T11:58:20Z</time>
      </trkpt>
      <trkpt lat="49.86252" lon="4.72867">
        <ele>338</ele>
        <time>2024-05-08T11:58:21Z</time>
      </trkpt>
      <trkpt lat="49.86251" lon="4.72868">
        <ele>338</ele>
        <time>2024-05-08T11:58:22Z</time>
      </trkpt>
      <trkpt lat="49.8625" lon="4.72869">
        <ele>338</ele>
        <time>2024-05-08T11:58:23Z</time>
      </trkpt>
      <trkpt lat="49.86249" lon="4.7287">
        <ele>338</ele>
        <time>2024-05-08T11:58:24Z</time>
      </trkpt>
      <trkpt lat="49.86248" lon="4.72871">
        <ele>338</ele>
        <time>2024-05-08T11:58:25Z</time>
      </trkpt>
      <trkpt lat="49.86247" lon="4.72871">
        <ele>338</ele>
        <time>2024-05-08T11:58:26Z</time>
      </trkpt>
      <trkpt lat="49.86246" lon="4.72872">
        <ele>338</ele>
        <time>2024-05-08T11:58:27Z</time>
      </trkpt>
      <trkpt lat="49.86245" lon="4.72872">
        <ele>338</ele>
        <time>2024-05-08T11:58:28Z</time>
      </trkpt>
      <trkpt lat="49.86244" lon="4.72872">
        <ele>338</ele>
        <time>2024-05-08T11:58:29Z</time>
      </trkpt>
      <trkpt lat="49.86243" lon="4.72873">
        <ele>338</ele>
        <time>2024-05-08T11:58:30Z</time>
      </trkpt>
      <trkpt lat="49.86242" lon="4.72873">
        <ele>339</ele>
        <time>2024-05-08T11:58:31Z</time>
      </trkpt>
      <trkpt lat="49.86241" lon="4.72873">
        <ele>339</ele>
        <time>2024-05-08T11:58:32Z</time>
      </trkpt>
      <trkpt lat="49.8624" lon="4.72873">
        <ele>339</ele>
        <time>2024-05-08T11:58:33Z</time>
      </trkpt>
      <trkpt lat="49.86239" lon="4.72873">
        <ele>339</ele>
        <time>2024-05-08T11:58:34Z</time>
      </trkpt>
      <trkpt lat="49.86238" lon="4.72873">
        <ele>339</ele>
        <time>2024-05-08T11:58:35Z</time>
      </trkpt>
      <trkpt lat="49.86237" lon="4.72874">
        <ele>339</ele>
        <time>2024-05-08T11:58:36Z</time>
      </trkpt>
      <trkpt lat="49.86235" lon="4.72874">
        <ele>339</ele>
        <time>2024-05-08T11:58:37Z</time>
      </trkpt>
      <trkpt lat="49.86234" lon="4.72874">
        <ele>339</ele>
        <time>2024-05-08T11:58:38Z</time>
      </trkpt>
      <trkpt lat="49.86233" lon="4.72875">
        <ele>339</ele>
        <time>2024-05-08T11:58:39Z</time>
      </trkpt>
      <trkpt lat="49.86232" lon="4.72876">
        <ele>339</ele>
        <time>2024-05-08T11:58:40Z</time>
      </trkpt>
      <trkpt lat="49.86231" lon="4.72877">
        <ele>339</ele>
        <time>2024-05-08T11:58:41Z</time>
      </trkpt>
      <trkpt lat="49.8623" lon="4.72878">
        <ele>339</ele>
        <time>2024-05-08T11:58:42Z</time>
      </trkpt>
      <trkpt lat="49.86229" lon="4.72878">
        <ele>339</ele>
        <time>2024-05-08T11:58:43Z</time>
      </trkpt>
      <trkpt lat="49.86227" lon="4.72879">
        <ele>339</ele>
        <time>2024-05-08T11:58:44Z</time>
      </trkpt>
      <trkpt lat="49.86226" lon="4.7288">
        <ele>339</ele>
        <time>2024-05-08T11:58:45Z</time>
      </trkpt>
      <trkpt lat="49.86225" lon="4.7288">
        <ele>339</ele>
        <time>2024-05-08T11:58:46Z</time>
      </trkpt>
      <trkpt lat="49.86224" lon="4.72881">
        <ele>339</ele>
        <time>2024-05-08T11:58:47Z</time>
      </trkpt>
      <trkpt lat="49.86223" lon="4.72881">
        <ele>339</ele>
        <time>2024-05-08T11:58:48Z</time>
      </trkpt>
      <trkpt lat="49.86222" lon="4.72882">
        <ele>339</ele>
        <time>2024-05-08T11:58:49Z</time>
      </trkpt>
      <trkpt lat="49.86221" lon="4.72882">
        <ele>339</ele>
        <time>2024-05-08T11:58:50Z</time>
      </trkpt>
      <trkpt lat="49.8622" lon="4.72882">
        <ele>340</ele>
        <time>2024-05-08T11:58:51Z</time>
      </trkpt>
      <trkpt lat="49.86219" lon="4.72883">
        <ele>340</ele>
        <time>2024-05-08T11:58:52Z</time>
      </trkpt>
      <trkpt lat="49.86218" lon="4.72883">
        <ele>340</ele>
        <time>2024-05-08T11:58:53Z</time>
      </trkpt>
      <trkpt lat="49.86217" lon="4.72884">
        <ele>340</ele>
        <time>2024-05-08T11:58:54Z</time>
      </trkpt>
      <trkpt lat="49.86216" lon="4.72884">
        <ele>340</ele>
        <time>2024-05-08T11:58:55Z</time>
      </trkpt>
      <trkpt lat="49.86215" lon="4.72885">
        <ele>340</ele>
        <time>2024-05-08T11:58:56Z</time>
      </trkpt>
      <trkpt lat="49.86214" lon="4.72886">
        <ele>340</ele>
        <time>2024-05-08T11:58:57Z</time>
      </trkpt>
      <trkpt lat="49.86213" lon="4.72887">
        <ele>340</ele>
        <time>2024-05-08T11:58:58Z</time>
      </trkpt>
      <trkpt lat="49.86212" lon="4.72888">
        <ele>340</ele>
        <time>2024-05-08T11:58:59Z</time>
      </trkpt>
      <trkpt lat="49.8621" lon="4.72889">
        <ele>340</ele>
        <time>2024-05-08T11:59:00Z</time>
      </trkpt>
      <trkpt lat="49.86209" lon="4.7289">
        <ele>340</ele>
        <time>2024-05-08T11:59:01Z</time>
      </trkpt>
      <trkpt lat="49.86208" lon="4.72891">
        <ele>340</ele>
        <time>2024-05-08T11:59:02Z</time>
      </trkpt>
      <trkpt lat="49.86207" lon="4.72892">
        <ele>340</ele>
        <time>2024-05-08T11:59:03Z</time>
      </trkpt>
      <trkpt lat="49.86206" lon="4.72893">
        <ele>340</ele>
        <time>2024-05-08T11:59:04Z</time>
      </trkpt>
      <trkpt lat="49.86205" lon="4.72894">
        <ele>340</ele>
        <time>2024-05-08T11:59:05Z</time>
      </trkpt>
      <trkpt lat="49.86204" lon="4.72895">
        <ele>340</ele>
        <time>2024-05-08T11:59:06Z</time>
      </trkpt>
      <trkpt lat="49.86203" lon="4.72895">
        <ele>339</ele>
        <time>2024-05-08T11:59:07Z</time>
      </trkpt>
      <trkpt lat="49.86201" lon="4.72896">
        <ele>339</ele>
        <time>2024-05-08T11:59:08Z</time>
      </trkpt>
      <trkpt lat="49.862" lon="4.72897">
        <ele>339</ele>
        <time>2024-05-08T11:59:09Z</time>
      </trkpt>
      <trkpt lat="49.86199" lon="4.72897">
        <ele>339</ele>
        <time>2024-05-08T11:59:10Z</time>
      </trkpt>
      <trkpt lat="49.86198" lon="4.72898">
        <ele>339</ele>
        <time>2024-05-08T11:59:11Z</time>
      </trkpt>
      <trkpt lat="49.86197" lon="4.72898">
        <ele>339</ele>
        <time>2024-05-08T11:59:12Z</time>
      </trkpt>
      <trkpt lat="49.86196" lon="4.72899">
        <ele>339</ele>
        <time>2024-05-08T11:59:13Z</time>
      </trkpt>
      <trkpt lat="49.86195" lon="4.72899">
        <ele>339</ele>
        <time>2024-05-08T11:59:14Z</time>
      </trkpt>
      <trkpt lat="49.86194" lon="4.729">
        <ele>339</ele>
        <time>2024-05-08T11:59:15Z</time>
      </trkpt>
      <trkpt lat="49.86193" lon="4.72901">
        <ele>339</ele>
        <time>2024-05-08T11:59:16Z</time>
      </trkpt>
      <trkpt lat="49.86191" lon="4.72902">
        <ele>338</ele>
        <time>2024-05-08T11:59:17Z</time>
      </trkpt>
      <trkpt lat="49.8619" lon="4.72903">
        <ele>338</ele>
        <time>2024-05-08T11:59:18Z</time>
      </trkpt>
      <trkpt lat="49.86189" lon="4.72903">
        <ele>338</ele>
        <time>2024-05-08T11:59:19Z</time>
      </trkpt>
      <trkpt lat="49.86188" lon="4.72904">
        <ele>338</ele>
        <time>2024-05-08T11:59:20Z</time>
      </trkpt>
      <trkpt lat="49.86186" lon="4.72905">
        <ele>338</ele>
        <time>2024-05-08T11:59:21Z</time>
      </trkpt>
      <trkpt lat="49.86185" lon="4.72905">
        <ele>337</ele>
        <time>2024-05-08T11:59:22Z</time>
      </trkpt>
      <trkpt lat="49.86184" lon="4.72906">
        <ele>337</ele>
        <time>2024-05-08T11:59:23Z</time>
      </trkpt>
      <trkpt lat="49.86183" lon="4.72906">
        <ele>337</ele>
        <time>2024-05-08T11:59:24Z</time>
      </trkpt>
      <trkpt lat="49.86181" lon="4.72907">
        <ele>337</ele>
        <time>2024-05-08T11:59:25Z</time>
      </trkpt>
      <trkpt lat="49.8618" lon="4.72907">
        <ele>337</ele>
        <time>2024-05-08T11:59:26Z</time>
      </trkpt>
      <trkpt lat="49.86178" lon="4.72908">
        <ele>337</ele>
        <time>2024-05-08T11:59:27Z</time>
      </trkpt>
      <trkpt lat="49.86177" lon="4.72909">
        <ele>337</ele>
        <time>2024-05-08T11:59:28Z</time>
      </trkpt>
      <trkpt lat="49.86175" lon="4.7291">
        <ele>337</ele>
        <time>2024-05-08T11:59:29Z</time>
      </trkpt>
      <trkpt lat="49.86174" lon="4.7291">
        <ele>337</ele>
        <time>2024-05-08T11:59:30Z</time>
      </trkpt>
      <trkpt lat="49.86173" lon="4.72911">
        <ele>337</ele>
        <time>2024-05-08T11:59:31Z</time>
      </trkpt>
      <trkpt lat="49.86172" lon="4.72911">
        <ele>337</ele>
        <time>2024-05-08T11:59:32Z</time>
      </trkpt>
      <trkpt lat="49.8617" lon="4.72912">
        <ele>337</ele>
        <time>2024-05-08T11:59:33Z</time>
      </trkpt>
      <trkpt lat="49.86169" lon="4.72912">
        <ele>337</ele>
        <time>2024-05-08T11:59:34Z</time>
      </trkpt>
      <trkpt lat="49.86168" lon="4.72912">
        <ele>337</ele>
        <time>2024-05-08T11:59:35Z</time>
      </trkpt>
      <trkpt lat="49.86167" lon="4.72912">
        <ele>337</ele>
        <time>2024-05-08T11:59:36Z</time>
      </trkpt>
      <trkpt lat="49.86166" lon="4.72912">
        <ele>336</ele>
        <time>2024-05-08T11:59:37Z</time>
      </trkpt>
      <trkpt lat="49.86165" lon="4.72912">
        <ele>336</ele>
        <time>2024-05-08T11:59:38Z</time>
      </trkpt>
      <trkpt lat="49.86163" lon="4.72912">
        <ele>336</ele>
        <time>2024-05-08T11:59:39Z</time>
      </trkpt>
      <trkpt lat="49.86162" lon="4.72912">
        <ele>336</ele>
        <time>2024-05-08T11:59:40Z</time>
      </trkpt>
      <trkpt lat="49.86161" lon="4.72913">
        <ele>336</ele>
        <time>2024-05-08T11:59:41Z</time>
      </trkpt>
      <trkpt lat="49.8616" lon="4.72914">
        <ele>336</ele>
        <time>2024-05-08T11:59:42Z</time>
      </trkpt>
      <trkpt lat="49.86158" lon="4.72914">
        <ele>336</ele>
        <time>2024-05-08T11:59:43Z</time>
      </trkpt>
      <trkpt lat="49.86157" lon="4.72915">
        <ele>336</ele>
        <time>2024-05-08T11:59:44Z</time>
      </trkpt>
      <trkpt lat="49.86156" lon="4.72916">
        <ele>336</ele>
        <time>2024-05-08T11:59:45Z</time>
      </trkpt>
      <trkpt lat="49.86154" lon="4.72917">
        <ele>336</ele>
        <time>2024-05-08T11:59:46Z</time>
      </trkpt>
      <trkpt lat="49.86153" lon="4.72917">
        <ele>335</ele>
        <time>2024-05-08T11:59:47Z</time>
      </trkpt>
      <trkpt lat="49.86152" lon="4.72917">
        <ele>335</ele>
        <time>2024-05-08T11:59:48Z</time>
      </trkpt>
      <trkpt lat="49.8615" lon="4.72917">
        <ele>335</ele>
        <time>2024-05-08T11:59:49Z</time>
      </trkpt>
      <trkpt lat="49.86149" lon="4.72917">
        <ele>335</ele>
        <time>2024-05-08T11:59:50Z</time>
      </trkpt>
      <trkpt lat="49.86149" lon="4.72917">
        <ele>335</ele>
        <time>2024-05-08T11:59:51Z</time>
      </trkpt>
      <trkpt lat="49.86148" lon="4.72917">
        <ele>335</ele>
        <time>2024-05-08T11:59:52Z</time>
      </trkpt>
      <trkpt lat="49.86147" lon="4.72917">
        <ele>335</ele>
        <time>2024-05-08T11:59:53Z</time>
      </trkpt>
      <trkpt lat="49.86146" lon="4.72917">
        <ele>335</ele>
        <time>2024-05-08T11:59:54Z</time>
      </trkpt>
      <trkpt lat="49.86145" lon="4.72918">
        <ele>335</ele>
        <time>2024-05-08T11:59:55Z</time>
      </trkpt>
      <trkpt lat="49.86144" lon="4.72918">
        <ele>335</ele>
        <time>2024-05-08T11:59:56Z</time>
      </trkpt>
      <trkpt lat="49.86143" lon="4.72918">
        <ele>335</ele>
        <time>2024-05-08T11:59:57Z</time>
      </trkpt>
      <trkpt lat="49.86142" lon="4.72919">
        <ele>335</ele>
        <time>2024-05-08T11:59:58Z</time>
      </trkpt>
      <trkpt lat="49.86142" lon="4.72919">
        <ele>335</ele>
        <time>2024-05-08T11:59:59Z</time>
      </trkpt>
      <trkpt lat="49.86141" lon="4.7292">
        <ele>335</ele>
        <time>2024-05-08T12:00:00Z</time>
      </trkpt>
      <trkpt lat="49.8614" lon="4.7292">
        <ele>335</ele>
        <time>2024-05-08T12:00:01Z</time>
      </trkpt>
      <trkpt lat="49.86139" lon="4.72921">
        <ele>334</ele>
        <time>2024-05-08T12:00:02Z</time>
      </trkpt>
      <trkpt lat="49.86138" lon="4.72922">
        <ele>334</ele>
        <time>2024-05-08T12:00:03Z</time>
      </trkpt>
      <trkpt lat="49.86137" lon="4.72923">
        <ele>334</ele>
        <time>2024-05-08T12:00:04Z</time>
      </trkpt>
      <trkpt lat="49.86136" lon="4.72924">
        <ele>334</ele>
        <time>2024-05-08T12:00:05Z</time>
      </trkpt>
      <trkpt lat="49.86135" lon="4.72925">
        <ele>334</ele>
        <time>2024-05-08T12:00:06Z</time>
      </trkpt>
      <trkpt lat="49.86134" lon="4.72926">
        <ele>333</ele>
        <time>2024-05-08T12:00:07Z</time>
      </trkpt>
      <trkpt lat="49.86133" lon="4.72927">
        <ele>333</ele>
        <time>2024-05-08T12:00:08Z</time>
      </trkpt>
      <trkpt lat="49.86132" lon="4.72928">
        <ele>333</ele>
        <time>2024-05-08T12:00:09Z</time>
      </trkpt>
      <trkpt lat="49.86131" lon="4.72928">
        <ele>333</ele>
        <time>2024-05-08T12:00:10Z</time>
      </trkpt>
      <trkpt lat="49.8613" lon="4.72929">
        <ele>333</ele>
        <time>2024-05-08T12:00:11Z</time>
      </trkpt>
      <trkpt lat="49.86129" lon="4.7293">
        <ele>332</ele>
        <time>2024-05-08T12:00:12Z</time>
      </trkpt>
      <trkpt lat="49.86128" lon="4.72931">
        <ele>332</ele>
        <time>2024-05-08T12:00:13Z</time>
      </trkpt>
      <trkpt lat="49.86127" lon="4.72932">
        <ele>332</ele>
        <time>2024-05-08T12:00:14Z</time>
      </trkpt>
      <trkpt lat="49.86126" lon="4.72933">
        <ele>332</ele>
        <time>2024-05-08T12:00:15Z</time>
      </trkpt>
      <trkpt lat="49.86124" lon="4.72934">
        <ele>332</ele>
        <time>2024-05-08T12:00:16Z</time>
      </trkpt>
      <trkpt lat="49.86123" lon="4.72934">
        <ele>332</ele>
        <time>2024-05-08T12:00:17Z</time>
      </trkpt>
      <trkpt lat="49.86122" lon="4.72935">
        <ele>332</ele>
        <time>2024-05-08T12:00:18Z</time>
      </trkpt>
      <trkpt lat="49.86121" lon="4.72935">
        <ele>332</ele>
        <time>2024-05-08T12:00:19Z</time>
      </trkpt>
      <trkpt lat="49.8612" lon="4.72935">
        <ele>332</ele>
        <time>2024-05-08T12:00:20Z</time>
      </trkpt>
      <trkpt lat="49.86119" lon="4.72935">
        <ele>333</ele>
        <time>2024-05-08T12:00:21Z</time>
      </trkpt>
      <trkpt lat="49.86118" lon="4.72935">
        <ele>333</ele>
        <time>2024-05-08T12:00:22Z</time>
      </trkpt>
      <trkpt lat="49.86117" lon="4.72935">
        <ele>333</ele>
        <time>2024-05-08T12:00:23Z</time>
      </trkpt>
      <trkpt lat="49.86116" lon="4.72935">
        <ele>333</ele>
        <time>2024-05-08T12:00:24Z</time>
      </trkpt>
      <trkpt lat="49.86115" lon="4.72935">
        <ele>333</ele>
        <time>2024-05-08T12:00:25Z</time>
      </trkpt>
      <trkpt lat="49.86114" lon="4.72935">
        <ele>333</ele>
        <time>2024-05-08T12:00:26Z</time>
      </trkpt>
      <trkpt lat="49.86113" lon="4.72936">
        <ele>333</ele>
        <time>2024-05-08T12:00:27Z</time>
      </trkpt>
      <trkpt lat="49.86112" lon="4.72936">
        <ele>333</ele>
        <time>2024-05-08T12:00:28Z</time>
      </trkpt>
      <trkpt lat="49.86111" lon="4.72937">
        <ele>333</ele>
        <time>2024-05-08T12:00:29Z</time>
      </trkpt>
      <trkpt lat="49.86111" lon="4.72937">
        <ele>333</ele>
        <time>2024-05-08T12:00:30Z</time>
      </trkpt>
      <trkpt lat="49.8611" lon="4.72938">
        <ele>333</ele>
        <time>2024-05-08T12:00:31Z</time>
      </trkpt>
      <trkpt lat="49.86109" lon="4.72939">
        <ele>332</ele>
        <time>2024-05-08T12:00:32Z</time>
      </trkpt>
      <trkpt lat="49.86108" lon="4.72939">
        <ele>332</ele>
        <time>2024-05-08T12:00:33Z</time>
      </trkpt>
      <trkpt lat="49.86108" lon="4.7294">
        <ele>332</ele>
        <time>2024-05-08T12:00:34Z</time>
      </trkpt>
      <trkpt lat="49.86107" lon="4.72941">
        <ele>332</ele>
        <time>2024-05-08T12:00:35Z</time>
      </trkpt>
      <trkpt lat="49.86107" lon="4.72941">
        <ele>332</ele>
        <time>2024-05-08T12:00:36Z</time>
      </trkpt>
      <trkpt lat="49.86106" lon="4.72942">
        <ele>331</ele>
        <time>2024-05-08T12:00:37Z</time>
      </trkpt>
      <trkpt lat="49.86106" lon="4.72943">
        <ele>331</ele>
        <time>2024-05-08T12:00:38Z</time>
      </trkpt>
      <trkpt lat="49.86105" lon="4.72944">
        <ele>331</ele>
        <time>2024-05-08T12:00:39Z</time>
      </trkpt>
      <trkpt lat="49.86104" lon="4.72945">
        <ele>331</ele>
        <time>2024-05-08T12:00:40Z</time>
      </trkpt>
      <trkpt lat="49.86103" lon="4.72946">
        <ele>331</ele>
        <time>2024-05-08T12:00:41Z</time>
      </trkpt>
      <trkpt lat="49.86102" lon="4.72947">
        <ele>331</ele>
        <time>2024-05-08T12:00:42Z</time>
      </trkpt>
      <trkpt lat="49.86101" lon="4.72947">
        <ele>331</ele>
        <time>2024-05-08T12:00:43Z</time>
      </trkpt>
      <trkpt lat="49.861" lon="4.72948">
        <ele>331</ele>
        <time>2024-05-08T12:00:44Z</time>
      </trkpt>
      <trkpt lat="49.86099" lon="4.72948">
        <ele>331</ele>
        <time>2024-05-08T12:00:45Z</time>
      </trkpt>
      <trkpt lat="49.86098" lon="4.72948">
        <ele>331</ele>
        <time>2024-05-08T12:00:46Z</time>
      </trkpt>
      <trkpt lat="49.86097" lon="4.72948">
        <ele>331</ele>
        <time>2024-05-08T12:00:47Z</time>
      </trkpt>
      <trkpt lat="49.86096" lon="4.72949">
        <ele>331</ele>
        <time>2024-05-08T12:00:48Z</time>
      </trkpt>
      <trkpt lat="49.86095" lon="4.72948">
        <ele>331</ele>
        <time>2024-05-08T12:00:49Z</time>
      </trkpt>
      <trkpt lat="49.86094" lon="4.72948">
        <ele>331</ele>
        <time>2024-05-08T12:00:50Z</time>
      </trkpt>
      <trkpt lat="49.86093" lon="4.72948">
        <ele>332</ele>
        <time>2024-05-08T12:00:51Z</time>
      </trkpt>
      <trkpt lat="49.86093" lon="4.72948">
        <ele>332</ele>
        <time>2024-05-08T12:00:52Z</time>
      </trkpt>
      <trkpt lat="49.86092" lon="4.72948">
        <ele>332</ele>
        <time>2024-05-08T12:00:53Z</time>
      </trkpt>
      <trkpt lat="49.86091" lon="4.72948">
        <ele>332</ele>
        <time>2024-05-08T12:00:54Z</time>
      </trkpt>
      <trkpt lat="49.8609" lon="4.72948">
        <ele>332</ele>
        <time>2024-05-08T12:00:55Z</time>
      </trkpt>
      <trkpt lat="49.86089" lon="4.72949">
        <ele>333</ele>
        <time>2024-05-08T12:00:56Z</time>
      </trkpt>
      <trkpt lat="49.86088" lon="4.72949">
        <ele>333</ele>
        <time>2024-05-08T12:00:57Z</time>
      </trkpt>
      <trkpt lat="49.86087" lon="4.72949">
        <ele>333</ele>
        <time>2024-05-08T12:00:58Z</time>
      </trkpt>
      <trkpt lat="49.86086" lon="4.72949">
        <ele>333</ele>
        <time>2024-05-08T12:00:59Z</time>
      </trkpt>
      <trkpt lat="49.86086" lon="4.72949">
        <ele>333</ele>
        <time>2024-05-08T12:01:00Z</time>
      </trkpt>
      <trkpt lat="49.86085" lon="4.7295">
        <ele>334</ele>
        <time>2024-05-08T12:01:01Z</time>
      </trkpt>
      <trkpt lat="49.86084" lon="4.7295">
        <ele>334</ele>
        <time>2024-05-08T12:01:02Z</time>
      </trkpt>
      <trkpt lat="49.86084" lon="4.72951">
        <ele>334</ele>
        <time>2024-05-08T12:01:03Z</time>
      </trkpt>
      <trkpt lat="49.86083" lon="4.72951">
        <ele>334</ele>
        <time>2024-05-08T12:01:04Z</time>
      </trkpt>
      <trkpt lat="49.86082" lon="4.72952">
        <ele>334</ele>
        <time>2024-05-08T12:01:05Z</time>
      </trkpt>
      <trkpt lat="49.86082" lon="4.72953">
        <ele>334</ele>
        <time>2024-05-08T12:01:06Z</time>
      </trkpt>
      <trkpt lat="49.86081" lon="4.72954">
        <ele>333</ele>
        <time>2024-05-08T12:01:07Z</time>
      </trkpt>
      <trkpt lat="49.8608" lon="4.72955">
        <ele>333</ele>
        <time>2024-05-08T12:01:08Z</time>
      </trkpt>
      <trkpt lat="49.86079" lon="4.72956">
        <ele>333</ele>
        <time>2024-05-08T12:01:09Z</time>
      </trkpt>
      <trkpt lat="49.86079" lon="4.72957">
        <ele>333</ele>
        <time>2024-05-08T12:01:10Z</time>
      </trkpt>
      <trkpt lat="49.86079" lon="4.72957">
        <ele>333</ele>
        <time>2024-05-08T12:01:11Z</time>
      </trkpt>
      <trkpt lat="49.86078" lon="4.72958">
        <ele>332</ele>
        <time>2024-05-08T12:01:12Z</time>
      </trkpt>
      <trkpt lat="49.86078" lon="4.72959">
        <ele>332</ele>
        <time>2024-05-08T12:01:13Z</time>
      </trkpt>
      <trkpt lat="49.86077" lon="4.7296">
        <ele>332</ele>
        <time>2024-05-08T12:01:14Z</time>
      </trkpt>
      <trkpt lat="49.86077" lon="4.7296">
        <ele>332</ele>
        <time>2024-05-08T12:01:15Z</time>
      </trkpt>
      <trkpt lat="49.86076" lon="4.72961">
        <ele>332</ele>
        <time>2024-05-08T12:01:16Z</time>
      </trkpt>
      <trkpt lat="49.86075" lon="4.72962">
        <ele>331</ele>
        <time>2024-05-08T12:01:17Z</time>
      </trkpt>
      <trkpt lat="49.86075" lon="4.72963">
        <ele>331</ele>
        <time>2024-05-08T12:01:18Z</time>
      </trkpt>
      <trkpt lat="49.86074" lon="4.72963">
        <ele>331</ele>
        <time>2024-05-08T12:01:19Z</time>
      </trkpt>
      <trkpt lat="49.86073" lon="4.72964">
        <ele>331</ele>
        <time>2024-05-08T12:01:20Z</time>
      </trkpt>
      <trkpt lat="49.86073" lon="4.72964">
        <ele>331</ele>
        <time>2024-05-08T12:01:21Z</time>
      </trkpt>
      <trkpt lat="49.86072" lon="4.72965">
        <ele>331</ele>
        <time>2024-05-08T12:01:22Z</time>
      </trkpt>
      <trkpt lat="49.86071" lon="4.72965">
        <ele>331</ele>
        <time>2024-05-08T12:01:23Z</time>
      </trkpt>
      <trkpt lat="49.8607" lon="4.72966">
        <ele>331</ele>
        <time>2024-05-08T12:01:24Z</time>
      </trkpt>
      <trkpt lat="49.86069" lon="4.72966">
        <ele>331</ele>
        <time>2024-05-08T12:01:25Z</time>
      </trkpt>
      <trkpt lat="49.86068" lon="4.72967">
        <ele>332</ele>
        <time>2024-05-08T12:01:26Z</time>
      </trkpt>
      <trkpt lat="49.86067" lon="4.72966">
        <ele>332</ele>
        <time>2024-05-08T12:01:27Z</time>
      </trkpt>
      <trkpt lat="49.86066" lon="4.72966">
        <ele>332</ele>
        <time>2024-05-08T12:01:28Z</time>
      </trkpt>
      <trkpt lat="49.86066" lon="4.72966">
        <ele>332</ele>
        <time>2024-05-08T12:01:29Z</time>
      </trkpt>
      <trkpt lat="49.86065" lon="4.72966">
        <ele>332</ele>
        <time>2024-05-08T12:01:30Z</time>
      </trkpt>
      <trkpt lat="49.86064" lon="4.72965">
        <ele>332</ele>
        <time>2024-05-08T12:01:31Z</time>
      </trkpt>
      <trkpt lat="49.86063" lon="4.72964">
        <ele>332</ele>
        <time>2024-05-08T12:01:32Z</time>
      </trkpt>
      <trkpt lat="49.86062" lon="4.72964">
        <ele>332</ele>
        <time>2024-05-08T12:01:33Z</time>
      </trkpt>
      <trkpt lat="49.86062" lon="4.72964">
        <ele>332</ele>
        <time>2024-05-08T12:01:34Z</time>
      </trkpt>
      <trkpt lat="49.86061" lon="4.72964">
        <ele>332</ele>
        <time>2024-05-08T12:01:35Z</time>
      </trkpt>
      <trkpt lat="49.8606" lon="4.72965">
        <ele>333</ele>
        <time>2024-05-08T12:01:36Z</time>
      </trkpt>
      <trkpt lat="49.8606" lon="4.72965">
        <ele>333</ele>
        <time>2024-05-08T12:01:37Z</time>
      </trkpt>
      <trkpt lat="49.86059" lon="4.72966">
        <ele>333</ele>
        <time>2024-05-08T12:01:38Z</time>
      </trkpt>
      <trkpt lat="49.86058" lon="4.72966">
        <ele>334</ele>
        <time>2024-05-08T12:01:39Z</time>
      </trkpt>
      <trkpt lat="49.86057" lon="4.72967">
        <ele>334</ele>
        <time>2024-05-08T12:01:40Z</time>
      </trkpt>
      <trkpt lat="49.86056" lon="4.72968">
        <ele>336</ele>
        <time>2024-05-08T12:01:49Z</time>
      </trkpt>
      <trkpt lat="49.86056" lon="4.72969">
        <ele>336</ele>
        <time>2024-05-08T12:01:50Z</time>
      </trkpt>
      <trkpt lat="49.86056" lon="4.7297">
        <ele>337</ele>
        <time>2024-05-08T12:01:51Z</time>
      </trkpt>
      <trkpt lat="49.86055" lon="4.72971">
        <ele>337</ele>
        <time>2024-05-08T12:01:52Z</time>
      </trkpt>
      <trkpt lat="49.86055" lon="4.72972">
        <ele>337</ele>
        <time>2024-05-08T12:01:53Z</time>
      </trkpt>
      <trkpt lat="49.86055" lon="4.72973">
        <ele>337</ele>
        <time>2024-05-08T12:01:54Z</time>
      </trkpt>
      <trkpt lat="49.86055" lon="4.72974">
        <ele>337</ele>
        <time>2024-05-08T12:01:55Z</time>
      </trkpt>
      <trkpt lat="49.86054" lon="4.72975">
        <ele>338</ele>
        <time>2024-05-08T12:01:56Z</time>
      </trkpt>
      <trkpt lat="49.86053" lon="4.72976">
        <ele>338</ele>
        <time>2024-05-08T12:01:57Z</time>
      </trkpt>
      <trkpt lat="49.86053" lon="4.72977">
        <ele>338</ele>
        <time>2024-05-08T12:01:58Z</time>
      </trkpt>
      <trkpt lat="49.86052" lon="4.72978">
        <ele>338</ele>
        <time>2024-05-08T12:01:59Z</time>
      </trkpt>
      <trkpt lat="49.86051" lon="4.72978">
        <ele>338</ele>
        <time>2024-05-08T12:02:00Z</time>
      </trkpt>
      <trkpt lat="49.8605" lon="4.72978">
        <ele>338</ele>
        <time>2024-05-08T12:02:01Z</time>
      </trkpt>
      <trkpt lat="49.86049" lon="4.72978">
        <ele>338</ele>
        <time>2024-05-08T12:02:02Z</time>
      </trkpt>
      <trkpt lat="49.86049" lon="4.72977">
        <ele>338</ele>
        <time>2024-05-08T12:02:03Z</time>
      </trkpt>
      <trkpt lat="49.86048" lon="4.72977">
        <ele>338</ele>
        <time>2024-05-08T12:02:04Z</time>
      </trkpt>
      <trkpt lat="49.86047" lon="4.72977">
        <ele>338</ele>
        <time>2024-05-08T12:02:05Z</time>
      </trkpt>
      <trkpt lat="49.86046" lon="4.72976">
        <ele>338</ele>
        <time>2024-05-08T12:02:06Z</time>
      </trkpt>
      <trkpt lat="49.86044" lon="4.72976">
        <ele>338</ele>
        <time>2024-05-08T12:02:07Z</time>
      </trkpt>
      <trkpt lat="49.86043" lon="4.72976">
        <ele>338</ele>
        <time>2024-05-08T12:02:08Z</time>
      </trkpt>
      <trkpt lat="49.86042" lon="4.72976">
        <ele>338</ele>
        <time>2024-05-08T12:02:09Z</time>
      </trkpt>
      <trkpt lat="49.86041" lon="4.72976">
        <ele>338</ele>
        <time>2024-05-08T12:02:10Z</time>
      </trkpt>
      <trkpt lat="49.8604" lon="4.72976">
        <ele>339</ele>
        <time>2024-05-08T12:02:11Z</time>
      </trkpt>
      <trkpt lat="49.86039" lon="4.72977">
        <ele>339</ele>
        <time>2024-05-08T12:02:12Z</time>
      </trkpt>
      <trkpt lat="49.86038" lon="4.72977">
        <ele>339</ele>
        <time>2024-05-08T12:02:13Z</time>
      </trkpt>
      <trkpt lat="49.86038" lon="4.72978">
        <ele>339</ele>
        <time>2024-05-08T12:02:14Z</time>
      </trkpt>
      <trkpt lat="49.86037" lon="4.72978">
        <ele>339</ele>
        <time>2024-05-08T12:02:15Z</time>
      </trkpt>
      <trkpt lat="49.86037" lon="4.72979">
        <ele>339</ele>
        <time>2024-05-08T12:02:16Z</time>
      </trkpt>
      <trkpt lat="49.86036" lon="4.7298">
        <ele>339</ele>
        <time>2024-05-08T12:02:17Z</time>
      </trkpt>
      <trkpt lat="49.86036" lon="4.72981">
        <ele>339</ele>
        <time>2024-05-08T12:02:18Z</time>
      </trkpt>
      <trkpt lat="49.86036" lon="4.72982">
        <ele>339</ele>
        <time>2024-05-08T12:02:19Z</time>
      </trkpt>
      <trkpt lat="49.86035" lon="4.72983">
        <ele>339</ele>
        <time>2024-05-08T12:02:20Z</time>
      </trkpt>
      <trkpt lat="49.86034" lon="4.72985">
        <ele>339</ele>
        <time>2024-05-08T12:02:21Z</time>
      </trkpt>
      <trkpt lat="49.86034" lon="4.72986">
        <ele>338</ele>
        <time>2024-05-08T12:02:22Z</time>
      </trkpt>
      <trkpt lat="49.86033" lon="4.72987">
        <ele>338</ele>
        <time>2024-05-08T12:02:23Z</time>
      </trkpt>
      <trkpt lat="49.86033" lon="4.72988">
        <ele>338</ele>
        <time>2024-05-08T12:02:24Z</time>
      </trkpt>
      <trkpt lat="49.86032" lon="4.72989">
        <ele>338</ele>
        <time>2024-05-08T12:02:25Z</time>
      </trkpt>
      <trkpt lat="49.86031" lon="4.7299">
        <ele>337</ele>
        <time>2024-05-08T12:02:33Z</time>
      </trkpt>
      <trkpt lat="49.8603" lon="4.72991">
        <ele>337</ele>
        <time>2024-05-08T12:02:34Z</time>
      </trkpt>
      <trkpt lat="49.86029" lon="4.72992">
        <ele>337</ele>
        <time>2024-05-08T12:02:35Z</time>
      </trkpt>
      <trkpt lat="49.86029" lon="4.72993">
        <ele>337</ele>
        <time>2024-05-08T12:02:36Z</time>
      </trkpt>
      <trkpt lat="49.86028" lon="4.72993">
        <ele>336</ele>
        <time>2024-05-08T12:02:37Z</time>
      </trkpt>
      <trkpt lat="49.86028" lon="4.72994">
        <ele>336</ele>
        <time>2024-05-08T12:02:38Z</time>
      </trkpt>
      <trkpt lat="49.86027" lon="4.72994">
        <ele>336</ele>
        <time>2024-05-08T12:02:39Z</time>
      </trkpt>
      <trkpt lat="49.86027" lon="4.72995">
        <ele>336</ele>
        <time>2024-05-08T12:02:40Z</time>
      </trkpt>
      <trkpt lat="49.86027" lon="4.72995">
        <ele>336</ele>
        <time>2024-05-08T12:02:41Z</time>
      </trkpt>
      <trkpt lat="49.86026" lon="4.72995">
        <ele>335</ele>
        <time>2024-05-08T12:02:42Z</time>
      </trkpt>
      <trkpt lat="49.86026" lon="4.72995">
        <ele>335</ele>
        <time>2024-05-08T12:02:43Z</time>
      </trkpt>
      <trkpt lat="49.86025" lon="4.72995">
        <ele>335</ele>
        <time>2024-05-08T12:02:44Z</time>
      </trkpt>
      <trkpt lat="49.86025" lon="4.72996">
        <ele>335</ele>
        <time>2024-05-08T12:02:45Z</time>
      </trkpt>
      <trkpt lat="49.86024" lon="4.72996">
        <ele>335</ele>
        <time>2024-05-08T12:02:46Z</time>
      </trkpt>
      <trkpt lat="49.86024" lon="4.72997">
        <ele>334</ele>
        <time>2024-05-08T12:02:47Z</time>
      </trkpt>
      <trkpt lat="49.86023" lon="4.72998">
        <ele>334</ele>
        <time>2024-05-08T12:02:48Z</time>
      </trkpt>
      <trkpt lat="49.86022" lon="4.73">
        <ele>334</ele>
        <time>2024-05-08T12:02:49Z</time>
      </trkpt>
      <trkpt lat="49.86022" lon="4.73001">
        <ele>334</ele>
        <time>2024-05-08T12:02:50Z</time>
      </trkpt>
      <trkpt lat="49.86021" lon="4.73002">
        <ele>334</ele>
        <time>2024-05-08T12:02:51Z</time>
      </trkpt>
      <trkpt lat="49.86021" lon="4.73003">
        <ele>333</ele>
        <time>2024-05-08T12:02:52Z</time>
      </trkpt>
      <trkpt lat="49.8602" lon="4.73005">
        <ele>333</ele>
        <time>2024-05-08T12:02:53Z</time>
      </trkpt>
      <trkpt lat="49.8602" lon="4.73006">
        <ele>332</ele>
        <time>2024-05-08T12:02:54Z</time>
      </trkpt>
      <trkpt lat="49.86019" lon="4.73007">
        <ele>332</ele>
        <time>2024-05-08T12:02:55Z</time>
      </trkpt>
      <trkpt lat="49.86019" lon="4.73008">
        <ele>332</ele>
        <time>2024-05-08T12:02:56Z</time>
      </trkpt>
      <trkpt lat="49.86019" lon="4.73009">
        <ele>331</ele>
        <time>2024-05-08T12:02:57Z</time>
      </trkpt>
      <trkpt lat="49.86018" lon="4.73009">
        <ele>331</ele>
        <time>2024-05-08T12:02:58Z</time>
      </trkpt>
      <trkpt lat="49.86018" lon="4.7301">
        <ele>331</ele>
        <time>2024-05-08T12:02:59Z</time>
      </trkpt>
      <trkpt lat="49.86017" lon="4.7301">
        <ele>331</ele>
        <time>2024-05-08T12:03:00Z</time>
      </trkpt>
      <trkpt lat="49.86016" lon="4.73011">
        <ele>331</ele>
        <time>2024-05-08T12:03:01Z</time>
      </trkpt>
      <trkpt lat="49.86015" lon="4.73011">
        <ele>330</ele>
        <time>2024-05-08T12:03:02Z</time>
      </trkpt>
      <trkpt lat="49.86014" lon="4.73011">
        <ele>330</ele>
        <time>2024-05-08T12:03:03Z</time>
      </trkpt>
      <trkpt lat="49.86013" lon="4.73012">
        <ele>330</ele>
        <time>2024-05-08T12:03:04Z</time>
      </trkpt>
      <trkpt lat="49.86012" lon="4.73013">
        <ele>330</ele>
        <time>2024-05-08T12:03:05Z</time>
      </trkpt>
      <trkpt lat="49.8601" lon="4.73013">
        <ele>330</ele>
        <time>2024-05-08T12:03:06Z</time>
      </trkpt>
      <trkpt lat="49.86009" lon="4.73014">
        <ele>330</ele>
        <time>2024-05-08T12:03:07Z</time>
      </trkpt>
      <trkpt lat="49.86008" lon="4.73015">
        <ele>330</ele>
        <time>2024-05-08T12:03:08Z</time>
      </trkpt>
      <trkpt lat="49.86007" lon="4.73015">
        <ele>330</ele>
        <time>2024-05-08T12:03:09Z</time>
      </trkpt>
      <trkpt lat="49.86006" lon="4.73016">
        <ele>330</ele>
        <time>2024-05-08T12:03:10Z</time>
      </trkpt>
      <trkpt lat="49.86005" lon="4.73017">
        <ele>330</ele>
        <time>2024-05-08T12:03:11Z</time>
      </trkpt>
      <trkpt lat="49.86005" lon="4.73017">
        <ele>330</ele>
        <time>2024-05-08T12:03:12Z</time>
      </trkpt>
      <trkpt lat="49.86004" lon="4.73018">
        <ele>330</ele>
        <time>2024-05-08T12:03:13Z</time>
      </trkpt>
      <trkpt lat="49.86003" lon="4.73019">
        <ele>330</ele>
        <time>2024-05-08T12:03:14Z</time>
      </trkpt>
      <trkpt lat="49.86002" lon="4.73019">
        <ele>330</ele>
        <time>2024-05-08T12:03:15Z</time>
      </trkpt>
      <trkpt lat="49.86001" lon="4.7302">
        <ele>330</ele>
        <time>2024-05-08T12:03:16Z</time>
      </trkpt>
      <trkpt lat="49.86" lon="4.73021">
        <ele>330</ele>
        <time>2024-05-08T12:03:17Z</time>
      </trkpt>
      <trkpt lat="49.85999" lon="4.73022">
        <ele>330</ele>
        <time>2024-05-08T12:03:18Z</time>
      </trkpt>
      <trkpt lat="49.85999" lon="4.73023">
        <ele>330</ele>
        <time>2024-05-08T12:03:19Z</time>
      </trkpt>
      <trkpt lat="49.85998" lon="4.73024">
        <ele>330</ele>
        <time>2024-05-08T12:03:20Z</time>
      </trkpt>
      <trkpt lat="49.85997" lon="4.73024">
        <ele>330</ele>
        <time>2024-05-08T12:03:21Z</time>
      </trkpt>
      <trkpt lat="49.85996" lon="4.73025">
        <ele>330</ele>
        <time>2024-05-08T12:03:22Z</time>
      </trkpt>
      <trkpt lat="49.85995" lon="4.73026">
        <ele>330</ele>
        <time>2024-05-08T12:03:23Z</time>
      </trkpt>
      <trkpt lat="49.85995" lon="4.73027">
        <ele>330</ele>
        <time>2024-05-08T12:03:24Z</time>
      </trkpt>
      <trkpt lat="49.85994" lon="4.73029">
        <ele>330</ele>
        <time>2024-05-08T12:03:25Z</time>
      </trkpt>
      <trkpt lat="49.85993" lon="4.7303">
        <ele>330</ele>
        <time>2024-05-08T12:03:26Z</time>
      </trkpt>
      <trkpt lat="49.85992" lon="4.73031">
        <ele>329</ele>
        <time>2024-05-08T12:03:27Z</time>
      </trkpt>
      <trkpt lat="49.85991" lon="4.73032">
        <ele>329</ele>
        <time>2024-05-08T12:03:28Z</time>
      </trkpt>
      <trkpt lat="49.8599" lon="4.73032">
        <ele>329</ele>
        <time>2024-05-08T12:03:29Z</time>
      </trkpt>
      <trkpt lat="49.85989" lon="4.73033">
        <ele>329</ele>
        <time>2024-05-08T12:03:30Z</time>
      </trkpt>
      <trkpt lat="49.85988" lon="4.73033">
        <ele>329</ele>
        <time>2024-05-08T12:03:31Z</time>
      </trkpt>
      <trkpt lat="49.85987" lon="4.73034">
        <ele>329</ele>
        <time>2024-05-08T12:03:32Z</time>
      </trkpt>
      <trkpt lat="49.85986" lon="4.73034">
        <ele>329</ele>
        <time>2024-05-08T12:03:33Z</time>
      </trkpt>
      <trkpt lat="49.85986" lon="4.73034">
        <ele>329</ele>
        <time>2024-05-08T12:03:34Z</time>
      </trkpt>
      <trkpt lat="49.85985" lon="4.73035">
        <ele>329</ele>
        <time>2024-05-08T12:03:35Z</time>
      </trkpt>
      <trkpt lat="49.85984" lon="4.73035">
        <ele>329</ele>
        <time>2024-05-08T12:03:36Z</time>
      </trkpt>
      <trkpt lat="49.85983" lon="4.73035">
        <ele>329</ele>
        <time>2024-05-08T12:03:37Z</time>
      </trkpt>
      <trkpt lat="49.85981" lon="4.73036">
        <ele>329</ele>
        <time>2024-05-08T12:03:38Z</time>
      </trkpt>
      <trkpt lat="49.8598" lon="4.73037">
        <ele>329</ele>
        <time>2024-05-08T12:03:39Z</time>
      </trkpt>
      <trkpt lat="49.85979" lon="4.73037">
        <ele>329</ele>
        <time>2024-05-08T12:03:40Z</time>
      </trkpt>
      <trkpt lat="49.85978" lon="4.73038">
        <ele>329</ele>
        <time>2024-05-08T12:03:41Z</time>
      </trkpt>
      <trkpt lat="49.85977" lon="4.73039">
        <ele>329</ele>
        <time>2024-05-08T12:03:42Z</time>
      </trkpt>
      <trkpt lat="49.85976" lon="4.7304">
        <ele>329</ele>
        <time>2024-05-08T12:03:43Z</time>
      </trkpt>
      <trkpt lat="49.85975" lon="4.73041">
        <ele>329</ele>
        <time>2024-05-08T12:03:44Z</time>
      </trkpt>
      <trkpt lat="49.85974" lon="4.73042">
        <ele>329</ele>
        <time>2024-05-08T12:03:45Z</time>
      </trkpt>
      <trkpt lat="49.85973" lon="4.73043">
        <ele>329</ele>
        <time>2024-05-08T12:03:46Z</time>
      </trkpt>
      <trkpt lat="49.85972" lon="4.73044">
        <ele>329</ele>
        <time>2024-05-08T12:03:47Z</time>
      </trkpt>
      <trkpt lat="49.85971" lon="4.73046">
        <ele>329</ele>
        <time>2024-05-08T12:03:48Z</time>
      </trkpt>
      <trkpt lat="49.8597" lon="4.73048">
        <ele>329</ele>
        <time>2024-05-08T12:03:49Z</time>
      </trkpt>
      <trkpt lat="49.85969" lon="4.73049">
        <ele>329</ele>
        <time>2024-05-08T12:03:50Z</time>
      </trkpt>
      <trkpt lat="49.85967" lon="4.7305">
        <ele>329</ele>
        <time>2024-05-08T12:03:51Z</time>
      </trkpt>
      <trkpt lat="49.85966" lon="4.73051">
        <ele>329</ele>
        <time>2024-05-08T12:03:52Z</time>
      </trkpt>
      <trkpt lat="49.85965" lon="4.73051">
        <ele>329</ele>
        <time>2024-05-08T12:03:53Z</time>
      </trkpt>
      <trkpt lat="49.85964" lon="4.73052">
        <ele>329</ele>
        <time>2024-05-08T12:03:54Z</time>
      </trkpt>
      <trkpt lat="49.85963" lon="4.73052">
        <ele>329</ele>
        <time>2024-05-08T12:03:55Z</time>
      </trkpt>
      <trkpt lat="49.85962" lon="4.73052">
        <ele>329</ele>
        <time>2024-05-08T12:03:56Z</time>
      </trkpt>
      <trkpt lat="49.85961" lon="4.73053">
        <ele>329</ele>
        <time>2024-05-08T12:03:57Z</time>
      </trkpt>
      <trkpt lat="49.8596" lon="4.73054">
        <ele>329</ele>
        <time>2024-05-08T12:03:58Z</time>
      </trkpt>
      <trkpt lat="49.8596" lon="4.73055">
        <ele>329</ele>
        <time>2024-05-08T12:03:59Z</time>
      </trkpt>
      <trkpt lat="49.85959" lon="4.73056">
        <ele>329</ele>
        <time>2024-05-08T12:04:00Z</time>
      </trkpt>
      <trkpt lat="49.85958" lon="4.73057">
        <ele>329</ele>
        <time>2024-05-08T12:04:01Z</time>
      </trkpt>
      <trkpt lat="49.85958" lon="4.73057">
        <ele>329</ele>
        <time>2024-05-08T12:04:02Z</time>
      </trkpt>
      <trkpt lat="49.85957" lon="4.73058">
        <ele>329</ele>
        <time>2024-05-08T12:04:03Z</time>
      </trkpt>
      <trkpt lat="49.85956" lon="4.73059">
        <ele>329</ele>
        <time>2024-05-08T12:04:04Z</time>
      </trkpt>
      <trkpt lat="49.85955" lon="4.73059">
        <ele>329</ele>
        <time>2024-05-08T12:04:05Z</time>
      </trkpt>
      <trkpt lat="49.85955" lon="4.7306">
        <ele>329</ele>
        <time>2024-05-08T12:04:06Z</time>
      </trkpt>
      <trkpt lat="49.85954" lon="4.7306">
        <ele>329</ele>
        <time>2024-05-08T12:04:07Z</time>
      </trkpt>
      <trkpt lat="49.85953" lon="4.73061">
        <ele>329</ele>
        <time>2024-05-08T12:04:08Z</time>
      </trkpt>
      <trkpt lat="49.85953" lon="4.73062">
        <ele>329</ele>
        <time>2024-05-08T12:04:09Z</time>
      </trkpt>
      <trkpt lat="49.85952" lon="4.73063">
        <ele>329</ele>
        <time>2024-05-08T12:04:10Z</time>
      </trkpt>
      <trkpt lat="49.85952" lon="4.73064">
        <ele>329</ele>
        <time>2024-05-08T12:04:11Z</time>
      </trkpt>
      <trkpt lat="49.85951" lon="4.73065">
        <ele>329</ele>
        <time>2024-05-08T12:04:12Z</time>
      </trkpt>
      <trkpt lat="49.85951" lon="4.73066">
        <ele>329</ele>
        <time>2024-05-08T12:04:13Z</time>
      </trkpt>
      <trkpt lat="49.85951" lon="4.73068">
        <ele>329</ele>
        <time>2024-05-08T12:04:14Z</time>
      </trkpt>
      <trkpt lat="49.8595" lon="4.73069">
        <ele>329</ele>
        <time>2024-05-08T12:04:15Z</time>
      </trkpt>
      <trkpt lat="49.8595" lon="4.73071">
        <ele>329</ele>
        <time>2024-05-08T12:04:16Z</time>
      </trkpt>
      <trkpt lat="49.85949" lon="4.73072">
        <ele>329</ele>
        <time>2024-05-08T12:04:17Z</time>
      </trkpt>
      <trkpt lat="49.85949" lon="4.73073">
        <ele>329</ele>
        <time>2024-05-08T12:04:18Z</time>
      </trkpt>
      <trkpt lat="49.85948" lon="4.73075">
        <ele>329</ele>
        <time>2024-05-08T12:04:19Z</time>
      </trkpt>
      <trkpt lat="49.85948" lon="4.73076">
        <ele>329</ele>
        <time>2024-05-08T12:04:20Z</time>
      </trkpt>
      <trkpt lat="49.85947" lon="4.73077">
        <ele>329</ele>
        <time>2024-05-08T12:04:21Z</time>
      </trkpt>
      <trkpt lat="49.85947" lon="4.73078">
        <ele>329</ele>
        <time>2024-05-08T12:04:22Z</time>
      </trkpt>
      <trkpt lat="49.85946" lon="4.73079">
        <ele>329</ele>
        <time>2024-05-08T12:04:23Z</time>
      </trkpt>
      <trkpt lat="49.85945" lon="4.7308">
        <ele>329</ele>
        <time>2024-05-08T12:04:24Z</time>
      </trkpt>
      <trkpt lat="49.85944" lon="4.7308">
        <ele>329</ele>
        <time>2024-05-08T12:04:25Z</time>
      </trkpt>
      <trkpt lat="49.85944" lon="4.73081">
        <ele>329</ele>
        <time>2024-05-08T12:04:26Z</time>
      </trkpt>
      <trkpt lat="49.85943" lon="4.73082">
        <ele>329</ele>
        <time>2024-05-08T12:04:27Z</time>
      </trkpt>
      <trkpt lat="49.85942" lon="4.73082">
        <ele>329</ele>
        <time>2024-05-08T12:04:28Z</time>
      </trkpt>
      <trkpt lat="49.85941" lon="4.73083">
        <ele>329</ele>
        <time>2024-05-08T12:04:29Z</time>
      </trkpt>
      <trkpt lat="49.8594" lon="4.73083">
        <ele>329</ele>
        <time>2024-05-08T12:04:30Z</time>
      </trkpt>
      <trkpt lat="49.85939" lon="4.73084">
        <ele>329</ele>
        <time>2024-05-08T12:04:31Z</time>
      </trkpt>
      <trkpt lat="49.85938" lon="4.73085">
        <ele>329</ele>
        <time>2024-05-08T12:04:32Z</time>
      </trkpt>
      <trkpt lat="49.85937" lon="4.73085">
        <ele>329</ele>
        <time>2024-05-08T12:04:33Z</time>
      </trkpt>
      <trkpt lat="49.85936" lon="4.73086">
        <ele>329</ele>
        <time>2024-05-08T12:04:34Z</time>
      </trkpt>
      <trkpt lat="49.85935" lon="4.73087">
        <ele>329</ele>
        <time>2024-05-08T12:04:35Z</time>
      </trkpt>
      <trkpt lat="49.85934" lon="4.73088">
        <ele>329</ele>
        <time>2024-05-08T12:04:36Z</time>
      </trkpt>
      <trkpt lat="49.85933" lon="4.73088">
        <ele>329</ele>
        <time>2024-05-08T12:04:37Z</time>
      </trkpt>
      <trkpt lat="49.85932" lon="4.73089">
        <ele>329</ele>
        <time>2024-05-08T12:04:38Z</time>
      </trkpt>
      <trkpt lat="49.85931" lon="4.7309">
        <ele>329</ele>
        <time>2024-05-08T12:04:39Z</time>
      </trkpt>
      <trkpt lat="49.8593" lon="4.73091">
        <ele>329</ele>
        <time>2024-05-08T12:04:40Z</time>
      </trkpt>
      <trkpt lat="49.85929" lon="4.73093">
        <ele>329</ele>
        <time>2024-05-08T12:04:41Z</time>
      </trkpt>
      <trkpt lat="49.85928" lon="4.73094">
        <ele>329</ele>
        <time>2024-05-08T12:04:42Z</time>
      </trkpt>
      <trkpt lat="49.85927" lon="4.73096">
        <ele>329</ele>
        <time>2024-05-08T12:04:43Z</time>
      </trkpt>
      <trkpt lat="49.85927" lon="4.73097">
        <ele>329</ele>
        <time>2024-05-08T12:04:44Z</time>
      </trkpt>
      <trkpt lat="49.85926" lon="4.73098">
        <ele>329</ele>
        <time>2024-05-08T12:04:45Z</time>
      </trkpt>
      <trkpt lat="49.85926" lon="4.73099">
        <ele>329</ele>
        <time>2024-05-08T12:04:46Z</time>
      </trkpt>
      <trkpt lat="49.85925" lon="4.73101">
        <ele>329</ele>
        <time>2024-05-08T12:04:47Z</time>
      </trkpt>
      <trkpt lat="49.85924" lon="4.73102">
        <ele>329</ele>
        <time>2024-05-08T12:04:48Z</time>
      </trkpt>
      <trkpt lat="49.85923" lon="4.73103">
        <ele>329</ele>
        <time>2024-05-08T12:04:49Z</time>
      </trkpt>
      <trkpt lat="49.85922" lon="4.73105">
        <ele>329</ele>
        <time>2024-05-08T12:04:50Z</time>
      </trkpt>
      <trkpt lat="49.85921" lon="4.73106">
        <ele>329</ele>
        <time>2024-05-08T12:04:51Z</time>
      </trkpt>
      <trkpt lat="49.8592" lon="4.73108">
        <ele>329</ele>
        <time>2024-05-08T12:04:52Z</time>
      </trkpt>
      <trkpt lat="49.85919" lon="4.73109">
        <ele>329</ele>
        <time>2024-05-08T12:04:53Z</time>
      </trkpt>
      <trkpt lat="49.85918" lon="4.7311">
        <ele>329</ele>
        <time>2024-05-08T12:04:54Z</time>
      </trkpt>
      <trkpt lat="49.85917" lon="4.73111">
        <ele>329</ele>
        <time>2024-05-08T12:04:55Z</time>
      </trkpt>
      <trkpt lat="49.85916" lon="4.73111">
        <ele>329</ele>
        <time>2024-05-08T12:04:56Z</time>
      </trkpt>
      <trkpt lat="49.85915" lon="4.73112">
        <ele>329</ele>
        <time>2024-05-08T12:04:57Z</time>
      </trkpt>
      <trkpt lat="49.85913" lon="4.73112">
        <ele>329</ele>
        <time>2024-05-08T12:04:58Z</time>
      </trkpt>
      <trkpt lat="49.85912" lon="4.73112">
        <ele>329</ele>
        <time>2024-05-08T12:04:59Z</time>
      </trkpt>
      <trkpt lat="49.85911" lon="4.73112">
        <ele>329</ele>
        <time>2024-05-08T12:05:00Z</time>
      </trkpt>
      <trkpt lat="49.8591" lon="4.73113">
        <ele>329</ele>
        <time>2024-05-08T12:05:01Z</time>
      </trkpt>
      <trkpt lat="49.85909" lon="4.73113">
        <ele>329</ele>
        <time>2024-05-08T12:05:02Z</time>
      </trkpt>
      <trkpt lat="49.85907" lon="4.73113">
        <ele>329</ele>
        <time>2024-05-08T12:05:03Z</time>
      </trkpt>
      <trkpt lat="49.85906" lon="4.73113">
        <ele>329</ele>
        <time>2024-05-08T12:05:04Z</time>
      </trkpt>
      <trkpt lat="49.85905" lon="4.73114">
        <ele>329</ele>
        <time>2024-05-08T12:05:05Z</time>
      </trkpt>
      <trkpt lat="49.85903" lon="4.73113">
        <ele>329</ele>
        <time>2024-05-08T12:05:06Z</time>
      </trkpt>
      <trkpt lat="49.85902" lon="4.73113">
        <ele>329</ele>
        <time>2024-05-08T12:05:07Z</time>
      </trkpt>
      <trkpt lat="49.85901" lon="4.73112">
        <ele>329</ele>
        <time>2024-05-08T12:05:08Z</time>
      </trkpt>
      <trkpt lat="49.85899" lon="4.73111">
        <ele>329</ele>
        <time>2024-05-08T12:05:09Z</time>
      </trkpt>
      <trkpt lat="49.85898" lon="4.7311">
        <ele>329</ele>
        <time>2024-05-08T12:05:10Z</time>
      </trkpt>
      <trkpt lat="49.85896" lon="4.73109">
        <ele>329</ele>
        <time>2024-05-08T12:05:11Z</time>
      </trkpt>
      <trkpt lat="49.85895" lon="4.73108">
        <ele>329</ele>
        <time>2024-05-08T12:05:12Z</time>
      </trkpt>
      <trkpt lat="49.85894" lon="4.73107">
        <ele>329</ele>
        <time>2024-05-08T12:05:13Z</time>
      </trkpt>
      <trkpt lat="49.85892" lon="4.73106">
        <ele>329</ele>
        <time>2024-05-08T12:05:14Z</time>
      </trkpt>
      <trkpt lat="49.85891" lon="4.73105">
        <ele>329</ele>
        <time>2024-05-08T12:05:15Z</time>
      </trkpt>
      <trkpt lat="49.8589" lon="4.73105">
        <ele>329</ele>
        <time>2024-05-08T12:05:16Z</time>
      </trkpt>
      <trkpt lat="49.85889" lon="4.73104">
        <ele>329</ele>
        <time>2024-05-08T12:05:17Z</time>
      </trkpt>
      <trkpt lat="49.85888" lon="4.73104">
        <ele>329</ele>
        <time>2024-05-08T12:05:18Z</time>
      </trkpt>
      <trkpt lat="49.85888" lon="4.73103">
        <ele>329</ele>
        <time>2024-05-08T12:05:19Z</time>
      </trkpt>
      <trkpt lat="49.85887" lon="4.73102">
        <ele>329</ele>
        <time>2024-05-08T12:05:20Z</time>
      </trkpt>
      <trkpt lat="49.85886" lon="4.73101">
        <ele>329</ele>
        <time>2024-05-08T12:05:21Z</time>
      </trkpt>
      <trkpt lat="49.85885" lon="4.731">
        <ele>329</ele>
        <time>2024-05-08T12:05:22Z</time>
      </trkpt>
      <trkpt lat="49.85884" lon="4.73099">
        <ele>329</ele>
        <time>2024-05-08T12:05:23Z</time>
      </trkpt>
      <trkpt lat="49.85883" lon="4.73098">
        <ele>329</ele>
        <time>2024-05-08T12:05:24Z</time>
      </trkpt>
      <trkpt lat="49.85883" lon="4.73096">
        <ele>329</ele>
        <time>2024-05-08T12:05:25Z</time>
      </trkpt>
      <trkpt lat="49.85882" lon="4.73095">
        <ele>329</ele>
        <time>2024-05-08T12:05:26Z</time>
      </trkpt>
      <trkpt lat="49.85881" lon="4.73094">
        <ele>329</ele>
        <time>2024-05-08T12:05:27Z</time>
      </trkpt>
      <trkpt lat="49.85881" lon="4.73094">
        <ele>329</ele>
        <time>2024-05-08T12:05:28Z</time>
      </trkpt>
      <trkpt lat="49.8588" lon="4.73093">
        <ele>329</ele>
        <time>2024-05-08T12:05:29Z</time>
      </trkpt>
      <trkpt lat="49.85879" lon="4.73093">
        <ele>329</ele>
        <time>2024-05-08T12:05:30Z</time>
      </trkpt>
      <trkpt lat="49.85878" lon="4.73093">
        <ele>329</ele>
        <time>2024-05-08T12:05:31Z</time>
      </trkpt>
      <trkpt lat="49.85877" lon="4.73093">
        <ele>328</ele>
        <time>2024-05-08T12:05:32Z</time>
      </trkpt>
      <trkpt lat="49.85876" lon="4.73092">
        <ele>328</ele>
        <time>2024-05-08T12:05:33Z</time>
      </trkpt>
      <trkpt lat="49.85876" lon="4.73092">
        <ele>328</ele>
        <time>2024-05-08T12:05:34Z</time>
      </trkpt>
      <trkpt lat="49.85875" lon="4.73092">
        <ele>328</ele>
        <time>2024-05-08T12:05:35Z</time>
      </trkpt>
      <trkpt lat="49.85875" lon="4.73092">
        <ele>328</ele>
        <time>2024-05-08T12:05:36Z</time>
      </trkpt>
      <trkpt lat="49.85874" lon="4.73093">
        <ele>327</ele>
        <time>2024-05-08T12:05:37Z</time>
      </trkpt>
      <trkpt lat="49.85874" lon="4.73093">
        <ele>327</ele>
        <time>2024-05-08T12:05:38Z</time>
      </trkpt>
      <trkpt lat="49.85873" lon="4.73094">
        <ele>326</ele>
        <time>2024-05-08T12:05:39Z</time>
      </trkpt>
      <trkpt lat="49.85873" lon="4.73095">
        <ele>326</ele>
        <time>2024-05-08T12:05:40Z</time>
      </trkpt>
      <trkpt lat="49.85872" lon="4.73095">
        <ele>326</ele>
        <time>2024-05-08T12:05:41Z</time>
      </trkpt>
      <trkpt lat="49.85872" lon="4.73096">
        <ele>325</ele>
        <time>2024-05-08T12:05:42Z</time>
      </trkpt>
      <trkpt lat="49.85871" lon="4.73097">
        <ele>325</ele>
        <time>2024-05-08T12:05:43Z</time>
      </trkpt>
      <trkpt lat="49.85871" lon="4.73098">
        <ele>325</ele>
        <time>2024-05-08T12:05:44Z</time>
      </trkpt>
      <trkpt lat="49.8587" lon="4.73099">
        <ele>325</ele>
        <time>2024-05-08T12:05:45Z</time>
      </trkpt>
      <trkpt lat="49.8587" lon="4.731">
        <ele>325</ele>
        <time>2024-05-08T12:05:46Z</time>
      </trkpt>
      <trkpt lat="49.8587" lon="4.73101">
        <ele>324</ele>
        <time>2024-05-08T12:05:47Z</time>
      </trkpt>
      <trkpt lat="49.8587" lon="4.73103">
        <ele>324</ele>
        <time>2024-05-08T12:05:48Z</time>
      </trkpt>
      <trkpt lat="49.85869" lon="4.73104">
        <ele>324</ele>
        <time>2024-05-08T12:05:49Z</time>
      </trkpt>
      <trkpt lat="49.85869" lon="4.73104">
        <ele>324</ele>
        <time>2024-05-08T12:05:50Z</time>
      </trkpt>
      <trkpt lat="49.85868" lon="4.73105">
        <ele>324</ele>
        <time>2024-05-08T12:05:51Z</time>
      </trkpt>
      <trkpt lat="49.85868" lon="4.73106">
        <ele>323</ele>
        <time>2024-05-08T12:05:52Z</time>
      </trkpt>
      <trkpt lat="49.85867" lon="4.73106">
        <ele>323</ele>
        <time>2024-05-08T12:05:53Z</time>
      </trkpt>
      <trkpt lat="49.85866" lon="4.73107">
        <ele>323</ele>
        <time>2024-05-08T12:05:54Z</time>
      </trkpt>
      <trkpt lat="49.85865" lon="4.73108">
        <ele>323</ele>
        <time>2024-05-08T12:05:55Z</time>
      </trkpt>
      <trkpt lat="49.85864" lon="4.73108">
        <ele>323</ele>
        <time>2024-05-08T12:05:56Z</time>
      </trkpt>
      <trkpt lat="49.85863" lon="4.73109">
        <ele>322</ele>
        <time>2024-05-08T12:05:57Z</time>
      </trkpt>
      <trkpt lat="49.85862" lon="4.73109">
        <ele>322</ele>
        <time>2024-05-08T12:05:58Z</time>
      </trkpt>
      <trkpt lat="49.8586" lon="4.7311">
        <ele>322</ele>
        <time>2024-05-08T12:05:59Z</time>
      </trkpt>
      <trkpt lat="49.8586" lon="4.73111">
        <ele>322</ele>
        <time>2024-05-08T12:06:00Z</time>
      </trkpt>
      <trkpt lat="49.85859" lon="4.73112">
        <ele>322</ele>
        <time>2024-05-08T12:06:01Z</time>
      </trkpt>
      <trkpt lat="49.85858" lon="4.73114">
        <ele>321</ele>
        <time>2024-05-08T12:06:02Z</time>
      </trkpt>
      <trkpt lat="49.85858" lon="4.73115">
        <ele>321</ele>
        <time>2024-05-08T12:06:03Z</time>
      </trkpt>
      <trkpt lat="49.85858" lon="4.73117">
        <ele>320</ele>
        <time>2024-05-08T12:06:04Z</time>
      </trkpt>
      <trkpt lat="49.85857" lon="4.73118">
        <ele>320</ele>
        <time>2024-05-08T12:06:05Z</time>
      </trkpt>
      <trkpt lat="49.85858" lon="4.7312">
        <ele>320</ele>
        <time>2024-05-08T12:06:06Z</time>
      </trkpt>
      <trkpt lat="49.85858" lon="4.73121">
        <ele>319</ele>
        <time>2024-05-08T12:06:07Z</time>
      </trkpt>
      <trkpt lat="49.85858" lon="4.73122">
        <ele>319</ele>
        <time>2024-05-08T12:06:08Z</time>
      </trkpt>
      <trkpt lat="49.85858" lon="4.73124">
        <ele>319</ele>
        <time>2024-05-08T12:06:09Z</time>
      </trkpt>
      <trkpt lat="49.85859" lon="4.73125">
        <ele>319</ele>
        <time>2024-05-08T12:06:10Z</time>
      </trkpt>
      <trkpt lat="49.85859" lon="4.73126">
        <ele>319</ele>
        <time>2024-05-08T12:06:11Z</time>
      </trkpt>
      <trkpt lat="49.85859" lon="4.73127">
        <ele>318</ele>
        <time>2024-05-08T12:06:12Z</time>
      </trkpt>
      <trkpt lat="49.85859" lon="4.73128">
        <ele>318</ele>
        <time>2024-05-08T12:06:13Z</time>
      </trkpt>
      <trkpt lat="49.85859" lon="4.7313">
        <ele>318</ele>
        <time>2024-05-08T12:06:14Z</time>
      </trkpt>
      <trkpt lat="49.85859" lon="4.73131">
        <ele>318</ele>
        <time>2024-05-08T12:06:15Z</time>
      </trkpt>
      <trkpt lat="49.85858" lon="4.73132">
        <ele>318</ele>
        <time>2024-05-08T12:06:16Z</time>
      </trkpt>
      <trkpt lat="49.85858" lon="4.73133">
        <ele>317</ele>
        <time>2024-05-08T12:06:17Z</time>
      </trkpt>
      <trkpt lat="49.85857" lon="4.73134">
        <ele>317</ele>
        <time>2024-05-08T12:06:18Z</time>
      </trkpt>
      <trkpt lat="49.85857" lon="4.73135">
        <ele>316</ele>
        <time>2024-05-08T12:06:19Z</time>
      </trkpt>
      <trkpt lat="49.85855" lon="4.73138">
        <ele>313</ele>
        <time>2024-05-08T12:06:33Z</time>
      </trkpt>
      <trkpt lat="49.85855" lon="4.7314">
        <ele>312</ele>
        <time>2024-05-08T12:06:34Z</time>
      </trkpt>
      <trkpt lat="49.85854" lon="4.73141">
        <ele>312</ele>
        <time>2024-05-08T12:06:35Z</time>
      </trkpt>
      <trkpt lat="49.85854" lon="4.73142">
        <ele>312</ele>
        <time>2024-05-08T12:06:36Z</time>
      </trkpt>
      <trkpt lat="49.85854" lon="4.73143">
        <ele>311</ele>
        <time>2024-05-08T12:06:37Z</time>
      </trkpt>
      <trkpt lat="49.85853" lon="4.73144">
        <ele>311</ele>
        <time>2024-05-08T12:06:38Z</time>
      </trkpt>
      <trkpt lat="49.85853" lon="4.73146">
        <ele>310</ele>
        <time>2024-05-08T12:06:39Z</time>
      </trkpt>
      <trkpt lat="49.85853" lon="4.73147">
        <ele>310</ele>
        <time>2024-05-08T12:06:40Z</time>
      </trkpt>
      <trkpt lat="49.85851" lon="4.73152">
        <ele>306</ele>
        <time>2024-05-08T12:06:56Z</time>
      </trkpt>
      <trkpt lat="49.85851" lon="4.73154">
        <ele>305</ele>
        <time>2024-05-08T12:06:57Z</time>
      </trkpt>
      <trkpt lat="49.8585" lon="4.73156">
        <ele>305</ele>
        <time>2024-05-08T12:06:58Z</time>
      </trkpt>
      <trkpt lat="49.8585" lon="4.73157">
        <ele>304</ele>
        <time>2024-05-08T12:06:59Z</time>
      </trkpt>
      <trkpt lat="49.8585" lon="4.73157">
        <ele>304</ele>
        <time>2024-05-08T12:07:00Z</time>
      </trkpt>
      <trkpt lat="49.85849" lon="4.73158">
        <ele>304</ele>
        <time>2024-05-08T12:07:01Z</time>
      </trkpt>
      <trkpt lat="49.85849" lon="4.73159">
        <ele>303</ele>
        <time>2024-05-08T12:07:02Z</time>
      </trkpt>
      <trkpt lat="49.85848" lon="4.7316">
        <ele>303</ele>
        <time>2024-05-08T12:07:03Z</time>
      </trkpt>
      <trkpt lat="49.85848" lon="4.73161">
        <ele>303</ele>
        <time>2024-05-08T12:07:04Z</time>
      </trkpt>
      <trkpt lat="49.85847" lon="4.73162">
        <ele>303</ele>
        <time>2024-05-08T12:07:05Z</time>
      </trkpt>
      <trkpt lat="49.85846" lon="4.73163">
        <ele>303</ele>
        <time>2024-05-08T12:07:06Z</time>
      </trkpt>
      <trkpt lat="49.85846" lon="4.73163">
        <ele>302</ele>
        <time>2024-05-08T12:07:07Z</time>
      </trkpt>
      <trkpt lat="49.85846" lon="4.73164">
        <ele>302</ele>
        <time>2024-05-08T12:07:08Z</time>
      </trkpt>
      <trkpt lat="49.85845" lon="4.73165">
        <ele>301</ele>
        <time>2024-05-08T12:07:09Z</time>
      </trkpt>
      <trkpt lat="49.85845" lon="4.73166">
        <ele>301</ele>
        <time>2024-05-08T12:07:10Z</time>
      </trkpt>
      <trkpt lat="49.85844" lon="4.73167">
        <ele>301</ele>
        <time>2024-05-08T12:07:11Z</time>
      </trkpt>
      <trkpt lat="49.85844" lon="4.73169">
        <ele>300</ele>
        <time>2024-05-08T12:07:12Z</time>
      </trkpt>
      <trkpt lat="49.85843" lon="4.7317">
        <ele>300</ele>
        <time>2024-05-08T12:07:13Z</time>
      </trkpt>
      <trkpt lat="49.85842" lon="4.73171">
        <ele>298</ele>
        <time>2024-05-08T12:07:48Z</time>
      </trkpt>
      <trkpt lat="49.85841" lon="4.73171">
        <ele>298</ele>
        <time>2024-05-08T12:07:49Z</time>
      </trkpt>
      <trkpt lat="49.85841" lon="4.73172">
        <ele>298</ele>
        <time>2024-05-08T12:07:50Z</time>
      </trkpt>
      <trkpt lat="49.8584" lon="4.73172">
        <ele>298</ele>
        <time>2024-05-08T12:07:51Z</time>
      </trkpt>
      <trkpt lat="49.8584" lon="4.73172">
        <ele>298</ele>
        <time>2024-05-08T12:07:52Z</time>
      </trkpt>
      <trkpt lat="49.8584" lon="4.73172">
        <ele>298</ele>
        <time>2024-05-08T12:07:53Z</time>
      </trkpt>
      <trkpt lat="49.85839" lon="4.73172">
        <ele>298</ele>
        <time>2024-05-08T12:07:54Z</time>
      </trkpt>
      <trkpt lat="49.85839" lon="4.73172">
        <ele>298</ele>
        <time>2024-05-08T12:07:55Z</time>
      </trkpt>
      <trkpt lat="49.85838" lon="4.73172">
        <ele>298</ele>
        <time>2024-05-08T12:07:56Z</time>
      </trkpt>
      <trkpt lat="49.85838" lon="4.73172">
        <ele>297</ele>
        <time>2024-05-08T12:07:57Z</time>
      </trkpt>
      <trkpt lat="49.85837" lon="4.73173">
        <ele>297</ele>
        <time>2024-05-08T12:07:58Z</time>
      </trkpt>
      <trkpt lat="49.85836" lon="4.73173">
        <ele>297</ele>
        <time>2024-05-08T12:07:59Z</time>
      </trkpt>
      <trkpt lat="49.85835" lon="4.73173">
        <ele>297</ele>
        <time>2024-05-08T12:08:00Z</time>
      </trkpt>
      <trkpt lat="49.85834" lon="4.73174">
        <ele>297</ele>
        <time>2024-05-08T12:08:01Z</time>
      </trkpt>
      <trkpt lat="49.85832" lon="4.73174">
        <ele>297</ele>
        <time>2024-05-08T12:08:02Z</time>
      </trkpt>
      <trkpt lat="49.85831" lon="4.73175">
        <ele>297</ele>
        <time>2024-05-08T12:08:03Z</time>
      </trkpt>
      <trkpt lat="49.8583" lon="4.73175">
        <ele>297</ele>
        <time>2024-05-08T12:08:04Z</time>
      </trkpt>
      <trkpt lat="49.85829" lon="4.73176">
        <ele>297</ele>
        <time>2024-05-08T12:08:05Z</time>
      </trkpt>
      <trkpt lat="49.85828" lon="4.73176">
        <ele>297</ele>
        <time>2024-05-08T12:08:06Z</time>
      </trkpt>
      <trkpt lat="49.85826" lon="4.73176">
        <ele>297</ele>
        <time>2024-05-08T12:08:07Z</time>
      </trkpt>
      <trkpt lat="49.85825" lon="4.73176">
        <ele>297</ele>
        <time>2024-05-08T12:08:08Z</time>
      </trkpt>
      <trkpt lat="49.85824" lon="4.73176">
        <ele>297</ele>
        <time>2024-05-08T12:08:09Z</time>
      </trkpt>
      <trkpt lat="49.85823" lon="4.73175">
        <ele>297</ele>
        <time>2024-05-08T12:08:10Z</time>
      </trkpt>
      <trkpt lat="49.85822" lon="4.73175">
        <ele>297</ele>
        <time>2024-05-08T12:08:11Z</time>
      </trkpt>
      <trkpt lat="49.85821" lon="4.73175">
        <ele>296</ele>
        <time>2024-05-08T12:08:12Z</time>
      </trkpt>
      <trkpt lat="49.8582" lon="4.73174">
        <ele>296</ele>
        <time>2024-05-08T12:08:13Z</time>
      </trkpt>
      <trkpt lat="49.85819" lon="4.73174">
        <ele>296</ele>
        <time>2024-05-08T12:08:14Z</time>
      </trkpt>
      <trkpt lat="49.85818" lon="4.73174">
        <ele>296</ele>
        <time>2024-05-08T12:08:15Z</time>
      </trkpt>
      <trkpt lat="49.85817" lon="4.73173">
        <ele>296</ele>
        <time>2024-05-08T12:08:16Z</time>
      </trkpt>
      <trkpt lat="49.85816" lon="4.73173">
        <ele>296</ele>
        <time>2024-05-08T12:08:17Z</time>
      </trkpt>
      <trkpt lat="49.85816" lon="4.73172">
        <ele>296</ele>
        <time>2024-05-08T12:08:18Z</time>
      </trkpt>
      <trkpt lat="49.85815" lon="4.73171">
        <ele>296</ele>
        <time>2024-05-08T12:08:19Z</time>
      </trkpt>
      <trkpt lat="49.85814" lon="4.73171">
        <ele>296</ele>
        <time>2024-05-08T12:08:20Z</time>
      </trkpt>
      <trkpt lat="49.85813" lon="4.7317">
        <ele>296</ele>
        <time>2024-05-08T12:08:21Z</time>
      </trkpt>
      <trkpt lat="49.85812" lon="4.7317">
        <ele>295</ele>
        <time>2024-05-08T12:08:22Z</time>
      </trkpt>
      <trkpt lat="49.8581" lon="4.73169">
        <ele>295</ele>
        <time>2024-05-08T12:08:23Z</time>
      </trkpt>
      <trkpt lat="49.85809" lon="4.73169">
        <ele>295</ele>
        <time>2024-05-08T12:08:24Z</time>
      </trkpt>
      <trkpt lat="49.85808" lon="4.73169">
        <ele>295</ele>
        <time>2024-05-08T12:08:25Z</time>
      </trkpt>
      <trkpt lat="49.85807" lon="4.73169">
        <ele>295</ele>
        <time>2024-05-08T12:08:26Z</time>
      </trkpt>
      <trkpt lat="49.85806" lon="4.73169">
        <ele>294</ele>
        <time>2024-05-08T12:08:27Z</time>
      </trkpt>
      <trkpt lat="49.85805" lon="4.73169">
        <ele>294</ele>
        <time>2024-05-08T12:08:28Z</time>
      </trkpt>
      <trkpt lat="49.85804" lon="4.73169">
        <ele>293</ele>
        <time>2024-05-08T12:08:29Z</time>
      </trkpt>
      <trkpt lat="49.85803" lon="4.73169">
        <ele>293</ele>
        <time>2024-05-08T12:08:30Z</time>
      </trkpt>
      <trkpt lat="49.85802" lon="4.73169">
        <ele>293</ele>
        <time>2024-05-08T12:08:31Z</time>
      </trkpt>
      <trkpt lat="49.85801" lon="4.73169">
        <ele>292</ele>
        <time>2024-05-08T12:08:32Z</time>
      </trkpt>
      <trkpt lat="49.85799" lon="4.73169">
        <ele>292</ele>
        <time>2024-05-08T12:08:33Z</time>
      </trkpt>
      <trkpt lat="49.85798" lon="4.73169">
        <ele>292</ele>
        <time>2024-05-08T12:08:34Z</time>
      </trkpt>
      <trkpt lat="49.85797" lon="4.7317">
        <ele>292</ele>
        <time>2024-05-08T12:08:35Z</time>
      </trkpt>
      <trkpt lat="49.85796" lon="4.7317">
        <ele>292</ele>
        <time>2024-05-08T12:08:36Z</time>
      </trkpt>
      <trkpt lat="49.85795" lon="4.7317">
        <ele>291</ele>
        <time>2024-05-08T12:08:37Z</time>
      </trkpt>
      <trkpt lat="49.85794" lon="4.7317">
        <ele>291</ele>
        <time>2024-05-08T12:08:38Z</time>
      </trkpt>
      <trkpt lat="49.85793" lon="4.73171">
        <ele>291</ele>
        <time>2024-05-08T12:08:39Z</time>
      </trkpt>
      <trkpt lat="49.85792" lon="4.73171">
        <ele>291</ele>
        <time>2024-05-08T12:08:40Z</time>
      </trkpt>
      <trkpt lat="49.85791" lon="4.73171">
        <ele>291</ele>
        <time>2024-05-08T12:08:41Z</time>
      </trkpt>
      <trkpt lat="49.8579" lon="4.73171">
        <ele>290</ele>
        <time>2024-05-08T12:08:42Z</time>
      </trkpt>
      <trkpt lat="49.8579" lon="4.7317">
        <ele>290</ele>
        <time>2024-05-08T12:08:43Z</time>
      </trkpt>
      <trkpt lat="49.85789" lon="4.7317">
        <ele>290</ele>
        <time>2024-05-08T12:08:44Z</time>
      </trkpt>
      <trkpt lat="49.85789" lon="4.7317">
        <ele>290</ele>
        <time>2024-05-08T12:08:45Z</time>
      </trkpt>
      <trkpt lat="49.85788" lon="4.7317">
        <ele>290</ele>
        <time>2024-05-08T12:08:46Z</time>
      </trkpt>
      <trkpt lat="49.85787" lon="4.7317">
        <ele>289</ele>
        <time>2024-05-08T12:08:47Z</time>
      </trkpt>
      <trkpt lat="49.85787" lon="4.7317">
        <ele>289</ele>
        <time>2024-05-08T12:08:48Z</time>
      </trkpt>
      <trkpt lat="49.85786" lon="4.7317">
        <ele>289</ele>
        <time>2024-05-08T12:08:49Z</time>
      </trkpt>
      <trkpt lat="49.85785" lon="4.7317">
        <ele>289</ele>
        <time>2024-05-08T12:08:50Z</time>
      </trkpt>
      <trkpt lat="49.85784" lon="4.73171">
        <ele>289</ele>
        <time>2024-05-08T12:08:51Z</time>
      </trkpt>
      <trkpt lat="49.85783" lon="4.73171">
        <ele>288</ele>
        <time>2024-05-08T12:08:52Z</time>
      </trkpt>
      <trkpt lat="49.85782" lon="4.73172">
        <ele>288</ele>
        <time>2024-05-08T12:08:53Z</time>
      </trkpt>
      <trkpt lat="49.85782" lon="4.73172">
        <ele>288</ele>
        <time>2024-05-08T12:08:54Z</time>
      </trkpt>
      <trkpt lat="49.85781" lon="4.73173">
        <ele>288</ele>
        <time>2024-05-08T12:08:55Z</time>
      </trkpt>
      <trkpt lat="49.85781" lon="4.73174">
        <ele>288</ele>
        <time>2024-05-08T12:08:56Z</time>
      </trkpt>
      <trkpt lat="49.8578" lon="4.73175">
        <ele>287</ele>
        <time>2024-05-08T12:08:57Z</time>
      </trkpt>
      <trkpt lat="49.8578" lon="4.73176">
        <ele>287</ele>
        <time>2024-05-08T12:08:58Z</time>
      </trkpt>
      <trkpt lat="49.85779" lon="4.73177">
        <ele>287</ele>
        <time>2024-05-08T12:08:59Z</time>
      </trkpt>
      <trkpt lat="49.85779" lon="4.73179">
        <ele>287</ele>
        <time>2024-05-08T12:09:00Z</time>
      </trkpt>
      <trkpt lat="49.85779" lon="4.7318">
        <ele>287</ele>
        <time>2024-05-08T12:09:01Z</time>
      </trkpt>
      <trkpt lat="49.85778" lon="4.73181">
        <ele>286</ele>
        <time>2024-05-08T12:09:02Z</time>
      </trkpt>
      <trkpt lat="49.85778" lon="4.73183">
        <ele>286</ele>
        <time>2024-05-08T12:09:03Z</time>
      </trkpt>
      <trkpt lat="49.85778" lon="4.73184">
        <ele>286</ele>
        <time>2024-05-08T12:09:04Z</time>
      </trkpt>
      <trkpt lat="49.85777" lon="4.73186">
        <ele>286</ele>
        <time>2024-05-08T12:09:05Z</time>
      </trkpt>
      <trkpt lat="49.85777" lon="4.73188">
        <ele>286</ele>
        <time>2024-05-08T12:09:06Z</time>
      </trkpt>
      <trkpt lat="49.85777" lon="4.7319">
        <ele>285</ele>
        <time>2024-05-08T12:09:07Z</time>
      </trkpt>
      <trkpt lat="49.85776" lon="4.73192">
        <ele>285</ele>
        <time>2024-05-08T12:09:08Z</time>
      </trkpt>
      <trkpt lat="49.85777" lon="4.73194">
        <ele>285</ele>
        <time>2024-05-08T12:09:09Z</time>
      </trkpt>
      <trkpt lat="49.85777" lon="4.73195">
        <ele>285</ele>
        <time>2024-05-08T12:09:10Z</time>
      </trkpt>
      <trkpt lat="49.85777" lon="4.73197">
        <ele>285</ele>
        <time>2024-05-08T12:09:11Z</time>
      </trkpt>
      <trkpt lat="49.85777" lon="4.73199">
        <ele>284</ele>
        <time>2024-05-08T12:09:12Z</time>
      </trkpt>
      <trkpt lat="49.85777" lon="4.732">
        <ele>284</ele>
        <time>2024-05-08T12:09:13Z</time>
      </trkpt>
      <trkpt lat="49.85778" lon="4.73201">
        <ele>284</ele>
        <time>2024-05-08T12:09:14Z</time>
      </trkpt>
      <trkpt lat="49.85778" lon="4.73202">
        <ele>284</ele>
        <time>2024-05-08T12:09:15Z</time>
      </trkpt>
      <trkpt lat="49.85778" lon="4.73202">
        <ele>284</ele>
        <time>2024-05-08T12:09:16Z</time>
      </trkpt>
      <trkpt lat="49.85778" lon="4.73203">
        <ele>283</ele>
        <time>2024-05-08T12:09:17Z</time>
      </trkpt>
      <trkpt lat="49.85779" lon="4.73203">
        <ele>283</ele>
        <time>2024-05-08T12:09:18Z</time>
      </trkpt>
      <trkpt lat="49.85779" lon="4.73204">
        <ele>283</ele>
        <time>2024-05-08T12:09:19Z</time>
      </trkpt>
      <trkpt lat="49.8578" lon="4.73204">
        <ele>283</ele>
        <time>2024-05-08T12:09:20Z</time>
      </trkpt>
      <trkpt lat="49.8578" lon="4.73205">
        <ele>283</ele>
        <time>2024-05-08T12:09:21Z</time>
      </trkpt>
      <trkpt lat="49.85781" lon="4.73206">
        <ele>282</ele>
        <time>2024-05-08T12:09:22Z</time>
      </trkpt>
      <trkpt lat="49.85782" lon="4.73207">
        <ele>281</ele>
        <time>2024-05-08T12:09:52Z</time>
      </trkpt>
      <trkpt lat="49.85782" lon="4.73207">
        <ele>281</ele>
        <time>2024-05-08T12:09:53Z</time>
      </trkpt>
      <trkpt lat="49.85783" lon="4.73207">
        <ele>281</ele>
        <time>2024-05-08T12:09:54Z</time>
      </trkpt>
      <trkpt lat="49.85783" lon="4.73206">
        <ele>281</ele>
        <time>2024-05-08T12:09:55Z</time>
      </trkpt>
      <trkpt lat="49.85784" lon="4.73206">
        <ele>281</ele>
        <time>2024-05-08T12:09:56Z</time>
      </trkpt>
      <trkpt lat="49.85785" lon="4.73206">
        <ele>281</ele>
        <time>2024-05-08T12:09:57Z</time>
      </trkpt>
      <trkpt lat="49.85786" lon="4.73206">
        <ele>281</ele>
        <time>2024-05-08T12:09:58Z</time>
      </trkpt>
      <trkpt lat="49.85787" lon="4.73206">
        <ele>281</ele>
        <time>2024-05-08T12:09:59Z</time>
      </trkpt>
      <trkpt lat="49.85788" lon="4.73206">
        <ele>281</ele>
        <time>2024-05-08T12:10:00Z</time>
      </trkpt>
      <trkpt lat="49.85788" lon="4.73206">
        <ele>281</ele>
        <time>2024-05-08T12:10:01Z</time>
      </trkpt>
      <trkpt lat="49.85789" lon="4.73205">
        <ele>280</ele>
        <time>2024-05-08T12:10:02Z</time>
      </trkpt>
      <trkpt lat="49.8579" lon="4.73206">
        <ele>280</ele>
        <time>2024-05-08T12:10:03Z</time>
      </trkpt>
      <trkpt lat="49.85791" lon="4.73206">
        <ele>280</ele>
        <time>2024-05-08T12:10:04Z</time>
      </trkpt>
      <trkpt lat="49.85793" lon="4.73207">
        <ele>278</ele>
        <time>2024-05-08T12:10:12Z</time>
      </trkpt>
      <trkpt lat="49.85793" lon="4.73208">
        <ele>278</ele>
        <time>2024-05-08T12:10:13Z</time>
      </trkpt>
      <trkpt lat="49.85793" lon="4.73209">
        <ele>277</ele>
        <time>2024-05-08T12:10:14Z</time>
      </trkpt>
      <trkpt lat="49.85793" lon="4.73209">
        <ele>277</ele>
        <time>2024-05-08T12:10:15Z</time>
      </trkpt>
      <trkpt lat="49.85793" lon="4.7321">
        <ele>277</ele>
        <time>2024-05-08T12:10:16Z</time>
      </trkpt>
      <trkpt lat="49.85793" lon="4.73211">
        <ele>276</ele>
        <time>2024-05-08T12:10:17Z</time>
      </trkpt>
      <trkpt lat="49.85792" lon="4.73212">
        <ele>276</ele>
        <time>2024-05-08T12:10:18Z</time>
      </trkpt>
      <trkpt lat="49.85792" lon="4.73213">
        <ele>276</ele>
        <time>2024-05-08T12:10:19Z</time>
      </trkpt>
      <trkpt lat="49.85791" lon="4.73214">
        <ele>276</ele>
        <time>2024-05-08T12:10:25Z</time>
      </trkpt>
      <trkpt lat="49.85791" lon="4.73214">
        <ele>276</ele>
        <time>2024-05-08T12:10:26Z</time>
      </trkpt>
      <trkpt lat="49.8579" lon="4.73214">
        <ele>275</ele>
        <time>2024-05-08T12:10:27Z</time>
      </trkpt>
      <trkpt lat="49.8579" lon="4.73215">
        <ele>275</ele>
        <time>2024-05-08T12:10:28Z</time>
      </trkpt>
      <trkpt lat="49.8579" lon="4.73215">
        <ele>275</ele>
        <time>2024-05-08T12:10:29Z</time>
      </trkpt>
      <trkpt lat="49.8579" lon="4.73216">
        <ele>275</ele>
        <time>2024-05-08T12:10:30Z</time>
      </trkpt>
      <trkpt lat="49.85789" lon="4.73217">
        <ele>275</ele>
        <time>2024-05-08T12:10:31Z</time>
      </trkpt>
      <trkpt lat="49.85789" lon="4.73219">
        <ele>274</ele>
        <time>2024-05-08T12:10:32Z</time>
      </trkpt>
      <trkpt lat="49.85789" lon="4.7322">
        <ele>274</ele>
        <time>2024-05-08T12:10:33Z</time>
      </trkpt>
      <trkpt lat="49.85789" lon="4.73221">
        <ele>274</ele>
        <time>2024-05-08T12:10:34Z</time>
      </trkpt>
      <trkpt lat="49.85788" lon="4.73222">
        <ele>274</ele>
        <time>2024-05-08T12:10:35Z</time>
      </trkpt>
      <trkpt lat="49.85787" lon="4.73223">
        <ele>274</ele>
        <time>2024-05-08T12:10:36Z</time>
      </trkpt>
      <trkpt lat="49.85787" lon="4.73225">
        <ele>274</ele>
        <time>2024-05-08T12:10:37Z</time>
      </trkpt>
      <trkpt lat="49.85786" lon="4.73225">
        <ele>274</ele>
        <time>2024-05-08T12:10:38Z</time>
      </trkpt>
      <trkpt lat="49.85786" lon="4.73226">
        <ele>274</ele>
        <time>2024-05-08T12:10:39Z</time>
      </trkpt>
      <trkpt lat="49.85785" lon="4.73227">
        <ele>274</ele>
        <time>2024-05-08T12:10:40Z</time>
      </trkpt>
      <trkpt lat="49.85785" lon="4.73228">
        <ele>274</ele>
        <time>2024-05-08T12:10:41Z</time>
      </trkpt>
      <trkpt lat="49.85784" lon="4.73229">
        <ele>273</ele>
        <time>2024-05-08T12:10:42Z</time>
      </trkpt>
      <trkpt lat="49.85784" lon="4.7323">
        <ele>273</ele>
        <time>2024-05-08T12:10:43Z</time>
      </trkpt>
      <trkpt lat="49.85783" lon="4.73231">
        <ele>272</ele>
        <time>2024-05-08T12:10:44Z</time>
      </trkpt>
      <trkpt lat="49.85783" lon="4.73232">
        <ele>272</ele>
        <time>2024-05-08T12:10:45Z</time>
      </trkpt>
      <trkpt lat="49.85782" lon="4.73234">
        <ele>271</ele>
        <time>2024-05-08T12:10:55Z</time>
      </trkpt>
      <trkpt lat="49.85781" lon="4.73235">
        <ele>271</ele>
        <time>2024-05-08T12:10:56Z</time>
      </trkpt>
      <trkpt lat="49.8578" lon="4.73236">
        <ele>271</ele>
        <time>2024-05-08T12:10:57Z</time>
      </trkpt>
      <trkpt lat="49.8578" lon="4.73236">
        <ele>271</ele>
        <time>2024-05-08T12:10:58Z</time>
      </trkpt>
      <trkpt lat="49.85779" lon="4.73237">
        <ele>271</ele>
        <time>2024-05-08T12:10:59Z</time>
      </trkpt>
      <trkpt lat="49.85779" lon="4.73238">
        <ele>271</ele>
        <time>2024-05-08T12:11:00Z</time>
      </trkpt>
      <trkpt lat="49.85778" lon="4.73239">
        <ele>271</ele>
        <time>2024-05-08T12:11:01Z</time>
      </trkpt>
      <trkpt lat="49.85778" lon="4.73239">
        <ele>270</ele>
        <time>2024-05-08T12:11:02Z</time>
      </trkpt>
      <trkpt lat="49.85777" lon="4.73239">
        <ele>270</ele>
        <time>2024-05-08T12:11:03Z</time>
      </trkpt>
      <trkpt lat="49.85777" lon="4.7324">
        <ele>269</ele>
        <time>2024-05-08T12:11:04Z</time>
      </trkpt>
      <trkpt lat="49.85777" lon="4.7324">
        <ele>269</ele>
        <time>2024-05-08T12:11:05Z</time>
      </trkpt>
      <trkpt lat="49.85777" lon="4.73241">
        <ele>269</ele>
        <time>2024-05-08T12:11:06Z</time>
      </trkpt>
      <trkpt lat="49.85776" lon="4.73242">
        <ele>268</ele>
        <time>2024-05-08T12:11:07Z</time>
      </trkpt>
      <trkpt lat="49.85776" lon="4.73243">
        <ele>268</ele>
        <time>2024-05-08T12:11:08Z</time>
      </trkpt>
      <trkpt lat="49.85776" lon="4.73243">
        <ele>268</ele>
        <time>2024-05-08T12:11:09Z</time>
      </trkpt>
      <trkpt lat="49.85776" lon="4.73244">
        <ele>268</ele>
        <time>2024-05-08T12:11:10Z</time>
      </trkpt>
      <trkpt lat="49.85776" lon="4.73245">
        <ele>268</ele>
        <time>2024-05-08T12:11:11Z</time>
      </trkpt>
      <trkpt lat="49.85777" lon="4.73245">
        <ele>267</ele>
        <time>2024-05-08T12:11:12Z</time>
      </trkpt>
      <trkpt lat="49.85777" lon="4.73246">
        <ele>267</ele>
        <time>2024-05-08T12:11:13Z</time>
      </trkpt>
      <trkpt lat="49.85777" lon="4.73247">
        <ele>266</ele>
        <time>2024-05-08T12:11:14Z</time>
      </trkpt>
      <trkpt lat="49.85778" lon="4.73248">
        <ele>266</ele>
        <time>2024-05-08T12:11:15Z</time>
      </trkpt>
      <trkpt lat="49.85778" lon="4.73248">
        <ele>266</ele>
        <time>2024-05-08T12:11:16Z</time>
      </trkpt>
      <trkpt lat="49.85778" lon="4.73248">
        <ele>265</ele>
        <time>2024-05-08T12:11:17Z</time>
      </trkpt>
      <trkpt lat="49.85778" lon="4.73248">
        <ele>265</ele>
        <time>2024-05-08T12:11:18Z</time>
      </trkpt>
      <trkpt lat="49.85778" lon="4.73249">
        <ele>265</ele>
        <time>2024-05-08T12:11:19Z</time>
      </trkpt>
      <trkpt lat="49.85778" lon="4.7325">
        <ele>265</ele>
        <time>2024-05-08T12:11:20Z</time>
      </trkpt>
      <trkpt lat="49.85778" lon="4.73251">
        <ele>265</ele>
        <time>2024-05-08T12:11:21Z</time>
      </trkpt>
      <trkpt lat="49.85779" lon="4.73252">
        <ele>264</ele>
        <time>2024-05-08T12:11:22Z</time>
      </trkpt>
      <trkpt lat="49.85779" lon="4.73253">
        <ele>264</ele>
        <time>2024-05-08T12:11:23Z</time>
      </trkpt>
      <trkpt lat="49.85779" lon="4.73253">
        <ele>264</ele>
        <time>2024-05-08T12:11:24Z</time>
      </trkpt>
      <trkpt lat="49.85779" lon="4.73254">
        <ele>264</ele>
        <time>2024-05-08T12:11:25Z</time>
      </trkpt>
      <trkpt lat="49.8578" lon="4.73255">
        <ele>264</ele>
        <time>2024-05-08T12:11:26Z</time>
      </trkpt>
      <trkpt lat="49.85781" lon="4.73258">
        <ele>261</ele>
        <time>2024-05-08T12:11:50Z</time>
      </trkpt>
      <trkpt lat="49.85782" lon="4.7326">
        <ele>261</ele>
        <time>2024-05-08T12:11:51Z</time>
      </trkpt>
      <trkpt lat="49.85783" lon="4.73262">
        <ele>260</ele>
        <time>2024-05-08T12:11:52Z</time>
      </trkpt>
      <trkpt lat="49.85784" lon="4.73265">
        <ele>258</ele>
        <time>2024-05-08T12:12:25Z</time>
      </trkpt>
      <trkpt lat="49.85783" lon="4.73266">
        <ele>258</ele>
        <time>2024-05-08T12:12:26Z</time>
      </trkpt>
      <trkpt lat="49.85783" lon="4.73267">
        <ele>258</ele>
        <time>2024-05-08T12:12:27Z</time>
      </trkpt>
      <trkpt lat="49.85783" lon="4.73268">
        <ele>258</ele>
        <time>2024-05-08T12:12:28Z</time>
      </trkpt>
      <trkpt lat="49.85782" lon="4.73269">
        <ele>258</ele>
        <time>2024-05-08T12:12:29Z</time>
      </trkpt>
      <trkpt lat="49.85782" lon="4.7327">
        <ele>258</ele>
        <time>2024-05-08T12:12:30Z</time>
      </trkpt>
      <trkpt lat="49.85781" lon="4.73272">
        <ele>258</ele>
        <time>2024-05-08T12:12:31Z</time>
      </trkpt>
      <trkpt lat="49.85781" lon="4.73273">
        <ele>258</ele>
        <time>2024-05-08T12:12:32Z</time>
      </trkpt>
      <trkpt lat="49.8578" lon="4.73275">
        <ele>258</ele>
        <time>2024-05-08T12:12:33Z</time>
      </trkpt>
      <trkpt lat="49.85779" lon="4.73275">
        <ele>258</ele>
        <time>2024-05-08T12:12:34Z</time>
      </trkpt>
      <trkpt lat="49.85779" lon="4.73276">
        <ele>258</ele>
        <time>2024-05-08T12:12:35Z</time>
      </trkpt>
      <trkpt lat="49.85778" lon="4.73277">
        <ele>259</ele>
        <time>2024-05-08T12:12:36Z</time>
      </trkpt>
      <trkpt lat="49.85777" lon="4.73278">
        <ele>259</ele>
        <time>2024-05-08T12:12:37Z</time>
      </trkpt>
      <trkpt lat="49.85776" lon="4.73279">
        <ele>259</ele>
        <time>2024-05-08T12:12:38Z</time>
      </trkpt>
      <trkpt lat="49.85775" lon="4.73279">
        <ele>259</ele>
        <time>2024-05-08T12:12:39Z</time>
      </trkpt>
      <trkpt lat="49.85774" lon="4.7328">
        <ele>259</ele>
        <time>2024-05-08T12:12:40Z</time>
      </trkpt>
      <trkpt lat="49.85773" lon="4.73281">
        <ele>259</ele>
        <time>2024-05-08T12:12:41Z</time>
      </trkpt>
      <trkpt lat="49.85772" lon="4.73282">
        <ele>259</ele>
        <time>2024-05-08T12:12:42Z</time>
      </trkpt>
      <trkpt lat="49.85771" lon="4.73283">
        <ele>259</ele>
        <time>2024-05-08T12:12:43Z</time>
      </trkpt>
      <trkpt lat="49.8577" lon="4.73283">
        <ele>259</ele>
        <time>2024-05-08T12:12:44Z</time>
      </trkpt>
      <trkpt lat="49.85769" lon="4.73284">
        <ele>259</ele>
        <time>2024-05-08T12:12:45Z</time>
      </trkpt>
      <trkpt lat="49.85768" lon="4.73284">
        <ele>259</ele>
        <time>2024-05-08T12:12:46Z</time>
      </trkpt>
      <trkpt lat="49.85767" lon="4.73284">
        <ele>259</ele>
        <time>2024-05-08T12:12:47Z</time>
      </trkpt>
      <trkpt lat="49.85765" lon="4.73285">
        <ele>259</ele>
        <time>2024-05-08T12:12:48Z</time>
      </trkpt>
      <trkpt lat="49.85764" lon="4.73285">
        <ele>259</ele>
        <time>2024-05-08T12:12:49Z</time>
      </trkpt>
      <trkpt lat="49.85763" lon="4.73286">
        <ele>259</ele>
        <time>2024-05-08T12:12:50Z</time>
      </trkpt>
      <trkpt lat="49.85762" lon="4.73286">
        <ele>259</ele>
        <time>2024-05-08T12:12:51Z</time>
      </trkpt>
      <trkpt lat="49.85761" lon="4.73287">
        <ele>259</ele>
        <time>2024-05-08T12:12:52Z</time>
      </trkpt>
      <trkpt lat="49.8576" lon="4.73288">
        <ele>259</ele>
        <time>2024-05-08T12:12:53Z</time>
      </trkpt>
      <trkpt lat="49.85759" lon="4.73288">
        <ele>259</ele>
        <time>2024-05-08T12:12:54Z</time>
      </trkpt>
      <trkpt lat="49.85758" lon="4.73289">
        <ele>259</ele>
        <time>2024-05-08T12:12:55Z</time>
      </trkpt>
      <trkpt lat="49.85757" lon="4.7329">
        <ele>259</ele>
        <time>2024-05-08T12:12:56Z</time>
      </trkpt>
      <trkpt lat="49.85756" lon="4.7329">
        <ele>259</ele>
        <time>2024-05-08T12:12:57Z</time>
      </trkpt>
      <trkpt lat="49.85755" lon="4.7329">
        <ele>259</ele>
        <time>2024-05-08T12:12:58Z</time>
      </trkpt>
      <trkpt lat="49.85755" lon="4.73291">
        <ele>259</ele>
        <time>2024-05-08T12:12:59Z</time>
      </trkpt>
      <trkpt lat="49.85754" lon="4.73292">
        <ele>259</ele>
        <time>2024-05-08T12:13:00Z</time>
      </trkpt>
      <trkpt lat="49.85753" lon="4.73292">
        <ele>259</ele>
        <time>2024-05-08T12:13:01Z</time>
      </trkpt>
      <trkpt lat="49.85751" lon="4.73293">
        <ele>259</ele>
        <time>2024-05-08T12:13:02Z</time>
      </trkpt>
      <trkpt lat="49.8575" lon="4.73294">
        <ele>259</ele>
        <time>2024-05-08T12:13:03Z</time>
      </trkpt>
      <trkpt lat="49.85749" lon="4.73294">
        <ele>259</ele>
        <time>2024-05-08T12:13:04Z</time>
      </trkpt>
      <trkpt lat="49.85747" lon="4.73295">
        <ele>259</ele>
        <time>2024-05-08T12:13:05Z</time>
      </trkpt>
      <trkpt lat="49.85746" lon="4.73295">
        <ele>259</ele>
        <time>2024-05-08T12:13:06Z</time>
      </trkpt>
      <trkpt lat="49.85745" lon="4.73295">
        <ele>259</ele>
        <time>2024-05-08T12:13:07Z</time>
      </trkpt>
      <trkpt lat="49.85743" lon="4.73295">
        <ele>259</ele>
        <time>2024-05-08T12:13:08Z</time>
      </trkpt>
      <trkpt lat="49.85742" lon="4.73295">
        <ele>259</ele>
        <time>2024-05-08T12:13:09Z</time>
      </trkpt>
      <trkpt lat="49.85741" lon="4.73294">
        <ele>259</ele>
        <time>2024-05-08T12:13:10Z</time>
      </trkpt>
      <trkpt lat="49.8574" lon="4.73293">
        <ele>260</ele>
        <time>2024-05-08T12:13:11Z</time>
      </trkpt>
      <trkpt lat="49.85739" lon="4.73292">
        <ele>260</ele>
        <time>2024-05-08T12:13:12Z</time>
      </trkpt>
      <trkpt lat="49.85738" lon="4.73291">
        <ele>260</ele>
        <time>2024-05-08T12:13:13Z</time>
      </trkpt>
      <trkpt lat="49.85736" lon="4.73291">
        <ele>260</ele>
        <time>2024-05-08T12:13:14Z</time>
      </trkpt>
      <trkpt lat="49.85735" lon="4.73291">
        <ele>260</ele>
        <time>2024-05-08T12:13:15Z</time>
      </trkpt>
      <trkpt lat="49.85734" lon="4.73291">
        <ele>260</ele>
        <time>2024-05-08T12:13:16Z</time>
      </trkpt>
      <trkpt lat="49.85733" lon="4.73291">
        <ele>260</ele>
        <time>2024-05-08T12:13:17Z</time>
      </trkpt>
      <trkpt lat="49.85732" lon="4.73292">
        <ele>260</ele>
        <time>2024-05-08T12:13:18Z</time>
      </trkpt>
      <trkpt lat="49.85731" lon="4.73292">
        <ele>260</ele>
        <time>2024-05-08T12:13:19Z</time>
      </trkpt>
      <trkpt lat="49.8573" lon="4.73292">
        <ele>260</ele>
        <time>2024-05-08T12:13:20Z</time>
      </trkpt>
      <trkpt lat="49.85729" lon="4.73292">
        <ele>260</ele>
        <time>2024-05-08T12:13:21Z</time>
      </trkpt>
      <trkpt lat="49.85728" lon="4.73292">
        <ele>260</ele>
        <time>2024-05-08T12:13:22Z</time>
      </trkpt>
      <trkpt lat="49.85727" lon="4.73291">
        <ele>260</ele>
        <time>2024-05-08T12:13:23Z</time>
      </trkpt>
      <trkpt lat="49.85727" lon="4.73291">
        <ele>260</ele>
        <time>2024-05-08T12:13:24Z</time>
      </trkpt>
      <trkpt lat="49.85726" lon="4.73291">
        <ele>260</ele>
        <time>2024-05-08T12:13:25Z</time>
      </trkpt>
      <trkpt lat="49.85725" lon="4.73291">
        <ele>260</ele>
        <time>2024-05-08T12:13:26Z</time>
      </trkpt>
      <trkpt lat="49.85724" lon="4.73291">
        <ele>260</ele>
        <time>2024-05-08T12:13:27Z</time>
      </trkpt>
      <trkpt lat="49.85724" lon="4.73291">
        <ele>260</ele>
        <time>2024-05-08T12:13:28Z</time>
      </trkpt>
      <trkpt lat="49.85723" lon="4.73291">
        <ele>260</ele>
        <time>2024-05-08T12:13:29Z</time>
      </trkpt>
      <trkpt lat="49.85722" lon="4.73292">
        <ele>260</ele>
        <time>2024-05-08T12:13:30Z</time>
      </trkpt>
      <trkpt lat="49.85721" lon="4.73292">
        <ele>260</ele>
        <time>2024-05-08T12:13:31Z</time>
      </trkpt>
      <trkpt lat="49.8572" lon="4.73293">
        <ele>260</ele>
        <time>2024-05-08T12:13:32Z</time>
      </trkpt>
      <trkpt lat="49.8572" lon="4.73294">
        <ele>260</ele>
        <time>2024-05-08T12:13:33Z</time>
      </trkpt>
      <trkpt lat="49.85719" lon="4.73295">
        <ele>260</ele>
        <time>2024-05-08T12:13:34Z</time>
      </trkpt>
      <trkpt lat="49.85719" lon="4.73296">
        <ele>260</ele>
        <time>2024-05-08T12:13:35Z</time>
      </trkpt>
      <trkpt lat="49.85719" lon="4.73297">
        <ele>260</ele>
        <time>2024-05-08T12:13:36Z</time>
      </trkpt>
      <trkpt lat="49.85719" lon="4.73298">
        <ele>260</ele>
        <time>2024-05-08T12:13:37Z</time>
      </trkpt>
      <trkpt lat="49.85719" lon="4.73299">
        <ele>260</ele>
        <time>2024-05-08T12:13:38Z</time>
      </trkpt>
      <trkpt lat="49.85719" lon="4.733">
        <ele>260</ele>
        <time>2024-05-08T12:13:39Z</time>
      </trkpt>
      <trkpt lat="49.8572" lon="4.73302">
        <ele>260</ele>
        <time>2024-05-08T12:13:40Z</time>
      </trkpt>
      <trkpt lat="49.85721" lon="4.73303">
        <ele>260</ele>
        <time>2024-05-08T12:13:41Z</time>
      </trkpt>
      <trkpt lat="49.85722" lon="4.73305">
        <ele>260</ele>
        <time>2024-05-08T12:13:42Z</time>
      </trkpt>
      <trkpt lat="49.85722" lon="4.73307">
        <ele>260</ele>
        <time>2024-05-08T12:13:43Z</time>
      </trkpt>
      <trkpt lat="49.85723" lon="4.73308">
        <ele>260</ele>
        <time>2024-05-08T12:13:44Z</time>
      </trkpt>
      <trkpt lat="49.85724" lon="4.7331">
        <ele>260</ele>
        <time>2024-05-08T12:13:45Z</time>
      </trkpt>
      <trkpt lat="49.85725" lon="4.73312">
        <ele>260</ele>
        <time>2024-05-08T12:13:46Z</time>
      </trkpt>
      <trkpt lat="49.85726" lon="4.73313">
        <ele>259</ele>
        <time>2024-05-08T12:13:47Z</time>
      </trkpt>
      <trkpt lat="49.85727" lon="4.73315">
        <ele>259</ele>
        <time>2024-05-08T12:13:48Z</time>
      </trkpt>
      <trkpt lat="49.85727" lon="4.73317">
        <ele>259</ele>
        <time>2024-05-08T12:13:49Z</time>
      </trkpt>
      <trkpt lat="49.85727" lon="4.73319">
        <ele>259</ele>
        <time>2024-05-08T12:13:50Z</time>
      </trkpt>
      <trkpt lat="49.85727" lon="4.73321">
        <ele>259</ele>
        <time>2024-05-08T12:13:51Z</time>
      </trkpt>
      <trkpt lat="49.85727" lon="4.73322">
        <ele>258</ele>
        <time>2024-05-08T12:13:52Z</time>
      </trkpt>
      <trkpt lat="49.85727" lon="4.73323">
        <ele>258</ele>
        <time>2024-05-08T12:13:53Z</time>
      </trkpt>
      <trkpt lat="49.85727" lon="4.73324">
        <ele>258</ele>
        <time>2024-05-08T12:13:54Z</time>
      </trkpt>
      <trkpt lat="49.85727" lon="4.73324">
        <ele>258</ele>
        <time>2024-05-08T12:13:55Z</time>
      </trkpt>
      <trkpt lat="49.85726" lon="4.73325">
        <ele>258</ele>
        <time>2024-05-08T12:13:56Z</time>
      </trkpt>
      <trkpt lat="49.85726" lon="4.73326">
        <ele>257</ele>
        <time>2024-05-08T12:13:57Z</time>
      </trkpt>
      <trkpt lat="49.85726" lon="4.73326">
        <ele>257</ele>
        <time>2024-05-08T12:13:58Z</time>
      </trkpt>
      <trkpt lat="49.85725" lon="4.73326">
        <ele>256</ele>
        <time>2024-05-08T12:13:59Z</time>
      </trkpt>
      <trkpt lat="49.85725" lon="4.73327">
        <ele>256</ele>
        <time>2024-05-08T12:14:00Z</time>
      </trkpt>
      <trkpt lat="49.85725" lon="4.73327">
        <ele>256</ele>
        <time>2024-05-08T12:14:01Z</time>
      </trkpt>
      <trkpt lat="49.85724" lon="4.73328">
        <ele>255</ele>
        <time>2024-05-08T12:14:02Z</time>
      </trkpt>
      <trkpt lat="49.85724" lon="4.73329">
        <ele>255</ele>
        <time>2024-05-08T12:14:03Z</time>
      </trkpt>
      <trkpt lat="49.85723" lon="4.7333">
        <ele>255</ele>
        <time>2024-05-08T12:14:04Z</time>
      </trkpt>
      <trkpt lat="49.85723" lon="4.73331">
        <ele>255</ele>
        <time>2024-05-08T12:14:05Z</time>
      </trkpt>
      <trkpt lat="49.85722" lon="4.73332">
        <ele>255</ele>
        <time>2024-05-08T12:14:06Z</time>
      </trkpt>
      <trkpt lat="49.85722" lon="4.73332">
        <ele>254</ele>
        <time>2024-05-08T12:14:07Z</time>
      </trkpt>
      <trkpt lat="49.85722" lon="4.73333">
        <ele>254</ele>
        <time>2024-05-08T12:14:08Z</time>
      </trkpt>
      <trkpt lat="49.85721" lon="4.73334">
        <ele>254</ele>
        <time>2024-05-08T12:14:09Z</time>
      </trkpt>
      <trkpt lat="49.85721" lon="4.73335">
        <ele>254</ele>
        <time>2024-05-08T12:14:10Z</time>
      </trkpt>
      <trkpt lat="49.8572" lon="4.73336">
        <ele>254</ele>
        <time>2024-05-08T12:14:11Z</time>
      </trkpt>
      <trkpt lat="49.8572" lon="4.73337">
        <ele>253</ele>
        <time>2024-05-08T12:14:12Z</time>
      </trkpt>
      <trkpt lat="49.85719" lon="4.73339">
        <ele>253</ele>
        <time>2024-05-08T12:14:13Z</time>
      </trkpt>
      <trkpt lat="49.85719" lon="4.7334">
        <ele>253</ele>
        <time>2024-05-08T12:14:14Z</time>
      </trkpt>
      <trkpt lat="49.85718" lon="4.73344">
        <ele>252</ele>
        <time>2024-05-08T12:14:21Z</time>
      </trkpt>
      <trkpt lat="49.85717" lon="4.73345">
        <ele>251</ele>
        <time>2024-05-08T12:14:22Z</time>
      </trkpt>
      <trkpt lat="49.85717" lon="4.73347">
        <ele>251</ele>
        <time>2024-05-08T12:14:23Z</time>
      </trkpt>
      <trkpt lat="49.85716" lon="4.73347">
        <ele>251</ele>
        <time>2024-05-08T12:14:24Z</time>
      </trkpt>
      <trkpt lat="49.85716" lon="4.73348">
        <ele>251</ele>
        <time>2024-05-08T12:14:25Z</time>
      </trkpt>
      <trkpt lat="49.85716" lon="4.73349">
        <ele>251</ele>
        <time>2024-05-08T12:14:26Z</time>
      </trkpt>
      <trkpt lat="49.85715" lon="4.7335">
        <ele>250</ele>
        <time>2024-05-08T12:14:27Z</time>
      </trkpt>
      <trkpt lat="49.85715" lon="4.73351">
        <ele>250</ele>
        <time>2024-05-08T12:14:28Z</time>
      </trkpt>
      <trkpt lat="49.85714" lon="4.73352">
        <ele>249</ele>
        <time>2024-05-08T12:14:29Z</time>
      </trkpt>
      <trkpt lat="49.85714" lon="4.73353">
        <ele>249</ele>
        <time>2024-05-08T12:14:30Z</time>
      </trkpt>
      <trkpt lat="49.85714" lon="4.73354">
        <ele>249</ele>
        <time>2024-05-08T12:14:31Z</time>
      </trkpt>
      <trkpt lat="49.85714" lon="4.73355">
        <ele>248</ele>
        <time>2024-05-08T12:14:32Z</time>
      </trkpt>
      <trkpt lat="49.85713" lon="4.73356">
        <ele>248</ele>
        <time>2024-05-08T12:14:33Z</time>
      </trkpt>
      <trkpt lat="49.85713" lon="4.73356">
        <ele>248</ele>
        <time>2024-05-08T12:14:34Z</time>
      </trkpt>
      <trkpt lat="49.85713" lon="4.73357">
        <ele>248</ele>
        <time>2024-05-08T12:14:35Z</time>
      </trkpt>
      <trkpt lat="49.85713" lon="4.73358">
        <ele>248</ele>
        <time>2024-05-08T12:14:36Z</time>
      </trkpt>
      <trkpt lat="49.85712" lon="4.73359">
        <ele>247</ele>
        <time>2024-05-08T12:14:37Z</time>
      </trkpt>
      <trkpt lat="49.85712" lon="4.7336">
        <ele>247</ele>
        <time>2024-05-08T12:14:38Z</time>
      </trkpt>
      <trkpt lat="49.85712" lon="4.7336">
        <ele>247</ele>
        <time>2024-05-08T12:14:39Z</time>
      </trkpt>
      <trkpt lat="49.85711" lon="4.73361">
        <ele>247</ele>
        <time>2024-05-08T12:14:40Z</time>
      </trkpt>
      <trkpt lat="49.85711" lon="4.73362">
        <ele>247</ele>
        <time>2024-05-08T12:14:41Z</time>
      </trkpt>
      <trkpt lat="49.8571" lon="4.73363">
        <ele>246</ele>
        <time>2024-05-08T12:14:42Z</time>
      </trkpt>
      <trkpt lat="49.8571" lon="4.73364">
        <ele>246</ele>
        <time>2024-05-08T12:14:43Z</time>
      </trkpt>
      <trkpt lat="49.85709" lon="4.73365">
        <ele>245</ele>
        <time>2024-05-08T12:14:44Z</time>
      </trkpt>
      <trkpt lat="49.85709" lon="4.73366">
        <ele>245</ele>
        <time>2024-05-08T12:14:45Z</time>
      </trkpt>
      <trkpt lat="49.85709" lon="4.73367">
        <ele>245</ele>
        <time>2024-05-08T12:14:46Z</time>
      </trkpt>
      <trkpt lat="49.85709" lon="4.73368">
        <ele>244</ele>
        <time>2024-05-08T12:14:47Z</time>
      </trkpt>
      <trkpt lat="49.85709" lon="4.7337">
        <ele>244</ele>
        <time>2024-05-08T12:14:48Z</time>
      </trkpt>
      <trkpt lat="49.85709" lon="4.73371">
        <ele>244</ele>
        <time>2024-05-08T12:14:49Z</time>
      </trkpt>
      <trkpt lat="49.85709" lon="4.73372">
        <ele>244</ele>
        <time>2024-05-08T12:14:50Z</time>
      </trkpt>
      <trkpt lat="49.85709" lon="4.73373">
        <ele>244</ele>
        <time>2024-05-08T12:14:51Z</time>
      </trkpt>
      <trkpt lat="49.85708" lon="4.73375">
        <ele>243</ele>
        <time>2024-05-08T12:14:52Z</time>
      </trkpt>
      <trkpt lat="49.85708" lon="4.73376">
        <ele>243</ele>
        <time>2024-05-08T12:14:53Z</time>
      </trkpt>
      <trkpt lat="49.85707" lon="4.73377">
        <ele>243</ele>
        <time>2024-05-08T12:14:54Z</time>
      </trkpt>
      <trkpt lat="49.85706" lon="4.73379">
        <ele>243</ele>
        <time>2024-05-08T12:14:55Z</time>
      </trkpt>
      <trkpt lat="49.85705" lon="4.7338">
        <ele>243</ele>
        <time>2024-05-08T12:14:56Z</time>
      </trkpt>
      <trkpt lat="49.85705" lon="4.73381">
        <ele>242</ele>
        <time>2024-05-08T12:14:57Z</time>
      </trkpt>
      <trkpt lat="49.85704" lon="4.73382">
        <ele>242</ele>
        <time>2024-05-08T12:14:58Z</time>
      </trkpt>
      <trkpt lat="49.85704" lon="4.73383">
        <ele>242</ele>
        <time>2024-05-08T12:14:59Z</time>
      </trkpt>
      <trkpt lat="49.85703" lon="4.73384">
        <ele>242</ele>
        <time>2024-05-08T12:15:00Z</time>
      </trkpt>
      <trkpt lat="49.85703" lon="4.73387">
        <ele>241</ele>
        <time>2024-05-08T12:15:08Z</time>
      </trkpt>
      <trkpt lat="49.85702" lon="4.73388">
        <ele>241</ele>
        <time>2024-05-08T12:15:09Z</time>
      </trkpt>
      <trkpt lat="49.85702" lon="4.73389">
        <ele>241</ele>
        <time>2024-05-08T12:15:10Z</time>
      </trkpt>
      <trkpt lat="49.85702" lon="4.7339">
        <ele>241</ele>
        <time>2024-05-08T12:15:11Z</time>
      </trkpt>
      <trkpt lat="49.85701" lon="4.73391">
        <ele>240</ele>
        <time>2024-05-08T12:15:12Z</time>
      </trkpt>
      <trkpt lat="49.85701" lon="4.73392">
        <ele>240</ele>
        <time>2024-05-08T12:15:13Z</time>
      </trkpt>
      <trkpt lat="49.857" lon="4.73393">
        <ele>240</ele>
        <time>2024-05-08T12:15:14Z</time>
      </trkpt>
      <trkpt lat="49.85699" lon="4.73394">
        <ele>240</ele>
        <time>2024-05-08T12:15:15Z</time>
      </trkpt>
      <trkpt lat="49.85699" lon="4.73395">
        <ele>240</ele>
        <time>2024-05-08T12:15:16Z</time>
      </trkpt>
      <trkpt lat="49.85698" lon="4.73396">
        <ele>239</ele>
        <time>2024-05-08T12:15:17Z</time>
      </trkpt>
      <trkpt lat="49.85698" lon="4.73397">
        <ele>239</ele>
        <time>2024-05-08T12:15:18Z</time>
      </trkpt>
      <trkpt lat="49.85697" lon="4.73398">
        <ele>239</ele>
        <time>2024-05-08T12:15:19Z</time>
      </trkpt>
      <trkpt lat="49.85697" lon="4.73399">
        <ele>239</ele>
        <time>2024-05-08T12:15:20Z</time>
      </trkpt>
      <trkpt lat="49.85697" lon="4.734">
        <ele>239</ele>
        <time>2024-05-08T12:15:21Z</time>
      </trkpt>
      <trkpt lat="49.85697" lon="4.73401">
        <ele>238</ele>
        <time>2024-05-08T12:15:22Z</time>
      </trkpt>
      <trkpt lat="49.85697" lon="4.73403">
        <ele>238</ele>
        <time>2024-05-08T12:15:23Z</time>
      </trkpt>
      <trkpt lat="49.85697" lon="4.73404">
        <ele>238</ele>
        <time>2024-05-08T12:15:24Z</time>
      </trkpt>
      <trkpt lat="49.85697" lon="4.73406">
        <ele>238</ele>
        <time>2024-05-08T12:15:25Z</time>
      </trkpt>
      <trkpt lat="49.85697" lon="4.73407">
        <ele>238</ele>
        <time>2024-05-08T12:15:26Z</time>
      </trkpt>
      <trkpt lat="49.85697" lon="4.73409">
        <ele>238</ele>
        <time>2024-05-08T12:15:27Z</time>
      </trkpt>
      <trkpt lat="49.85696" lon="4.7341">
        <ele>238</ele>
        <time>2024-05-08T12:15:28Z</time>
      </trkpt>
      <trkpt lat="49.85696" lon="4.73412">
        <ele>238</ele>
        <time>2024-05-08T12:15:29Z</time>
      </trkpt>
      <trkpt lat="49.85696" lon="4.73413">
        <ele>238</ele>
        <time>2024-05-08T12:15:30Z</time>
      </trkpt>
      <trkpt lat="49.85696" lon="4.73415">
        <ele>238</ele>
        <time>2024-05-08T12:15:31Z</time>
      </trkpt>
      <trkpt lat="49.85695" lon="4.73416">
        <ele>238</ele>
        <time>2024-05-08T12:15:32Z</time>
      </trkpt>
      <trkpt lat="49.85695" lon="4.73418">
        <ele>238</ele>
        <time>2024-05-08T12:15:33Z</time>
      </trkpt>
      <trkpt lat="49.85695" lon="4.73419">
        <ele>238</ele>
        <time>2024-05-08T12:15:34Z</time>
      </trkpt>
      <trkpt lat="49.85694" lon="4.7342">
        <ele>238</ele>
        <time>2024-05-08T12:15:35Z</time>
      </trkpt>
      <trkpt lat="49.85694" lon="4.73422">
        <ele>238</ele>
        <time>2024-05-08T12:15:36Z</time>
      </trkpt>
      <trkpt lat="49.85693" lon="4.73423">
        <ele>237</ele>
        <time>2024-05-08T12:15:37Z</time>
      </trkpt>
      <trkpt lat="49.85693" lon="4.73425">
        <ele>237</ele>
        <time>2024-05-08T12:15:38Z</time>
      </trkpt>
      <trkpt lat="49.85692" lon="4.73426">
        <ele>237</ele>
        <time>2024-05-08T12:15:39Z</time>
      </trkpt>
      <trkpt lat="49.85692" lon="4.73427">
        <ele>237</ele>
        <time>2024-05-08T12:15:40Z</time>
      </trkpt>
      <trkpt lat="49.85692" lon="4.73428">
        <ele>237</ele>
        <time>2024-05-08T12:15:41Z</time>
      </trkpt>
      <trkpt lat="49.85692" lon="4.73429">
        <ele>237</ele>
        <time>2024-05-08T12:15:42Z</time>
      </trkpt>
      <trkpt lat="49.85692" lon="4.7343">
        <ele>236</ele>
        <time>2024-05-08T12:15:50Z</time>
      </trkpt>
      <trkpt lat="49.85692" lon="4.73431">
        <ele>236</ele>
        <time>2024-05-08T12:15:51Z</time>
      </trkpt>
      <trkpt lat="49.85692" lon="4.73432">
        <ele>236</ele>
        <time>2024-05-08T12:15:52Z</time>
      </trkpt>
      <trkpt lat="49.85692" lon="4.73434">
        <ele>236</ele>
        <time>2024-05-08T12:15:53Z</time>
      </trkpt>
      <trkpt lat="49.85692" lon="4.73435">
        <ele>236</ele>
        <time>2024-05-08T12:15:54Z</time>
      </trkpt>
      <trkpt lat="49.85692" lon="4.73436">
        <ele>236</ele>
        <time>2024-05-08T12:15:55Z</time>
      </trkpt>
      <trkpt lat="49.85692" lon="4.73437">
        <ele>236</ele>
        <time>2024-05-08T12:15:56Z</time>
      </trkpt>
      <trkpt lat="49.85692" lon="4.73438">
        <ele>235</ele>
        <time>2024-05-08T12:15:57Z</time>
      </trkpt>
      <trkpt lat="49.85691" lon="4.73439">
        <ele>235</ele>
        <time>2024-05-08T12:15:58Z</time>
      </trkpt>
      <trkpt lat="49.85691" lon="4.73441">
        <ele>235</ele>
        <time>2024-05-08T12:15:59Z</time>
      </trkpt>
      <trkpt lat="49.85691" lon="4.73442">
        <ele>235</ele>
        <time>2024-05-08T12:16:00Z</time>
      </trkpt>
      <trkpt lat="49.85691" lon="4.73444">
        <ele>234</ele>
        <time>2024-05-08T12:17:28Z</time>
      </trkpt>
      <trkpt lat="49.85691" lon="4.73446">
        <ele>234</ele>
        <time>2024-05-08T12:17:29Z</time>
      </trkpt>
      <trkpt lat="49.85691" lon="4.73447">
        <ele>234</ele>
        <time>2024-05-08T12:17:30Z</time>
      </trkpt>
      <trkpt lat="49.85691" lon="4.73448">
        <ele>234</ele>
        <time>2024-05-08T12:17:31Z</time>
      </trkpt>
      <trkpt lat="49.8569" lon="4.73449">
        <ele>233</ele>
        <time>2024-05-08T12:17:32Z</time>
      </trkpt>
      <trkpt lat="49.8569" lon="4.7345">
        <ele>233</ele>
        <time>2024-05-08T12:17:33Z</time>
      </trkpt>
      <trkpt lat="49.85689" lon="4.73451">
        <ele>233</ele>
        <time>2024-05-08T12:17:34Z</time>
      </trkpt>
      <trkpt lat="49.85689" lon="4.73452">
        <ele>233</ele>
        <time>2024-05-08T12:17:35Z</time>
      </trkpt>
      <trkpt lat="49.85688" lon="4.73453">
        <ele>233</ele>
        <time>2024-05-08T12:17:36Z</time>
      </trkpt>
      <trkpt lat="49.85687" lon="4.73454">
        <ele>232</ele>
        <time>2024-05-08T12:17:37Z</time>
      </trkpt>
      <trkpt lat="49.85687" lon="4.73455">
        <ele>232</ele>
        <time>2024-05-08T12:17:38Z</time>
      </trkpt>
      <trkpt lat="49.85687" lon="4.73456">
        <ele>232</ele>
        <time>2024-05-08T12:17:39Z</time>
      </trkpt>
      <trkpt lat="49.85686" lon="4.73457">
        <ele>232</ele>
        <time>2024-05-08T12:17:40Z</time>
      </trkpt>
      <trkpt lat="49.85685" lon="4.73461">
        <ele>230</ele>
        <time>2024-05-08T12:17:59Z</time>
      </trkpt>
      <trkpt lat="49.85684" lon="4.73462">
        <ele>230</ele>
        <time>2024-05-08T12:18:00Z</time>
      </trkpt>
      <trkpt lat="49.85684" lon="4.73463">
        <ele>230</ele>
        <time>2024-05-08T12:18:01Z</time>
      </trkpt>
      <trkpt lat="49.85683" lon="4.73464">
        <ele>229</ele>
        <time>2024-05-08T12:18:02Z</time>
      </trkpt>
      <trkpt lat="49.85683" lon="4.73465">
        <ele>229</ele>
        <time>2024-05-08T12:18:03Z</time>
      </trkpt>
      <trkpt lat="49.85682" lon="4.73466">
        <ele>229</ele>
        <time>2024-05-08T12:18:04Z</time>
      </trkpt>
      <trkpt lat="49.85681" lon="4.73467">
        <ele>229</ele>
        <time>2024-05-08T12:18:05Z</time>
      </trkpt>
      <trkpt lat="49.8568" lon="4.73468">
        <ele>229</ele>
        <time>2024-05-08T12:18:06Z</time>
      </trkpt>
      <trkpt lat="49.85679" lon="4.73469">
        <ele>228</ele>
        <time>2024-05-08T12:18:07Z</time>
      </trkpt>
      <trkpt lat="49.85678" lon="4.7347">
        <ele>228</ele>
        <time>2024-05-08T12:18:08Z</time>
      </trkpt>
      <trkpt lat="49.85678" lon="4.7347">
        <ele>228</ele>
        <time>2024-05-08T12:18:09Z</time>
      </trkpt>
      <trkpt lat="49.85677" lon="4.73471">
        <ele>228</ele>
        <time>2024-05-08T12:18:10Z</time>
      </trkpt>
      <trkpt lat="49.85676" lon="4.73472">
        <ele>228</ele>
        <time>2024-05-08T12:18:11Z</time>
      </trkpt>
      <trkpt lat="49.85675" lon="4.73472">
        <ele>227</ele>
        <time>2024-05-08T12:18:12Z</time>
      </trkpt>
      <trkpt lat="49.85674" lon="4.73472">
        <ele>227</ele>
        <time>2024-05-08T12:18:13Z</time>
      </trkpt>
      <trkpt lat="49.85674" lon="4.73472">
        <ele>227</ele>
        <time>2024-05-08T12:18:14Z</time>
      </trkpt>
      <trkpt lat="49.85674" lon="4.73473">
        <ele>227</ele>
        <time>2024-05-08T12:18:15Z</time>
      </trkpt>
      <trkpt lat="49.85673" lon="4.73473">
        <ele>227</ele>
        <time>2024-05-08T12:18:16Z</time>
      </trkpt>
      <trkpt lat="49.85673" lon="4.73474">
        <ele>226</ele>
        <time>2024-05-08T12:18:17Z</time>
      </trkpt>
      <trkpt lat="49.85672" lon="4.73475">
        <ele>226</ele>
        <time>2024-05-08T12:18:18Z</time>
      </trkpt>
      <trkpt lat="49.85672" lon="4.73476">
        <ele>226</ele>
        <time>2024-05-08T12:18:19Z</time>
      </trkpt>
      <trkpt lat="49.85672" lon="4.73477">
        <ele>226</ele>
        <time>2024-05-08T12:18:20Z</time>
      </trkpt>
      <trkpt lat="49.85672" lon="4.73478">
        <ele>226</ele>
        <time>2024-05-08T12:18:21Z</time>
      </trkpt>
      <trkpt lat="49.85671" lon="4.73479">
        <ele>225</ele>
        <time>2024-05-08T12:18:22Z</time>
      </trkpt>
      <trkpt lat="49.85671" lon="4.7348">
        <ele>225</ele>
        <time>2024-05-08T12:18:23Z</time>
      </trkpt>
      <trkpt lat="49.8567" lon="4.73481">
        <ele>225</ele>
        <time>2024-05-08T12:18:24Z</time>
      </trkpt>
      <trkpt lat="49.8567" lon="4.73482">
        <ele>225</ele>
        <time>2024-05-08T12:18:25Z</time>
      </trkpt>
      <trkpt lat="49.85669" lon="4.73483">
        <ele>225</ele>
        <time>2024-05-08T12:18:26Z</time>
      </trkpt>
      <trkpt lat="49.85669" lon="4.73483">
        <ele>224</ele>
        <time>2024-05-08T12:18:27Z</time>
      </trkpt>
      <trkpt lat="49.85668" lon="4.73486">
        <ele>223</ele>
        <time>2024-05-08T12:18:35Z</time>
      </trkpt>
      <trkpt lat="49.85668" lon="4.73486">
        <ele>223</ele>
        <time>2024-05-08T12:18:36Z</time>
      </trkpt>
      <trkpt lat="49.85667" lon="4.73487">
        <ele>222</ele>
        <time>2024-05-08T12:18:37Z</time>
      </trkpt>
      <trkpt lat="49.85667" lon="4.73488">
        <ele>222</ele>
        <time>2024-05-08T12:18:38Z</time>
      </trkpt>
      <trkpt lat="49.85667" lon="4.73489">
        <ele>222</ele>
        <time>2024-05-08T12:18:39Z</time>
      </trkpt>
      <trkpt lat="49.85667" lon="4.7349">
        <ele>222</ele>
        <time>2024-05-08T12:18:40Z</time>
      </trkpt>
      <trkpt lat="49.85667" lon="4.73491">
        <ele>222</ele>
        <time>2024-05-08T12:18:41Z</time>
      </trkpt>
      <trkpt lat="49.85667" lon="4.73492">
        <ele>221</ele>
        <time>2024-05-08T12:18:42Z</time>
      </trkpt>
      <trkpt lat="49.85667" lon="4.73493">
        <ele>220</ele>
        <time>2024-05-08T12:18:43Z</time>
      </trkpt>
      <trkpt lat="49.85667" lon="4.73496">
        <ele>219</ele>
        <time>2024-05-08T12:18:50Z</time>
      </trkpt>
      <trkpt lat="49.85666" lon="4.73497">
        <ele>219</ele>
        <time>2024-05-08T12:18:51Z</time>
      </trkpt>
      <trkpt lat="49.85666" lon="4.73498">
        <ele>218</ele>
        <time>2024-05-08T12:18:52Z</time>
      </trkpt>
      <trkpt lat="49.85666" lon="4.73499">
        <ele>218</ele>
        <time>2024-05-08T12:18:53Z</time>
      </trkpt>
      <trkpt lat="49.85666" lon="4.73499">
        <ele>218</ele>
        <time>2024-05-08T12:18:54Z</time>
      </trkpt>
      <trkpt lat="49.85666" lon="4.735">
        <ele>218</ele>
        <time>2024-05-08T12:18:55Z</time>
      </trkpt>
      <trkpt lat="49.85666" lon="4.73502">
        <ele>218</ele>
        <time>2024-05-08T12:18:56Z</time>
      </trkpt>
      <trkpt lat="49.85665" lon="4.73503">
        <ele>217</ele>
        <time>2024-05-08T12:18:57Z</time>
      </trkpt>
      <trkpt lat="49.85665" lon="4.73504">
        <ele>217</ele>
        <time>2024-05-08T12:18:58Z</time>
      </trkpt>
      <trkpt lat="49.85665" lon="4.73505">
        <ele>217</ele>
        <time>2024-05-08T12:18:59Z</time>
      </trkpt>
      <trkpt lat="49.85665" lon="4.73506">
        <ele>217</ele>
        <time>2024-05-08T12:19:00Z</time>
      </trkpt>
      <trkpt lat="49.85664" lon="4.73507">
        <ele>217</ele>
        <time>2024-05-08T12:19:01Z</time>
      </trkpt>
      <trkpt lat="49.85664" lon="4.73509">
        <ele>216</ele>
        <time>2024-05-08T12:19:02Z</time>
      </trkpt>
      <trkpt lat="49.85664" lon="4.7351">
        <ele>216</ele>
        <time>2024-05-08T12:19:03Z</time>
      </trkpt>
      <trkpt lat="49.85663" lon="4.73511">
        <ele>215</ele>
        <time>2024-05-08T12:19:04Z</time>
      </trkpt>
      <trkpt lat="49.85663" lon="4.73513">
        <ele>215</ele>
        <time>2024-05-08T12:19:05Z</time>
      </trkpt>
      <trkpt lat="49.85662" lon="4.73514">
        <ele>215</ele>
        <time>2024-05-08T12:19:06Z</time>
      </trkpt>
      <trkpt lat="49.85662" lon="4.73515">
        <ele>214</ele>
        <time>2024-05-08T12:19:07Z</time>
      </trkpt>
      <trkpt lat="49.85662" lon="4.73515">
        <ele>214</ele>
        <time>2024-05-08T12:19:08Z</time>
      </trkpt>
      <trkpt lat="49.85662" lon="4.73516">
        <ele>214</ele>
        <time>2024-05-08T12:19:09Z</time>
      </trkpt>
      <trkpt lat="49.85662" lon="4.73516">
        <ele>214</ele>
        <time>2024-05-08T12:19:10Z</time>
      </trkpt>
      <trkpt lat="49.85662" lon="4.73517">
        <ele>214</ele>
        <time>2024-05-08T12:19:11Z</time>
      </trkpt>
      <trkpt lat="49.85662" lon="4.73517">
        <ele>213</ele>
        <time>2024-05-08T12:19:12Z</time>
      </trkpt>
      <trkpt lat="49.85662" lon="4.73518">
        <ele>213</ele>
        <time>2024-05-08T12:19:13Z</time>
      </trkpt>
      <trkpt lat="49.85662" lon="4.73519">
        <ele>213</ele>
        <time>2024-05-08T12:19:14Z</time>
      </trkpt>
      <trkpt lat="49.85662" lon="4.7352">
        <ele>213</ele>
        <time>2024-05-08T12:19:15Z</time>
      </trkpt>
      <trkpt lat="49.85662" lon="4.73521">
        <ele>213</ele>
        <time>2024-05-08T12:19:16Z</time>
      </trkpt>
      <trkpt lat="49.85662" lon="4.73523">
        <ele>212</ele>
        <time>2024-05-08T12:19:17Z</time>
      </trkpt>
      <trkpt lat="49.85661" lon="4.73524">
        <ele>212</ele>
        <time>2024-05-08T12:19:18Z</time>
      </trkpt>
      <trkpt lat="49.85661" lon="4.73525">
        <ele>212</ele>
        <time>2024-05-08T12:19:19Z</time>
      </trkpt>
      <trkpt lat="49.8566" lon="4.73526">
        <ele>212</ele>
        <time>2024-05-08T12:19:20Z</time>
      </trkpt>
      <trkpt lat="49.8566" lon="4.73527">
        <ele>212</ele>
        <time>2024-05-08T12:19:21Z</time>
      </trkpt>
      <trkpt lat="49.85659" lon="4.73528">
        <ele>211</ele>
        <time>2024-05-08T12:19:22Z</time>
      </trkpt>
      <trkpt lat="49.85659" lon="4.73529">
        <ele>211</ele>
        <time>2024-05-08T12:19:23Z</time>
      </trkpt>
      <trkpt lat="49.85658" lon="4.7353">
        <ele>210</ele>
        <time>2024-05-08T12:19:24Z</time>
      </trkpt>
      <trkpt lat="49.85657" lon="4.73531">
        <ele>210</ele>
        <time>2024-05-08T12:19:25Z</time>
      </trkpt>
      <trkpt lat="49.85657" lon="4.73531">
        <ele>210</ele>
        <time>2024-05-08T12:19:26Z</time>
      </trkpt>
      <trkpt lat="49.85656" lon="4.73532">
        <ele>209</ele>
        <time>2024-05-08T12:19:27Z</time>
      </trkpt>
      <trkpt lat="49.85655" lon="4.73532">
        <ele>209</ele>
        <time>2024-05-08T12:19:28Z</time>
      </trkpt>
      <trkpt lat="49.85654" lon="4.73532">
        <ele>209</ele>
        <time>2024-05-08T12:19:29Z</time>
      </trkpt>
      <trkpt lat="49.85653" lon="4.73532">
        <ele>209</ele>
        <time>2024-05-08T12:19:30Z</time>
      </trkpt>
      <trkpt lat="49.85652" lon="4.73532">
        <ele>209</ele>
        <time>2024-05-08T12:19:31Z</time>
      </trkpt>
      <trkpt lat="49.85651" lon="4.73532">
        <ele>208</ele>
        <time>2024-05-08T12:19:32Z</time>
      </trkpt>
      <trkpt lat="49.85651" lon="4.73532">
        <ele>208</ele>
        <time>2024-05-08T12:19:33Z</time>
      </trkpt>
      <trkpt lat="49.8565" lon="4.73533">
        <ele>207</ele>
        <time>2024-05-08T12:19:34Z</time>
      </trkpt>
      <trkpt lat="49.85649" lon="4.73533">
        <ele>207</ele>
        <time>2024-05-08T12:19:35Z</time>
      </trkpt>
      <trkpt lat="49.85649" lon="4.73533">
        <ele>207</ele>
        <time>2024-05-08T12:19:36Z</time>
      </trkpt>
      <trkpt lat="49.85648" lon="4.73533">
        <ele>206</ele>
        <time>2024-05-08T12:19:37Z</time>
      </trkpt>
      <trkpt lat="49.85647" lon="4.73534">
        <ele>206</ele>
        <time>2024-05-08T12:19:38Z</time>
      </trkpt>
      <trkpt lat="49.85646" lon="4.73535">
        <ele>206</ele>
        <time>2024-05-08T12:19:51Z</time>
      </trkpt>
      <trkpt lat="49.85646" lon="4.73535">
        <ele>205</ele>
        <time>2024-05-08T12:19:52Z</time>
      </trkpt>
      <trkpt lat="49.85645" lon="4.73536">
        <ele>205</ele>
        <time>2024-05-08T12:19:53Z</time>
      </trkpt>
      <trkpt lat="49.85645" lon="4.73537">
        <ele>205</ele>
        <time>2024-05-08T12:19:54Z</time>
      </trkpt>
      <trkpt lat="49.85644" lon="4.73537">
        <ele>205</ele>
        <time>2024-05-08T12:19:55Z</time>
      </trkpt>
      <trkpt lat="49.85643" lon="4.73538">
        <ele>205</ele>
        <time>2024-05-08T12:19:56Z</time>
      </trkpt>
      <trkpt lat="49.85643" lon="4.73538">
        <ele>204</ele>
        <time>2024-05-08T12:19:57Z</time>
      </trkpt>
      <trkpt lat="49.85642" lon="4.73538">
        <ele>204</ele>
        <time>2024-05-08T12:19:58Z</time>
      </trkpt>
      <trkpt lat="49.85641" lon="4.73539">
        <ele>204</ele>
        <time>2024-05-08T12:19:59Z</time>
      </trkpt>
      <trkpt lat="49.8564" lon="4.73539">
        <ele>204</ele>
        <time>2024-05-08T12:20:00Z</time>
      </trkpt>
      <trkpt lat="49.8564" lon="4.73539">
        <ele>204</ele>
        <time>2024-05-08T12:20:01Z</time>
      </trkpt>
      <trkpt lat="49.85639" lon="4.73539">
        <ele>203</ele>
        <time>2024-05-08T12:20:02Z</time>
      </trkpt>
      <trkpt lat="49.85639" lon="4.73539">
        <ele>203</ele>
        <time>2024-05-08T12:20:03Z</time>
      </trkpt>
      <trkpt lat="49.85638" lon="4.73539">
        <ele>203</ele>
        <time>2024-05-08T12:20:04Z</time>
      </trkpt>
      <trkpt lat="49.85637" lon="4.73539">
        <ele>203</ele>
        <time>2024-05-08T12:20:05Z</time>
      </trkpt>
      <trkpt lat="49.85636" lon="4.73539">
        <ele>203</ele>
        <time>2024-05-08T12:20:06Z</time>
      </trkpt>
      <trkpt lat="49.85636" lon="4.73539">
        <ele>202</ele>
        <time>2024-05-08T12:20:07Z</time>
      </trkpt>
      <trkpt lat="49.85635" lon="4.73539">
        <ele>202</ele>
        <time>2024-05-08T12:20:08Z</time>
      </trkpt>
      <trkpt lat="49.85635" lon="4.73539">
        <ele>202</ele>
        <time>2024-05-08T12:20:09Z</time>
      </trkpt>
      <trkpt lat="49.85634" lon="4.73539">
        <ele>202</ele>
        <time>2024-05-08T12:20:10Z</time>
      </trkpt>
      <trkpt lat="49.85633" lon="4.73539">
        <ele>202</ele>
        <time>2024-05-08T12:20:11Z</time>
      </trkpt>
      <trkpt lat="49.85633" lon="4.73539">
        <ele>201</ele>
        <time>2024-05-08T12:20:12Z</time>
      </trkpt>
      <trkpt lat="49.85632" lon="4.73539">
        <ele>201</ele>
        <time>2024-05-08T12:20:13Z</time>
      </trkpt>
      <trkpt lat="49.85631" lon="4.73539">
        <ele>201</ele>
        <time>2024-05-08T12:20:14Z</time>
      </trkpt>
      <trkpt lat="49.85631" lon="4.73539">
        <ele>201</ele>
        <time>2024-05-08T12:20:15Z</time>
      </trkpt>
      <trkpt lat="49.8563" lon="4.73539">
        <ele>201</ele>
        <time>2024-05-08T12:20:16Z</time>
      </trkpt>
      <trkpt lat="49.85629" lon="4.73538">
        <ele>200</ele>
        <time>2024-05-08T12:20:17Z</time>
      </trkpt>
      <trkpt lat="49.85629" lon="4.73538">
        <ele>200</ele>
        <time>2024-05-08T12:20:18Z</time>
      </trkpt>
      <trkpt lat="49.85628" lon="4.73537">
        <ele>199</ele>
        <time>2024-05-08T12:20:19Z</time>
      </trkpt>
      <trkpt lat="49.85627" lon="4.73537">
        <ele>199</ele>
        <time>2024-05-08T12:20:20Z</time>
      </trkpt>
      <trkpt lat="49.85627" lon="4.73537">
        <ele>199</ele>
        <time>2024-05-08T12:20:21Z</time>
      </trkpt>
      <trkpt lat="49.85626" lon="4.73536">
        <ele>198</ele>
        <time>2024-05-08T12:20:22Z</time>
      </trkpt>
      <trkpt lat="49.85625" lon="4.73536">
        <ele>198</ele>
        <time>2024-05-08T12:20:23Z</time>
      </trkpt>
      <trkpt lat="49.85625" lon="4.73536">
        <ele>198</ele>
        <time>2024-05-08T12:20:24Z</time>
      </trkpt>
      <trkpt lat="49.85624" lon="4.73535">
        <ele>198</ele>
        <time>2024-05-08T12:20:25Z</time>
      </trkpt>
      <trkpt lat="49.85624" lon="4.73535">
        <ele>198</ele>
        <time>2024-05-08T12:20:26Z</time>
      </trkpt>
      <trkpt lat="49.85623" lon="4.73535">
        <ele>197</ele>
        <time>2024-05-08T12:20:27Z</time>
      </trkpt>
      <trkpt lat="49.85623" lon="4.73535">
        <ele>197</ele>
        <time>2024-05-08T12:20:28Z</time>
      </trkpt>
      <trkpt lat="49.85622" lon="4.73535">
        <ele>197</ele>
        <time>2024-05-08T12:20:29Z</time>
      </trkpt>
      <trkpt lat="49.85622" lon="4.73535">
        <ele>197</ele>
        <time>2024-05-08T12:20:30Z</time>
      </trkpt>
      <trkpt lat="49.85621" lon="4.73535">
        <ele>197</ele>
        <time>2024-05-08T12:20:31Z</time>
      </trkpt>
      <trkpt lat="49.8562" lon="4.73535">
        <ele>196</ele>
        <time>2024-05-08T12:20:32Z</time>
      </trkpt>
      <trkpt lat="49.8562" lon="4.73535">
        <ele>196</ele>
        <time>2024-05-08T12:20:33Z</time>
      </trkpt>
      <trkpt lat="49.85619" lon="4.73535">
        <ele>196</ele>
        <time>2024-05-08T12:20:40Z</time>
      </trkpt>
      <trkpt lat="49.85619" lon="4.73535">
        <ele>196</ele>
        <time>2024-05-08T12:20:41Z</time>
      </trkpt>
      <trkpt lat="49.85619" lon="4.73535">
        <ele>195</ele>
        <time>2024-05-08T12:20:42Z</time>
      </trkpt>
      <trkpt lat="49.85618" lon="4.73535">
        <ele>195</ele>
        <time>2024-05-08T12:20:43Z</time>
      </trkpt>
      <trkpt lat="49.85617" lon="4.73535">
        <ele>195</ele>
        <time>2024-05-08T12:20:44Z</time>
      </trkpt>
      <trkpt lat="49.85616" lon="4.73534">
        <ele>195</ele>
        <time>2024-05-08T12:20:45Z</time>
      </trkpt>
      <trkpt lat="49.85616" lon="4.73534">
        <ele>195</ele>
        <time>2024-05-08T12:20:46Z</time>
      </trkpt>
      <trkpt lat="49.85615" lon="4.73533">
        <ele>195</ele>
        <time>2024-05-08T12:20:47Z</time>
      </trkpt>
      <trkpt lat="49.85614" lon="4.73531">
        <ele>195</ele>
        <time>2024-05-08T12:20:48Z</time>
      </trkpt>
      <trkpt lat="49.85613" lon="4.7353">
        <ele>195</ele>
        <time>2024-05-08T12:20:49Z</time>
      </trkpt>
      <trkpt lat="49.85613" lon="4.73528">
        <ele>195</ele>
        <time>2024-05-08T12:20:50Z</time>
      </trkpt>
      <trkpt lat="49.85612" lon="4.73526">
        <ele>195</ele>
        <time>2024-05-08T12:20:51Z</time>
      </trkpt>
      <trkpt lat="49.85612" lon="4.73524">
        <ele>195</ele>
        <time>2024-05-08T12:20:52Z</time>
      </trkpt>
      <trkpt lat="49.85612" lon="4.73522">
        <ele>195</ele>
        <time>2024-05-08T12:20:53Z</time>
      </trkpt>
      <trkpt lat="49.85611" lon="4.73521">
        <ele>195</ele>
        <time>2024-05-08T12:20:54Z</time>
      </trkpt>
      <trkpt lat="49.85611" lon="4.73519">
        <ele>195</ele>
        <time>2024-05-08T12:20:55Z</time>
      </trkpt>
      <trkpt lat="49.85611" lon="4.73517">
        <ele>195</ele>
        <time>2024-05-08T12:20:56Z</time>
      </trkpt>
      <trkpt lat="49.8561" lon="4.73515">
        <ele>195</ele>
        <time>2024-05-08T12:21:10Z</time>
      </trkpt>
      <trkpt lat="49.8561" lon="4.73514">
        <ele>195</ele>
        <time>2024-05-08T12:21:11Z</time>
      </trkpt>
      <trkpt lat="49.8561" lon="4.73513">
        <ele>195</ele>
        <time>2024-05-08T12:21:12Z</time>
      </trkpt>
      <trkpt lat="49.85609" lon="4.73512">
        <ele>195</ele>
        <time>2024-05-08T12:21:13Z</time>
      </trkpt>
      <trkpt lat="49.85609" lon="4.73511">
        <ele>195</ele>
        <time>2024-05-08T12:21:14Z</time>
      </trkpt>
      <trkpt lat="49.85608" lon="4.7351">
        <ele>195</ele>
        <time>2024-05-08T12:21:15Z</time>
      </trkpt>
      <trkpt lat="49.85608" lon="4.73509">
        <ele>195</ele>
        <time>2024-05-08T12:21:16Z</time>
      </trkpt>
      <trkpt lat="49.85607" lon="4.73508">
        <ele>195</ele>
        <time>2024-05-08T12:21:17Z</time>
      </trkpt>
      <trkpt lat="49.85607" lon="4.73506">
        <ele>195</ele>
        <time>2024-05-08T12:21:18Z</time>
      </trkpt>
      <trkpt lat="49.85606" lon="4.73505">
        <ele>195</ele>
        <time>2024-05-08T12:21:19Z</time>
      </trkpt>
      <trkpt lat="49.85605" lon="4.73503">
        <ele>195</ele>
        <time>2024-05-08T12:21:20Z</time>
      </trkpt>
      <trkpt lat="49.85605" lon="4.73502">
        <ele>195</ele>
        <time>2024-05-08T12:21:21Z</time>
      </trkpt>
      <trkpt lat="49.85604" lon="4.73501">
        <ele>195</ele>
        <time>2024-05-08T12:21:22Z</time>
      </trkpt>
      <trkpt lat="49.85604" lon="4.735">
        <ele>195</ele>
        <time>2024-05-08T12:21:23Z</time>
      </trkpt>
      <trkpt lat="49.85603" lon="4.73499">
        <ele>195</ele>
        <time>2024-05-08T12:21:24Z</time>
      </trkpt>
      <trkpt lat="49.85603" lon="4.73498">
        <ele>195</ele>
        <time>2024-05-08T12:21:25Z</time>
      </trkpt>
      <trkpt lat="49.85602" lon="4.73497">
        <ele>195</ele>
        <time>2024-05-08T12:21:26Z</time>
      </trkpt>
      <trkpt lat="49.85602" lon="4.73496">
        <ele>195</ele>
        <time>2024-05-08T12:21:27Z</time>
      </trkpt>
      <trkpt lat="49.85601" lon="4.73494">
        <ele>195</ele>
        <time>2024-05-08T12:21:28Z</time>
      </trkpt>
      <trkpt lat="49.85601" lon="4.73493">
        <ele>195</ele>
        <time>2024-05-08T12:21:29Z</time>
      </trkpt>
      <trkpt lat="49.85601" lon="4.73492">
        <ele>195</ele>
        <time>2024-05-08T12:21:30Z</time>
      </trkpt>
      <trkpt lat="49.856" lon="4.7349">
        <ele>195</ele>
        <time>2024-05-08T12:21:31Z</time>
      </trkpt>
      <trkpt lat="49.85599" lon="4.73488">
        <ele>195</ele>
        <time>2024-05-08T12:21:32Z</time>
      </trkpt>
      <trkpt lat="49.85599" lon="4.73487">
        <ele>195</ele>
        <time>2024-05-08T12:21:33Z</time>
      </trkpt>
      <trkpt lat="49.85599" lon="4.73486">
        <ele>195</ele>
        <time>2024-05-08T12:21:34Z</time>
      </trkpt>
      <trkpt lat="49.85598" lon="4.73485">
        <ele>195</ele>
        <time>2024-05-08T12:21:35Z</time>
      </trkpt>
      <trkpt lat="49.85598" lon="4.73484">
        <ele>195</ele>
        <time>2024-05-08T12:21:36Z</time>
      </trkpt>
      <trkpt lat="49.85598" lon="4.73483">
        <ele>195</ele>
        <time>2024-05-08T12:21:37Z</time>
      </trkpt>
      <trkpt lat="49.85597" lon="4.73482">
        <ele>195</ele>
        <time>2024-05-08T12:21:38Z</time>
      </trkpt>
      <trkpt lat="49.85597" lon="4.73481">
        <ele>195</ele>
        <time>2024-05-08T12:21:39Z</time>
      </trkpt>
      <trkpt lat="49.85597" lon="4.73481">
        <ele>195</ele>
        <time>2024-05-08T12:21:40Z</time>
      </trkpt>
      <trkpt lat="49.85596" lon="4.7348">
        <ele>195</ele>
        <time>2024-05-08T12:21:41Z</time>
      </trkpt>
      <trkpt lat="49.85596" lon="4.73479">
        <ele>195</ele>
        <time>2024-05-08T12:21:42Z</time>
      </trkpt>
      <trkpt lat="49.85596" lon="4.73478">
        <ele>195</ele>
        <time>2024-05-08T12:21:43Z</time>
      </trkpt>
      <trkpt lat="49.85595" lon="4.73477">
        <ele>195</ele>
        <time>2024-05-08T12:21:44Z</time>
      </trkpt>
      <trkpt lat="49.85595" lon="4.73475">
        <ele>195</ele>
        <time>2024-05-08T12:21:45Z</time>
      </trkpt>
      <trkpt lat="49.85594" lon="4.73473">
        <ele>195</ele>
        <time>2024-05-08T12:21:46Z</time>
      </trkpt>
      <trkpt lat="49.85594" lon="4.73471">
        <ele>195</ele>
        <time>2024-05-08T12:21:47Z</time>
      </trkpt>
      <trkpt lat="49.85593" lon="4.73469">
        <ele>195</ele>
        <time>2024-05-08T12:21:48Z</time>
      </trkpt>
      <trkpt lat="49.85593" lon="4.73468">
        <ele>195</ele>
        <time>2024-05-08T12:21:49Z</time>
      </trkpt>
      <trkpt lat="49.85592" lon="4.73466">
        <ele>195</ele>
        <time>2024-05-08T12:21:50Z</time>
      </trkpt>
      <trkpt lat="49.85592" lon="4.73465">
        <ele>195</ele>
        <time>2024-05-08T12:21:51Z</time>
      </trkpt>
      <trkpt lat="49.85591" lon="4.73463">
        <ele>195</ele>
        <time>2024-05-08T12:21:52Z</time>
      </trkpt>
      <trkpt lat="49.85591" lon="4.73462">
        <ele>195</ele>
        <time>2024-05-08T12:21:53Z</time>
      </trkpt>
      <trkpt lat="49.8559" lon="4.7346">
        <ele>195</ele>
        <time>2024-05-08T12:21:54Z</time>
      </trkpt>
      <trkpt lat="49.8559" lon="4.73458">
        <ele>195</ele>
        <time>2024-05-08T12:21:55Z</time>
      </trkpt>
      <trkpt lat="49.85589" lon="4.73457">
        <ele>195</ele>
        <time>2024-05-08T12:21:56Z</time>
      </trkpt>
      <trkpt lat="49.85589" lon="4.73455">
        <ele>195</ele>
        <time>2024-05-08T12:21:57Z</time>
      </trkpt>
      <trkpt lat="49.85588" lon="4.73454">
        <ele>195</ele>
        <time>2024-05-08T12:21:58Z</time>
      </trkpt>
      <trkpt lat="49.85588" lon="4.73452">
        <ele>195</ele>
        <time>2024-05-08T12:21:59Z</time>
      </trkpt>
      <trkpt lat="49.85587" lon="4.73451">
        <ele>195</ele>
        <time>2024-05-08T12:22:00Z</time>
      </trkpt>
      <trkpt lat="49.85586" lon="4.73449">
        <ele>195</ele>
        <time>2024-05-08T12:22:01Z</time>
      </trkpt>
      <trkpt lat="49.85586" lon="4.73448">
        <ele>195</ele>
        <time>2024-05-08T12:22:02Z</time>
      </trkpt>
      <trkpt lat="49.85585" lon="4.73447">
        <ele>195</ele>
        <time>2024-05-08T12:22:03Z</time>
      </trkpt>
      <trkpt lat="49.85585" lon="4.73446">
        <ele>195</ele>
        <time>2024-05-08T12:22:04Z</time>
      </trkpt>
      <trkpt lat="49.85584" lon="4.73445">
        <ele>195</ele>
        <time>2024-05-08T12:22:05Z</time>
      </trkpt>
      <trkpt lat="49.85583" lon="4.73443">
        <ele>195</ele>
        <time>2024-05-08T12:22:06Z</time>
      </trkpt>
      <trkpt lat="49.85583" lon="4.73442">
        <ele>195</ele>
        <time>2024-05-08T12:22:07Z</time>
      </trkpt>
      <trkpt lat="49.85582" lon="4.73441">
        <ele>195</ele>
        <time>2024-05-08T12:22:08Z</time>
      </trkpt>
      <trkpt lat="49.85582" lon="4.73439">
        <ele>195</ele>
        <time>2024-05-08T12:22:09Z</time>
      </trkpt>
      <trkpt lat="49.85581" lon="4.73438">
        <ele>195</ele>
        <time>2024-05-08T12:22:10Z</time>
      </trkpt>
      <trkpt lat="49.8558" lon="4.73437">
        <ele>195</ele>
        <time>2024-05-08T12:22:11Z</time>
      </trkpt>
      <trkpt lat="49.85579" lon="4.73435">
        <ele>195</ele>
        <time>2024-05-08T12:22:12Z</time>
      </trkpt>
      <trkpt lat="49.85578" lon="4.73434">
        <ele>195</ele>
        <time>2024-05-08T12:22:13Z</time>
      </trkpt>
      <trkpt lat="49.85578" lon="4.73433">
        <ele>195</ele>
        <time>2024-05-08T12:22:14Z</time>
      </trkpt>
      <trkpt lat="49.85577" lon="4.73432">
        <ele>195</ele>
        <time>2024-05-08T12:22:15Z</time>
      </trkpt>
      <trkpt lat="49.85576" lon="4.7343">
        <ele>195</ele>
        <time>2024-05-08T12:22:16Z</time>
      </trkpt>
      <trkpt lat="49.85575" lon="4.73429">
        <ele>195</ele>
        <time>2024-05-08T12:22:17Z</time>
      </trkpt>
      <trkpt lat="49.85575" lon="4.73427">
        <ele>195</ele>
        <time>2024-05-08T12:22:18Z</time>
      </trkpt>
      <trkpt lat="49.85575" lon="4.73425">
        <ele>195</ele>
        <time>2024-05-08T12:22:19Z</time>
      </trkpt>
      <trkpt lat="49.85574" lon="4.73424">
        <ele>195</ele>
        <time>2024-05-08T12:22:20Z</time>
      </trkpt>
      <trkpt lat="49.85574" lon="4.73422">
        <ele>195</ele>
        <time>2024-05-08T12:22:21Z</time>
      </trkpt>
      <trkpt lat="49.85573" lon="4.73421">
        <ele>195</ele>
        <time>2024-05-08T12:22:22Z</time>
      </trkpt>
      <trkpt lat="49.85573" lon="4.73419">
        <ele>195</ele>
        <time>2024-05-08T12:22:23Z</time>
      </trkpt>
      <trkpt lat="49.85572" lon="4.73418">
        <ele>195</ele>
        <time>2024-05-08T12:22:24Z</time>
      </trkpt>
      <trkpt lat="49.85571" lon="4.73416">
        <ele>195</ele>
        <time>2024-05-08T12:22:25Z</time>
      </trkpt>
      <trkpt lat="49.85571" lon="4.73415">
        <ele>195</ele>
        <time>2024-05-08T12:22:26Z</time>
      </trkpt>
      <trkpt lat="49.8557" lon="4.73414">
        <ele>195</ele>
        <time>2024-05-08T12:22:27Z</time>
      </trkpt>
      <trkpt lat="49.8557" lon="4.73412">
        <ele>195</ele>
        <time>2024-05-08T12:22:28Z</time>
      </trkpt>
      <trkpt lat="49.85569" lon="4.73411">
        <ele>195</ele>
        <time>2024-05-08T12:22:29Z</time>
      </trkpt>
      <trkpt lat="49.85568" lon="4.7341">
        <ele>195</ele>
        <time>2024-05-08T12:22:30Z</time>
      </trkpt>
      <trkpt lat="49.85567" lon="4.73408">
        <ele>195</ele>
        <time>2024-05-08T12:22:31Z</time>
      </trkpt>
      <trkpt lat="49.85566" lon="4.73407">
        <ele>195</ele>
        <time>2024-05-08T12:22:32Z</time>
      </trkpt>
      <trkpt lat="49.85565" lon="4.73405">
        <ele>195</ele>
        <time>2024-05-08T12:22:33Z</time>
      </trkpt>
      <trkpt lat="49.85564" lon="4.73404">
        <ele>195</ele>
        <time>2024-05-08T12:22:34Z</time>
      </trkpt>
      <trkpt lat="49.85564" lon="4.73403">
        <ele>195</ele>
        <time>2024-05-08T12:22:35Z</time>
      </trkpt>
      <trkpt lat="49.85563" lon="4.73402">
        <ele>195</ele>
        <time>2024-05-08T12:22:36Z</time>
      </trkpt>
      <trkpt lat="49.85562" lon="4.73401">
        <ele>195</ele>
        <time>2024-05-08T12:22:37Z</time>
      </trkpt>
      <trkpt lat="49.85561" lon="4.734">
        <ele>195</ele>
        <time>2024-05-08T12:22:38Z</time>
      </trkpt>
      <trkpt lat="49.8556" lon="4.73399">
        <ele>195</ele>
        <time>2024-05-08T12:22:39Z</time>
      </trkpt>
      <trkpt lat="49.85559" lon="4.73397">
        <ele>195</ele>
        <time>2024-05-08T12:22:40Z</time>
      </trkpt>
      <trkpt lat="49.85558" lon="4.73396">
        <ele>195</ele>
        <time>2024-05-08T12:22:41Z</time>
      </trkpt>
      <trkpt lat="49.85557" lon="4.73395">
        <ele>195</ele>
        <time>2024-05-08T12:22:42Z</time>
      </trkpt>
      <trkpt lat="49.85556" lon="4.73393">
        <ele>195</ele>
        <time>2024-05-08T12:22:43Z</time>
      </trkpt>
      <trkpt lat="49.85556" lon="4.73392">
        <ele>195</ele>
        <time>2024-05-08T12:22:44Z</time>
      </trkpt>
      <trkpt lat="49.85555" lon="4.7339">
        <ele>195</ele>
        <time>2024-05-08T12:22:45Z</time>
      </trkpt>
      <trkpt lat="49.85554" lon="4.73389">
        <ele>195</ele>
        <time>2024-05-08T12:22:46Z</time>
      </trkpt>
      <trkpt lat="49.85553" lon="4.73388">
        <ele>195</ele>
        <time>2024-05-08T12:22:47Z</time>
      </trkpt>
      <trkpt lat="49.85553" lon="4.73386">
        <ele>195</ele>
        <time>2024-05-08T12:22:48Z</time>
      </trkpt>
      <trkpt lat="49.85552" lon="4.73385">
        <ele>195</ele>
        <time>2024-05-08T12:22:49Z</time>
      </trkpt>
      <trkpt lat="49.85551" lon="4.73384">
        <ele>195</ele>
        <time>2024-05-08T12:22:50Z</time>
      </trkpt>
      <trkpt lat="49.8555" lon="4.73382">
        <ele>195</ele>
        <time>2024-05-08T12:22:51Z</time>
      </trkpt>
      <trkpt lat="49.85549" lon="4.73381">
        <ele>195</ele>
        <time>2024-05-08T12:22:52Z</time>
      </trkpt>
      <trkpt lat="49.85548" lon="4.7338">
        <ele>195</ele>
        <time>2024-05-08T12:22:53Z</time>
      </trkpt>
      <trkpt lat="49.85547" lon="4.73379">
        <ele>195</ele>
        <time>2024-05-08T12:22:54Z</time>
      </trkpt>
      <trkpt lat="49.85546" lon="4.73378">
        <ele>195</ele>
        <time>2024-05-08T12:22:55Z</time>
      </trkpt>
      <trkpt lat="49.85546" lon="4.73376">
        <ele>195</ele>
        <time>2024-05-08T12:22:56Z</time>
      </trkpt>
      <trkpt lat="49.85545" lon="4.73375">
        <ele>195</ele>
        <time>2024-05-08T12:22:57Z</time>
      </trkpt>
      <trkpt lat="49.85545" lon="4.73374">
        <ele>195</ele>
        <time>2024-05-08T12:22:58Z</time>
      </trkpt>
      <trkpt lat="49.85544" lon="4.73372">
        <ele>195</ele>
        <time>2024-05-08T12:22:59Z</time>
      </trkpt>
      <trkpt lat="49.85544" lon="4.7337">
        <ele>195</ele>
        <time>2024-05-08T12:23:00Z</time>
      </trkpt>
      <trkpt lat="49.85543" lon="4.73368">
        <ele>195</ele>
        <time>2024-05-08T12:23:01Z</time>
      </trkpt>
      <trkpt lat="49.85542" lon="4.73367">
        <ele>195</ele>
        <time>2024-05-08T12:23:02Z</time>
      </trkpt>
      <trkpt lat="49.85541" lon="4.73365">
        <ele>195</ele>
        <time>2024-05-08T12:23:03Z</time>
      </trkpt>
      <trkpt lat="49.85541" lon="4.73364">
        <ele>195</ele>
        <time>2024-05-08T12:23:04Z</time>
      </trkpt>
      <trkpt lat="49.8554" lon="4.73362">
        <ele>195</ele>
        <time>2024-05-08T12:23:05Z</time>
      </trkpt>
      <trkpt lat="49.85539" lon="4.7336">
        <ele>195</ele>
        <time>2024-05-08T12:23:06Z</time>
      </trkpt>
      <trkpt lat="49.85538" lon="4.73358">
        <ele>195</ele>
        <time>2024-05-08T12:23:07Z</time>
      </trkpt>
      <trkpt lat="49.85538" lon="4.73357">
        <ele>195</ele>
        <time>2024-05-08T12:23:08Z</time>
      </trkpt>
      <trkpt lat="49.85537" lon="4.73355">
        <ele>195</ele>
        <time>2024-05-08T12:23:09Z</time>
      </trkpt>
      <trkpt lat="49.85536" lon="4.73353">
        <ele>195</ele>
        <time>2024-05-08T12:23:10Z</time>
      </trkpt>
      <trkpt lat="49.85536" lon="4.73351">
        <ele>195</ele>
        <time>2024-05-08T12:23:11Z</time>
      </trkpt>
      <trkpt lat="49.85535" lon="4.7335">
        <ele>195</ele>
        <time>2024-05-08T12:23:12Z</time>
      </trkpt>
      <trkpt lat="49.85534" lon="4.73348">
        <ele>195</ele>
        <time>2024-05-08T12:23:13Z</time>
      </trkpt>
      <trkpt lat="49.85534" lon="4.73346">
        <ele>195</ele>
        <time>2024-05-08T12:23:14Z</time>
      </trkpt>
      <trkpt lat="49.85533" lon="4.73344">
        <ele>195</ele>
        <time>2024-05-08T12:23:15Z</time>
      </trkpt>
      <trkpt lat="49.85532" lon="4.73343">
        <ele>195</ele>
        <time>2024-05-08T12:23:16Z</time>
      </trkpt>
      <trkpt lat="49.85532" lon="4.73341">
        <ele>195</ele>
        <time>2024-05-08T12:23:17Z</time>
      </trkpt>
      <trkpt lat="49.85531" lon="4.7334">
        <ele>195</ele>
        <time>2024-05-08T12:23:18Z</time>
      </trkpt>
      <trkpt lat="49.8553" lon="4.73339">
        <ele>195</ele>
        <time>2024-05-08T12:23:19Z</time>
      </trkpt>
      <trkpt lat="49.85529" lon="4.73337">
        <ele>195</ele>
        <time>2024-05-08T12:23:20Z</time>
      </trkpt>
      <trkpt lat="49.85529" lon="4.73336">
        <ele>195</ele>
        <time>2024-05-08T12:23:21Z</time>
      </trkpt>
      <trkpt lat="49.85529" lon="4.73336">
        <ele>195</ele>
        <time>2024-05-08T12:23:22Z</time>
      </trkpt>
      <trkpt lat="49.85528" lon="4.73335">
        <ele>195</ele>
        <time>2024-05-08T12:23:23Z</time>
      </trkpt>
      <trkpt lat="49.85528" lon="4.73335">
        <ele>195</ele>
        <time>2024-05-08T12:23:24Z</time>
      </trkpt>
      <trkpt lat="49.85528" lon="4.73335">
        <ele>195</ele>
        <time>2024-05-08T12:23:25Z</time>
      </trkpt>
      <trkpt lat="49.85528" lon="4.73335">
        <ele>195</ele>
        <time>2024-05-08T12:23:26Z</time>
      </trkpt>
      <trkpt lat="49.85528" lon="4.73334">
        <ele>195</ele>
        <time>2024-05-08T12:23:27Z</time>
      </trkpt>
      <trkpt lat="49.85528" lon="4.73335">
        <ele>195</ele>
        <time>2024-05-08T12:23:28Z</time>
      </trkpt>
      <trkpt lat="49.85528" lon="4.73335">
        <ele>195</ele>
        <time>2024-05-08T12:23:29Z</time>
      </trkpt>
      <trkpt lat="49.85529" lon="4.73336">
        <ele>195</ele>
        <time>2024-05-08T12:23:30Z</time>
      </trkpt>
      <trkpt lat="49.85529" lon="4.73337">
        <ele>195</ele>
        <time>2024-05-08T12:23:31Z</time>
      </trkpt>
      <trkpt lat="49.8553" lon="4.73338">
        <ele>195</ele>
        <time>2024-05-08T12:23:32Z</time>
      </trkpt>
      <trkpt lat="49.8553" lon="4.73338">
        <ele>195</ele>
        <time>2024-05-08T12:23:33Z</time>
      </trkpt>
      <trkpt lat="49.85531" lon="4.73339">
        <ele>195</ele>
        <time>2024-05-08T12:23:34Z</time>
      </trkpt>
      <trkpt lat="49.85531" lon="4.7334">
        <ele>195</ele>
        <time>2024-05-08T12:23:35Z</time>
      </trkpt>
      <trkpt lat="49.85532" lon="4.73341">
        <ele>195</ele>
        <time>2024-05-08T12:23:36Z</time>
      </trkpt>
      <trkpt lat="49.85532" lon="4.73342">
        <ele>195</ele>
        <time>2024-05-08T12:23:37Z</time>
      </trkpt>
      <trkpt lat="49.85533" lon="4.73343">
        <ele>195</ele>
        <time>2024-05-08T12:23:38Z</time>
      </trkpt>
      <trkpt lat="49.85534" lon="4.73344">
        <ele>195</ele>
        <time>2024-05-08T12:23:39Z</time>
      </trkpt>
      <trkpt lat="49.85534" lon="4.73345">
        <ele>195</ele>
        <time>2024-05-08T12:23:40Z</time>
      </trkpt>
      <trkpt lat="49.85535" lon="4.73346">
        <ele>195</ele>
        <time>2024-05-08T12:23:41Z</time>
      </trkpt>
      <trkpt lat="49.85535" lon="4.73347">
        <ele>195</ele>
        <time>2024-05-08T12:23:42Z</time>
      </trkpt>
      <trkpt lat="49.85536" lon="4.73348">
        <ele>195</ele>
        <time>2024-05-08T12:23:43Z</time>
      </trkpt>
      <trkpt lat="49.85536" lon="4.73349">
        <ele>195</ele>
        <time>2024-05-08T12:23:44Z</time>
      </trkpt>
      <trkpt lat="49.85537" lon="4.7335">
        <ele>195</ele>
        <time>2024-05-08T12:23:45Z</time>
      </trkpt>
      <trkpt lat="49.85537" lon="4.73351">
        <ele>195</ele>
        <time>2024-05-08T12:23:46Z</time>
      </trkpt>
      <trkpt lat="49.85538" lon="4.73352">
        <ele>195</ele>
        <time>2024-05-08T12:23:47Z</time>
      </trkpt>
      <trkpt lat="49.85538" lon="4.73353">
        <ele>195</ele>
        <time>2024-05-08T12:23:48Z</time>
      </trkpt>
      <trkpt lat="49.85539" lon="4.73355">
        <ele>195</ele>
        <time>2024-05-08T12:23:49Z</time>
      </trkpt>
      <trkpt lat="49.85539" lon="4.73356">
        <ele>195</ele>
        <time>2024-05-08T12:23:50Z</time>
      </trkpt>
      <trkpt lat="49.8554" lon="4.73357">
        <ele>195</ele>
        <time>2024-05-08T12:23:51Z</time>
      </trkpt>
      <trkpt lat="49.8554" lon="4.73358">
        <ele>195</ele>
        <time>2024-05-08T12:23:52Z</time>
      </trkpt>
      <trkpt lat="49.85541" lon="4.73359">
        <ele>195</ele>
        <time>2024-05-08T12:23:53Z</time>
      </trkpt>
      <trkpt lat="49.85541" lon="4.7336">
        <ele>195</ele>
        <time>2024-05-08T12:23:54Z</time>
      </trkpt>
      <trkpt lat="49.85542" lon="4.73362">
        <ele>195</ele>
        <time>2024-05-08T12:23:55Z</time>
      </trkpt>
      <trkpt lat="49.85543" lon="4.73363">
        <ele>195</ele>
        <time>2024-05-08T12:23:56Z</time>
      </trkpt>
      <trkpt lat="49.85544" lon="4.73365">
        <ele>194</ele>
        <time>2024-05-08T12:23:57Z</time>
      </trkpt>
      <trkpt lat="49.85544" lon="4.73366">
        <ele>194</ele>
        <time>2024-05-08T12:23:58Z</time>
      </trkpt>
      <trkpt lat="49.85545" lon="4.73368">
        <ele>194</ele>
        <time>2024-05-08T12:23:59Z</time>
      </trkpt>
      <trkpt lat="49.85546" lon="4.73369">
        <ele>194</ele>
        <time>2024-05-08T12:24:00Z</time>
      </trkpt>
      <trkpt lat="49.85547" lon="4.73371">
        <ele>194</ele>
        <time>2024-05-08T12:24:01Z</time>
      </trkpt>
      <trkpt lat="49.85547" lon="4.73372">
        <ele>194</ele>
        <time>2024-05-08T12:24:02Z</time>
      </trkpt>
      <trkpt lat="49.85548" lon="4.73373">
        <ele>194</ele>
        <time>2024-05-08T12:24:03Z</time>
      </trkpt>
      <trkpt lat="49.85549" lon="4.73375">
        <ele>194</ele>
        <time>2024-05-08T12:24:04Z</time>
      </trkpt>
      <trkpt lat="49.8555" lon="4.73376">
        <ele>194</ele>
        <time>2024-05-08T12:24:05Z</time>
      </trkpt>
      <trkpt lat="49.85551" lon="4.73378">
        <ele>194</ele>
        <time>2024-05-08T12:24:06Z</time>
      </trkpt>
      <trkpt lat="49.85552" lon="4.73379">
        <ele>194</ele>
        <time>2024-05-08T12:24:07Z</time>
      </trkpt>
      <trkpt lat="49.85553" lon="4.73381">
        <ele>194</ele>
        <time>2024-05-08T12:24:08Z</time>
      </trkpt>
      <trkpt lat="49.85554" lon="4.73382">
        <ele>194</ele>
        <time>2024-05-08T12:24:09Z</time>
      </trkpt>
      <trkpt lat="49.85555" lon="4.73383">
        <ele>194</ele>
        <time>2024-05-08T12:24:10Z</time>
      </trkpt>
      <trkpt lat="49.85556" lon="4.73384">
        <ele>195</ele>
        <time>2024-05-08T12:24:11Z</time>
      </trkpt>
      <trkpt lat="49.85556" lon="4.73386">
        <ele>194</ele>
        <time>2024-05-08T12:24:12Z</time>
      </trkpt>
      <trkpt lat="49.85557" lon="4.73387">
        <ele>194</ele>
        <time>2024-05-08T12:24:13Z</time>
      </trkpt>
      <trkpt lat="49.85557" lon="4.73388">
        <ele>194</ele>
        <time>2024-05-08T12:24:14Z</time>
      </trkpt>
      <trkpt lat="49.85557" lon="4.73389">
        <ele>194</ele>
        <time>2024-05-08T12:24:15Z</time>
      </trkpt>
      <trkpt lat="49.85556" lon="4.7339">
        <ele>194</ele>
        <time>2024-05-08T12:24:16Z</time>
      </trkpt>
      <trkpt lat="49.85556" lon="4.73391">
        <ele>193</ele>
        <time>2024-05-08T12:24:17Z</time>
      </trkpt>
      <trkpt lat="49.85556" lon="4.73391">
        <ele>193</ele>
        <time>2024-05-08T12:24:18Z</time>
      </trkpt>
      <trkpt lat="49.85556" lon="4.73392">
        <ele>193</ele>
        <time>2024-05-08T12:24:19Z</time>
      </trkpt>
      <trkpt lat="49.85555" lon="4.73392">
        <ele>193</ele>
        <time>2024-05-08T12:24:20Z</time>
      </trkpt>
      <trkpt lat="49.85555" lon="4.73393">
        <ele>193</ele>
        <time>2024-05-08T12:24:21Z</time>
      </trkpt>
      <trkpt lat="49.85554" lon="4.73395">
        <ele>192</ele>
        <time>2024-05-08T12:24:22Z</time>
      </trkpt>
      <trkpt lat="49.85554" lon="4.73396">
        <ele>192</ele>
        <time>2024-05-08T12:24:23Z</time>
      </trkpt>
      <trkpt lat="49.85554" lon="4.73397">
        <ele>191</ele>
        <time>2024-05-08T12:24:24Z</time>
      </trkpt>
      <trkpt lat="49.85554" lon="4.73398">
        <ele>191</ele>
        <time>2024-05-08T12:24:25Z</time>
      </trkpt>
      <trkpt lat="49.85554" lon="4.73399">
        <ele>191</ele>
        <time>2024-05-08T12:24:26Z</time>
      </trkpt>
      <trkpt lat="49.85554" lon="4.734">
        <ele>190</ele>
        <time>2024-05-08T12:24:27Z</time>
      </trkpt>
      <trkpt lat="49.85554" lon="4.73401">
        <ele>190</ele>
        <time>2024-05-08T12:24:28Z</time>
      </trkpt>
      <trkpt lat="49.85554" lon="4.73403">
        <ele>190</ele>
        <time>2024-05-08T12:24:29Z</time>
      </trkpt>
      <trkpt lat="49.85554" lon="4.73404">
        <ele>190</ele>
        <time>2024-05-08T12:24:30Z</time>
      </trkpt>
      <trkpt lat="49.85554" lon="4.73405">
        <ele>190</ele>
        <time>2024-05-08T12:24:31Z</time>
      </trkpt>
      <trkpt lat="49.85554" lon="4.73406">
        <ele>189</ele>
        <time>2024-05-08T12:24:32Z</time>
      </trkpt>
      <trkpt lat="49.85555" lon="4.73407">
        <ele>189</ele>
        <time>2024-05-08T12:24:33Z</time>
      </trkpt>
      <trkpt lat="49.85555" lon="4.73409">
        <ele>189</ele>
        <time>2024-05-08T12:24:34Z</time>
      </trkpt>
      <trkpt lat="49.85555" lon="4.7341">
        <ele>189</ele>
        <time>2024-05-08T12:24:35Z</time>
      </trkpt>
      <trkpt lat="49.85556" lon="4.73411">
        <ele>189</ele>
        <time>2024-05-08T12:24:36Z</time>
      </trkpt>
      <trkpt lat="49.85556" lon="4.73412">
        <ele>188</ele>
        <time>2024-05-08T12:24:37Z</time>
      </trkpt>
      <trkpt lat="49.85557" lon="4.73414">
        <ele>188</ele>
        <time>2024-05-08T12:24:38Z</time>
      </trkpt>
      <trkpt lat="49.85557" lon="4.73415">
        <ele>187</ele>
        <time>2024-05-08T12:24:39Z</time>
      </trkpt>
      <trkpt lat="49.85557" lon="4.73416">
        <ele>187</ele>
        <time>2024-05-08T12:24:40Z</time>
      </trkpt>
      <trkpt lat="49.85557" lon="4.73417">
        <ele>187</ele>
        <time>2024-05-08T12:24:41Z</time>
      </trkpt>
      <trkpt lat="49.85558" lon="4.73418">
        <ele>186</ele>
        <time>2024-05-08T12:24:42Z</time>
      </trkpt>
      <trkpt lat="49.85558" lon="4.73419">
        <ele>186</ele>
        <time>2024-05-08T12:24:43Z</time>
      </trkpt>
      <trkpt lat="49.85558" lon="4.73421">
        <ele>186</ele>
        <time>2024-05-08T12:24:44Z</time>
      </trkpt>
      <trkpt lat="49.85558" lon="4.73422">
        <ele>186</ele>
        <time>2024-05-08T12:24:45Z</time>
      </trkpt>
      <trkpt lat="49.85558" lon="4.73423">
        <ele>186</ele>
        <time>2024-05-08T12:24:46Z</time>
      </trkpt>
      <trkpt lat="49.85558" lon="4.73425">
        <ele>185</ele>
        <time>2024-05-08T12:24:47Z</time>
      </trkpt>
      <trkpt lat="49.85559" lon="4.73426">
        <ele>185</ele>
        <time>2024-05-08T12:24:48Z</time>
      </trkpt>
      <trkpt lat="49.85559" lon="4.73428">
        <ele>185</ele>
        <time>2024-05-08T12:24:49Z</time>
      </trkpt>
      <trkpt lat="49.85559" lon="4.73429">
        <ele>185</ele>
        <time>2024-05-08T12:24:50Z</time>
      </trkpt>
      <trkpt lat="49.8556" lon="4.73431">
        <ele>185</ele>
        <time>2024-05-08T12:24:51Z</time>
      </trkpt>
      <trkpt lat="49.8556" lon="4.73432">
        <ele>184</ele>
        <time>2024-05-08T12:24:52Z</time>
      </trkpt>
      <trkpt lat="49.8556" lon="4.73433">
        <ele>184</ele>
        <time>2024-05-08T12:24:53Z</time>
      </trkpt>
      <trkpt lat="49.8556" lon="4.73434">
        <ele>184</ele>
        <time>2024-05-08T12:24:54Z</time>
      </trkpt>
      <trkpt lat="49.8556" lon="4.73436">
        <ele>184</ele>
        <time>2024-05-08T12:24:55Z</time>
      </trkpt>
      <trkpt lat="49.8556" lon="4.73437">
        <ele>184</ele>
        <time>2024-05-08T12:24:56Z</time>
      </trkpt>
      <trkpt lat="49.85559" lon="4.73438">
        <ele>183</ele>
        <time>2024-05-08T12:24:57Z</time>
      </trkpt>
      <trkpt lat="49.85559" lon="4.73439">
        <ele>183</ele>
        <time>2024-05-08T12:24:58Z</time>
      </trkpt>
      <trkpt lat="49.85558" lon="4.7344">
        <ele>182</ele>
        <time>2024-05-08T12:25:09Z</time>
      </trkpt>
      <trkpt lat="49.85557" lon="4.73441">
        <ele>182</ele>
        <time>2024-05-08T12:25:10Z</time>
      </trkpt>
      <trkpt lat="49.85557" lon="4.73443">
        <ele>182</ele>
        <time>2024-05-08T12:25:11Z</time>
      </trkpt>
      <trkpt lat="49.85556" lon="4.73444">
        <ele>181</ele>
        <time>2024-05-08T12:25:12Z</time>
      </trkpt>
      <trkpt lat="49.85556" lon="4.73445">
        <ele>181</ele>
        <time>2024-05-08T12:25:13Z</time>
      </trkpt>
      <trkpt lat="49.85555" lon="4.73446">
        <ele>181</ele>
        <time>2024-05-08T12:25:14Z</time>
      </trkpt>
      <trkpt lat="49.85555" lon="4.73447">
        <ele>181</ele>
        <time>2024-05-08T12:25:15Z</time>
      </trkpt>
      <trkpt lat="49.85554" lon="4.73448">
        <ele>181</ele>
        <time>2024-05-08T12:25:16Z</time>
      </trkpt>
      <trkpt lat="49.85554" lon="4.73449">
        <ele>180</ele>
        <time>2024-05-08T12:25:17Z</time>
      </trkpt>
      <trkpt lat="49.85553" lon="4.7345">
        <ele>180</ele>
        <time>2024-05-08T12:25:18Z</time>
      </trkpt>
      <trkpt lat="49.85553" lon="4.73451">
        <ele>180</ele>
        <time>2024-05-08T12:25:19Z</time>
      </trkpt>
      <trkpt lat="49.85553" lon="4.73452">
        <ele>180</ele>
        <time>2024-05-08T12:25:20Z</time>
      </trkpt>
      <trkpt lat="49.85552" lon="4.73453">
        <ele>180</ele>
        <time>2024-05-08T12:25:21Z</time>
      </trkpt>
      <trkpt lat="49.85552" lon="4.73454">
        <ele>179</ele>
        <time>2024-05-08T12:25:22Z</time>
      </trkpt>
      <trkpt lat="49.85552" lon="4.73455">
        <ele>179</ele>
        <time>2024-05-08T12:25:23Z</time>
      </trkpt>
      <trkpt lat="49.85552" lon="4.73457">
        <ele>179</ele>
        <time>2024-05-08T12:25:24Z</time>
      </trkpt>
      <trkpt lat="49.85551" lon="4.73458">
        <ele>179</ele>
        <time>2024-05-08T12:25:25Z</time>
      </trkpt>
      <trkpt lat="49.85551" lon="4.73459">
        <ele>179</ele>
        <time>2024-05-08T12:25:26Z</time>
      </trkpt>
      <trkpt lat="49.85551" lon="4.73461">
        <ele>178</ele>
        <time>2024-05-08T12:25:27Z</time>
      </trkpt>
      <trkpt lat="49.85551" lon="4.73462">
        <ele>178</ele>
        <time>2024-05-08T12:25:28Z</time>
      </trkpt>
      <trkpt lat="49.85551" lon="4.73463">
        <ele>178</ele>
        <time>2024-05-08T12:25:29Z</time>
      </trkpt>
      <trkpt lat="49.85551" lon="4.73464">
        <ele>178</ele>
        <time>2024-05-08T12:25:30Z</time>
      </trkpt>
      <trkpt lat="49.85551" lon="4.73466">
        <ele>178</ele>
        <time>2024-05-08T12:25:31Z</time>
      </trkpt>
      <trkpt lat="49.85551" lon="4.73466">
        <ele>177</ele>
        <time>2024-05-08T12:25:32Z</time>
      </trkpt>
      <trkpt lat="49.85551" lon="4.73467">
        <ele>177</ele>
        <time>2024-05-08T12:25:33Z</time>
      </trkpt>
      <trkpt lat="49.85552" lon="4.73468">
        <ele>177</ele>
        <time>2024-05-08T12:25:34Z</time>
      </trkpt>
      <trkpt lat="49.85552" lon="4.73469">
        <ele>177</ele>
        <time>2024-05-08T12:25:35Z</time>
      </trkpt>
      <trkpt lat="49.85552" lon="4.7347">
        <ele>177</ele>
        <time>2024-05-08T12:25:36Z</time>
      </trkpt>
      <trkpt lat="49.85552" lon="4.73471">
        <ele>176</ele>
        <time>2024-05-08T12:25:37Z</time>
      </trkpt>
      <trkpt lat="49.85552" lon="4.73472">
        <ele>176</ele>
        <time>2024-05-08T12:25:38Z</time>
      </trkpt>
      <trkpt lat="49.85551" lon="4.73473">
        <ele>175</ele>
        <time>2024-05-08T12:25:39Z</time>
      </trkpt>
      <trkpt lat="49.85551" lon="4.73474">
        <ele>175</ele>
        <time>2024-05-08T12:25:40Z</time>
      </trkpt>
      <trkpt lat="49.8555" lon="4.73475">
        <ele>175</ele>
        <time>2024-05-08T12:25:41Z</time>
      </trkpt>
      <trkpt lat="49.85549" lon="4.73477">
        <ele>174</ele>
        <time>2024-05-08T12:25:42Z</time>
      </trkpt>
      <trkpt lat="49.85549" lon="4.73478">
        <ele>174</ele>
        <time>2024-05-08T12:25:43Z</time>
      </trkpt>
      <trkpt lat="49.85548" lon="4.73479">
        <ele>174</ele>
        <time>2024-05-08T12:25:44Z</time>
      </trkpt>
      <trkpt lat="49.85547" lon="4.7348">
        <ele>174</ele>
        <time>2024-05-08T12:25:45Z</time>
      </trkpt>
      <trkpt lat="49.85546" lon="4.73482">
        <ele>174</ele>
        <time>2024-05-08T12:25:46Z</time>
      </trkpt>
      <trkpt lat="49.85546" lon="4.73483">
        <ele>173</ele>
        <time>2024-05-08T12:25:47Z</time>
      </trkpt>
      <trkpt lat="49.85545" lon="4.73484">
        <ele>173</ele>
        <time>2024-05-08T12:25:48Z</time>
      </trkpt>
      <trkpt lat="49.85544" lon="4.73486">
        <ele>172</ele>
        <time>2024-05-08T12:25:49Z</time>
      </trkpt>
      <trkpt lat="49.85544" lon="4.73487">
        <ele>172</ele>
        <time>2024-05-08T12:25:50Z</time>
      </trkpt>
      <trkpt lat="49.85543" lon="4.73488">
        <ele>172</ele>
        <time>2024-05-08T12:25:51Z</time>
      </trkpt>
      <trkpt lat="49.85542" lon="4.73489">
        <ele>171</ele>
        <time>2024-05-08T12:25:52Z</time>
      </trkpt>
      <trkpt lat="49.85541" lon="4.7349">
        <ele>171</ele>
        <time>2024-05-08T12:25:53Z</time>
      </trkpt>
      <trkpt lat="49.85541" lon="4.73491">
        <ele>171</ele>
        <time>2024-05-08T12:25:54Z</time>
      </trkpt>
      <trkpt lat="49.8554" lon="4.73491">
        <ele>171</ele>
        <time>2024-05-08T12:25:55Z</time>
      </trkpt>
      <trkpt lat="49.8554" lon="4.73492">
        <ele>171</ele>
        <time>2024-05-08T12:25:56Z</time>
      </trkpt>
      <trkpt lat="49.85539" lon="4.73492">
        <ele>170</ele>
        <time>2024-05-08T12:25:57Z</time>
      </trkpt>
      <trkpt lat="49.85538" lon="4.73493">
        <ele>170</ele>
        <time>2024-05-08T12:25:58Z</time>
      </trkpt>
      <trkpt lat="49.85537" lon="4.73494">
        <ele>170</ele>
        <time>2024-05-08T12:25:59Z</time>
      </trkpt>
      <trkpt lat="49.85537" lon="4.73495">
        <ele>170</ele>
        <time>2024-05-08T12:26:00Z</time>
      </trkpt>
      <trkpt lat="49.85536" lon="4.73495">
        <ele>170</ele>
        <time>2024-05-08T12:26:01Z</time>
      </trkpt>
      <trkpt lat="49.85535" lon="4.73496">
        <ele>170</ele>
        <time>2024-05-08T12:26:02Z</time>
      </trkpt>
      <trkpt lat="49.85534" lon="4.73497">
        <ele>170</ele>
        <time>2024-05-08T12:26:03Z</time>
      </trkpt>
      <trkpt lat="49.85533" lon="4.73498">
        <ele>170</ele>
        <time>2024-05-08T12:26:04Z</time>
      </trkpt>
      <trkpt lat="49.85532" lon="4.73498">
        <ele>170</ele>
        <time>2024-05-08T12:26:05Z</time>
      </trkpt>
      <trkpt lat="49.85531" lon="4.73499">
        <ele>170</ele>
        <time>2024-05-08T12:26:06Z</time>
      </trkpt>
      <trkpt lat="49.85531" lon="4.73499">
        <ele>169</ele>
        <time>2024-05-08T12:26:07Z</time>
      </trkpt>
      <trkpt lat="49.8553" lon="4.735">
        <ele>169</ele>
        <time>2024-05-08T12:26:08Z</time>
      </trkpt>
      <trkpt lat="49.85529" lon="4.735">
        <ele>169</ele>
        <time>2024-05-08T12:26:09Z</time>
      </trkpt>
      <trkpt lat="49.85528" lon="4.73501">
        <ele>169</ele>
        <time>2024-05-08T12:26:10Z</time>
      </trkpt>
      <trkpt lat="49.85527" lon="4.73502">
        <ele>169</ele>
        <time>2024-05-08T12:26:11Z</time>
      </trkpt>
      <trkpt lat="49.85526" lon="4.73502">
        <ele>168</ele>
        <time>2024-05-08T12:26:12Z</time>
      </trkpt>
      <trkpt lat="49.85525" lon="4.73503">
        <ele>168</ele>
        <time>2024-05-08T12:26:13Z</time>
      </trkpt>
      <trkpt lat="49.85525" lon="4.73504">
        <ele>168</ele>
        <time>2024-05-08T12:26:14Z</time>
      </trkpt>
      <trkpt lat="49.85524" lon="4.73505">
        <ele>168</ele>
        <time>2024-05-08T12:26:15Z</time>
      </trkpt>
      <trkpt lat="49.85523" lon="4.73506">
        <ele>168</ele>
        <time>2024-05-08T12:26:16Z</time>
      </trkpt>
      <trkpt lat="49.85522" lon="4.73507">
        <ele>167</ele>
        <time>2024-05-08T12:26:17Z</time>
      </trkpt>
      <trkpt lat="49.85521" lon="4.73508">
        <ele>167</ele>
        <time>2024-05-08T12:26:18Z</time>
      </trkpt>
      <trkpt lat="49.8552" lon="4.73509">
        <ele>167</ele>
        <time>2024-05-08T12:26:19Z</time>
      </trkpt>
      <trkpt lat="49.8552" lon="4.7351">
        <ele>167</ele>
        <time>2024-05-08T12:26:20Z</time>
      </trkpt>
      <trkpt lat="49.85519" lon="4.7351">
        <ele>167</ele>
        <time>2024-05-08T12:26:21Z</time>
      </trkpt>
      <trkpt lat="49.85518" lon="4.73511">
        <ele>166</ele>
        <time>2024-05-08T12:26:22Z</time>
      </trkpt>
      <trkpt lat="49.85517" lon="4.73512">
        <ele>166</ele>
        <time>2024-05-08T12:26:23Z</time>
      </trkpt>
      <trkpt lat="49.85516" lon="4.73512">
        <ele>166</ele>
        <time>2024-05-08T12:26:24Z</time>
      </trkpt>
      <trkpt lat="49.85516" lon="4.73513">
        <ele>166</ele>
        <time>2024-05-08T12:26:25Z</time>
      </trkpt>
      <trkpt lat="49.85515" lon="4.73514">
        <ele>166</ele>
        <time>2024-05-08T12:26:26Z</time>
      </trkpt>
      <trkpt lat="49.85514" lon="4.73514">
        <ele>165</ele>
        <time>2024-05-08T12:26:27Z</time>
      </trkpt>
      <trkpt lat="49.85513" lon="4.73515">
        <ele>165</ele>
        <time>2024-05-08T12:26:28Z</time>
      </trkpt>
      <trkpt lat="49.85512" lon="4.73515">
        <ele>165</ele>
        <time>2024-05-08T12:26:29Z</time>
      </trkpt>
      <trkpt lat="49.85511" lon="4.73516">
        <ele>165</ele>
        <time>2024-05-08T12:26:30Z</time>
      </trkpt>
      <trkpt lat="49.85511" lon="4.73517">
        <ele>165</ele>
        <time>2024-05-08T12:26:31Z</time>
      </trkpt>
      <trkpt lat="49.8551" lon="4.73518">
        <ele>164</ele>
        <time>2024-05-08T12:26:32Z</time>
      </trkpt>
      <trkpt lat="49.85509" lon="4.73518">
        <ele>164</ele>
        <time>2024-05-08T12:26:33Z</time>
      </trkpt>
      <trkpt lat="49.85508" lon="4.73519">
        <ele>164</ele>
        <time>2024-05-08T12:26:34Z</time>
      </trkpt>
      <trkpt lat="49.85507" lon="4.7352">
        <ele>164</ele>
        <time>2024-05-08T12:26:35Z</time>
      </trkpt>
      <trkpt lat="49.85506" lon="4.73521">
        <ele>164</ele>
        <time>2024-05-08T12:26:36Z</time>
      </trkpt>
      <trkpt lat="49.85505" lon="4.73522">
        <ele>163</ele>
        <time>2024-05-08T12:26:37Z</time>
      </trkpt>
      <trkpt lat="49.85504" lon="4.73523">
        <ele>163</ele>
        <time>2024-05-08T12:26:38Z</time>
      </trkpt>
      <trkpt lat="49.85504" lon="4.73525">
        <ele>163</ele>
        <time>2024-05-08T12:26:39Z</time>
      </trkpt>
      <trkpt lat="49.85503" lon="4.73526">
        <ele>163</ele>
        <time>2024-05-08T12:26:40Z</time>
      </trkpt>
      <trkpt lat="49.85504" lon="4.73528">
        <ele>163</ele>
        <time>2024-05-08T12:26:41Z</time>
      </trkpt>
      <trkpt lat="49.85504" lon="4.73529">
        <ele>163</ele>
        <time>2024-05-08T12:26:42Z</time>
      </trkpt>
      <trkpt lat="49.85504" lon="4.7353">
        <ele>163</ele>
        <time>2024-05-08T12:26:43Z</time>
      </trkpt>
      <trkpt lat="49.85505" lon="4.73532">
        <ele>163</ele>
        <time>2024-05-08T12:26:44Z</time>
      </trkpt>
      <trkpt lat="49.85505" lon="4.73533">
        <ele>163</ele>
        <time>2024-05-08T12:26:45Z</time>
      </trkpt>
      <trkpt lat="49.85506" lon="4.73535">
        <ele>163</ele>
        <time>2024-05-08T12:26:46Z</time>
      </trkpt>
      <trkpt lat="49.85507" lon="4.73536">
        <ele>162</ele>
        <time>2024-05-08T12:26:47Z</time>
      </trkpt>
      <trkpt lat="49.85507" lon="4.73537">
        <ele>162</ele>
        <time>2024-05-08T12:26:48Z</time>
      </trkpt>
      <trkpt lat="49.85508" lon="4.73538">
        <ele>162</ele>
        <time>2024-05-08T12:26:49Z</time>
      </trkpt>
      <trkpt lat="49.85509" lon="4.7354">
        <ele>162</ele>
        <time>2024-05-08T12:26:50Z</time>
      </trkpt>
      <trkpt lat="49.8551" lon="4.73541">
        <ele>162</ele>
        <time>2024-05-08T12:26:51Z</time>
      </trkpt>
      <trkpt lat="49.8551" lon="4.73543">
        <ele>162</ele>
        <time>2024-05-08T12:26:52Z</time>
      </trkpt>
      <trkpt lat="49.85511" lon="4.73544">
        <ele>162</ele>
        <time>2024-05-08T12:26:53Z</time>
      </trkpt>
      <trkpt lat="49.85512" lon="4.73546">
        <ele>162</ele>
        <time>2024-05-08T12:26:54Z</time>
      </trkpt>
      <trkpt lat="49.85513" lon="4.73547">
        <ele>162</ele>
        <time>2024-05-08T12:26:55Z</time>
      </trkpt>
      <trkpt lat="49.85513" lon="4.73549">
        <ele>162</ele>
        <time>2024-05-08T12:26:56Z</time>
      </trkpt>
      <trkpt lat="49.85514" lon="4.7355">
        <ele>161</ele>
        <time>2024-05-08T12:26:57Z</time>
      </trkpt>
      <trkpt lat="49.85515" lon="4.73551">
        <ele>161</ele>
        <time>2024-05-08T12:26:58Z</time>
      </trkpt>
      <trkpt lat="49.85515" lon="4.73553">
        <ele>161</ele>
        <time>2024-05-08T12:26:59Z</time>
      </trkpt>
      <trkpt lat="49.85516" lon="4.73554">
        <ele>161</ele>
        <time>2024-05-08T12:27:00Z</time>
      </trkpt>
      <trkpt lat="49.85516" lon="4.73555">
        <ele>161</ele>
        <time>2024-05-08T12:27:01Z</time>
      </trkpt>
      <trkpt lat="49.85517" lon="4.73557">
        <ele>161</ele>
        <time>2024-05-08T12:27:02Z</time>
      </trkpt>
      <trkpt lat="49.85517" lon="4.73558">
        <ele>161</ele>
        <time>2024-05-08T12:27:03Z</time>
      </trkpt>
      <trkpt lat="49.85517" lon="4.7356">
        <ele>161</ele>
        <time>2024-05-08T12:27:04Z</time>
      </trkpt>
      <trkpt lat="49.85518" lon="4.73561">
        <ele>161</ele>
        <time>2024-05-08T12:27:05Z</time>
      </trkpt>
      <trkpt lat="49.85518" lon="4.73563">
        <ele>161</ele>
        <time>2024-05-08T12:27:06Z</time>
      </trkpt>
      <trkpt lat="49.85518" lon="4.73564">
        <ele>160</ele>
        <time>2024-05-08T12:27:07Z</time>
      </trkpt>
      <trkpt lat="49.85519" lon="4.73566">
        <ele>160</ele>
        <time>2024-05-08T12:27:08Z</time>
      </trkpt>
      <trkpt lat="49.85519" lon="4.73567">
        <ele>160</ele>
        <time>2024-05-08T12:27:09Z</time>
      </trkpt>
      <trkpt lat="49.85519" lon="4.73569">
        <ele>160</ele>
        <time>2024-05-08T12:27:10Z</time>
      </trkpt>
      <trkpt lat="49.85519" lon="4.73571">
        <ele>160</ele>
        <time>2024-05-08T12:27:11Z</time>
      </trkpt>
      <trkpt lat="49.85519" lon="4.73572">
        <ele>160</ele>
        <time>2024-05-08T12:27:12Z</time>
      </trkpt>
      <trkpt lat="49.85519" lon="4.73574">
        <ele>160</ele>
        <time>2024-05-08T12:27:13Z</time>
      </trkpt>
      <trkpt lat="49.85519" lon="4.73575">
        <ele>160</ele>
        <time>2024-05-08T12:27:14Z</time>
      </trkpt>
      <trkpt lat="49.85519" lon="4.73576">
        <ele>160</ele>
        <time>2024-05-08T12:27:15Z</time>
      </trkpt>
      <trkpt lat="49.85519" lon="4.73577">
        <ele>160</ele>
        <time>2024-05-08T12:27:16Z</time>
      </trkpt>
      <trkpt lat="49.8552" lon="4.73578">
        <ele>160</ele>
        <time>2024-05-08T12:27:17Z</time>
      </trkpt>
      <trkpt lat="49.8552" lon="4.7358">
        <ele>160</ele>
        <time>2024-05-08T12:27:18Z</time>
      </trkpt>
      <trkpt lat="49.85521" lon="4.73581">
        <ele>160</ele>
        <time>2024-05-08T12:27:19Z</time>
      </trkpt>
      <trkpt lat="49.85522" lon="4.73582">
        <ele>160</ele>
        <time>2024-05-08T12:27:20Z</time>
      </trkpt>
      <trkpt lat="49.85522" lon="4.73583">
        <ele>160</ele>
        <time>2024-05-08T12:27:21Z</time>
      </trkpt>
      <trkpt lat="49.85523" lon="4.73585">
        <ele>159</ele>
        <time>2024-05-08T12:27:22Z</time>
      </trkpt>
      <trkpt lat="49.85523" lon="4.73586">
        <ele>159</ele>
        <time>2024-05-08T12:27:23Z</time>
      </trkpt>
      <trkpt lat="49.85524" lon="4.73588">
        <ele>159</ele>
        <time>2024-05-08T12:27:24Z</time>
      </trkpt>
      <trkpt lat="49.85524" lon="4.73589">
        <ele>159</ele>
        <time>2024-05-08T12:27:25Z</time>
      </trkpt>
      <trkpt lat="49.85525" lon="4.7359">
        <ele>159</ele>
        <time>2024-05-08T12:27:26Z</time>
      </trkpt>
      <trkpt lat="49.85525" lon="4.73592">
        <ele>159</ele>
        <time>2024-05-08T12:27:27Z</time>
      </trkpt>
      <trkpt lat="49.85526" lon="4.73593">
        <ele>159</ele>
        <time>2024-05-08T12:27:28Z</time>
      </trkpt>
      <trkpt lat="49.85526" lon="4.73595">
        <ele>159</ele>
        <time>2024-05-08T12:27:29Z</time>
      </trkpt>
      <trkpt lat="49.85527" lon="4.73596">
        <ele>159</ele>
        <time>2024-05-08T12:27:30Z</time>
      </trkpt>
      <trkpt lat="49.85527" lon="4.73598">
        <ele>159</ele>
        <time>2024-05-08T12:27:31Z</time>
      </trkpt>
      <trkpt lat="49.85528" lon="4.73599">
        <ele>158</ele>
        <time>2024-05-08T12:27:32Z</time>
      </trkpt>
      <trkpt lat="49.85528" lon="4.73601">
        <ele>158</ele>
        <time>2024-05-08T12:27:33Z</time>
      </trkpt>
      <trkpt lat="49.85528" lon="4.73603">
        <ele>158</ele>
        <time>2024-05-08T12:27:34Z</time>
      </trkpt>
      <trkpt lat="49.85529" lon="4.73604">
        <ele>158</ele>
        <time>2024-05-08T12:27:35Z</time>
      </trkpt>
      <trkpt lat="49.85529" lon="4.73606">
        <ele>158</ele>
        <time>2024-05-08T12:27:36Z</time>
      </trkpt>
      <trkpt lat="49.85529" lon="4.73607">
        <ele>157</ele>
        <time>2024-05-08T12:27:37Z</time>
      </trkpt>
      <trkpt lat="49.8553" lon="4.73609">
        <ele>157</ele>
        <time>2024-05-08T12:27:38Z</time>
      </trkpt>
      <trkpt lat="49.8553" lon="4.73611">
        <ele>157</ele>
        <time>2024-05-08T12:27:39Z</time>
      </trkpt>
      <trkpt lat="49.8553" lon="4.73612">
        <ele>157</ele>
        <time>2024-05-08T12:27:40Z</time>
      </trkpt>
      <trkpt lat="49.8553" lon="4.73614">
        <ele>157</ele>
        <time>2024-05-08T12:27:41Z</time>
      </trkpt>
      <trkpt lat="49.85531" lon="4.73616">
        <ele>156</ele>
        <time>2024-05-08T12:27:42Z</time>
      </trkpt>
      <trkpt lat="49.85531" lon="4.73618">
        <ele>156</ele>
        <time>2024-05-08T12:27:43Z</time>
      </trkpt>
      <trkpt lat="49.85531" lon="4.7362">
        <ele>156</ele>
        <time>2024-05-08T12:27:44Z</time>
      </trkpt>
      <trkpt lat="49.85531" lon="4.73622">
        <ele>156</ele>
        <time>2024-05-08T12:27:45Z</time>
      </trkpt>
      <trkpt lat="49.85531" lon="4.73624">
        <ele>156</ele>
        <time>2024-05-08T12:27:46Z</time>
      </trkpt>
      <trkpt lat="49.85532" lon="4.73625">
        <ele>156</ele>
        <time>2024-05-08T12:27:47Z</time>
      </trkpt>
      <trkpt lat="49.85532" lon="4.73627">
        <ele>156</ele>
        <time>2024-05-08T12:27:48Z</time>
      </trkpt>
      <trkpt lat="49.85532" lon="4.73629">
        <ele>156</ele>
        <time>2024-05-08T12:27:49Z</time>
      </trkpt>
      <trkpt lat="49.85533" lon="4.73631">
        <ele>156</ele>
        <time>2024-05-08T12:27:50Z</time>
      </trkpt>
      <trkpt lat="49.85533" lon="4.73633">
        <ele>156</ele>
        <time>2024-05-08T12:27:51Z</time>
      </trkpt>
      <trkpt lat="49.85534" lon="4.73634">
        <ele>155</ele>
        <time>2024-05-08T12:27:52Z</time>
      </trkpt>
      <trkpt lat="49.85534" lon="4.73636">
        <ele>155</ele>
        <time>2024-05-08T12:27:53Z</time>
      </trkpt>
      <trkpt lat="49.85535" lon="4.73638">
        <ele>155</ele>
        <time>2024-05-08T12:27:54Z</time>
      </trkpt>
      <trkpt lat="49.85536" lon="4.73639">
        <ele>155</ele>
        <time>2024-05-08T12:27:55Z</time>
      </trkpt>
      <trkpt lat="49.85536" lon="4.73641">
        <ele>155</ele>
        <time>2024-05-08T12:27:56Z</time>
      </trkpt>
      <trkpt lat="49.85537" lon="4.73643">
        <ele>154</ele>
        <time>2024-05-08T12:27:57Z</time>
      </trkpt>
      <trkpt lat="49.85537" lon="4.73644">
        <ele>154</ele>
        <time>2024-05-08T12:27:58Z</time>
      </trkpt>
      <trkpt lat="49.85538" lon="4.73646">
        <ele>154</ele>
        <time>2024-05-08T12:27:59Z</time>
      </trkpt>
      <trkpt lat="49.85538" lon="4.73648">
        <ele>154</ele>
        <time>2024-05-08T12:28:00Z</time>
      </trkpt>
      <trkpt lat="49.85538" lon="4.7365">
        <ele>154</ele>
        <time>2024-05-08T12:28:01Z</time>
      </trkpt>
      <trkpt lat="49.85539" lon="4.73651">
        <ele>154</ele>
        <time>2024-05-08T12:28:02Z</time>
      </trkpt>
      <trkpt lat="49.8554" lon="4.73653">
        <ele>154</ele>
        <time>2024-05-08T12:28:03Z</time>
      </trkpt>
      <trkpt lat="49.8554" lon="4.73654">
        <ele>154</ele>
        <time>2024-05-08T12:28:04Z</time>
      </trkpt>
      <trkpt lat="49.85541" lon="4.73656">
        <ele>154</ele>
        <time>2024-05-08T12:28:05Z</time>
      </trkpt>
      <trkpt lat="49.85541" lon="4.73658">
        <ele>154</ele>
        <time>2024-05-08T12:28:06Z</time>
      </trkpt>
      <trkpt lat="49.85542" lon="4.73659">
        <ele>153</ele>
        <time>2024-05-08T12:28:07Z</time>
      </trkpt>
      <trkpt lat="49.85542" lon="4.73661">
        <ele>153</ele>
        <time>2024-05-08T12:28:08Z</time>
      </trkpt>
      <trkpt lat="49.85542" lon="4.73662">
        <ele>153</ele>
        <time>2024-05-08T12:28:09Z</time>
      </trkpt>
      <trkpt lat="49.85543" lon="4.73664">
        <ele>153</ele>
        <time>2024-05-08T12:28:10Z</time>
      </trkpt>
      <trkpt lat="49.85543" lon="4.73665">
        <ele>153</ele>
        <time>2024-05-08T12:28:11Z</time>
      </trkpt>
      <trkpt lat="49.85544" lon="4.73667">
        <ele>152</ele>
        <time>2024-05-08T12:28:12Z</time>
      </trkpt>
      <trkpt lat="49.85544" lon="4.73668">
        <ele>152</ele>
        <time>2024-05-08T12:28:13Z</time>
      </trkpt>
      <trkpt lat="49.85545" lon="4.7367">
        <ele>152</ele>
        <time>2024-05-08T12:28:14Z</time>
      </trkpt>
      <trkpt lat="49.85545" lon="4.73671">
        <ele>152</ele>
        <time>2024-05-08T12:28:15Z</time>
      </trkpt>
      <trkpt lat="49.85546" lon="4.73673">
        <ele>152</ele>
        <time>2024-05-08T12:28:16Z</time>
      </trkpt>
      <trkpt lat="49.85546" lon="4.73674">
        <ele>151</ele>
        <time>2024-05-08T12:28:17Z</time>
      </trkpt>
      <trkpt lat="49.85547" lon="4.73676">
        <ele>151</ele>
        <time>2024-05-08T12:28:18Z</time>
      </trkpt>
      <trkpt lat="49.85547" lon="4.73677">
        <ele>151</ele>
        <time>2024-05-08T12:28:19Z</time>
      </trkpt>
      <trkpt lat="49.85548" lon="4.73679">
        <ele>151</ele>
        <time>2024-05-08T12:28:20Z</time>
      </trkpt>
      <trkpt lat="49.85548" lon="4.7368">
        <ele>151</ele>
        <time>2024-05-08T12:28:21Z</time>
      </trkpt>
      <trkpt lat="49.85549" lon="4.73682">
        <ele>150</ele>
        <time>2024-05-08T12:28:22Z</time>
      </trkpt>
      <trkpt lat="49.85549" lon="4.73683">
        <ele>150</ele>
        <time>2024-05-08T12:28:23Z</time>
      </trkpt>
      <trkpt lat="49.8555" lon="4.73685">
        <ele>150</ele>
        <time>2024-05-08T12:28:24Z</time>
      </trkpt>
      <trkpt lat="49.8555" lon="4.73687">
        <ele>150</ele>
        <time>2024-05-08T12:28:25Z</time>
      </trkpt>
      <trkpt lat="49.85551" lon="4.73688">
        <ele>150</ele>
        <time>2024-05-08T12:28:26Z</time>
      </trkpt>
      <trkpt lat="49.85551" lon="4.7369">
        <ele>149</ele>
        <time>2024-05-08T12:28:27Z</time>
      </trkpt>
      <trkpt lat="49.85552" lon="4.73692">
        <ele>149</ele>
        <time>2024-05-08T12:28:28Z</time>
      </trkpt>
      <trkpt lat="49.85552" lon="4.73693">
        <ele>149</ele>
        <time>2024-05-08T12:28:29Z</time>
      </trkpt>
      <trkpt lat="49.85553" lon="4.73695">
        <ele>149</ele>
        <time>2024-05-08T12:28:30Z</time>
      </trkpt>
      <trkpt lat="49.85553" lon="4.73696">
        <ele>149</ele>
        <time>2024-05-08T12:28:31Z</time>
      </trkpt>
      <trkpt lat="49.85554" lon="4.73698">
        <ele>149</ele>
        <time>2024-05-08T12:28:32Z</time>
      </trkpt>
      <trkpt lat="49.85554" lon="4.737">
        <ele>149</ele>
        <time>2024-05-08T12:28:33Z</time>
      </trkpt>
      <trkpt lat="49.85555" lon="4.73701">
        <ele>149</ele>
        <time>2024-05-08T12:28:34Z</time>
      </trkpt>
      <trkpt lat="49.85555" lon="4.73703">
        <ele>149</ele>
        <time>2024-05-08T12:28:35Z</time>
      </trkpt>
      <trkpt lat="49.85556" lon="4.73705">
        <ele>149</ele>
        <time>2024-05-08T12:28:36Z</time>
      </trkpt>
      <trkpt lat="49.85557" lon="4.73706">
        <ele>148</ele>
        <time>2024-05-08T12:28:37Z</time>
      </trkpt>
      <trkpt lat="49.85557" lon="4.73708">
        <ele>148</ele>
        <time>2024-05-08T12:28:38Z</time>
      </trkpt>
      <trkpt lat="49.85558" lon="4.7371">
        <ele>148</ele>
        <time>2024-05-08T12:28:39Z</time>
      </trkpt>
      <trkpt lat="49.85558" lon="4.73711">
        <ele>148</ele>
        <time>2024-05-08T12:28:40Z</time>
      </trkpt>
      <trkpt lat="49.85559" lon="4.73713">
        <ele>148</ele>
        <time>2024-05-08T12:28:41Z</time>
      </trkpt>
      <trkpt lat="49.8556" lon="4.73714">
        <ele>147</ele>
        <time>2024-05-08T12:28:42Z</time>
      </trkpt>
      <trkpt lat="49.85561" lon="4.73716">
        <ele>147</ele>
        <time>2024-05-08T12:28:43Z</time>
      </trkpt>
      <trkpt lat="49.85561" lon="4.73718">
        <ele>147</ele>
        <time>2024-05-08T12:28:44Z</time>
      </trkpt>
      <trkpt lat="49.85562" lon="4.7372">
        <ele>147</ele>
        <time>2024-05-08T12:28:45Z</time>
      </trkpt>
      <trkpt lat="49.85562" lon="4.73722">
        <ele>147</ele>
        <time>2024-05-08T12:28:46Z</time>
      </trkpt>
      <trkpt lat="49.85562" lon="4.73723">
        <ele>146</ele>
        <time>2024-05-08T12:28:47Z</time>
      </trkpt>
      <trkpt lat="49.85563" lon="4.73725">
        <ele>146</ele>
        <time>2024-05-08T12:28:48Z</time>
      </trkpt>
      <trkpt lat="49.85563" lon="4.73727">
        <ele>146</ele>
        <time>2024-05-08T12:28:49Z</time>
      </trkpt>
      <trkpt lat="49.85564" lon="4.73729">
        <ele>146</ele>
        <time>2024-05-08T12:28:50Z</time>
      </trkpt>
      <trkpt lat="49.85564" lon="4.7373">
        <ele>146</ele>
        <time>2024-05-08T12:28:51Z</time>
      </trkpt>
      <trkpt lat="49.85564" lon="4.73732">
        <ele>145</ele>
        <time>2024-05-08T12:28:52Z</time>
      </trkpt>
      <trkpt lat="49.85565" lon="4.73734">
        <ele>145</ele>
        <time>2024-05-08T12:28:53Z</time>
      </trkpt>
      <trkpt lat="49.85565" lon="4.73735">
        <ele>145</ele>
        <time>2024-05-08T12:28:54Z</time>
      </trkpt>
      <trkpt lat="49.85566" lon="4.73737">
        <ele>145</ele>
        <time>2024-05-08T12:28:55Z</time>
      </trkpt>
      <trkpt lat="49.85566" lon="4.73739">
        <ele>145</ele>
        <time>2024-05-08T12:28:56Z</time>
      </trkpt>
      <trkpt lat="49.85567" lon="4.7374">
        <ele>144</ele>
        <time>2024-05-08T12:28:57Z</time>
      </trkpt>
      <trkpt lat="49.85567" lon="4.73742">
        <ele>144</ele>
        <time>2024-05-08T12:28:58Z</time>
      </trkpt>
      <trkpt lat="49.85568" lon="4.73743">
        <ele>144</ele>
        <time>2024-05-08T12:28:59Z</time>
      </trkpt>
      <trkpt lat="49.85569" lon="4.73745">
        <ele>144</ele>
        <time>2024-05-08T12:29:00Z</time>
      </trkpt>
      <trkpt lat="49.85569" lon="4.73747">
        <ele>144</ele>
        <time>2024-05-08T12:29:01Z</time>
      </trkpt>
      <trkpt lat="49.8557" lon="4.73748">
        <ele>144</ele>
        <time>2024-05-08T12:29:02Z</time>
      </trkpt>
      <trkpt lat="49.8557" lon="4.7375">
        <ele>144</ele>
        <time>2024-05-08T12:29:03Z</time>
      </trkpt>
      <trkpt lat="49.85571" lon="4.73752">
        <ele>144</ele>
        <time>2024-05-08T12:29:04Z</time>
      </trkpt>
      <trkpt lat="49.85571" lon="4.73753">
        <ele>144</ele>
        <time>2024-05-08T12:29:05Z</time>
      </trkpt>
      <trkpt lat="49.85571" lon="4.73755">
        <ele>144</ele>
        <time>2024-05-08T12:29:06Z</time>
      </trkpt>
      <trkpt lat="49.85572" lon="4.73756">
        <ele>143</ele>
        <time>2024-05-08T12:29:07Z</time>
      </trkpt>
      <trkpt lat="49.85572" lon="4.73758">
        <ele>143</ele>
        <time>2024-05-08T12:29:08Z</time>
      </trkpt>
      <trkpt lat="49.85572" lon="4.73759">
        <ele>143</ele>
        <time>2024-05-08T12:29:09Z</time>
      </trkpt>
      <trkpt lat="49.85573" lon="4.73761">
        <ele>143</ele>
        <time>2024-05-08T12:29:10Z</time>
      </trkpt>
      <trkpt lat="49.85573" lon="4.73763">
        <ele>143</ele>
        <time>2024-05-08T12:29:11Z</time>
      </trkpt>
      <trkpt lat="49.85574" lon="4.73764">
        <ele>142</ele>
        <time>2024-05-08T12:29:12Z</time>
      </trkpt>
      <trkpt lat="49.85574" lon="4.73766">
        <ele>142</ele>
        <time>2024-05-08T12:29:13Z</time>
      </trkpt>
      <trkpt lat="49.85575" lon="4.73768">
        <ele>142</ele>
        <time>2024-05-08T12:29:14Z</time>
      </trkpt>
      <trkpt lat="49.85575" lon="4.7377">
        <ele>142</ele>
        <time>2024-05-08T12:29:15Z</time>
      </trkpt>
      <trkpt lat="49.85576" lon="4.73771">
        <ele>142</ele>
        <time>2024-05-08T12:29:16Z</time>
      </trkpt>
      <trkpt lat="49.85576" lon="4.73773">
        <ele>142</ele>
        <time>2024-05-08T12:29:17Z</time>
      </trkpt>
      <trkpt lat="49.85576" lon="4.73775">
        <ele>142</ele>
        <time>2024-05-08T12:29:18Z</time>
      </trkpt>
      <trkpt lat="49.85577" lon="4.73777">
        <ele>142</ele>
        <time>2024-05-08T12:29:19Z</time>
      </trkpt>
      <trkpt lat="49.85577" lon="4.73779">
        <ele>142</ele>
        <time>2024-05-08T12:29:20Z</time>
      </trkpt>
      <trkpt lat="49.85577" lon="4.7378">
        <ele>142</ele>
        <time>2024-05-08T12:29:21Z</time>
      </trkpt>
      <trkpt lat="49.85578" lon="4.73782">
        <ele>141</ele>
        <time>2024-05-08T12:29:22Z</time>
      </trkpt>
      <trkpt lat="49.85578" lon="4.73784">
        <ele>141</ele>
        <time>2024-05-08T12:29:23Z</time>
      </trkpt>
      <trkpt lat="49.85578" lon="4.73785">
        <ele>141</ele>
        <time>2024-05-08T12:29:24Z</time>
      </trkpt>
      <trkpt lat="49.85579" lon="4.73787">
        <ele>141</ele>
        <time>2024-05-08T12:29:25Z</time>
      </trkpt>
      <trkpt lat="49.85579" lon="4.73788">
        <ele>141</ele>
        <time>2024-05-08T12:29:26Z</time>
      </trkpt>
      <trkpt lat="49.85579" lon="4.7379">
        <ele>140</ele>
        <time>2024-05-08T12:29:27Z</time>
      </trkpt>
      <trkpt lat="49.8558" lon="4.73791">
        <ele>140</ele>
        <time>2024-05-08T12:29:28Z</time>
      </trkpt>
      <trkpt lat="49.8558" lon="4.73792">
        <ele>140</ele>
        <time>2024-05-08T12:29:29Z</time>
      </trkpt>
      <trkpt lat="49.85581" lon="4.73793">
        <ele>140</ele>
        <time>2024-05-08T12:29:30Z</time>
      </trkpt>
      <trkpt lat="49.85582" lon="4.73795">
        <ele>140</ele>
        <time>2024-05-08T12:29:31Z</time>
      </trkpt>
      <trkpt lat="49.85583" lon="4.73796">
        <ele>140</ele>
        <time>2024-05-08T12:29:32Z</time>
      </trkpt>
      <trkpt lat="49.85584" lon="4.73797">
        <ele>140</ele>
        <time>2024-05-08T12:29:33Z</time>
      </trkpt>
      <trkpt lat="49.85585" lon="4.73798">
        <ele>140</ele>
        <time>2024-05-08T12:29:34Z</time>
      </trkpt>
      <trkpt lat="49.85586" lon="4.73799">
        <ele>140</ele>
        <time>2024-05-08T12:29:35Z</time>
      </trkpt>
      <trkpt lat="49.85587" lon="4.738">
        <ele>140</ele>
        <time>2024-05-08T12:29:36Z</time>
      </trkpt>
      <trkpt lat="49.85588" lon="4.73802">
        <ele>139</ele>
        <time>2024-05-08T12:29:37Z</time>
      </trkpt>
      <trkpt lat="49.85589" lon="4.73803">
        <ele>139</ele>
        <time>2024-05-08T12:29:38Z</time>
      </trkpt>
      <trkpt lat="49.8559" lon="4.73805">
        <ele>139</ele>
        <time>2024-05-08T12:29:39Z</time>
      </trkpt>
      <trkpt lat="49.85591" lon="4.73806">
        <ele>139</ele>
        <time>2024-05-08T12:29:40Z</time>
      </trkpt>
      <trkpt lat="49.85592" lon="4.73808">
        <ele>139</ele>
        <time>2024-05-08T12:29:41Z</time>
      </trkpt>
      <trkpt lat="49.85593" lon="4.73809">
        <ele>139</ele>
        <time>2024-05-08T12:29:42Z</time>
      </trkpt>
      <trkpt lat="49.85594" lon="4.73811">
        <ele>139</ele>
        <time>2024-05-08T12:29:43Z</time>
      </trkpt>
      <trkpt lat="49.85595" lon="4.73812">
        <ele>139</ele>
        <time>2024-05-08T12:29:44Z</time>
      </trkpt>
      <trkpt lat="49.85596" lon="4.73813">
        <ele>139</ele>
        <time>2024-05-08T12:29:45Z</time>
      </trkpt>
      <trkpt lat="49.85597" lon="4.73814">
        <ele>139</ele>
        <time>2024-05-08T12:29:46Z</time>
      </trkpt>
      <trkpt lat="49.85598" lon="4.73815">
        <ele>139</ele>
        <time>2024-05-08T12:29:47Z</time>
      </trkpt>
      <trkpt lat="49.85598" lon="4.73817">
        <ele>139</ele>
        <time>2024-05-08T12:29:48Z</time>
      </trkpt>
      <trkpt lat="49.85599" lon="4.73818">
        <ele>139</ele>
        <time>2024-05-08T12:29:49Z</time>
      </trkpt>
      <trkpt lat="49.856" lon="4.73819">
        <ele>139</ele>
        <time>2024-05-08T12:29:50Z</time>
      </trkpt>
      <trkpt lat="49.85601" lon="4.73821">
        <ele>139</ele>
        <time>2024-05-08T12:29:51Z</time>
      </trkpt>
      <trkpt lat="49.85602" lon="4.73822">
        <ele>138</ele>
        <time>2024-05-08T12:29:52Z</time>
      </trkpt>
      <trkpt lat="49.85603" lon="4.73823">
        <ele>138</ele>
        <time>2024-05-08T12:29:53Z</time>
      </trkpt>
      <trkpt lat="49.85604" lon="4.73825">
        <ele>138</ele>
        <time>2024-05-08T12:29:54Z</time>
      </trkpt>
      <trkpt lat="49.85605" lon="4.73826">
        <ele>138</ele>
        <time>2024-05-08T12:29:55Z</time>
      </trkpt>
      <trkpt lat="49.85606" lon="4.73827">
        <ele>138</ele>
        <time>2024-05-08T12:29:56Z</time>
      </trkpt>
      <trkpt lat="49.85607" lon="4.73828">
        <ele>138</ele>
        <time>2024-05-08T12:29:57Z</time>
      </trkpt>
      <trkpt lat="49.85608" lon="4.73829">
        <ele>138</ele>
        <time>2024-05-08T12:29:58Z</time>
      </trkpt>
      <trkpt lat="49.85609" lon="4.7383">
        <ele>138</ele>
        <time>2024-05-08T12:29:59Z</time>
      </trkpt>
      <trkpt lat="49.8561" lon="4.7383">
        <ele>138</ele>
        <time>2024-05-08T12:30:00Z</time>
      </trkpt>
      <trkpt lat="49.85611" lon="4.73831">
        <ele>138</ele>
        <time>2024-05-08T12:30:01Z</time>
      </trkpt>
      <trkpt lat="49.85612" lon="4.73832">
        <ele>137</ele>
        <time>2024-05-08T12:30:02Z</time>
      </trkpt>
      <trkpt lat="49.85614" lon="4.73832">
        <ele>137</ele>
        <time>2024-05-08T12:30:03Z</time>
      </trkpt>
      <trkpt lat="49.85615" lon="4.73833">
        <ele>137</ele>
        <time>2024-05-08T12:30:04Z</time>
      </trkpt>
      <trkpt lat="49.85616" lon="4.73834">
        <ele>137</ele>
        <time>2024-05-08T12:30:05Z</time>
      </trkpt>
      <trkpt lat="49.85617" lon="4.73834">
        <ele>137</ele>
        <time>2024-05-08T12:30:06Z</time>
      </trkpt>
      <trkpt lat="49.85618" lon="4.73834">
        <ele>137</ele>
        <time>2024-05-08T12:30:07Z</time>
      </trkpt>
      <trkpt lat="49.8562" lon="4.73835">
        <ele>137</ele>
        <time>2024-05-08T12:30:08Z</time>
      </trkpt>
      <trkpt lat="49.85621" lon="4.73835">
        <ele>137</ele>
        <time>2024-05-08T12:30:09Z</time>
      </trkpt>
      <trkpt lat="49.85622" lon="4.73835">
        <ele>137</ele>
        <time>2024-05-08T12:30:10Z</time>
      </trkpt>
      <trkpt lat="49.85624" lon="4.73835">
        <ele>137</ele>
        <time>2024-05-08T12:30:11Z</time>
      </trkpt>
      <trkpt lat="49.85625" lon="4.73835">
        <ele>137</ele>
        <time>2024-05-08T12:30:12Z</time>
      </trkpt>
      <trkpt lat="49.85627" lon="4.73835">
        <ele>137</ele>
        <time>2024-05-08T12:30:13Z</time>
      </trkpt>
      <trkpt lat="49.85629" lon="4.73835">
        <ele>137</ele>
        <time>2024-05-08T12:30:14Z</time>
      </trkpt>
      <trkpt lat="49.8563" lon="4.73836">
        <ele>137</ele>
        <time>2024-05-08T12:30:15Z</time>
      </trkpt>
      <trkpt lat="49.85631" lon="4.73836">
        <ele>137</ele>
        <time>2024-05-08T12:30:16Z</time>
      </trkpt>
      <trkpt lat="49.85632" lon="4.73836">
        <ele>137</ele>
        <time>2024-05-08T12:30:17Z</time>
      </trkpt>
      <trkpt lat="49.85633" lon="4.73837">
        <ele>137</ele>
        <time>2024-05-08T12:30:18Z</time>
      </trkpt>
      <trkpt lat="49.85635" lon="4.73837">
        <ele>137</ele>
        <time>2024-05-08T12:30:19Z</time>
      </trkpt>
      <trkpt lat="49.85636" lon="4.73837">
        <ele>137</ele>
        <time>2024-05-08T12:30:20Z</time>
      </trkpt>
      <trkpt lat="49.85637" lon="4.73837">
        <ele>137</ele>
        <time>2024-05-08T12:30:21Z</time>
      </trkpt>
      <trkpt lat="49.85638" lon="4.73837">
        <ele>137</ele>
        <time>2024-05-08T12:30:22Z</time>
      </trkpt>
      <trkpt lat="49.85639" lon="4.73837">
        <ele>137</ele>
        <time>2024-05-08T12:30:23Z</time>
      </trkpt>
      <trkpt lat="49.8564" lon="4.73837">
        <ele>137</ele>
        <time>2024-05-08T12:30:24Z</time>
      </trkpt>
      <trkpt lat="49.85642" lon="4.73837">
        <ele>137</ele>
        <time>2024-05-08T12:30:25Z</time>
      </trkpt>
      <trkpt lat="49.85643" lon="4.73836">
        <ele>138</ele>
        <time>2024-05-08T12:30:26Z</time>
      </trkpt>
      <trkpt lat="49.85644" lon="4.73836">
        <ele>138</ele>
        <time>2024-05-08T12:30:27Z</time>
      </trkpt>
      <trkpt lat="49.85645" lon="4.73836">
        <ele>138</ele>
        <time>2024-05-08T12:30:28Z</time>
      </trkpt>
      <trkpt lat="49.85646" lon="4.73836">
        <ele>138</ele>
        <time>2024-05-08T12:30:29Z</time>
      </trkpt>
      <trkpt lat="49.85647" lon="4.73836">
        <ele>138</ele>
        <time>2024-05-08T12:30:30Z</time>
      </trkpt>
      <trkpt lat="49.85649" lon="4.73836">
        <ele>138</ele>
        <time>2024-05-08T12:30:31Z</time>
      </trkpt>
      <trkpt lat="49.8565" lon="4.73836">
        <ele>138</ele>
        <time>2024-05-08T12:30:32Z</time>
      </trkpt>
      <trkpt lat="49.85651" lon="4.73835">
        <ele>138</ele>
        <time>2024-05-08T12:30:33Z</time>
      </trkpt>
      <trkpt lat="49.85652" lon="4.73835">
        <ele>138</ele>
        <time>2024-05-08T12:30:34Z</time>
      </trkpt>
      <trkpt lat="49.85653" lon="4.73835">
        <ele>138</ele>
        <time>2024-05-08T12:30:35Z</time>
      </trkpt>
      <trkpt lat="49.85654" lon="4.73835">
        <ele>138</ele>
        <time>2024-05-08T12:30:36Z</time>
      </trkpt>
      <trkpt lat="49.85655" lon="4.73835">
        <ele>138</ele>
        <time>2024-05-08T12:30:37Z</time>
      </trkpt>
      <trkpt lat="49.85656" lon="4.73834">
        <ele>138</ele>
        <time>2024-05-08T12:30:38Z</time>
      </trkpt>
      <trkpt lat="49.85657" lon="4.73834">
        <ele>138</ele>
        <time>2024-05-08T12:30:39Z</time>
      </trkpt>
      <trkpt lat="49.85658" lon="4.73834">
        <ele>138</ele>
        <time>2024-05-08T12:30:40Z</time>
      </trkpt>
      <trkpt lat="49.85659" lon="4.73834">
        <ele>138</ele>
        <time>2024-05-08T12:30:41Z</time>
      </trkpt>
      <trkpt lat="49.85661" lon="4.73834">
        <ele>138</ele>
        <time>2024-05-08T12:30:42Z</time>
      </trkpt>
      <trkpt lat="49.85662" lon="4.73834">
        <ele>138</ele>
        <time>2024-05-08T12:30:43Z</time>
      </trkpt>
      <trkpt lat="49.85663" lon="4.73834">
        <ele>138</ele>
        <time>2024-05-08T12:30:44Z</time>
      </trkpt>
      <trkpt lat="49.85664" lon="4.73834">
        <ele>138</ele>
        <time>2024-05-08T12:30:45Z</time>
      </trkpt>
      <trkpt lat="49.85666" lon="4.73834">
        <ele>139</ele>
        <time>2024-05-08T12:30:46Z</time>
      </trkpt>
      <trkpt lat="49.85667" lon="4.73834">
        <ele>139</ele>
        <time>2024-05-08T12:30:47Z</time>
      </trkpt>
      <trkpt lat="49.85668" lon="4.73834">
        <ele>139</ele>
        <time>2024-05-08T12:30:48Z</time>
      </trkpt>
      <trkpt lat="49.85669" lon="4.73833">
        <ele>139</ele>
        <time>2024-05-08T12:30:49Z</time>
      </trkpt>
      <trkpt lat="49.8567" lon="4.73833">
        <ele>139</ele>
        <time>2024-05-08T12:30:50Z</time>
      </trkpt>
      <trkpt lat="49.85672" lon="4.73833">
        <ele>139</ele>
        <time>2024-05-08T12:30:51Z</time>
      </trkpt>
      <trkpt lat="49.85673" lon="4.73833">
        <ele>139</ele>
        <time>2024-05-08T12:30:52Z</time>
      </trkpt>
      <trkpt lat="49.85674" lon="4.73833">
        <ele>139</ele>
        <time>2024-05-08T12:30:53Z</time>
      </trkpt>
      <trkpt lat="49.85675" lon="4.73833">
        <ele>139</ele>
        <time>2024-05-08T12:30:54Z</time>
      </trkpt>
      <trkpt lat="49.85677" lon="4.73833">
        <ele>139</ele>
        <time>2024-05-08T12:30:55Z</time>
      </trkpt>
      <trkpt lat="49.85678" lon="4.73833">
        <ele>139</ele>
        <time>2024-05-08T12:30:56Z</time>
      </trkpt>
      <trkpt lat="49.85679" lon="4.73833">
        <ele>138</ele>
        <time>2024-05-08T12:30:57Z</time>
      </trkpt>
      <trkpt lat="49.8568" lon="4.73833">
        <ele>138</ele>
        <time>2024-05-08T12:30:58Z</time>
      </trkpt>
      <trkpt lat="49.85681" lon="4.73833">
        <ele>138</ele>
        <time>2024-05-08T12:30:59Z</time>
      </trkpt>
      <trkpt lat="49.85683" lon="4.73833">
        <ele>138</ele>
        <time>2024-05-08T12:31:00Z</time>
      </trkpt>
      <trkpt lat="49.85684" lon="4.73833">
        <ele>138</ele>
        <time>2024-05-08T12:31:01Z</time>
      </trkpt>
      <trkpt lat="49.85685" lon="4.73833">
        <ele>138</ele>
        <time>2024-05-08T12:31:02Z</time>
      </trkpt>
      <trkpt lat="49.85687" lon="4.73833">
        <ele>138</ele>
        <time>2024-05-08T12:31:03Z</time>
      </trkpt>
      <trkpt lat="49.85688" lon="4.73832">
        <ele>138</ele>
        <time>2024-05-08T12:31:04Z</time>
      </trkpt>
      <trkpt lat="49.85689" lon="4.73832">
        <ele>138</ele>
        <time>2024-05-08T12:31:05Z</time>
      </trkpt>
      <trkpt lat="49.85691" lon="4.73832">
        <ele>138</ele>
        <time>2024-05-08T12:31:06Z</time>
      </trkpt>
      <trkpt lat="49.85692" lon="4.73832">
        <ele>138</ele>
        <time>2024-05-08T12:31:07Z</time>
      </trkpt>
      <trkpt lat="49.85694" lon="4.73832">
        <ele>138</ele>
        <time>2024-05-08T12:31:08Z</time>
      </trkpt>
      <trkpt lat="49.85695" lon="4.73832">
        <ele>138</ele>
        <time>2024-05-08T12:31:09Z</time>
      </trkpt>
      <trkpt lat="49.85696" lon="4.73832">
        <ele>138</ele>
        <time>2024-05-08T12:31:10Z</time>
      </trkpt>
      <trkpt lat="49.85698" lon="4.73832">
        <ele>138</ele>
        <time>2024-05-08T12:31:11Z</time>
      </trkpt>
      <trkpt lat="49.85699" lon="4.73832">
        <ele>138</ele>
        <time>2024-05-08T12:31:12Z</time>
      </trkpt>
      <trkpt lat="49.857" lon="4.73832">
        <ele>138</ele>
        <time>2024-05-08T12:31:13Z</time>
      </trkpt>
      <trkpt lat="49.85701" lon="4.73832">
        <ele>138</ele>
        <time>2024-05-08T12:31:14Z</time>
      </trkpt>
      <trkpt lat="49.85703" lon="4.73831">
        <ele>138</ele>
        <time>2024-05-08T12:31:15Z</time>
      </trkpt>
      <trkpt lat="49.85704" lon="4.73831">
        <ele>138</ele>
        <time>2024-05-08T12:31:16Z</time>
      </trkpt>
      <trkpt lat="49.85705" lon="4.73831">
        <ele>138</ele>
        <time>2024-05-08T12:31:17Z</time>
      </trkpt>
      <trkpt lat="49.85707" lon="4.73831">
        <ele>138</ele>
        <time>2024-05-08T12:31:18Z</time>
      </trkpt>
      <trkpt lat="49.85708" lon="4.7383">
        <ele>138</ele>
        <time>2024-05-08T12:31:19Z</time>
      </trkpt>
      <trkpt lat="49.85709" lon="4.7383">
        <ele>138</ele>
        <time>2024-05-08T12:31:20Z</time>
      </trkpt>
      <trkpt lat="49.85711" lon="4.7383">
        <ele>138</ele>
        <time>2024-05-08T12:31:21Z</time>
      </trkpt>
      <trkpt lat="49.85712" lon="4.73829">
        <ele>137</ele>
        <time>2024-05-08T12:31:22Z</time>
      </trkpt>
      <trkpt lat="49.85713" lon="4.73829">
        <ele>137</ele>
        <time>2024-05-08T12:31:23Z</time>
      </trkpt>
      <trkpt lat="49.85714" lon="4.73829">
        <ele>137</ele>
        <time>2024-05-08T12:31:24Z</time>
      </trkpt>
      <trkpt lat="49.85716" lon="4.73829">
        <ele>137</ele>
        <time>2024-05-08T12:31:25Z</time>
      </trkpt>
      <trkpt lat="49.85717" lon="4.73828">
        <ele>137</ele>
        <time>2024-05-08T12:31:26Z</time>
      </trkpt>
      <trkpt lat="49.85718" lon="4.73829">
        <ele>137</ele>
        <time>2024-05-08T12:31:27Z</time>
      </trkpt>
      <trkpt lat="49.85719" lon="4.73829">
        <ele>137</ele>
        <time>2024-05-08T12:31:28Z</time>
      </trkpt>
      <trkpt lat="49.8572" lon="4.73829">
        <ele>137</ele>
        <time>2024-05-08T12:31:29Z</time>
      </trkpt>
      <trkpt lat="49.85721" lon="4.7383">
        <ele>137</ele>
        <time>2024-05-08T12:31:30Z</time>
      </trkpt>
      <trkpt lat="49.85722" lon="4.73832">
        <ele>137</ele>
        <time>2024-05-08T12:31:31Z</time>
      </trkpt>
      <trkpt lat="49.85723" lon="4.73833">
        <ele>137</ele>
        <time>2024-05-08T12:31:32Z</time>
      </trkpt>
      <trkpt lat="49.85724" lon="4.73835">
        <ele>137</ele>
        <time>2024-05-08T12:31:33Z</time>
      </trkpt>
      <trkpt lat="49.85725" lon="4.73836">
        <ele>137</ele>
        <time>2024-05-08T12:31:34Z</time>
      </trkpt>
      <trkpt lat="49.85726" lon="4.73837">
        <ele>137</ele>
        <time>2024-05-08T12:31:35Z</time>
      </trkpt>
      <trkpt lat="49.85727" lon="4.73839">
        <ele>137</ele>
        <time>2024-05-08T12:31:36Z</time>
      </trkpt>
      <trkpt lat="49.85728" lon="4.7384">
        <ele>137</ele>
        <time>2024-05-08T12:31:37Z</time>
      </trkpt>
      <trkpt lat="49.85729" lon="4.73841">
        <ele>137</ele>
        <time>2024-05-08T12:31:38Z</time>
      </trkpt>
      <trkpt lat="49.8573" lon="4.73843">
        <ele>137</ele>
        <time>2024-05-08T12:31:39Z</time>
      </trkpt>
      <trkpt lat="49.8573" lon="4.73845">
        <ele>137</ele>
        <time>2024-05-08T12:31:40Z</time>
      </trkpt>
      <trkpt lat="49.85731" lon="4.73846">
        <ele>137</ele>
        <time>2024-05-08T12:31:41Z</time>
      </trkpt>
      <trkpt lat="49.85732" lon="4.73848">
        <ele>136</ele>
        <time>2024-05-08T12:31:42Z</time>
      </trkpt>
      <trkpt lat="49.85732" lon="4.7385">
        <ele>136</ele>
        <time>2024-05-08T12:31:43Z</time>
      </trkpt>
      <trkpt lat="49.85733" lon="4.73852">
        <ele>136</ele>
        <time>2024-05-08T12:31:44Z</time>
      </trkpt>
      <trkpt lat="49.85734" lon="4.73854">
        <ele>136</ele>
        <time>2024-05-08T12:31:45Z</time>
      </trkpt>
      <trkpt lat="49.85735" lon="4.73857">
        <ele>136</ele>
        <time>2024-05-08T12:31:46Z</time>
      </trkpt>
      <trkpt lat="49.85736" lon="4.73859">
        <ele>136</ele>
        <time>2024-05-08T12:31:47Z</time>
      </trkpt>
      <trkpt lat="49.85737" lon="4.73861">
        <ele>136</ele>
        <time>2024-05-08T12:31:48Z</time>
      </trkpt>
      <trkpt lat="49.85738" lon="4.73863">
        <ele>136</ele>
        <time>2024-05-08T12:31:49Z</time>
      </trkpt>
      <trkpt lat="49.85739" lon="4.73866">
        <ele>136</ele>
        <time>2024-05-08T12:31:50Z</time>
      </trkpt>
      <trkpt lat="49.8574" lon="4.73868">
        <ele>136</ele>
        <time>2024-05-08T12:31:51Z</time>
      </trkpt>
      <trkpt lat="49.85741" lon="4.7387">
        <ele>135</ele>
        <time>2024-05-08T12:31:52Z</time>
      </trkpt>
      <trkpt lat="49.85742" lon="4.73872">
        <ele>135</ele>
        <time>2024-05-08T12:31:53Z</time>
      </trkpt>
      <trkpt lat="49.85743" lon="4.73874">
        <ele>135</ele>
        <time>2024-05-08T12:31:54Z</time>
      </trkpt>
      <trkpt lat="49.85744" lon="4.73875">
        <ele>135</ele>
        <time>2024-05-08T12:31:55Z</time>
      </trkpt>
      <trkpt lat="49.85744" lon="4.73877">
        <ele>135</ele>
        <time>2024-05-08T12:31:56Z</time>
      </trkpt>
      <trkpt lat="49.85745" lon="4.73879">
        <ele>135</ele>
        <time>2024-05-08T12:31:57Z</time>
      </trkpt>
      <trkpt lat="49.85745" lon="4.73881">
        <ele>135</ele>
        <time>2024-05-08T12:31:58Z</time>
      </trkpt>
      <trkpt lat="49.85746" lon="4.73883">
        <ele>135</ele>
        <time>2024-05-08T12:31:59Z</time>
      </trkpt>
      <trkpt lat="49.85747" lon="4.73885">
        <ele>135</ele>
        <time>2024-05-08T12:32:00Z</time>
      </trkpt>
      <trkpt lat="49.85747" lon="4.73888">
        <ele>135</ele>
        <time>2024-05-08T12:32:01Z</time>
      </trkpt>
      <trkpt lat="49.85748" lon="4.7389">
        <ele>135</ele>
        <time>2024-05-08T12:32:02Z</time>
      </trkpt>
      <trkpt lat="49.85749" lon="4.73892">
        <ele>135</ele>
        <time>2024-05-08T12:32:03Z</time>
      </trkpt>
      <trkpt lat="49.85749" lon="4.73894">
        <ele>135</ele>
        <time>2024-05-08T12:32:04Z</time>
      </trkpt>
      <trkpt lat="49.8575" lon="4.73896">
        <ele>135</ele>
        <time>2024-05-08T12:32:05Z</time>
      </trkpt>
      <trkpt lat="49.85751" lon="4.73898">
        <ele>135</ele>
        <time>2024-05-08T12:32:06Z</time>
      </trkpt>
      <trkpt lat="49.85751" lon="4.739">
        <ele>135</ele>
        <time>2024-05-08T12:32:07Z</time>
      </trkpt>
      <trkpt lat="49.85752" lon="4.73902">
        <ele>135</ele>
        <time>2024-05-08T12:32:08Z</time>
      </trkpt>
      <trkpt lat="49.85752" lon="4.73904">
        <ele>135</ele>
        <time>2024-05-08T12:32:09Z</time>
      </trkpt>
      <trkpt lat="49.85752" lon="4.73906">
        <ele>135</ele>
        <time>2024-05-08T12:32:10Z</time>
      </trkpt>
      <trkpt lat="49.85752" lon="4.73908">
        <ele>135</ele>
        <time>2024-05-08T12:32:11Z</time>
      </trkpt>
      <trkpt lat="49.85752" lon="4.7391">
        <ele>135</ele>
        <time>2024-05-08T12:32:12Z</time>
      </trkpt>
      <trkpt lat="49.85751" lon="4.73912">
        <ele>135</ele>
        <time>2024-05-08T12:32:13Z</time>
      </trkpt>
      <trkpt lat="49.85751" lon="4.73914">
        <ele>135</ele>
        <time>2024-05-08T12:32:14Z</time>
      </trkpt>
      <trkpt lat="49.85751" lon="4.73916">
        <ele>135</ele>
        <time>2024-05-08T12:32:15Z</time>
      </trkpt>
      <trkpt lat="49.85751" lon="4.73918">
        <ele>135</ele>
        <time>2024-05-08T12:32:16Z</time>
      </trkpt>
      <trkpt lat="49.85752" lon="4.7392">
        <ele>135</ele>
        <time>2024-05-08T12:32:17Z</time>
      </trkpt>
      <trkpt lat="49.85752" lon="4.73922">
        <ele>135</ele>
        <time>2024-05-08T12:32:18Z</time>
      </trkpt>
      <trkpt lat="49.85752" lon="4.73924">
        <ele>135</ele>
        <time>2024-05-08T12:32:19Z</time>
      </trkpt>
      <trkpt lat="49.85752" lon="4.73926">
        <ele>135</ele>
        <time>2024-05-08T12:32:20Z</time>
      </trkpt>
      <trkpt lat="49.85752" lon="4.73928">
        <ele>135</ele>
        <time>2024-05-08T12:32:21Z</time>
      </trkpt>
      <trkpt lat="49.85753" lon="4.7393">
        <ele>135</ele>
        <time>2024-05-08T12:32:22Z</time>
      </trkpt>
      <trkpt lat="49.85753" lon="4.73932">
        <ele>135</ele>
        <time>2024-05-08T12:32:23Z</time>
      </trkpt>
      <trkpt lat="49.85753" lon="4.73934">
        <ele>135</ele>
        <time>2024-05-08T12:32:24Z</time>
      </trkpt>
      <trkpt lat="49.85753" lon="4.73935">
        <ele>135</ele>
        <time>2024-05-08T12:32:25Z</time>
      </trkpt>
      <trkpt lat="49.85753" lon="4.73938">
        <ele>135</ele>
        <time>2024-05-08T12:32:26Z</time>
      </trkpt>
      <trkpt lat="49.85752" lon="4.7394">
        <ele>134</ele>
        <time>2024-05-08T12:32:27Z</time>
      </trkpt>
      <trkpt lat="49.85752" lon="4.73942">
        <ele>134</ele>
        <time>2024-05-08T12:32:28Z</time>
      </trkpt>
      <trkpt lat="49.85752" lon="4.73944">
        <ele>134</ele>
        <time>2024-05-08T12:32:29Z</time>
      </trkpt>
      <trkpt lat="49.85751" lon="4.73946">
        <ele>134</ele>
        <time>2024-05-08T12:32:30Z</time>
      </trkpt>
      <trkpt lat="49.85751" lon="4.73948">
        <ele>134</ele>
        <time>2024-05-08T12:32:31Z</time>
      </trkpt>
      <trkpt lat="49.85751" lon="4.7395">
        <ele>134</ele>
        <time>2024-05-08T12:32:32Z</time>
      </trkpt>
      <trkpt lat="49.8575" lon="4.73952">
        <ele>134</ele>
        <time>2024-05-08T12:32:33Z</time>
      </trkpt>
      <trkpt lat="49.8575" lon="4.73954">
        <ele>134</ele>
        <time>2024-05-08T12:32:34Z</time>
      </trkpt>
      <trkpt lat="49.8575" lon="4.73955">
        <ele>134</ele>
        <time>2024-05-08T12:32:35Z</time>
      </trkpt>
      <trkpt lat="49.8575" lon="4.73957">
        <ele>134</ele>
        <time>2024-05-08T12:32:36Z</time>
      </trkpt>
      <trkpt lat="49.8575" lon="4.73959">
        <ele>134</ele>
        <time>2024-05-08T12:32:37Z</time>
      </trkpt>
      <trkpt lat="49.8575" lon="4.73961">
        <ele>134</ele>
        <time>2024-05-08T12:32:38Z</time>
      </trkpt>
      <trkpt lat="49.8575" lon="4.73963">
        <ele>134</ele>
        <time>2024-05-08T12:32:39Z</time>
      </trkpt>
      <trkpt lat="49.8575" lon="4.73965">
        <ele>134</ele>
        <time>2024-05-08T12:32:40Z</time>
      </trkpt>
      <trkpt lat="49.85751" lon="4.73967">
        <ele>135</ele>
        <time>2024-05-08T12:32:41Z</time>
      </trkpt>
      <trkpt lat="49.85751" lon="4.73969">
        <ele>135</ele>
        <time>2024-05-08T12:32:42Z</time>
      </trkpt>
      <trkpt lat="49.85751" lon="4.73971">
        <ele>135</ele>
        <time>2024-05-08T12:32:43Z</time>
      </trkpt>
      <trkpt lat="49.85751" lon="4.73972">
        <ele>135</ele>
        <time>2024-05-08T12:32:44Z</time>
      </trkpt>
      <trkpt lat="49.85752" lon="4.73974">
        <ele>135</ele>
        <time>2024-05-08T12:32:45Z</time>
      </trkpt>
      <trkpt lat="49.85752" lon="4.73976">
        <ele>135</ele>
        <time>2024-05-08T12:32:46Z</time>
      </trkpt>
      <trkpt lat="49.85753" lon="4.73978">
        <ele>134</ele>
        <time>2024-05-08T12:32:47Z</time>
      </trkpt>
      <trkpt lat="49.85754" lon="4.73979">
        <ele>134</ele>
        <time>2024-05-08T12:32:48Z</time>
      </trkpt>
      <trkpt lat="49.85755" lon="4.73981">
        <ele>134</ele>
        <time>2024-05-08T12:32:49Z</time>
      </trkpt>
      <trkpt lat="49.85756" lon="4.73982">
        <ele>134</ele>
        <time>2024-05-08T12:32:50Z</time>
      </trkpt>
      <trkpt lat="49.85757" lon="4.73983">
        <ele>134</ele>
        <time>2024-05-08T12:32:51Z</time>
      </trkpt>
      <trkpt lat="49.85758" lon="4.73984">
        <ele>134</ele>
        <time>2024-05-08T12:32:52Z</time>
      </trkpt>
      <trkpt lat="49.85759" lon="4.73984">
        <ele>134</ele>
        <time>2024-05-08T12:32:53Z</time>
      </trkpt>
      <trkpt lat="49.85761" lon="4.73984">
        <ele>134</ele>
        <time>2024-05-08T12:32:54Z</time>
      </trkpt>
      <trkpt lat="49.85762" lon="4.73984">
        <ele>134</ele>
        <time>2024-05-08T12:32:55Z</time>
      </trkpt>
      <trkpt lat="49.85763" lon="4.73984">
        <ele>135</ele>
        <time>2024-05-08T12:32:56Z</time>
      </trkpt>
      <trkpt lat="49.85764" lon="4.73984">
        <ele>135</ele>
        <time>2024-05-08T12:32:57Z</time>
      </trkpt>
      <trkpt lat="49.85766" lon="4.73984">
        <ele>135</ele>
        <time>2024-05-08T12:32:58Z</time>
      </trkpt>
      <trkpt lat="49.85767" lon="4.73984">
        <ele>135</ele>
        <time>2024-05-08T12:32:59Z</time>
      </trkpt>
      <trkpt lat="49.85768" lon="4.73985">
        <ele>135</ele>
        <time>2024-05-08T12:33:00Z</time>
      </trkpt>
      <trkpt lat="49.85769" lon="4.73985">
        <ele>135</ele>
        <time>2024-05-08T12:33:01Z</time>
      </trkpt>
      <trkpt lat="49.8577" lon="4.73986">
        <ele>135</ele>
        <time>2024-05-08T12:33:02Z</time>
      </trkpt>
      <trkpt lat="49.85771" lon="4.73986">
        <ele>135</ele>
        <time>2024-05-08T12:33:03Z</time>
      </trkpt>
      <trkpt lat="49.85772" lon="4.73986">
        <ele>135</ele>
        <time>2024-05-08T12:33:04Z</time>
      </trkpt>
      <trkpt lat="49.85773" lon="4.73986">
        <ele>135</ele>
        <time>2024-05-08T12:33:05Z</time>
      </trkpt>
      <trkpt lat="49.85774" lon="4.73986">
        <ele>135</ele>
        <time>2024-05-08T12:33:06Z</time>
      </trkpt>
      <trkpt lat="49.85775" lon="4.73986">
        <ele>135</ele>
        <time>2024-05-08T12:33:07Z</time>
      </trkpt>
      <trkpt lat="49.85776" lon="4.73985">
        <ele>135</ele>
        <time>2024-05-08T12:33:08Z</time>
      </trkpt>
      <trkpt lat="49.85777" lon="4.73984">
        <ele>135</ele>
        <time>2024-05-08T12:33:09Z</time>
      </trkpt>
      <trkpt lat="49.85778" lon="4.73984">
        <ele>135</ele>
        <time>2024-05-08T12:33:10Z</time>
      </trkpt>
      <trkpt lat="49.8578" lon="4.73983">
        <ele>135</ele>
        <time>2024-05-08T12:33:11Z</time>
      </trkpt>
      <trkpt lat="49.85781" lon="4.73982">
        <ele>135</ele>
        <time>2024-05-08T12:33:12Z</time>
      </trkpt>
      <trkpt lat="49.85782" lon="4.73981">
        <ele>135</ele>
        <time>2024-05-08T12:33:13Z</time>
      </trkpt>
      <trkpt lat="49.85783" lon="4.73981">
        <ele>135</ele>
        <time>2024-05-08T12:33:14Z</time>
      </trkpt>
      <trkpt lat="49.85783" lon="4.7398">
        <ele>135</ele>
        <time>2024-05-08T12:33:15Z</time>
      </trkpt>
      <trkpt lat="49.85784" lon="4.73979">
        <ele>135</ele>
        <time>2024-05-08T12:33:16Z</time>
      </trkpt>
      <trkpt lat="49.85785" lon="4.73978">
        <ele>135</ele>
        <time>2024-05-08T12:33:17Z</time>
      </trkpt>
      <trkpt lat="49.85786" lon="4.73978">
        <ele>135</ele>
        <time>2024-05-08T12:33:18Z</time>
      </trkpt>
      <trkpt lat="49.85787" lon="4.73977">
        <ele>135</ele>
        <time>2024-05-08T12:33:19Z</time>
      </trkpt>
      <trkpt lat="49.85788" lon="4.73977">
        <ele>135</ele>
        <time>2024-05-08T12:33:20Z</time>
      </trkpt>
      <trkpt lat="49.85789" lon="4.73976">
        <ele>136</ele>
        <time>2024-05-08T12:33:21Z</time>
      </trkpt>
      <trkpt lat="49.8579" lon="4.73975">
        <ele>136</ele>
        <time>2024-05-08T12:33:22Z</time>
      </trkpt>
      <trkpt lat="49.85791" lon="4.73975">
        <ele>136</ele>
        <time>2024-05-08T12:33:23Z</time>
      </trkpt>
      <trkpt lat="49.85792" lon="4.73974">
        <ele>136</ele>
        <time>2024-05-08T12:33:24Z</time>
      </trkpt>
      <trkpt lat="49.85793" lon="4.73974">
        <ele>136</ele>
        <time>2024-05-08T12:33:25Z</time>
      </trkpt>
      <trkpt lat="49.85794" lon="4.73973">
        <ele>137</ele>
        <time>2024-05-08T12:33:26Z</time>
      </trkpt>
      <trkpt lat="49.85795" lon="4.73972">
        <ele>137</ele>
        <time>2024-05-08T12:33:27Z</time>
      </trkpt>
      <trkpt lat="49.85796" lon="4.73972">
        <ele>137</ele>
        <time>2024-05-08T12:33:28Z</time>
      </trkpt>
      <trkpt lat="49.85797" lon="4.73971">
        <ele>137</ele>
        <time>2024-05-08T12:33:29Z</time>
      </trkpt>
      <trkpt lat="49.85798" lon="4.7397">
        <ele>137</ele>
        <time>2024-05-08T12:33:30Z</time>
      </trkpt>
      <trkpt lat="49.85798" lon="4.73969">
        <ele>138</ele>
        <time>2024-05-08T12:33:31Z</time>
      </trkpt>
      <trkpt lat="49.85799" lon="4.73967">
        <ele>138</ele>
        <time>2024-05-08T12:33:32Z</time>
      </trkpt>
      <trkpt lat="49.85799" lon="4.73966">
        <ele>138</ele>
        <time>2024-05-08T12:33:33Z</time>
      </trkpt>
      <trkpt lat="49.858" lon="4.73964">
        <ele>138</ele>
        <time>2024-05-08T12:33:34Z</time>
      </trkpt>
      <trkpt lat="49.858" lon="4.73963">
        <ele>138</ele>
        <time>2024-05-08T12:33:35Z</time>
      </trkpt>
      <trkpt lat="49.858" lon="4.73961">
        <ele>139</ele>
        <time>2024-05-08T12:33:36Z</time>
      </trkpt>
      <trkpt lat="49.85801" lon="4.7396">
        <ele>139</ele>
        <time>2024-05-08T12:33:37Z</time>
      </trkpt>
      <trkpt lat="49.85801" lon="4.73958">
        <ele>139</ele>
        <time>2024-05-08T12:33:38Z</time>
      </trkpt>
      <trkpt lat="49.85801" lon="4.73957">
        <ele>139</ele>
        <time>2024-05-08T12:33:39Z</time>
      </trkpt>
      <trkpt lat="49.85801" lon="4.73956">
        <ele>139</ele>
        <time>2024-05-08T12:33:40Z</time>
      </trkpt>
      <trkpt lat="49.85801" lon="4.73954">
        <ele>140</ele>
        <time>2024-05-08T12:33:41Z</time>
      </trkpt>
      <trkpt lat="49.85801" lon="4.73953">
        <ele>140</ele>
        <time>2024-05-08T12:33:42Z</time>
      </trkpt>
      <trkpt lat="49.85801" lon="4.73951">
        <ele>140</ele>
        <time>2024-05-08T12:33:43Z</time>
      </trkpt>
      <trkpt lat="49.85801" lon="4.7395">
        <ele>140</ele>
        <time>2024-05-08T12:33:44Z</time>
      </trkpt>
      <trkpt lat="49.85801" lon="4.73948">
        <ele>140</ele>
        <time>2024-05-08T12:33:45Z</time>
      </trkpt>
      <trkpt lat="49.85801" lon="4.73947">
        <ele>141</ele>
        <time>2024-05-08T12:34:34Z</time>
      </trkpt>
      <trkpt lat="49.85801" lon="4.73946">
        <ele>141</ele>
        <time>2024-05-08T12:34:35Z</time>
      </trkpt>
      <trkpt lat="49.85802" lon="4.73946">
        <ele>142</ele>
        <time>2024-05-08T12:34:36Z</time>
      </trkpt>
      <trkpt lat="49.85802" lon="4.73944">
        <ele>142</ele>
        <time>2024-05-08T12:34:37Z</time>
      </trkpt>
      <trkpt lat="49.85802" lon="4.73943">
        <ele>142</ele>
        <time>2024-05-08T12:34:38Z</time>
      </trkpt>
      <trkpt lat="49.85802" lon="4.73941">
        <ele>142</ele>
        <time>2024-05-08T12:34:39Z</time>
      </trkpt>
      <trkpt lat="49.85802" lon="4.7394">
        <ele>142</ele>
        <time>2024-05-08T12:34:40Z</time>
      </trkpt>
      <trkpt lat="49.85802" lon="4.73938">
        <ele>142</ele>
        <time>2024-05-08T12:34:41Z</time>
      </trkpt>
      <trkpt lat="49.85803" lon="4.73936">
        <ele>142</ele>
        <time>2024-05-08T12:34:42Z</time>
      </trkpt>
      <trkpt lat="49.85803" lon="4.73935">
        <ele>142</ele>
        <time>2024-05-08T12:34:43Z</time>
      </trkpt>
      <trkpt lat="49.85804" lon="4.73933">
        <ele>142</ele>
        <time>2024-05-08T12:34:44Z</time>
      </trkpt>
      <trkpt lat="49.85804" lon="4.73931">
        <ele>142</ele>
        <time>2024-05-08T12:34:45Z</time>
      </trkpt>
      <trkpt lat="49.85804" lon="4.7393">
        <ele>143</ele>
        <time>2024-05-08T12:34:46Z</time>
      </trkpt>
      <trkpt lat="49.85805" lon="4.73928">
        <ele>143</ele>
        <time>2024-05-08T12:34:47Z</time>
      </trkpt>
      <trkpt lat="49.85805" lon="4.73927">
        <ele>143</ele>
        <time>2024-05-08T12:34:48Z</time>
      </trkpt>
      <trkpt lat="49.85805" lon="4.73926">
        <ele>143</ele>
        <time>2024-05-08T12:34:49Z</time>
      </trkpt>
      <trkpt lat="49.85805" lon="4.73924">
        <ele>143</ele>
        <time>2024-05-08T12:34:50Z</time>
      </trkpt>
      <trkpt lat="49.85806" lon="4.73923">
        <ele>143</ele>
        <time>2024-05-08T12:34:51Z</time>
      </trkpt>
      <trkpt lat="49.85806" lon="4.73922">
        <ele>143</ele>
        <time>2024-05-08T12:34:52Z</time>
      </trkpt>
      <trkpt lat="49.85806" lon="4.7392">
        <ele>143</ele>
        <time>2024-05-08T12:34:53Z</time>
      </trkpt>
      <trkpt lat="49.85807" lon="4.73919">
        <ele>143</ele>
        <time>2024-05-08T12:34:54Z</time>
      </trkpt>
      <trkpt lat="49.85807" lon="4.73917">
        <ele>143</ele>
        <time>2024-05-08T12:34:55Z</time>
      </trkpt>
      <trkpt lat="49.85807" lon="4.73916">
        <ele>144</ele>
        <time>2024-05-08T12:34:56Z</time>
      </trkpt>
      <trkpt lat="49.85808" lon="4.73914">
        <ele>144</ele>
        <time>2024-05-08T12:34:57Z</time>
      </trkpt>
      <trkpt lat="49.85808" lon="4.73913">
        <ele>144</ele>
        <time>2024-05-08T12:34:58Z</time>
      </trkpt>
      <trkpt lat="49.85809" lon="4.73911">
        <ele>144</ele>
        <time>2024-05-08T12:34:59Z</time>
      </trkpt>
      <trkpt lat="49.8581" lon="4.7391">
        <ele>144</ele>
        <time>2024-05-08T12:35:00Z</time>
      </trkpt>
      <trkpt lat="49.8581" lon="4.73908">
        <ele>145</ele>
        <time>2024-05-08T12:35:01Z</time>
      </trkpt>
      <trkpt lat="49.85811" lon="4.73907">
        <ele>145</ele>
        <time>2024-05-08T12:35:02Z</time>
      </trkpt>
      <trkpt lat="49.85812" lon="4.73905">
        <ele>145</ele>
        <time>2024-05-08T12:35:03Z</time>
      </trkpt>
      <trkpt lat="49.85812" lon="4.73903">
        <ele>145</ele>
        <time>2024-05-08T12:35:04Z</time>
      </trkpt>
      <trkpt lat="49.85812" lon="4.73902">
        <ele>145</ele>
        <time>2024-05-08T12:35:05Z</time>
      </trkpt>
      <trkpt lat="49.85813" lon="4.73901">
        <ele>146</ele>
        <time>2024-05-08T12:35:06Z</time>
      </trkpt>
      <trkpt lat="49.85813" lon="4.739">
        <ele>146</ele>
        <time>2024-05-08T12:35:07Z</time>
      </trkpt>
      <trkpt lat="49.85813" lon="4.73899">
        <ele>146</ele>
        <time>2024-05-08T12:35:08Z</time>
      </trkpt>
      <trkpt lat="49.85814" lon="4.73898">
        <ele>146</ele>
        <time>2024-05-08T12:35:09Z</time>
      </trkpt>
      <trkpt lat="49.85814" lon="4.73898">
        <ele>146</ele>
        <time>2024-05-08T12:35:10Z</time>
      </trkpt>
      <trkpt lat="49.85814" lon="4.73897">
        <ele>146</ele>
        <time>2024-05-08T12:35:11Z</time>
      </trkpt>
      <trkpt lat="49.85815" lon="4.73896">
        <ele>146</ele>
        <time>2024-05-08T12:35:12Z</time>
      </trkpt>
      <trkpt lat="49.85815" lon="4.73896">
        <ele>146</ele>
        <time>2024-05-08T12:35:13Z</time>
      </trkpt>
      <trkpt lat="49.85815" lon="4.73895">
        <ele>146</ele>
        <time>2024-05-08T12:35:14Z</time>
      </trkpt>
      <trkpt lat="49.85816" lon="4.73894">
        <ele>146</ele>
        <time>2024-05-08T12:35:15Z</time>
      </trkpt>
      <trkpt lat="49.85816" lon="4.73893">
        <ele>146</ele>
        <time>2024-05-08T12:35:16Z</time>
      </trkpt>
      <trkpt lat="49.85817" lon="4.73892">
        <ele>146</ele>
        <time>2024-05-08T12:35:17Z</time>
      </trkpt>
      <trkpt lat="49.85817" lon="4.73891">
        <ele>146</ele>
        <time>2024-05-08T12:35:18Z</time>
      </trkpt>
      <trkpt lat="49.85818" lon="4.73889">
        <ele>146</ele>
        <time>2024-05-08T12:35:19Z</time>
      </trkpt>
      <trkpt lat="49.85818" lon="4.73888">
        <ele>146</ele>
        <time>2024-05-08T12:35:20Z</time>
      </trkpt>
      <trkpt lat="49.85819" lon="4.73886">
        <ele>146</ele>
        <time>2024-05-08T12:35:21Z</time>
      </trkpt>
      <trkpt lat="49.85819" lon="4.73884">
        <ele>146</ele>
        <time>2024-05-08T12:35:22Z</time>
      </trkpt>
      <trkpt lat="49.8582" lon="4.73883">
        <ele>146</ele>
        <time>2024-05-08T12:35:23Z</time>
      </trkpt>
      <trkpt lat="49.8582" lon="4.73881">
        <ele>146</ele>
        <time>2024-05-08T12:35:24Z</time>
      </trkpt>
      <trkpt lat="49.85821" lon="4.7388">
        <ele>146</ele>
        <time>2024-05-08T12:35:25Z</time>
      </trkpt>
      <trkpt lat="49.85821" lon="4.73879">
        <ele>147</ele>
        <time>2024-05-08T12:35:26Z</time>
      </trkpt>
      <trkpt lat="49.85822" lon="4.73877">
        <ele>147</ele>
        <time>2024-05-08T12:35:27Z</time>
      </trkpt>
      <trkpt lat="49.85823" lon="4.73877">
        <ele>147</ele>
        <time>2024-05-08T12:35:28Z</time>
      </trkpt>
      <trkpt lat="49.85823" lon="4.73876">
        <ele>147</ele>
        <time>2024-05-08T12:35:29Z</time>
      </trkpt>
      <trkpt lat="49.85824" lon="4.73875">
        <ele>147</ele>
        <time>2024-05-08T12:35:30Z</time>
      </trkpt>
      <trkpt lat="49.85825" lon="4.73874">
        <ele>147</ele>
        <time>2024-05-08T12:35:31Z</time>
      </trkpt>
      <trkpt lat="49.85825" lon="4.73873">
        <ele>147</ele>
        <time>2024-05-08T12:35:32Z</time>
      </trkpt>
      <trkpt lat="49.85826" lon="4.73872">
        <ele>147</ele>
        <time>2024-05-08T12:35:33Z</time>
      </trkpt>
      <trkpt lat="49.85827" lon="4.73871">
        <ele>147</ele>
        <time>2024-05-08T12:35:34Z</time>
      </trkpt>
      <trkpt lat="49.85827" lon="4.7387">
        <ele>147</ele>
        <time>2024-05-08T12:35:35Z</time>
      </trkpt>
      <trkpt lat="49.85828" lon="4.73869">
        <ele>148</ele>
        <time>2024-05-08T12:35:36Z</time>
      </trkpt>
      <trkpt lat="49.85829" lon="4.73869">
        <ele>148</ele>
        <time>2024-05-08T12:35:37Z</time>
      </trkpt>
      <trkpt lat="49.85829" lon="4.73868">
        <ele>148</ele>
        <time>2024-05-08T12:35:38Z</time>
      </trkpt>
      <trkpt lat="49.8583" lon="4.73868">
        <ele>148</ele>
        <time>2024-05-08T12:35:39Z</time>
      </trkpt>
      <trkpt lat="49.85831" lon="4.73867">
        <ele>148</ele>
        <time>2024-05-08T12:35:40Z</time>
      </trkpt>
      <trkpt lat="49.85832" lon="4.73867">
        <ele>148</ele>
        <time>2024-05-08T12:35:41Z</time>
      </trkpt>
      <trkpt lat="49.85833" lon="4.73866">
        <ele>148</ele>
        <time>2024-05-08T12:35:42Z</time>
      </trkpt>
      <trkpt lat="49.85834" lon="4.73865">
        <ele>148</ele>
        <time>2024-05-08T12:35:43Z</time>
      </trkpt>
      <trkpt lat="49.85835" lon="4.73865">
        <ele>148</ele>
        <time>2024-05-08T12:35:44Z</time>
      </trkpt>
      <trkpt lat="49.85835" lon="4.73863">
        <ele>148</ele>
        <time>2024-05-08T12:35:45Z</time>
      </trkpt>
      <trkpt lat="49.85836" lon="4.73862">
        <ele>149</ele>
        <time>2024-05-08T12:35:46Z</time>
      </trkpt>
      <trkpt lat="49.85837" lon="4.73861">
        <ele>149</ele>
        <time>2024-05-08T12:35:47Z</time>
      </trkpt>
      <trkpt lat="49.85838" lon="4.7386">
        <ele>149</ele>
        <time>2024-05-08T12:35:48Z</time>
      </trkpt>
      <trkpt lat="49.85838" lon="4.73859">
        <ele>149</ele>
        <time>2024-05-08T12:35:49Z</time>
      </trkpt>
      <trkpt lat="49.85839" lon="4.73858">
        <ele>149</ele>
        <time>2024-05-08T12:35:50Z</time>
      </trkpt>
      <trkpt lat="49.8584" lon="4.73857">
        <ele>150</ele>
        <time>2024-05-08T12:35:51Z</time>
      </trkpt>
      <trkpt lat="49.85841" lon="4.73857">
        <ele>150</ele>
        <time>2024-05-08T12:35:52Z</time>
      </trkpt>
      <trkpt lat="49.85842" lon="4.73856">
        <ele>150</ele>
        <time>2024-05-08T12:35:53Z</time>
      </trkpt>
      <trkpt lat="49.85843" lon="4.73855">
        <ele>150</ele>
        <time>2024-05-08T12:35:54Z</time>
      </trkpt>
      <trkpt lat="49.85844" lon="4.73855">
        <ele>150</ele>
        <time>2024-05-08T12:35:55Z</time>
      </trkpt>
      <trkpt lat="49.85845" lon="4.73854">
        <ele>150</ele>
        <time>2024-05-08T12:35:56Z</time>
      </trkpt>
      <trkpt lat="49.85846" lon="4.73854">
        <ele>150</ele>
        <time>2024-05-08T12:35:57Z</time>
      </trkpt>
      <trkpt lat="49.85847" lon="4.73853">
        <ele>150</ele>
        <time>2024-05-08T12:35:58Z</time>
      </trkpt>
      <trkpt lat="49.85849" lon="4.73853">
        <ele>150</ele>
        <time>2024-05-08T12:35:59Z</time>
      </trkpt>
      <trkpt lat="49.8585" lon="4.73852">
        <ele>150</ele>
        <time>2024-05-08T12:36:00Z</time>
      </trkpt>
      <trkpt lat="49.85851" lon="4.73851">
        <ele>151</ele>
        <time>2024-05-08T12:36:01Z</time>
      </trkpt>
      <trkpt lat="49.85852" lon="4.7385">
        <ele>151</ele>
        <time>2024-05-08T12:36:02Z</time>
      </trkpt>
      <trkpt lat="49.85853" lon="4.73849">
        <ele>151</ele>
        <time>2024-05-08T12:36:03Z</time>
      </trkpt>
      <trkpt lat="49.85854" lon="4.73848">
        <ele>151</ele>
        <time>2024-05-08T12:36:04Z</time>
      </trkpt>
      <trkpt lat="49.85854" lon="4.73846">
        <ele>151</ele>
        <time>2024-05-08T12:36:05Z</time>
      </trkpt>
      <trkpt lat="49.85855" lon="4.73845">
        <ele>151</ele>
        <time>2024-05-08T12:36:06Z</time>
      </trkpt>
      <trkpt lat="49.85856" lon="4.73844">
        <ele>151</ele>
        <time>2024-05-08T12:36:07Z</time>
      </trkpt>
      <trkpt lat="49.85857" lon="4.73843">
        <ele>151</ele>
        <time>2024-05-08T12:36:08Z</time>
      </trkpt>
      <trkpt lat="49.85858" lon="4.73842">
        <ele>151</ele>
        <time>2024-05-08T12:36:09Z</time>
      </trkpt>
      <trkpt lat="49.85859" lon="4.73841">
        <ele>151</ele>
        <time>2024-05-08T12:36:10Z</time>
      </trkpt>
      <trkpt lat="49.8586" lon="4.73841">
        <ele>151</ele>
        <time>2024-05-08T12:36:11Z</time>
      </trkpt>
      <trkpt lat="49.85862" lon="4.73841">
        <ele>151</ele>
        <time>2024-05-08T12:36:12Z</time>
      </trkpt>
      <trkpt lat="49.85863" lon="4.7384">
        <ele>151</ele>
        <time>2024-05-08T12:36:13Z</time>
      </trkpt>
      <trkpt lat="49.85864" lon="4.7384">
        <ele>151</ele>
        <time>2024-05-08T12:36:14Z</time>
      </trkpt>
      <trkpt lat="49.85865" lon="4.7384">
        <ele>151</ele>
        <time>2024-05-08T12:36:15Z</time>
      </trkpt>
      <trkpt lat="49.85866" lon="4.73839">
        <ele>152</ele>
        <time>2024-05-08T12:36:16Z</time>
      </trkpt>
      <trkpt lat="49.85867" lon="4.73839">
        <ele>152</ele>
        <time>2024-05-08T12:36:17Z</time>
      </trkpt>
      <trkpt lat="49.85868" lon="4.73839">
        <ele>152</ele>
        <time>2024-05-08T12:36:18Z</time>
      </trkpt>
      <trkpt lat="49.85869" lon="4.73839">
        <ele>152</ele>
        <time>2024-05-08T12:36:19Z</time>
      </trkpt>
      <trkpt lat="49.85871" lon="4.73839">
        <ele>152</ele>
        <time>2024-05-08T12:36:20Z</time>
      </trkpt>
      <trkpt lat="49.85872" lon="4.73839">
        <ele>152</ele>
        <time>2024-05-08T12:36:21Z</time>
      </trkpt>
      <trkpt lat="49.85873" lon="4.73839">
        <ele>152</ele>
        <time>2024-05-08T12:36:22Z</time>
      </trkpt>
      <trkpt lat="49.85874" lon="4.7384">
        <ele>152</ele>
        <time>2024-05-08T12:36:23Z</time>
      </trkpt>
      <trkpt lat="49.85875" lon="4.73841">
        <ele>152</ele>
        <time>2024-05-08T12:36:24Z</time>
      </trkpt>
      <trkpt lat="49.85876" lon="4.73841">
        <ele>152</ele>
        <time>2024-05-08T12:36:25Z</time>
      </trkpt>
      <trkpt lat="49.85877" lon="4.73842">
        <ele>153</ele>
        <time>2024-05-08T12:36:26Z</time>
      </trkpt>
      <trkpt lat="49.85877" lon="4.73843">
        <ele>153</ele>
        <time>2024-05-08T12:36:27Z</time>
      </trkpt>
      <trkpt lat="49.85878" lon="4.73844">
        <ele>153</ele>
        <time>2024-05-08T12:36:28Z</time>
      </trkpt>
      <trkpt lat="49.85879" lon="4.73845">
        <ele>153</ele>
        <time>2024-05-08T12:36:29Z</time>
      </trkpt>
      <trkpt lat="49.8588" lon="4.73847">
        <ele>153</ele>
        <time>2024-05-08T12:36:30Z</time>
      </trkpt>
      <trkpt lat="49.8588" lon="4.73848">
        <ele>154</ele>
        <time>2024-05-08T12:36:31Z</time>
      </trkpt>
      <trkpt lat="49.85881" lon="4.73849">
        <ele>154</ele>
        <time>2024-05-08T12:36:32Z</time>
      </trkpt>
      <trkpt lat="49.85882" lon="4.7385">
        <ele>154</ele>
        <time>2024-05-08T12:36:33Z</time>
      </trkpt>
      <trkpt lat="49.85882" lon="4.73851">
        <ele>154</ele>
        <time>2024-05-08T12:36:34Z</time>
      </trkpt>
      <trkpt lat="49.85883" lon="4.73853">
        <ele>154</ele>
        <time>2024-05-08T12:36:35Z</time>
      </trkpt>
      <trkpt lat="49.85884" lon="4.73854">
        <ele>154</ele>
        <time>2024-05-08T12:36:36Z</time>
      </trkpt>
      <trkpt lat="49.85885" lon="4.73855">
        <ele>154</ele>
        <time>2024-05-08T12:36:37Z</time>
      </trkpt>
      <trkpt lat="49.85885" lon="4.73857">
        <ele>154</ele>
        <time>2024-05-08T12:36:38Z</time>
      </trkpt>
      <trkpt lat="49.85886" lon="4.73858">
        <ele>154</ele>
        <time>2024-05-08T12:36:39Z</time>
      </trkpt>
      <trkpt lat="49.85887" lon="4.73859">
        <ele>154</ele>
        <time>2024-05-08T12:36:40Z</time>
      </trkpt>
      <trkpt lat="49.85887" lon="4.73861">
        <ele>155</ele>
        <time>2024-05-08T12:36:41Z</time>
      </trkpt>
      <trkpt lat="49.85888" lon="4.73862">
        <ele>155</ele>
        <time>2024-05-08T12:36:42Z</time>
      </trkpt>
      <trkpt lat="49.85888" lon="4.73863">
        <ele>155</ele>
        <time>2024-05-08T12:36:43Z</time>
      </trkpt>
      <trkpt lat="49.85889" lon="4.73864">
        <ele>155</ele>
        <time>2024-05-08T12:36:44Z</time>
      </trkpt>
      <trkpt lat="49.8589" lon="4.73865">
        <ele>155</ele>
        <time>2024-05-08T12:36:45Z</time>
      </trkpt>
      <trkpt lat="49.8589" lon="4.73866">
        <ele>156</ele>
        <time>2024-05-08T12:36:46Z</time>
      </trkpt>
      <trkpt lat="49.85891" lon="4.73867">
        <ele>156</ele>
        <time>2024-05-08T12:36:47Z</time>
      </trkpt>
      <trkpt lat="49.85892" lon="4.73868">
        <ele>156</ele>
        <time>2024-05-08T12:36:48Z</time>
      </trkpt>
      <trkpt lat="49.85892" lon="4.73869">
        <ele>156</ele>
        <time>2024-05-08T12:36:49Z</time>
      </trkpt>
      <trkpt lat="49.85893" lon="4.7387">
        <ele>156</ele>
        <time>2024-05-08T12:36:50Z</time>
      </trkpt>
      <trkpt lat="49.85893" lon="4.73871">
        <ele>157</ele>
        <time>2024-05-08T12:36:51Z</time>
      </trkpt>
      <trkpt lat="49.85894" lon="4.73872">
        <ele>157</ele>
        <time>2024-05-08T12:36:52Z</time>
      </trkpt>
      <trkpt lat="49.85895" lon="4.73872">
        <ele>157</ele>
        <time>2024-05-08T12:36:53Z</time>
      </trkpt>
      <trkpt lat="49.85895" lon="4.73873">
        <ele>157</ele>
        <time>2024-05-08T12:36:54Z</time>
      </trkpt>
      <trkpt lat="49.85896" lon="4.73874">
        <ele>157</ele>
        <time>2024-05-08T12:36:55Z</time>
      </trkpt>
      <trkpt lat="49.85897" lon="4.73876">
        <ele>158</ele>
        <time>2024-05-08T12:36:56Z</time>
      </trkpt>
      <trkpt lat="49.85897" lon="4.73877">
        <ele>158</ele>
        <time>2024-05-08T12:36:57Z</time>
      </trkpt>
      <trkpt lat="49.85897" lon="4.73878">
        <ele>158</ele>
        <time>2024-05-08T12:36:58Z</time>
      </trkpt>
      <trkpt lat="49.85897" lon="4.73878">
        <ele>158</ele>
        <time>2024-05-08T12:36:59Z</time>
      </trkpt>
      <trkpt lat="49.85897" lon="4.73879">
        <ele>158</ele>
        <time>2024-05-08T12:37:00Z</time>
      </trkpt>
      <trkpt lat="49.85897" lon="4.7388">
        <ele>159</ele>
        <time>2024-05-08T12:37:01Z</time>
      </trkpt>
      <trkpt lat="49.85897" lon="4.73881">
        <ele>159</ele>
        <time>2024-05-08T12:37:02Z</time>
      </trkpt>
      <trkpt lat="49.85896" lon="4.73882">
        <ele>159</ele>
        <time>2024-05-08T12:37:03Z</time>
      </trkpt>
      <trkpt lat="49.85895" lon="4.73882">
        <ele>159</ele>
        <time>2024-05-08T12:37:04Z</time>
      </trkpt>
      <trkpt lat="49.85895" lon="4.73883">
        <ele>159</ele>
        <time>2024-05-08T12:37:05Z</time>
      </trkpt>
      <trkpt lat="49.85895" lon="4.73883">
        <ele>159</ele>
        <time>2024-05-08T12:37:06Z</time>
      </trkpt>
      <trkpt lat="49.85894" lon="4.73885">
        <ele>159</ele>
        <time>2024-05-08T12:37:07Z</time>
      </trkpt>
      <trkpt lat="49.85893" lon="4.73886">
        <ele>159</ele>
        <time>2024-05-08T12:37:08Z</time>
      </trkpt>
      <trkpt lat="49.85892" lon="4.73887">
        <ele>159</ele>
        <time>2024-05-08T12:37:09Z</time>
      </trkpt>
      <trkpt lat="49.85892" lon="4.73888">
        <ele>159</ele>
        <time>2024-05-08T12:37:10Z</time>
      </trkpt>
      <trkpt lat="49.85891" lon="4.73889">
        <ele>160</ele>
        <time>2024-05-08T12:37:11Z</time>
      </trkpt>
      <trkpt lat="49.85891" lon="4.7389">
        <ele>160</ele>
        <time>2024-05-08T12:37:12Z</time>
      </trkpt>
      <trkpt lat="49.8589" lon="4.73891">
        <ele>160</ele>
        <time>2024-05-08T12:37:13Z</time>
      </trkpt>
      <trkpt lat="49.85889" lon="4.73893">
        <ele>160</ele>
        <time>2024-05-08T12:37:14Z</time>
      </trkpt>
      <trkpt lat="49.85889" lon="4.73894">
        <ele>160</ele>
        <time>2024-05-08T12:37:15Z</time>
      </trkpt>
      <trkpt lat="49.85888" lon="4.73895">
        <ele>161</ele>
        <time>2024-05-08T12:37:16Z</time>
      </trkpt>
      <trkpt lat="49.85888" lon="4.73896">
        <ele>161</ele>
        <time>2024-05-08T12:37:17Z</time>
      </trkpt>
      <trkpt lat="49.85887" lon="4.73897">
        <ele>161</ele>
        <time>2024-05-08T12:37:18Z</time>
      </trkpt>
      <trkpt lat="49.85886" lon="4.73899">
        <ele>161</ele>
        <time>2024-05-08T12:37:19Z</time>
      </trkpt>
      <trkpt lat="49.85886" lon="4.739">
        <ele>161</ele>
        <time>2024-05-08T12:37:20Z</time>
      </trkpt>
      <trkpt lat="49.85885" lon="4.73901">
        <ele>162</ele>
        <time>2024-05-08T12:37:21Z</time>
      </trkpt>
      <trkpt lat="49.85884" lon="4.73902">
        <ele>162</ele>
        <time>2024-05-08T12:37:22Z</time>
      </trkpt>
      <trkpt lat="49.85884" lon="4.73903">
        <ele>162</ele>
        <time>2024-05-08T12:37:23Z</time>
      </trkpt>
      <trkpt lat="49.85883" lon="4.73904">
        <ele>162</ele>
        <time>2024-05-08T12:37:24Z</time>
      </trkpt>
      <trkpt lat="49.85882" lon="4.73906">
        <ele>162</ele>
        <time>2024-05-08T12:37:25Z</time>
      </trkpt>
      <trkpt lat="49.85882" lon="4.73907">
        <ele>163</ele>
        <time>2024-05-08T12:37:26Z</time>
      </trkpt>
      <trkpt lat="49.85881" lon="4.73909">
        <ele>163</ele>
        <time>2024-05-08T12:37:27Z</time>
      </trkpt>
      <trkpt lat="49.85881" lon="4.7391">
        <ele>163</ele>
        <time>2024-05-08T12:37:28Z</time>
      </trkpt>
      <trkpt lat="49.8588" lon="4.73911">
        <ele>163</ele>
        <time>2024-05-08T12:37:29Z</time>
      </trkpt>
      <trkpt lat="49.85879" lon="4.73913">
        <ele>163</ele>
        <time>2024-05-08T12:37:30Z</time>
      </trkpt>
      <trkpt lat="49.85879" lon="4.73914">
        <ele>163</ele>
        <time>2024-05-08T12:37:31Z</time>
      </trkpt>
      <trkpt lat="49.85878" lon="4.73915">
        <ele>163</ele>
        <time>2024-05-08T12:37:32Z</time>
      </trkpt>
      <trkpt lat="49.85878" lon="4.73917">
        <ele>163</ele>
        <time>2024-05-08T12:37:33Z</time>
      </trkpt>
      <trkpt lat="49.85877" lon="4.73918">
        <ele>163</ele>
        <time>2024-05-08T12:37:34Z</time>
      </trkpt>
      <trkpt lat="49.85877" lon="4.73919">
        <ele>163</ele>
        <time>2024-05-08T12:37:35Z</time>
      </trkpt>
      <trkpt lat="49.85876" lon="4.7392">
        <ele>164</ele>
        <time>2024-05-08T12:37:36Z</time>
      </trkpt>
      <trkpt lat="49.85876" lon="4.73921">
        <ele>164</ele>
        <time>2024-05-08T12:37:37Z</time>
      </trkpt>
      <trkpt lat="49.85875" lon="4.73922">
        <ele>164</ele>
        <time>2024-05-08T12:37:38Z</time>
      </trkpt>
      <trkpt lat="49.85875" lon="4.73923">
        <ele>164</ele>
        <time>2024-05-08T12:37:39Z</time>
      </trkpt>
      <trkpt lat="49.85874" lon="4.73925">
        <ele>164</ele>
        <time>2024-05-08T12:37:40Z</time>
      </trkpt>
      <trkpt lat="49.85874" lon="4.73926">
        <ele>165</ele>
        <time>2024-05-08T12:37:41Z</time>
      </trkpt>
      <trkpt lat="49.85873" lon="4.73927">
        <ele>165</ele>
        <time>2024-05-08T12:37:42Z</time>
      </trkpt>
      <trkpt lat="49.85872" lon="4.73928">
        <ele>165</ele>
        <time>2024-05-08T12:37:43Z</time>
      </trkpt>
      <trkpt lat="49.85872" lon="4.73929">
        <ele>165</ele>
        <time>2024-05-08T12:37:44Z</time>
      </trkpt>
      <trkpt lat="49.85871" lon="4.73931">
        <ele>165</ele>
        <time>2024-05-08T12:37:45Z</time>
      </trkpt>
      <trkpt lat="49.85871" lon="4.73932">
        <ele>166</ele>
        <time>2024-05-08T12:37:46Z</time>
      </trkpt>
      <trkpt lat="49.85871" lon="4.73933">
        <ele>166</ele>
        <time>2024-05-08T12:37:47Z</time>
      </trkpt>
      <trkpt lat="49.8587" lon="4.73935">
        <ele>166</ele>
        <time>2024-05-08T12:37:48Z</time>
      </trkpt>
      <trkpt lat="49.8587" lon="4.73936">
        <ele>166</ele>
        <time>2024-05-08T12:37:49Z</time>
      </trkpt>
      <trkpt lat="49.8587" lon="4.73937">
        <ele>166</ele>
        <time>2024-05-08T12:37:50Z</time>
      </trkpt>
      <trkpt lat="49.8587" lon="4.73938">
        <ele>167</ele>
        <time>2024-05-08T12:37:51Z</time>
      </trkpt>
      <trkpt lat="49.8587" lon="4.73939">
        <ele>167</ele>
        <time>2024-05-08T12:37:52Z</time>
      </trkpt>
      <trkpt lat="49.8587" lon="4.73941">
        <ele>167</ele>
        <time>2024-05-08T12:37:53Z</time>
      </trkpt>
      <trkpt lat="49.8587" lon="4.73942">
        <ele>167</ele>
        <time>2024-05-08T12:37:54Z</time>
      </trkpt>
      <trkpt lat="49.8587" lon="4.73943">
        <ele>167</ele>
        <time>2024-05-08T12:37:55Z</time>
      </trkpt>
      <trkpt lat="49.8587" lon="4.73945">
        <ele>167</ele>
        <time>2024-05-08T12:37:56Z</time>
      </trkpt>
      <trkpt lat="49.85869" lon="4.73946">
        <ele>167</ele>
        <time>2024-05-08T12:37:57Z</time>
      </trkpt>
      <trkpt lat="49.85869" lon="4.73948">
        <ele>167</ele>
        <time>2024-05-08T12:37:58Z</time>
      </trkpt>
      <trkpt lat="49.85869" lon="4.73949">
        <ele>167</ele>
        <time>2024-05-08T12:37:59Z</time>
      </trkpt>
      <trkpt lat="49.8587" lon="4.7395">
        <ele>167</ele>
        <time>2024-05-08T12:38:00Z</time>
      </trkpt>
      <trkpt lat="49.8587" lon="4.73952">
        <ele>168</ele>
        <time>2024-05-08T12:38:01Z</time>
      </trkpt>
      <trkpt lat="49.8587" lon="4.73953">
        <ele>168</ele>
        <time>2024-05-08T12:38:02Z</time>
      </trkpt>
      <trkpt lat="49.8587" lon="4.73954">
        <ele>168</ele>
        <time>2024-05-08T12:38:03Z</time>
      </trkpt>
      <trkpt lat="49.8587" lon="4.73956">
        <ele>168</ele>
        <time>2024-05-08T12:38:04Z</time>
      </trkpt>
      <trkpt lat="49.8587" lon="4.73957">
        <ele>168</ele>
        <time>2024-05-08T12:38:05Z</time>
      </trkpt>
      <trkpt lat="49.8587" lon="4.73958">
        <ele>169</ele>
        <time>2024-05-08T12:38:06Z</time>
      </trkpt>
      <trkpt lat="49.8587" lon="4.7396">
        <ele>169</ele>
        <time>2024-05-08T12:38:07Z</time>
      </trkpt>
      <trkpt lat="49.8587" lon="4.73961">
        <ele>169</ele>
        <time>2024-05-08T12:38:08Z</time>
      </trkpt>
      <trkpt lat="49.8587" lon="4.73962">
        <ele>169</ele>
        <time>2024-05-08T12:38:09Z</time>
      </trkpt>
      <trkpt lat="49.85869" lon="4.73963">
        <ele>169</ele>
        <time>2024-05-08T12:38:10Z</time>
      </trkpt>
      <trkpt lat="49.85869" lon="4.73964">
        <ele>170</ele>
        <time>2024-05-08T12:38:11Z</time>
      </trkpt>
      <trkpt lat="49.85869" lon="4.73965">
        <ele>170</ele>
        <time>2024-05-08T12:38:12Z</time>
      </trkpt>
      <trkpt lat="49.85868" lon="4.73966">
        <ele>170</ele>
        <time>2024-05-08T12:38:13Z</time>
      </trkpt>
      <trkpt lat="49.85868" lon="4.73967">
        <ele>170</ele>
        <time>2024-05-08T12:38:14Z</time>
      </trkpt>
      <trkpt lat="49.85868" lon="4.73969">
        <ele>170</ele>
        <time>2024-05-08T12:38:15Z</time>
      </trkpt>
      <trkpt lat="49.85867" lon="4.7397">
        <ele>171</ele>
        <time>2024-05-08T12:38:16Z</time>
      </trkpt>
      <trkpt lat="49.85867" lon="4.73971">
        <ele>171</ele>
        <time>2024-05-08T12:38:17Z</time>
      </trkpt>
      <trkpt lat="49.85867" lon="4.73973">
        <ele>171</ele>
        <time>2024-05-08T12:38:18Z</time>
      </trkpt>
      <trkpt lat="49.85867" lon="4.73974">
        <ele>171</ele>
        <time>2024-05-08T12:38:19Z</time>
      </trkpt>
      <trkpt lat="49.85867" lon="4.73975">
        <ele>171</ele>
        <time>2024-05-08T12:38:20Z</time>
      </trkpt>
      <trkpt lat="49.85867" lon="4.73976">
        <ele>172</ele>
        <time>2024-05-08T12:38:21Z</time>
      </trkpt>
      <trkpt lat="49.85867" lon="4.73978">
        <ele>172</ele>
        <time>2024-05-08T12:38:22Z</time>
      </trkpt>
      <trkpt lat="49.85867" lon="4.73979">
        <ele>172</ele>
        <time>2024-05-08T12:38:23Z</time>
      </trkpt>
      <trkpt lat="49.85867" lon="4.7398">
        <ele>172</ele>
        <time>2024-05-08T12:38:24Z</time>
      </trkpt>
      <trkpt lat="49.85867" lon="4.73981">
        <ele>172</ele>
        <time>2024-05-08T12:38:25Z</time>
      </trkpt>
      <trkpt lat="49.85867" lon="4.73982">
        <ele>173</ele>
        <time>2024-05-08T12:38:26Z</time>
      </trkpt>
      <trkpt lat="49.85867" lon="4.73983">
        <ele>173</ele>
        <time>2024-05-08T12:38:27Z</time>
      </trkpt>
      <trkpt lat="49.85867" lon="4.73984">
        <ele>173</ele>
        <time>2024-05-08T12:38:28Z</time>
      </trkpt>
      <trkpt lat="49.85867" lon="4.73985">
        <ele>173</ele>
        <time>2024-05-08T12:38:29Z</time>
      </trkpt>
      <trkpt lat="49.85867" lon="4.73986">
        <ele>173</ele>
        <time>2024-05-08T12:38:30Z</time>
      </trkpt>
      <trkpt lat="49.85867" lon="4.73986">
        <ele>174</ele>
        <time>2024-05-08T12:38:31Z</time>
      </trkpt>
      <trkpt lat="49.85868" lon="4.73987">
        <ele>174</ele>
        <time>2024-05-08T12:38:32Z</time>
      </trkpt>
      <trkpt lat="49.85868" lon="4.73988">
        <ele>174</ele>
        <time>2024-05-08T12:38:33Z</time>
      </trkpt>
      <trkpt lat="49.85869" lon="4.73988">
        <ele>174</ele>
        <time>2024-05-08T12:38:34Z</time>
      </trkpt>
      <trkpt lat="49.85869" lon="4.73989">
        <ele>174</ele>
        <time>2024-05-08T12:38:35Z</time>
      </trkpt>
      <trkpt lat="49.8587" lon="4.73989">
        <ele>175</ele>
        <time>2024-05-08T12:38:36Z</time>
      </trkpt>
      <trkpt lat="49.8587" lon="4.7399">
        <ele>175</ele>
        <time>2024-05-08T12:38:37Z</time>
      </trkpt>
      <trkpt lat="49.85871" lon="4.73991">
        <ele>175</ele>
        <time>2024-05-08T12:38:38Z</time>
      </trkpt>
      <trkpt lat="49.85871" lon="4.73992">
        <ele>175</ele>
        <time>2024-05-08T12:38:39Z</time>
      </trkpt>
      <trkpt lat="49.85871" lon="4.73993">
        <ele>175</ele>
        <time>2024-05-08T12:38:40Z</time>
      </trkpt>
      <trkpt lat="49.85872" lon="4.73994">
        <ele>176</ele>
        <time>2024-05-08T12:38:41Z</time>
      </trkpt>
      <trkpt lat="49.85872" lon="4.73994">
        <ele>176</ele>
        <time>2024-05-08T12:38:42Z</time>
      </trkpt>
      <trkpt lat="49.85872" lon="4.73995">
        <ele>176</ele>
        <time>2024-05-08T12:38:43Z</time>
      </trkpt>
      <trkpt lat="49.85872" lon="4.73996">
        <ele>176</ele>
        <time>2024-05-08T12:38:44Z</time>
      </trkpt>
      <trkpt lat="49.85873" lon="4.73997">
        <ele>176</ele>
        <time>2024-05-08T12:38:45Z</time>
      </trkpt>
      <trkpt lat="49.85873" lon="4.73998">
        <ele>177</ele>
        <time>2024-05-08T12:38:46Z</time>
      </trkpt>
      <trkpt lat="49.85873" lon="4.73999">
        <ele>177</ele>
        <time>2024-05-08T12:38:47Z</time>
      </trkpt>
      <trkpt lat="49.85874" lon="4.73999">
        <ele>177</ele>
        <time>2024-05-08T12:38:48Z</time>
      </trkpt>
      <trkpt lat="49.85874" lon="4.74">
        <ele>177</ele>
        <time>2024-05-08T12:38:49Z</time>
      </trkpt>
      <trkpt lat="49.85874" lon="4.74">
        <ele>177</ele>
        <time>2024-05-08T12:38:50Z</time>
      </trkpt>
      <trkpt lat="49.85874" lon="4.74001">
        <ele>178</ele>
        <time>2024-05-08T12:38:51Z</time>
      </trkpt>
      <trkpt lat="49.85875" lon="4.74002">
        <ele>178</ele>
        <time>2024-05-08T12:38:52Z</time>
      </trkpt>
      <trkpt lat="49.85875" lon="4.74003">
        <ele>178</ele>
        <time>2024-05-08T12:38:53Z</time>
      </trkpt>
      <trkpt lat="49.85875" lon="4.74004">
        <ele>178</ele>
        <time>2024-05-08T12:38:54Z</time>
      </trkpt>
      <trkpt lat="49.85875" lon="4.74006">
        <ele>178</ele>
        <time>2024-05-08T12:38:55Z</time>
      </trkpt>
      <trkpt lat="49.85876" lon="4.74007">
        <ele>179</ele>
        <time>2024-05-08T12:38:56Z</time>
      </trkpt>
      <trkpt lat="49.85876" lon="4.74008">
        <ele>179</ele>
        <time>2024-05-08T12:38:57Z</time>
      </trkpt>
      <trkpt lat="49.85876" lon="4.7401">
        <ele>179</ele>
        <time>2024-05-08T12:38:58Z</time>
      </trkpt>
      <trkpt lat="49.85876" lon="4.74011">
        <ele>179</ele>
        <time>2024-05-08T12:38:59Z</time>
      </trkpt>
      <trkpt lat="49.85876" lon="4.74012">
        <ele>179</ele>
        <time>2024-05-08T12:39:00Z</time>
      </trkpt>
      <trkpt lat="49.85876" lon="4.74013">
        <ele>180</ele>
        <time>2024-05-08T12:39:01Z</time>
      </trkpt>
      <trkpt lat="49.85876" lon="4.74014">
        <ele>180</ele>
        <time>2024-05-08T12:39:02Z</time>
      </trkpt>
      <trkpt lat="49.85877" lon="4.74015">
        <ele>182</ele>
        <time>2024-05-08T12:39:41Z</time>
      </trkpt>
      <trkpt lat="49.85878" lon="4.74015">
        <ele>182</ele>
        <time>2024-05-08T12:39:42Z</time>
      </trkpt>
      <trkpt lat="49.85879" lon="4.74015">
        <ele>182</ele>
        <time>2024-05-08T12:39:43Z</time>
      </trkpt>
      <trkpt lat="49.85879" lon="4.74015">
        <ele>182</ele>
        <time>2024-05-08T12:39:44Z</time>
      </trkpt>
      <trkpt lat="49.8588" lon="4.74015">
        <ele>182</ele>
        <time>2024-05-08T12:39:45Z</time>
      </trkpt>
      <trkpt lat="49.85881" lon="4.74014">
        <ele>183</ele>
        <time>2024-05-08T12:39:46Z</time>
      </trkpt>
      <trkpt lat="49.85881" lon="4.74014">
        <ele>183</ele>
        <time>2024-05-08T12:39:47Z</time>
      </trkpt>
      <trkpt lat="49.85882" lon="4.74014">
        <ele>183</ele>
        <time>2024-05-08T12:39:48Z</time>
      </trkpt>
      <trkpt lat="49.85883" lon="4.74014">
        <ele>183</ele>
        <time>2024-05-08T12:39:49Z</time>
      </trkpt>
      <trkpt lat="49.85884" lon="4.74013">
        <ele>183</ele>
        <time>2024-05-08T12:39:50Z</time>
      </trkpt>
      <trkpt lat="49.85885" lon="4.74013">
        <ele>183</ele>
        <time>2024-05-08T12:39:51Z</time>
      </trkpt>
      <trkpt lat="49.85886" lon="4.74013">
        <ele>183</ele>
        <time>2024-05-08T12:39:52Z</time>
      </trkpt>
      <trkpt lat="49.85886" lon="4.74013">
        <ele>183</ele>
        <time>2024-05-08T12:39:53Z</time>
      </trkpt>
      <trkpt lat="49.85887" lon="4.74013">
        <ele>183</ele>
        <time>2024-05-08T12:39:54Z</time>
      </trkpt>
      <trkpt lat="49.85888" lon="4.74013">
        <ele>183</ele>
        <time>2024-05-08T12:39:55Z</time>
      </trkpt>
      <trkpt lat="49.85889" lon="4.74013">
        <ele>184</ele>
        <time>2024-05-08T12:39:56Z</time>
      </trkpt>
      <trkpt lat="49.85889" lon="4.74013">
        <ele>184</ele>
        <time>2024-05-08T12:39:57Z</time>
      </trkpt>
      <trkpt lat="49.8589" lon="4.74013">
        <ele>184</ele>
        <time>2024-05-08T12:39:58Z</time>
      </trkpt>
      <trkpt lat="49.85891" lon="4.74013">
        <ele>185</ele>
        <time>2024-05-08T12:39:59Z</time>
      </trkpt>
      <trkpt lat="49.85891" lon="4.74013">
        <ele>185</ele>
        <time>2024-05-08T12:40:00Z</time>
      </trkpt>
      <trkpt lat="49.85892" lon="4.74013">
        <ele>186</ele>
        <time>2024-05-08T12:40:01Z</time>
      </trkpt>
      <trkpt lat="49.85892" lon="4.74013">
        <ele>186</ele>
        <time>2024-05-08T12:40:02Z</time>
      </trkpt>
      <trkpt lat="49.85893" lon="4.74013">
        <ele>186</ele>
        <time>2024-05-08T12:40:03Z</time>
      </trkpt>
      <trkpt lat="49.85893" lon="4.74014">
        <ele>186</ele>
        <time>2024-05-08T12:40:04Z</time>
      </trkpt>
      <trkpt lat="49.85894" lon="4.74015">
        <ele>186</ele>
        <time>2024-05-08T12:40:05Z</time>
      </trkpt>
      <trkpt lat="49.85894" lon="4.74015">
        <ele>187</ele>
        <time>2024-05-08T12:40:06Z</time>
      </trkpt>
      <trkpt lat="49.85894" lon="4.74016">
        <ele>187</ele>
        <time>2024-05-08T12:40:07Z</time>
      </trkpt>
      <trkpt lat="49.85895" lon="4.74017">
        <ele>187</ele>
        <time>2024-05-08T12:40:08Z</time>
      </trkpt>
      <trkpt lat="49.85895" lon="4.74018">
        <ele>187</ele>
        <time>2024-05-08T12:40:09Z</time>
      </trkpt>
      <trkpt lat="49.85895" lon="4.74019">
        <ele>187</ele>
        <time>2024-05-08T12:40:10Z</time>
      </trkpt>
      <trkpt lat="49.85895" lon="4.7402">
        <ele>188</ele>
        <time>2024-05-08T12:40:11Z</time>
      </trkpt>
      <trkpt lat="49.85895" lon="4.74021">
        <ele>188</ele>
        <time>2024-05-08T12:40:12Z</time>
      </trkpt>
      <trkpt lat="49.85895" lon="4.74022">
        <ele>188</ele>
        <time>2024-05-08T12:40:13Z</time>
      </trkpt>
      <trkpt lat="49.85895" lon="4.74023">
        <ele>188</ele>
        <time>2024-05-08T12:40:14Z</time>
      </trkpt>
      <trkpt lat="49.85895" lon="4.74025">
        <ele>188</ele>
        <time>2024-05-08T12:40:15Z</time>
      </trkpt>
      <trkpt lat="49.85896" lon="4.74026">
        <ele>189</ele>
        <time>2024-05-08T12:40:16Z</time>
      </trkpt>
      <trkpt lat="49.85896" lon="4.74027">
        <ele>189</ele>
        <time>2024-05-08T12:40:17Z</time>
      </trkpt>
      <trkpt lat="49.85896" lon="4.74029">
        <ele>189</ele>
        <time>2024-05-08T12:40:18Z</time>
      </trkpt>
      <trkpt lat="49.85897" lon="4.7403">
        <ele>189</ele>
        <time>2024-05-08T12:40:19Z</time>
      </trkpt>
      <trkpt lat="49.85897" lon="4.74031">
        <ele>189</ele>
        <time>2024-05-08T12:40:20Z</time>
      </trkpt>
      <trkpt lat="49.85897" lon="4.74032">
        <ele>190</ele>
        <time>2024-05-08T12:40:21Z</time>
      </trkpt>
      <trkpt lat="49.85897" lon="4.74033">
        <ele>190</ele>
        <time>2024-05-08T12:40:22Z</time>
      </trkpt>
      <trkpt lat="49.85898" lon="4.74034">
        <ele>190</ele>
        <time>2024-05-08T12:40:23Z</time>
      </trkpt>
      <trkpt lat="49.85898" lon="4.74035">
        <ele>190</ele>
        <time>2024-05-08T12:40:24Z</time>
      </trkpt>
      <trkpt lat="49.85898" lon="4.74036">
        <ele>190</ele>
        <time>2024-05-08T12:40:25Z</time>
      </trkpt>
      <trkpt lat="49.85898" lon="4.74037">
        <ele>191</ele>
        <time>2024-05-08T12:40:26Z</time>
      </trkpt>
      <trkpt lat="49.85898" lon="4.74038">
        <ele>191</ele>
        <time>2024-05-08T12:40:27Z</time>
      </trkpt>
      <trkpt lat="49.85898" lon="4.74039">
        <ele>191</ele>
        <time>2024-05-08T12:40:28Z</time>
      </trkpt>
      <trkpt lat="49.85898" lon="4.74039">
        <ele>192</ele>
        <time>2024-05-08T12:40:29Z</time>
      </trkpt>
      <trkpt lat="49.85898" lon="4.74039">
        <ele>192</ele>
        <time>2024-05-08T12:40:30Z</time>
      </trkpt>
      <trkpt lat="49.85898" lon="4.7404">
        <ele>193</ele>
        <time>2024-05-08T12:40:31Z</time>
      </trkpt>
      <trkpt lat="49.85899" lon="4.74041">
        <ele>193</ele>
        <time>2024-05-08T12:40:32Z</time>
      </trkpt>
      <trkpt lat="49.85899" lon="4.74042">
        <ele>193</ele>
        <time>2024-05-08T12:40:33Z</time>
      </trkpt>
      <trkpt lat="49.85899" lon="4.74043">
        <ele>193</ele>
        <time>2024-05-08T12:40:34Z</time>
      </trkpt>
      <trkpt lat="49.859" lon="4.74044">
        <ele>193</ele>
        <time>2024-05-08T12:40:35Z</time>
      </trkpt>
      <trkpt lat="49.859" lon="4.74045">
        <ele>194</ele>
        <time>2024-05-08T12:40:36Z</time>
      </trkpt>
      <trkpt lat="49.85901" lon="4.74046">
        <ele>194</ele>
        <time>2024-05-08T12:40:37Z</time>
      </trkpt>
      <trkpt lat="49.85901" lon="4.74046">
        <ele>194</ele>
        <time>2024-05-08T12:40:38Z</time>
      </trkpt>
      <trkpt lat="49.85901" lon="4.74047">
        <ele>194</ele>
        <time>2024-05-08T12:40:39Z</time>
      </trkpt>
      <trkpt lat="49.85902" lon="4.74047">
        <ele>194</ele>
        <time>2024-05-08T12:40:40Z</time>
      </trkpt>
      <trkpt lat="49.85902" lon="4.74048">
        <ele>195</ele>
        <time>2024-05-08T12:40:41Z</time>
      </trkpt>
      <trkpt lat="49.85903" lon="4.74048">
        <ele>195</ele>
        <time>2024-05-08T12:40:42Z</time>
      </trkpt>
      <trkpt lat="49.85904" lon="4.74048">
        <ele>195</ele>
        <time>2024-05-08T12:40:43Z</time>
      </trkpt>
      <trkpt lat="49.85904" lon="4.74048">
        <ele>195</ele>
        <time>2024-05-08T12:40:44Z</time>
      </trkpt>
      <trkpt lat="49.85905" lon="4.74048">
        <ele>195</ele>
        <time>2024-05-08T12:40:45Z</time>
      </trkpt>
      <trkpt lat="49.85906" lon="4.74047">
        <ele>196</ele>
        <time>2024-05-08T12:40:46Z</time>
      </trkpt>
      <trkpt lat="49.85907" lon="4.74047">
        <ele>196</ele>
        <time>2024-05-08T12:40:47Z</time>
      </trkpt>
      <trkpt lat="49.85908" lon="4.74046">
        <ele>196</ele>
        <time>2024-05-08T12:40:48Z</time>
      </trkpt>
      <trkpt lat="49.85908" lon="4.74046">
        <ele>196</ele>
        <time>2024-05-08T12:40:49Z</time>
      </trkpt>
      <trkpt lat="49.85909" lon="4.74045">
        <ele>197</ele>
        <time>2024-05-08T12:40:56Z</time>
      </trkpt>
      <trkpt lat="49.8591" lon="4.74045">
        <ele>197</ele>
        <time>2024-05-08T12:40:57Z</time>
      </trkpt>
      <trkpt lat="49.85911" lon="4.74044">
        <ele>197</ele>
        <time>2024-05-08T12:40:58Z</time>
      </trkpt>
      <trkpt lat="49.85911" lon="4.74044">
        <ele>197</ele>
        <time>2024-05-08T12:40:59Z</time>
      </trkpt>
      <trkpt lat="49.85912" lon="4.74044">
        <ele>197</ele>
        <time>2024-05-08T12:41:00Z</time>
      </trkpt>
      <trkpt lat="49.85913" lon="4.74043">
        <ele>197</ele>
        <time>2024-05-08T12:41:01Z</time>
      </trkpt>
      <trkpt lat="49.85914" lon="4.74043">
        <ele>197</ele>
        <time>2024-05-08T12:41:02Z</time>
      </trkpt>
      <trkpt lat="49.85915" lon="4.74042">
        <ele>197</ele>
        <time>2024-05-08T12:41:03Z</time>
      </trkpt>
      <trkpt lat="49.85915" lon="4.74042">
        <ele>197</ele>
        <time>2024-05-08T12:41:04Z</time>
      </trkpt>
      <trkpt lat="49.85916" lon="4.74041">
        <ele>197</ele>
        <time>2024-05-08T12:41:05Z</time>
      </trkpt>
      <trkpt lat="49.85917" lon="4.7404">
        <ele>197</ele>
        <time>2024-05-08T12:41:06Z</time>
      </trkpt>
      <trkpt lat="49.85918" lon="4.74039">
        <ele>197</ele>
        <time>2024-05-08T12:41:07Z</time>
      </trkpt>
      <trkpt lat="49.85918" lon="4.74038">
        <ele>197</ele>
        <time>2024-05-08T12:41:08Z</time>
      </trkpt>
      <trkpt lat="49.85919" lon="4.74037">
        <ele>197</ele>
        <time>2024-05-08T12:41:09Z</time>
      </trkpt>
      <trkpt lat="49.85919" lon="4.74037">
        <ele>197</ele>
        <time>2024-05-08T12:41:10Z</time>
      </trkpt>
      <trkpt lat="49.8592" lon="4.74036">
        <ele>198</ele>
        <time>2024-05-08T12:41:11Z</time>
      </trkpt>
      <trkpt lat="49.8592" lon="4.74035">
        <ele>198</ele>
        <time>2024-05-08T12:41:12Z</time>
      </trkpt>
      <trkpt lat="49.85921" lon="4.74035">
        <ele>198</ele>
        <time>2024-05-08T12:41:13Z</time>
      </trkpt>
      <trkpt lat="49.85922" lon="4.74035">
        <ele>198</ele>
        <time>2024-05-08T12:41:14Z</time>
      </trkpt>
      <trkpt lat="49.85922" lon="4.74035">
        <ele>198</ele>
        <time>2024-05-08T12:41:15Z</time>
      </trkpt>
      <trkpt lat="49.85923" lon="4.74034">
        <ele>199</ele>
        <time>2024-05-08T12:41:16Z</time>
      </trkpt>
      <trkpt lat="49.85923" lon="4.74034">
        <ele>199</ele>
        <time>2024-05-08T12:41:17Z</time>
      </trkpt>
      <trkpt lat="49.85923" lon="4.74033">
        <ele>199</ele>
        <time>2024-05-08T12:41:18Z</time>
      </trkpt>
      <trkpt lat="49.85924" lon="4.74033">
        <ele>199</ele>
        <time>2024-05-08T12:41:19Z</time>
      </trkpt>
      <trkpt lat="49.85924" lon="4.74033">
        <ele>199</ele>
        <time>2024-05-08T12:41:20Z</time>
      </trkpt>
      <trkpt lat="49.85925" lon="4.74033">
        <ele>200</ele>
        <time>2024-05-08T12:41:21Z</time>
      </trkpt>
      <trkpt lat="49.85926" lon="4.74033">
        <ele>200</ele>
        <time>2024-05-08T12:41:22Z</time>
      </trkpt>
      <trkpt lat="49.85926" lon="4.74034">
        <ele>200</ele>
        <time>2024-05-08T12:41:23Z</time>
      </trkpt>
      <trkpt lat="49.85927" lon="4.74034">
        <ele>200</ele>
        <time>2024-05-08T12:41:24Z</time>
      </trkpt>
      <trkpt lat="49.85928" lon="4.74035">
        <ele>200</ele>
        <time>2024-05-08T12:41:25Z</time>
      </trkpt>
      <trkpt lat="49.85928" lon="4.74035">
        <ele>201</ele>
        <time>2024-05-08T12:41:26Z</time>
      </trkpt>
      <trkpt lat="49.85929" lon="4.74035">
        <ele>201</ele>
        <time>2024-05-08T12:41:27Z</time>
      </trkpt>
      <trkpt lat="49.8593" lon="4.74036">
        <ele>201</ele>
        <time>2024-05-08T12:41:28Z</time>
      </trkpt>
      <trkpt lat="49.85931" lon="4.74036">
        <ele>201</ele>
        <time>2024-05-08T12:41:29Z</time>
      </trkpt>
      <trkpt lat="49.85931" lon="4.74036">
        <ele>201</ele>
        <time>2024-05-08T12:41:30Z</time>
      </trkpt>
      <trkpt lat="49.85932" lon="4.74037">
        <ele>202</ele>
        <time>2024-05-08T12:41:31Z</time>
      </trkpt>
      <trkpt lat="49.85933" lon="4.74037">
        <ele>202</ele>
        <time>2024-05-08T12:41:32Z</time>
      </trkpt>
      <trkpt lat="49.85933" lon="4.74037">
        <ele>202</ele>
        <time>2024-05-08T12:41:33Z</time>
      </trkpt>
      <trkpt lat="49.85934" lon="4.74038">
        <ele>202</ele>
        <time>2024-05-08T12:41:34Z</time>
      </trkpt>
      <trkpt lat="49.85934" lon="4.74038">
        <ele>202</ele>
        <time>2024-05-08T12:41:35Z</time>
      </trkpt>
      <trkpt lat="49.85935" lon="4.74038">
        <ele>203</ele>
        <time>2024-05-08T12:41:36Z</time>
      </trkpt>
      <trkpt lat="49.85936" lon="4.74039">
        <ele>203</ele>
        <time>2024-05-08T12:41:37Z</time>
      </trkpt>
      <trkpt lat="49.85936" lon="4.74039">
        <ele>203</ele>
        <time>2024-05-08T12:41:38Z</time>
      </trkpt>
      <trkpt lat="49.85937" lon="4.7404">
        <ele>203</ele>
        <time>2024-05-08T12:41:39Z</time>
      </trkpt>
      <trkpt lat="49.85938" lon="4.74041">
        <ele>203</ele>
        <time>2024-05-08T12:41:40Z</time>
      </trkpt>
      <trkpt lat="49.85938" lon="4.74041">
        <ele>204</ele>
        <time>2024-05-08T12:41:41Z</time>
      </trkpt>
      <trkpt lat="49.85939" lon="4.74042">
        <ele>204</ele>
        <time>2024-05-08T12:41:42Z</time>
      </trkpt>
      <trkpt lat="49.8594" lon="4.74042">
        <ele>204</ele>
        <time>2024-05-08T12:41:43Z</time>
      </trkpt>
      <trkpt lat="49.8594" lon="4.74043">
        <ele>204</ele>
        <time>2024-05-08T12:41:44Z</time>
      </trkpt>
      <trkpt lat="49.8594" lon="4.74043">
        <ele>204</ele>
        <time>2024-05-08T12:41:45Z</time>
      </trkpt>
      <trkpt lat="49.85941" lon="4.74044">
        <ele>205</ele>
        <time>2024-05-08T12:41:46Z</time>
      </trkpt>
      <trkpt lat="49.85942" lon="4.74044">
        <ele>205</ele>
        <time>2024-05-08T12:41:47Z</time>
      </trkpt>
      <trkpt lat="49.85942" lon="4.74045">
        <ele>205</ele>
        <time>2024-05-08T12:41:48Z</time>
      </trkpt>
      <trkpt lat="49.85943" lon="4.74045">
        <ele>205</ele>
        <time>2024-05-08T12:41:49Z</time>
      </trkpt>
      <trkpt lat="49.85943" lon="4.74045">
        <ele>205</ele>
        <time>2024-05-08T12:41:50Z</time>
      </trkpt>
      <trkpt lat="49.85944" lon="4.74044">
        <ele>206</ele>
        <time>2024-05-08T12:41:51Z</time>
      </trkpt>
      <trkpt lat="49.85944" lon="4.74044">
        <ele>206</ele>
        <time>2024-05-08T12:41:52Z</time>
      </trkpt>
      <trkpt lat="49.85945" lon="4.74043">
        <ele>206</ele>
        <time>2024-05-08T12:41:53Z</time>
      </trkpt>
      <trkpt lat="49.85945" lon="4.74043">
        <ele>206</ele>
        <time>2024-05-08T12:41:54Z</time>
      </trkpt>
      <trkpt lat="49.85946" lon="4.74042">
        <ele>206</ele>
        <time>2024-05-08T12:41:55Z</time>
      </trkpt>
      <trkpt lat="49.85946" lon="4.74042">
        <ele>207</ele>
        <time>2024-05-08T12:41:56Z</time>
      </trkpt>
      <trkpt lat="49.85947" lon="4.74041">
        <ele>207</ele>
        <time>2024-05-08T12:41:57Z</time>
      </trkpt>
      <trkpt lat="49.85948" lon="4.74041">
        <ele>207</ele>
        <time>2024-05-08T12:41:58Z</time>
      </trkpt>
      <trkpt lat="49.85948" lon="4.74041">
        <ele>207</ele>
        <time>2024-05-08T12:41:59Z</time>
      </trkpt>
      <trkpt lat="49.85949" lon="4.74041">
        <ele>207</ele>
        <time>2024-05-08T12:42:00Z</time>
      </trkpt>
      <trkpt lat="49.85949" lon="4.74042">
        <ele>208</ele>
        <time>2024-05-08T12:42:01Z</time>
      </trkpt>
      <trkpt lat="49.85949" lon="4.74043">
        <ele>208</ele>
        <time>2024-05-08T12:42:02Z</time>
      </trkpt>
      <trkpt lat="49.85949" lon="4.74044">
        <ele>208</ele>
        <time>2024-05-08T12:42:03Z</time>
      </trkpt>
      <trkpt lat="49.85949" lon="4.74045">
        <ele>208</ele>
        <time>2024-05-08T12:42:04Z</time>
      </trkpt>
      <trkpt lat="49.85949" lon="4.74047">
        <ele>208</ele>
        <time>2024-05-08T12:42:05Z</time>
      </trkpt>
      <trkpt lat="49.85949" lon="4.74048">
        <ele>209</ele>
        <time>2024-05-08T12:42:06Z</time>
      </trkpt>
      <trkpt lat="49.85949" lon="4.74049">
        <ele>209</ele>
        <time>2024-05-08T12:42:07Z</time>
      </trkpt>
      <trkpt lat="49.85949" lon="4.74051">
        <ele>209</ele>
        <time>2024-05-08T12:42:08Z</time>
      </trkpt>
      <trkpt lat="49.85949" lon="4.74052">
        <ele>209</ele>
        <time>2024-05-08T12:42:09Z</time>
      </trkpt>
      <trkpt lat="49.85949" lon="4.74053">
        <ele>209</ele>
        <time>2024-05-08T12:42:10Z</time>
      </trkpt>
      <trkpt lat="49.8595" lon="4.74054">
        <ele>210</ele>
        <time>2024-05-08T12:42:11Z</time>
      </trkpt>
      <trkpt lat="49.8595" lon="4.74055">
        <ele>210</ele>
        <time>2024-05-08T12:42:12Z</time>
      </trkpt>
      <trkpt lat="49.8595" lon="4.74056">
        <ele>210</ele>
        <time>2024-05-08T12:42:13Z</time>
      </trkpt>
      <trkpt lat="49.85951" lon="4.74056">
        <ele>210</ele>
        <time>2024-05-08T12:42:14Z</time>
      </trkpt>
      <trkpt lat="49.85951" lon="4.74057">
        <ele>210</ele>
        <time>2024-05-08T12:42:15Z</time>
      </trkpt>
      <trkpt lat="49.85951" lon="4.74058">
        <ele>211</ele>
        <time>2024-05-08T12:42:16Z</time>
      </trkpt>
      <trkpt lat="49.85952" lon="4.74059">
        <ele>211</ele>
        <time>2024-05-08T12:42:17Z</time>
      </trkpt>
      <trkpt lat="49.85952" lon="4.7406">
        <ele>211</ele>
        <time>2024-05-08T12:42:18Z</time>
      </trkpt>
      <trkpt lat="49.85953" lon="4.74061">
        <ele>212</ele>
        <time>2024-05-08T12:42:19Z</time>
      </trkpt>
      <trkpt lat="49.85953" lon="4.74062">
        <ele>212</ele>
        <time>2024-05-08T12:42:20Z</time>
      </trkpt>
      <trkpt lat="49.85954" lon="4.74063">
        <ele>213</ele>
        <time>2024-05-08T12:42:21Z</time>
      </trkpt>
      <trkpt lat="49.85954" lon="4.74064">
        <ele>213</ele>
        <time>2024-05-08T12:42:22Z</time>
      </trkpt>
      <trkpt lat="49.85955" lon="4.74064">
        <ele>213</ele>
        <time>2024-05-08T12:42:23Z</time>
      </trkpt>
      <trkpt lat="49.85955" lon="4.74065">
        <ele>213</ele>
        <time>2024-05-08T12:42:24Z</time>
      </trkpt>
      <trkpt lat="49.85956" lon="4.74066">
        <ele>213</ele>
        <time>2024-05-08T12:42:25Z</time>
      </trkpt>
      <trkpt lat="49.85957" lon="4.74067">
        <ele>214</ele>
        <time>2024-05-08T12:42:26Z</time>
      </trkpt>
      <trkpt lat="49.85957" lon="4.74067">
        <ele>214</ele>
        <time>2024-05-08T12:42:27Z</time>
      </trkpt>
      <trkpt lat="49.85958" lon="4.74068">
        <ele>214</ele>
        <time>2024-05-08T12:42:28Z</time>
      </trkpt>
      <trkpt lat="49.85959" lon="4.74068">
        <ele>214</ele>
        <time>2024-05-08T12:42:29Z</time>
      </trkpt>
      <trkpt lat="49.8596" lon="4.74069">
        <ele>214</ele>
        <time>2024-05-08T12:42:30Z</time>
      </trkpt>
      <trkpt lat="49.8596" lon="4.74069">
        <ele>215</ele>
        <time>2024-05-08T12:42:31Z</time>
      </trkpt>
      <trkpt lat="49.85961" lon="4.74069">
        <ele>215</ele>
        <time>2024-05-08T12:42:32Z</time>
      </trkpt>
      <trkpt lat="49.85962" lon="4.7407">
        <ele>215</ele>
        <time>2024-05-08T12:42:33Z</time>
      </trkpt>
      <trkpt lat="49.85962" lon="4.7407">
        <ele>215</ele>
        <time>2024-05-08T12:42:34Z</time>
      </trkpt>
      <trkpt lat="49.85963" lon="4.74071">
        <ele>215</ele>
        <time>2024-05-08T12:42:35Z</time>
      </trkpt>
      <trkpt lat="49.85964" lon="4.74071">
        <ele>215</ele>
        <time>2024-05-08T12:42:36Z</time>
      </trkpt>
      <trkpt lat="49.85964" lon="4.74072">
        <ele>215</ele>
        <time>2024-05-08T12:42:37Z</time>
      </trkpt>
      <trkpt lat="49.85965" lon="4.74072">
        <ele>215</ele>
        <time>2024-05-08T12:42:38Z</time>
      </trkpt>
      <trkpt lat="49.85966" lon="4.74073">
        <ele>215</ele>
        <time>2024-05-08T12:42:39Z</time>
      </trkpt>
      <trkpt lat="49.85966" lon="4.74073">
        <ele>215</ele>
        <time>2024-05-08T12:42:40Z</time>
      </trkpt>
      <trkpt lat="49.85967" lon="4.74073">
        <ele>216</ele>
        <time>2024-05-08T12:42:41Z</time>
      </trkpt>
      <trkpt lat="49.85967" lon="4.74072">
        <ele>216</ele>
        <time>2024-05-08T12:42:48Z</time>
      </trkpt>
      <trkpt lat="49.85967" lon="4.74071">
        <ele>216</ele>
        <time>2024-05-08T12:42:49Z</time>
      </trkpt>
      <trkpt lat="49.85967" lon="4.7407">
        <ele>216</ele>
        <time>2024-05-08T12:42:50Z</time>
      </trkpt>
      <trkpt lat="49.85967" lon="4.7407">
        <ele>216</ele>
        <time>2024-05-08T12:42:51Z</time>
      </trkpt>
      <trkpt lat="49.85967" lon="4.74069">
        <ele>216</ele>
        <time>2024-05-08T12:42:52Z</time>
      </trkpt>
      <trkpt lat="49.85966" lon="4.74068">
        <ele>216</ele>
        <time>2024-05-08T12:42:53Z</time>
      </trkpt>
      <trkpt lat="49.85965" lon="4.74068">
        <ele>216</ele>
        <time>2024-05-08T12:42:54Z</time>
      </trkpt>
      <trkpt lat="49.85964" lon="4.74067">
        <ele>216</ele>
        <time>2024-05-08T12:42:55Z</time>
      </trkpt>
      <trkpt lat="49.85963" lon="4.74066">
        <ele>216</ele>
        <time>2024-05-08T12:42:56Z</time>
      </trkpt>
      <trkpt lat="49.85963" lon="4.74066">
        <ele>216</ele>
        <time>2024-05-08T12:42:57Z</time>
      </trkpt>
      <trkpt lat="49.85962" lon="4.74065">
        <ele>216</ele>
        <time>2024-05-08T12:42:58Z</time>
      </trkpt>
      <trkpt lat="49.85963" lon="4.74065">
        <ele>216</ele>
        <time>2024-05-08T12:48:24Z</time>
      </trkpt>
      <trkpt lat="49.85963" lon="4.74065">
        <ele>216</ele>
        <time>2024-05-08T12:48:25Z</time>
      </trkpt>
      <trkpt lat="49.85964" lon="4.74065">
        <ele>217</ele>
        <time>2024-05-08T12:48:26Z</time>
      </trkpt>
      <trkpt lat="49.85964" lon="4.74066">
        <ele>217</ele>
        <time>2024-05-08T12:48:27Z</time>
      </trkpt>
      <trkpt lat="49.85965" lon="4.74066">
        <ele>217</ele>
        <time>2024-05-08T12:48:28Z</time>
      </trkpt>
      <trkpt lat="49.85965" lon="4.74066">
        <ele>217</ele>
        <time>2024-05-08T12:48:29Z</time>
      </trkpt>
      <trkpt lat="49.85966" lon="4.74067">
        <ele>217</ele>
        <time>2024-05-08T12:48:30Z</time>
      </trkpt>
      <trkpt lat="49.85966" lon="4.74067">
        <ele>217</ele>
        <time>2024-05-08T12:48:31Z</time>
      </trkpt>
      <trkpt lat="49.85967" lon="4.74068">
        <ele>217</ele>
        <time>2024-05-08T12:48:32Z</time>
      </trkpt>
      <trkpt lat="49.85968" lon="4.74068">
        <ele>217</ele>
        <time>2024-05-08T12:48:33Z</time>
      </trkpt>
      <trkpt lat="49.85968" lon="4.74069">
        <ele>217</ele>
        <time>2024-05-08T12:48:34Z</time>
      </trkpt>
      <trkpt lat="49.85969" lon="4.74069">
        <ele>217</ele>
        <time>2024-05-08T12:48:35Z</time>
      </trkpt>
      <trkpt lat="49.85969" lon="4.7407">
        <ele>217</ele>
        <time>2024-05-08T12:48:36Z</time>
      </trkpt>
      <trkpt lat="49.8597" lon="4.74071">
        <ele>216</ele>
        <time>2024-05-08T12:48:37Z</time>
      </trkpt>
      <trkpt lat="49.8597" lon="4.74072">
        <ele>216</ele>
        <time>2024-05-08T12:48:38Z</time>
      </trkpt>
      <trkpt lat="49.8597" lon="4.74072">
        <ele>216</ele>
        <time>2024-05-08T12:48:39Z</time>
      </trkpt>
      <trkpt lat="49.8597" lon="4.74073">
        <ele>216</ele>
        <time>2024-05-08T12:48:40Z</time>
      </trkpt>
      <trkpt lat="49.85971" lon="4.74074">
        <ele>216</ele>
        <time>2024-05-08T12:48:41Z</time>
      </trkpt>
      <trkpt lat="49.85971" lon="4.74075">
        <ele>216</ele>
        <time>2024-05-08T12:48:42Z</time>
      </trkpt>
      <trkpt lat="49.85971" lon="4.74076">
        <ele>216</ele>
        <time>2024-05-08T12:48:43Z</time>
      </trkpt>
      <trkpt lat="49.85972" lon="4.74076">
        <ele>216</ele>
        <time>2024-05-08T12:48:44Z</time>
      </trkpt>
      <trkpt lat="49.85973" lon="4.74078">
        <ele>215</ele>
        <time>2024-05-08T12:48:52Z</time>
      </trkpt>
      <trkpt lat="49.85974" lon="4.74079">
        <ele>215</ele>
        <time>2024-05-08T12:48:53Z</time>
      </trkpt>
      <trkpt lat="49.85976" lon="4.74079">
        <ele>215</ele>
        <time>2024-05-08T12:48:54Z</time>
      </trkpt>
      <trkpt lat="49.85976" lon="4.7408">
        <ele>215</ele>
        <time>2024-05-08T12:48:55Z</time>
      </trkpt>
      <trkpt lat="49.85977" lon="4.7408">
        <ele>215</ele>
        <time>2024-05-08T12:48:56Z</time>
      </trkpt>
      <trkpt lat="49.85978" lon="4.7408">
        <ele>214</ele>
        <time>2024-05-08T12:48:57Z</time>
      </trkpt>
      <trkpt lat="49.85979" lon="4.74081">
        <ele>214</ele>
        <time>2024-05-08T12:48:58Z</time>
      </trkpt>
      <trkpt lat="49.8598" lon="4.74081">
        <ele>214</ele>
        <time>2024-05-08T12:48:59Z</time>
      </trkpt>
      <trkpt lat="49.85981" lon="4.74081">
        <ele>214</ele>
        <time>2024-05-08T12:49:00Z</time>
      </trkpt>
      <trkpt lat="49.85981" lon="4.74081">
        <ele>214</ele>
        <time>2024-05-08T12:49:01Z</time>
      </trkpt>
      <trkpt lat="49.85982" lon="4.74081">
        <ele>213</ele>
        <time>2024-05-08T12:49:02Z</time>
      </trkpt>
      <trkpt lat="49.85983" lon="4.74081">
        <ele>213</ele>
        <time>2024-05-08T12:49:03Z</time>
      </trkpt>
      <trkpt lat="49.85983" lon="4.74081">
        <ele>212</ele>
        <time>2024-05-08T12:49:04Z</time>
      </trkpt>
      <trkpt lat="49.85983" lon="4.7408">
        <ele>212</ele>
        <time>2024-05-08T12:49:05Z</time>
      </trkpt>
      <trkpt lat="49.85983" lon="4.74079">
        <ele>212</ele>
        <time>2024-05-08T12:49:06Z</time>
      </trkpt>
      <trkpt lat="49.85982" lon="4.74078">
        <ele>211</ele>
        <time>2024-05-08T12:49:07Z</time>
      </trkpt>
      <trkpt lat="49.85982" lon="4.74077">
        <ele>211</ele>
        <time>2024-05-08T12:49:08Z</time>
      </trkpt>
      <trkpt lat="49.85982" lon="4.74076">
        <ele>211</ele>
        <time>2024-05-08T12:49:09Z</time>
      </trkpt>
      <trkpt lat="49.85981" lon="4.74074">
        <ele>211</ele>
        <time>2024-05-08T12:49:10Z</time>
      </trkpt>
      <trkpt lat="49.85981" lon="4.74073">
        <ele>211</ele>
        <time>2024-05-08T12:49:11Z</time>
      </trkpt>
      <trkpt lat="49.8598" lon="4.74072">
        <ele>210</ele>
        <time>2024-05-08T12:49:12Z</time>
      </trkpt>
      <trkpt lat="49.8598" lon="4.74071">
        <ele>210</ele>
        <time>2024-05-08T12:49:13Z</time>
      </trkpt>
      <trkpt lat="49.8598" lon="4.7407">
        <ele>210</ele>
        <time>2024-05-08T12:49:14Z</time>
      </trkpt>
      <trkpt lat="49.8598" lon="4.74065">
        <ele>204</ele>
        <time>2024-05-08T12:49:43Z</time>
      </trkpt>
      <trkpt lat="49.85981" lon="4.74062">
        <ele>204</ele>
        <time>2024-05-08T12:49:44Z</time>
      </trkpt>
      <trkpt lat="49.85981" lon="4.74059">
        <ele>204</ele>
        <time>2024-05-08T12:49:45Z</time>
      </trkpt>
      <trkpt lat="49.85981" lon="4.74058">
        <ele>204</ele>
        <time>2024-05-08T12:49:46Z</time>
      </trkpt>
      <trkpt lat="49.85981" lon="4.74056">
        <ele>203</ele>
        <time>2024-05-08T12:49:47Z</time>
      </trkpt>
      <trkpt lat="49.85982" lon="4.74055">
        <ele>203</ele>
        <time>2024-05-08T12:49:48Z</time>
      </trkpt>
      <trkpt lat="49.85982" lon="4.74054">
        <ele>202</ele>
        <time>2024-05-08T12:49:49Z</time>
      </trkpt>
      <trkpt lat="49.85982" lon="4.74052">
        <ele>202</ele>
        <time>2024-05-08T12:49:50Z</time>
      </trkpt>
      <trkpt lat="49.85982" lon="4.74051">
        <ele>202</ele>
        <time>2024-05-08T12:49:51Z</time>
      </trkpt>
      <trkpt lat="49.85983" lon="4.7405">
        <ele>202</ele>
        <time>2024-05-08T12:49:52Z</time>
      </trkpt>
      <trkpt lat="49.85983" lon="4.74049">
        <ele>202</ele>
        <time>2024-05-08T12:49:53Z</time>
      </trkpt>
      <trkpt lat="49.85984" lon="4.74048">
        <ele>202</ele>
        <time>2024-05-08T12:49:54Z</time>
      </trkpt>
      <trkpt lat="49.85985" lon="4.74048">
        <ele>202</ele>
        <time>2024-05-08T12:49:55Z</time>
      </trkpt>
      <trkpt lat="49.85986" lon="4.74048">
        <ele>202</ele>
        <time>2024-05-08T12:49:56Z</time>
      </trkpt>
      <trkpt lat="49.85987" lon="4.74048">
        <ele>201</ele>
        <time>2024-05-08T12:49:57Z</time>
      </trkpt>
      <trkpt lat="49.85988" lon="4.74049">
        <ele>201</ele>
        <time>2024-05-08T12:49:58Z</time>
      </trkpt>
      <trkpt lat="49.85989" lon="4.74049">
        <ele>201</ele>
        <time>2024-05-08T12:49:59Z</time>
      </trkpt>
      <trkpt lat="49.8599" lon="4.7405">
        <ele>201</ele>
        <time>2024-05-08T12:50:00Z</time>
      </trkpt>
      <trkpt lat="49.85991" lon="4.74051">
        <ele>201</ele>
        <time>2024-05-08T12:50:01Z</time>
      </trkpt>
      <trkpt lat="49.85992" lon="4.74051">
        <ele>201</ele>
        <time>2024-05-08T12:50:02Z</time>
      </trkpt>
      <trkpt lat="49.85993" lon="4.74052">
        <ele>201</ele>
        <time>2024-05-08T12:50:03Z</time>
      </trkpt>
      <trkpt lat="49.85994" lon="4.74052">
        <ele>201</ele>
        <time>2024-05-08T12:50:04Z</time>
      </trkpt>
      <trkpt lat="49.85995" lon="4.74052">
        <ele>201</ele>
        <time>2024-05-08T12:50:05Z</time>
      </trkpt>
      <trkpt lat="49.85996" lon="4.74053">
        <ele>201</ele>
        <time>2024-05-08T12:50:06Z</time>
      </trkpt>
      <trkpt lat="49.85997" lon="4.74053">
        <ele>201</ele>
        <time>2024-05-08T12:50:07Z</time>
      </trkpt>
      <trkpt lat="49.85998" lon="4.74053">
        <ele>201</ele>
        <time>2024-05-08T12:50:08Z</time>
      </trkpt>
      <trkpt lat="49.85999" lon="4.74053">
        <ele>201</ele>
        <time>2024-05-08T12:50:09Z</time>
      </trkpt>
      <trkpt lat="49.86" lon="4.74054">
        <ele>201</ele>
        <time>2024-05-08T12:50:10Z</time>
      </trkpt>
      <trkpt lat="49.86001" lon="4.74054">
        <ele>201</ele>
        <time>2024-05-08T12:50:11Z</time>
      </trkpt>
      <trkpt lat="49.86002" lon="4.74055">
        <ele>201</ele>
        <time>2024-05-08T12:50:12Z</time>
      </trkpt>
      <trkpt lat="49.86003" lon="4.74056">
        <ele>201</ele>
        <time>2024-05-08T12:50:13Z</time>
      </trkpt>
      <trkpt lat="49.86004" lon="4.74057">
        <ele>201</ele>
        <time>2024-05-08T12:50:14Z</time>
      </trkpt>
      <trkpt lat="49.86005" lon="4.74057">
        <ele>201</ele>
        <time>2024-05-08T12:50:15Z</time>
      </trkpt>
      <trkpt lat="49.86007" lon="4.74058">
        <ele>201</ele>
        <time>2024-05-08T12:50:16Z</time>
      </trkpt>
      <trkpt lat="49.86008" lon="4.74059">
        <ele>201</ele>
        <time>2024-05-08T12:50:17Z</time>
      </trkpt>
      <trkpt lat="49.86009" lon="4.7406">
        <ele>201</ele>
        <time>2024-05-08T12:50:18Z</time>
      </trkpt>
      <trkpt lat="49.8601" lon="4.7406">
        <ele>201</ele>
        <time>2024-05-08T12:50:19Z</time>
      </trkpt>
      <trkpt lat="49.86011" lon="4.74061">
        <ele>201</ele>
        <time>2024-05-08T12:50:20Z</time>
      </trkpt>
      <trkpt lat="49.86012" lon="4.74062">
        <ele>201</ele>
        <time>2024-05-08T12:50:21Z</time>
      </trkpt>
      <trkpt lat="49.86014" lon="4.74063">
        <ele>201</ele>
        <time>2024-05-08T12:50:22Z</time>
      </trkpt>
      <trkpt lat="49.86015" lon="4.74063">
        <ele>201</ele>
        <time>2024-05-08T12:50:23Z</time>
      </trkpt>
      <trkpt lat="49.86016" lon="4.74064">
        <ele>201</ele>
        <time>2024-05-08T12:50:24Z</time>
      </trkpt>
      <trkpt lat="49.86017" lon="4.74064">
        <ele>201</ele>
        <time>2024-05-08T12:50:25Z</time>
      </trkpt>
      <trkpt lat="49.86018" lon="4.74065">
        <ele>201</ele>
        <time>2024-05-08T12:50:26Z</time>
      </trkpt>
      <trkpt lat="49.86019" lon="4.74065">
        <ele>201</ele>
        <time>2024-05-08T12:50:27Z</time>
      </trkpt>
      <trkpt lat="49.8602" lon="4.74065">
        <ele>201</ele>
        <time>2024-05-08T12:50:28Z</time>
      </trkpt>
      <trkpt lat="49.86021" lon="4.74066">
        <ele>201</ele>
        <time>2024-05-08T12:50:29Z</time>
      </trkpt>
      <trkpt lat="49.86023" lon="4.74066">
        <ele>201</ele>
        <time>2024-05-08T12:50:30Z</time>
      </trkpt>
      <trkpt lat="49.86024" lon="4.74067">
        <ele>201</ele>
        <time>2024-05-08T12:50:31Z</time>
      </trkpt>
      <trkpt lat="49.86025" lon="4.74067">
        <ele>201</ele>
        <time>2024-05-08T12:50:32Z</time>
      </trkpt>
      <trkpt lat="49.86026" lon="4.74068">
        <ele>201</ele>
        <time>2024-05-08T12:50:33Z</time>
      </trkpt>
      <trkpt lat="49.86027" lon="4.74068">
        <ele>201</ele>
        <time>2024-05-08T12:50:34Z</time>
      </trkpt>
      <trkpt lat="49.86028" lon="4.74069">
        <ele>201</ele>
        <time>2024-05-08T12:50:35Z</time>
      </trkpt>
      <trkpt lat="49.86029" lon="4.7407">
        <ele>201</ele>
        <time>2024-05-08T12:50:36Z</time>
      </trkpt>
      <trkpt lat="49.8603" lon="4.7407">
        <ele>201</ele>
        <time>2024-05-08T12:50:37Z</time>
      </trkpt>
      <trkpt lat="49.86032" lon="4.74071">
        <ele>201</ele>
        <time>2024-05-08T12:50:38Z</time>
      </trkpt>
      <trkpt lat="49.86033" lon="4.74071">
        <ele>201</ele>
        <time>2024-05-08T12:50:39Z</time>
      </trkpt>
      <trkpt lat="49.86034" lon="4.74072">
        <ele>201</ele>
        <time>2024-05-08T12:50:40Z</time>
      </trkpt>
      <trkpt lat="49.86036" lon="4.74072">
        <ele>201</ele>
        <time>2024-05-08T12:50:41Z</time>
      </trkpt>
      <trkpt lat="49.86037" lon="4.74072">
        <ele>201</ele>
        <time>2024-05-08T12:50:42Z</time>
      </trkpt>
      <trkpt lat="49.86038" lon="4.74072">
        <ele>201</ele>
        <time>2024-05-08T12:50:43Z</time>
      </trkpt>
      <trkpt lat="49.86039" lon="4.74073">
        <ele>201</ele>
        <time>2024-05-08T12:50:44Z</time>
      </trkpt>
      <trkpt lat="49.8604" lon="4.74073">
        <ele>201</ele>
        <time>2024-05-08T12:50:45Z</time>
      </trkpt>
      <trkpt lat="49.86041" lon="4.74073">
        <ele>201</ele>
        <time>2024-05-08T12:50:46Z</time>
      </trkpt>
      <trkpt lat="49.86042" lon="4.74073">
        <ele>201</ele>
        <time>2024-05-08T12:50:47Z</time>
      </trkpt>
      <trkpt lat="49.86043" lon="4.74074">
        <ele>201</ele>
        <time>2024-05-08T12:50:48Z</time>
      </trkpt>
      <trkpt lat="49.86045" lon="4.74074">
        <ele>201</ele>
        <time>2024-05-08T12:50:49Z</time>
      </trkpt>
      <trkpt lat="49.86046" lon="4.74074">
        <ele>201</ele>
        <time>2024-05-08T12:50:50Z</time>
      </trkpt>
      <trkpt lat="49.86047" lon="4.74074">
        <ele>201</ele>
        <time>2024-05-08T12:50:51Z</time>
      </trkpt>
      <trkpt lat="49.86048" lon="4.74075">
        <ele>201</ele>
        <time>2024-05-08T12:50:52Z</time>
      </trkpt>
      <trkpt lat="49.86049" lon="4.74075">
        <ele>201</ele>
        <time>2024-05-08T12:50:53Z</time>
      </trkpt>
      <trkpt lat="49.8605" lon="4.74075">
        <ele>201</ele>
        <time>2024-05-08T12:50:54Z</time>
      </trkpt>
      <trkpt lat="49.86052" lon="4.74076">
        <ele>201</ele>
        <time>2024-05-08T12:50:55Z</time>
      </trkpt>
      <trkpt lat="49.86053" lon="4.74076">
        <ele>201</ele>
        <time>2024-05-08T12:50:56Z</time>
      </trkpt>
      <trkpt lat="49.86055" lon="4.74076">
        <ele>201</ele>
        <time>2024-05-08T12:50:57Z</time>
      </trkpt>
      <trkpt lat="49.86056" lon="4.74076">
        <ele>201</ele>
        <time>2024-05-08T12:50:58Z</time>
      </trkpt>
      <trkpt lat="49.86057" lon="4.74077">
        <ele>201</ele>
        <time>2024-05-08T12:50:59Z</time>
      </trkpt>
      <trkpt lat="49.86059" lon="4.74077">
        <ele>201</ele>
        <time>2024-05-08T12:51:00Z</time>
      </trkpt>
      <trkpt lat="49.8606" lon="4.74077">
        <ele>201</ele>
        <time>2024-05-08T12:51:01Z</time>
      </trkpt>
      <trkpt lat="49.86061" lon="4.74077">
        <ele>201</ele>
        <time>2024-05-08T12:51:02Z</time>
      </trkpt>
      <trkpt lat="49.86063" lon="4.74078">
        <ele>201</ele>
        <time>2024-05-08T12:51:03Z</time>
      </trkpt>
      <trkpt lat="49.86064" lon="4.74078">
        <ele>201</ele>
        <time>2024-05-08T12:51:04Z</time>
      </trkpt>
      <trkpt lat="49.86065" lon="4.74078">
        <ele>201</ele>
        <time>2024-05-08T12:51:05Z</time>
      </trkpt>
      <trkpt lat="49.86066" lon="4.74078">
        <ele>201</ele>
        <time>2024-05-08T12:51:06Z</time>
      </trkpt>
      <trkpt lat="49.86068" lon="4.74078">
        <ele>201</ele>
        <time>2024-05-08T12:51:07Z</time>
      </trkpt>
      <trkpt lat="49.86069" lon="4.74078">
        <ele>201</ele>
        <time>2024-05-08T12:51:08Z</time>
      </trkpt>
      <trkpt lat="49.8607" lon="4.74078">
        <ele>201</ele>
        <time>2024-05-08T12:51:09Z</time>
      </trkpt>
      <trkpt lat="49.86071" lon="4.74078">
        <ele>201</ele>
        <time>2024-05-08T12:51:10Z</time>
      </trkpt>
      <trkpt lat="49.86072" lon="4.74077">
        <ele>201</ele>
        <time>2024-05-08T12:51:11Z</time>
      </trkpt>
      <trkpt lat="49.86074" lon="4.74077">
        <ele>201</ele>
        <time>2024-05-08T12:51:12Z</time>
      </trkpt>
      <trkpt lat="49.86075" lon="4.74076">
        <ele>201</ele>
        <time>2024-05-08T12:51:13Z</time>
      </trkpt>
      <trkpt lat="49.86076" lon="4.74075">
        <ele>201</ele>
        <time>2024-05-08T12:51:14Z</time>
      </trkpt>
      <trkpt lat="49.86077" lon="4.74074">
        <ele>201</ele>
        <time>2024-05-08T12:51:15Z</time>
      </trkpt>
      <trkpt lat="49.86078" lon="4.74073">
        <ele>201</ele>
        <time>2024-05-08T12:51:16Z</time>
      </trkpt>
      <trkpt lat="49.86079" lon="4.74073">
        <ele>201</ele>
        <time>2024-05-08T12:51:17Z</time>
      </trkpt>
      <trkpt lat="49.86081" lon="4.74071">
        <ele>202</ele>
        <time>2024-05-08T12:51:23Z</time>
      </trkpt>
      <trkpt lat="49.86081" lon="4.74071">
        <ele>202</ele>
        <time>2024-05-08T12:51:24Z</time>
      </trkpt>
      <trkpt lat="49.86081" lon="4.7407">
        <ele>202</ele>
        <time>2024-05-08T12:51:25Z</time>
      </trkpt>
      <trkpt lat="49.86082" lon="4.7407">
        <ele>202</ele>
        <time>2024-05-08T12:51:26Z</time>
      </trkpt>
      <trkpt lat="49.86082" lon="4.74069">
        <ele>202</ele>
        <time>2024-05-08T12:51:27Z</time>
      </trkpt>
      <trkpt lat="49.86083" lon="4.74068">
        <ele>202</ele>
        <time>2024-05-08T12:51:28Z</time>
      </trkpt>
      <trkpt lat="49.86083" lon="4.74067">
        <ele>202</ele>
        <time>2024-05-08T12:51:29Z</time>
      </trkpt>
      <trkpt lat="49.86084" lon="4.74066">
        <ele>202</ele>
        <time>2024-05-08T12:51:30Z</time>
      </trkpt>
      <trkpt lat="49.86084" lon="4.74066">
        <ele>203</ele>
        <time>2024-05-08T12:51:31Z</time>
      </trkpt>
      <trkpt lat="49.86085" lon="4.74065">
        <ele>203</ele>
        <time>2024-05-08T12:51:32Z</time>
      </trkpt>
      <trkpt lat="49.86085" lon="4.74065">
        <ele>203</ele>
        <time>2024-05-08T12:51:33Z</time>
      </trkpt>
      <trkpt lat="49.86086" lon="4.74065">
        <ele>203</ele>
        <time>2024-05-08T12:51:34Z</time>
      </trkpt>
      <trkpt lat="49.86086" lon="4.74064">
        <ele>203</ele>
        <time>2024-05-08T12:51:35Z</time>
      </trkpt>
      <trkpt lat="49.86087" lon="4.74065">
        <ele>204</ele>
        <time>2024-05-08T12:51:36Z</time>
      </trkpt>
      <trkpt lat="49.86088" lon="4.74065">
        <ele>204</ele>
        <time>2024-05-08T12:51:37Z</time>
      </trkpt>
      <trkpt lat="49.86088" lon="4.74065">
        <ele>204</ele>
        <time>2024-05-08T12:51:38Z</time>
      </trkpt>
      <trkpt lat="49.86089" lon="4.74066">
        <ele>204</ele>
        <time>2024-05-08T12:51:39Z</time>
      </trkpt>
      <trkpt lat="49.86089" lon="4.74067">
        <ele>204</ele>
        <time>2024-05-08T12:51:40Z</time>
      </trkpt>
      <trkpt lat="49.8609" lon="4.74068">
        <ele>205</ele>
        <time>2024-05-08T12:51:41Z</time>
      </trkpt>
      <trkpt lat="49.8609" lon="4.74069">
        <ele>205</ele>
        <time>2024-05-08T12:51:42Z</time>
      </trkpt>
      <trkpt lat="49.86091" lon="4.7407">
        <ele>205</ele>
        <time>2024-05-08T12:51:43Z</time>
      </trkpt>
      <trkpt lat="49.86091" lon="4.74071">
        <ele>205</ele>
        <time>2024-05-08T12:51:44Z</time>
      </trkpt>
      <trkpt lat="49.86091" lon="4.74072">
        <ele>205</ele>
        <time>2024-05-08T12:51:45Z</time>
      </trkpt>
      <trkpt lat="49.86092" lon="4.74072">
        <ele>206</ele>
        <time>2024-05-08T12:51:46Z</time>
      </trkpt>
      <trkpt lat="49.86092" lon="4.74073">
        <ele>206</ele>
        <time>2024-05-08T12:51:47Z</time>
      </trkpt>
      <trkpt lat="49.86092" lon="4.74074">
        <ele>206</ele>
        <time>2024-05-08T12:51:48Z</time>
      </trkpt>
      <trkpt lat="49.86093" lon="4.74075">
        <ele>206</ele>
        <time>2024-05-08T12:51:49Z</time>
      </trkpt>
      <trkpt lat="49.86093" lon="4.74076">
        <ele>206</ele>
        <time>2024-05-08T12:51:50Z</time>
      </trkpt>
      <trkpt lat="49.86093" lon="4.74077">
        <ele>207</ele>
        <time>2024-05-08T12:51:51Z</time>
      </trkpt>
      <trkpt lat="49.86093" lon="4.74078">
        <ele>207</ele>
        <time>2024-05-08T12:51:52Z</time>
      </trkpt>
      <trkpt lat="49.86094" lon="4.74079">
        <ele>207</ele>
        <time>2024-05-08T12:51:53Z</time>
      </trkpt>
      <trkpt lat="49.86094" lon="4.7408">
        <ele>207</ele>
        <time>2024-05-08T12:51:54Z</time>
      </trkpt>
      <trkpt lat="49.86094" lon="4.74081">
        <ele>207</ele>
        <time>2024-05-08T12:51:55Z</time>
      </trkpt>
      <trkpt lat="49.86094" lon="4.74082">
        <ele>208</ele>
        <time>2024-05-08T12:51:56Z</time>
      </trkpt>
      <trkpt lat="49.86095" lon="4.74083">
        <ele>208</ele>
        <time>2024-05-08T12:51:57Z</time>
      </trkpt>
      <trkpt lat="49.86095" lon="4.74084">
        <ele>208</ele>
        <time>2024-05-08T12:51:58Z</time>
      </trkpt>
      <trkpt lat="49.86095" lon="4.74085">
        <ele>208</ele>
        <time>2024-05-08T12:51:59Z</time>
      </trkpt>
      <trkpt lat="49.86095" lon="4.74086">
        <ele>208</ele>
        <time>2024-05-08T12:52:00Z</time>
      </trkpt>
      <trkpt lat="49.86095" lon="4.74087">
        <ele>209</ele>
        <time>2024-05-08T12:52:01Z</time>
      </trkpt>
      <trkpt lat="49.86096" lon="4.74087">
        <ele>209</ele>
        <time>2024-05-08T12:52:02Z</time>
      </trkpt>
      <trkpt lat="49.86096" lon="4.74088">
        <ele>209</ele>
        <time>2024-05-08T12:52:03Z</time>
      </trkpt>
      <trkpt lat="49.86096" lon="4.74088">
        <ele>209</ele>
        <time>2024-05-08T12:52:04Z</time>
      </trkpt>
      <trkpt lat="49.86096" lon="4.74089">
        <ele>209</ele>
        <time>2024-05-08T12:52:05Z</time>
      </trkpt>
      <trkpt lat="49.86096" lon="4.74089">
        <ele>210</ele>
        <time>2024-05-08T12:52:06Z</time>
      </trkpt>
      <trkpt lat="49.86097" lon="4.7409">
        <ele>210</ele>
        <time>2024-05-08T12:52:07Z</time>
      </trkpt>
      <trkpt lat="49.86097" lon="4.74091">
        <ele>210</ele>
        <time>2024-05-08T12:52:08Z</time>
      </trkpt>
      <trkpt lat="49.86097" lon="4.74092">
        <ele>210</ele>
        <time>2024-05-08T12:52:09Z</time>
      </trkpt>
      <trkpt lat="49.86098" lon="4.74093">
        <ele>210</ele>
        <time>2024-05-08T12:52:10Z</time>
      </trkpt>
      <trkpt lat="49.86098" lon="4.74093">
        <ele>211</ele>
        <time>2024-05-08T12:52:11Z</time>
      </trkpt>
      <trkpt lat="49.86098" lon="4.74094">
        <ele>211</ele>
        <time>2024-05-08T12:52:12Z</time>
      </trkpt>
      <trkpt lat="49.86098" lon="4.74094">
        <ele>211</ele>
        <time>2024-05-08T12:52:13Z</time>
      </trkpt>
      <trkpt lat="49.86098" lon="4.74094">
        <ele>211</ele>
        <time>2024-05-08T12:52:14Z</time>
      </trkpt>
      <trkpt lat="49.86098" lon="4.74096">
        <ele>211</ele>
        <time>2024-05-08T12:52:15Z</time>
      </trkpt>
      <trkpt lat="49.86098" lon="4.74097">
        <ele>212</ele>
        <time>2024-05-08T12:52:16Z</time>
      </trkpt>
      <trkpt lat="49.86098" lon="4.74098">
        <ele>212</ele>
        <time>2024-05-08T12:52:17Z</time>
      </trkpt>
      <trkpt lat="49.86098" lon="4.74099">
        <ele>212</ele>
        <time>2024-05-08T12:52:18Z</time>
      </trkpt>
      <trkpt lat="49.86098" lon="4.741">
        <ele>212</ele>
        <time>2024-05-08T12:52:19Z</time>
      </trkpt>
      <trkpt lat="49.86098" lon="4.74101">
        <ele>212</ele>
        <time>2024-05-08T12:52:20Z</time>
      </trkpt>
      <trkpt lat="49.86098" lon="4.74102">
        <ele>213</ele>
        <time>2024-05-08T12:52:21Z</time>
      </trkpt>
      <trkpt lat="49.86098" lon="4.74103">
        <ele>213</ele>
        <time>2024-05-08T12:52:22Z</time>
      </trkpt>
      <trkpt lat="49.86099" lon="4.74104">
        <ele>214</ele>
        <time>2024-05-08T12:52:28Z</time>
      </trkpt>
      <trkpt lat="49.86099" lon="4.74104">
        <ele>214</ele>
        <time>2024-05-08T12:52:29Z</time>
      </trkpt>
      <trkpt lat="49.861" lon="4.74105">
        <ele>214</ele>
        <time>2024-05-08T12:52:30Z</time>
      </trkpt>
      <trkpt lat="49.861" lon="4.74106">
        <ele>215</ele>
        <time>2024-05-08T12:52:31Z</time>
      </trkpt>
      <trkpt lat="49.86101" lon="4.74107">
        <ele>215</ele>
        <time>2024-05-08T12:52:32Z</time>
      </trkpt>
      <trkpt lat="49.86101" lon="4.74108">
        <ele>215</ele>
        <time>2024-05-08T12:52:33Z</time>
      </trkpt>
      <trkpt lat="49.86101" lon="4.74109">
        <ele>215</ele>
        <time>2024-05-08T12:52:34Z</time>
      </trkpt>
      <trkpt lat="49.86101" lon="4.7411">
        <ele>215</ele>
        <time>2024-05-08T12:52:35Z</time>
      </trkpt>
      <trkpt lat="49.86101" lon="4.74111">
        <ele>216</ele>
        <time>2024-05-08T12:52:36Z</time>
      </trkpt>
      <trkpt lat="49.86101" lon="4.74112">
        <ele>216</ele>
        <time>2024-05-08T12:52:37Z</time>
      </trkpt>
      <trkpt lat="49.86101" lon="4.74113">
        <ele>216</ele>
        <time>2024-05-08T12:52:38Z</time>
      </trkpt>
      <trkpt lat="49.86101" lon="4.74113">
        <ele>216</ele>
        <time>2024-05-08T12:52:39Z</time>
      </trkpt>
      <trkpt lat="49.86102" lon="4.74114">
        <ele>216</ele>
        <time>2024-05-08T12:52:40Z</time>
      </trkpt>
      <trkpt lat="49.86102" lon="4.74115">
        <ele>217</ele>
        <time>2024-05-08T12:52:41Z</time>
      </trkpt>
      <trkpt lat="49.86102" lon="4.74116">
        <ele>217</ele>
        <time>2024-05-08T12:52:42Z</time>
      </trkpt>
      <trkpt lat="49.86102" lon="4.74117">
        <ele>217</ele>
        <time>2024-05-08T12:52:43Z</time>
      </trkpt>
      <trkpt lat="49.86102" lon="4.74118">
        <ele>217</ele>
        <time>2024-05-08T12:52:44Z</time>
      </trkpt>
      <trkpt lat="49.86102" lon="4.7412">
        <ele>217</ele>
        <time>2024-05-08T12:52:45Z</time>
      </trkpt>
      <trkpt lat="49.86102" lon="4.74121">
        <ele>217</ele>
        <time>2024-05-08T12:52:46Z</time>
      </trkpt>
      <trkpt lat="49.86102" lon="4.74122">
        <ele>217</ele>
        <time>2024-05-08T12:52:47Z</time>
      </trkpt>
      <trkpt lat="49.86102" lon="4.74124">
        <ele>217</ele>
        <time>2024-05-08T12:52:48Z</time>
      </trkpt>
      <trkpt lat="49.86102" lon="4.74125">
        <ele>217</ele>
        <time>2024-05-08T12:52:49Z</time>
      </trkpt>
      <trkpt lat="49.86102" lon="4.74126">
        <ele>217</ele>
        <time>2024-05-08T12:52:50Z</time>
      </trkpt>
      <trkpt lat="49.86102" lon="4.74126">
        <ele>218</ele>
        <time>2024-05-08T12:52:51Z</time>
      </trkpt>
      <trkpt lat="49.86102" lon="4.74127">
        <ele>218</ele>
        <time>2024-05-08T12:52:52Z</time>
      </trkpt>
      <trkpt lat="49.86102" lon="4.74128">
        <ele>218</ele>
        <time>2024-05-08T12:52:53Z</time>
      </trkpt>
      <trkpt lat="49.86103" lon="4.74129">
        <ele>218</ele>
        <time>2024-05-08T12:52:54Z</time>
      </trkpt>
      <trkpt lat="49.86103" lon="4.7413">
        <ele>218</ele>
        <time>2024-05-08T12:52:55Z</time>
      </trkpt>
      <trkpt lat="49.86103" lon="4.74131">
        <ele>219</ele>
        <time>2024-05-08T12:52:56Z</time>
      </trkpt>
      <trkpt lat="49.86104" lon="4.74131">
        <ele>219</ele>
        <time>2024-05-08T12:52:57Z</time>
      </trkpt>
      <trkpt lat="49.86104" lon="4.74132">
        <ele>219</ele>
        <time>2024-05-08T12:52:58Z</time>
      </trkpt>
      <trkpt lat="49.86104" lon="4.74133">
        <ele>220</ele>
        <time>2024-05-08T12:52:59Z</time>
      </trkpt>
      <trkpt lat="49.86104" lon="4.74134">
        <ele>220</ele>
        <time>2024-05-08T12:53:00Z</time>
      </trkpt>
      <trkpt lat="49.86104" lon="4.74135">
        <ele>221</ele>
        <time>2024-05-08T12:53:01Z</time>
      </trkpt>
      <trkpt lat="49.86104" lon="4.74136">
        <ele>221</ele>
        <time>2024-05-08T12:53:02Z</time>
      </trkpt>
      <trkpt lat="49.86104" lon="4.74137">
        <ele>221</ele>
        <time>2024-05-08T12:53:03Z</time>
      </trkpt>
      <trkpt lat="49.86104" lon="4.74138">
        <ele>221</ele>
        <time>2024-05-08T12:53:04Z</time>
      </trkpt>
      <trkpt lat="49.86104" lon="4.74139">
        <ele>221</ele>
        <time>2024-05-08T12:53:05Z</time>
      </trkpt>
      <trkpt lat="49.86104" lon="4.7414">
        <ele>222</ele>
        <time>2024-05-08T12:53:06Z</time>
      </trkpt>
      <trkpt lat="49.86104" lon="4.74141">
        <ele>222</ele>
        <time>2024-05-08T12:53:07Z</time>
      </trkpt>
      <trkpt lat="49.86105" lon="4.74142">
        <ele>222</ele>
        <time>2024-05-08T12:53:08Z</time>
      </trkpt>
      <trkpt lat="49.86105" lon="4.74142">
        <ele>222</ele>
        <time>2024-05-08T12:53:09Z</time>
      </trkpt>
      <trkpt lat="49.86105" lon="4.74143">
        <ele>222</ele>
        <time>2024-05-08T12:53:10Z</time>
      </trkpt>
      <trkpt lat="49.86106" lon="4.74143">
        <ele>223</ele>
        <time>2024-05-08T12:53:11Z</time>
      </trkpt>
      <trkpt lat="49.86106" lon="4.74144">
        <ele>223</ele>
        <time>2024-05-08T12:53:12Z</time>
      </trkpt>
      <trkpt lat="49.86106" lon="4.74145">
        <ele>223</ele>
        <time>2024-05-08T12:53:13Z</time>
      </trkpt>
      <trkpt lat="49.86106" lon="4.74145">
        <ele>223</ele>
        <time>2024-05-08T12:53:14Z</time>
      </trkpt>
      <trkpt lat="49.86107" lon="4.74146">
        <ele>223</ele>
        <time>2024-05-08T12:53:15Z</time>
      </trkpt>
      <trkpt lat="49.86107" lon="4.74147">
        <ele>224</ele>
        <time>2024-05-08T12:53:16Z</time>
      </trkpt>
      <trkpt lat="49.86107" lon="4.74148">
        <ele>224</ele>
        <time>2024-05-08T12:53:17Z</time>
      </trkpt>
      <trkpt lat="49.86107" lon="4.74149">
        <ele>224</ele>
        <time>2024-05-08T12:53:18Z</time>
      </trkpt>
      <trkpt lat="49.86107" lon="4.74149">
        <ele>224</ele>
        <time>2024-05-08T12:53:19Z</time>
      </trkpt>
      <trkpt lat="49.86108" lon="4.74151">
        <ele>226</ele>
        <time>2024-05-08T12:53:26Z</time>
      </trkpt>
      <trkpt lat="49.86108" lon="4.74152">
        <ele>226</ele>
        <time>2024-05-08T12:53:27Z</time>
      </trkpt>
      <trkpt lat="49.86109" lon="4.74153">
        <ele>226</ele>
        <time>2024-05-08T12:53:28Z</time>
      </trkpt>
      <trkpt lat="49.86109" lon="4.74154">
        <ele>226</ele>
        <time>2024-05-08T12:53:29Z</time>
      </trkpt>
      <trkpt lat="49.86109" lon="4.74155">
        <ele>226</ele>
        <time>2024-05-08T12:53:30Z</time>
      </trkpt>
      <trkpt lat="49.86109" lon="4.74156">
        <ele>227</ele>
        <time>2024-05-08T12:53:31Z</time>
      </trkpt>
      <trkpt lat="49.86109" lon="4.74158">
        <ele>227</ele>
        <time>2024-05-08T12:53:32Z</time>
      </trkpt>
      <trkpt lat="49.86109" lon="4.74159">
        <ele>227</ele>
        <time>2024-05-08T12:53:33Z</time>
      </trkpt>
      <trkpt lat="49.86109" lon="4.7416">
        <ele>227</ele>
        <time>2024-05-08T12:53:34Z</time>
      </trkpt>
      <trkpt lat="49.86109" lon="4.74161">
        <ele>227</ele>
        <time>2024-05-08T12:53:35Z</time>
      </trkpt>
      <trkpt lat="49.86109" lon="4.74163">
        <ele>227</ele>
        <time>2024-05-08T12:53:36Z</time>
      </trkpt>
      <trkpt lat="49.8611" lon="4.74164">
        <ele>227</ele>
        <time>2024-05-08T12:53:37Z</time>
      </trkpt>
      <trkpt lat="49.8611" lon="4.74165">
        <ele>227</ele>
        <time>2024-05-08T12:53:38Z</time>
      </trkpt>
      <trkpt lat="49.8611" lon="4.74166">
        <ele>227</ele>
        <time>2024-05-08T12:53:39Z</time>
      </trkpt>
      <trkpt lat="49.8611" lon="4.74167">
        <ele>227</ele>
        <time>2024-05-08T12:53:40Z</time>
      </trkpt>
      <trkpt lat="49.86111" lon="4.74168">
        <ele>228</ele>
        <time>2024-05-08T12:53:41Z</time>
      </trkpt>
      <trkpt lat="49.86111" lon="4.74168">
        <ele>228</ele>
        <time>2024-05-08T12:53:42Z</time>
      </trkpt>
      <trkpt lat="49.86111" lon="4.74169">
        <ele>228</ele>
        <time>2024-05-08T12:53:43Z</time>
      </trkpt>
      <trkpt lat="49.86112" lon="4.74169">
        <ele>228</ele>
        <time>2024-05-08T12:53:44Z</time>
      </trkpt>
      <trkpt lat="49.86112" lon="4.7417">
        <ele>228</ele>
        <time>2024-05-08T12:53:45Z</time>
      </trkpt>
      <trkpt lat="49.86113" lon="4.7417">
        <ele>229</ele>
        <time>2024-05-08T12:53:46Z</time>
      </trkpt>
      <trkpt lat="49.86113" lon="4.74171">
        <ele>229</ele>
        <time>2024-05-08T12:53:47Z</time>
      </trkpt>
      <trkpt lat="49.86113" lon="4.74171">
        <ele>229</ele>
        <time>2024-05-08T12:53:48Z</time>
      </trkpt>
      <trkpt lat="49.86113" lon="4.74171">
        <ele>229</ele>
        <time>2024-05-08T12:53:49Z</time>
      </trkpt>
      <trkpt lat="49.86113" lon="4.74172">
        <ele>229</ele>
        <time>2024-05-08T12:53:50Z</time>
      </trkpt>
      <trkpt lat="49.86113" lon="4.74173">
        <ele>230</ele>
        <time>2024-05-08T12:53:51Z</time>
      </trkpt>
      <trkpt lat="49.86114" lon="4.74174">
        <ele>230</ele>
        <time>2024-05-08T12:53:52Z</time>
      </trkpt>
      <trkpt lat="49.86114" lon="4.74174">
        <ele>230</ele>
        <time>2024-05-08T12:53:53Z</time>
      </trkpt>
      <trkpt lat="49.86114" lon="4.74176">
        <ele>230</ele>
        <time>2024-05-08T12:53:54Z</time>
      </trkpt>
      <trkpt lat="49.86114" lon="4.74177">
        <ele>230</ele>
        <time>2024-05-08T12:53:55Z</time>
      </trkpt>
      <trkpt lat="49.86114" lon="4.74178">
        <ele>231</ele>
        <time>2024-05-08T12:53:56Z</time>
      </trkpt>
      <trkpt lat="49.86114" lon="4.74179">
        <ele>231</ele>
        <time>2024-05-08T12:53:57Z</time>
      </trkpt>
      <trkpt lat="49.86114" lon="4.7418">
        <ele>231</ele>
        <time>2024-05-08T12:53:58Z</time>
      </trkpt>
      <trkpt lat="49.86114" lon="4.74181">
        <ele>231</ele>
        <time>2024-05-08T12:53:59Z</time>
      </trkpt>
      <trkpt lat="49.86114" lon="4.74182">
        <ele>231</ele>
        <time>2024-05-08T12:54:00Z</time>
      </trkpt>
      <trkpt lat="49.86115" lon="4.74183">
        <ele>232</ele>
        <time>2024-05-08T12:54:01Z</time>
      </trkpt>
      <trkpt lat="49.86115" lon="4.74183">
        <ele>232</ele>
        <time>2024-05-08T12:54:02Z</time>
      </trkpt>
      <trkpt lat="49.86115" lon="4.74184">
        <ele>232</ele>
        <time>2024-05-08T12:54:03Z</time>
      </trkpt>
      <trkpt lat="49.86115" lon="4.74185">
        <ele>232</ele>
        <time>2024-05-08T12:54:04Z</time>
      </trkpt>
      <trkpt lat="49.86115" lon="4.74186">
        <ele>232</ele>
        <time>2024-05-08T12:54:05Z</time>
      </trkpt>
      <trkpt lat="49.86116" lon="4.74187">
        <ele>233</ele>
        <time>2024-05-08T12:54:06Z</time>
      </trkpt>
      <trkpt lat="49.86116" lon="4.74188">
        <ele>233</ele>
        <time>2024-05-08T12:54:07Z</time>
      </trkpt>
      <trkpt lat="49.86116" lon="4.74188">
        <ele>233</ele>
        <time>2024-05-08T12:54:08Z</time>
      </trkpt>
      <trkpt lat="49.86116" lon="4.74189">
        <ele>233</ele>
        <time>2024-05-08T12:54:09Z</time>
      </trkpt>
      <trkpt lat="49.86116" lon="4.7419">
        <ele>233</ele>
        <time>2024-05-08T12:54:10Z</time>
      </trkpt>
      <trkpt lat="49.86115" lon="4.7419">
        <ele>234</ele>
        <time>2024-05-08T12:54:11Z</time>
      </trkpt>
      <trkpt lat="49.86115" lon="4.74191">
        <ele>234</ele>
        <time>2024-05-08T12:54:12Z</time>
      </trkpt>
      <trkpt lat="49.86116" lon="4.74192">
        <ele>234</ele>
        <time>2024-05-08T12:54:13Z</time>
      </trkpt>
      <trkpt lat="49.86116" lon="4.74193">
        <ele>235</ele>
        <time>2024-05-08T12:54:14Z</time>
      </trkpt>
      <trkpt lat="49.86118" lon="4.74197">
        <ele>240</ele>
        <time>2024-05-08T12:54:40Z</time>
      </trkpt>
      <trkpt lat="49.86119" lon="4.742">
        <ele>240</ele>
        <time>2024-05-08T12:54:41Z</time>
      </trkpt>
      <trkpt lat="49.8612" lon="4.74202">
        <ele>240</ele>
        <time>2024-05-08T12:54:42Z</time>
      </trkpt>
      <trkpt lat="49.8612" lon="4.74203">
        <ele>240</ele>
        <time>2024-05-08T12:54:43Z</time>
      </trkpt>
      <trkpt lat="49.86121" lon="4.74205">
        <ele>240</ele>
        <time>2024-05-08T12:54:44Z</time>
      </trkpt>
      <trkpt lat="49.86121" lon="4.74205">
        <ele>240</ele>
        <time>2024-05-08T12:54:45Z</time>
      </trkpt>
      <trkpt lat="49.86122" lon="4.74206">
        <ele>241</ele>
        <time>2024-05-08T12:54:46Z</time>
      </trkpt>
      <trkpt lat="49.86122" lon="4.74206">
        <ele>241</ele>
        <time>2024-05-08T12:54:47Z</time>
      </trkpt>
      <trkpt lat="49.86122" lon="4.74207">
        <ele>241</ele>
        <time>2024-05-08T12:54:48Z</time>
      </trkpt>
      <trkpt lat="49.86123" lon="4.74207">
        <ele>241</ele>
        <time>2024-05-08T12:54:49Z</time>
      </trkpt>
      <trkpt lat="49.86123" lon="4.74208">
        <ele>241</ele>
        <time>2024-05-08T12:54:50Z</time>
      </trkpt>
      <trkpt lat="49.86124" lon="4.74209">
        <ele>242</ele>
        <time>2024-05-08T12:54:51Z</time>
      </trkpt>
      <trkpt lat="49.86124" lon="4.74209">
        <ele>242</ele>
        <time>2024-05-08T12:54:52Z</time>
      </trkpt>
      <trkpt lat="49.86126" lon="4.74212">
        <ele>243</ele>
        <time>2024-05-08T12:55:15Z</time>
      </trkpt>
      <trkpt lat="49.86126" lon="4.74214">
        <ele>244</ele>
        <time>2024-05-08T12:55:16Z</time>
      </trkpt>
      <trkpt lat="49.86127" lon="4.74215">
        <ele>244</ele>
        <time>2024-05-08T12:55:17Z</time>
      </trkpt>
      <trkpt lat="49.86127" lon="4.74216">
        <ele>244</ele>
        <time>2024-05-08T12:55:18Z</time>
      </trkpt>
      <trkpt lat="49.86128" lon="4.74217">
        <ele>244</ele>
        <time>2024-05-08T12:55:19Z</time>
      </trkpt>
      <trkpt lat="49.86128" lon="4.74218">
        <ele>244</ele>
        <time>2024-05-08T12:55:20Z</time>
      </trkpt>
      <trkpt lat="49.86128" lon="4.74219">
        <ele>244</ele>
        <time>2024-05-08T12:55:21Z</time>
      </trkpt>
      <trkpt lat="49.86129" lon="4.7422">
        <ele>245</ele>
        <time>2024-05-08T12:55:27Z</time>
      </trkpt>
      <trkpt lat="49.86129" lon="4.74221">
        <ele>245</ele>
        <time>2024-05-08T12:55:28Z</time>
      </trkpt>
      <trkpt lat="49.8613" lon="4.74222">
        <ele>245</ele>
        <time>2024-05-08T12:55:29Z</time>
      </trkpt>
      <trkpt lat="49.8613" lon="4.74222">
        <ele>245</ele>
        <time>2024-05-08T12:55:30Z</time>
      </trkpt>
      <trkpt lat="49.86131" lon="4.74222">
        <ele>246</ele>
        <time>2024-05-08T12:55:31Z</time>
      </trkpt>
      <trkpt lat="49.86132" lon="4.74223">
        <ele>246</ele>
        <time>2024-05-08T12:55:32Z</time>
      </trkpt>
      <trkpt lat="49.86132" lon="4.74224">
        <ele>246</ele>
        <time>2024-05-08T12:55:33Z</time>
      </trkpt>
      <trkpt lat="49.86133" lon="4.74225">
        <ele>246</ele>
        <time>2024-05-08T12:55:34Z</time>
      </trkpt>
      <trkpt lat="49.86133" lon="4.74226">
        <ele>246</ele>
        <time>2024-05-08T12:55:35Z</time>
      </trkpt>
      <trkpt lat="49.86134" lon="4.74227">
        <ele>247</ele>
        <time>2024-05-08T12:55:36Z</time>
      </trkpt>
      <trkpt lat="49.86135" lon="4.74228">
        <ele>247</ele>
        <time>2024-05-08T12:55:37Z</time>
      </trkpt>
      <trkpt lat="49.86135" lon="4.74229">
        <ele>247</ele>
        <time>2024-05-08T12:55:38Z</time>
      </trkpt>
      <trkpt lat="49.86136" lon="4.7423">
        <ele>247</ele>
        <time>2024-05-08T12:55:39Z</time>
      </trkpt>
      <trkpt lat="49.86137" lon="4.7423">
        <ele>247</ele>
        <time>2024-05-08T12:55:40Z</time>
      </trkpt>
      <trkpt lat="49.86138" lon="4.74231">
        <ele>247</ele>
        <time>2024-05-08T12:55:41Z</time>
      </trkpt>
      <trkpt lat="49.86139" lon="4.74232">
        <ele>247</ele>
        <time>2024-05-08T12:55:42Z</time>
      </trkpt>
      <trkpt lat="49.86139" lon="4.74232">
        <ele>247</ele>
        <time>2024-05-08T12:55:43Z</time>
      </trkpt>
      <trkpt lat="49.8614" lon="4.74233">
        <ele>247</ele>
        <time>2024-05-08T12:55:44Z</time>
      </trkpt>
      <trkpt lat="49.8614" lon="4.74233">
        <ele>247</ele>
        <time>2024-05-08T12:55:45Z</time>
      </trkpt>
      <trkpt lat="49.86142" lon="4.74233">
        <ele>246</ele>
        <time>2024-05-08T12:56:31Z</time>
      </trkpt>
      <trkpt lat="49.86143" lon="4.74233">
        <ele>246</ele>
        <time>2024-05-08T12:56:32Z</time>
      </trkpt>
      <trkpt lat="49.86144" lon="4.74233">
        <ele>246</ele>
        <time>2024-05-08T12:56:33Z</time>
      </trkpt>
      <trkpt lat="49.86144" lon="4.74232">
        <ele>246</ele>
        <time>2024-05-08T12:56:34Z</time>
      </trkpt>
      <trkpt lat="49.86145" lon="4.74232">
        <ele>246</ele>
        <time>2024-05-08T12:56:35Z</time>
      </trkpt>
      <trkpt lat="49.86145" lon="4.74232">
        <ele>246</ele>
        <time>2024-05-08T12:56:36Z</time>
      </trkpt>
      <trkpt lat="49.86146" lon="4.74232">
        <ele>245</ele>
        <time>2024-05-08T12:56:37Z</time>
      </trkpt>
      <trkpt lat="49.86147" lon="4.74231">
        <ele>245</ele>
        <time>2024-05-08T12:56:38Z</time>
      </trkpt>
      <trkpt lat="49.86147" lon="4.74231">
        <ele>245</ele>
        <time>2024-05-08T12:56:39Z</time>
      </trkpt>
      <trkpt lat="49.86148" lon="4.74231">
        <ele>245</ele>
        <time>2024-05-08T12:56:40Z</time>
      </trkpt>
      <trkpt lat="49.86149" lon="4.74231">
        <ele>245</ele>
        <time>2024-05-08T12:56:41Z</time>
      </trkpt>
      <trkpt lat="49.86149" lon="4.74231">
        <ele>244</ele>
        <time>2024-05-08T12:56:42Z</time>
      </trkpt>
      <trkpt lat="49.8615" lon="4.74231">
        <ele>244</ele>
        <time>2024-05-08T12:56:43Z</time>
      </trkpt>
      <trkpt lat="49.8615" lon="4.74232">
        <ele>244</ele>
        <time>2024-05-08T12:56:44Z</time>
      </trkpt>
      <trkpt lat="49.86151" lon="4.74232">
        <ele>244</ele>
        <time>2024-05-08T12:56:45Z</time>
      </trkpt>
      <trkpt lat="49.86151" lon="4.74232">
        <ele>244</ele>
        <time>2024-05-08T12:56:46Z</time>
      </trkpt>
      <trkpt lat="49.86151" lon="4.74232">
        <ele>243</ele>
        <time>2024-05-08T12:56:47Z</time>
      </trkpt>
      <trkpt lat="49.86152" lon="4.74232">
        <ele>243</ele>
        <time>2024-05-08T12:56:48Z</time>
      </trkpt>
      <trkpt lat="49.86152" lon="4.74233">
        <ele>243</ele>
        <time>2024-05-08T12:56:49Z</time>
      </trkpt>
      <trkpt lat="49.86152" lon="4.74233">
        <ele>243</ele>
        <time>2024-05-08T12:56:50Z</time>
      </trkpt>
      <trkpt lat="49.86153" lon="4.74233">
        <ele>243</ele>
        <time>2024-05-08T12:56:51Z</time>
      </trkpt>
      <trkpt lat="49.86153" lon="4.74233">
        <ele>243</ele>
        <time>2024-05-08T12:56:52Z</time>
      </trkpt>
      <trkpt lat="49.86154" lon="4.74233">
        <ele>243</ele>
        <time>2024-05-08T12:56:53Z</time>
      </trkpt>
      <trkpt lat="49.86154" lon="4.74233">
        <ele>243</ele>
        <time>2024-05-08T12:56:54Z</time>
      </trkpt>
      <trkpt lat="49.86155" lon="4.74233">
        <ele>243</ele>
        <time>2024-05-08T12:56:55Z</time>
      </trkpt>
      <trkpt lat="49.86155" lon="4.74233">
        <ele>243</ele>
        <time>2024-05-08T12:56:56Z</time>
      </trkpt>
      <trkpt lat="49.86156" lon="4.74233">
        <ele>242</ele>
        <time>2024-05-08T12:56:57Z</time>
      </trkpt>
      <trkpt lat="49.86157" lon="4.74233">
        <ele>242</ele>
        <time>2024-05-08T12:56:58Z</time>
      </trkpt>
      <trkpt lat="49.86158" lon="4.74233">
        <ele>242</ele>
        <time>2024-05-08T12:56:59Z</time>
      </trkpt>
      <trkpt lat="49.86159" lon="4.74233">
        <ele>242</ele>
        <time>2024-05-08T12:57:00Z</time>
      </trkpt>
      <trkpt lat="49.8616" lon="4.74233">
        <ele>242</ele>
        <time>2024-05-08T12:57:01Z</time>
      </trkpt>
      <trkpt lat="49.86161" lon="4.74233">
        <ele>242</ele>
        <time>2024-05-08T12:57:02Z</time>
      </trkpt>
      <trkpt lat="49.86162" lon="4.74233">
        <ele>242</ele>
        <time>2024-05-08T12:57:03Z</time>
      </trkpt>
      <trkpt lat="49.86163" lon="4.74233">
        <ele>242</ele>
        <time>2024-05-08T12:57:04Z</time>
      </trkpt>
      <trkpt lat="49.86164" lon="4.74233">
        <ele>242</ele>
        <time>2024-05-08T12:57:05Z</time>
      </trkpt>
      <trkpt lat="49.86165" lon="4.74233">
        <ele>242</ele>
        <time>2024-05-08T12:57:06Z</time>
      </trkpt>
      <trkpt lat="49.86166" lon="4.74233">
        <ele>241</ele>
        <time>2024-05-08T12:57:07Z</time>
      </trkpt>
      <trkpt lat="49.86167" lon="4.74233">
        <ele>241</ele>
        <time>2024-05-08T12:57:08Z</time>
      </trkpt>
      <trkpt lat="49.86168" lon="4.74233">
        <ele>241</ele>
        <time>2024-05-08T12:57:09Z</time>
      </trkpt>
      <trkpt lat="49.86169" lon="4.74233">
        <ele>241</ele>
        <time>2024-05-08T12:57:10Z</time>
      </trkpt>
      <trkpt lat="49.8617" lon="4.74233">
        <ele>241</ele>
        <time>2024-05-08T12:57:11Z</time>
      </trkpt>
      <trkpt lat="49.86171" lon="4.74233">
        <ele>241</ele>
        <time>2024-05-08T12:57:12Z</time>
      </trkpt>
      <trkpt lat="49.86173" lon="4.74233">
        <ele>241</ele>
        <time>2024-05-08T12:57:13Z</time>
      </trkpt>
      <trkpt lat="49.86174" lon="4.74233">
        <ele>241</ele>
        <time>2024-05-08T12:57:14Z</time>
      </trkpt>
      <trkpt lat="49.86175" lon="4.74234">
        <ele>241</ele>
        <time>2024-05-08T12:57:15Z</time>
      </trkpt>
      <trkpt lat="49.86176" lon="4.74234">
        <ele>241</ele>
        <time>2024-05-08T12:57:16Z</time>
      </trkpt>
      <trkpt lat="49.86177" lon="4.74234">
        <ele>241</ele>
        <time>2024-05-08T12:57:17Z</time>
      </trkpt>
      <trkpt lat="49.86178" lon="4.74234">
        <ele>241</ele>
        <time>2024-05-08T12:57:18Z</time>
      </trkpt>
      <trkpt lat="49.86179" lon="4.74234">
        <ele>241</ele>
        <time>2024-05-08T12:57:19Z</time>
      </trkpt>
      <trkpt lat="49.8618" lon="4.74234">
        <ele>241</ele>
        <time>2024-05-08T12:57:20Z</time>
      </trkpt>
      <trkpt lat="49.86181" lon="4.74234">
        <ele>242</ele>
        <time>2024-05-08T12:57:21Z</time>
      </trkpt>
      <trkpt lat="49.86181" lon="4.74233">
        <ele>242</ele>
        <time>2024-05-08T12:57:22Z</time>
      </trkpt>
      <trkpt lat="49.86182" lon="4.74233">
        <ele>242</ele>
        <time>2024-05-08T12:57:23Z</time>
      </trkpt>
      <trkpt lat="49.86183" lon="4.74233">
        <ele>242</ele>
        <time>2024-05-08T12:57:24Z</time>
      </trkpt>
      <trkpt lat="49.86184" lon="4.74233">
        <ele>242</ele>
        <time>2024-05-08T12:57:25Z</time>
      </trkpt>
      <trkpt lat="49.86185" lon="4.74233">
        <ele>243</ele>
        <time>2024-05-08T12:57:26Z</time>
      </trkpt>
      <trkpt lat="49.86186" lon="4.74233">
        <ele>243</ele>
        <time>2024-05-08T12:57:27Z</time>
      </trkpt>
      <trkpt lat="49.86186" lon="4.74233">
        <ele>243</ele>
        <time>2024-05-08T12:57:28Z</time>
      </trkpt>
      <trkpt lat="49.86187" lon="4.74233">
        <ele>243</ele>
        <time>2024-05-08T12:57:29Z</time>
      </trkpt>
      <trkpt lat="49.86188" lon="4.74233">
        <ele>243</ele>
        <time>2024-05-08T12:57:30Z</time>
      </trkpt>
      <trkpt lat="49.86189" lon="4.74233">
        <ele>243</ele>
        <time>2024-05-08T12:57:31Z</time>
      </trkpt>
      <trkpt lat="49.86189" lon="4.74234">
        <ele>243</ele>
        <time>2024-05-08T12:57:32Z</time>
      </trkpt>
      <trkpt lat="49.8619" lon="4.74234">
        <ele>243</ele>
        <time>2024-05-08T12:57:33Z</time>
      </trkpt>
      <trkpt lat="49.86191" lon="4.74234">
        <ele>243</ele>
        <time>2024-05-08T12:57:34Z</time>
      </trkpt>
      <trkpt lat="49.86192" lon="4.74234">
        <ele>243</ele>
        <time>2024-05-08T12:57:35Z</time>
      </trkpt>
      <trkpt lat="49.86194" lon="4.74234">
        <ele>244</ele>
        <time>2024-05-08T12:57:36Z</time>
      </trkpt>
      <trkpt lat="49.86195" lon="4.74234">
        <ele>244</ele>
        <time>2024-05-08T12:57:37Z</time>
      </trkpt>
      <trkpt lat="49.86196" lon="4.74233">
        <ele>244</ele>
        <time>2024-05-08T12:57:38Z</time>
      </trkpt>
      <trkpt lat="49.86196" lon="4.74233">
        <ele>244</ele>
        <time>2024-05-08T12:57:39Z</time>
      </trkpt>
      <trkpt lat="49.86197" lon="4.74233">
        <ele>244</ele>
        <time>2024-05-08T12:57:40Z</time>
      </trkpt>
      <trkpt lat="49.86198" lon="4.74232">
        <ele>245</ele>
        <time>2024-05-08T12:57:41Z</time>
      </trkpt>
      <trkpt lat="49.86199" lon="4.74232">
        <ele>245</ele>
        <time>2024-05-08T12:57:42Z</time>
      </trkpt>
      <trkpt lat="49.862" lon="4.74232">
        <ele>245</ele>
        <time>2024-05-08T12:57:43Z</time>
      </trkpt>
      <trkpt lat="49.86201" lon="4.74231">
        <ele>245</ele>
        <time>2024-05-08T12:57:44Z</time>
      </trkpt>
      <trkpt lat="49.86202" lon="4.74231">
        <ele>245</ele>
        <time>2024-05-08T12:57:45Z</time>
      </trkpt>
      <trkpt lat="49.86203" lon="4.74231">
        <ele>245</ele>
        <time>2024-05-08T12:57:46Z</time>
      </trkpt>
      <trkpt lat="49.86204" lon="4.74231">
        <ele>245</ele>
        <time>2024-05-08T12:57:47Z</time>
      </trkpt>
      <trkpt lat="49.86205" lon="4.74231">
        <ele>245</ele>
        <time>2024-05-08T12:57:48Z</time>
      </trkpt>
      <trkpt lat="49.86205" lon="4.74232">
        <ele>245</ele>
        <time>2024-05-08T12:57:49Z</time>
      </trkpt>
      <trkpt lat="49.86206" lon="4.74232">
        <ele>245</ele>
        <time>2024-05-08T12:57:50Z</time>
      </trkpt>
      <trkpt lat="49.86207" lon="4.74232">
        <ele>246</ele>
        <time>2024-05-08T12:57:51Z</time>
      </trkpt>
      <trkpt lat="49.86208" lon="4.74232">
        <ele>246</ele>
        <time>2024-05-08T12:57:52Z</time>
      </trkpt>
      <trkpt lat="49.86208" lon="4.74232">
        <ele>246</ele>
        <time>2024-05-08T12:57:53Z</time>
      </trkpt>
      <trkpt lat="49.86209" lon="4.74232">
        <ele>246</ele>
        <time>2024-05-08T12:57:54Z</time>
      </trkpt>
      <trkpt lat="49.86209" lon="4.74233">
        <ele>246</ele>
        <time>2024-05-08T12:57:55Z</time>
      </trkpt>
      <trkpt lat="49.8621" lon="4.74232">
        <ele>247</ele>
        <time>2024-05-08T12:57:56Z</time>
      </trkpt>
      <trkpt lat="49.86211" lon="4.74232">
        <ele>247</ele>
        <time>2024-05-08T12:57:57Z</time>
      </trkpt>
      <trkpt lat="49.86212" lon="4.74232">
        <ele>247</ele>
        <time>2024-05-08T12:57:58Z</time>
      </trkpt>
      <trkpt lat="49.86213" lon="4.74232">
        <ele>247</ele>
        <time>2024-05-08T12:57:59Z</time>
      </trkpt>
      <trkpt lat="49.86213" lon="4.74232">
        <ele>247</ele>
        <time>2024-05-08T12:58:00Z</time>
      </trkpt>
      <trkpt lat="49.86214" lon="4.74232">
        <ele>248</ele>
        <time>2024-05-08T12:58:01Z</time>
      </trkpt>
      <trkpt lat="49.86215" lon="4.74233">
        <ele>248</ele>
        <time>2024-05-08T12:58:02Z</time>
      </trkpt>
      <trkpt lat="49.86215" lon="4.74233">
        <ele>248</ele>
        <time>2024-05-08T12:58:03Z</time>
      </trkpt>
      <trkpt lat="49.86216" lon="4.74234">
        <ele>248</ele>
        <time>2024-05-08T12:58:04Z</time>
      </trkpt>
      <trkpt lat="49.86216" lon="4.74235">
        <ele>248</ele>
        <time>2024-05-08T12:58:05Z</time>
      </trkpt>
      <trkpt lat="49.86216" lon="4.74236">
        <ele>249</ele>
        <time>2024-05-08T12:58:06Z</time>
      </trkpt>
      <trkpt lat="49.86217" lon="4.74236">
        <ele>249</ele>
        <time>2024-05-08T12:58:07Z</time>
      </trkpt>
      <trkpt lat="49.86217" lon="4.74237">
        <ele>249</ele>
        <time>2024-05-08T12:58:08Z</time>
      </trkpt>
      <trkpt lat="49.86218" lon="4.74237">
        <ele>249</ele>
        <time>2024-05-08T12:58:09Z</time>
      </trkpt>
      <trkpt lat="49.86218" lon="4.74237">
        <ele>249</ele>
        <time>2024-05-08T12:58:10Z</time>
      </trkpt>
      <trkpt lat="49.86219" lon="4.74238">
        <ele>250</ele>
        <time>2024-05-08T12:58:11Z</time>
      </trkpt>
      <trkpt lat="49.8622" lon="4.74238">
        <ele>250</ele>
        <time>2024-05-08T12:58:12Z</time>
      </trkpt>
      <trkpt lat="49.8622" lon="4.74238">
        <ele>250</ele>
        <time>2024-05-08T12:58:13Z</time>
      </trkpt>
      <trkpt lat="49.86221" lon="4.74238">
        <ele>250</ele>
        <time>2024-05-08T12:58:14Z</time>
      </trkpt>
      <trkpt lat="49.86222" lon="4.74238">
        <ele>250</ele>
        <time>2024-05-08T12:58:15Z</time>
      </trkpt>
      <trkpt lat="49.86222" lon="4.74238">
        <ele>250</ele>
        <time>2024-05-08T12:58:16Z</time>
      </trkpt>
      <trkpt lat="49.86223" lon="4.74237">
        <ele>249</ele>
        <time>2024-05-08T12:58:17Z</time>
      </trkpt>
      <trkpt lat="49.86223" lon="4.74237">
        <ele>249</ele>
        <time>2024-05-08T12:58:18Z</time>
      </trkpt>
      <trkpt lat="49.86224" lon="4.74236">
        <ele>249</ele>
        <time>2024-05-08T12:58:19Z</time>
      </trkpt>
      <trkpt lat="49.86224" lon="4.74235">
        <ele>249</ele>
        <time>2024-05-08T12:58:20Z</time>
      </trkpt>
      <trkpt lat="49.86225" lon="4.74235">
        <ele>249</ele>
        <time>2024-05-08T12:58:21Z</time>
      </trkpt>
      <trkpt lat="49.86225" lon="4.74234">
        <ele>249</ele>
        <time>2024-05-08T12:58:22Z</time>
      </trkpt>
      <trkpt lat="49.86226" lon="4.74233">
        <ele>249</ele>
        <time>2024-05-08T12:58:23Z</time>
      </trkpt>
      <trkpt lat="49.86226" lon="4.74232">
        <ele>249</ele>
        <time>2024-05-08T12:58:24Z</time>
      </trkpt>
      <trkpt lat="49.86227" lon="4.74231">
        <ele>249</ele>
        <time>2024-05-08T12:58:25Z</time>
      </trkpt>
      <trkpt lat="49.86227" lon="4.74229">
        <ele>249</ele>
        <time>2024-05-08T12:58:26Z</time>
      </trkpt>
      <trkpt lat="49.86228" lon="4.74228">
        <ele>248</ele>
        <time>2024-05-08T12:58:27Z</time>
      </trkpt>
      <trkpt lat="49.86229" lon="4.74228">
        <ele>248</ele>
        <time>2024-05-08T12:58:28Z</time>
      </trkpt>
      <trkpt lat="49.8623" lon="4.74227">
        <ele>248</ele>
        <time>2024-05-08T12:58:29Z</time>
      </trkpt>
      <trkpt lat="49.86231" lon="4.74226">
        <ele>248</ele>
        <time>2024-05-08T12:58:30Z</time>
      </trkpt>
      <trkpt lat="49.86232" lon="4.74226">
        <ele>248</ele>
        <time>2024-05-08T12:58:31Z</time>
      </trkpt>
      <trkpt lat="49.86233" lon="4.74225">
        <ele>248</ele>
        <time>2024-05-08T12:58:32Z</time>
      </trkpt>
      <trkpt lat="49.86234" lon="4.74225">
        <ele>248</ele>
        <time>2024-05-08T12:58:33Z</time>
      </trkpt>
      <trkpt lat="49.86235" lon="4.74225">
        <ele>248</ele>
        <time>2024-05-08T12:58:34Z</time>
      </trkpt>
      <trkpt lat="49.86236" lon="4.74224">
        <ele>248</ele>
        <time>2024-05-08T12:58:35Z</time>
      </trkpt>
      <trkpt lat="49.86237" lon="4.74224">
        <ele>249</ele>
        <time>2024-05-08T12:58:36Z</time>
      </trkpt>
      <trkpt lat="49.86238" lon="4.74224">
        <ele>249</ele>
        <time>2024-05-08T12:58:37Z</time>
      </trkpt>
      <trkpt lat="49.86239" lon="4.74224">
        <ele>249</ele>
        <time>2024-05-08T12:58:38Z</time>
      </trkpt>
      <trkpt lat="49.8624" lon="4.74223">
        <ele>249</ele>
        <time>2024-05-08T12:58:39Z</time>
      </trkpt>
      <trkpt lat="49.8624" lon="4.74223">
        <ele>249</ele>
        <time>2024-05-08T12:58:40Z</time>
      </trkpt>
      <trkpt lat="49.86241" lon="4.74223">
        <ele>249</ele>
        <time>2024-05-08T12:58:41Z</time>
      </trkpt>
      <trkpt lat="49.86242" lon="4.74223">
        <ele>249</ele>
        <time>2024-05-08T12:58:42Z</time>
      </trkpt>
      <trkpt lat="49.86243" lon="4.74223">
        <ele>249</ele>
        <time>2024-05-08T12:58:43Z</time>
      </trkpt>
      <trkpt lat="49.86243" lon="4.74222">
        <ele>249</ele>
        <time>2024-05-08T12:58:44Z</time>
      </trkpt>
      <trkpt lat="49.86244" lon="4.74222">
        <ele>249</ele>
        <time>2024-05-08T12:58:45Z</time>
      </trkpt>
      <trkpt lat="49.86245" lon="4.74222">
        <ele>249</ele>
        <time>2024-05-08T12:58:46Z</time>
      </trkpt>
      <trkpt lat="49.86246" lon="4.74222">
        <ele>249</ele>
        <time>2024-05-08T12:58:47Z</time>
      </trkpt>
      <trkpt lat="49.86247" lon="4.74222">
        <ele>249</ele>
        <time>2024-05-08T12:58:48Z</time>
      </trkpt>
      <trkpt lat="49.86248" lon="4.74222">
        <ele>249</ele>
        <time>2024-05-08T12:58:49Z</time>
      </trkpt>
      <trkpt lat="49.86249" lon="4.74222">
        <ele>249</ele>
        <time>2024-05-08T12:58:50Z</time>
      </trkpt>
      <trkpt lat="49.86249" lon="4.74222">
        <ele>249</ele>
        <time>2024-05-08T12:58:51Z</time>
      </trkpt>
      <trkpt lat="49.8625" lon="4.74221">
        <ele>249</ele>
        <time>2024-05-08T12:58:52Z</time>
      </trkpt>
      <trkpt lat="49.86251" lon="4.74221">
        <ele>249</ele>
        <time>2024-05-08T12:58:53Z</time>
      </trkpt>
      <trkpt lat="49.86252" lon="4.7422">
        <ele>249</ele>
        <time>2024-05-08T12:58:54Z</time>
      </trkpt>
      <trkpt lat="49.86253" lon="4.74219">
        <ele>249</ele>
        <time>2024-05-08T12:58:55Z</time>
      </trkpt>
      <trkpt lat="49.86254" lon="4.74219">
        <ele>249</ele>
        <time>2024-05-08T12:58:56Z</time>
      </trkpt>
      <trkpt lat="49.86255" lon="4.74218">
        <ele>249</ele>
        <time>2024-05-08T12:58:57Z</time>
      </trkpt>
      <trkpt lat="49.86255" lon="4.74217">
        <ele>249</ele>
        <time>2024-05-08T12:58:58Z</time>
      </trkpt>
      <trkpt lat="49.86256" lon="4.74217">
        <ele>249</ele>
        <time>2024-05-08T12:58:59Z</time>
      </trkpt>
      <trkpt lat="49.86257" lon="4.74218">
        <ele>247</ele>
        <time>2024-05-08T13:00:13Z</time>
      </trkpt>
      <trkpt lat="49.86258" lon="4.74219">
        <ele>247</ele>
        <time>2024-05-08T13:00:14Z</time>
      </trkpt>
      <trkpt lat="49.86258" lon="4.7422">
        <ele>247</ele>
        <time>2024-05-08T13:00:15Z</time>
      </trkpt>
      <trkpt lat="49.86259" lon="4.74221">
        <ele>247</ele>
        <time>2024-05-08T13:00:16Z</time>
      </trkpt>
      <trkpt lat="49.86259" lon="4.74222">
        <ele>246</ele>
        <time>2024-05-08T13:00:17Z</time>
      </trkpt>
      <trkpt lat="49.8626" lon="4.74222">
        <ele>246</ele>
        <time>2024-05-08T13:00:18Z</time>
      </trkpt>
      <trkpt lat="49.8626" lon="4.74223">
        <ele>246</ele>
        <time>2024-05-08T13:00:19Z</time>
      </trkpt>
      <trkpt lat="49.86261" lon="4.74224">
        <ele>245</ele>
        <time>2024-05-08T13:00:26Z</time>
      </trkpt>
      <trkpt lat="49.86262" lon="4.74225">
        <ele>245</ele>
        <time>2024-05-08T13:00:27Z</time>
      </trkpt>
      <trkpt lat="49.86262" lon="4.74225">
        <ele>245</ele>
        <time>2024-05-08T13:00:28Z</time>
      </trkpt>
      <trkpt lat="49.86263" lon="4.74226">
        <ele>245</ele>
        <time>2024-05-08T13:00:29Z</time>
      </trkpt>
      <trkpt lat="49.86263" lon="4.74227">
        <ele>245</ele>
        <time>2024-05-08T13:00:30Z</time>
      </trkpt>
      <trkpt lat="49.86263" lon="4.74228">
        <ele>245</ele>
        <time>2024-05-08T13:00:31Z</time>
      </trkpt>
      <trkpt lat="49.86264" lon="4.74229">
        <ele>244</ele>
        <time>2024-05-08T13:00:32Z</time>
      </trkpt>
      <trkpt lat="49.86264" lon="4.74231">
        <ele>244</ele>
        <time>2024-05-08T13:00:48Z</time>
      </trkpt>
      <trkpt lat="49.86264" lon="4.74232">
        <ele>244</ele>
        <time>2024-05-08T13:00:49Z</time>
      </trkpt>
      <trkpt lat="49.86264" lon="4.74233">
        <ele>244</ele>
        <time>2024-05-08T13:00:50Z</time>
      </trkpt>
      <trkpt lat="49.86264" lon="4.74234">
        <ele>245</ele>
        <time>2024-05-08T13:00:51Z</time>
      </trkpt>
      <trkpt lat="49.86265" lon="4.74235">
        <ele>245</ele>
        <time>2024-05-08T13:00:52Z</time>
      </trkpt>
      <trkpt lat="49.86265" lon="4.74236">
        <ele>245</ele>
        <time>2024-05-08T13:00:53Z</time>
      </trkpt>
      <trkpt lat="49.86265" lon="4.74238">
        <ele>245</ele>
        <time>2024-05-08T13:00:54Z</time>
      </trkpt>
      <trkpt lat="49.86265" lon="4.74239">
        <ele>245</ele>
        <time>2024-05-08T13:00:55Z</time>
      </trkpt>
      <trkpt lat="49.86265" lon="4.7424">
        <ele>245</ele>
        <time>2024-05-08T13:00:56Z</time>
      </trkpt>
      <trkpt lat="49.86265" lon="4.74241">
        <ele>245</ele>
        <time>2024-05-08T13:00:57Z</time>
      </trkpt>
      <trkpt lat="49.86265" lon="4.74242">
        <ele>245</ele>
        <time>2024-05-08T13:00:58Z</time>
      </trkpt>
      <trkpt lat="49.86265" lon="4.74243">
        <ele>245</ele>
        <time>2024-05-08T13:00:59Z</time>
      </trkpt>
      <trkpt lat="49.86265" lon="4.74244">
        <ele>245</ele>
        <time>2024-05-08T13:01:00Z</time>
      </trkpt>
      <trkpt lat="49.86265" lon="4.74244">
        <ele>246</ele>
        <time>2024-05-08T13:01:01Z</time>
      </trkpt>
      <trkpt lat="49.86265" lon="4.74245">
        <ele>246</ele>
        <time>2024-05-08T13:01:02Z</time>
      </trkpt>
      <trkpt lat="49.86265" lon="4.74246">
        <ele>246</ele>
        <time>2024-05-08T13:01:03Z</time>
      </trkpt>
      <trkpt lat="49.86266" lon="4.74246">
        <ele>246</ele>
        <time>2024-05-08T13:01:04Z</time>
      </trkpt>
      <trkpt lat="49.86266" lon="4.74247">
        <ele>246</ele>
        <time>2024-05-08T13:01:05Z</time>
      </trkpt>
      <trkpt lat="49.86267" lon="4.74248">
        <ele>247</ele>
        <time>2024-05-08T13:01:06Z</time>
      </trkpt>
      <trkpt lat="49.86267" lon="4.74249">
        <ele>247</ele>
        <time>2024-05-08T13:01:07Z</time>
      </trkpt>
      <trkpt lat="49.86268" lon="4.7425">
        <ele>247</ele>
        <time>2024-05-08T13:01:08Z</time>
      </trkpt>
      <trkpt lat="49.86269" lon="4.7425">
        <ele>247</ele>
        <time>2024-05-08T13:01:09Z</time>
      </trkpt>
      <trkpt lat="49.86269" lon="4.74251">
        <ele>247</ele>
        <time>2024-05-08T13:01:10Z</time>
      </trkpt>
      <trkpt lat="49.8627" lon="4.74252">
        <ele>248</ele>
        <time>2024-05-08T13:01:11Z</time>
      </trkpt>
      <trkpt lat="49.8627" lon="4.74253">
        <ele>248</ele>
        <time>2024-05-08T13:01:12Z</time>
      </trkpt>
      <trkpt lat="49.8627" lon="4.74254">
        <ele>248</ele>
        <time>2024-05-08T13:01:13Z</time>
      </trkpt>
      <trkpt lat="49.86271" lon="4.74255">
        <ele>248</ele>
        <time>2024-05-08T13:01:14Z</time>
      </trkpt>
      <trkpt lat="49.86271" lon="4.74255">
        <ele>248</ele>
        <time>2024-05-08T13:01:15Z</time>
      </trkpt>
      <trkpt lat="49.86271" lon="4.74256">
        <ele>249</ele>
        <time>2024-05-08T13:01:16Z</time>
      </trkpt>
      <trkpt lat="49.86271" lon="4.74257">
        <ele>249</ele>
        <time>2024-05-08T13:01:17Z</time>
      </trkpt>
      <trkpt lat="49.86272" lon="4.74257">
        <ele>249</ele>
        <time>2024-05-08T13:01:18Z</time>
      </trkpt>
      <trkpt lat="49.86272" lon="4.74258">
        <ele>249</ele>
        <time>2024-05-08T13:01:19Z</time>
      </trkpt>
      <trkpt lat="49.86273" lon="4.74258">
        <ele>249</ele>
        <time>2024-05-08T13:01:20Z</time>
      </trkpt>
      <trkpt lat="49.86274" lon="4.74258">
        <ele>250</ele>
        <time>2024-05-08T13:01:21Z</time>
      </trkpt>
      <trkpt lat="49.86274" lon="4.74258">
        <ele>249</ele>
        <time>2024-05-08T13:01:22Z</time>
      </trkpt>
      <trkpt lat="49.86275" lon="4.74258">
        <ele>249</ele>
        <time>2024-05-08T13:01:23Z</time>
      </trkpt>
      <trkpt lat="49.86276" lon="4.74258">
        <ele>249</ele>
        <time>2024-05-08T13:01:24Z</time>
      </trkpt>
      <trkpt lat="49.86276" lon="4.74258">
        <ele>249</ele>
        <time>2024-05-08T13:01:25Z</time>
      </trkpt>
      <trkpt lat="49.86277" lon="4.74258">
        <ele>249</ele>
        <time>2024-05-08T13:01:26Z</time>
      </trkpt>
      <trkpt lat="49.86277" lon="4.74258">
        <ele>248</ele>
        <time>2024-05-08T13:01:27Z</time>
      </trkpt>
      <trkpt lat="49.86278" lon="4.74257">
        <ele>248</ele>
        <time>2024-05-08T13:01:28Z</time>
      </trkpt>
      <trkpt lat="49.86279" lon="4.74257">
        <ele>248</ele>
        <time>2024-05-08T13:01:29Z</time>
      </trkpt>
      <trkpt lat="49.86279" lon="4.74257">
        <ele>248</ele>
        <time>2024-05-08T13:01:30Z</time>
      </trkpt>
      <trkpt lat="49.8628" lon="4.74258">
        <ele>248</ele>
        <time>2024-05-08T13:01:31Z</time>
      </trkpt>
      <trkpt lat="49.86281" lon="4.74258">
        <ele>248</ele>
        <time>2024-05-08T13:01:32Z</time>
      </trkpt>
      <trkpt lat="49.86282" lon="4.74259">
        <ele>248</ele>
        <time>2024-05-08T13:01:33Z</time>
      </trkpt>
      <trkpt lat="49.86283" lon="4.74259">
        <ele>248</ele>
        <time>2024-05-08T13:01:34Z</time>
      </trkpt>
      <trkpt lat="49.86283" lon="4.7426">
        <ele>248</ele>
        <time>2024-05-08T13:01:35Z</time>
      </trkpt>
      <trkpt lat="49.86284" lon="4.7426">
        <ele>248</ele>
        <time>2024-05-08T13:01:36Z</time>
      </trkpt>
      <trkpt lat="49.86285" lon="4.74261">
        <ele>248</ele>
        <time>2024-05-08T13:01:37Z</time>
      </trkpt>
      <trkpt lat="49.86286" lon="4.74262">
        <ele>248</ele>
        <time>2024-05-08T13:01:38Z</time>
      </trkpt>
      <trkpt lat="49.86286" lon="4.74263">
        <ele>248</ele>
        <time>2024-05-08T13:01:39Z</time>
      </trkpt>
      <trkpt lat="49.86287" lon="4.74264">
        <ele>248</ele>
        <time>2024-05-08T13:01:40Z</time>
      </trkpt>
      <trkpt lat="49.86287" lon="4.74265">
        <ele>249</ele>
        <time>2024-05-08T13:01:41Z</time>
      </trkpt>
      <trkpt lat="49.86288" lon="4.74266">
        <ele>249</ele>
        <time>2024-05-08T13:01:42Z</time>
      </trkpt>
      <trkpt lat="49.86288" lon="4.74266">
        <ele>249</ele>
        <time>2024-05-08T13:01:43Z</time>
      </trkpt>
      <trkpt lat="49.86288" lon="4.74267">
        <ele>249</ele>
        <time>2024-05-08T13:01:44Z</time>
      </trkpt>
      <trkpt lat="49.86288" lon="4.74267">
        <ele>249</ele>
        <time>2024-05-08T13:01:45Z</time>
      </trkpt>
      <trkpt lat="49.86289" lon="4.74268">
        <ele>249</ele>
        <time>2024-05-08T13:01:46Z</time>
      </trkpt>
      <trkpt lat="49.86289" lon="4.74269">
        <ele>249</ele>
        <time>2024-05-08T13:01:47Z</time>
      </trkpt>
      <trkpt lat="49.8629" lon="4.7427">
        <ele>249</ele>
        <time>2024-05-08T13:01:48Z</time>
      </trkpt>
      <trkpt lat="49.8629" lon="4.7427">
        <ele>249</ele>
        <time>2024-05-08T13:01:49Z</time>
      </trkpt>
      <trkpt lat="49.86291" lon="4.74271">
        <ele>249</ele>
        <time>2024-05-08T13:01:50Z</time>
      </trkpt>
      <trkpt lat="49.86291" lon="4.74271">
        <ele>249</ele>
        <time>2024-05-08T13:01:51Z</time>
      </trkpt>
      <trkpt lat="49.86292" lon="4.74272">
        <ele>249</ele>
        <time>2024-05-08T13:01:52Z</time>
      </trkpt>
      <trkpt lat="49.86293" lon="4.74272">
        <ele>249</ele>
        <time>2024-05-08T13:01:53Z</time>
      </trkpt>
      <trkpt lat="49.86294" lon="4.74273">
        <ele>249</ele>
        <time>2024-05-08T13:01:54Z</time>
      </trkpt>
      <trkpt lat="49.86294" lon="4.74274">
        <ele>248</ele>
        <time>2024-05-08T13:02:04Z</time>
      </trkpt>
      <trkpt lat="49.86295" lon="4.74275">
        <ele>248</ele>
        <time>2024-05-08T13:02:05Z</time>
      </trkpt>
      <trkpt lat="49.86295" lon="4.74276">
        <ele>248</ele>
        <time>2024-05-08T13:02:06Z</time>
      </trkpt>
      <trkpt lat="49.86296" lon="4.74277">
        <ele>247</ele>
        <time>2024-05-08T13:02:07Z</time>
      </trkpt>
      <trkpt lat="49.86296" lon="4.74278">
        <ele>247</ele>
        <time>2024-05-08T13:02:08Z</time>
      </trkpt>
      <trkpt lat="49.86297" lon="4.74281">
        <ele>247</ele>
        <time>2024-05-08T13:02:25Z</time>
      </trkpt>
      <trkpt lat="49.86298" lon="4.74282">
        <ele>247</ele>
        <time>2024-05-08T13:02:26Z</time>
      </trkpt>
      <trkpt lat="49.86299" lon="4.74283">
        <ele>246</ele>
        <time>2024-05-08T13:02:27Z</time>
      </trkpt>
      <trkpt lat="49.86299" lon="4.74284">
        <ele>246</ele>
        <time>2024-05-08T13:02:28Z</time>
      </trkpt>
      <trkpt lat="49.86299" lon="4.74285">
        <ele>246</ele>
        <time>2024-05-08T13:02:29Z</time>
      </trkpt>
      <trkpt lat="49.863" lon="4.74287">
        <ele>246</ele>
        <time>2024-05-08T13:02:30Z</time>
      </trkpt>
      <trkpt lat="49.863" lon="4.74288">
        <ele>246</ele>
        <time>2024-05-08T13:02:31Z</time>
      </trkpt>
      <trkpt lat="49.863" lon="4.74289">
        <ele>246</ele>
        <time>2024-05-08T13:02:32Z</time>
      </trkpt>
      <trkpt lat="49.863" lon="4.74291">
        <ele>246</ele>
        <time>2024-05-08T13:02:33Z</time>
      </trkpt>
      <trkpt lat="49.863" lon="4.74292">
        <ele>246</ele>
        <time>2024-05-08T13:02:34Z</time>
      </trkpt>
      <trkpt lat="49.863" lon="4.74293">
        <ele>246</ele>
        <time>2024-05-08T13:02:35Z</time>
      </trkpt>
      <trkpt lat="49.863" lon="4.74294">
        <ele>246</ele>
        <time>2024-05-08T13:02:36Z</time>
      </trkpt>
      <trkpt lat="49.86301" lon="4.74295">
        <ele>246</ele>
        <time>2024-05-08T13:02:37Z</time>
      </trkpt>
      <trkpt lat="49.86301" lon="4.74296">
        <ele>246</ele>
        <time>2024-05-08T13:02:38Z</time>
      </trkpt>
      <trkpt lat="49.86301" lon="4.74296">
        <ele>246</ele>
        <time>2024-05-08T13:02:39Z</time>
      </trkpt>
      <trkpt lat="49.86301" lon="4.74296">
        <ele>246</ele>
        <time>2024-05-08T13:02:40Z</time>
      </trkpt>
      <trkpt lat="49.86301" lon="4.74296">
        <ele>246</ele>
        <time>2024-05-08T13:02:41Z</time>
      </trkpt>
      <trkpt lat="49.86301" lon="4.74297">
        <ele>246</ele>
        <time>2024-05-08T13:02:42Z</time>
      </trkpt>
      <trkpt lat="49.86302" lon="4.74298">
        <ele>246</ele>
        <time>2024-05-08T13:02:43Z</time>
      </trkpt>
      <trkpt lat="49.86302" lon="4.74299">
        <ele>246</ele>
        <time>2024-05-08T13:02:44Z</time>
      </trkpt>
      <trkpt lat="49.86303" lon="4.74299">
        <ele>246</ele>
        <time>2024-05-08T13:02:45Z</time>
      </trkpt>
      <trkpt lat="49.86303" lon="4.74301">
        <ele>245</ele>
        <time>2024-05-08T13:03:03Z</time>
      </trkpt>
      <trkpt lat="49.86304" lon="4.74301">
        <ele>245</ele>
        <time>2024-05-08T13:03:04Z</time>
      </trkpt>
      <trkpt lat="49.86304" lon="4.74302">
        <ele>245</ele>
        <time>2024-05-08T13:03:05Z</time>
      </trkpt>
      <trkpt lat="49.86305" lon="4.74302">
        <ele>245</ele>
        <time>2024-05-08T13:03:06Z</time>
      </trkpt>
      <trkpt lat="49.86305" lon="4.74303">
        <ele>245</ele>
        <time>2024-05-08T13:03:07Z</time>
      </trkpt>
      <trkpt lat="49.86306" lon="4.74303">
        <ele>245</ele>
        <time>2024-05-08T13:03:08Z</time>
      </trkpt>
      <trkpt lat="49.86307" lon="4.74303">
        <ele>245</ele>
        <time>2024-05-08T13:03:09Z</time>
      </trkpt>
      <trkpt lat="49.86308" lon="4.74303">
        <ele>245</ele>
        <time>2024-05-08T13:03:10Z</time>
      </trkpt>
      <trkpt lat="49.86309" lon="4.74304">
        <ele>245</ele>
        <time>2024-05-08T13:03:11Z</time>
      </trkpt>
      <trkpt lat="49.86309" lon="4.74304">
        <ele>245</ele>
        <time>2024-05-08T13:03:12Z</time>
      </trkpt>
      <trkpt lat="49.8631" lon="4.74305">
        <ele>245</ele>
        <time>2024-05-08T13:03:13Z</time>
      </trkpt>
      <trkpt lat="49.8631" lon="4.74306">
        <ele>245</ele>
        <time>2024-05-08T13:03:14Z</time>
      </trkpt>
      <trkpt lat="49.8631" lon="4.74308">
        <ele>245</ele>
        <time>2024-05-08T13:03:15Z</time>
      </trkpt>
      <trkpt lat="49.8631" lon="4.74308">
        <ele>245</ele>
        <time>2024-05-08T13:03:16Z</time>
      </trkpt>
      <trkpt lat="49.86311" lon="4.74309">
        <ele>245</ele>
        <time>2024-05-08T13:03:17Z</time>
      </trkpt>
      <trkpt lat="49.86311" lon="4.7431">
        <ele>245</ele>
        <time>2024-05-08T13:03:18Z</time>
      </trkpt>
      <trkpt lat="49.86311" lon="4.74311">
        <ele>245</ele>
        <time>2024-05-08T13:03:19Z</time>
      </trkpt>
      <trkpt lat="49.86311" lon="4.74312">
        <ele>245</ele>
        <time>2024-05-08T13:03:20Z</time>
      </trkpt>
      <trkpt lat="49.86311" lon="4.74312">
        <ele>246</ele>
        <time>2024-05-08T13:03:21Z</time>
      </trkpt>
      <trkpt lat="49.86311" lon="4.74313">
        <ele>246</ele>
        <time>2024-05-08T13:03:22Z</time>
      </trkpt>
      <trkpt lat="49.86312" lon="4.74314">
        <ele>246</ele>
        <time>2024-05-08T13:03:23Z</time>
      </trkpt>
      <trkpt lat="49.86312" lon="4.74314">
        <ele>246</ele>
        <time>2024-05-08T13:03:24Z</time>
      </trkpt>
      <trkpt lat="49.86313" lon="4.74315">
        <ele>246</ele>
        <time>2024-05-08T13:03:25Z</time>
      </trkpt>
      <trkpt lat="49.86314" lon="4.74315">
        <ele>246</ele>
        <time>2024-05-08T13:03:26Z</time>
      </trkpt>
      <trkpt lat="49.86314" lon="4.74316">
        <ele>246</ele>
        <time>2024-05-08T13:03:27Z</time>
      </trkpt>
      <trkpt lat="49.86314" lon="4.74316">
        <ele>246</ele>
        <time>2024-05-08T13:03:28Z</time>
      </trkpt>
      <trkpt lat="49.86314" lon="4.74317">
        <ele>246</ele>
        <time>2024-05-08T13:03:29Z</time>
      </trkpt>
      <trkpt lat="49.86315" lon="4.74318">
        <ele>246</ele>
        <time>2024-05-08T13:03:30Z</time>
      </trkpt>
      <trkpt lat="49.86315" lon="4.74319">
        <ele>247</ele>
        <time>2024-05-08T13:03:31Z</time>
      </trkpt>
      <trkpt lat="49.86315" lon="4.74319">
        <ele>247</ele>
        <time>2024-05-08T13:03:32Z</time>
      </trkpt>
      <trkpt lat="49.86316" lon="4.7432">
        <ele>247</ele>
        <time>2024-05-08T13:03:33Z</time>
      </trkpt>
      <trkpt lat="49.86316" lon="4.7432">
        <ele>247</ele>
        <time>2024-05-08T13:03:34Z</time>
      </trkpt>
      <trkpt lat="49.86317" lon="4.7432">
        <ele>247</ele>
        <time>2024-05-08T13:03:35Z</time>
      </trkpt>
      <trkpt lat="49.86318" lon="4.7432">
        <ele>247</ele>
        <time>2024-05-08T13:03:36Z</time>
      </trkpt>
      <trkpt lat="49.86318" lon="4.7432">
        <ele>247</ele>
        <time>2024-05-08T13:03:37Z</time>
      </trkpt>
      <trkpt lat="49.86319" lon="4.7432">
        <ele>247</ele>
        <time>2024-05-08T13:03:38Z</time>
      </trkpt>
      <trkpt lat="49.8632" lon="4.7432">
        <ele>247</ele>
        <time>2024-05-08T13:03:39Z</time>
      </trkpt>
      <trkpt lat="49.8632" lon="4.7432">
        <ele>247</ele>
        <time>2024-05-08T13:03:40Z</time>
      </trkpt>
      <trkpt lat="49.86321" lon="4.74321">
        <ele>247</ele>
        <time>2024-05-08T13:03:41Z</time>
      </trkpt>
      <trkpt lat="49.86322" lon="4.74321">
        <ele>247</ele>
        <time>2024-05-08T13:03:42Z</time>
      </trkpt>
      <trkpt lat="49.86322" lon="4.74322">
        <ele>247</ele>
        <time>2024-05-08T13:03:43Z</time>
      </trkpt>
      <trkpt lat="49.86323" lon="4.74322">
        <ele>247</ele>
        <time>2024-05-08T13:03:44Z</time>
      </trkpt>
      <trkpt lat="49.86323" lon="4.74323">
        <ele>247</ele>
        <time>2024-05-08T13:03:45Z</time>
      </trkpt>
      <trkpt lat="49.86323" lon="4.74323">
        <ele>247</ele>
        <time>2024-05-08T13:03:46Z</time>
      </trkpt>
      <trkpt lat="49.86324" lon="4.74324">
        <ele>247</ele>
        <time>2024-05-08T13:03:47Z</time>
      </trkpt>
      <trkpt lat="49.86324" lon="4.74325">
        <ele>247</ele>
        <time>2024-05-08T13:03:48Z</time>
      </trkpt>
      <trkpt lat="49.86324" lon="4.74325">
        <ele>248</ele>
        <time>2024-05-08T13:03:49Z</time>
      </trkpt>
      <trkpt lat="49.86325" lon="4.74326">
        <ele>248</ele>
        <time>2024-05-08T13:03:50Z</time>
      </trkpt>
      <trkpt lat="49.86325" lon="4.74327">
        <ele>249</ele>
        <time>2024-05-08T13:03:51Z</time>
      </trkpt>
      <trkpt lat="49.86326" lon="4.74327">
        <ele>249</ele>
        <time>2024-05-08T13:03:52Z</time>
      </trkpt>
      <trkpt lat="49.86327" lon="4.74327">
        <ele>249</ele>
        <time>2024-05-08T13:03:53Z</time>
      </trkpt>
      <trkpt lat="49.86328" lon="4.74327">
        <ele>249</ele>
        <time>2024-05-08T13:03:54Z</time>
      </trkpt>
      <trkpt lat="49.86328" lon="4.74327">
        <ele>249</ele>
        <time>2024-05-08T13:03:55Z</time>
      </trkpt>
      <trkpt lat="49.86329" lon="4.74327">
        <ele>250</ele>
        <time>2024-05-08T13:03:56Z</time>
      </trkpt>
      <trkpt lat="49.86329" lon="4.74327">
        <ele>250</ele>
        <time>2024-05-08T13:03:57Z</time>
      </trkpt>
      <trkpt lat="49.8633" lon="4.74327">
        <ele>250</ele>
        <time>2024-05-08T13:03:58Z</time>
      </trkpt>
      <trkpt lat="49.8633" lon="4.74327">
        <ele>250</ele>
        <time>2024-05-08T13:03:59Z</time>
      </trkpt>
      <trkpt lat="49.8633" lon="4.74327">
        <ele>250</ele>
        <time>2024-05-08T13:04:00Z</time>
      </trkpt>
      <trkpt lat="49.8633" lon="4.74327">
        <ele>250</ele>
        <time>2024-05-08T13:04:01Z</time>
      </trkpt>
      <trkpt lat="49.8633" lon="4.74327">
        <ele>250</ele>
        <time>2024-05-08T13:04:02Z</time>
      </trkpt>
      <trkpt lat="49.86331" lon="4.74327">
        <ele>250</ele>
        <time>2024-05-08T13:04:03Z</time>
      </trkpt>
      <trkpt lat="49.86332" lon="4.74327">
        <ele>250</ele>
        <time>2024-05-08T13:04:04Z</time>
      </trkpt>
      <trkpt lat="49.86334" lon="4.74328">
        <ele>253</ele>
        <time>2024-05-08T13:04:22Z</time>
      </trkpt>
      <trkpt lat="49.86335" lon="4.74328">
        <ele>253</ele>
        <time>2024-05-08T13:04:23Z</time>
      </trkpt>
      <trkpt lat="49.86336" lon="4.74328">
        <ele>253</ele>
        <time>2024-05-08T13:04:24Z</time>
      </trkpt>
      <trkpt lat="49.86336" lon="4.74327">
        <ele>253</ele>
        <time>2024-05-08T13:04:25Z</time>
      </trkpt>
      <trkpt lat="49.86337" lon="4.74327">
        <ele>254</ele>
        <time>2024-05-08T13:04:26Z</time>
      </trkpt>
      <trkpt lat="49.86339" lon="4.74327">
        <ele>255</ele>
        <time>2024-05-08T13:04:38Z</time>
      </trkpt>
      <trkpt lat="49.8634" lon="4.74327">
        <ele>255</ele>
        <time>2024-05-08T13:04:39Z</time>
      </trkpt>
      <trkpt lat="49.86341" lon="4.74326">
        <ele>255</ele>
        <time>2024-05-08T13:04:40Z</time>
      </trkpt>
      <trkpt lat="49.86342" lon="4.74326">
        <ele>256</ele>
        <time>2024-05-08T13:04:41Z</time>
      </trkpt>
      <trkpt lat="49.86343" lon="4.74327">
        <ele>256</ele>
        <time>2024-05-08T13:04:42Z</time>
      </trkpt>
      <trkpt lat="49.86344" lon="4.74327">
        <ele>256</ele>
        <time>2024-05-08T13:04:43Z</time>
      </trkpt>
      <trkpt lat="49.86344" lon="4.74327">
        <ele>256</ele>
        <time>2024-05-08T13:04:44Z</time>
      </trkpt>
      <trkpt lat="49.86346" lon="4.74328">
        <ele>259</ele>
        <time>2024-05-08T13:04:58Z</time>
      </trkpt>
      <trkpt lat="49.86347" lon="4.74329">
        <ele>259</ele>
        <time>2024-05-08T13:04:59Z</time>
      </trkpt>
      <trkpt lat="49.86348" lon="4.74329">
        <ele>259</ele>
        <time>2024-05-08T13:05:00Z</time>
      </trkpt>
      <trkpt lat="49.86349" lon="4.74329">
        <ele>259</ele>
        <time>2024-05-08T13:05:01Z</time>
      </trkpt>
      <trkpt lat="49.8635" lon="4.74329">
        <ele>259</ele>
        <time>2024-05-08T13:05:02Z</time>
      </trkpt>
      <trkpt lat="49.8635" lon="4.74329">
        <ele>259</ele>
        <time>2024-05-08T13:05:03Z</time>
      </trkpt>
      <trkpt lat="49.86351" lon="4.74329">
        <ele>259</ele>
        <time>2024-05-08T13:05:04Z</time>
      </trkpt>
      <trkpt lat="49.86352" lon="4.7433">
        <ele>259</ele>
        <time>2024-05-08T13:05:05Z</time>
      </trkpt>
      <trkpt lat="49.86352" lon="4.7433">
        <ele>260</ele>
        <time>2024-05-08T13:05:06Z</time>
      </trkpt>
      <trkpt lat="49.86352" lon="4.74331">
        <ele>260</ele>
        <time>2024-05-08T13:05:07Z</time>
      </trkpt>
      <trkpt lat="49.86352" lon="4.74331">
        <ele>260</ele>
        <time>2024-05-08T13:05:08Z</time>
      </trkpt>
      <trkpt lat="49.86353" lon="4.74332">
        <ele>260</ele>
        <time>2024-05-08T13:05:09Z</time>
      </trkpt>
      <trkpt lat="49.86353" lon="4.74333">
        <ele>260</ele>
        <time>2024-05-08T13:05:10Z</time>
      </trkpt>
      <trkpt lat="49.86353" lon="4.74333">
        <ele>261</ele>
        <time>2024-05-08T13:05:11Z</time>
      </trkpt>
      <trkpt lat="49.86354" lon="4.74334">
        <ele>261</ele>
        <time>2024-05-08T13:05:12Z</time>
      </trkpt>
      <trkpt lat="49.86357" lon="4.74336">
        <ele>260</ele>
        <time>2024-05-08T13:10:12Z</time>
      </trkpt>
      <trkpt lat="49.86358" lon="4.74338">
        <ele>260</ele>
        <time>2024-05-08T13:10:13Z</time>
      </trkpt>
      <trkpt lat="49.8636" lon="4.7434">
        <ele>260</ele>
        <time>2024-05-08T13:10:14Z</time>
      </trkpt>
      <trkpt lat="49.86361" lon="4.74341">
        <ele>260</ele>
        <time>2024-05-08T13:10:15Z</time>
      </trkpt>
      <trkpt lat="49.86362" lon="4.74342">
        <ele>260</ele>
        <time>2024-05-08T13:10:16Z</time>
      </trkpt>
      <trkpt lat="49.86363" lon="4.74343">
        <ele>259</ele>
        <time>2024-05-08T13:10:17Z</time>
      </trkpt>
      <trkpt lat="49.86363" lon="4.74343">
        <ele>259</ele>
        <time>2024-05-08T13:10:18Z</time>
      </trkpt>
      <trkpt lat="49.86364" lon="4.74344">
        <ele>259</ele>
        <time>2024-05-08T13:10:19Z</time>
      </trkpt>
      <trkpt lat="49.86364" lon="4.74345">
        <ele>259</ele>
        <time>2024-05-08T13:10:20Z</time>
      </trkpt>
      <trkpt lat="49.86365" lon="4.74346">
        <ele>259</ele>
        <time>2024-05-08T13:10:21Z</time>
      </trkpt>
      <trkpt lat="49.86365" lon="4.74347">
        <ele>259</ele>
        <time>2024-05-08T13:10:22Z</time>
      </trkpt>
      <trkpt lat="49.86365" lon="4.74347">
        <ele>259</ele>
        <time>2024-05-08T13:10:23Z</time>
      </trkpt>
      <trkpt lat="49.86366" lon="4.74348">
        <ele>259</ele>
        <time>2024-05-08T13:10:24Z</time>
      </trkpt>
      <trkpt lat="49.86366" lon="4.74349">
        <ele>259</ele>
        <time>2024-05-08T13:10:25Z</time>
      </trkpt>
      <trkpt lat="49.86367" lon="4.7435">
        <ele>259</ele>
        <time>2024-05-08T13:10:26Z</time>
      </trkpt>
      <trkpt lat="49.86367" lon="4.74351">
        <ele>259</ele>
        <time>2024-05-08T13:10:27Z</time>
      </trkpt>
      <trkpt lat="49.86368" lon="4.74352">
        <ele>259</ele>
        <time>2024-05-08T13:10:28Z</time>
      </trkpt>
      <trkpt lat="49.86368" lon="4.74353">
        <ele>259</ele>
        <time>2024-05-08T13:10:29Z</time>
      </trkpt>
      <trkpt lat="49.86369" lon="4.74353">
        <ele>259</ele>
        <time>2024-05-08T13:10:30Z</time>
      </trkpt>
      <trkpt lat="49.8637" lon="4.74354">
        <ele>259</ele>
        <time>2024-05-08T13:10:31Z</time>
      </trkpt>
      <trkpt lat="49.86371" lon="4.74354">
        <ele>259</ele>
        <time>2024-05-08T13:10:32Z</time>
      </trkpt>
      <trkpt lat="49.86371" lon="4.74354">
        <ele>259</ele>
        <time>2024-05-08T13:10:33Z</time>
      </trkpt>
      <trkpt lat="49.86372" lon="4.74355">
        <ele>259</ele>
        <time>2024-05-08T13:10:34Z</time>
      </trkpt>
      <trkpt lat="49.86373" lon="4.74355">
        <ele>259</ele>
        <time>2024-05-08T13:10:35Z</time>
      </trkpt>
      <trkpt lat="49.86374" lon="4.74355">
        <ele>259</ele>
        <time>2024-05-08T13:10:36Z</time>
      </trkpt>
      <trkpt lat="49.86374" lon="4.74355">
        <ele>259</ele>
        <time>2024-05-08T13:10:37Z</time>
      </trkpt>
      <trkpt lat="49.86375" lon="4.74355">
        <ele>259</ele>
        <time>2024-05-08T13:10:38Z</time>
      </trkpt>
      <trkpt lat="49.86375" lon="4.74355">
        <ele>259</ele>
        <time>2024-05-08T13:10:39Z</time>
      </trkpt>
      <trkpt lat="49.86376" lon="4.74356">
        <ele>259</ele>
        <time>2024-05-08T13:10:40Z</time>
      </trkpt>
      <trkpt lat="49.86376" lon="4.74356">
        <ele>260</ele>
        <time>2024-05-08T13:10:41Z</time>
      </trkpt>
      <trkpt lat="49.86376" lon="4.74357">
        <ele>260</ele>
        <time>2024-05-08T13:10:42Z</time>
      </trkpt>
      <trkpt lat="49.86377" lon="4.74357">
        <ele>260</ele>
        <time>2024-05-08T13:10:43Z</time>
      </trkpt>
      <trkpt lat="49.86377" lon="4.74358">
        <ele>260</ele>
        <time>2024-05-08T13:10:44Z</time>
      </trkpt>
      <trkpt lat="49.86378" lon="4.74359">
        <ele>260</ele>
        <time>2024-05-08T13:10:45Z</time>
      </trkpt>
      <trkpt lat="49.86378" lon="4.7436">
        <ele>261</ele>
        <time>2024-05-08T13:10:46Z</time>
      </trkpt>
      <trkpt lat="49.86379" lon="4.7436">
        <ele>261</ele>
        <time>2024-05-08T13:10:47Z</time>
      </trkpt>
      <trkpt lat="49.86379" lon="4.74361">
        <ele>261</ele>
        <time>2024-05-08T13:10:48Z</time>
      </trkpt>
      <trkpt lat="49.8638" lon="4.74363">
        <ele>260</ele>
        <time>2024-05-08T13:11:02Z</time>
      </trkpt>
      <trkpt lat="49.8638" lon="4.74363">
        <ele>260</ele>
        <time>2024-05-08T13:11:03Z</time>
      </trkpt>
      <trkpt lat="49.86381" lon="4.74364">
        <ele>260</ele>
        <time>2024-05-08T13:11:04Z</time>
      </trkpt>
      <trkpt lat="49.86381" lon="4.74365">
        <ele>260</ele>
        <time>2024-05-08T13:11:05Z</time>
      </trkpt>
      <trkpt lat="49.86381" lon="4.74367">
        <ele>260</ele>
        <time>2024-05-08T13:11:06Z</time>
      </trkpt>
      <trkpt lat="49.86381" lon="4.74368">
        <ele>259</ele>
        <time>2024-05-08T13:11:07Z</time>
      </trkpt>
      <trkpt lat="49.86381" lon="4.74369">
        <ele>259</ele>
        <time>2024-05-08T13:11:08Z</time>
      </trkpt>
      <trkpt lat="49.86381" lon="4.74371">
        <ele>259</ele>
        <time>2024-05-08T13:11:09Z</time>
      </trkpt>
      <trkpt lat="49.86382" lon="4.74372">
        <ele>259</ele>
        <time>2024-05-08T13:11:10Z</time>
      </trkpt>
      <trkpt lat="49.86382" lon="4.74373">
        <ele>259</ele>
        <time>2024-05-08T13:11:11Z</time>
      </trkpt>
      <trkpt lat="49.86382" lon="4.74374">
        <ele>258</ele>
        <time>2024-05-08T13:11:12Z</time>
      </trkpt>
      <trkpt lat="49.86382" lon="4.74375">
        <ele>258</ele>
        <time>2024-05-08T13:11:13Z</time>
      </trkpt>
      <trkpt lat="49.86382" lon="4.74376">
        <ele>258</ele>
        <time>2024-05-08T13:11:14Z</time>
      </trkpt>
      <trkpt lat="49.86383" lon="4.74377">
        <ele>258</ele>
        <time>2024-05-08T13:11:15Z</time>
      </trkpt>
      <trkpt lat="49.86383" lon="4.74377">
        <ele>258</ele>
        <time>2024-05-08T13:11:16Z</time>
      </trkpt>
      <trkpt lat="49.86383" lon="4.74378">
        <ele>258</ele>
        <time>2024-05-08T13:11:17Z</time>
      </trkpt>
      <trkpt lat="49.86383" lon="4.74379">
        <ele>258</ele>
        <time>2024-05-08T13:11:18Z</time>
      </trkpt>
      <trkpt lat="49.86383" lon="4.7438">
        <ele>258</ele>
        <time>2024-05-08T13:11:19Z</time>
      </trkpt>
      <trkpt lat="49.86384" lon="4.74382">
        <ele>258</ele>
        <time>2024-05-08T13:11:20Z</time>
      </trkpt>
      <trkpt lat="49.86384" lon="4.74383">
        <ele>258</ele>
        <time>2024-05-08T13:11:21Z</time>
      </trkpt>
      <trkpt lat="49.86385" lon="4.74384">
        <ele>258</ele>
        <time>2024-05-08T13:11:22Z</time>
      </trkpt>
      <trkpt lat="49.86385" lon="4.74386">
        <ele>258</ele>
        <time>2024-05-08T13:11:23Z</time>
      </trkpt>
      <trkpt lat="49.86385" lon="4.74387">
        <ele>258</ele>
        <time>2024-05-08T13:11:24Z</time>
      </trkpt>
      <trkpt lat="49.86385" lon="4.74389">
        <ele>258</ele>
        <time>2024-05-08T13:11:33Z</time>
      </trkpt>
      <trkpt lat="49.86385" lon="4.74391">
        <ele>258</ele>
        <time>2024-05-08T13:11:34Z</time>
      </trkpt>
      <trkpt lat="49.86385" lon="4.74392">
        <ele>258</ele>
        <time>2024-05-08T13:11:35Z</time>
      </trkpt>
      <trkpt lat="49.86386" lon="4.74393">
        <ele>258</ele>
        <time>2024-05-08T13:11:36Z</time>
      </trkpt>
      <trkpt lat="49.86386" lon="4.74394">
        <ele>258</ele>
        <time>2024-05-08T13:11:37Z</time>
      </trkpt>
      <trkpt lat="49.86387" lon="4.74396">
        <ele>259</ele>
        <time>2024-05-08T13:12:47Z</time>
      </trkpt>
      <trkpt lat="49.86388" lon="4.74397">
        <ele>259</ele>
        <time>2024-05-08T13:12:48Z</time>
      </trkpt>
      <trkpt lat="49.86388" lon="4.74397">
        <ele>259</ele>
        <time>2024-05-08T13:12:49Z</time>
      </trkpt>
      <trkpt lat="49.86389" lon="4.74398">
        <ele>259</ele>
        <time>2024-05-08T13:12:50Z</time>
      </trkpt>
      <trkpt lat="49.8639" lon="4.74398">
        <ele>259</ele>
        <time>2024-05-08T13:12:51Z</time>
      </trkpt>
      <trkpt lat="49.8639" lon="4.74399">
        <ele>259</ele>
        <time>2024-05-08T13:12:52Z</time>
      </trkpt>
      <trkpt lat="49.86391" lon="4.74399">
        <ele>259</ele>
        <time>2024-05-08T13:12:53Z</time>
      </trkpt>
      <trkpt lat="49.86392" lon="4.74399">
        <ele>259</ele>
        <time>2024-05-08T13:12:54Z</time>
      </trkpt>
      <trkpt lat="49.86392" lon="4.744">
        <ele>259</ele>
        <time>2024-05-08T13:12:55Z</time>
      </trkpt>
      <trkpt lat="49.86393" lon="4.744">
        <ele>260</ele>
        <time>2024-05-08T13:12:56Z</time>
      </trkpt>
      <trkpt lat="49.86393" lon="4.74401">
        <ele>260</ele>
        <time>2024-05-08T13:12:57Z</time>
      </trkpt>
      <trkpt lat="49.86394" lon="4.74402">
        <ele>260</ele>
        <time>2024-05-08T13:12:58Z</time>
      </trkpt>
      <trkpt lat="49.86394" lon="4.74402">
        <ele>260</ele>
        <time>2024-05-08T13:12:59Z</time>
      </trkpt>
      <trkpt lat="49.86395" lon="4.74402">
        <ele>260</ele>
        <time>2024-05-08T13:13:00Z</time>
      </trkpt>
      <trkpt lat="49.86395" lon="4.74403">
        <ele>261</ele>
        <time>2024-05-08T13:13:01Z</time>
      </trkpt>
      <trkpt lat="49.86396" lon="4.74403">
        <ele>261</ele>
        <time>2024-05-08T13:13:02Z</time>
      </trkpt>
      <trkpt lat="49.86397" lon="4.74402">
        <ele>261</ele>
        <time>2024-05-08T13:13:03Z</time>
      </trkpt>
      <trkpt lat="49.86399" lon="4.74404">
        <ele>264</ele>
        <time>2024-05-08T13:13:18Z</time>
      </trkpt>
      <trkpt lat="49.864" lon="4.74404">
        <ele>264</ele>
        <time>2024-05-08T13:13:19Z</time>
      </trkpt>
      <trkpt lat="49.86402" lon="4.74405">
        <ele>264</ele>
        <time>2024-05-08T13:13:20Z</time>
      </trkpt>
      <trkpt lat="49.86403" lon="4.74405">
        <ele>265</ele>
        <time>2024-05-08T13:13:21Z</time>
      </trkpt>
      <trkpt lat="49.86403" lon="4.74406">
        <ele>265</ele>
        <time>2024-05-08T13:13:22Z</time>
      </trkpt>
      <trkpt lat="49.86404" lon="4.74406">
        <ele>265</ele>
        <time>2024-05-08T13:13:23Z</time>
      </trkpt>
      <trkpt lat="49.86405" lon="4.74406">
        <ele>266</ele>
        <time>2024-05-08T13:13:24Z</time>
      </trkpt>
      <trkpt lat="49.86405" lon="4.74406">
        <ele>266</ele>
        <time>2024-05-08T13:13:25Z</time>
      </trkpt>
      <trkpt lat="49.86406" lon="4.74407">
        <ele>267</ele>
        <time>2024-05-08T13:13:26Z</time>
      </trkpt>
      <trkpt lat="49.86407" lon="4.74407">
        <ele>267</ele>
        <time>2024-05-08T13:13:27Z</time>
      </trkpt>
      <trkpt lat="49.86407" lon="4.74407">
        <ele>267</ele>
        <time>2024-05-08T13:13:28Z</time>
      </trkpt>
      <trkpt lat="49.86408" lon="4.74408">
        <ele>267</ele>
        <time>2024-05-08T13:13:29Z</time>
      </trkpt>
      <trkpt lat="49.86408" lon="4.74409">
        <ele>267</ele>
        <time>2024-05-08T13:13:30Z</time>
      </trkpt>
      <trkpt lat="49.86409" lon="4.74409">
        <ele>268</ele>
        <time>2024-05-08T13:13:31Z</time>
      </trkpt>
      <trkpt lat="49.86409" lon="4.7441">
        <ele>268</ele>
        <time>2024-05-08T13:13:32Z</time>
      </trkpt>
      <trkpt lat="49.8641" lon="4.74411">
        <ele>268</ele>
        <time>2024-05-08T13:13:33Z</time>
      </trkpt>
      <trkpt lat="49.86411" lon="4.74411">
        <ele>268</ele>
        <time>2024-05-08T13:13:34Z</time>
      </trkpt>
      <trkpt lat="49.86411" lon="4.74412">
        <ele>268</ele>
        <time>2024-05-08T13:13:35Z</time>
      </trkpt>
      <trkpt lat="49.86412" lon="4.74413">
        <ele>269</ele>
        <time>2024-05-08T13:13:36Z</time>
      </trkpt>
      <trkpt lat="49.86413" lon="4.74413">
        <ele>269</ele>
        <time>2024-05-08T13:13:37Z</time>
      </trkpt>
      <trkpt lat="49.86413" lon="4.74413">
        <ele>269</ele>
        <time>2024-05-08T13:13:38Z</time>
      </trkpt>
      <trkpt lat="49.86415" lon="4.74414">
        <ele>268</ele>
        <time>2024-05-08T13:14:02Z</time>
      </trkpt>
      <trkpt lat="49.86416" lon="4.74414">
        <ele>268</ele>
        <time>2024-05-08T13:14:03Z</time>
      </trkpt>
      <trkpt lat="49.86417" lon="4.74415">
        <ele>268</ele>
        <time>2024-05-08T13:14:04Z</time>
      </trkpt>
      <trkpt lat="49.86418" lon="4.74415">
        <ele>268</ele>
        <time>2024-05-08T13:14:05Z</time>
      </trkpt>
      <trkpt lat="49.86419" lon="4.74415">
        <ele>268</ele>
        <time>2024-05-08T13:14:06Z</time>
      </trkpt>
      <trkpt lat="49.8642" lon="4.74416">
        <ele>268</ele>
        <time>2024-05-08T13:14:07Z</time>
      </trkpt>
      <trkpt lat="49.8642" lon="4.74416">
        <ele>268</ele>
        <time>2024-05-08T13:14:08Z</time>
      </trkpt>
      <trkpt lat="49.86421" lon="4.74415">
        <ele>268</ele>
        <time>2024-05-08T13:14:09Z</time>
      </trkpt>
      <trkpt lat="49.86422" lon="4.74415">
        <ele>268</ele>
        <time>2024-05-08T13:14:10Z</time>
      </trkpt>
      <trkpt lat="49.86423" lon="4.74415">
        <ele>268</ele>
        <time>2024-05-08T13:14:11Z</time>
      </trkpt>
      <trkpt lat="49.86423" lon="4.74414">
        <ele>268</ele>
        <time>2024-05-08T13:14:12Z</time>
      </trkpt>
      <trkpt lat="49.86424" lon="4.74414">
        <ele>268</ele>
        <time>2024-05-08T13:14:13Z</time>
      </trkpt>
      <trkpt lat="49.86425" lon="4.74414">
        <ele>268</ele>
        <time>2024-05-08T13:14:14Z</time>
      </trkpt>
      <trkpt lat="49.86426" lon="4.74414">
        <ele>268</ele>
        <time>2024-05-08T13:14:15Z</time>
      </trkpt>
      <trkpt lat="49.86426" lon="4.74414">
        <ele>268</ele>
        <time>2024-05-08T13:14:16Z</time>
      </trkpt>
      <trkpt lat="49.86427" lon="4.74414">
        <ele>268</ele>
        <time>2024-05-08T13:14:17Z</time>
      </trkpt>
      <trkpt lat="49.86427" lon="4.74415">
        <ele>268</ele>
        <time>2024-05-08T13:14:18Z</time>
      </trkpt>
      <trkpt lat="49.86428" lon="4.74415">
        <ele>268</ele>
        <time>2024-05-08T13:14:19Z</time>
      </trkpt>
      <trkpt lat="49.86428" lon="4.74416">
        <ele>268</ele>
        <time>2024-05-08T13:14:20Z</time>
      </trkpt>
      <trkpt lat="49.86429" lon="4.74416">
        <ele>268</ele>
        <time>2024-05-08T13:14:21Z</time>
      </trkpt>
      <trkpt lat="49.86429" lon="4.74417">
        <ele>267</ele>
        <time>2024-05-08T13:14:22Z</time>
      </trkpt>
      <trkpt lat="49.8643" lon="4.74417">
        <ele>267</ele>
        <time>2024-05-08T13:14:23Z</time>
      </trkpt>
      <trkpt lat="49.86431" lon="4.74418">
        <ele>266</ele>
        <time>2024-05-08T13:14:31Z</time>
      </trkpt>
      <trkpt lat="49.86432" lon="4.74419">
        <ele>265</ele>
        <time>2024-05-08T13:14:32Z</time>
      </trkpt>
      <trkpt lat="49.86432" lon="4.7442">
        <ele>265</ele>
        <time>2024-05-08T13:14:33Z</time>
      </trkpt>
      <trkpt lat="49.86433" lon="4.74422">
        <ele>264</ele>
        <time>2024-05-08T13:14:51Z</time>
      </trkpt>
      <trkpt lat="49.86434" lon="4.74423">
        <ele>264</ele>
        <time>2024-05-08T13:14:52Z</time>
      </trkpt>
      <trkpt lat="49.86434" lon="4.74423">
        <ele>264</ele>
        <time>2024-05-08T13:14:53Z</time>
      </trkpt>
      <trkpt lat="49.86435" lon="4.74424">
        <ele>264</ele>
        <time>2024-05-08T13:14:54Z</time>
      </trkpt>
      <trkpt lat="49.86435" lon="4.74424">
        <ele>264</ele>
        <time>2024-05-08T13:14:55Z</time>
      </trkpt>
      <trkpt lat="49.86436" lon="4.74425">
        <ele>264</ele>
        <time>2024-05-08T13:14:56Z</time>
      </trkpt>
      <trkpt lat="49.86436" lon="4.74425">
        <ele>263</ele>
        <time>2024-05-08T13:14:57Z</time>
      </trkpt>
      <trkpt lat="49.86436" lon="4.74425">
        <ele>263</ele>
        <time>2024-05-08T13:14:58Z</time>
      </trkpt>
      <trkpt lat="49.86436" lon="4.74426">
        <ele>263</ele>
        <time>2024-05-08T13:14:59Z</time>
      </trkpt>
      <trkpt lat="49.86437" lon="4.74426">
        <ele>263</ele>
        <time>2024-05-08T13:15:00Z</time>
      </trkpt>
      <trkpt lat="49.86437" lon="4.74427">
        <ele>263</ele>
        <time>2024-05-08T13:15:01Z</time>
      </trkpt>
      <trkpt lat="49.86438" lon="4.74428">
        <ele>262</ele>
        <time>2024-05-08T13:15:02Z</time>
      </trkpt>
      <trkpt lat="49.86439" lon="4.74428">
        <ele>262</ele>
        <time>2024-05-08T13:15:03Z</time>
      </trkpt>
      <trkpt lat="49.8644" lon="4.74428">
        <ele>262</ele>
        <time>2024-05-08T13:15:04Z</time>
      </trkpt>
      <trkpt lat="49.8644" lon="4.74428">
        <ele>262</ele>
        <time>2024-05-08T13:15:05Z</time>
      </trkpt>
      <trkpt lat="49.8644" lon="4.74428">
        <ele>262</ele>
        <time>2024-05-08T13:15:06Z</time>
      </trkpt>
      <trkpt lat="49.86441" lon="4.74428">
        <ele>262</ele>
        <time>2024-05-08T13:15:07Z</time>
      </trkpt>
      <trkpt lat="49.86442" lon="4.74428">
        <ele>262</ele>
        <time>2024-05-08T13:15:08Z</time>
      </trkpt>
      <trkpt lat="49.86443" lon="4.74428">
        <ele>262</ele>
        <time>2024-05-08T13:15:09Z</time>
      </trkpt>
      <trkpt lat="49.86443" lon="4.74428">
        <ele>262</ele>
        <time>2024-05-08T13:15:10Z</time>
      </trkpt>
      <trkpt lat="49.86444" lon="4.74429">
        <ele>262</ele>
        <time>2024-05-08T13:15:11Z</time>
      </trkpt>
      <trkpt lat="49.86445" lon="4.74429">
        <ele>261</ele>
        <time>2024-05-08T13:15:12Z</time>
      </trkpt>
      <trkpt lat="49.86445" lon="4.7443">
        <ele>261</ele>
        <time>2024-05-08T13:15:13Z</time>
      </trkpt>
      <trkpt lat="49.86446" lon="4.7443">
        <ele>261</ele>
        <time>2024-05-08T13:15:14Z</time>
      </trkpt>
      <trkpt lat="49.86447" lon="4.74432">
        <ele>261</ele>
        <time>2024-05-08T13:15:21Z</time>
      </trkpt>
      <trkpt lat="49.86447" lon="4.74432">
        <ele>261</ele>
        <time>2024-05-08T13:15:22Z</time>
      </trkpt>
      <trkpt lat="49.86447" lon="4.74433">
        <ele>261</ele>
        <time>2024-05-08T13:15:23Z</time>
      </trkpt>
      <trkpt lat="49.86448" lon="4.74433">
        <ele>261</ele>
        <time>2024-05-08T13:15:24Z</time>
      </trkpt>
      <trkpt lat="49.86448" lon="4.74433">
        <ele>261</ele>
        <time>2024-05-08T13:15:25Z</time>
      </trkpt>
      <trkpt lat="49.86449" lon="4.74433">
        <ele>261</ele>
        <time>2024-05-08T13:15:26Z</time>
      </trkpt>
      <trkpt lat="49.8645" lon="4.74434">
        <ele>261</ele>
        <time>2024-05-08T13:15:27Z</time>
      </trkpt>
      <trkpt lat="49.86451" lon="4.74434">
        <ele>261</ele>
        <time>2024-05-08T13:15:28Z</time>
      </trkpt>
      <trkpt lat="49.86451" lon="4.74434">
        <ele>261</ele>
        <time>2024-05-08T13:15:29Z</time>
      </trkpt>
      <trkpt lat="49.86452" lon="4.74434">
        <ele>261</ele>
        <time>2024-05-08T13:15:30Z</time>
      </trkpt>
      <trkpt lat="49.86453" lon="4.74434">
        <ele>261</ele>
        <time>2024-05-08T13:15:31Z</time>
      </trkpt>
      <trkpt lat="49.86453" lon="4.74434">
        <ele>260</ele>
        <time>2024-05-08T13:15:32Z</time>
      </trkpt>
      <trkpt lat="49.86454" lon="4.74434">
        <ele>260</ele>
        <time>2024-05-08T13:15:33Z</time>
      </trkpt>
      <trkpt lat="49.86455" lon="4.74435">
        <ele>260</ele>
        <time>2024-05-08T13:15:34Z</time>
      </trkpt>
      <trkpt lat="49.86455" lon="4.74435">
        <ele>260</ele>
        <time>2024-05-08T13:15:35Z</time>
      </trkpt>
      <trkpt lat="49.86456" lon="4.74436">
        <ele>260</ele>
        <time>2024-05-08T13:15:36Z</time>
      </trkpt>
      <trkpt lat="49.86456" lon="4.74436">
        <ele>260</ele>
        <time>2024-05-08T13:15:37Z</time>
      </trkpt>
      <trkpt lat="49.86457" lon="4.74437">
        <ele>260</ele>
        <time>2024-05-08T13:15:38Z</time>
      </trkpt>
      <trkpt lat="49.86458" lon="4.74437">
        <ele>260</ele>
        <time>2024-05-08T13:15:39Z</time>
      </trkpt>
      <trkpt lat="49.86458" lon="4.74438">
        <ele>260</ele>
        <time>2024-05-08T13:15:40Z</time>
      </trkpt>
      <trkpt lat="49.86459" lon="4.74439">
        <ele>260</ele>
        <time>2024-05-08T13:15:41Z</time>
      </trkpt>
      <trkpt lat="49.8646" lon="4.74439">
        <ele>260</ele>
        <time>2024-05-08T13:15:42Z</time>
      </trkpt>
      <trkpt lat="49.86461" lon="4.7444">
        <ele>260</ele>
        <time>2024-05-08T13:15:43Z</time>
      </trkpt>
      <trkpt lat="49.86462" lon="4.74441">
        <ele>260</ele>
        <time>2024-05-08T13:15:44Z</time>
      </trkpt>
      <trkpt lat="49.86463" lon="4.74441">
        <ele>260</ele>
        <time>2024-05-08T13:15:45Z</time>
      </trkpt>
      <trkpt lat="49.86464" lon="4.74442">
        <ele>260</ele>
        <time>2024-05-08T13:15:46Z</time>
      </trkpt>
      <trkpt lat="49.86465" lon="4.74442">
        <ele>260</ele>
        <time>2024-05-08T13:15:47Z</time>
      </trkpt>
      <trkpt lat="49.86466" lon="4.74442">
        <ele>260</ele>
        <time>2024-05-08T13:15:48Z</time>
      </trkpt>
      <trkpt lat="49.86467" lon="4.74442">
        <ele>260</ele>
        <time>2024-05-08T13:15:49Z</time>
      </trkpt>
      <trkpt lat="49.86468" lon="4.74442">
        <ele>260</ele>
        <time>2024-05-08T13:15:50Z</time>
      </trkpt>
      <trkpt lat="49.86469" lon="4.74442">
        <ele>260</ele>
        <time>2024-05-08T13:15:51Z</time>
      </trkpt>
      <trkpt lat="49.86469" lon="4.74442">
        <ele>259</ele>
        <time>2024-05-08T13:15:52Z</time>
      </trkpt>
      <trkpt lat="49.8647" lon="4.74442">
        <ele>259</ele>
        <time>2024-05-08T13:15:53Z</time>
      </trkpt>
      <trkpt lat="49.86471" lon="4.74442">
        <ele>259</ele>
        <time>2024-05-08T13:15:54Z</time>
      </trkpt>
      <trkpt lat="49.86472" lon="4.74442">
        <ele>259</ele>
        <time>2024-05-08T13:15:55Z</time>
      </trkpt>
      <trkpt lat="49.86472" lon="4.74442">
        <ele>259</ele>
        <time>2024-05-08T13:15:56Z</time>
      </trkpt>
      <trkpt lat="49.86473" lon="4.74441">
        <ele>258</ele>
        <time>2024-05-08T13:15:57Z</time>
      </trkpt>
      <trkpt lat="49.86474" lon="4.74441">
        <ele>258</ele>
        <time>2024-05-08T13:15:58Z</time>
      </trkpt>
      <trkpt lat="49.86474" lon="4.74441">
        <ele>258</ele>
        <time>2024-05-08T13:15:59Z</time>
      </trkpt>
      <trkpt lat="49.86475" lon="4.7444">
        <ele>258</ele>
        <time>2024-05-08T13:16:00Z</time>
      </trkpt>
      <trkpt lat="49.86476" lon="4.74439">
        <ele>258</ele>
        <time>2024-05-08T13:16:01Z</time>
      </trkpt>
      <trkpt lat="49.86477" lon="4.74439">
        <ele>258</ele>
        <time>2024-05-08T13:16:02Z</time>
      </trkpt>
      <trkpt lat="49.86477" lon="4.74439">
        <ele>258</ele>
        <time>2024-05-08T13:16:03Z</time>
      </trkpt>
      <trkpt lat="49.86478" lon="4.74439">
        <ele>258</ele>
        <time>2024-05-08T13:16:04Z</time>
      </trkpt>
      <trkpt lat="49.86479" lon="4.74439">
        <ele>258</ele>
        <time>2024-05-08T13:16:05Z</time>
      </trkpt>
      <trkpt lat="49.86479" lon="4.74439">
        <ele>258</ele>
        <time>2024-05-08T13:16:06Z</time>
      </trkpt>
      <trkpt lat="49.8648" lon="4.7444">
        <ele>257</ele>
        <time>2024-05-08T13:16:07Z</time>
      </trkpt>
      <trkpt lat="49.8648" lon="4.74441">
        <ele>257</ele>
        <time>2024-05-08T13:16:08Z</time>
      </trkpt>
      <trkpt lat="49.86481" lon="4.74441">
        <ele>257</ele>
        <time>2024-05-08T13:16:09Z</time>
      </trkpt>
      <trkpt lat="49.86481" lon="4.74442">
        <ele>257</ele>
        <time>2024-05-08T13:16:10Z</time>
      </trkpt>
      <trkpt lat="49.86481" lon="4.74443">
        <ele>257</ele>
        <time>2024-05-08T13:16:11Z</time>
      </trkpt>
      <trkpt lat="49.86482" lon="4.74444">
        <ele>257</ele>
        <time>2024-05-08T13:16:12Z</time>
      </trkpt>
      <trkpt lat="49.86483" lon="4.74444">
        <ele>257</ele>
        <time>2024-05-08T13:16:13Z</time>
      </trkpt>
      <trkpt lat="49.86484" lon="4.74445">
        <ele>257</ele>
        <time>2024-05-08T13:16:14Z</time>
      </trkpt>
      <trkpt lat="49.86485" lon="4.74446">
        <ele>257</ele>
        <time>2024-05-08T13:16:15Z</time>
      </trkpt>
      <trkpt lat="49.86485" lon="4.74447">
        <ele>257</ele>
        <time>2024-05-08T13:16:16Z</time>
      </trkpt>
      <trkpt lat="49.86486" lon="4.74449">
        <ele>257</ele>
        <time>2024-05-08T13:16:17Z</time>
      </trkpt>
      <trkpt lat="49.86487" lon="4.7445">
        <ele>257</ele>
        <time>2024-05-08T13:16:18Z</time>
      </trkpt>
      <trkpt lat="49.86487" lon="4.74451">
        <ele>257</ele>
        <time>2024-05-08T13:16:19Z</time>
      </trkpt>
      <trkpt lat="49.86488" lon="4.74452">
        <ele>257</ele>
        <time>2024-05-08T13:16:20Z</time>
      </trkpt>
      <trkpt lat="49.86488" lon="4.74453">
        <ele>257</ele>
        <time>2024-05-08T13:16:21Z</time>
      </trkpt>
      <trkpt lat="49.86488" lon="4.74454">
        <ele>257</ele>
        <time>2024-05-08T13:16:22Z</time>
      </trkpt>
      <trkpt lat="49.86489" lon="4.74456">
        <ele>257</ele>
        <time>2024-05-08T13:16:23Z</time>
      </trkpt>
      <trkpt lat="49.86489" lon="4.74456">
        <ele>257</ele>
        <time>2024-05-08T13:16:24Z</time>
      </trkpt>
      <trkpt lat="49.86489" lon="4.74457">
        <ele>257</ele>
        <time>2024-05-08T13:16:25Z</time>
      </trkpt>
      <trkpt lat="49.8649" lon="4.74458">
        <ele>257</ele>
        <time>2024-05-08T13:16:26Z</time>
      </trkpt>
      <trkpt lat="49.8649" lon="4.74459">
        <ele>257</ele>
        <time>2024-05-08T13:16:27Z</time>
      </trkpt>
      <trkpt lat="49.86491" lon="4.7446">
        <ele>257</ele>
        <time>2024-05-08T13:16:28Z</time>
      </trkpt>
      <trkpt lat="49.86492" lon="4.74461">
        <ele>257</ele>
        <time>2024-05-08T13:16:29Z</time>
      </trkpt>
      <trkpt lat="49.86492" lon="4.74462">
        <ele>257</ele>
        <time>2024-05-08T13:16:30Z</time>
      </trkpt>
      <trkpt lat="49.86493" lon="4.74463">
        <ele>257</ele>
        <time>2024-05-08T13:16:31Z</time>
      </trkpt>
      <trkpt lat="49.86493" lon="4.74464">
        <ele>257</ele>
        <time>2024-05-08T13:16:32Z</time>
      </trkpt>
      <trkpt lat="49.86494" lon="4.74465">
        <ele>257</ele>
        <time>2024-05-08T13:16:33Z</time>
      </trkpt>
      <trkpt lat="49.86494" lon="4.74466">
        <ele>257</ele>
        <time>2024-05-08T13:16:34Z</time>
      </trkpt>
      <trkpt lat="49.86495" lon="4.74467">
        <ele>257</ele>
        <time>2024-05-08T13:16:35Z</time>
      </trkpt>
      <trkpt lat="49.86496" lon="4.74468">
        <ele>257</ele>
        <time>2024-05-08T13:16:36Z</time>
      </trkpt>
      <trkpt lat="49.86496" lon="4.74469">
        <ele>257</ele>
        <time>2024-05-08T13:16:37Z</time>
      </trkpt>
      <trkpt lat="49.86497" lon="4.7447">
        <ele>257</ele>
        <time>2024-05-08T13:16:38Z</time>
      </trkpt>
      <trkpt lat="49.86497" lon="4.74472">
        <ele>257</ele>
        <time>2024-05-08T13:16:39Z</time>
      </trkpt>
      <trkpt lat="49.86498" lon="4.74473">
        <ele>257</ele>
        <time>2024-05-08T13:16:40Z</time>
      </trkpt>
      <trkpt lat="49.86498" lon="4.74474">
        <ele>257</ele>
        <time>2024-05-08T13:16:41Z</time>
      </trkpt>
      <trkpt lat="49.86499" lon="4.74475">
        <ele>257</ele>
        <time>2024-05-08T13:16:42Z</time>
      </trkpt>
      <trkpt lat="49.86499" lon="4.74476">
        <ele>257</ele>
        <time>2024-05-08T13:16:43Z</time>
      </trkpt>
      <trkpt lat="49.865" lon="4.74477">
        <ele>257</ele>
        <time>2024-05-08T13:16:44Z</time>
      </trkpt>
      <trkpt lat="49.865" lon="4.74478">
        <ele>257</ele>
        <time>2024-05-08T13:16:45Z</time>
      </trkpt>
      <trkpt lat="49.86501" lon="4.74479">
        <ele>258</ele>
        <time>2024-05-08T13:16:46Z</time>
      </trkpt>
      <trkpt lat="49.86501" lon="4.7448">
        <ele>258</ele>
        <time>2024-05-08T13:16:47Z</time>
      </trkpt>
      <trkpt lat="49.86501" lon="4.74481">
        <ele>258</ele>
        <time>2024-05-08T13:16:48Z</time>
      </trkpt>
      <trkpt lat="49.86501" lon="4.74483">
        <ele>258</ele>
        <time>2024-05-08T13:16:49Z</time>
      </trkpt>
      <trkpt lat="49.86502" lon="4.74484">
        <ele>258</ele>
        <time>2024-05-08T13:16:50Z</time>
      </trkpt>
      <trkpt lat="49.86502" lon="4.74485">
        <ele>259</ele>
        <time>2024-05-08T13:16:51Z</time>
      </trkpt>
      <trkpt lat="49.86502" lon="4.74486">
        <ele>259</ele>
        <time>2024-05-08T13:16:52Z</time>
      </trkpt>
      <trkpt lat="49.86503" lon="4.74487">
        <ele>259</ele>
        <time>2024-05-08T13:16:53Z</time>
      </trkpt>
      <trkpt lat="49.86503" lon="4.74488">
        <ele>259</ele>
        <time>2024-05-08T13:16:54Z</time>
      </trkpt>
      <trkpt lat="49.86504" lon="4.74489">
        <ele>259</ele>
        <time>2024-05-08T13:16:55Z</time>
      </trkpt>
      <trkpt lat="49.86505" lon="4.74491">
        <ele>260</ele>
        <time>2024-05-08T13:17:02Z</time>
      </trkpt>
      <trkpt lat="49.86506" lon="4.74492">
        <ele>260</ele>
        <time>2024-05-08T13:17:03Z</time>
      </trkpt>
      <trkpt lat="49.86506" lon="4.74493">
        <ele>260</ele>
        <time>2024-05-08T13:17:04Z</time>
      </trkpt>
      <trkpt lat="49.86507" lon="4.74493">
        <ele>260</ele>
        <time>2024-05-08T13:17:05Z</time>
      </trkpt>
      <trkpt lat="49.86507" lon="4.74494">
        <ele>260</ele>
        <time>2024-05-08T13:17:06Z</time>
      </trkpt>
      <trkpt lat="49.86508" lon="4.74494">
        <ele>260</ele>
        <time>2024-05-08T13:17:07Z</time>
      </trkpt>
      <trkpt lat="49.86508" lon="4.74494">
        <ele>260</ele>
        <time>2024-05-08T13:17:08Z</time>
      </trkpt>
      <trkpt lat="49.86509" lon="4.74495">
        <ele>260</ele>
        <time>2024-05-08T13:17:09Z</time>
      </trkpt>
      <trkpt lat="49.8651" lon="4.74495">
        <ele>260</ele>
        <time>2024-05-08T13:17:10Z</time>
      </trkpt>
      <trkpt lat="49.8651" lon="4.74496">
        <ele>261</ele>
        <time>2024-05-08T13:17:11Z</time>
      </trkpt>
      <trkpt lat="49.86511" lon="4.74496">
        <ele>261</ele>
        <time>2024-05-08T13:17:12Z</time>
      </trkpt>
      <trkpt lat="49.86512" lon="4.74497">
        <ele>261</ele>
        <time>2024-05-08T13:17:13Z</time>
      </trkpt>
      <trkpt lat="49.86512" lon="4.74498">
        <ele>261</ele>
        <time>2024-05-08T13:17:14Z</time>
      </trkpt>
      <trkpt lat="49.86513" lon="4.74499">
        <ele>261</ele>
        <time>2024-05-08T13:17:15Z</time>
      </trkpt>
      <trkpt lat="49.86513" lon="4.745">
        <ele>262</ele>
        <time>2024-05-08T13:17:16Z</time>
      </trkpt>
      <trkpt lat="49.86514" lon="4.74501">
        <ele>262</ele>
        <time>2024-05-08T13:17:17Z</time>
      </trkpt>
      <trkpt lat="49.86514" lon="4.74502">
        <ele>262</ele>
        <time>2024-05-08T13:17:18Z</time>
      </trkpt>
      <trkpt lat="49.86515" lon="4.74503">
        <ele>262</ele>
        <time>2024-05-08T13:17:19Z</time>
      </trkpt>
      <trkpt lat="49.86516" lon="4.74504">
        <ele>262</ele>
        <time>2024-05-08T13:17:20Z</time>
      </trkpt>
      <trkpt lat="49.86516" lon="4.74505">
        <ele>263</ele>
        <time>2024-05-08T13:17:21Z</time>
      </trkpt>
      <trkpt lat="49.86517" lon="4.74506">
        <ele>263</ele>
        <time>2024-05-08T13:17:22Z</time>
      </trkpt>
      <trkpt lat="49.86518" lon="4.74508">
        <ele>263</ele>
        <time>2024-05-08T13:17:23Z</time>
      </trkpt>
      <trkpt lat="49.86518" lon="4.74508">
        <ele>263</ele>
        <time>2024-05-08T13:17:24Z</time>
      </trkpt>
      <trkpt lat="49.86518" lon="4.74509">
        <ele>263</ele>
        <time>2024-05-08T13:17:25Z</time>
      </trkpt>
      <trkpt lat="49.86519" lon="4.7451">
        <ele>264</ele>
        <time>2024-05-08T13:17:26Z</time>
      </trkpt>
      <trkpt lat="49.86519" lon="4.7451">
        <ele>264</ele>
        <time>2024-05-08T13:17:27Z</time>
      </trkpt>
      <trkpt lat="49.86519" lon="4.7451">
        <ele>264</ele>
        <time>2024-05-08T13:17:28Z</time>
      </trkpt>
      <trkpt lat="49.86519" lon="4.74511">
        <ele>264</ele>
        <time>2024-05-08T13:17:29Z</time>
      </trkpt>
      <trkpt lat="49.86519" lon="4.74511">
        <ele>264</ele>
        <time>2024-05-08T13:17:30Z</time>
      </trkpt>
      <trkpt lat="49.8652" lon="4.74512">
        <ele>265</ele>
        <time>2024-05-08T13:17:31Z</time>
      </trkpt>
      <trkpt lat="49.8652" lon="4.74512">
        <ele>265</ele>
        <time>2024-05-08T13:17:32Z</time>
      </trkpt>
      <trkpt lat="49.86521" lon="4.74513">
        <ele>265</ele>
        <time>2024-05-08T13:17:33Z</time>
      </trkpt>
      <trkpt lat="49.86521" lon="4.74513">
        <ele>265</ele>
        <time>2024-05-08T13:17:34Z</time>
      </trkpt>
      <trkpt lat="49.86522" lon="4.74514">
        <ele>265</ele>
        <time>2024-05-08T13:17:35Z</time>
      </trkpt>
      <trkpt lat="49.86523" lon="4.74515">
        <ele>266</ele>
        <time>2024-05-08T13:17:41Z</time>
      </trkpt>
      <trkpt lat="49.86523" lon="4.74515">
        <ele>266</ele>
        <time>2024-05-08T13:17:42Z</time>
      </trkpt>
      <trkpt lat="49.86524" lon="4.74516">
        <ele>266</ele>
        <time>2024-05-08T13:17:43Z</time>
      </trkpt>
      <trkpt lat="49.86525" lon="4.74517">
        <ele>266</ele>
        <time>2024-05-08T13:17:44Z</time>
      </trkpt>
      <trkpt lat="49.86525" lon="4.74517">
        <ele>266</ele>
        <time>2024-05-08T13:17:45Z</time>
      </trkpt>
      <trkpt lat="49.86525" lon="4.74518">
        <ele>266</ele>
        <time>2024-05-08T13:17:46Z</time>
      </trkpt>
      <trkpt lat="49.86526" lon="4.74518">
        <ele>266</ele>
        <time>2024-05-08T13:17:47Z</time>
      </trkpt>
      <trkpt lat="49.86526" lon="4.74518">
        <ele>266</ele>
        <time>2024-05-08T13:17:48Z</time>
      </trkpt>
      <trkpt lat="49.86527" lon="4.74519">
        <ele>266</ele>
        <time>2024-05-08T13:17:49Z</time>
      </trkpt>
      <trkpt lat="49.86527" lon="4.7452">
        <ele>266</ele>
        <time>2024-05-08T13:17:50Z</time>
      </trkpt>
      <trkpt lat="49.86528" lon="4.74521">
        <ele>266</ele>
        <time>2024-05-08T13:17:51Z</time>
      </trkpt>
      <trkpt lat="49.86528" lon="4.74522">
        <ele>266</ele>
        <time>2024-05-08T13:17:52Z</time>
      </trkpt>
      <trkpt lat="49.86529" lon="4.74523">
        <ele>266</ele>
        <time>2024-05-08T13:17:53Z</time>
      </trkpt>
      <trkpt lat="49.86529" lon="4.74524">
        <ele>266</ele>
        <time>2024-05-08T13:17:54Z</time>
      </trkpt>
      <trkpt lat="49.86529" lon="4.74525">
        <ele>266</ele>
        <time>2024-05-08T13:17:55Z</time>
      </trkpt>
      <trkpt lat="49.8653" lon="4.74526">
        <ele>266</ele>
        <time>2024-05-08T13:17:56Z</time>
      </trkpt>
      <trkpt lat="49.86531" lon="4.74527">
        <ele>266</ele>
        <time>2024-05-08T13:17:57Z</time>
      </trkpt>
      <trkpt lat="49.86531" lon="4.74527">
        <ele>266</ele>
        <time>2024-05-08T13:17:58Z</time>
      </trkpt>
      <trkpt lat="49.86532" lon="4.74528">
        <ele>266</ele>
        <time>2024-05-08T13:17:59Z</time>
      </trkpt>
      <trkpt lat="49.86532" lon="4.74529">
        <ele>266</ele>
        <time>2024-05-08T13:18:00Z</time>
      </trkpt>
      <trkpt lat="49.86532" lon="4.74529">
        <ele>266</ele>
        <time>2024-05-08T13:18:01Z</time>
      </trkpt>
      <trkpt lat="49.86533" lon="4.7453">
        <ele>265</ele>
        <time>2024-05-08T13:18:02Z</time>
      </trkpt>
      <trkpt lat="49.86534" lon="4.7453">
        <ele>265</ele>
        <time>2024-05-08T13:18:03Z</time>
      </trkpt>
      <trkpt lat="49.86534" lon="4.74531">
        <ele>265</ele>
        <time>2024-05-08T13:18:04Z</time>
      </trkpt>
      <trkpt lat="49.86535" lon="4.74532">
        <ele>265</ele>
        <time>2024-05-08T13:18:05Z</time>
      </trkpt>
      <trkpt lat="49.86535" lon="4.74532">
        <ele>265</ele>
        <time>2024-05-08T13:18:06Z</time>
      </trkpt>
      <trkpt lat="49.86536" lon="4.74533">
        <ele>265</ele>
        <time>2024-05-08T13:18:07Z</time>
      </trkpt>
      <trkpt lat="49.86536" lon="4.74534">
        <ele>265</ele>
        <time>2024-05-08T13:18:08Z</time>
      </trkpt>
      <trkpt lat="49.86537" lon="4.74535">
        <ele>265</ele>
        <time>2024-05-08T13:18:09Z</time>
      </trkpt>
      <trkpt lat="49.86537" lon="4.74537">
        <ele>265</ele>
        <time>2024-05-08T13:18:10Z</time>
      </trkpt>
      <trkpt lat="49.86538" lon="4.74538">
        <ele>266</ele>
        <time>2024-05-08T13:18:11Z</time>
      </trkpt>
      <trkpt lat="49.86538" lon="4.74539">
        <ele>266</ele>
        <time>2024-05-08T13:18:12Z</time>
      </trkpt>
      <trkpt lat="49.86538" lon="4.74539">
        <ele>266</ele>
        <time>2024-05-08T13:18:13Z</time>
      </trkpt>
      <trkpt lat="49.86538" lon="4.74541">
        <ele>266</ele>
        <time>2024-05-08T13:18:14Z</time>
      </trkpt>
      <trkpt lat="49.86538" lon="4.74542">
        <ele>266</ele>
        <time>2024-05-08T13:18:15Z</time>
      </trkpt>
      <trkpt lat="49.86539" lon="4.74543">
        <ele>266</ele>
        <time>2024-05-08T13:18:16Z</time>
      </trkpt>
      <trkpt lat="49.86539" lon="4.74544">
        <ele>266</ele>
        <time>2024-05-08T13:18:17Z</time>
      </trkpt>
      <trkpt lat="49.86539" lon="4.74545">
        <ele>266</ele>
        <time>2024-05-08T13:18:18Z</time>
      </trkpt>
      <trkpt lat="49.86539" lon="4.74546">
        <ele>266</ele>
        <time>2024-05-08T13:18:19Z</time>
      </trkpt>
      <trkpt lat="49.8654" lon="4.74547">
        <ele>266</ele>
        <time>2024-05-08T13:18:20Z</time>
      </trkpt>
      <trkpt lat="49.86541" lon="4.74548">
        <ele>266</ele>
        <time>2024-05-08T13:18:21Z</time>
      </trkpt>
      <trkpt lat="49.86542" lon="4.74548">
        <ele>265</ele>
        <time>2024-05-08T13:18:22Z</time>
      </trkpt>
      <trkpt lat="49.86543" lon="4.74549">
        <ele>265</ele>
        <time>2024-05-08T13:18:23Z</time>
      </trkpt>
      <trkpt lat="49.86544" lon="4.7455">
        <ele>265</ele>
        <time>2024-05-08T13:18:24Z</time>
      </trkpt>
      <trkpt lat="49.86544" lon="4.7455">
        <ele>265</ele>
        <time>2024-05-08T13:18:25Z</time>
      </trkpt>
      <trkpt lat="49.86545" lon="4.74551">
        <ele>265</ele>
        <time>2024-05-08T13:18:26Z</time>
      </trkpt>
      <trkpt lat="49.86546" lon="4.74552">
        <ele>265</ele>
        <time>2024-05-08T13:18:27Z</time>
      </trkpt>
      <trkpt lat="49.86547" lon="4.74553">
        <ele>265</ele>
        <time>2024-05-08T13:18:28Z</time>
      </trkpt>
      <trkpt lat="49.86548" lon="4.74554">
        <ele>265</ele>
        <time>2024-05-08T13:18:29Z</time>
      </trkpt>
      <trkpt lat="49.86549" lon="4.74556">
        <ele>265</ele>
        <time>2024-05-08T13:18:30Z</time>
      </trkpt>
      <trkpt lat="49.8655" lon="4.74559">
        <ele>264</ele>
        <time>2024-05-08T13:18:42Z</time>
      </trkpt>
      <trkpt lat="49.8655" lon="4.74561">
        <ele>264</ele>
        <time>2024-05-08T13:18:43Z</time>
      </trkpt>
      <trkpt lat="49.8655" lon="4.74562">
        <ele>264</ele>
        <time>2024-05-08T13:18:44Z</time>
      </trkpt>
      <trkpt lat="49.86551" lon="4.74563">
        <ele>264</ele>
        <time>2024-05-08T13:18:45Z</time>
      </trkpt>
      <trkpt lat="49.86551" lon="4.74564">
        <ele>264</ele>
        <time>2024-05-08T13:18:46Z</time>
      </trkpt>
      <trkpt lat="49.86552" lon="4.74566">
        <ele>264</ele>
        <time>2024-05-08T13:18:47Z</time>
      </trkpt>
      <trkpt lat="49.86553" lon="4.74567">
        <ele>264</ele>
        <time>2024-05-08T13:18:48Z</time>
      </trkpt>
      <trkpt lat="49.86553" lon="4.74568">
        <ele>264</ele>
        <time>2024-05-08T13:18:49Z</time>
      </trkpt>
      <trkpt lat="49.86554" lon="4.74569">
        <ele>264</ele>
        <time>2024-05-08T13:18:50Z</time>
      </trkpt>
      <trkpt lat="49.86554" lon="4.7457">
        <ele>264</ele>
        <time>2024-05-08T13:18:51Z</time>
      </trkpt>
      <trkpt lat="49.86555" lon="4.74571">
        <ele>264</ele>
        <time>2024-05-08T13:18:52Z</time>
      </trkpt>
      <trkpt lat="49.86555" lon="4.74572">
        <ele>264</ele>
        <time>2024-05-08T13:18:53Z</time>
      </trkpt>
      <trkpt lat="49.86556" lon="4.74573">
        <ele>264</ele>
        <time>2024-05-08T13:18:54Z</time>
      </trkpt>
      <trkpt lat="49.86556" lon="4.74574">
        <ele>264</ele>
        <time>2024-05-08T13:18:55Z</time>
      </trkpt>
      <trkpt lat="49.86557" lon="4.74575">
        <ele>264</ele>
        <time>2024-05-08T13:18:56Z</time>
      </trkpt>
      <trkpt lat="49.86557" lon="4.74576">
        <ele>264</ele>
        <time>2024-05-08T13:18:57Z</time>
      </trkpt>
      <trkpt lat="49.86558" lon="4.74576">
        <ele>264</ele>
        <time>2024-05-08T13:18:58Z</time>
      </trkpt>
      <trkpt lat="49.86558" lon="4.74576">
        <ele>264</ele>
        <time>2024-05-08T13:18:59Z</time>
      </trkpt>
      <trkpt lat="49.86558" lon="4.74577">
        <ele>264</ele>
        <time>2024-05-08T13:19:00Z</time>
      </trkpt>
      <trkpt lat="49.86558" lon="4.74577">
        <ele>265</ele>
        <time>2024-05-08T13:19:01Z</time>
      </trkpt>
      <trkpt lat="49.86558" lon="4.74577">
        <ele>264</ele>
        <time>2024-05-08T13:19:02Z</time>
      </trkpt>
      <trkpt lat="49.86559" lon="4.74577">
        <ele>264</ele>
        <time>2024-05-08T13:19:03Z</time>
      </trkpt>
      <trkpt lat="49.86558" lon="4.74576">
        <ele>264</ele>
        <time>2024-05-08T13:19:04Z</time>
      </trkpt>
      <trkpt lat="49.86558" lon="4.74575">
        <ele>264</ele>
        <time>2024-05-08T13:19:05Z</time>
      </trkpt>
      <trkpt lat="49.86558" lon="4.74574">
        <ele>264</ele>
        <time>2024-05-08T13:19:06Z</time>
      </trkpt>
      <trkpt lat="49.86557" lon="4.74573">
        <ele>264</ele>
        <time>2024-05-08T13:19:07Z</time>
      </trkpt>
      <trkpt lat="49.86556" lon="4.74571">
        <ele>264</ele>
        <time>2024-05-08T13:19:08Z</time>
      </trkpt>
      <trkpt lat="49.86556" lon="4.7457">
        <ele>264</ele>
        <time>2024-05-08T13:19:09Z</time>
      </trkpt>
      <trkpt lat="49.86555" lon="4.74569">
        <ele>264</ele>
        <time>2024-05-08T13:19:10Z</time>
      </trkpt>
      <trkpt lat="49.86554" lon="4.74567">
        <ele>264</ele>
        <time>2024-05-08T13:19:11Z</time>
      </trkpt>
      <trkpt lat="49.86553" lon="4.74566">
        <ele>264</ele>
        <time>2024-05-08T13:19:12Z</time>
      </trkpt>
      <trkpt lat="49.86552" lon="4.74565">
        <ele>264</ele>
        <time>2024-05-08T13:19:13Z</time>
      </trkpt>
      <trkpt lat="49.86551" lon="4.74563">
        <ele>264</ele>
        <time>2024-05-08T13:19:14Z</time>
      </trkpt>
      <trkpt lat="49.8655" lon="4.74562">
        <ele>264</ele>
        <time>2024-05-08T13:19:15Z</time>
      </trkpt>
      <trkpt lat="49.86549" lon="4.7456">
        <ele>265</ele>
        <time>2024-05-08T13:19:16Z</time>
      </trkpt>
      <trkpt lat="49.86548" lon="4.74559">
        <ele>265</ele>
        <time>2024-05-08T13:19:17Z</time>
      </trkpt>
      <trkpt lat="49.86548" lon="4.74557">
        <ele>265</ele>
        <time>2024-05-08T13:19:18Z</time>
      </trkpt>
      <trkpt lat="49.86548" lon="4.74556">
        <ele>265</ele>
        <time>2024-05-08T13:19:19Z</time>
      </trkpt>
      <trkpt lat="49.86548" lon="4.74554">
        <ele>265</ele>
        <time>2024-05-08T13:19:20Z</time>
      </trkpt>
      <trkpt lat="49.86549" lon="4.74553">
        <ele>265</ele>
        <time>2024-05-08T13:19:21Z</time>
      </trkpt>
      <trkpt lat="49.86549" lon="4.74553">
        <ele>265</ele>
        <time>2024-05-08T13:19:22Z</time>
      </trkpt>
      <trkpt lat="49.8655" lon="4.74552">
        <ele>265</ele>
        <time>2024-05-08T13:19:23Z</time>
      </trkpt>
      <trkpt lat="49.86551" lon="4.74553">
        <ele>265</ele>
        <time>2024-05-08T13:19:24Z</time>
      </trkpt>
      <trkpt lat="49.86551" lon="4.74554">
        <ele>265</ele>
        <time>2024-05-08T13:19:25Z</time>
      </trkpt>
      <trkpt lat="49.86552" lon="4.74555">
        <ele>265</ele>
        <time>2024-05-08T13:19:26Z</time>
      </trkpt>
      <trkpt lat="49.86552" lon="4.74556">
        <ele>265</ele>
        <time>2024-05-08T13:19:27Z</time>
      </trkpt>
      <trkpt lat="49.86553" lon="4.74557">
        <ele>265</ele>
        <time>2024-05-08T13:19:28Z</time>
      </trkpt>
      <trkpt lat="49.86554" lon="4.74558">
        <ele>265</ele>
        <time>2024-05-08T13:19:29Z</time>
      </trkpt>
      <trkpt lat="49.86554" lon="4.74559">
        <ele>265</ele>
        <time>2024-05-08T13:19:30Z</time>
      </trkpt>
      <trkpt lat="49.86555" lon="4.7456">
        <ele>265</ele>
        <time>2024-05-08T13:19:31Z</time>
      </trkpt>
      <trkpt lat="49.86556" lon="4.7456">
        <ele>265</ele>
        <time>2024-05-08T13:19:32Z</time>
      </trkpt>
      <trkpt lat="49.86556" lon="4.7456">
        <ele>265</ele>
        <time>2024-05-08T13:19:33Z</time>
      </trkpt>
      <trkpt lat="49.86557" lon="4.7456">
        <ele>265</ele>
        <time>2024-05-08T13:19:34Z</time>
      </trkpt>
      <trkpt lat="49.86557" lon="4.7456">
        <ele>265</ele>
        <time>2024-05-08T13:19:35Z</time>
      </trkpt>
      <trkpt lat="49.86558" lon="4.7456">
        <ele>266</ele>
        <time>2024-05-08T13:19:36Z</time>
      </trkpt>
      <trkpt lat="49.86559" lon="4.7456">
        <ele>266</ele>
        <time>2024-05-08T13:19:37Z</time>
      </trkpt>
      <trkpt lat="49.8656" lon="4.7456">
        <ele>266</ele>
        <time>2024-05-08T13:19:38Z</time>
      </trkpt>
      <trkpt lat="49.86561" lon="4.7456">
        <ele>266</ele>
        <time>2024-05-08T13:19:39Z</time>
      </trkpt>
      <trkpt lat="49.86561" lon="4.74561">
        <ele>266</ele>
        <time>2024-05-08T13:19:40Z</time>
      </trkpt>
      <trkpt lat="49.86563" lon="4.74561">
        <ele>267</ele>
        <time>2024-05-08T13:19:41Z</time>
      </trkpt>
      <trkpt lat="49.86564" lon="4.74561">
        <ele>267</ele>
        <time>2024-05-08T13:19:42Z</time>
      </trkpt>
      <trkpt lat="49.86565" lon="4.74562">
        <ele>267</ele>
        <time>2024-05-08T13:19:43Z</time>
      </trkpt>
      <trkpt lat="49.86566" lon="4.74562">
        <ele>267</ele>
        <time>2024-05-08T13:19:44Z</time>
      </trkpt>
      <trkpt lat="49.86566" lon="4.74563">
        <ele>267</ele>
        <time>2024-05-08T13:19:45Z</time>
      </trkpt>
      <trkpt lat="49.86567" lon="4.74564">
        <ele>267</ele>
        <time>2024-05-08T13:19:46Z</time>
      </trkpt>
      <trkpt lat="49.86568" lon="4.74564">
        <ele>267</ele>
        <time>2024-05-08T13:19:47Z</time>
      </trkpt>
      <trkpt lat="49.86568" lon="4.74565">
        <ele>267</ele>
        <time>2024-05-08T13:19:48Z</time>
      </trkpt>
      <trkpt lat="49.86569" lon="4.74566">
        <ele>267</ele>
        <time>2024-05-08T13:19:49Z</time>
      </trkpt>
      <trkpt lat="49.8657" lon="4.74567">
        <ele>267</ele>
        <time>2024-05-08T13:19:50Z</time>
      </trkpt>
      <trkpt lat="49.8657" lon="4.74568">
        <ele>268</ele>
        <time>2024-05-08T13:19:51Z</time>
      </trkpt>
      <trkpt lat="49.86571" lon="4.74569">
        <ele>268</ele>
        <time>2024-05-08T13:19:52Z</time>
      </trkpt>
      <trkpt lat="49.86571" lon="4.7457">
        <ele>268</ele>
        <time>2024-05-08T13:19:53Z</time>
      </trkpt>
      <trkpt lat="49.86572" lon="4.74571">
        <ele>268</ele>
        <time>2024-05-08T13:19:54Z</time>
      </trkpt>
      <trkpt lat="49.86572" lon="4.74571">
        <ele>268</ele>
        <time>2024-05-08T13:19:55Z</time>
      </trkpt>
      <trkpt lat="49.86573" lon="4.74572">
        <ele>268</ele>
        <time>2024-05-08T13:19:56Z</time>
      </trkpt>
      <trkpt lat="49.86573" lon="4.74572">
        <ele>268</ele>
        <time>2024-05-08T13:19:57Z</time>
      </trkpt>
      <trkpt lat="49.86573" lon="4.74573">
        <ele>268</ele>
        <time>2024-05-08T13:19:58Z</time>
      </trkpt>
      <trkpt lat="49.86574" lon="4.74574">
        <ele>268</ele>
        <time>2024-05-08T13:19:59Z</time>
      </trkpt>
      <trkpt lat="49.86574" lon="4.74575">
        <ele>268</ele>
        <time>2024-05-08T13:20:00Z</time>
      </trkpt>
      <trkpt lat="49.86574" lon="4.74576">
        <ele>268</ele>
        <time>2024-05-08T13:20:01Z</time>
      </trkpt>
      <trkpt lat="49.86574" lon="4.74578">
        <ele>268</ele>
        <time>2024-05-08T13:20:02Z</time>
      </trkpt>
      <trkpt lat="49.86575" lon="4.74578">
        <ele>268</ele>
        <time>2024-05-08T13:20:03Z</time>
      </trkpt>
      <trkpt lat="49.86575" lon="4.74579">
        <ele>268</ele>
        <time>2024-05-08T13:20:04Z</time>
      </trkpt>
      <trkpt lat="49.86575" lon="4.7458">
        <ele>268</ele>
        <time>2024-05-08T13:20:05Z</time>
      </trkpt>
      <trkpt lat="49.86575" lon="4.7458">
        <ele>268</ele>
        <time>2024-05-08T13:20:06Z</time>
      </trkpt>
      <trkpt lat="49.86576" lon="4.74581">
        <ele>268</ele>
        <time>2024-05-08T13:20:07Z</time>
      </trkpt>
      <trkpt lat="49.86576" lon="4.74582">
        <ele>268</ele>
        <time>2024-05-08T13:20:08Z</time>
      </trkpt>
      <trkpt lat="49.86577" lon="4.74583">
        <ele>268</ele>
        <time>2024-05-08T13:20:09Z</time>
      </trkpt>
      <trkpt lat="49.86577" lon="4.74583">
        <ele>268</ele>
        <time>2024-05-08T13:20:10Z</time>
      </trkpt>
      <trkpt lat="49.86578" lon="4.74584">
        <ele>269</ele>
        <time>2024-05-08T13:20:11Z</time>
      </trkpt>
      <trkpt lat="49.86578" lon="4.74585">
        <ele>269</ele>
        <time>2024-05-08T13:20:12Z</time>
      </trkpt>
      <trkpt lat="49.86579" lon="4.74587">
        <ele>269</ele>
        <time>2024-05-08T13:20:13Z</time>
      </trkpt>
      <trkpt lat="49.8658" lon="4.74588">
        <ele>269</ele>
        <time>2024-05-08T13:20:14Z</time>
      </trkpt>
      <trkpt lat="49.8658" lon="4.7459">
        <ele>269</ele>
        <time>2024-05-08T13:20:15Z</time>
      </trkpt>
      <trkpt lat="49.86581" lon="4.74592">
        <ele>269</ele>
        <time>2024-05-08T13:20:16Z</time>
      </trkpt>
      <trkpt lat="49.86582" lon="4.74593">
        <ele>269</ele>
        <time>2024-05-08T13:20:17Z</time>
      </trkpt>
      <trkpt lat="49.86582" lon="4.74595">
        <ele>269</ele>
        <time>2024-05-08T13:20:18Z</time>
      </trkpt>
      <trkpt lat="49.86583" lon="4.74596">
        <ele>269</ele>
        <time>2024-05-08T13:20:19Z</time>
      </trkpt>
      <trkpt lat="49.86584" lon="4.74597">
        <ele>269</ele>
        <time>2024-05-08T13:20:20Z</time>
      </trkpt>
      <trkpt lat="49.86585" lon="4.74598">
        <ele>269</ele>
        <time>2024-05-08T13:20:21Z</time>
      </trkpt>
      <trkpt lat="49.86585" lon="4.74599">
        <ele>269</ele>
        <time>2024-05-08T13:20:22Z</time>
      </trkpt>
      <trkpt lat="49.86586" lon="4.746">
        <ele>269</ele>
        <time>2024-05-08T13:20:23Z</time>
      </trkpt>
      <trkpt lat="49.86587" lon="4.74601">
        <ele>269</ele>
        <time>2024-05-08T13:20:24Z</time>
      </trkpt>
      <trkpt lat="49.86587" lon="4.74602">
        <ele>269</ele>
        <time>2024-05-08T13:20:25Z</time>
      </trkpt>
      <trkpt lat="49.86588" lon="4.74603">
        <ele>270</ele>
        <time>2024-05-08T13:20:26Z</time>
      </trkpt>
      <trkpt lat="49.86589" lon="4.74603">
        <ele>270</ele>
        <time>2024-05-08T13:20:27Z</time>
      </trkpt>
      <trkpt lat="49.8659" lon="4.74604">
        <ele>270</ele>
        <time>2024-05-08T13:20:28Z</time>
      </trkpt>
      <trkpt lat="49.8659" lon="4.74605">
        <ele>270</ele>
        <time>2024-05-08T13:20:29Z</time>
      </trkpt>
      <trkpt lat="49.86591" lon="4.74606">
        <ele>270</ele>
        <time>2024-05-08T13:20:30Z</time>
      </trkpt>
      <trkpt lat="49.86592" lon="4.74607">
        <ele>270</ele>
        <time>2024-05-08T13:20:31Z</time>
      </trkpt>
      <trkpt lat="49.86593" lon="4.74608">
        <ele>270</ele>
        <time>2024-05-08T13:20:32Z</time>
      </trkpt>
      <trkpt lat="49.86594" lon="4.74609">
        <ele>270</ele>
        <time>2024-05-08T13:20:33Z</time>
      </trkpt>
      <trkpt lat="49.86595" lon="4.7461">
        <ele>270</ele>
        <time>2024-05-08T13:20:34Z</time>
      </trkpt>
      <trkpt lat="49.86596" lon="4.74611">
        <ele>270</ele>
        <time>2024-05-08T13:20:35Z</time>
      </trkpt>
      <trkpt lat="49.86597" lon="4.74612">
        <ele>271</ele>
        <time>2024-05-08T13:20:36Z</time>
      </trkpt>
      <trkpt lat="49.86598" lon="4.74613">
        <ele>271</ele>
        <time>2024-05-08T13:20:37Z</time>
      </trkpt>
      <trkpt lat="49.86599" lon="4.74614">
        <ele>271</ele>
        <time>2024-05-08T13:20:38Z</time>
      </trkpt>
      <trkpt lat="49.86599" lon="4.74616">
        <ele>271</ele>
        <time>2024-05-08T13:20:39Z</time>
      </trkpt>
      <trkpt lat="49.866" lon="4.74617">
        <ele>271</ele>
        <time>2024-05-08T13:20:40Z</time>
      </trkpt>
      <trkpt lat="49.86601" lon="4.74619">
        <ele>271</ele>
        <time>2024-05-08T13:20:41Z</time>
      </trkpt>
      <trkpt lat="49.86601" lon="4.7462">
        <ele>271</ele>
        <time>2024-05-08T13:20:42Z</time>
      </trkpt>
      <trkpt lat="49.86602" lon="4.74622">
        <ele>271</ele>
        <time>2024-05-08T13:20:43Z</time>
      </trkpt>
      <trkpt lat="49.86603" lon="4.74624">
        <ele>272</ele>
        <time>2024-05-08T13:20:49Z</time>
      </trkpt>
      <trkpt lat="49.86604" lon="4.74625">
        <ele>272</ele>
        <time>2024-05-08T13:20:50Z</time>
      </trkpt>
      <trkpt lat="49.86604" lon="4.74627">
        <ele>273</ele>
        <time>2024-05-08T13:20:51Z</time>
      </trkpt>
      <trkpt lat="49.86604" lon="4.74628">
        <ele>273</ele>
        <time>2024-05-08T13:20:52Z</time>
      </trkpt>
      <trkpt lat="49.86605" lon="4.74629">
        <ele>273</ele>
        <time>2024-05-08T13:20:53Z</time>
      </trkpt>
      <trkpt lat="49.86605" lon="4.7463">
        <ele>273</ele>
        <time>2024-05-08T13:20:54Z</time>
      </trkpt>
      <trkpt lat="49.86606" lon="4.74632">
        <ele>273</ele>
        <time>2024-05-08T13:20:55Z</time>
      </trkpt>
      <trkpt lat="49.86607" lon="4.74633">
        <ele>273</ele>
        <time>2024-05-08T13:20:56Z</time>
      </trkpt>
      <trkpt lat="49.86607" lon="4.74634">
        <ele>273</ele>
        <time>2024-05-08T13:20:57Z</time>
      </trkpt>
      <trkpt lat="49.86608" lon="4.74636">
        <ele>273</ele>
        <time>2024-05-08T13:20:58Z</time>
      </trkpt>
      <trkpt lat="49.86609" lon="4.74637">
        <ele>273</ele>
        <time>2024-05-08T13:20:59Z</time>
      </trkpt>
      <trkpt lat="49.8661" lon="4.74638">
        <ele>273</ele>
        <time>2024-05-08T13:21:00Z</time>
      </trkpt>
      <trkpt lat="49.86611" lon="4.74639">
        <ele>274</ele>
        <time>2024-05-08T13:21:01Z</time>
      </trkpt>
      <trkpt lat="49.86612" lon="4.7464">
        <ele>274</ele>
        <time>2024-05-08T13:21:02Z</time>
      </trkpt>
      <trkpt lat="49.86613" lon="4.74641">
        <ele>274</ele>
        <time>2024-05-08T13:21:03Z</time>
      </trkpt>
      <trkpt lat="49.86614" lon="4.74642">
        <ele>274</ele>
        <time>2024-05-08T13:21:04Z</time>
      </trkpt>
      <trkpt lat="49.86615" lon="4.74643">
        <ele>274</ele>
        <time>2024-05-08T13:21:05Z</time>
      </trkpt>
      <trkpt lat="49.86616" lon="4.74644">
        <ele>275</ele>
        <time>2024-05-08T13:21:06Z</time>
      </trkpt>
      <trkpt lat="49.86616" lon="4.74645">
        <ele>275</ele>
        <time>2024-05-08T13:21:07Z</time>
      </trkpt>
      <trkpt lat="49.86617" lon="4.74646">
        <ele>275</ele>
        <time>2024-05-08T13:21:08Z</time>
      </trkpt>
      <trkpt lat="49.86618" lon="4.74647">
        <ele>275</ele>
        <time>2024-05-08T13:21:09Z</time>
      </trkpt>
      <trkpt lat="49.86618" lon="4.74648">
        <ele>275</ele>
        <time>2024-05-08T13:21:10Z</time>
      </trkpt>
      <trkpt lat="49.86619" lon="4.74648">
        <ele>275</ele>
        <time>2024-05-08T13:21:11Z</time>
      </trkpt>
      <trkpt lat="49.8662" lon="4.74649">
        <ele>275</ele>
        <time>2024-05-08T13:21:12Z</time>
      </trkpt>
      <trkpt lat="49.8662" lon="4.7465">
        <ele>275</ele>
        <time>2024-05-08T13:21:13Z</time>
      </trkpt>
      <trkpt lat="49.86621" lon="4.74651">
        <ele>275</ele>
        <time>2024-05-08T13:21:14Z</time>
      </trkpt>
      <trkpt lat="49.86622" lon="4.74652">
        <ele>275</ele>
        <time>2024-05-08T13:21:15Z</time>
      </trkpt>
      <trkpt lat="49.86623" lon="4.74653">
        <ele>276</ele>
        <time>2024-05-08T13:21:16Z</time>
      </trkpt>
      <trkpt lat="49.86624" lon="4.74654">
        <ele>276</ele>
        <time>2024-05-08T13:21:17Z</time>
      </trkpt>
      <trkpt lat="49.86625" lon="4.74656">
        <ele>276</ele>
        <time>2024-05-08T13:21:18Z</time>
      </trkpt>
      <trkpt lat="49.86625" lon="4.74657">
        <ele>276</ele>
        <time>2024-05-08T13:21:19Z</time>
      </trkpt>
      <trkpt lat="49.86626" lon="4.74658">
        <ele>276</ele>
        <time>2024-05-08T13:21:20Z</time>
      </trkpt>
      <trkpt lat="49.86626" lon="4.7466">
        <ele>276</ele>
        <time>2024-05-08T13:21:21Z</time>
      </trkpt>
      <trkpt lat="49.86626" lon="4.74661">
        <ele>276</ele>
        <time>2024-05-08T13:21:22Z</time>
      </trkpt>
      <trkpt lat="49.86627" lon="4.74663">
        <ele>276</ele>
        <time>2024-05-08T13:21:23Z</time>
      </trkpt>
      <trkpt lat="49.86627" lon="4.74665">
        <ele>276</ele>
        <time>2024-05-08T13:21:24Z</time>
      </trkpt>
      <trkpt lat="49.86628" lon="4.74666">
        <ele>276</ele>
        <time>2024-05-08T13:21:25Z</time>
      </trkpt>
      <trkpt lat="49.86628" lon="4.74668">
        <ele>277</ele>
        <time>2024-05-08T13:21:26Z</time>
      </trkpt>
      <trkpt lat="49.86629" lon="4.74669">
        <ele>277</ele>
        <time>2024-05-08T13:21:27Z</time>
      </trkpt>
      <trkpt lat="49.8663" lon="4.74671">
        <ele>277</ele>
        <time>2024-05-08T13:21:28Z</time>
      </trkpt>
      <trkpt lat="49.8663" lon="4.74672">
        <ele>277</ele>
        <time>2024-05-08T13:21:29Z</time>
      </trkpt>
      <trkpt lat="49.86631" lon="4.74674">
        <ele>277</ele>
        <time>2024-05-08T13:21:30Z</time>
      </trkpt>
      <trkpt lat="49.86632" lon="4.74676">
        <ele>277</ele>
        <time>2024-05-08T13:21:31Z</time>
      </trkpt>
      <trkpt lat="49.86633" lon="4.74678">
        <ele>277</ele>
        <time>2024-05-08T13:21:32Z</time>
      </trkpt>
      <trkpt lat="49.86634" lon="4.7468">
        <ele>277</ele>
        <time>2024-05-08T13:21:33Z</time>
      </trkpt>
      <trkpt lat="49.86634" lon="4.74681">
        <ele>277</ele>
        <time>2024-05-08T13:21:34Z</time>
      </trkpt>
      <trkpt lat="49.86635" lon="4.74683">
        <ele>277</ele>
        <time>2024-05-08T13:21:35Z</time>
      </trkpt>
      <trkpt lat="49.86635" lon="4.74684">
        <ele>278</ele>
        <time>2024-05-08T13:21:36Z</time>
      </trkpt>
      <trkpt lat="49.86636" lon="4.74686">
        <ele>278</ele>
        <time>2024-05-08T13:21:37Z</time>
      </trkpt>
      <trkpt lat="49.86636" lon="4.74687">
        <ele>278</ele>
        <time>2024-05-08T13:21:38Z</time>
      </trkpt>
      <trkpt lat="49.86637" lon="4.74688">
        <ele>278</ele>
        <time>2024-05-08T13:21:39Z</time>
      </trkpt>
      <trkpt lat="49.86637" lon="4.74689">
        <ele>278</ele>
        <time>2024-05-08T13:21:40Z</time>
      </trkpt>
      <trkpt lat="49.86637" lon="4.7469">
        <ele>279</ele>
        <time>2024-05-08T13:21:41Z</time>
      </trkpt>
      <trkpt lat="49.86637" lon="4.74692">
        <ele>279</ele>
        <time>2024-05-08T13:21:42Z</time>
      </trkpt>
      <trkpt lat="49.86638" lon="4.74693">
        <ele>279</ele>
        <time>2024-05-08T13:21:43Z</time>
      </trkpt>
      <trkpt lat="49.86639" lon="4.74694">
        <ele>279</ele>
        <time>2024-05-08T13:21:44Z</time>
      </trkpt>
      <trkpt lat="49.86639" lon="4.74696">
        <ele>279</ele>
        <time>2024-05-08T13:21:45Z</time>
      </trkpt>
      <trkpt lat="49.8664" lon="4.74697">
        <ele>279</ele>
        <time>2024-05-08T13:21:46Z</time>
      </trkpt>
      <trkpt lat="49.86641" lon="4.74699">
        <ele>279</ele>
        <time>2024-05-08T13:21:47Z</time>
      </trkpt>
      <trkpt lat="49.86642" lon="4.747">
        <ele>279</ele>
        <time>2024-05-08T13:21:48Z</time>
      </trkpt>
      <trkpt lat="49.86643" lon="4.74701">
        <ele>280</ele>
        <time>2024-05-08T13:21:49Z</time>
      </trkpt>
      <trkpt lat="49.86644" lon="4.74702">
        <ele>280</ele>
        <time>2024-05-08T13:21:50Z</time>
      </trkpt>
      <trkpt lat="49.86645" lon="4.74703">
        <ele>281</ele>
        <time>2024-05-08T13:21:51Z</time>
      </trkpt>
      <trkpt lat="49.86645" lon="4.74704">
        <ele>281</ele>
        <time>2024-05-08T13:21:52Z</time>
      </trkpt>
      <trkpt lat="49.86646" lon="4.74705">
        <ele>281</ele>
        <time>2024-05-08T13:21:53Z</time>
      </trkpt>
      <trkpt lat="49.86646" lon="4.74705">
        <ele>281</ele>
        <time>2024-05-08T13:21:54Z</time>
      </trkpt>
      <trkpt lat="49.86647" lon="4.74706">
        <ele>281</ele>
        <time>2024-05-08T13:21:55Z</time>
      </trkpt>
      <trkpt lat="49.86648" lon="4.74707">
        <ele>282</ele>
        <time>2024-05-08T13:21:56Z</time>
      </trkpt>
      <trkpt lat="49.86648" lon="4.74708">
        <ele>282</ele>
        <time>2024-05-08T13:21:57Z</time>
      </trkpt>
      <trkpt lat="49.86649" lon="4.74709">
        <ele>282</ele>
        <time>2024-05-08T13:21:58Z</time>
      </trkpt>
      <trkpt lat="49.86649" lon="4.7471">
        <ele>282</ele>
        <time>2024-05-08T13:21:59Z</time>
      </trkpt>
      <trkpt lat="49.8665" lon="4.74711">
        <ele>282</ele>
        <time>2024-05-08T13:22:00Z</time>
      </trkpt>
      <trkpt lat="49.8665" lon="4.74712">
        <ele>282</ele>
        <time>2024-05-08T13:22:01Z</time>
      </trkpt>
      <trkpt lat="49.86651" lon="4.74713">
        <ele>282</ele>
        <time>2024-05-08T13:22:02Z</time>
      </trkpt>
      <trkpt lat="49.86652" lon="4.74714">
        <ele>282</ele>
        <time>2024-05-08T13:22:03Z</time>
      </trkpt>
      <trkpt lat="49.86652" lon="4.74714">
        <ele>282</ele>
        <time>2024-05-08T13:22:04Z</time>
      </trkpt>
      <trkpt lat="49.86653" lon="4.74715">
        <ele>282</ele>
        <time>2024-05-08T13:22:05Z</time>
      </trkpt>
      <trkpt lat="49.86654" lon="4.74715">
        <ele>283</ele>
        <time>2024-05-08T13:22:06Z</time>
      </trkpt>
      <trkpt lat="49.86655" lon="4.74716">
        <ele>283</ele>
        <time>2024-05-08T13:22:07Z</time>
      </trkpt>
      <trkpt lat="49.86656" lon="4.74716">
        <ele>283</ele>
        <time>2024-05-08T13:22:08Z</time>
      </trkpt>
      <trkpt lat="49.86657" lon="4.74716">
        <ele>283</ele>
        <time>2024-05-08T13:22:09Z</time>
      </trkpt>
      <trkpt lat="49.86658" lon="4.74717">
        <ele>283</ele>
        <time>2024-05-08T13:22:10Z</time>
      </trkpt>
      <trkpt lat="49.86658" lon="4.74717">
        <ele>284</ele>
        <time>2024-05-08T13:22:11Z</time>
      </trkpt>
      <trkpt lat="49.86659" lon="4.74718">
        <ele>284</ele>
        <time>2024-05-08T13:22:12Z</time>
      </trkpt>
      <trkpt lat="49.8666" lon="4.74719">
        <ele>284</ele>
        <time>2024-05-08T13:22:13Z</time>
      </trkpt>
      <trkpt lat="49.86661" lon="4.74719">
        <ele>284</ele>
        <time>2024-05-08T13:22:14Z</time>
      </trkpt>
      <trkpt lat="49.86661" lon="4.7472">
        <ele>284</ele>
        <time>2024-05-08T13:22:15Z</time>
      </trkpt>
      <trkpt lat="49.86662" lon="4.74721">
        <ele>285</ele>
        <time>2024-05-08T13:22:16Z</time>
      </trkpt>
      <trkpt lat="49.86663" lon="4.74721">
        <ele>285</ele>
        <time>2024-05-08T13:22:17Z</time>
      </trkpt>
      <trkpt lat="49.86663" lon="4.74722">
        <ele>285</ele>
        <time>2024-05-08T13:22:18Z</time>
      </trkpt>
      <trkpt lat="49.86664" lon="4.74722">
        <ele>285</ele>
        <time>2024-05-08T13:22:19Z</time>
      </trkpt>
      <trkpt lat="49.86665" lon="4.74723">
        <ele>285</ele>
        <time>2024-05-08T13:22:20Z</time>
      </trkpt>
      <trkpt lat="49.86666" lon="4.74723">
        <ele>286</ele>
        <time>2024-05-08T13:22:21Z</time>
      </trkpt>
      <trkpt lat="49.86667" lon="4.74723">
        <ele>286</ele>
        <time>2024-05-08T13:22:22Z</time>
      </trkpt>
      <trkpt lat="49.86667" lon="4.74723">
        <ele>286</ele>
        <time>2024-05-08T13:22:23Z</time>
      </trkpt>
      <trkpt lat="49.86668" lon="4.74723">
        <ele>286</ele>
        <time>2024-05-08T13:22:24Z</time>
      </trkpt>
      <trkpt lat="49.86669" lon="4.74723">
        <ele>286</ele>
        <time>2024-05-08T13:22:25Z</time>
      </trkpt>
      <trkpt lat="49.86669" lon="4.74723">
        <ele>286</ele>
        <time>2024-05-08T13:22:26Z</time>
      </trkpt>
      <trkpt lat="49.8667" lon="4.74722">
        <ele>286</ele>
        <time>2024-05-08T13:22:27Z</time>
      </trkpt>
      <trkpt lat="49.86671" lon="4.74722">
        <ele>286</ele>
        <time>2024-05-08T13:22:28Z</time>
      </trkpt>
      <trkpt lat="49.86672" lon="4.74722">
        <ele>286</ele>
        <time>2024-05-08T13:22:29Z</time>
      </trkpt>
      <trkpt lat="49.86673" lon="4.74721">
        <ele>286</ele>
        <time>2024-05-08T13:22:30Z</time>
      </trkpt>
      <trkpt lat="49.86674" lon="4.74722">
        <ele>287</ele>
        <time>2024-05-08T13:22:31Z</time>
      </trkpt>
      <trkpt lat="49.86675" lon="4.74722">
        <ele>287</ele>
        <time>2024-05-08T13:22:32Z</time>
      </trkpt>
      <trkpt lat="49.86676" lon="4.74723">
        <ele>287</ele>
        <time>2024-05-08T13:22:33Z</time>
      </trkpt>
      <trkpt lat="49.86677" lon="4.74724">
        <ele>287</ele>
        <time>2024-05-08T13:22:34Z</time>
      </trkpt>
      <trkpt lat="49.86677" lon="4.74724">
        <ele>287</ele>
        <time>2024-05-08T13:22:35Z</time>
      </trkpt>
      <trkpt lat="49.86678" lon="4.74725">
        <ele>287</ele>
        <time>2024-05-08T13:22:36Z</time>
      </trkpt>
      <trkpt lat="49.86678" lon="4.74726">
        <ele>287</ele>
        <time>2024-05-08T13:22:37Z</time>
      </trkpt>
      <trkpt lat="49.86679" lon="4.74726">
        <ele>287</ele>
        <time>2024-05-08T13:22:38Z</time>
      </trkpt>
      <trkpt lat="49.8668" lon="4.74726">
        <ele>287</ele>
        <time>2024-05-08T13:22:39Z</time>
      </trkpt>
      <trkpt lat="49.86681" lon="4.74726">
        <ele>287</ele>
        <time>2024-05-08T13:22:40Z</time>
      </trkpt>
      <trkpt lat="49.86682" lon="4.74726">
        <ele>288</ele>
        <time>2024-05-08T13:22:41Z</time>
      </trkpt>
      <trkpt lat="49.86683" lon="4.74726">
        <ele>288</ele>
        <time>2024-05-08T13:22:42Z</time>
      </trkpt>
      <trkpt lat="49.86683" lon="4.74726">
        <ele>288</ele>
        <time>2024-05-08T13:22:43Z</time>
      </trkpt>
      <trkpt lat="49.86684" lon="4.74727">
        <ele>288</ele>
        <time>2024-05-08T13:22:44Z</time>
      </trkpt>
      <trkpt lat="49.86685" lon="4.74728">
        <ele>288</ele>
        <time>2024-05-08T13:22:45Z</time>
      </trkpt>
      <trkpt lat="49.86686" lon="4.74729">
        <ele>289</ele>
        <time>2024-05-08T13:22:46Z</time>
      </trkpt>
      <trkpt lat="49.86686" lon="4.7473">
        <ele>289</ele>
        <time>2024-05-08T13:22:47Z</time>
      </trkpt>
      <trkpt lat="49.86687" lon="4.74731">
        <ele>289</ele>
        <time>2024-05-08T13:22:48Z</time>
      </trkpt>
      <trkpt lat="49.86688" lon="4.74733">
        <ele>289</ele>
        <time>2024-05-08T13:22:49Z</time>
      </trkpt>
      <trkpt lat="49.86688" lon="4.74734">
        <ele>289</ele>
        <time>2024-05-08T13:22:50Z</time>
      </trkpt>
      <trkpt lat="49.86689" lon="4.74735">
        <ele>290</ele>
        <time>2024-05-08T13:22:51Z</time>
      </trkpt>
      <trkpt lat="49.8669" lon="4.74736">
        <ele>290</ele>
        <time>2024-05-08T13:22:52Z</time>
      </trkpt>
      <trkpt lat="49.86691" lon="4.74737">
        <ele>290</ele>
        <time>2024-05-08T13:22:53Z</time>
      </trkpt>
      <trkpt lat="49.86691" lon="4.74738">
        <ele>290</ele>
        <time>2024-05-08T13:22:54Z</time>
      </trkpt>
      <trkpt lat="49.86692" lon="4.74738">
        <ele>290</ele>
        <time>2024-05-08T13:22:55Z</time>
      </trkpt>
      <trkpt lat="49.86693" lon="4.74739">
        <ele>291</ele>
        <time>2024-05-08T13:22:56Z</time>
      </trkpt>
      <trkpt lat="49.86694" lon="4.7474">
        <ele>291</ele>
        <time>2024-05-08T13:22:57Z</time>
      </trkpt>
      <trkpt lat="49.86695" lon="4.7474">
        <ele>291</ele>
        <time>2024-05-08T13:22:58Z</time>
      </trkpt>
      <trkpt lat="49.86695" lon="4.74741">
        <ele>291</ele>
        <time>2024-05-08T13:22:59Z</time>
      </trkpt>
      <trkpt lat="49.86696" lon="4.74741">
        <ele>291</ele>
        <time>2024-05-08T13:23:00Z</time>
      </trkpt>
      <trkpt lat="49.86697" lon="4.74742">
        <ele>292</ele>
        <time>2024-05-08T13:23:01Z</time>
      </trkpt>
      <trkpt lat="49.86698" lon="4.74742">
        <ele>292</ele>
        <time>2024-05-08T13:23:02Z</time>
      </trkpt>
      <trkpt lat="49.86698" lon="4.74743">
        <ele>292</ele>
        <time>2024-05-08T13:23:03Z</time>
      </trkpt>
      <trkpt lat="49.86699" lon="4.74744">
        <ele>292</ele>
        <time>2024-05-08T13:23:04Z</time>
      </trkpt>
      <trkpt lat="49.86699" lon="4.74745">
        <ele>292</ele>
        <time>2024-05-08T13:23:05Z</time>
      </trkpt>
      <trkpt lat="49.867" lon="4.74746">
        <ele>292</ele>
        <time>2024-05-08T13:23:06Z</time>
      </trkpt>
      <trkpt lat="49.867" lon="4.74747">
        <ele>292</ele>
        <time>2024-05-08T13:23:07Z</time>
      </trkpt>
      <trkpt lat="49.86701" lon="4.74748">
        <ele>292</ele>
        <time>2024-05-08T13:23:08Z</time>
      </trkpt>
      <trkpt lat="49.86701" lon="4.74749">
        <ele>292</ele>
        <time>2024-05-08T13:23:09Z</time>
      </trkpt>
      <trkpt lat="49.86702" lon="4.7475">
        <ele>292</ele>
        <time>2024-05-08T13:23:10Z</time>
      </trkpt>
      <trkpt lat="49.86702" lon="4.74751">
        <ele>293</ele>
        <time>2024-05-08T13:23:11Z</time>
      </trkpt>
      <trkpt lat="49.86703" lon="4.74752">
        <ele>293</ele>
        <time>2024-05-08T13:23:12Z</time>
      </trkpt>
      <trkpt lat="49.86704" lon="4.74753">
        <ele>293</ele>
        <time>2024-05-08T13:23:13Z</time>
      </trkpt>
      <trkpt lat="49.86705" lon="4.74754">
        <ele>293</ele>
        <time>2024-05-08T13:23:14Z</time>
      </trkpt>
      <trkpt lat="49.86706" lon="4.74755">
        <ele>293</ele>
        <time>2024-05-08T13:23:15Z</time>
      </trkpt>
      <trkpt lat="49.86707" lon="4.74756">
        <ele>293</ele>
        <time>2024-05-08T13:23:16Z</time>
      </trkpt>
      <trkpt lat="49.86708" lon="4.74757">
        <ele>293</ele>
        <time>2024-05-08T13:23:17Z</time>
      </trkpt>
      <trkpt lat="49.86709" lon="4.74758">
        <ele>293</ele>
        <time>2024-05-08T13:23:18Z</time>
      </trkpt>
      <trkpt lat="49.86709" lon="4.74759">
        <ele>293</ele>
        <time>2024-05-08T13:23:19Z</time>
      </trkpt>
      <trkpt lat="49.8671" lon="4.7476">
        <ele>293</ele>
        <time>2024-05-08T13:23:20Z</time>
      </trkpt>
      <trkpt lat="49.86711" lon="4.7476">
        <ele>294</ele>
        <time>2024-05-08T13:23:21Z</time>
      </trkpt>
      <trkpt lat="49.86711" lon="4.74761">
        <ele>294</ele>
        <time>2024-05-08T13:23:22Z</time>
      </trkpt>
      <trkpt lat="49.86712" lon="4.74762">
        <ele>294</ele>
        <time>2024-05-08T13:23:23Z</time>
      </trkpt>
      <trkpt lat="49.86712" lon="4.74763">
        <ele>294</ele>
        <time>2024-05-08T13:23:24Z</time>
      </trkpt>
      <trkpt lat="49.86713" lon="4.74763">
        <ele>294</ele>
        <time>2024-05-08T13:23:25Z</time>
      </trkpt>
      <trkpt lat="49.86713" lon="4.74764">
        <ele>294</ele>
        <time>2024-05-08T13:23:26Z</time>
      </trkpt>
      <trkpt lat="49.86714" lon="4.74765">
        <ele>294</ele>
        <time>2024-05-08T13:23:27Z</time>
      </trkpt>
      <trkpt lat="49.86715" lon="4.74766">
        <ele>294</ele>
        <time>2024-05-08T13:23:28Z</time>
      </trkpt>
      <trkpt lat="49.86716" lon="4.74767">
        <ele>294</ele>
        <time>2024-05-08T13:23:29Z</time>
      </trkpt>
      <trkpt lat="49.86717" lon="4.74769">
        <ele>294</ele>
        <time>2024-05-08T13:23:30Z</time>
      </trkpt>
      <trkpt lat="49.86718" lon="4.7477">
        <ele>295</ele>
        <time>2024-05-08T13:23:31Z</time>
      </trkpt>
      <trkpt lat="49.86719" lon="4.74771">
        <ele>294</ele>
        <time>2024-05-08T13:23:32Z</time>
      </trkpt>
      <trkpt lat="49.8672" lon="4.74772">
        <ele>294</ele>
        <time>2024-05-08T13:23:33Z</time>
      </trkpt>
      <trkpt lat="49.86722" lon="4.74774">
        <ele>294</ele>
        <time>2024-05-08T13:23:34Z</time>
      </trkpt>
      <trkpt lat="49.86723" lon="4.74775">
        <ele>294</ele>
        <time>2024-05-08T13:23:35Z</time>
      </trkpt>
      <trkpt lat="49.86724" lon="4.74776">
        <ele>294</ele>
        <time>2024-05-08T13:23:36Z</time>
      </trkpt>
      <trkpt lat="49.86725" lon="4.74777">
        <ele>294</ele>
        <time>2024-05-08T13:23:37Z</time>
      </trkpt>
      <trkpt lat="49.86727" lon="4.74778">
        <ele>294</ele>
        <time>2024-05-08T13:23:38Z</time>
      </trkpt>
      <trkpt lat="49.86728" lon="4.74779">
        <ele>294</ele>
        <time>2024-05-08T13:23:39Z</time>
      </trkpt>
      <trkpt lat="49.86729" lon="4.7478">
        <ele>294</ele>
        <time>2024-05-08T13:23:40Z</time>
      </trkpt>
      <trkpt lat="49.8673" lon="4.7478">
        <ele>294</ele>
        <time>2024-05-08T13:23:41Z</time>
      </trkpt>
      <trkpt lat="49.86731" lon="4.74781">
        <ele>294</ele>
        <time>2024-05-08T13:23:42Z</time>
      </trkpt>
      <trkpt lat="49.86731" lon="4.74782">
        <ele>294</ele>
        <time>2024-05-08T13:23:43Z</time>
      </trkpt>
      <trkpt lat="49.86733" lon="4.74783">
        <ele>294</ele>
        <time>2024-05-08T13:23:44Z</time>
      </trkpt>
      <trkpt lat="49.86733" lon="4.74783">
        <ele>294</ele>
        <time>2024-05-08T13:23:45Z</time>
      </trkpt>
      <trkpt lat="49.86734" lon="4.74784">
        <ele>294</ele>
        <time>2024-05-08T13:23:46Z</time>
      </trkpt>
      <trkpt lat="49.86735" lon="4.74785">
        <ele>294</ele>
        <time>2024-05-08T13:23:47Z</time>
      </trkpt>
      <trkpt lat="49.86736" lon="4.74785">
        <ele>294</ele>
        <time>2024-05-08T13:23:48Z</time>
      </trkpt>
      <trkpt lat="49.86737" lon="4.74786">
        <ele>294</ele>
        <time>2024-05-08T13:23:49Z</time>
      </trkpt>
      <trkpt lat="49.86738" lon="4.74786">
        <ele>294</ele>
        <time>2024-05-08T13:23:50Z</time>
      </trkpt>
      <trkpt lat="49.86739" lon="4.74787">
        <ele>294</ele>
        <time>2024-05-08T13:23:51Z</time>
      </trkpt>
      <trkpt lat="49.8674" lon="4.74787">
        <ele>294</ele>
        <time>2024-05-08T13:23:52Z</time>
      </trkpt>
      <trkpt lat="49.8674" lon="4.74787">
        <ele>294</ele>
        <time>2024-05-08T13:23:53Z</time>
      </trkpt>
      <trkpt lat="49.86741" lon="4.74788">
        <ele>294</ele>
        <time>2024-05-08T13:23:54Z</time>
      </trkpt>
      <trkpt lat="49.86742" lon="4.74788">
        <ele>294</ele>
        <time>2024-05-08T13:23:55Z</time>
      </trkpt>
      <trkpt lat="49.86743" lon="4.74789">
        <ele>294</ele>
        <time>2024-05-08T13:23:56Z</time>
      </trkpt>
      <trkpt lat="49.86744" lon="4.7479">
        <ele>294</ele>
        <time>2024-05-08T13:23:57Z</time>
      </trkpt>
      <trkpt lat="49.86744" lon="4.74791">
        <ele>294</ele>
        <time>2024-05-08T13:23:58Z</time>
      </trkpt>
      <trkpt lat="49.86745" lon="4.74792">
        <ele>294</ele>
        <time>2024-05-08T13:23:59Z</time>
      </trkpt>
      <trkpt lat="49.86748" lon="4.74794">
        <ele>294</ele>
        <time>2024-05-08T13:24:06Z</time>
      </trkpt>
      <trkpt lat="49.86748" lon="4.74795">
        <ele>294</ele>
        <time>2024-05-08T13:24:07Z</time>
      </trkpt>
      <trkpt lat="49.86749" lon="4.74796">
        <ele>294</ele>
        <time>2024-05-08T13:24:08Z</time>
      </trkpt>
      <trkpt lat="49.86749" lon="4.74797">
        <ele>294</ele>
        <time>2024-05-08T13:24:09Z</time>
      </trkpt>
      <trkpt lat="49.86749" lon="4.74798">
        <ele>294</ele>
        <time>2024-05-08T13:24:10Z</time>
      </trkpt>
      <trkpt lat="49.86749" lon="4.74798">
        <ele>295</ele>
        <time>2024-05-08T13:24:11Z</time>
      </trkpt>
      <trkpt lat="49.86749" lon="4.74799">
        <ele>295</ele>
        <time>2024-05-08T13:24:12Z</time>
      </trkpt>
      <trkpt lat="49.86749" lon="4.74799">
        <ele>295</ele>
        <time>2024-05-08T13:24:13Z</time>
      </trkpt>
      <trkpt lat="49.86749" lon="4.748">
        <ele>295</ele>
        <time>2024-05-08T13:24:14Z</time>
      </trkpt>
      <trkpt lat="49.86749" lon="4.74801">
        <ele>295</ele>
        <time>2024-05-08T13:24:15Z</time>
      </trkpt>
      <trkpt lat="49.86749" lon="4.74801">
        <ele>296</ele>
        <time>2024-05-08T13:24:16Z</time>
      </trkpt>
      <trkpt lat="49.86749" lon="4.74802">
        <ele>296</ele>
        <time>2024-05-08T13:24:17Z</time>
      </trkpt>
      <trkpt lat="49.8675" lon="4.74803">
        <ele>296</ele>
        <time>2024-05-08T13:24:18Z</time>
      </trkpt>
      <trkpt lat="49.8675" lon="4.74804">
        <ele>296</ele>
        <time>2024-05-08T13:24:19Z</time>
      </trkpt>
      <trkpt lat="49.86751" lon="4.74804">
        <ele>296</ele>
        <time>2024-05-08T13:24:20Z</time>
      </trkpt>
      <trkpt lat="49.86751" lon="4.74805">
        <ele>296</ele>
        <time>2024-05-08T13:24:21Z</time>
      </trkpt>
      <trkpt lat="49.86751" lon="4.74806">
        <ele>296</ele>
        <time>2024-05-08T13:24:22Z</time>
      </trkpt>
      <trkpt lat="49.86752" lon="4.74806">
        <ele>296</ele>
        <time>2024-05-08T13:24:23Z</time>
      </trkpt>
      <trkpt lat="49.86752" lon="4.74807">
        <ele>296</ele>
        <time>2024-05-08T13:24:24Z</time>
      </trkpt>
      <trkpt lat="49.86753" lon="4.74807">
        <ele>296</ele>
        <time>2024-05-08T13:24:25Z</time>
      </trkpt>
      <trkpt lat="49.86754" lon="4.74808">
        <ele>297</ele>
        <time>2024-05-08T13:24:26Z</time>
      </trkpt>
      <trkpt lat="49.86754" lon="4.74808">
        <ele>297</ele>
        <time>2024-05-08T13:24:27Z</time>
      </trkpt>
      <trkpt lat="49.86755" lon="4.74809">
        <ele>297</ele>
        <time>2024-05-08T13:24:28Z</time>
      </trkpt>
      <trkpt lat="49.86755" lon="4.74809">
        <ele>297</ele>
        <time>2024-05-08T13:24:29Z</time>
      </trkpt>
      <trkpt lat="49.86756" lon="4.7481">
        <ele>297</ele>
        <time>2024-05-08T13:24:30Z</time>
      </trkpt>
      <trkpt lat="49.86757" lon="4.74811">
        <ele>297</ele>
        <time>2024-05-08T13:24:31Z</time>
      </trkpt>
      <trkpt lat="49.86759" lon="4.74814">
        <ele>299</ele>
        <time>2024-05-08T13:24:44Z</time>
      </trkpt>
      <trkpt lat="49.86761" lon="4.74816">
        <ele>299</ele>
        <time>2024-05-08T13:24:45Z</time>
      </trkpt>
      <trkpt lat="49.86762" lon="4.74817">
        <ele>300</ele>
        <time>2024-05-08T13:24:46Z</time>
      </trkpt>
      <trkpt lat="49.86763" lon="4.74819">
        <ele>300</ele>
        <time>2024-05-08T13:24:47Z</time>
      </trkpt>
      <trkpt lat="49.86765" lon="4.7482">
        <ele>300</ele>
        <time>2024-05-08T13:24:48Z</time>
      </trkpt>
      <trkpt lat="49.86766" lon="4.74821">
        <ele>300</ele>
        <time>2024-05-08T13:24:49Z</time>
      </trkpt>
      <trkpt lat="49.86767" lon="4.74822">
        <ele>300</ele>
        <time>2024-05-08T13:24:50Z</time>
      </trkpt>
      <trkpt lat="49.86768" lon="4.74823">
        <ele>300</ele>
        <time>2024-05-08T13:24:51Z</time>
      </trkpt>
      <trkpt lat="49.86768" lon="4.74824">
        <ele>300</ele>
        <time>2024-05-08T13:24:52Z</time>
      </trkpt>
      <trkpt lat="49.86769" lon="4.74824">
        <ele>300</ele>
        <time>2024-05-08T13:24:53Z</time>
      </trkpt>
      <trkpt lat="49.8677" lon="4.74825">
        <ele>300</ele>
        <time>2024-05-08T13:24:54Z</time>
      </trkpt>
      <trkpt lat="49.8677" lon="4.74826">
        <ele>300</ele>
        <time>2024-05-08T13:24:55Z</time>
      </trkpt>
      <trkpt lat="49.86771" lon="4.74827">
        <ele>301</ele>
        <time>2024-05-08T13:24:56Z</time>
      </trkpt>
      <trkpt lat="49.86772" lon="4.74827">
        <ele>301</ele>
        <time>2024-05-08T13:25:04Z</time>
      </trkpt>
      <trkpt lat="49.86773" lon="4.74828">
        <ele>301</ele>
        <time>2024-05-08T13:25:05Z</time>
      </trkpt>
      <trkpt lat="49.86774" lon="4.74829">
        <ele>302</ele>
        <time>2024-05-08T13:25:06Z</time>
      </trkpt>
      <trkpt lat="49.86774" lon="4.7483">
        <ele>302</ele>
        <time>2024-05-08T13:25:07Z</time>
      </trkpt>
      <trkpt lat="49.86775" lon="4.74831">
        <ele>302</ele>
        <time>2024-05-08T13:25:08Z</time>
      </trkpt>
      <trkpt lat="49.86776" lon="4.74832">
        <ele>302</ele>
        <time>2024-05-08T13:25:09Z</time>
      </trkpt>
      <trkpt lat="49.86776" lon="4.74833">
        <ele>302</ele>
        <time>2024-05-08T13:25:10Z</time>
      </trkpt>
      <trkpt lat="49.86777" lon="4.74834">
        <ele>302</ele>
        <time>2024-05-08T13:25:11Z</time>
      </trkpt>
      <trkpt lat="49.86778" lon="4.74836">
        <ele>302</ele>
        <time>2024-05-08T13:25:12Z</time>
      </trkpt>
      <trkpt lat="49.86778" lon="4.74837">
        <ele>302</ele>
        <time>2024-05-08T13:25:13Z</time>
      </trkpt>
      <trkpt lat="49.86778" lon="4.74838">
        <ele>302</ele>
        <time>2024-05-08T13:25:14Z</time>
      </trkpt>
      <trkpt lat="49.86779" lon="4.74839">
        <ele>302</ele>
        <time>2024-05-08T13:25:15Z</time>
      </trkpt>
      <trkpt lat="49.86779" lon="4.74839">
        <ele>303</ele>
        <time>2024-05-08T13:25:16Z</time>
      </trkpt>
      <trkpt lat="49.86779" lon="4.7484">
        <ele>303</ele>
        <time>2024-05-08T13:25:17Z</time>
      </trkpt>
      <trkpt lat="49.8678" lon="4.7484">
        <ele>303</ele>
        <time>2024-05-08T13:25:18Z</time>
      </trkpt>
      <trkpt lat="49.86781" lon="4.74841">
        <ele>303</ele>
        <time>2024-05-08T13:25:19Z</time>
      </trkpt>
      <trkpt lat="49.86782" lon="4.74841">
        <ele>303</ele>
        <time>2024-05-08T13:25:20Z</time>
      </trkpt>
      <trkpt lat="49.86783" lon="4.74841">
        <ele>304</ele>
        <time>2024-05-08T13:25:21Z</time>
      </trkpt>
      <trkpt lat="49.86784" lon="4.74842">
        <ele>304</ele>
        <time>2024-05-08T13:25:22Z</time>
      </trkpt>
      <trkpt lat="49.86785" lon="4.74842">
        <ele>304</ele>
        <time>2024-05-08T13:25:23Z</time>
      </trkpt>
      <trkpt lat="49.86786" lon="4.74844">
        <ele>304</ele>
        <time>2024-05-08T13:25:24Z</time>
      </trkpt>
      <trkpt lat="49.86787" lon="4.74845">
        <ele>304</ele>
        <time>2024-05-08T13:25:25Z</time>
      </trkpt>
      <trkpt lat="49.86788" lon="4.74847">
        <ele>304</ele>
        <time>2024-05-08T13:25:26Z</time>
      </trkpt>
      <trkpt lat="49.86789" lon="4.74848">
        <ele>304</ele>
        <time>2024-05-08T13:25:27Z</time>
      </trkpt>
      <trkpt lat="49.8679" lon="4.7485">
        <ele>304</ele>
        <time>2024-05-08T13:25:28Z</time>
      </trkpt>
      <trkpt lat="49.86791" lon="4.74852">
        <ele>304</ele>
        <time>2024-05-08T13:25:29Z</time>
      </trkpt>
      <trkpt lat="49.86791" lon="4.74854">
        <ele>304</ele>
        <time>2024-05-08T13:25:30Z</time>
      </trkpt>
      <trkpt lat="49.86791" lon="4.74855">
        <ele>305</ele>
        <time>2024-05-08T13:25:31Z</time>
      </trkpt>
      <trkpt lat="49.86792" lon="4.74856">
        <ele>305</ele>
        <time>2024-05-08T13:25:32Z</time>
      </trkpt>
      <trkpt lat="49.86792" lon="4.74857">
        <ele>305</ele>
        <time>2024-05-08T13:25:33Z</time>
      </trkpt>
      <trkpt lat="49.86793" lon="4.74859">
        <ele>305</ele>
        <time>2024-05-08T13:25:34Z</time>
      </trkpt>
      <trkpt lat="49.86793" lon="4.7486">
        <ele>305</ele>
        <time>2024-05-08T13:25:35Z</time>
      </trkpt>
      <trkpt lat="49.86794" lon="4.74861">
        <ele>306</ele>
        <time>2024-05-08T13:25:36Z</time>
      </trkpt>
      <trkpt lat="49.86795" lon="4.74862">
        <ele>306</ele>
        <time>2024-05-08T13:25:37Z</time>
      </trkpt>
      <trkpt lat="49.86795" lon="4.74863">
        <ele>306</ele>
        <time>2024-05-08T13:25:38Z</time>
      </trkpt>
      <trkpt lat="49.86796" lon="4.74864">
        <ele>306</ele>
        <time>2024-05-08T13:25:39Z</time>
      </trkpt>
      <trkpt lat="49.86796" lon="4.74864">
        <ele>306</ele>
        <time>2024-05-08T13:25:40Z</time>
      </trkpt>
      <trkpt lat="49.86796" lon="4.74865">
        <ele>307</ele>
        <time>2024-05-08T13:25:41Z</time>
      </trkpt>
      <trkpt lat="49.86797" lon="4.74866">
        <ele>307</ele>
        <time>2024-05-08T13:25:42Z</time>
      </trkpt>
      <trkpt lat="49.86797" lon="4.74867">
        <ele>307</ele>
        <time>2024-05-08T13:25:43Z</time>
      </trkpt>
      <trkpt lat="49.86797" lon="4.74868">
        <ele>308</ele>
        <time>2024-05-08T13:25:44Z</time>
      </trkpt>
      <trkpt lat="49.86797" lon="4.74869">
        <ele>308</ele>
        <time>2024-05-08T13:25:45Z</time>
      </trkpt>
      <trkpt lat="49.86798" lon="4.74871">
        <ele>309</ele>
        <time>2024-05-08T13:25:46Z</time>
      </trkpt>
      <trkpt lat="49.86798" lon="4.74872">
        <ele>309</ele>
        <time>2024-05-08T13:25:47Z</time>
      </trkpt>
      <trkpt lat="49.86799" lon="4.74873">
        <ele>309</ele>
        <time>2024-05-08T13:25:48Z</time>
      </trkpt>
      <trkpt lat="49.86799" lon="4.74875">
        <ele>309</ele>
        <time>2024-05-08T13:25:49Z</time>
      </trkpt>
      <trkpt lat="49.868" lon="4.74876">
        <ele>309</ele>
        <time>2024-05-08T13:25:50Z</time>
      </trkpt>
      <trkpt lat="49.868" lon="4.74877">
        <ele>309</ele>
        <time>2024-05-08T13:25:51Z</time>
      </trkpt>
      <trkpt lat="49.86801" lon="4.74879">
        <ele>309</ele>
        <time>2024-05-08T13:25:52Z</time>
      </trkpt>
      <trkpt lat="49.86802" lon="4.7488">
        <ele>309</ele>
        <time>2024-05-08T13:25:53Z</time>
      </trkpt>
      <trkpt lat="49.86802" lon="4.74881">
        <ele>309</ele>
        <time>2024-05-08T13:25:54Z</time>
      </trkpt>
      <trkpt lat="49.86804" lon="4.74882">
        <ele>309</ele>
        <time>2024-05-08T13:25:55Z</time>
      </trkpt>
      <trkpt lat="49.86805" lon="4.74883">
        <ele>310</ele>
        <time>2024-05-08T13:25:56Z</time>
      </trkpt>
      <trkpt lat="49.86806" lon="4.74884">
        <ele>310</ele>
        <time>2024-05-08T13:25:57Z</time>
      </trkpt>
      <trkpt lat="49.86807" lon="4.74885">
        <ele>310</ele>
        <time>2024-05-08T13:25:58Z</time>
      </trkpt>
      <trkpt lat="49.86808" lon="4.74886">
        <ele>310</ele>
        <time>2024-05-08T13:25:59Z</time>
      </trkpt>
      <trkpt lat="49.8681" lon="4.74887">
        <ele>310</ele>
        <time>2024-05-08T13:26:00Z</time>
      </trkpt>
      <trkpt lat="49.86811" lon="4.74887">
        <ele>310</ele>
        <time>2024-05-08T13:26:01Z</time>
      </trkpt>
      <trkpt lat="49.86812" lon="4.74887">
        <ele>310</ele>
        <time>2024-05-08T13:26:02Z</time>
      </trkpt>
      <trkpt lat="49.86813" lon="4.74887">
        <ele>310</ele>
        <time>2024-05-08T13:26:03Z</time>
      </trkpt>
      <trkpt lat="49.86814" lon="4.74887">
        <ele>310</ele>
        <time>2024-05-08T13:26:04Z</time>
      </trkpt>
      <trkpt lat="49.86815" lon="4.74887">
        <ele>310</ele>
        <time>2024-05-08T13:26:05Z</time>
      </trkpt>
      <trkpt lat="49.86815" lon="4.74887">
        <ele>311</ele>
        <time>2024-05-08T13:26:06Z</time>
      </trkpt>
      <trkpt lat="49.86817" lon="4.74887">
        <ele>311</ele>
        <time>2024-05-08T13:26:07Z</time>
      </trkpt>
      <trkpt lat="49.86818" lon="4.74888">
        <ele>311</ele>
        <time>2024-05-08T13:26:08Z</time>
      </trkpt>
      <trkpt lat="49.86819" lon="4.74889">
        <ele>311</ele>
        <time>2024-05-08T13:26:09Z</time>
      </trkpt>
      <trkpt lat="49.8682" lon="4.74889">
        <ele>311</ele>
        <time>2024-05-08T13:26:10Z</time>
      </trkpt>
      <trkpt lat="49.86822" lon="4.74891">
        <ele>311</ele>
        <time>2024-05-08T13:26:11Z</time>
      </trkpt>
      <trkpt lat="49.86823" lon="4.74892">
        <ele>311</ele>
        <time>2024-05-08T13:26:12Z</time>
      </trkpt>
      <trkpt lat="49.86824" lon="4.74893">
        <ele>311</ele>
        <time>2024-05-08T13:26:13Z</time>
      </trkpt>
      <trkpt lat="49.86825" lon="4.74894">
        <ele>311</ele>
        <time>2024-05-08T13:26:14Z</time>
      </trkpt>
      <trkpt lat="49.86825" lon="4.74895">
        <ele>311</ele>
        <time>2024-05-08T13:26:15Z</time>
      </trkpt>
      <trkpt lat="49.86826" lon="4.74895">
        <ele>312</ele>
        <time>2024-05-08T13:26:16Z</time>
      </trkpt>
      <trkpt lat="49.86827" lon="4.74896">
        <ele>312</ele>
        <time>2024-05-08T13:26:17Z</time>
      </trkpt>
      <trkpt lat="49.86829" lon="4.74898">
        <ele>312</ele>
        <time>2024-05-08T13:26:23Z</time>
      </trkpt>
      <trkpt lat="49.8683" lon="4.74899">
        <ele>312</ele>
        <time>2024-05-08T13:26:24Z</time>
      </trkpt>
      <trkpt lat="49.86831" lon="4.749">
        <ele>312</ele>
        <time>2024-05-08T13:26:25Z</time>
      </trkpt>
      <trkpt lat="49.86832" lon="4.74901">
        <ele>313</ele>
        <time>2024-05-08T13:26:26Z</time>
      </trkpt>
      <trkpt lat="49.86832" lon="4.74902">
        <ele>313</ele>
        <time>2024-05-08T13:26:27Z</time>
      </trkpt>
      <trkpt lat="49.86833" lon="4.74903">
        <ele>313</ele>
        <time>2024-05-08T13:26:28Z</time>
      </trkpt>
      <trkpt lat="49.86834" lon="4.74903">
        <ele>313</ele>
        <time>2024-05-08T13:26:29Z</time>
      </trkpt>
      <trkpt lat="49.86835" lon="4.74904">
        <ele>313</ele>
        <time>2024-05-08T13:26:30Z</time>
      </trkpt>
      <trkpt lat="49.86837" lon="4.74905">
        <ele>313</ele>
        <time>2024-05-08T13:26:31Z</time>
      </trkpt>
      <trkpt lat="49.86838" lon="4.74906">
        <ele>313</ele>
        <time>2024-05-08T13:26:32Z</time>
      </trkpt>
      <trkpt lat="49.86839" lon="4.74906">
        <ele>313</ele>
        <time>2024-05-08T13:26:33Z</time>
      </trkpt>
      <trkpt lat="49.8684" lon="4.74907">
        <ele>313</ele>
        <time>2024-05-08T13:26:34Z</time>
      </trkpt>
      <trkpt lat="49.86841" lon="4.74908">
        <ele>313</ele>
        <time>2024-05-08T13:26:35Z</time>
      </trkpt>
      <trkpt lat="49.86842" lon="4.74909">
        <ele>313</ele>
        <time>2024-05-08T13:26:36Z</time>
      </trkpt>
      <trkpt lat="49.86843" lon="4.7491">
        <ele>313</ele>
        <time>2024-05-08T13:26:37Z</time>
      </trkpt>
      <trkpt lat="49.86843" lon="4.74911">
        <ele>313</ele>
        <time>2024-05-08T13:26:38Z</time>
      </trkpt>
      <trkpt lat="49.86844" lon="4.74912">
        <ele>313</ele>
        <time>2024-05-08T13:26:39Z</time>
      </trkpt>
      <trkpt lat="49.86845" lon="4.74914">
        <ele>313</ele>
        <time>2024-05-08T13:26:40Z</time>
      </trkpt>
      <trkpt lat="49.86845" lon="4.74915">
        <ele>314</ele>
        <time>2024-05-08T13:26:41Z</time>
      </trkpt>
      <trkpt lat="49.86845" lon="4.74916">
        <ele>314</ele>
        <time>2024-05-08T13:26:42Z</time>
      </trkpt>
      <trkpt lat="49.86846" lon="4.74918">
        <ele>314</ele>
        <time>2024-05-08T13:26:43Z</time>
      </trkpt>
      <trkpt lat="49.86846" lon="4.74919">
        <ele>314</ele>
        <time>2024-05-08T13:26:44Z</time>
      </trkpt>
      <trkpt lat="49.86846" lon="4.7492">
        <ele>314</ele>
        <time>2024-05-08T13:26:45Z</time>
      </trkpt>
      <trkpt lat="49.86846" lon="4.74922">
        <ele>314</ele>
        <time>2024-05-08T13:26:46Z</time>
      </trkpt>
      <trkpt lat="49.86846" lon="4.74923">
        <ele>314</ele>
        <time>2024-05-08T13:26:47Z</time>
      </trkpt>
      <trkpt lat="49.86847" lon="4.74925">
        <ele>314</ele>
        <time>2024-05-08T13:26:48Z</time>
      </trkpt>
      <trkpt lat="49.86847" lon="4.74926">
        <ele>314</ele>
        <time>2024-05-08T13:26:49Z</time>
      </trkpt>
      <trkpt lat="49.86847" lon="4.74927">
        <ele>314</ele>
        <time>2024-05-08T13:26:50Z</time>
      </trkpt>
      <trkpt lat="49.86848" lon="4.74928">
        <ele>315</ele>
        <time>2024-05-08T13:26:51Z</time>
      </trkpt>
      <trkpt lat="49.86848" lon="4.7493">
        <ele>315</ele>
        <time>2024-05-08T13:26:52Z</time>
      </trkpt>
      <trkpt lat="49.86848" lon="4.74931">
        <ele>315</ele>
        <time>2024-05-08T13:26:53Z</time>
      </trkpt>
      <trkpt lat="49.86849" lon="4.74932">
        <ele>315</ele>
        <time>2024-05-08T13:26:54Z</time>
      </trkpt>
      <trkpt lat="49.8685" lon="4.74933">
        <ele>315</ele>
        <time>2024-05-08T13:26:55Z</time>
      </trkpt>
      <trkpt lat="49.86851" lon="4.74933">
        <ele>316</ele>
        <time>2024-05-08T13:26:56Z</time>
      </trkpt>
      <trkpt lat="49.86851" lon="4.74934">
        <ele>316</ele>
        <time>2024-05-08T13:26:57Z</time>
      </trkpt>
      <trkpt lat="49.86852" lon="4.74935">
        <ele>316</ele>
        <time>2024-05-08T13:26:58Z</time>
      </trkpt>
      <trkpt lat="49.86852" lon="4.74936">
        <ele>316</ele>
        <time>2024-05-08T13:26:59Z</time>
      </trkpt>
      <trkpt lat="49.86853" lon="4.74937">
        <ele>316</ele>
        <time>2024-05-08T13:27:00Z</time>
      </trkpt>
      <trkpt lat="49.86853" lon="4.74938">
        <ele>317</ele>
        <time>2024-05-08T13:27:01Z</time>
      </trkpt>
      <trkpt lat="49.86854" lon="4.74939">
        <ele>317</ele>
        <time>2024-05-08T13:27:02Z</time>
      </trkpt>
      <trkpt lat="49.86855" lon="4.7494">
        <ele>317</ele>
        <time>2024-05-08T13:27:03Z</time>
      </trkpt>
      <trkpt lat="49.86856" lon="4.74941">
        <ele>317</ele>
        <time>2024-05-08T13:27:04Z</time>
      </trkpt>
      <trkpt lat="49.86856" lon="4.74943">
        <ele>317</ele>
        <time>2024-05-08T13:27:05Z</time>
      </trkpt>
      <trkpt lat="49.86857" lon="4.74944">
        <ele>318</ele>
        <time>2024-05-08T13:27:06Z</time>
      </trkpt>
      <trkpt lat="49.86857" lon="4.74945">
        <ele>318</ele>
        <time>2024-05-08T13:27:07Z</time>
      </trkpt>
      <trkpt lat="49.86858" lon="4.74946">
        <ele>318</ele>
        <time>2024-05-08T13:27:08Z</time>
      </trkpt>
      <trkpt lat="49.86858" lon="4.74948">
        <ele>318</ele>
        <time>2024-05-08T13:27:09Z</time>
      </trkpt>
      <trkpt lat="49.86858" lon="4.74949">
        <ele>318</ele>
        <time>2024-05-08T13:27:10Z</time>
      </trkpt>
      <trkpt lat="49.86858" lon="4.7495">
        <ele>318</ele>
        <time>2024-05-08T13:27:11Z</time>
      </trkpt>
      <trkpt lat="49.86858" lon="4.74951">
        <ele>318</ele>
        <time>2024-05-08T13:27:12Z</time>
      </trkpt>
      <trkpt lat="49.86858" lon="4.74952">
        <ele>318</ele>
        <time>2024-05-08T13:27:13Z</time>
      </trkpt>
      <trkpt lat="49.86858" lon="4.74952">
        <ele>318</ele>
        <time>2024-05-08T13:27:14Z</time>
      </trkpt>
      <trkpt lat="49.86859" lon="4.74953">
        <ele>318</ele>
        <time>2024-05-08T13:27:15Z</time>
      </trkpt>
      <trkpt lat="49.86859" lon="4.74954">
        <ele>319</ele>
        <time>2024-05-08T13:27:16Z</time>
      </trkpt>
      <trkpt lat="49.86859" lon="4.74955">
        <ele>319</ele>
        <time>2024-05-08T13:27:17Z</time>
      </trkpt>
      <trkpt lat="49.8686" lon="4.74955">
        <ele>319</ele>
        <time>2024-05-08T13:27:18Z</time>
      </trkpt>
      <trkpt lat="49.8686" lon="4.74956">
        <ele>319</ele>
        <time>2024-05-08T13:27:19Z</time>
      </trkpt>
      <trkpt lat="49.8686" lon="4.74958">
        <ele>319</ele>
        <time>2024-05-08T13:27:20Z</time>
      </trkpt>
      <trkpt lat="49.8686" lon="4.74958">
        <ele>320</ele>
        <time>2024-05-08T13:27:21Z</time>
      </trkpt>
      <trkpt lat="49.8686" lon="4.74959">
        <ele>320</ele>
        <time>2024-05-08T13:27:22Z</time>
      </trkpt>
      <trkpt lat="49.8686" lon="4.7496">
        <ele>320</ele>
        <time>2024-05-08T13:27:23Z</time>
      </trkpt>
      <trkpt lat="49.8686" lon="4.74961">
        <ele>320</ele>
        <time>2024-05-08T13:27:24Z</time>
      </trkpt>
      <trkpt lat="49.86859" lon="4.74963">
        <ele>320</ele>
        <time>2024-05-08T13:27:25Z</time>
      </trkpt>
      <trkpt lat="49.86859" lon="4.74963">
        <ele>321</ele>
        <time>2024-05-08T13:27:26Z</time>
      </trkpt>
      <trkpt lat="49.86859" lon="4.74964">
        <ele>321</ele>
        <time>2024-05-08T13:27:27Z</time>
      </trkpt>
      <trkpt lat="49.86859" lon="4.74964">
        <ele>321</ele>
        <time>2024-05-08T13:27:28Z</time>
      </trkpt>
      <trkpt lat="49.86859" lon="4.74965">
        <ele>321</ele>
        <time>2024-05-08T13:27:29Z</time>
      </trkpt>
      <trkpt lat="49.86859" lon="4.74965">
        <ele>321</ele>
        <time>2024-05-08T13:27:30Z</time>
      </trkpt>
      <trkpt lat="49.86859" lon="4.74967">
        <ele>322</ele>
        <time>2024-05-08T13:27:31Z</time>
      </trkpt>
      <trkpt lat="49.86859" lon="4.74969">
        <ele>322</ele>
        <time>2024-05-08T13:27:32Z</time>
      </trkpt>
      <trkpt lat="49.86859" lon="4.74971">
        <ele>322</ele>
        <time>2024-05-08T13:27:33Z</time>
      </trkpt>
      <trkpt lat="49.8686" lon="4.74973">
        <ele>322</ele>
        <time>2024-05-08T13:27:34Z</time>
      </trkpt>
      <trkpt lat="49.8686" lon="4.74975">
        <ele>322</ele>
        <time>2024-05-08T13:27:35Z</time>
      </trkpt>
      <trkpt lat="49.8686" lon="4.74977">
        <ele>323</ele>
        <time>2024-05-08T13:27:36Z</time>
      </trkpt>
      <trkpt lat="49.8686" lon="4.74979">
        <ele>323</ele>
        <time>2024-05-08T13:27:37Z</time>
      </trkpt>
      <trkpt lat="49.86861" lon="4.74981">
        <ele>323</ele>
        <time>2024-05-08T13:27:38Z</time>
      </trkpt>
      <trkpt lat="49.86861" lon="4.74983">
        <ele>323</ele>
        <time>2024-05-08T13:27:39Z</time>
      </trkpt>
      <trkpt lat="49.86862" lon="4.74985">
        <ele>323</ele>
        <time>2024-05-08T13:27:40Z</time>
      </trkpt>
      <trkpt lat="49.86863" lon="4.74986">
        <ele>323</ele>
        <time>2024-05-08T13:27:41Z</time>
      </trkpt>
      <trkpt lat="49.86864" lon="4.74987">
        <ele>323</ele>
        <time>2024-05-08T13:27:42Z</time>
      </trkpt>
      <trkpt lat="49.86865" lon="4.74988">
        <ele>323</ele>
        <time>2024-05-08T13:27:43Z</time>
      </trkpt>
      <trkpt lat="49.86866" lon="4.74989">
        <ele>323</ele>
        <time>2024-05-08T13:27:44Z</time>
      </trkpt>
      <trkpt lat="49.86867" lon="4.7499">
        <ele>323</ele>
        <time>2024-05-08T13:27:45Z</time>
      </trkpt>
      <trkpt lat="49.86868" lon="4.74991">
        <ele>324</ele>
        <time>2024-05-08T13:27:46Z</time>
      </trkpt>
      <trkpt lat="49.86868" lon="4.74993">
        <ele>324</ele>
        <time>2024-05-08T13:27:47Z</time>
      </trkpt>
      <trkpt lat="49.86868" lon="4.74994">
        <ele>324</ele>
        <time>2024-05-08T13:27:48Z</time>
      </trkpt>
      <trkpt lat="49.86869" lon="4.74995">
        <ele>324</ele>
        <time>2024-05-08T13:27:49Z</time>
      </trkpt>
      <trkpt lat="49.86869" lon="4.74996">
        <ele>324</ele>
        <time>2024-05-08T13:27:50Z</time>
      </trkpt>
      <trkpt lat="49.8687" lon="4.74997">
        <ele>324</ele>
        <time>2024-05-08T13:27:51Z</time>
      </trkpt>
      <trkpt lat="49.8687" lon="4.74998">
        <ele>324</ele>
        <time>2024-05-08T13:27:52Z</time>
      </trkpt>
      <trkpt lat="49.86871" lon="4.74999">
        <ele>324</ele>
        <time>2024-05-08T13:27:53Z</time>
      </trkpt>
      <trkpt lat="49.86871" lon="4.75">
        <ele>324</ele>
        <time>2024-05-08T13:27:54Z</time>
      </trkpt>
      <trkpt lat="49.86872" lon="4.75001">
        <ele>324</ele>
        <time>2024-05-08T13:27:55Z</time>
      </trkpt>
      <trkpt lat="49.86873" lon="4.75002">
        <ele>325</ele>
        <time>2024-05-08T13:27:56Z</time>
      </trkpt>
      <trkpt lat="49.86874" lon="4.75003">
        <ele>325</ele>
        <time>2024-05-08T13:27:57Z</time>
      </trkpt>
      <trkpt lat="49.86874" lon="4.75004">
        <ele>325</ele>
        <time>2024-05-08T13:27:58Z</time>
      </trkpt>
      <trkpt lat="49.86875" lon="4.75006">
        <ele>325</ele>
        <time>2024-05-08T13:27:59Z</time>
      </trkpt>
      <trkpt lat="49.86875" lon="4.75007">
        <ele>325</ele>
        <time>2024-05-08T13:28:00Z</time>
      </trkpt>
      <trkpt lat="49.86876" lon="4.75009">
        <ele>326</ele>
        <time>2024-05-08T13:28:01Z</time>
      </trkpt>
      <trkpt lat="49.86876" lon="4.75011">
        <ele>326</ele>
        <time>2024-05-08T13:28:02Z</time>
      </trkpt>
      <trkpt lat="49.86876" lon="4.75013">
        <ele>326</ele>
        <time>2024-05-08T13:28:03Z</time>
      </trkpt>
      <trkpt lat="49.86876" lon="4.75014">
        <ele>326</ele>
        <time>2024-05-08T13:28:04Z</time>
      </trkpt>
      <trkpt lat="49.86876" lon="4.75015">
        <ele>326</ele>
        <time>2024-05-08T13:28:05Z</time>
      </trkpt>
      <trkpt lat="49.86877" lon="4.75015">
        <ele>326</ele>
        <time>2024-05-08T13:28:06Z</time>
      </trkpt>
      <trkpt lat="49.86877" lon="4.75016">
        <ele>326</ele>
        <time>2024-05-08T13:28:07Z</time>
      </trkpt>
      <trkpt lat="49.86877" lon="4.75016">
        <ele>326</ele>
        <time>2024-05-08T13:28:08Z</time>
      </trkpt>
      <trkpt lat="49.86877" lon="4.75017">
        <ele>326</ele>
        <time>2024-05-08T13:28:09Z</time>
      </trkpt>
      <trkpt lat="49.86878" lon="4.75018">
        <ele>326</ele>
        <time>2024-05-08T13:28:10Z</time>
      </trkpt>
      <trkpt lat="49.86878" lon="4.75019">
        <ele>326</ele>
        <time>2024-05-08T13:28:11Z</time>
      </trkpt>
      <trkpt lat="49.86879" lon="4.7502">
        <ele>326</ele>
        <time>2024-05-08T13:28:12Z</time>
      </trkpt>
      <trkpt lat="49.8688" lon="4.75021">
        <ele>326</ele>
        <time>2024-05-08T13:28:13Z</time>
      </trkpt>
      <trkpt lat="49.86881" lon="4.75022">
        <ele>326</ele>
        <time>2024-05-08T13:28:14Z</time>
      </trkpt>
      <trkpt lat="49.86882" lon="4.75023">
        <ele>326</ele>
        <time>2024-05-08T13:28:15Z</time>
      </trkpt>
      <trkpt lat="49.86883" lon="4.75023">
        <ele>327</ele>
        <time>2024-05-08T13:28:16Z</time>
      </trkpt>
      <trkpt lat="49.86884" lon="4.75023">
        <ele>327</ele>
        <time>2024-05-08T13:28:17Z</time>
      </trkpt>
      <trkpt lat="49.86885" lon="4.75024">
        <ele>327</ele>
        <time>2024-05-08T13:28:18Z</time>
      </trkpt>
      <trkpt lat="49.86886" lon="4.75024">
        <ele>327</ele>
        <time>2024-05-08T13:28:19Z</time>
      </trkpt>
      <trkpt lat="49.86887" lon="4.75024">
        <ele>327</ele>
        <time>2024-05-08T13:28:20Z</time>
      </trkpt>
      <trkpt lat="49.86888" lon="4.75025">
        <ele>327</ele>
        <time>2024-05-08T13:28:21Z</time>
      </trkpt>
      <trkpt lat="49.86888" lon="4.75026">
        <ele>327</ele>
        <time>2024-05-08T13:28:22Z</time>
      </trkpt>
      <trkpt lat="49.86889" lon="4.75026">
        <ele>327</ele>
        <time>2024-05-08T13:28:23Z</time>
      </trkpt>
      <trkpt lat="49.8689" lon="4.75027">
        <ele>327</ele>
        <time>2024-05-08T13:28:24Z</time>
      </trkpt>
      <trkpt lat="49.8689" lon="4.75027">
        <ele>327</ele>
        <time>2024-05-08T13:28:25Z</time>
      </trkpt>
      <trkpt lat="49.86891" lon="4.75028">
        <ele>328</ele>
        <time>2024-05-08T13:28:26Z</time>
      </trkpt>
      <trkpt lat="49.86892" lon="4.75028">
        <ele>328</ele>
        <time>2024-05-08T13:28:27Z</time>
      </trkpt>
      <trkpt lat="49.86892" lon="4.75029">
        <ele>328</ele>
        <time>2024-05-08T13:28:28Z</time>
      </trkpt>
      <trkpt lat="49.86893" lon="4.7503">
        <ele>328</ele>
        <time>2024-05-08T13:28:29Z</time>
      </trkpt>
      <trkpt lat="49.86894" lon="4.7503">
        <ele>328</ele>
        <time>2024-05-08T13:28:30Z</time>
      </trkpt>
      <trkpt lat="49.86895" lon="4.7503">
        <ele>329</ele>
        <time>2024-05-08T13:28:31Z</time>
      </trkpt>
      <trkpt lat="49.86896" lon="4.75031">
        <ele>329</ele>
        <time>2024-05-08T13:28:32Z</time>
      </trkpt>
      <trkpt lat="49.86897" lon="4.75031">
        <ele>329</ele>
        <time>2024-05-08T13:28:33Z</time>
      </trkpt>
      <trkpt lat="49.86898" lon="4.75032">
        <ele>329</ele>
        <time>2024-05-08T13:28:34Z</time>
      </trkpt>
      <trkpt lat="49.86899" lon="4.75033">
        <ele>329</ele>
        <time>2024-05-08T13:28:35Z</time>
      </trkpt>
      <trkpt lat="49.86899" lon="4.75033">
        <ele>329</ele>
        <time>2024-05-08T13:28:36Z</time>
      </trkpt>
      <trkpt lat="49.869" lon="4.75034">
        <ele>329</ele>
        <time>2024-05-08T13:28:37Z</time>
      </trkpt>
      <trkpt lat="49.86901" lon="4.75035">
        <ele>329</ele>
        <time>2024-05-08T13:28:38Z</time>
      </trkpt>
      <trkpt lat="49.86901" lon="4.75036">
        <ele>329</ele>
        <time>2024-05-08T13:28:39Z</time>
      </trkpt>
      <trkpt lat="49.86902" lon="4.75036">
        <ele>329</ele>
        <time>2024-05-08T13:28:40Z</time>
      </trkpt>
      <trkpt lat="49.86902" lon="4.75037">
        <ele>330</ele>
        <time>2024-05-08T13:28:41Z</time>
      </trkpt>
      <trkpt lat="49.86903" lon="4.75037">
        <ele>330</ele>
        <time>2024-05-08T13:28:42Z</time>
      </trkpt>
      <trkpt lat="49.86903" lon="4.75038">
        <ele>330</ele>
        <time>2024-05-08T13:28:43Z</time>
      </trkpt>
      <trkpt lat="49.86904" lon="4.75039">
        <ele>330</ele>
        <time>2024-05-08T13:28:44Z</time>
      </trkpt>
      <trkpt lat="49.86905" lon="4.7504">
        <ele>330</ele>
        <time>2024-05-08T13:28:45Z</time>
      </trkpt>
      <trkpt lat="49.86905" lon="4.75041">
        <ele>330</ele>
        <time>2024-05-08T13:28:46Z</time>
      </trkpt>
      <trkpt lat="49.86906" lon="4.75042">
        <ele>330</ele>
        <time>2024-05-08T13:28:47Z</time>
      </trkpt>
      <trkpt lat="49.86906" lon="4.75043">
        <ele>330</ele>
        <time>2024-05-08T13:28:48Z</time>
      </trkpt>
      <trkpt lat="49.86906" lon="4.75043">
        <ele>330</ele>
        <time>2024-05-08T13:28:49Z</time>
      </trkpt>
      <trkpt lat="49.86907" lon="4.75044">
        <ele>330</ele>
        <time>2024-05-08T13:28:50Z</time>
      </trkpt>
      <trkpt lat="49.86907" lon="4.75045">
        <ele>331</ele>
        <time>2024-05-08T13:28:51Z</time>
      </trkpt>
      <trkpt lat="49.86908" lon="4.75046">
        <ele>331</ele>
        <time>2024-05-08T13:28:52Z</time>
      </trkpt>
      <trkpt lat="49.86908" lon="4.75046">
        <ele>331</ele>
        <time>2024-05-08T13:28:53Z</time>
      </trkpt>
      <trkpt lat="49.86909" lon="4.75047">
        <ele>331</ele>
        <time>2024-05-08T13:28:54Z</time>
      </trkpt>
      <trkpt lat="49.8691" lon="4.75048">
        <ele>331</ele>
        <time>2024-05-08T13:28:55Z</time>
      </trkpt>
      <trkpt lat="49.8691" lon="4.7505">
        <ele>331</ele>
        <time>2024-05-08T13:28:56Z</time>
      </trkpt>
      <trkpt lat="49.86911" lon="4.75051">
        <ele>331</ele>
        <time>2024-05-08T13:28:57Z</time>
      </trkpt>
      <trkpt lat="49.86912" lon="4.75052">
        <ele>331</ele>
        <time>2024-05-08T13:28:58Z</time>
      </trkpt>
      <trkpt lat="49.86912" lon="4.75053">
        <ele>331</ele>
        <time>2024-05-08T13:28:59Z</time>
      </trkpt>
      <trkpt lat="49.86913" lon="4.75054">
        <ele>331</ele>
        <time>2024-05-08T13:29:00Z</time>
      </trkpt>
      <trkpt lat="49.86913" lon="4.75054">
        <ele>332</ele>
        <time>2024-05-08T13:29:01Z</time>
      </trkpt>
      <trkpt lat="49.86914" lon="4.75055">
        <ele>332</ele>
        <time>2024-05-08T13:29:02Z</time>
      </trkpt>
      <trkpt lat="49.86914" lon="4.75055">
        <ele>332</ele>
        <time>2024-05-08T13:29:03Z</time>
      </trkpt>
      <trkpt lat="49.86915" lon="4.75056">
        <ele>332</ele>
        <time>2024-05-08T13:29:04Z</time>
      </trkpt>
      <trkpt lat="49.86916" lon="4.75056">
        <ele>332</ele>
        <time>2024-05-08T13:29:05Z</time>
      </trkpt>
      <trkpt lat="49.86917" lon="4.75056">
        <ele>333</ele>
        <time>2024-05-08T13:29:06Z</time>
      </trkpt>
      <trkpt lat="49.86917" lon="4.75057">
        <ele>333</ele>
        <time>2024-05-08T13:29:07Z</time>
      </trkpt>
      <trkpt lat="49.86918" lon="4.75057">
        <ele>333</ele>
        <time>2024-05-08T13:29:08Z</time>
      </trkpt>
      <trkpt lat="49.86919" lon="4.75058">
        <ele>333</ele>
        <time>2024-05-08T13:29:09Z</time>
      </trkpt>
      <trkpt lat="49.8692" lon="4.75059">
        <ele>333</ele>
        <time>2024-05-08T13:29:10Z</time>
      </trkpt>
      <trkpt lat="49.86921" lon="4.7506">
        <ele>333</ele>
        <time>2024-05-08T13:29:11Z</time>
      </trkpt>
      <trkpt lat="49.86922" lon="4.75061">
        <ele>333</ele>
        <time>2024-05-08T13:29:12Z</time>
      </trkpt>
      <trkpt lat="49.86923" lon="4.75062">
        <ele>333</ele>
        <time>2024-05-08T13:29:13Z</time>
      </trkpt>
      <trkpt lat="49.86923" lon="4.75062">
        <ele>333</ele>
        <time>2024-05-08T13:29:14Z</time>
      </trkpt>
      <trkpt lat="49.86924" lon="4.75063">
        <ele>333</ele>
        <time>2024-05-08T13:29:15Z</time>
      </trkpt>
      <trkpt lat="49.86925" lon="4.75064">
        <ele>334</ele>
        <time>2024-05-08T13:29:16Z</time>
      </trkpt>
      <trkpt lat="49.86926" lon="4.75064">
        <ele>334</ele>
        <time>2024-05-08T13:29:17Z</time>
      </trkpt>
      <trkpt lat="49.86927" lon="4.75065">
        <ele>334</ele>
        <time>2024-05-08T13:29:18Z</time>
      </trkpt>
      <trkpt lat="49.86927" lon="4.75065">
        <ele>334</ele>
        <time>2024-05-08T13:29:19Z</time>
      </trkpt>
      <trkpt lat="49.86928" lon="4.75066">
        <ele>334</ele>
        <time>2024-05-08T13:29:20Z</time>
      </trkpt>
      <trkpt lat="49.86928" lon="4.75067">
        <ele>335</ele>
        <time>2024-05-08T13:29:21Z</time>
      </trkpt>
      <trkpt lat="49.86929" lon="4.75067">
        <ele>335</ele>
        <time>2024-05-08T13:29:22Z</time>
      </trkpt>
      <trkpt lat="49.8693" lon="4.75068">
        <ele>335</ele>
        <time>2024-05-08T13:29:23Z</time>
      </trkpt>
      <trkpt lat="49.86931" lon="4.75069">
        <ele>335</ele>
        <time>2024-05-08T13:29:24Z</time>
      </trkpt>
      <trkpt lat="49.86931" lon="4.7507">
        <ele>335</ele>
        <time>2024-05-08T13:29:25Z</time>
      </trkpt>
      <trkpt lat="49.86932" lon="4.75071">
        <ele>335</ele>
        <time>2024-05-08T13:29:26Z</time>
      </trkpt>
      <trkpt lat="49.86933" lon="4.75073">
        <ele>335</ele>
        <time>2024-05-08T13:29:27Z</time>
      </trkpt>
      <trkpt lat="49.86934" lon="4.75074">
        <ele>335</ele>
        <time>2024-05-08T13:29:28Z</time>
      </trkpt>
      <trkpt lat="49.86934" lon="4.75075">
        <ele>335</ele>
        <time>2024-05-08T13:29:29Z</time>
      </trkpt>
      <trkpt lat="49.86935" lon="4.75076">
        <ele>335</ele>
        <time>2024-05-08T13:29:30Z</time>
      </trkpt>
      <trkpt lat="49.86936" lon="4.75076">
        <ele>336</ele>
        <time>2024-05-08T13:29:31Z</time>
      </trkpt>
      <trkpt lat="49.86937" lon="4.75077">
        <ele>336</ele>
        <time>2024-05-08T13:29:32Z</time>
      </trkpt>
      <trkpt lat="49.86938" lon="4.75077">
        <ele>336</ele>
        <time>2024-05-08T13:29:33Z</time>
      </trkpt>
      <trkpt lat="49.86939" lon="4.75078">
        <ele>336</ele>
        <time>2024-05-08T13:29:34Z</time>
      </trkpt>
      <trkpt lat="49.86941" lon="4.75078">
        <ele>336</ele>
        <time>2024-05-08T13:29:35Z</time>
      </trkpt>
      <trkpt lat="49.86942" lon="4.75078">
        <ele>336</ele>
        <time>2024-05-08T13:29:36Z</time>
      </trkpt>
      <trkpt lat="49.86943" lon="4.75079">
        <ele>336</ele>
        <time>2024-05-08T13:29:37Z</time>
      </trkpt>
      <trkpt lat="49.86944" lon="4.75079">
        <ele>336</ele>
        <time>2024-05-08T13:29:38Z</time>
      </trkpt>
      <trkpt lat="49.86945" lon="4.75079">
        <ele>336</ele>
        <time>2024-05-08T13:29:39Z</time>
      </trkpt>
      <trkpt lat="49.86946" lon="4.75079">
        <ele>336</ele>
        <time>2024-05-08T13:29:40Z</time>
      </trkpt>
      <trkpt lat="49.86947" lon="4.75079">
        <ele>337</ele>
        <time>2024-05-08T13:29:41Z</time>
      </trkpt>
      <trkpt lat="49.86948" lon="4.75079">
        <ele>337</ele>
        <time>2024-05-08T13:29:42Z</time>
      </trkpt>
      <trkpt lat="49.86949" lon="4.75079">
        <ele>337</ele>
        <time>2024-05-08T13:29:43Z</time>
      </trkpt>
      <trkpt lat="49.8695" lon="4.75079">
        <ele>337</ele>
        <time>2024-05-08T13:29:44Z</time>
      </trkpt>
      <trkpt lat="49.86951" lon="4.7508">
        <ele>337</ele>
        <time>2024-05-08T13:29:45Z</time>
      </trkpt>
      <trkpt lat="49.86951" lon="4.75081">
        <ele>337</ele>
        <time>2024-05-08T13:29:46Z</time>
      </trkpt>
      <trkpt lat="49.86952" lon="4.75082">
        <ele>337</ele>
        <time>2024-05-08T13:29:47Z</time>
      </trkpt>
      <trkpt lat="49.86953" lon="4.75083">
        <ele>337</ele>
        <time>2024-05-08T13:29:48Z</time>
      </trkpt>
      <trkpt lat="49.86954" lon="4.75083">
        <ele>337</ele>
        <time>2024-05-08T13:29:49Z</time>
      </trkpt>
      <trkpt lat="49.86955" lon="4.75084">
        <ele>337</ele>
        <time>2024-05-08T13:29:50Z</time>
      </trkpt>
      <trkpt lat="49.86956" lon="4.75085">
        <ele>338</ele>
        <time>2024-05-08T13:29:51Z</time>
      </trkpt>
      <trkpt lat="49.86956" lon="4.75086">
        <ele>338</ele>
        <time>2024-05-08T13:29:52Z</time>
      </trkpt>
      <trkpt lat="49.86957" lon="4.75086">
        <ele>338</ele>
        <time>2024-05-08T13:29:53Z</time>
      </trkpt>
      <trkpt lat="49.86958" lon="4.75087">
        <ele>338</ele>
        <time>2024-05-08T13:29:54Z</time>
      </trkpt>
      <trkpt lat="49.86959" lon="4.75088">
        <ele>338</ele>
        <time>2024-05-08T13:29:55Z</time>
      </trkpt>
      <trkpt lat="49.8696" lon="4.75088">
        <ele>338</ele>
        <time>2024-05-08T13:29:56Z</time>
      </trkpt>
      <trkpt lat="49.86961" lon="4.75088">
        <ele>338</ele>
        <time>2024-05-08T13:29:57Z</time>
      </trkpt>
      <trkpt lat="49.86962" lon="4.75089">
        <ele>338</ele>
        <time>2024-05-08T13:29:58Z</time>
      </trkpt>
      <trkpt lat="49.86963" lon="4.75089">
        <ele>338</ele>
        <time>2024-05-08T13:29:59Z</time>
      </trkpt>
      <trkpt lat="49.86963" lon="4.7509">
        <ele>338</ele>
        <time>2024-05-08T13:30:00Z</time>
      </trkpt>
      <trkpt lat="49.86964" lon="4.7509">
        <ele>338</ele>
        <time>2024-05-08T13:30:01Z</time>
      </trkpt>
      <trkpt lat="49.86965" lon="4.75091">
        <ele>338</ele>
        <time>2024-05-08T13:30:02Z</time>
      </trkpt>
      <trkpt lat="49.86965" lon="4.75092">
        <ele>338</ele>
        <time>2024-05-08T13:30:03Z</time>
      </trkpt>
      <trkpt lat="49.86966" lon="4.75093">
        <ele>338</ele>
        <time>2024-05-08T13:30:04Z</time>
      </trkpt>
      <trkpt lat="49.86967" lon="4.75095">
        <ele>338</ele>
        <time>2024-05-08T13:30:05Z</time>
      </trkpt>
      <trkpt lat="49.86967" lon="4.75097">
        <ele>339</ele>
        <time>2024-05-08T13:30:06Z</time>
      </trkpt>
      <trkpt lat="49.86968" lon="4.75098">
        <ele>339</ele>
        <time>2024-05-08T13:30:07Z</time>
      </trkpt>
      <trkpt lat="49.86969" lon="4.75099">
        <ele>339</ele>
        <time>2024-05-08T13:30:08Z</time>
      </trkpt>
      <trkpt lat="49.8697" lon="4.75101">
        <ele>339</ele>
        <time>2024-05-08T13:30:09Z</time>
      </trkpt>
      <trkpt lat="49.86971" lon="4.75102">
        <ele>339</ele>
        <time>2024-05-08T13:30:10Z</time>
      </trkpt>
      <trkpt lat="49.86972" lon="4.75103">
        <ele>340</ele>
        <time>2024-05-08T13:30:11Z</time>
      </trkpt>
      <trkpt lat="49.86973" lon="4.75103">
        <ele>340</ele>
        <time>2024-05-08T13:30:12Z</time>
      </trkpt>
      <trkpt lat="49.86974" lon="4.75104">
        <ele>340</ele>
        <time>2024-05-08T13:30:13Z</time>
      </trkpt>
      <trkpt lat="49.86975" lon="4.75105">
        <ele>340</ele>
        <time>2024-05-08T13:30:14Z</time>
      </trkpt>
      <trkpt lat="49.86976" lon="4.75106">
        <ele>340</ele>
        <time>2024-05-08T13:30:15Z</time>
      </trkpt>
      <trkpt lat="49.86977" lon="4.75107">
        <ele>340</ele>
        <time>2024-05-08T13:30:16Z</time>
      </trkpt>
      <trkpt lat="49.86978" lon="4.75109">
        <ele>340</ele>
        <time>2024-05-08T13:30:17Z</time>
      </trkpt>
      <trkpt lat="49.86978" lon="4.7511">
        <ele>340</ele>
        <time>2024-05-08T13:30:18Z</time>
      </trkpt>
      <trkpt lat="49.86979" lon="4.75111">
        <ele>340</ele>
        <time>2024-05-08T13:30:19Z</time>
      </trkpt>
      <trkpt lat="49.86979" lon="4.75113">
        <ele>340</ele>
        <time>2024-05-08T13:30:20Z</time>
      </trkpt>
      <trkpt lat="49.8698" lon="4.75114">
        <ele>340</ele>
        <time>2024-05-08T13:30:21Z</time>
      </trkpt>
      <trkpt lat="49.8698" lon="4.75115">
        <ele>340</ele>
        <time>2024-05-08T13:30:22Z</time>
      </trkpt>
      <trkpt lat="49.86981" lon="4.75117">
        <ele>340</ele>
        <time>2024-05-08T13:30:23Z</time>
      </trkpt>
      <trkpt lat="49.86981" lon="4.75117">
        <ele>340</ele>
        <time>2024-05-08T13:30:24Z</time>
      </trkpt>
      <trkpt lat="49.86982" lon="4.75118">
        <ele>340</ele>
        <time>2024-05-08T13:30:25Z</time>
      </trkpt>
      <trkpt lat="49.86983" lon="4.75119">
        <ele>341</ele>
        <time>2024-05-08T13:30:26Z</time>
      </trkpt>
      <trkpt lat="49.86983" lon="4.7512">
        <ele>341</ele>
        <time>2024-05-08T13:30:27Z</time>
      </trkpt>
      <trkpt lat="49.86984" lon="4.75121">
        <ele>341</ele>
        <time>2024-05-08T13:30:28Z</time>
      </trkpt>
      <trkpt lat="49.86985" lon="4.75121">
        <ele>341</ele>
        <time>2024-05-08T13:30:29Z</time>
      </trkpt>
      <trkpt lat="49.86986" lon="4.75123">
        <ele>341</ele>
        <time>2024-05-08T13:30:30Z</time>
      </trkpt>
      <trkpt lat="49.86987" lon="4.75124">
        <ele>341</ele>
        <time>2024-05-08T13:30:31Z</time>
      </trkpt>
      <trkpt lat="49.86988" lon="4.75125">
        <ele>341</ele>
        <time>2024-05-08T13:30:32Z</time>
      </trkpt>
      <trkpt lat="49.86989" lon="4.75127">
        <ele>341</ele>
        <time>2024-05-08T13:30:33Z</time>
      </trkpt>
      <trkpt lat="49.8699" lon="4.75128">
        <ele>341</ele>
        <time>2024-05-08T13:30:34Z</time>
      </trkpt>
      <trkpt lat="49.86991" lon="4.7513">
        <ele>341</ele>
        <time>2024-05-08T13:30:35Z</time>
      </trkpt>
      <trkpt lat="49.86992" lon="4.75131">
        <ele>341</ele>
        <time>2024-05-08T13:30:36Z</time>
      </trkpt>
      <trkpt lat="49.86993" lon="4.75133">
        <ele>341</ele>
        <time>2024-05-08T13:30:37Z</time>
      </trkpt>
      <trkpt lat="49.86994" lon="4.75134">
        <ele>341</ele>
        <time>2024-05-08T13:30:38Z</time>
      </trkpt>
      <trkpt lat="49.86995" lon="4.75136">
        <ele>341</ele>
        <time>2024-05-08T13:30:39Z</time>
      </trkpt>
      <trkpt lat="49.86995" lon="4.75137">
        <ele>341</ele>
        <time>2024-05-08T13:30:40Z</time>
      </trkpt>
      <trkpt lat="49.86996" lon="4.75138">
        <ele>341</ele>
        <time>2024-05-08T13:30:41Z</time>
      </trkpt>
      <trkpt lat="49.86996" lon="4.75139">
        <ele>341</ele>
        <time>2024-05-08T13:30:42Z</time>
      </trkpt>
      <trkpt lat="49.86997" lon="4.75141">
        <ele>341</ele>
        <time>2024-05-08T13:30:43Z</time>
      </trkpt>
      <trkpt lat="49.86997" lon="4.75142">
        <ele>341</ele>
        <time>2024-05-08T13:30:44Z</time>
      </trkpt>
      <trkpt lat="49.86998" lon="4.75143">
        <ele>341</ele>
        <time>2024-05-08T13:30:45Z</time>
      </trkpt>
      <trkpt lat="49.86999" lon="4.75144">
        <ele>341</ele>
        <time>2024-05-08T13:30:46Z</time>
      </trkpt>
      <trkpt lat="49.86999" lon="4.75145">
        <ele>341</ele>
        <time>2024-05-08T13:30:47Z</time>
      </trkpt>
      <trkpt lat="49.87" lon="4.75146">
        <ele>341</ele>
        <time>2024-05-08T13:30:48Z</time>
      </trkpt>
      <trkpt lat="49.87001" lon="4.75148">
        <ele>341</ele>
        <time>2024-05-08T13:30:49Z</time>
      </trkpt>
      <trkpt lat="49.87001" lon="4.75149">
        <ele>341</ele>
        <time>2024-05-08T13:30:50Z</time>
      </trkpt>
      <trkpt lat="49.87002" lon="4.75151">
        <ele>341</ele>
        <time>2024-05-08T13:30:51Z</time>
      </trkpt>
      <trkpt lat="49.87002" lon="4.75152">
        <ele>341</ele>
        <time>2024-05-08T13:30:52Z</time>
      </trkpt>
      <trkpt lat="49.87002" lon="4.75154">
        <ele>341</ele>
        <time>2024-05-08T13:30:53Z</time>
      </trkpt>
      <trkpt lat="49.87003" lon="4.75156">
        <ele>341</ele>
        <time>2024-05-08T13:30:54Z</time>
      </trkpt>
      <trkpt lat="49.87003" lon="4.75158">
        <ele>341</ele>
        <time>2024-05-08T13:30:55Z</time>
      </trkpt>
      <trkpt lat="49.87004" lon="4.7516">
        <ele>341</ele>
        <time>2024-05-08T13:30:56Z</time>
      </trkpt>
      <trkpt lat="49.87004" lon="4.75162">
        <ele>341</ele>
        <time>2024-05-08T13:30:57Z</time>
      </trkpt>
      <trkpt lat="49.87005" lon="4.75163">
        <ele>341</ele>
        <time>2024-05-08T13:30:58Z</time>
      </trkpt>
      <trkpt lat="49.87005" lon="4.75165">
        <ele>341</ele>
        <time>2024-05-08T13:30:59Z</time>
      </trkpt>
      <trkpt lat="49.87006" lon="4.75167">
        <ele>341</ele>
        <time>2024-05-08T13:31:00Z</time>
      </trkpt>
      <trkpt lat="49.87007" lon="4.75169">
        <ele>341</ele>
        <time>2024-05-08T13:31:01Z</time>
      </trkpt>
      <trkpt lat="49.87007" lon="4.7517">
        <ele>341</ele>
        <time>2024-05-08T13:31:02Z</time>
      </trkpt>
      <trkpt lat="49.87007" lon="4.75172">
        <ele>341</ele>
        <time>2024-05-08T13:31:03Z</time>
      </trkpt>
      <trkpt lat="49.87008" lon="4.75173">
        <ele>341</ele>
        <time>2024-05-08T13:31:04Z</time>
      </trkpt>
      <trkpt lat="49.87008" lon="4.75175">
        <ele>341</ele>
        <time>2024-05-08T13:31:05Z</time>
      </trkpt>
      <trkpt lat="49.87009" lon="4.75176">
        <ele>341</ele>
        <time>2024-05-08T13:31:06Z</time>
      </trkpt>
      <trkpt lat="49.8701" lon="4.75177">
        <ele>341</ele>
        <time>2024-05-08T13:31:07Z</time>
      </trkpt>
      <trkpt lat="49.87012" lon="4.75178">
        <ele>341</ele>
        <time>2024-05-08T13:35:54Z</time>
      </trkpt>
      <trkpt lat="49.87013" lon="4.75179">
        <ele>341</ele>
        <time>2024-05-08T13:35:55Z</time>
      </trkpt>
      <trkpt lat="49.87014" lon="4.7518">
        <ele>341</ele>
        <time>2024-05-08T13:35:56Z</time>
      </trkpt>
      <trkpt lat="49.87014" lon="4.7518">
        <ele>341</ele>
        <time>2024-05-08T13:35:57Z</time>
      </trkpt>
      <trkpt lat="49.87015" lon="4.75181">
        <ele>341</ele>
        <time>2024-05-08T13:35:58Z</time>
      </trkpt>
      <trkpt lat="49.87015" lon="4.75182">
        <ele>341</ele>
        <time>2024-05-08T13:35:59Z</time>
      </trkpt>
      <trkpt lat="49.87016" lon="4.75183">
        <ele>341</ele>
        <time>2024-05-08T13:36:00Z</time>
      </trkpt>
      <trkpt lat="49.87017" lon="4.75184">
        <ele>341</ele>
        <time>2024-05-08T13:36:01Z</time>
      </trkpt>
      <trkpt lat="49.87017" lon="4.75185">
        <ele>341</ele>
        <time>2024-05-08T13:36:02Z</time>
      </trkpt>
      <trkpt lat="49.87018" lon="4.75186">
        <ele>341</ele>
        <time>2024-05-08T13:36:03Z</time>
      </trkpt>
      <trkpt lat="49.87018" lon="4.75187">
        <ele>341</ele>
        <time>2024-05-08T13:36:04Z</time>
      </trkpt>
      <trkpt lat="49.87019" lon="4.75188">
        <ele>341</ele>
        <time>2024-05-08T13:36:05Z</time>
      </trkpt>
      <trkpt lat="49.87019" lon="4.75189">
        <ele>341</ele>
        <time>2024-05-08T13:36:06Z</time>
      </trkpt>
      <trkpt lat="49.87019" lon="4.7519">
        <ele>341</ele>
        <time>2024-05-08T13:36:07Z</time>
      </trkpt>
      <trkpt lat="49.8702" lon="4.75192">
        <ele>341</ele>
        <time>2024-05-08T13:36:08Z</time>
      </trkpt>
      <trkpt lat="49.8702" lon="4.75193">
        <ele>341</ele>
        <time>2024-05-08T13:36:09Z</time>
      </trkpt>
      <trkpt lat="49.8702" lon="4.75195">
        <ele>341</ele>
        <time>2024-05-08T13:36:10Z</time>
      </trkpt>
      <trkpt lat="49.8702" lon="4.75196">
        <ele>342</ele>
        <time>2024-05-08T13:36:11Z</time>
      </trkpt>
      <trkpt lat="49.87021" lon="4.75197">
        <ele>342</ele>
        <time>2024-05-08T13:36:12Z</time>
      </trkpt>
      <trkpt lat="49.87021" lon="4.75198">
        <ele>342</ele>
        <time>2024-05-08T13:36:13Z</time>
      </trkpt>
      <trkpt lat="49.87022" lon="4.75199">
        <ele>342</ele>
        <time>2024-05-08T13:36:14Z</time>
      </trkpt>
      <trkpt lat="49.87023" lon="4.75201">
        <ele>342</ele>
        <time>2024-05-08T13:36:15Z</time>
      </trkpt>
      <trkpt lat="49.87023" lon="4.75202">
        <ele>342</ele>
        <time>2024-05-08T13:36:16Z</time>
      </trkpt>
      <trkpt lat="49.87024" lon="4.75203">
        <ele>342</ele>
        <time>2024-05-08T13:36:17Z</time>
      </trkpt>
      <trkpt lat="49.87024" lon="4.75205">
        <ele>342</ele>
        <time>2024-05-08T13:36:18Z</time>
      </trkpt>
      <trkpt lat="49.87024" lon="4.75206">
        <ele>342</ele>
        <time>2024-05-08T13:36:19Z</time>
      </trkpt>
      <trkpt lat="49.87023" lon="4.75208">
        <ele>342</ele>
        <time>2024-05-08T13:36:20Z</time>
      </trkpt>
      <trkpt lat="49.87023" lon="4.7521">
        <ele>342</ele>
        <time>2024-05-08T13:36:21Z</time>
      </trkpt>
      <trkpt lat="49.87023" lon="4.75212">
        <ele>342</ele>
        <time>2024-05-08T13:36:22Z</time>
      </trkpt>
      <trkpt lat="49.87023" lon="4.75214">
        <ele>342</ele>
        <time>2024-05-08T13:36:23Z</time>
      </trkpt>
      <trkpt lat="49.87023" lon="4.75215">
        <ele>342</ele>
        <time>2024-05-08T13:36:24Z</time>
      </trkpt>
      <trkpt lat="49.87023" lon="4.75217">
        <ele>342</ele>
        <time>2024-05-08T13:36:25Z</time>
      </trkpt>
      <trkpt lat="49.87023" lon="4.75219">
        <ele>343</ele>
        <time>2024-05-08T13:36:26Z</time>
      </trkpt>
      <trkpt lat="49.87024" lon="4.75221">
        <ele>343</ele>
        <time>2024-05-08T13:36:27Z</time>
      </trkpt>
      <trkpt lat="49.87024" lon="4.75223">
        <ele>343</ele>
        <time>2024-05-08T13:36:28Z</time>
      </trkpt>
      <trkpt lat="49.87025" lon="4.75225">
        <ele>343</ele>
        <time>2024-05-08T13:36:29Z</time>
      </trkpt>
      <trkpt lat="49.87025" lon="4.75226">
        <ele>343</ele>
        <time>2024-05-08T13:36:30Z</time>
      </trkpt>
      <trkpt lat="49.87026" lon="4.75228">
        <ele>343</ele>
        <time>2024-05-08T13:36:31Z</time>
      </trkpt>
      <trkpt lat="49.87026" lon="4.75229">
        <ele>343</ele>
        <time>2024-05-08T13:36:32Z</time>
      </trkpt>
      <trkpt lat="49.87027" lon="4.7523">
        <ele>343</ele>
        <time>2024-05-08T13:36:33Z</time>
      </trkpt>
      <trkpt lat="49.87027" lon="4.75232">
        <ele>343</ele>
        <time>2024-05-08T13:36:34Z</time>
      </trkpt>
      <trkpt lat="49.87027" lon="4.75233">
        <ele>343</ele>
        <time>2024-05-08T13:36:35Z</time>
      </trkpt>
      <trkpt lat="49.87027" lon="4.75235">
        <ele>344</ele>
        <time>2024-05-08T13:36:36Z</time>
      </trkpt>
      <trkpt lat="49.87027" lon="4.75236">
        <ele>344</ele>
        <time>2024-05-08T13:36:37Z</time>
      </trkpt>
      <trkpt lat="49.87027" lon="4.75238">
        <ele>344</ele>
        <time>2024-05-08T13:36:38Z</time>
      </trkpt>
      <trkpt lat="49.87027" lon="4.75239">
        <ele>344</ele>
        <time>2024-05-08T13:36:39Z</time>
      </trkpt>
      <trkpt lat="49.87027" lon="4.75241">
        <ele>344</ele>
        <time>2024-05-08T13:36:40Z</time>
      </trkpt>
      <trkpt lat="49.87027" lon="4.75243">
        <ele>344</ele>
        <time>2024-05-08T13:36:41Z</time>
      </trkpt>
      <trkpt lat="49.87027" lon="4.75244">
        <ele>344</ele>
        <time>2024-05-08T13:36:42Z</time>
      </trkpt>
      <trkpt lat="49.87027" lon="4.75245">
        <ele>344</ele>
        <time>2024-05-08T13:36:43Z</time>
      </trkpt>
      <trkpt lat="49.87027" lon="4.75247">
        <ele>344</ele>
        <time>2024-05-08T13:36:44Z</time>
      </trkpt>
      <trkpt lat="49.87027" lon="4.75248">
        <ele>344</ele>
        <time>2024-05-08T13:36:45Z</time>
      </trkpt>
      <trkpt lat="49.87027" lon="4.7525">
        <ele>344</ele>
        <time>2024-05-08T13:36:46Z</time>
      </trkpt>
      <trkpt lat="49.87028" lon="4.75251">
        <ele>344</ele>
        <time>2024-05-08T13:36:47Z</time>
      </trkpt>
      <trkpt lat="49.87028" lon="4.75253">
        <ele>344</ele>
        <time>2024-05-08T13:36:48Z</time>
      </trkpt>
      <trkpt lat="49.87028" lon="4.75254">
        <ele>344</ele>
        <time>2024-05-08T13:36:49Z</time>
      </trkpt>
      <trkpt lat="49.87029" lon="4.75255">
        <ele>344</ele>
        <time>2024-05-08T13:36:50Z</time>
      </trkpt>
      <trkpt lat="49.8703" lon="4.75257">
        <ele>345</ele>
        <time>2024-05-08T13:36:51Z</time>
      </trkpt>
      <trkpt lat="49.87031" lon="4.75258">
        <ele>345</ele>
        <time>2024-05-08T13:36:52Z</time>
      </trkpt>
      <trkpt lat="49.87031" lon="4.75259">
        <ele>345</ele>
        <time>2024-05-08T13:36:53Z</time>
      </trkpt>
      <trkpt lat="49.87032" lon="4.7526">
        <ele>345</ele>
        <time>2024-05-08T13:36:54Z</time>
      </trkpt>
      <trkpt lat="49.87032" lon="4.75261">
        <ele>345</ele>
        <time>2024-05-08T13:36:55Z</time>
      </trkpt>
      <trkpt lat="49.87033" lon="4.75262">
        <ele>345</ele>
        <time>2024-05-08T13:36:56Z</time>
      </trkpt>
      <trkpt lat="49.87032" lon="4.75264">
        <ele>345</ele>
        <time>2024-05-08T13:36:57Z</time>
      </trkpt>
      <trkpt lat="49.87032" lon="4.75266">
        <ele>345</ele>
        <time>2024-05-08T13:36:58Z</time>
      </trkpt>
      <trkpt lat="49.87032" lon="4.75267">
        <ele>345</ele>
        <time>2024-05-08T13:36:59Z</time>
      </trkpt>
      <trkpt lat="49.87031" lon="4.75269">
        <ele>345</ele>
        <time>2024-05-08T13:37:00Z</time>
      </trkpt>
      <trkpt lat="49.87031" lon="4.75271">
        <ele>346</ele>
        <time>2024-05-08T13:37:01Z</time>
      </trkpt>
      <trkpt lat="49.87031" lon="4.75272">
        <ele>346</ele>
        <time>2024-05-08T13:37:02Z</time>
      </trkpt>
      <trkpt lat="49.87031" lon="4.75274">
        <ele>346</ele>
        <time>2024-05-08T13:37:03Z</time>
      </trkpt>
      <trkpt lat="49.87031" lon="4.75275">
        <ele>346</ele>
        <time>2024-05-08T13:37:04Z</time>
      </trkpt>
      <trkpt lat="49.8703" lon="4.75277">
        <ele>346</ele>
        <time>2024-05-08T13:37:05Z</time>
      </trkpt>
      <trkpt lat="49.8703" lon="4.75278">
        <ele>347</ele>
        <time>2024-05-08T13:37:06Z</time>
      </trkpt>
      <trkpt lat="49.8703" lon="4.7528">
        <ele>347</ele>
        <time>2024-05-08T13:37:07Z</time>
      </trkpt>
      <trkpt lat="49.87029" lon="4.75282">
        <ele>347</ele>
        <time>2024-05-08T13:37:08Z</time>
      </trkpt>
      <trkpt lat="49.87028" lon="4.75283">
        <ele>347</ele>
        <time>2024-05-08T13:37:09Z</time>
      </trkpt>
      <trkpt lat="49.87028" lon="4.75285">
        <ele>347</ele>
        <time>2024-05-08T13:37:10Z</time>
      </trkpt>
      <trkpt lat="49.87027" lon="4.75287">
        <ele>347</ele>
        <time>2024-05-08T13:37:11Z</time>
      </trkpt>
      <trkpt lat="49.87026" lon="4.75289">
        <ele>347</ele>
        <time>2024-05-08T13:37:12Z</time>
      </trkpt>
      <trkpt lat="49.87025" lon="4.7529">
        <ele>347</ele>
        <time>2024-05-08T13:37:13Z</time>
      </trkpt>
      <trkpt lat="49.87025" lon="4.75292">
        <ele>347</ele>
        <time>2024-05-08T13:37:14Z</time>
      </trkpt>
      <trkpt lat="49.87024" lon="4.75293">
        <ele>347</ele>
        <time>2024-05-08T13:37:15Z</time>
      </trkpt>
      <trkpt lat="49.87024" lon="4.75294">
        <ele>348</ele>
        <time>2024-05-08T13:37:16Z</time>
      </trkpt>
      <trkpt lat="49.87023" lon="4.75295">
        <ele>348</ele>
        <time>2024-05-08T13:37:17Z</time>
      </trkpt>
      <trkpt lat="49.87023" lon="4.75296">
        <ele>348</ele>
        <time>2024-05-08T13:37:18Z</time>
      </trkpt>
      <trkpt lat="49.87022" lon="4.75298">
        <ele>348</ele>
        <time>2024-05-08T13:37:19Z</time>
      </trkpt>
      <trkpt lat="49.87021" lon="4.75299">
        <ele>348</ele>
        <time>2024-05-08T13:37:20Z</time>
      </trkpt>
      <trkpt lat="49.87021" lon="4.75301">
        <ele>349</ele>
        <time>2024-05-08T13:37:21Z</time>
      </trkpt>
      <trkpt lat="49.8702" lon="4.75303">
        <ele>349</ele>
        <time>2024-05-08T13:37:22Z</time>
      </trkpt>
      <trkpt lat="49.87018" lon="4.75304">
        <ele>349</ele>
        <time>2024-05-08T13:37:23Z</time>
      </trkpt>
      <trkpt lat="49.87017" lon="4.75305">
        <ele>349</ele>
        <time>2024-05-08T13:37:24Z</time>
      </trkpt>
      <trkpt lat="49.87016" lon="4.75305">
        <ele>349</ele>
        <time>2024-05-08T13:37:25Z</time>
      </trkpt>
      <trkpt lat="49.87015" lon="4.75306">
        <ele>349</ele>
        <time>2024-05-08T13:37:26Z</time>
      </trkpt>
      <trkpt lat="49.87014" lon="4.75306">
        <ele>349</ele>
        <time>2024-05-08T13:37:27Z</time>
      </trkpt>
      <trkpt lat="49.87013" lon="4.75306">
        <ele>349</ele>
        <time>2024-05-08T13:37:28Z</time>
      </trkpt>
      <trkpt lat="49.87011" lon="4.75307">
        <ele>349</ele>
        <time>2024-05-08T13:37:29Z</time>
      </trkpt>
      <trkpt lat="49.8701" lon="4.75307">
        <ele>349</ele>
        <time>2024-05-08T13:37:30Z</time>
      </trkpt>
      <trkpt lat="49.87009" lon="4.75307">
        <ele>349</ele>
        <time>2024-05-08T13:37:31Z</time>
      </trkpt>
      <trkpt lat="49.87008" lon="4.75307">
        <ele>349</ele>
        <time>2024-05-08T13:37:32Z</time>
      </trkpt>
      <trkpt lat="49.87007" lon="4.75306">
        <ele>349</ele>
        <time>2024-05-08T13:37:33Z</time>
      </trkpt>
      <trkpt lat="49.87006" lon="4.75306">
        <ele>349</ele>
        <time>2024-05-08T13:37:34Z</time>
      </trkpt>
      <trkpt lat="49.87005" lon="4.75306">
        <ele>349</ele>
        <time>2024-05-08T13:37:35Z</time>
      </trkpt>
      <trkpt lat="49.87004" lon="4.75305">
        <ele>350</ele>
        <time>2024-05-08T13:37:36Z</time>
      </trkpt>
      <trkpt lat="49.87003" lon="4.75305">
        <ele>350</ele>
        <time>2024-05-08T13:37:37Z</time>
      </trkpt>
      <trkpt lat="49.87002" lon="4.75305">
        <ele>350</ele>
        <time>2024-05-08T13:37:38Z</time>
      </trkpt>
      <trkpt lat="49.87001" lon="4.75304">
        <ele>350</ele>
        <time>2024-05-08T13:37:39Z</time>
      </trkpt>
      <trkpt lat="49.86999" lon="4.75304">
        <ele>350</ele>
        <time>2024-05-08T13:37:40Z</time>
      </trkpt>
      <trkpt lat="49.86998" lon="4.75303">
        <ele>350</ele>
        <time>2024-05-08T13:37:41Z</time>
      </trkpt>
      <trkpt lat="49.86997" lon="4.75302">
        <ele>350</ele>
        <time>2024-05-08T13:37:42Z</time>
      </trkpt>
      <trkpt lat="49.86997" lon="4.75301">
        <ele>350</ele>
        <time>2024-05-08T13:37:43Z</time>
      </trkpt>
      <trkpt lat="49.86996" lon="4.753">
        <ele>350</ele>
        <time>2024-05-08T13:37:44Z</time>
      </trkpt>
      <trkpt lat="49.86995" lon="4.75299">
        <ele>350</ele>
        <time>2024-05-08T13:37:45Z</time>
      </trkpt>
      <trkpt lat="49.86995" lon="4.75298">
        <ele>351</ele>
        <time>2024-05-08T13:37:46Z</time>
      </trkpt>
      <trkpt lat="49.86994" lon="4.75297">
        <ele>351</ele>
        <time>2024-05-08T13:37:47Z</time>
      </trkpt>
      <trkpt lat="49.86993" lon="4.75296">
        <ele>351</ele>
        <time>2024-05-08T13:37:48Z</time>
      </trkpt>
      <trkpt lat="49.86992" lon="4.75295">
        <ele>351</ele>
        <time>2024-05-08T13:37:49Z</time>
      </trkpt>
      <trkpt lat="49.86992" lon="4.75294">
        <ele>351</ele>
        <time>2024-05-08T13:37:50Z</time>
      </trkpt>
      <trkpt lat="49.86991" lon="4.75292">
        <ele>351</ele>
        <time>2024-05-08T13:37:51Z</time>
      </trkpt>
      <trkpt lat="49.8699" lon="4.75292">
        <ele>351</ele>
        <time>2024-05-08T13:37:52Z</time>
      </trkpt>
      <trkpt lat="49.86989" lon="4.75291">
        <ele>351</ele>
        <time>2024-05-08T13:37:53Z</time>
      </trkpt>
      <trkpt lat="49.86988" lon="4.7529">
        <ele>351</ele>
        <time>2024-05-08T13:37:54Z</time>
      </trkpt>
      <trkpt lat="49.86986" lon="4.7529">
        <ele>351</ele>
        <time>2024-05-08T13:37:55Z</time>
      </trkpt>
      <trkpt lat="49.86985" lon="4.7529">
        <ele>351</ele>
        <time>2024-05-08T13:37:56Z</time>
      </trkpt>
      <trkpt lat="49.86985" lon="4.75289">
        <ele>351</ele>
        <time>2024-05-08T13:37:57Z</time>
      </trkpt>
      <trkpt lat="49.86984" lon="4.75289">
        <ele>351</ele>
        <time>2024-05-08T13:37:58Z</time>
      </trkpt>
      <trkpt lat="49.86983" lon="4.75288">
        <ele>351</ele>
        <time>2024-05-08T13:37:59Z</time>
      </trkpt>
      <trkpt lat="49.86982" lon="4.75288">
        <ele>351</ele>
        <time>2024-05-08T13:38:00Z</time>
      </trkpt>
      <trkpt lat="49.86981" lon="4.75287">
        <ele>352</ele>
        <time>2024-05-08T13:38:01Z</time>
      </trkpt>
      <trkpt lat="49.86979" lon="4.75287">
        <ele>352</ele>
        <time>2024-05-08T13:38:02Z</time>
      </trkpt>
      <trkpt lat="49.86978" lon="4.75287">
        <ele>352</ele>
        <time>2024-05-08T13:38:03Z</time>
      </trkpt>
      <trkpt lat="49.86977" lon="4.75287">
        <ele>352</ele>
        <time>2024-05-08T13:38:04Z</time>
      </trkpt>
      <trkpt lat="49.86976" lon="4.75287">
        <ele>352</ele>
        <time>2024-05-08T13:38:05Z</time>
      </trkpt>
      <trkpt lat="49.86975" lon="4.75288">
        <ele>352</ele>
        <time>2024-05-08T13:38:06Z</time>
      </trkpt>
      <trkpt lat="49.86974" lon="4.75289">
        <ele>352</ele>
        <time>2024-05-08T13:38:07Z</time>
      </trkpt>
      <trkpt lat="49.86974" lon="4.7529">
        <ele>352</ele>
        <time>2024-05-08T13:38:08Z</time>
      </trkpt>
      <trkpt lat="49.86973" lon="4.75291">
        <ele>352</ele>
        <time>2024-05-08T13:38:09Z</time>
      </trkpt>
      <trkpt lat="49.86973" lon="4.75293">
        <ele>352</ele>
        <time>2024-05-08T13:38:10Z</time>
      </trkpt>
      <trkpt lat="49.86972" lon="4.75294">
        <ele>352</ele>
        <time>2024-05-08T13:38:11Z</time>
      </trkpt>
      <trkpt lat="49.86972" lon="4.75295">
        <ele>351</ele>
        <time>2024-05-08T13:38:12Z</time>
      </trkpt>
      <trkpt lat="49.86972" lon="4.75296">
        <ele>351</ele>
        <time>2024-05-08T13:38:13Z</time>
      </trkpt>
      <trkpt lat="49.86972" lon="4.75297">
        <ele>351</ele>
        <time>2024-05-08T13:38:14Z</time>
      </trkpt>
      <trkpt lat="49.86972" lon="4.75299">
        <ele>351</ele>
        <time>2024-05-08T13:38:15Z</time>
      </trkpt>
      <trkpt lat="49.86971" lon="4.753">
        <ele>351</ele>
        <time>2024-05-08T13:38:16Z</time>
      </trkpt>
      <trkpt lat="49.86971" lon="4.75301">
        <ele>351</ele>
        <time>2024-05-08T13:38:17Z</time>
      </trkpt>
      <trkpt lat="49.8697" lon="4.75302">
        <ele>351</ele>
        <time>2024-05-08T13:38:18Z</time>
      </trkpt>
      <trkpt lat="49.8697" lon="4.75304">
        <ele>351</ele>
        <time>2024-05-08T13:38:19Z</time>
      </trkpt>
      <trkpt lat="49.86969" lon="4.75305">
        <ele>351</ele>
        <time>2024-05-08T13:38:20Z</time>
      </trkpt>
      <trkpt lat="49.86969" lon="4.75306">
        <ele>351</ele>
        <time>2024-05-08T13:38:21Z</time>
      </trkpt>
      <trkpt lat="49.86968" lon="4.75307">
        <ele>350</ele>
        <time>2024-05-08T13:38:22Z</time>
      </trkpt>
      <trkpt lat="49.86968" lon="4.75309">
        <ele>350</ele>
        <time>2024-05-08T13:38:23Z</time>
      </trkpt>
      <trkpt lat="49.86967" lon="4.7531">
        <ele>350</ele>
        <time>2024-05-08T13:38:24Z</time>
      </trkpt>
      <trkpt lat="49.86966" lon="4.75311">
        <ele>350</ele>
        <time>2024-05-08T13:38:25Z</time>
      </trkpt>
      <trkpt lat="49.86966" lon="4.75312">
        <ele>350</ele>
        <time>2024-05-08T13:38:26Z</time>
      </trkpt>
      <trkpt lat="49.86965" lon="4.75313">
        <ele>350</ele>
        <time>2024-05-08T13:38:27Z</time>
      </trkpt>
      <trkpt lat="49.86965" lon="4.75314">
        <ele>350</ele>
        <time>2024-05-08T13:38:28Z</time>
      </trkpt>
      <trkpt lat="49.86964" lon="4.75315">
        <ele>350</ele>
        <time>2024-05-08T13:38:29Z</time>
      </trkpt>
      <trkpt lat="49.86964" lon="4.75317">
        <ele>350</ele>
        <time>2024-05-08T13:38:30Z</time>
      </trkpt>
      <trkpt lat="49.86964" lon="4.75318">
        <ele>350</ele>
        <time>2024-05-08T13:38:31Z</time>
      </trkpt>
      <trkpt lat="49.86964" lon="4.7532">
        <ele>349</ele>
        <time>2024-05-08T13:38:32Z</time>
      </trkpt>
      <trkpt lat="49.86964" lon="4.75322">
        <ele>349</ele>
        <time>2024-05-08T13:38:33Z</time>
      </trkpt>
      <trkpt lat="49.86965" lon="4.75323">
        <ele>349</ele>
        <time>2024-05-08T13:38:34Z</time>
      </trkpt>
      <trkpt lat="49.86965" lon="4.75325">
        <ele>349</ele>
        <time>2024-05-08T13:38:35Z</time>
      </trkpt>
      <trkpt lat="49.86966" lon="4.75327">
        <ele>349</ele>
        <time>2024-05-08T13:38:36Z</time>
      </trkpt>
      <trkpt lat="49.86966" lon="4.75328">
        <ele>349</ele>
        <time>2024-05-08T13:38:37Z</time>
      </trkpt>
      <trkpt lat="49.86967" lon="4.7533">
        <ele>349</ele>
        <time>2024-05-08T13:38:38Z</time>
      </trkpt>
      <trkpt lat="49.86968" lon="4.75331">
        <ele>349</ele>
        <time>2024-05-08T13:38:39Z</time>
      </trkpt>
      <trkpt lat="49.86968" lon="4.75332">
        <ele>349</ele>
        <time>2024-05-08T13:38:40Z</time>
      </trkpt>
      <trkpt lat="49.86969" lon="4.75334">
        <ele>349</ele>
        <time>2024-05-08T13:38:41Z</time>
      </trkpt>
      <trkpt lat="49.8697" lon="4.75335">
        <ele>349</ele>
        <time>2024-05-08T13:38:42Z</time>
      </trkpt>
      <trkpt lat="49.86971" lon="4.75336">
        <ele>349</ele>
        <time>2024-05-08T13:38:43Z</time>
      </trkpt>
      <trkpt lat="49.86971" lon="4.75337">
        <ele>349</ele>
        <time>2024-05-08T13:38:44Z</time>
      </trkpt>
      <trkpt lat="49.86971" lon="4.75339">
        <ele>349</ele>
        <time>2024-05-08T13:38:45Z</time>
      </trkpt>
      <trkpt lat="49.86971" lon="4.7534">
        <ele>349</ele>
        <time>2024-05-08T13:38:46Z</time>
      </trkpt>
      <trkpt lat="49.86971" lon="4.75341">
        <ele>349</ele>
        <time>2024-05-08T13:38:47Z</time>
      </trkpt>
      <trkpt lat="49.86971" lon="4.75344">
        <ele>348</ele>
        <time>2024-05-08T13:40:21Z</time>
      </trkpt>
      <trkpt lat="49.86971" lon="4.75345">
        <ele>348</ele>
        <time>2024-05-08T13:40:22Z</time>
      </trkpt>
      <trkpt lat="49.86971" lon="4.75346">
        <ele>348</ele>
        <time>2024-05-08T13:40:23Z</time>
      </trkpt>
      <trkpt lat="49.86972" lon="4.75347">
        <ele>348</ele>
        <time>2024-05-08T13:40:24Z</time>
      </trkpt>
      <trkpt lat="49.86972" lon="4.75347">
        <ele>348</ele>
        <time>2024-05-08T13:40:25Z</time>
      </trkpt>
      <trkpt lat="49.86973" lon="4.75348">
        <ele>348</ele>
        <time>2024-05-08T13:40:26Z</time>
      </trkpt>
      <trkpt lat="49.86974" lon="4.75349">
        <ele>348</ele>
        <time>2024-05-08T13:40:27Z</time>
      </trkpt>
      <trkpt lat="49.86974" lon="4.75351">
        <ele>348</ele>
        <time>2024-05-08T13:40:28Z</time>
      </trkpt>
      <trkpt lat="49.86975" lon="4.75352">
        <ele>348</ele>
        <time>2024-05-08T13:40:29Z</time>
      </trkpt>
      <trkpt lat="49.86975" lon="4.75353">
        <ele>348</ele>
        <time>2024-05-08T13:40:30Z</time>
      </trkpt>
      <trkpt lat="49.86976" lon="4.75355">
        <ele>349</ele>
        <time>2024-05-08T13:40:31Z</time>
      </trkpt>
      <trkpt lat="49.86977" lon="4.75356">
        <ele>349</ele>
        <time>2024-05-08T13:40:32Z</time>
      </trkpt>
      <trkpt lat="49.86978" lon="4.75358">
        <ele>349</ele>
        <time>2024-05-08T13:40:33Z</time>
      </trkpt>
      <trkpt lat="49.8698" lon="4.75359">
        <ele>349</ele>
        <time>2024-05-08T13:40:34Z</time>
      </trkpt>
      <trkpt lat="49.86981" lon="4.7536">
        <ele>349</ele>
        <time>2024-05-08T13:40:35Z</time>
      </trkpt>
      <trkpt lat="49.86982" lon="4.75361">
        <ele>349</ele>
        <time>2024-05-08T13:40:36Z</time>
      </trkpt>
      <trkpt lat="49.86983" lon="4.75362">
        <ele>349</ele>
        <time>2024-05-08T13:40:37Z</time>
      </trkpt>
      <trkpt lat="49.86984" lon="4.75364">
        <ele>349</ele>
        <time>2024-05-08T13:40:38Z</time>
      </trkpt>
      <trkpt lat="49.86985" lon="4.75365">
        <ele>349</ele>
        <time>2024-05-08T13:40:39Z</time>
      </trkpt>
      <trkpt lat="49.86985" lon="4.75366">
        <ele>349</ele>
        <time>2024-05-08T13:40:40Z</time>
      </trkpt>
      <trkpt lat="49.86986" lon="4.75368">
        <ele>349</ele>
        <time>2024-05-08T13:40:41Z</time>
      </trkpt>
      <trkpt lat="49.86987" lon="4.75369">
        <ele>349</ele>
        <time>2024-05-08T13:40:42Z</time>
      </trkpt>
      <trkpt lat="49.86987" lon="4.75371">
        <ele>349</ele>
        <time>2024-05-08T13:40:43Z</time>
      </trkpt>
      <trkpt lat="49.86988" lon="4.75372">
        <ele>349</ele>
        <time>2024-05-08T13:40:44Z</time>
      </trkpt>
      <trkpt lat="49.86989" lon="4.75374">
        <ele>349</ele>
        <time>2024-05-08T13:40:45Z</time>
      </trkpt>
      <trkpt lat="49.86989" lon="4.75376">
        <ele>349</ele>
        <time>2024-05-08T13:40:46Z</time>
      </trkpt>
      <trkpt lat="49.8699" lon="4.75377">
        <ele>349</ele>
        <time>2024-05-08T13:40:47Z</time>
      </trkpt>
      <trkpt lat="49.86991" lon="4.75379">
        <ele>349</ele>
        <time>2024-05-08T13:40:48Z</time>
      </trkpt>
      <trkpt lat="49.86991" lon="4.7538">
        <ele>349</ele>
        <time>2024-05-08T13:40:49Z</time>
      </trkpt>
      <trkpt lat="49.86991" lon="4.75382">
        <ele>349</ele>
        <time>2024-05-08T13:40:50Z</time>
      </trkpt>
      <trkpt lat="49.86992" lon="4.75384">
        <ele>349</ele>
        <time>2024-05-08T13:40:51Z</time>
      </trkpt>
      <trkpt lat="49.86992" lon="4.75385">
        <ele>349</ele>
        <time>2024-05-08T13:40:52Z</time>
      </trkpt>
      <trkpt lat="49.86993" lon="4.75386">
        <ele>349</ele>
        <time>2024-05-08T13:40:53Z</time>
      </trkpt>
      <trkpt lat="49.86994" lon="4.75387">
        <ele>349</ele>
        <time>2024-05-08T13:40:54Z</time>
      </trkpt>
      <trkpt lat="49.86995" lon="4.75388">
        <ele>349</ele>
        <time>2024-05-08T13:40:55Z</time>
      </trkpt>
      <trkpt lat="49.86996" lon="4.75388">
        <ele>349</ele>
        <time>2024-05-08T13:40:56Z</time>
      </trkpt>
      <trkpt lat="49.86996" lon="4.75389">
        <ele>349</ele>
        <time>2024-05-08T13:40:57Z</time>
      </trkpt>
      <trkpt lat="49.86997" lon="4.7539">
        <ele>349</ele>
        <time>2024-05-08T13:40:58Z</time>
      </trkpt>
      <trkpt lat="49.86998" lon="4.75392">
        <ele>349</ele>
        <time>2024-05-08T13:40:59Z</time>
      </trkpt>
      <trkpt lat="49.86998" lon="4.75393">
        <ele>349</ele>
        <time>2024-05-08T13:41:00Z</time>
      </trkpt>
      <trkpt lat="49.86998" lon="4.75394">
        <ele>349</ele>
        <time>2024-05-08T13:41:01Z</time>
      </trkpt>
      <trkpt lat="49.86999" lon="4.75395">
        <ele>349</ele>
        <time>2024-05-08T13:41:02Z</time>
      </trkpt>
      <trkpt lat="49.86999" lon="4.75396">
        <ele>349</ele>
        <time>2024-05-08T13:41:03Z</time>
      </trkpt>
      <trkpt lat="49.87001" lon="4.75397">
        <ele>349</ele>
        <time>2024-05-08T13:41:04Z</time>
      </trkpt>
      <trkpt lat="49.87002" lon="4.75397">
        <ele>349</ele>
        <time>2024-05-08T13:41:05Z</time>
      </trkpt>
      <trkpt lat="49.87003" lon="4.75398">
        <ele>349</ele>
        <time>2024-05-08T13:41:06Z</time>
      </trkpt>
      <trkpt lat="49.87004" lon="4.75398">
        <ele>349</ele>
        <time>2024-05-08T13:41:07Z</time>
      </trkpt>
      <trkpt lat="49.87005" lon="4.75399">
        <ele>349</ele>
        <time>2024-05-08T13:41:08Z</time>
      </trkpt>
      <trkpt lat="49.87006" lon="4.754">
        <ele>349</ele>
        <time>2024-05-08T13:41:09Z</time>
      </trkpt>
      <trkpt lat="49.87007" lon="4.75401">
        <ele>349</ele>
        <time>2024-05-08T13:41:10Z</time>
      </trkpt>
      <trkpt lat="49.87008" lon="4.75402">
        <ele>350</ele>
        <time>2024-05-08T13:41:11Z</time>
      </trkpt>
      <trkpt lat="49.87009" lon="4.75402">
        <ele>350</ele>
        <time>2024-05-08T13:41:12Z</time>
      </trkpt>
      <trkpt lat="49.8701" lon="4.75403">
        <ele>350</ele>
        <time>2024-05-08T13:41:13Z</time>
      </trkpt>
      <trkpt lat="49.8701" lon="4.75403">
        <ele>350</ele>
        <time>2024-05-08T13:41:14Z</time>
      </trkpt>
      <trkpt lat="49.87011" lon="4.75404">
        <ele>350</ele>
        <time>2024-05-08T13:41:15Z</time>
      </trkpt>
      <trkpt lat="49.87011" lon="4.75404">
        <ele>350</ele>
        <time>2024-05-08T13:41:16Z</time>
      </trkpt>
      <trkpt lat="49.87012" lon="4.75404">
        <ele>350</ele>
        <time>2024-05-08T13:41:17Z</time>
      </trkpt>
      <trkpt lat="49.87013" lon="4.75404">
        <ele>350</ele>
        <time>2024-05-08T13:41:18Z</time>
      </trkpt>
      <trkpt lat="49.87014" lon="4.75405">
        <ele>350</ele>
        <time>2024-05-08T13:41:19Z</time>
      </trkpt>
      <trkpt lat="49.87015" lon="4.75406">
        <ele>350</ele>
        <time>2024-05-08T13:41:20Z</time>
      </trkpt>
      <trkpt lat="49.87015" lon="4.75408">
        <ele>350</ele>
        <time>2024-05-08T13:41:21Z</time>
      </trkpt>
      <trkpt lat="49.87015" lon="4.75409">
        <ele>350</ele>
        <time>2024-05-08T13:41:22Z</time>
      </trkpt>
      <trkpt lat="49.87016" lon="4.75411">
        <ele>350</ele>
        <time>2024-05-08T13:41:23Z</time>
      </trkpt>
      <trkpt lat="49.87016" lon="4.75413">
        <ele>350</ele>
        <time>2024-05-08T13:41:24Z</time>
      </trkpt>
      <trkpt lat="49.87017" lon="4.75414">
        <ele>350</ele>
        <time>2024-05-08T13:41:25Z</time>
      </trkpt>
      <trkpt lat="49.87017" lon="4.75416">
        <ele>350</ele>
        <time>2024-05-08T13:41:26Z</time>
      </trkpt>
      <trkpt lat="49.87018" lon="4.75417">
        <ele>350</ele>
        <time>2024-05-08T13:41:27Z</time>
      </trkpt>
      <trkpt lat="49.87019" lon="4.75418">
        <ele>350</ele>
        <time>2024-05-08T13:41:28Z</time>
      </trkpt>
      <trkpt lat="49.8702" lon="4.75419">
        <ele>350</ele>
        <time>2024-05-08T13:41:29Z</time>
      </trkpt>
      <trkpt lat="49.87021" lon="4.7542">
        <ele>350</ele>
        <time>2024-05-08T13:41:30Z</time>
      </trkpt>
      <trkpt lat="49.87022" lon="4.75421">
        <ele>350</ele>
        <time>2024-05-08T13:41:31Z</time>
      </trkpt>
      <trkpt lat="49.87023" lon="4.75423">
        <ele>350</ele>
        <time>2024-05-08T13:41:32Z</time>
      </trkpt>
      <trkpt lat="49.87023" lon="4.75424">
        <ele>350</ele>
        <time>2024-05-08T13:41:33Z</time>
      </trkpt>
      <trkpt lat="49.87024" lon="4.75426">
        <ele>350</ele>
        <time>2024-05-08T13:41:34Z</time>
      </trkpt>
      <trkpt lat="49.87025" lon="4.75427">
        <ele>350</ele>
        <time>2024-05-08T13:41:35Z</time>
      </trkpt>
      <trkpt lat="49.87026" lon="4.75428">
        <ele>350</ele>
        <time>2024-05-08T13:41:36Z</time>
      </trkpt>
      <trkpt lat="49.87026" lon="4.75429">
        <ele>350</ele>
        <time>2024-05-08T13:41:37Z</time>
      </trkpt>
      <trkpt lat="49.87027" lon="4.7543">
        <ele>350</ele>
        <time>2024-05-08T13:41:38Z</time>
      </trkpt>
      <trkpt lat="49.87028" lon="4.75431">
        <ele>350</ele>
        <time>2024-05-08T13:41:39Z</time>
      </trkpt>
      <trkpt lat="49.87029" lon="4.75432">
        <ele>350</ele>
        <time>2024-05-08T13:41:40Z</time>
      </trkpt>
      <trkpt lat="49.8703" lon="4.75433">
        <ele>351</ele>
        <time>2024-05-08T13:41:41Z</time>
      </trkpt>
      <trkpt lat="49.87031" lon="4.75434">
        <ele>351</ele>
        <time>2024-05-08T13:41:42Z</time>
      </trkpt>
      <trkpt lat="49.87032" lon="4.75434">
        <ele>351</ele>
        <time>2024-05-08T13:41:43Z</time>
      </trkpt>
      <trkpt lat="49.87033" lon="4.75435">
        <ele>351</ele>
        <time>2024-05-08T13:41:44Z</time>
      </trkpt>
      <trkpt lat="49.87034" lon="4.75436">
        <ele>351</ele>
        <time>2024-05-08T13:41:45Z</time>
      </trkpt>
      <trkpt lat="49.87035" lon="4.75437">
        <ele>351</ele>
        <time>2024-05-08T13:41:46Z</time>
      </trkpt>
      <trkpt lat="49.87036" lon="4.75438">
        <ele>351</ele>
        <time>2024-05-08T13:41:47Z</time>
      </trkpt>
      <trkpt lat="49.87037" lon="4.7544">
        <ele>351</ele>
        <time>2024-05-08T13:41:48Z</time>
      </trkpt>
      <trkpt lat="49.87038" lon="4.75441">
        <ele>351</ele>
        <time>2024-05-08T13:41:49Z</time>
      </trkpt>
      <trkpt lat="49.87039" lon="4.75443">
        <ele>351</ele>
        <time>2024-05-08T13:41:50Z</time>
      </trkpt>
      <trkpt lat="49.8704" lon="4.75445">
        <ele>351</ele>
        <time>2024-05-08T13:41:51Z</time>
      </trkpt>
      <trkpt lat="49.8704" lon="4.75447">
        <ele>351</ele>
        <time>2024-05-08T13:41:52Z</time>
      </trkpt>
      <trkpt lat="49.87041" lon="4.75448">
        <ele>351</ele>
        <time>2024-05-08T13:41:53Z</time>
      </trkpt>
      <trkpt lat="49.87041" lon="4.7545">
        <ele>351</ele>
        <time>2024-05-08T13:41:54Z</time>
      </trkpt>
      <trkpt lat="49.87042" lon="4.75451">
        <ele>351</ele>
        <time>2024-05-08T13:41:55Z</time>
      </trkpt>
      <trkpt lat="49.87042" lon="4.75453">
        <ele>351</ele>
        <time>2024-05-08T13:41:56Z</time>
      </trkpt>
      <trkpt lat="49.87043" lon="4.75454">
        <ele>351</ele>
        <time>2024-05-08T13:41:57Z</time>
      </trkpt>
      <trkpt lat="49.87044" lon="4.75455">
        <ele>351</ele>
        <time>2024-05-08T13:41:58Z</time>
      </trkpt>
      <trkpt lat="49.87044" lon="4.75456">
        <ele>351</ele>
        <time>2024-05-08T13:41:59Z</time>
      </trkpt>
      <trkpt lat="49.87045" lon="4.75458">
        <ele>351</ele>
        <time>2024-05-08T13:42:00Z</time>
      </trkpt>
      <trkpt lat="49.87045" lon="4.75459">
        <ele>352</ele>
        <time>2024-05-08T13:42:01Z</time>
      </trkpt>
      <trkpt lat="49.87046" lon="4.7546">
        <ele>352</ele>
        <time>2024-05-08T13:42:02Z</time>
      </trkpt>
      <trkpt lat="49.87047" lon="4.75461">
        <ele>352</ele>
        <time>2024-05-08T13:42:03Z</time>
      </trkpt>
      <trkpt lat="49.87047" lon="4.75462">
        <ele>352</ele>
        <time>2024-05-08T13:42:04Z</time>
      </trkpt>
      <trkpt lat="49.87048" lon="4.75463">
        <ele>352</ele>
        <time>2024-05-08T13:42:05Z</time>
      </trkpt>
      <trkpt lat="49.87049" lon="4.75464">
        <ele>352</ele>
        <time>2024-05-08T13:42:06Z</time>
      </trkpt>
      <trkpt lat="49.8705" lon="4.75465">
        <ele>352</ele>
        <time>2024-05-08T13:42:07Z</time>
      </trkpt>
      <trkpt lat="49.87051" lon="4.75466">
        <ele>352</ele>
        <time>2024-05-08T13:42:08Z</time>
      </trkpt>
      <trkpt lat="49.87052" lon="4.75466">
        <ele>352</ele>
        <time>2024-05-08T13:42:09Z</time>
      </trkpt>
      <trkpt lat="49.87053" lon="4.75467">
        <ele>352</ele>
        <time>2024-05-08T13:42:10Z</time>
      </trkpt>
      <trkpt lat="49.87054" lon="4.75467">
        <ele>352</ele>
        <time>2024-05-08T13:42:11Z</time>
      </trkpt>
      <trkpt lat="49.87055" lon="4.75468">
        <ele>352</ele>
        <time>2024-05-08T13:42:12Z</time>
      </trkpt>
      <trkpt lat="49.87055" lon="4.75469">
        <ele>352</ele>
        <time>2024-05-08T13:42:13Z</time>
      </trkpt>
      <trkpt lat="49.87056" lon="4.7547">
        <ele>352</ele>
        <time>2024-05-08T13:42:14Z</time>
      </trkpt>
      <trkpt lat="49.87057" lon="4.75472">
        <ele>352</ele>
        <time>2024-05-08T13:42:15Z</time>
      </trkpt>
      <trkpt lat="49.87057" lon="4.75473">
        <ele>352</ele>
        <time>2024-05-08T13:42:16Z</time>
      </trkpt>
      <trkpt lat="49.87058" lon="4.75474">
        <ele>352</ele>
        <time>2024-05-08T13:42:17Z</time>
      </trkpt>
      <trkpt lat="49.87059" lon="4.75475">
        <ele>352</ele>
        <time>2024-05-08T13:42:18Z</time>
      </trkpt>
      <trkpt lat="49.8706" lon="4.75476">
        <ele>352</ele>
        <time>2024-05-08T13:42:19Z</time>
      </trkpt>
      <trkpt lat="49.87061" lon="4.75477">
        <ele>352</ele>
        <time>2024-05-08T13:42:20Z</time>
      </trkpt>
      <trkpt lat="49.87062" lon="4.75479">
        <ele>352</ele>
        <time>2024-05-08T13:42:21Z</time>
      </trkpt>
      <trkpt lat="49.87063" lon="4.7548">
        <ele>352</ele>
        <time>2024-05-08T13:42:22Z</time>
      </trkpt>
      <trkpt lat="49.87064" lon="4.75481">
        <ele>352</ele>
        <time>2024-05-08T13:42:23Z</time>
      </trkpt>
      <trkpt lat="49.87064" lon="4.75482">
        <ele>352</ele>
        <time>2024-05-08T13:42:24Z</time>
      </trkpt>
      <trkpt lat="49.87065" lon="4.75483">
        <ele>352</ele>
        <time>2024-05-08T13:42:25Z</time>
      </trkpt>
      <trkpt lat="49.87066" lon="4.75484">
        <ele>353</ele>
        <time>2024-05-08T13:42:26Z</time>
      </trkpt>
      <trkpt lat="49.87067" lon="4.75485">
        <ele>353</ele>
        <time>2024-05-08T13:42:27Z</time>
      </trkpt>
      <trkpt lat="49.87068" lon="4.75486">
        <ele>353</ele>
        <time>2024-05-08T13:42:28Z</time>
      </trkpt>
      <trkpt lat="49.87068" lon="4.75487">
        <ele>353</ele>
        <time>2024-05-08T13:42:29Z</time>
      </trkpt>
      <trkpt lat="49.87069" lon="4.75488">
        <ele>353</ele>
        <time>2024-05-08T13:42:30Z</time>
      </trkpt>
      <trkpt lat="49.8707" lon="4.75489">
        <ele>353</ele>
        <time>2024-05-08T13:42:31Z</time>
      </trkpt>
      <trkpt lat="49.87071" lon="4.75491">
        <ele>353</ele>
        <time>2024-05-08T13:42:32Z</time>
      </trkpt>
      <trkpt lat="49.87072" lon="4.75492">
        <ele>353</ele>
        <time>2024-05-08T13:42:33Z</time>
      </trkpt>
      <trkpt lat="49.87073" lon="4.75493">
        <ele>353</ele>
        <time>2024-05-08T13:42:34Z</time>
      </trkpt>
      <trkpt lat="49.87074" lon="4.75494">
        <ele>353</ele>
        <time>2024-05-08T13:42:35Z</time>
      </trkpt>
      <trkpt lat="49.87075" lon="4.75496">
        <ele>353</ele>
        <time>2024-05-08T13:42:36Z</time>
      </trkpt>
      <trkpt lat="49.87076" lon="4.75496">
        <ele>353</ele>
        <time>2024-05-08T13:42:37Z</time>
      </trkpt>
      <trkpt lat="49.87077" lon="4.75497">
        <ele>353</ele>
        <time>2024-05-08T13:42:38Z</time>
      </trkpt>
      <trkpt lat="49.87078" lon="4.75498">
        <ele>353</ele>
        <time>2024-05-08T13:42:39Z</time>
      </trkpt>
      <trkpt lat="49.87078" lon="4.75499">
        <ele>353</ele>
        <time>2024-05-08T13:42:40Z</time>
      </trkpt>
      <trkpt lat="49.87079" lon="4.755">
        <ele>353</ele>
        <time>2024-05-08T13:42:41Z</time>
      </trkpt>
      <trkpt lat="49.8708" lon="4.75501">
        <ele>353</ele>
        <time>2024-05-08T13:42:42Z</time>
      </trkpt>
      <trkpt lat="49.87081" lon="4.75501">
        <ele>353</ele>
        <time>2024-05-08T13:42:43Z</time>
      </trkpt>
      <trkpt lat="49.87081" lon="4.75502">
        <ele>353</ele>
        <time>2024-05-08T13:42:44Z</time>
      </trkpt>
      <trkpt lat="49.87082" lon="4.75503">
        <ele>353</ele>
        <time>2024-05-08T13:42:45Z</time>
      </trkpt>
      <trkpt lat="49.87082" lon="4.75504">
        <ele>353</ele>
        <time>2024-05-08T13:42:46Z</time>
      </trkpt>
      <trkpt lat="49.87083" lon="4.75505">
        <ele>353</ele>
        <time>2024-05-08T13:42:47Z</time>
      </trkpt>
      <trkpt lat="49.87084" lon="4.75506">
        <ele>353</ele>
        <time>2024-05-08T13:42:48Z</time>
      </trkpt>
      <trkpt lat="49.87085" lon="4.75507">
        <ele>353</ele>
        <time>2024-05-08T13:42:49Z</time>
      </trkpt>
      <trkpt lat="49.87085" lon="4.75508">
        <ele>353</ele>
        <time>2024-05-08T13:42:50Z</time>
      </trkpt>
      <trkpt lat="49.87086" lon="4.75508">
        <ele>354</ele>
        <time>2024-05-08T13:42:51Z</time>
      </trkpt>
      <trkpt lat="49.87087" lon="4.75509">
        <ele>354</ele>
        <time>2024-05-08T13:42:52Z</time>
      </trkpt>
      <trkpt lat="49.87089" lon="4.75509">
        <ele>354</ele>
        <time>2024-05-08T13:42:53Z</time>
      </trkpt>
      <trkpt lat="49.8709" lon="4.75509">
        <ele>354</ele>
        <time>2024-05-08T13:42:54Z</time>
      </trkpt>
      <trkpt lat="49.8709" lon="4.75509">
        <ele>354</ele>
        <time>2024-05-08T13:42:55Z</time>
      </trkpt>
      <trkpt lat="49.87091" lon="4.7551">
        <ele>354</ele>
        <time>2024-05-08T13:42:56Z</time>
      </trkpt>
      <trkpt lat="49.87092" lon="4.7551">
        <ele>354</ele>
        <time>2024-05-08T13:42:57Z</time>
      </trkpt>
      <trkpt lat="49.87093" lon="4.75511">
        <ele>354</ele>
        <time>2024-05-08T13:42:58Z</time>
      </trkpt>
      <trkpt lat="49.87094" lon="4.75512">
        <ele>354</ele>
        <time>2024-05-08T13:42:59Z</time>
      </trkpt>
      <trkpt lat="49.87095" lon="4.75512">
        <ele>354</ele>
        <time>2024-05-08T13:43:00Z</time>
      </trkpt>
      <trkpt lat="49.87096" lon="4.75513">
        <ele>354</ele>
        <time>2024-05-08T13:43:01Z</time>
      </trkpt>
      <trkpt lat="49.87097" lon="4.75514">
        <ele>354</ele>
        <time>2024-05-08T13:43:02Z</time>
      </trkpt>
      <trkpt lat="49.87098" lon="4.75515">
        <ele>354</ele>
        <time>2024-05-08T13:43:03Z</time>
      </trkpt>
      <trkpt lat="49.87099" lon="4.75516">
        <ele>354</ele>
        <time>2024-05-08T13:43:04Z</time>
      </trkpt>
      <trkpt lat="49.871" lon="4.75517">
        <ele>354</ele>
        <time>2024-05-08T13:43:05Z</time>
      </trkpt>
      <trkpt lat="49.87101" lon="4.75518">
        <ele>354</ele>
        <time>2024-05-08T13:43:06Z</time>
      </trkpt>
      <trkpt lat="49.87102" lon="4.75519">
        <ele>354</ele>
        <time>2024-05-08T13:43:07Z</time>
      </trkpt>
      <trkpt lat="49.87103" lon="4.7552">
        <ele>354</ele>
        <time>2024-05-08T13:43:08Z</time>
      </trkpt>
      <trkpt lat="49.87105" lon="4.75521">
        <ele>354</ele>
        <time>2024-05-08T13:43:09Z</time>
      </trkpt>
      <trkpt lat="49.87106" lon="4.75522">
        <ele>354</ele>
        <time>2024-05-08T13:43:10Z</time>
      </trkpt>
      <trkpt lat="49.87107" lon="4.75523">
        <ele>354</ele>
        <time>2024-05-08T13:43:11Z</time>
      </trkpt>
      <trkpt lat="49.87108" lon="4.75523">
        <ele>354</ele>
        <time>2024-05-08T13:43:12Z</time>
      </trkpt>
      <trkpt lat="49.87109" lon="4.75524">
        <ele>354</ele>
        <time>2024-05-08T13:43:13Z</time>
      </trkpt>
      <trkpt lat="49.87109" lon="4.75525">
        <ele>354</ele>
        <time>2024-05-08T13:43:14Z</time>
      </trkpt>
      <trkpt lat="49.8711" lon="4.75525">
        <ele>354</ele>
        <time>2024-05-08T13:43:15Z</time>
      </trkpt>
      <trkpt lat="49.87111" lon="4.75526">
        <ele>354</ele>
        <time>2024-05-08T13:43:16Z</time>
      </trkpt>
      <trkpt lat="49.87112" lon="4.75527">
        <ele>354</ele>
        <time>2024-05-08T13:43:17Z</time>
      </trkpt>
      <trkpt lat="49.87114" lon="4.75528">
        <ele>354</ele>
        <time>2024-05-08T13:43:18Z</time>
      </trkpt>
      <trkpt lat="49.87114" lon="4.75529">
        <ele>354</ele>
        <time>2024-05-08T13:43:19Z</time>
      </trkpt>
      <trkpt lat="49.87115" lon="4.7553">
        <ele>354</ele>
        <time>2024-05-08T13:43:20Z</time>
      </trkpt>
      <trkpt lat="49.87116" lon="4.75531">
        <ele>354</ele>
        <time>2024-05-08T13:43:21Z</time>
      </trkpt>
      <trkpt lat="49.87116" lon="4.75533">
        <ele>354</ele>
        <time>2024-05-08T13:43:22Z</time>
      </trkpt>
      <trkpt lat="49.87116" lon="4.75534">
        <ele>354</ele>
        <time>2024-05-08T13:43:23Z</time>
      </trkpt>
      <trkpt lat="49.87116" lon="4.75536">
        <ele>354</ele>
        <time>2024-05-08T13:43:24Z</time>
      </trkpt>
      <trkpt lat="49.87117" lon="4.75538">
        <ele>354</ele>
        <time>2024-05-08T13:43:25Z</time>
      </trkpt>
      <trkpt lat="49.87117" lon="4.75539">
        <ele>355</ele>
        <time>2024-05-08T13:43:26Z</time>
      </trkpt>
      <trkpt lat="49.87118" lon="4.75541">
        <ele>355</ele>
        <time>2024-05-08T13:43:27Z</time>
      </trkpt>
      <trkpt lat="49.87118" lon="4.75543">
        <ele>355</ele>
        <time>2024-05-08T13:43:28Z</time>
      </trkpt>
      <trkpt lat="49.87119" lon="4.75544">
        <ele>355</ele>
        <time>2024-05-08T13:43:29Z</time>
      </trkpt>
      <trkpt lat="49.87119" lon="4.75546">
        <ele>355</ele>
        <time>2024-05-08T13:43:30Z</time>
      </trkpt>
      <trkpt lat="49.8712" lon="4.75548">
        <ele>355</ele>
        <time>2024-05-08T13:43:31Z</time>
      </trkpt>
      <trkpt lat="49.8712" lon="4.75549">
        <ele>355</ele>
        <time>2024-05-08T13:43:32Z</time>
      </trkpt>
      <trkpt lat="49.8712" lon="4.75551">
        <ele>355</ele>
        <time>2024-05-08T13:43:33Z</time>
      </trkpt>
      <trkpt lat="49.8712" lon="4.75553">
        <ele>355</ele>
        <time>2024-05-08T13:43:34Z</time>
      </trkpt>
      <trkpt lat="49.8712" lon="4.75557">
        <ele>356</ele>
        <time>2024-05-08T13:43:45Z</time>
      </trkpt>
      <trkpt lat="49.8712" lon="4.75558">
        <ele>356</ele>
        <time>2024-05-08T13:43:46Z</time>
      </trkpt>
      <trkpt lat="49.8712" lon="4.75559">
        <ele>356</ele>
        <time>2024-05-08T13:43:47Z</time>
      </trkpt>
      <trkpt lat="49.87121" lon="4.7556">
        <ele>356</ele>
        <time>2024-05-08T13:43:48Z</time>
      </trkpt>
      <trkpt lat="49.87121" lon="4.75561">
        <ele>356</ele>
        <time>2024-05-08T13:43:49Z</time>
      </trkpt>
      <trkpt lat="49.87122" lon="4.75562">
        <ele>356</ele>
        <time>2024-05-08T13:43:50Z</time>
      </trkpt>
      <trkpt lat="49.87123" lon="4.75564">
        <ele>356</ele>
        <time>2024-05-08T13:43:51Z</time>
      </trkpt>
      <trkpt lat="49.87124" lon="4.75565">
        <ele>356</ele>
        <time>2024-05-08T13:43:52Z</time>
      </trkpt>
      <trkpt lat="49.87124" lon="4.75567">
        <ele>356</ele>
        <time>2024-05-08T13:43:53Z</time>
      </trkpt>
      <trkpt lat="49.87125" lon="4.75569">
        <ele>356</ele>
        <time>2024-05-08T13:43:54Z</time>
      </trkpt>
      <trkpt lat="49.87126" lon="4.7557">
        <ele>356</ele>
        <time>2024-05-08T13:43:55Z</time>
      </trkpt>
      <trkpt lat="49.87126" lon="4.75572">
        <ele>356</ele>
        <time>2024-05-08T13:43:56Z</time>
      </trkpt>
      <trkpt lat="49.87127" lon="4.75573">
        <ele>356</ele>
        <time>2024-05-08T13:43:57Z</time>
      </trkpt>
      <trkpt lat="49.87128" lon="4.75575">
        <ele>356</ele>
        <time>2024-05-08T13:43:58Z</time>
      </trkpt>
      <trkpt lat="49.87128" lon="4.75576">
        <ele>356</ele>
        <time>2024-05-08T13:43:59Z</time>
      </trkpt>
      <trkpt lat="49.87129" lon="4.75577">
        <ele>356</ele>
        <time>2024-05-08T13:44:00Z</time>
      </trkpt>
      <trkpt lat="49.8713" lon="4.75579">
        <ele>357</ele>
        <time>2024-05-08T13:44:01Z</time>
      </trkpt>
      <trkpt lat="49.87131" lon="4.7558">
        <ele>357</ele>
        <time>2024-05-08T13:44:02Z</time>
      </trkpt>
      <trkpt lat="49.87132" lon="4.75582">
        <ele>357</ele>
        <time>2024-05-08T13:44:03Z</time>
      </trkpt>
      <trkpt lat="49.87133" lon="4.75583">
        <ele>357</ele>
        <time>2024-05-08T13:44:04Z</time>
      </trkpt>
      <trkpt lat="49.87134" lon="4.75584">
        <ele>357</ele>
        <time>2024-05-08T13:44:05Z</time>
      </trkpt>
      <trkpt lat="49.87135" lon="4.75586">
        <ele>357</ele>
        <time>2024-05-08T13:44:06Z</time>
      </trkpt>
      <trkpt lat="49.87135" lon="4.75587">
        <ele>357</ele>
        <time>2024-05-08T13:44:07Z</time>
      </trkpt>
      <trkpt lat="49.87136" lon="4.75589">
        <ele>357</ele>
        <time>2024-05-08T13:44:08Z</time>
      </trkpt>
      <trkpt lat="49.87136" lon="4.7559">
        <ele>357</ele>
        <time>2024-05-08T13:44:09Z</time>
      </trkpt>
      <trkpt lat="49.87137" lon="4.75591">
        <ele>357</ele>
        <time>2024-05-08T13:44:10Z</time>
      </trkpt>
      <trkpt lat="49.87137" lon="4.75593">
        <ele>357</ele>
        <time>2024-05-08T13:44:11Z</time>
      </trkpt>
      <trkpt lat="49.87138" lon="4.75594">
        <ele>357</ele>
        <time>2024-05-08T13:44:12Z</time>
      </trkpt>
      <trkpt lat="49.87138" lon="4.75595">
        <ele>357</ele>
        <time>2024-05-08T13:44:13Z</time>
      </trkpt>
      <trkpt lat="49.87139" lon="4.75596">
        <ele>357</ele>
        <time>2024-05-08T13:44:14Z</time>
      </trkpt>
      <trkpt lat="49.8714" lon="4.75597">
        <ele>357</ele>
        <time>2024-05-08T13:44:15Z</time>
      </trkpt>
      <trkpt lat="49.87141" lon="4.75599">
        <ele>358</ele>
        <time>2024-05-08T13:44:16Z</time>
      </trkpt>
      <trkpt lat="49.87142" lon="4.756">
        <ele>358</ele>
        <time>2024-05-08T13:44:17Z</time>
      </trkpt>
      <trkpt lat="49.87142" lon="4.75601">
        <ele>358</ele>
        <time>2024-05-08T13:44:18Z</time>
      </trkpt>
      <trkpt lat="49.87143" lon="4.75602">
        <ele>358</ele>
        <time>2024-05-08T13:44:19Z</time>
      </trkpt>
      <trkpt lat="49.87144" lon="4.75604">
        <ele>358</ele>
        <time>2024-05-08T13:44:20Z</time>
      </trkpt>
      <trkpt lat="49.87145" lon="4.75605">
        <ele>358</ele>
        <time>2024-05-08T13:44:21Z</time>
      </trkpt>
      <trkpt lat="49.87145" lon="4.75607">
        <ele>358</ele>
        <time>2024-05-08T13:44:22Z</time>
      </trkpt>
      <trkpt lat="49.87146" lon="4.75608">
        <ele>358</ele>
        <time>2024-05-08T13:44:23Z</time>
      </trkpt>
      <trkpt lat="49.87146" lon="4.7561">
        <ele>358</ele>
        <time>2024-05-08T13:44:24Z</time>
      </trkpt>
      <trkpt lat="49.87147" lon="4.75612">
        <ele>358</ele>
        <time>2024-05-08T13:44:25Z</time>
      </trkpt>
      <trkpt lat="49.87148" lon="4.75613">
        <ele>359</ele>
        <time>2024-05-08T13:44:26Z</time>
      </trkpt>
      <trkpt lat="49.87148" lon="4.75614">
        <ele>359</ele>
        <time>2024-05-08T13:44:27Z</time>
      </trkpt>
      <trkpt lat="49.87149" lon="4.75616">
        <ele>359</ele>
        <time>2024-05-08T13:44:28Z</time>
      </trkpt>
      <trkpt lat="49.8715" lon="4.75617">
        <ele>359</ele>
        <time>2024-05-08T13:44:29Z</time>
      </trkpt>
      <trkpt lat="49.87151" lon="4.75618">
        <ele>359</ele>
        <time>2024-05-08T13:44:30Z</time>
      </trkpt>
      <trkpt lat="49.87151" lon="4.75619">
        <ele>359</ele>
        <time>2024-05-08T13:44:31Z</time>
      </trkpt>
      <trkpt lat="49.87152" lon="4.7562">
        <ele>359</ele>
        <time>2024-05-08T13:44:32Z</time>
      </trkpt>
      <trkpt lat="49.87153" lon="4.75621">
        <ele>359</ele>
        <time>2024-05-08T13:44:33Z</time>
      </trkpt>
      <trkpt lat="49.87154" lon="4.75622">
        <ele>359</ele>
        <time>2024-05-08T13:44:34Z</time>
      </trkpt>
      <trkpt lat="49.87155" lon="4.75624">
        <ele>359</ele>
        <time>2024-05-08T13:44:35Z</time>
      </trkpt>
      <trkpt lat="49.87156" lon="4.75625">
        <ele>360</ele>
        <time>2024-05-08T13:44:36Z</time>
      </trkpt>
      <trkpt lat="49.87157" lon="4.75626">
        <ele>360</ele>
        <time>2024-05-08T13:44:37Z</time>
      </trkpt>
      <trkpt lat="49.87158" lon="4.75627">
        <ele>360</ele>
        <time>2024-05-08T13:44:38Z</time>
      </trkpt>
      <trkpt lat="49.87158" lon="4.75628">
        <ele>360</ele>
        <time>2024-05-08T13:44:39Z</time>
      </trkpt>
      <trkpt lat="49.87159" lon="4.75629">
        <ele>360</ele>
        <time>2024-05-08T13:44:40Z</time>
      </trkpt>
      <trkpt lat="49.87159" lon="4.75631">
        <ele>360</ele>
        <time>2024-05-08T13:44:41Z</time>
      </trkpt>
      <trkpt lat="49.8716" lon="4.75632">
        <ele>360</ele>
        <time>2024-05-08T13:44:42Z</time>
      </trkpt>
      <trkpt lat="49.87161" lon="4.75633">
        <ele>360</ele>
        <time>2024-05-08T13:44:43Z</time>
      </trkpt>
      <trkpt lat="49.87161" lon="4.75634">
        <ele>360</ele>
        <time>2024-05-08T13:44:44Z</time>
      </trkpt>
      <trkpt lat="49.87162" lon="4.75635">
        <ele>360</ele>
        <time>2024-05-08T13:44:45Z</time>
      </trkpt>
      <trkpt lat="49.87163" lon="4.75636">
        <ele>361</ele>
        <time>2024-05-08T13:44:46Z</time>
      </trkpt>
      <trkpt lat="49.87164" lon="4.75636">
        <ele>361</ele>
        <time>2024-05-08T13:44:47Z</time>
      </trkpt>
      <trkpt lat="49.87165" lon="4.75637">
        <ele>361</ele>
        <time>2024-05-08T13:44:48Z</time>
      </trkpt>
      <trkpt lat="49.87166" lon="4.75638">
        <ele>361</ele>
        <time>2024-05-08T13:44:49Z</time>
      </trkpt>
      <trkpt lat="49.87167" lon="4.75639">
        <ele>361</ele>
        <time>2024-05-08T13:44:50Z</time>
      </trkpt>
      <trkpt lat="49.87167" lon="4.7564">
        <ele>361</ele>
        <time>2024-05-08T13:44:51Z</time>
      </trkpt>
      <trkpt lat="49.87168" lon="4.7564">
        <ele>361</ele>
        <time>2024-05-08T13:44:52Z</time>
      </trkpt>
      <trkpt lat="49.87169" lon="4.75642">
        <ele>361</ele>
        <time>2024-05-08T13:44:53Z</time>
      </trkpt>
      <trkpt lat="49.8717" lon="4.75643">
        <ele>361</ele>
        <time>2024-05-08T13:44:54Z</time>
      </trkpt>
      <trkpt lat="49.87171" lon="4.75644">
        <ele>361</ele>
        <time>2024-05-08T13:44:55Z</time>
      </trkpt>
      <trkpt lat="49.87172" lon="4.75645">
        <ele>361</ele>
        <time>2024-05-08T13:44:56Z</time>
      </trkpt>
      <trkpt lat="49.87173" lon="4.75647">
        <ele>361</ele>
        <time>2024-05-08T13:44:57Z</time>
      </trkpt>
      <trkpt lat="49.87173" lon="4.75648">
        <ele>361</ele>
        <time>2024-05-08T13:44:58Z</time>
      </trkpt>
      <trkpt lat="49.87174" lon="4.7565">
        <ele>361</ele>
        <time>2024-05-08T13:44:59Z</time>
      </trkpt>
      <trkpt lat="49.87175" lon="4.75651">
        <ele>361</ele>
        <time>2024-05-08T13:45:00Z</time>
      </trkpt>
      <trkpt lat="49.87176" lon="4.75652">
        <ele>362</ele>
        <time>2024-05-08T13:45:01Z</time>
      </trkpt>
      <trkpt lat="49.87177" lon="4.75654">
        <ele>362</ele>
        <time>2024-05-08T13:45:02Z</time>
      </trkpt>
      <trkpt lat="49.87178" lon="4.75656">
        <ele>362</ele>
        <time>2024-05-08T13:45:03Z</time>
      </trkpt>
      <trkpt lat="49.87178" lon="4.75657">
        <ele>362</ele>
        <time>2024-05-08T13:45:04Z</time>
      </trkpt>
      <trkpt lat="49.87179" lon="4.75659">
        <ele>362</ele>
        <time>2024-05-08T13:45:05Z</time>
      </trkpt>
      <trkpt lat="49.87179" lon="4.7566">
        <ele>362</ele>
        <time>2024-05-08T13:45:06Z</time>
      </trkpt>
      <trkpt lat="49.87179" lon="4.75661">
        <ele>362</ele>
        <time>2024-05-08T13:45:07Z</time>
      </trkpt>
      <trkpt lat="49.87179" lon="4.75662">
        <ele>362</ele>
        <time>2024-05-08T13:45:08Z</time>
      </trkpt>
      <trkpt lat="49.8718" lon="4.75664">
        <ele>362</ele>
        <time>2024-05-08T13:45:09Z</time>
      </trkpt>
      <trkpt lat="49.8718" lon="4.75665">
        <ele>362</ele>
        <time>2024-05-08T13:45:10Z</time>
      </trkpt>
      <trkpt lat="49.87181" lon="4.75666">
        <ele>363</ele>
        <time>2024-05-08T13:45:11Z</time>
      </trkpt>
      <trkpt lat="49.87181" lon="4.75668">
        <ele>363</ele>
        <time>2024-05-08T13:45:12Z</time>
      </trkpt>
      <trkpt lat="49.87182" lon="4.75669">
        <ele>363</ele>
        <time>2024-05-08T13:45:13Z</time>
      </trkpt>
      <trkpt lat="49.87183" lon="4.75671">
        <ele>363</ele>
        <time>2024-05-08T13:45:14Z</time>
      </trkpt>
      <trkpt lat="49.87183" lon="4.75673">
        <ele>363</ele>
        <time>2024-05-08T13:45:15Z</time>
      </trkpt>
      <trkpt lat="49.87184" lon="4.75674">
        <ele>363</ele>
        <time>2024-05-08T13:45:16Z</time>
      </trkpt>
      <trkpt lat="49.87184" lon="4.75676">
        <ele>363</ele>
        <time>2024-05-08T13:45:17Z</time>
      </trkpt>
      <trkpt lat="49.87185" lon="4.75677">
        <ele>363</ele>
        <time>2024-05-08T13:45:18Z</time>
      </trkpt>
      <trkpt lat="49.87186" lon="4.75678">
        <ele>363</ele>
        <time>2024-05-08T13:45:19Z</time>
      </trkpt>
      <trkpt lat="49.87186" lon="4.7568">
        <ele>363</ele>
        <time>2024-05-08T13:45:20Z</time>
      </trkpt>
      <trkpt lat="49.87187" lon="4.75681">
        <ele>364</ele>
        <time>2024-05-08T13:45:21Z</time>
      </trkpt>
      <trkpt lat="49.87188" lon="4.75682">
        <ele>364</ele>
        <time>2024-05-08T13:45:22Z</time>
      </trkpt>
      <trkpt lat="49.87188" lon="4.75684">
        <ele>364</ele>
        <time>2024-05-08T13:45:23Z</time>
      </trkpt>
      <trkpt lat="49.87188" lon="4.75686">
        <ele>364</ele>
        <time>2024-05-08T13:45:24Z</time>
      </trkpt>
      <trkpt lat="49.87188" lon="4.75687">
        <ele>364</ele>
        <time>2024-05-08T13:45:25Z</time>
      </trkpt>
      <trkpt lat="49.87188" lon="4.75689">
        <ele>364</ele>
        <time>2024-05-08T13:45:26Z</time>
      </trkpt>
      <trkpt lat="49.87188" lon="4.75691">
        <ele>364</ele>
        <time>2024-05-08T13:45:27Z</time>
      </trkpt>
      <trkpt lat="49.87188" lon="4.75693">
        <ele>364</ele>
        <time>2024-05-08T13:45:28Z</time>
      </trkpt>
      <trkpt lat="49.87188" lon="4.75695">
        <ele>364</ele>
        <time>2024-05-08T13:45:29Z</time>
      </trkpt>
      <trkpt lat="49.87188" lon="4.75696">
        <ele>364</ele>
        <time>2024-05-08T13:45:30Z</time>
      </trkpt>
      <trkpt lat="49.87188" lon="4.75698">
        <ele>365</ele>
        <time>2024-05-08T13:45:31Z</time>
      </trkpt>
      <trkpt lat="49.87189" lon="4.75699">
        <ele>365</ele>
        <time>2024-05-08T13:45:32Z</time>
      </trkpt>
      <trkpt lat="49.87189" lon="4.757">
        <ele>365</ele>
        <time>2024-05-08T13:45:33Z</time>
      </trkpt>
      <trkpt lat="49.8719" lon="4.75702">
        <ele>365</ele>
        <time>2024-05-08T13:45:34Z</time>
      </trkpt>
      <trkpt lat="49.8719" lon="4.75703">
        <ele>365</ele>
        <time>2024-05-08T13:45:35Z</time>
      </trkpt>
      <trkpt lat="49.87191" lon="4.75704">
        <ele>365</ele>
        <time>2024-05-08T13:45:36Z</time>
      </trkpt>
      <trkpt lat="49.87191" lon="4.75706">
        <ele>365</ele>
        <time>2024-05-08T13:45:37Z</time>
      </trkpt>
      <trkpt lat="49.87192" lon="4.75707">
        <ele>365</ele>
        <time>2024-05-08T13:45:38Z</time>
      </trkpt>
      <trkpt lat="49.87193" lon="4.75709">
        <ele>365</ele>
        <time>2024-05-08T13:45:39Z</time>
      </trkpt>
      <trkpt lat="49.87194" lon="4.7571">
        <ele>365</ele>
        <time>2024-05-08T13:45:40Z</time>
      </trkpt>
      <trkpt lat="49.87195" lon="4.75712">
        <ele>366</ele>
        <time>2024-05-08T13:45:41Z</time>
      </trkpt>
      <trkpt lat="49.87196" lon="4.75713">
        <ele>366</ele>
        <time>2024-05-08T13:45:42Z</time>
      </trkpt>
      <trkpt lat="49.87197" lon="4.75715">
        <ele>366</ele>
        <time>2024-05-08T13:45:43Z</time>
      </trkpt>
      <trkpt lat="49.87198" lon="4.75716">
        <ele>366</ele>
        <time>2024-05-08T13:45:44Z</time>
      </trkpt>
      <trkpt lat="49.87199" lon="4.75718">
        <ele>366</ele>
        <time>2024-05-08T13:45:45Z</time>
      </trkpt>
      <trkpt lat="49.872" lon="4.75719">
        <ele>366</ele>
        <time>2024-05-08T13:45:46Z</time>
      </trkpt>
      <trkpt lat="49.87201" lon="4.75721">
        <ele>366</ele>
        <time>2024-05-08T13:45:47Z</time>
      </trkpt>
      <trkpt lat="49.87202" lon="4.75722">
        <ele>366</ele>
        <time>2024-05-08T13:45:48Z</time>
      </trkpt>
      <trkpt lat="49.87202" lon="4.75723">
        <ele>366</ele>
        <time>2024-05-08T13:45:49Z</time>
      </trkpt>
      <trkpt lat="49.87202" lon="4.75724">
        <ele>366</ele>
        <time>2024-05-08T13:45:50Z</time>
      </trkpt>
      <trkpt lat="49.87202" lon="4.75726">
        <ele>367</ele>
        <time>2024-05-08T13:45:51Z</time>
      </trkpt>
      <trkpt lat="49.87202" lon="4.75727">
        <ele>367</ele>
        <time>2024-05-08T13:45:52Z</time>
      </trkpt>
      <trkpt lat="49.87202" lon="4.75729">
        <ele>367</ele>
        <time>2024-05-08T13:45:53Z</time>
      </trkpt>
      <trkpt lat="49.87201" lon="4.7573">
        <ele>367</ele>
        <time>2024-05-08T13:45:54Z</time>
      </trkpt>
      <trkpt lat="49.87201" lon="4.75731">
        <ele>367</ele>
        <time>2024-05-08T13:45:55Z</time>
      </trkpt>
      <trkpt lat="49.87201" lon="4.75732">
        <ele>368</ele>
        <time>2024-05-08T13:45:56Z</time>
      </trkpt>
      <trkpt lat="49.87201" lon="4.75734">
        <ele>368</ele>
        <time>2024-05-08T13:45:57Z</time>
      </trkpt>
      <trkpt lat="49.87201" lon="4.75735">
        <ele>368</ele>
        <time>2024-05-08T13:45:58Z</time>
      </trkpt>
      <trkpt lat="49.87201" lon="4.75737">
        <ele>368</ele>
        <time>2024-05-08T13:45:59Z</time>
      </trkpt>
      <trkpt lat="49.87201" lon="4.75738">
        <ele>368</ele>
        <time>2024-05-08T13:46:00Z</time>
      </trkpt>
      <trkpt lat="49.87201" lon="4.75739">
        <ele>368</ele>
        <time>2024-05-08T13:46:01Z</time>
      </trkpt>
      <trkpt lat="49.87201" lon="4.7574">
        <ele>368</ele>
        <time>2024-05-08T13:46:02Z</time>
      </trkpt>
      <trkpt lat="49.87202" lon="4.75742">
        <ele>368</ele>
        <time>2024-05-08T13:46:03Z</time>
      </trkpt>
      <trkpt lat="49.87202" lon="4.75743">
        <ele>368</ele>
        <time>2024-05-08T13:46:04Z</time>
      </trkpt>
      <trkpt lat="49.87203" lon="4.75744">
        <ele>368</ele>
        <time>2024-05-08T13:46:05Z</time>
      </trkpt>
      <trkpt lat="49.87203" lon="4.75745">
        <ele>369</ele>
        <time>2024-05-08T13:46:06Z</time>
      </trkpt>
      <trkpt lat="49.87204" lon="4.75746">
        <ele>369</ele>
        <time>2024-05-08T13:46:07Z</time>
      </trkpt>
      <trkpt lat="49.87205" lon="4.75747">
        <ele>369</ele>
        <time>2024-05-08T13:46:08Z</time>
      </trkpt>
      <trkpt lat="49.87205" lon="4.75748">
        <ele>369</ele>
        <time>2024-05-08T13:46:09Z</time>
      </trkpt>
      <trkpt lat="49.87206" lon="4.75749">
        <ele>369</ele>
        <time>2024-05-08T13:46:10Z</time>
      </trkpt>
      <trkpt lat="49.87207" lon="4.7575">
        <ele>369</ele>
        <time>2024-05-08T13:46:11Z</time>
      </trkpt>
      <trkpt lat="49.87208" lon="4.75751">
        <ele>369</ele>
        <time>2024-05-08T13:46:12Z</time>
      </trkpt>
      <trkpt lat="49.87209" lon="4.75752">
        <ele>369</ele>
        <time>2024-05-08T13:46:13Z</time>
      </trkpt>
      <trkpt lat="49.8721" lon="4.75753">
        <ele>369</ele>
        <time>2024-05-08T13:46:14Z</time>
      </trkpt>
      <trkpt lat="49.87211" lon="4.75754">
        <ele>369</ele>
        <time>2024-05-08T13:46:15Z</time>
      </trkpt>
      <trkpt lat="49.87212" lon="4.75755">
        <ele>370</ele>
        <time>2024-05-08T13:46:16Z</time>
      </trkpt>
      <trkpt lat="49.87213" lon="4.75756">
        <ele>370</ele>
        <time>2024-05-08T13:46:17Z</time>
      </trkpt>
      <trkpt lat="49.87213" lon="4.75757">
        <ele>370</ele>
        <time>2024-05-08T13:46:18Z</time>
      </trkpt>
      <trkpt lat="49.87214" lon="4.75758">
        <ele>370</ele>
        <time>2024-05-08T13:46:19Z</time>
      </trkpt>
      <trkpt lat="49.87214" lon="4.75759">
        <ele>370</ele>
        <time>2024-05-08T13:46:20Z</time>
      </trkpt>
      <trkpt lat="49.87214" lon="4.7576">
        <ele>371</ele>
        <time>2024-05-08T13:46:21Z</time>
      </trkpt>
      <trkpt lat="49.87215" lon="4.75761">
        <ele>371</ele>
        <time>2024-05-08T13:46:22Z</time>
      </trkpt>
      <trkpt lat="49.87215" lon="4.75762">
        <ele>371</ele>
        <time>2024-05-08T13:46:23Z</time>
      </trkpt>
      <trkpt lat="49.87215" lon="4.75763">
        <ele>371</ele>
        <time>2024-05-08T13:46:24Z</time>
      </trkpt>
      <trkpt lat="49.87215" lon="4.75764">
        <ele>371</ele>
        <time>2024-05-08T13:46:25Z</time>
      </trkpt>
      <trkpt lat="49.87216" lon="4.75765">
        <ele>371</ele>
        <time>2024-05-08T13:46:26Z</time>
      </trkpt>
      <trkpt lat="49.87216" lon="4.75766">
        <ele>371</ele>
        <time>2024-05-08T13:46:27Z</time>
      </trkpt>
      <trkpt lat="49.87217" lon="4.75768">
        <ele>371</ele>
        <time>2024-05-08T13:46:28Z</time>
      </trkpt>
      <trkpt lat="49.87218" lon="4.75769">
        <ele>371</ele>
        <time>2024-05-08T13:46:29Z</time>
      </trkpt>
      <trkpt lat="49.87219" lon="4.7577">
        <ele>371</ele>
        <time>2024-05-08T13:46:30Z</time>
      </trkpt>
      <trkpt lat="49.87219" lon="4.75771">
        <ele>372</ele>
        <time>2024-05-08T13:46:31Z</time>
      </trkpt>
      <trkpt lat="49.8722" lon="4.75772">
        <ele>372</ele>
        <time>2024-05-08T13:46:32Z</time>
      </trkpt>
      <trkpt lat="49.87221" lon="4.75772">
        <ele>372</ele>
        <time>2024-05-08T13:46:33Z</time>
      </trkpt>
      <trkpt lat="49.87221" lon="4.75773">
        <ele>372</ele>
        <time>2024-05-08T13:46:34Z</time>
      </trkpt>
      <trkpt lat="49.87222" lon="4.75774">
        <ele>372</ele>
        <time>2024-05-08T13:46:35Z</time>
      </trkpt>
      <trkpt lat="49.87223" lon="4.75775">
        <ele>373</ele>
        <time>2024-05-08T13:46:36Z</time>
      </trkpt>
      <trkpt lat="49.87223" lon="4.75776">
        <ele>373</ele>
        <time>2024-05-08T13:46:37Z</time>
      </trkpt>
      <trkpt lat="49.87224" lon="4.75776">
        <ele>373</ele>
        <time>2024-05-08T13:46:38Z</time>
      </trkpt>
      <trkpt lat="49.87225" lon="4.75777">
        <ele>373</ele>
        <time>2024-05-08T13:46:39Z</time>
      </trkpt>
      <trkpt lat="49.87226" lon="4.75778">
        <ele>373</ele>
        <time>2024-05-08T13:46:40Z</time>
      </trkpt>
      <trkpt lat="49.87227" lon="4.75778">
        <ele>374</ele>
        <time>2024-05-08T13:46:41Z</time>
      </trkpt>
      <trkpt lat="49.87228" lon="4.75779">
        <ele>374</ele>
        <time>2024-05-08T13:46:42Z</time>
      </trkpt>
      <trkpt lat="49.87229" lon="4.7578">
        <ele>374</ele>
        <time>2024-05-08T13:46:43Z</time>
      </trkpt>
      <trkpt lat="49.87229" lon="4.75781">
        <ele>374</ele>
        <time>2024-05-08T13:46:44Z</time>
      </trkpt>
      <trkpt lat="49.8723" lon="4.75782">
        <ele>374</ele>
        <time>2024-05-08T13:46:45Z</time>
      </trkpt>
      <trkpt lat="49.87231" lon="4.75783">
        <ele>375</ele>
        <time>2024-05-08T13:46:46Z</time>
      </trkpt>
      <trkpt lat="49.87231" lon="4.75784">
        <ele>375</ele>
        <time>2024-05-08T13:46:47Z</time>
      </trkpt>
      <trkpt lat="49.87232" lon="4.75786">
        <ele>375</ele>
        <time>2024-05-08T13:46:48Z</time>
      </trkpt>
      <trkpt lat="49.87232" lon="4.75787">
        <ele>375</ele>
        <time>2024-05-08T13:46:49Z</time>
      </trkpt>
      <trkpt lat="49.87233" lon="4.75788">
        <ele>375</ele>
        <time>2024-05-08T13:46:50Z</time>
      </trkpt>
      <trkpt lat="49.87234" lon="4.75789">
        <ele>376</ele>
        <time>2024-05-08T13:46:51Z</time>
      </trkpt>
      <trkpt lat="49.87234" lon="4.75791">
        <ele>376</ele>
        <time>2024-05-08T13:46:52Z</time>
      </trkpt>
      <trkpt lat="49.87234" lon="4.75792">
        <ele>376</ele>
        <time>2024-05-08T13:46:53Z</time>
      </trkpt>
      <trkpt lat="49.87235" lon="4.75793">
        <ele>376</ele>
        <time>2024-05-08T13:46:54Z</time>
      </trkpt>
      <trkpt lat="49.87235" lon="4.75795">
        <ele>376</ele>
        <time>2024-05-08T13:46:55Z</time>
      </trkpt>
      <trkpt lat="49.87235" lon="4.75796">
        <ele>377</ele>
        <time>2024-05-08T13:46:56Z</time>
      </trkpt>
      <trkpt lat="49.87235" lon="4.75797">
        <ele>377</ele>
        <time>2024-05-08T13:46:57Z</time>
      </trkpt>
      <trkpt lat="49.87235" lon="4.75798">
        <ele>377</ele>
        <time>2024-05-08T13:46:58Z</time>
      </trkpt>
      <trkpt lat="49.87235" lon="4.758">
        <ele>377</ele>
        <time>2024-05-08T13:46:59Z</time>
      </trkpt>
      <trkpt lat="49.87236" lon="4.75801">
        <ele>377</ele>
        <time>2024-05-08T13:47:00Z</time>
      </trkpt>
      <trkpt lat="49.87236" lon="4.75802">
        <ele>378</ele>
        <time>2024-05-08T13:47:01Z</time>
      </trkpt>
      <trkpt lat="49.87237" lon="4.75803">
        <ele>378</ele>
        <time>2024-05-08T13:47:02Z</time>
      </trkpt>
      <trkpt lat="49.87237" lon="4.75804">
        <ele>378</ele>
        <time>2024-05-08T13:47:03Z</time>
      </trkpt>
      <trkpt lat="49.87238" lon="4.75805">
        <ele>378</ele>
        <time>2024-05-08T13:47:04Z</time>
      </trkpt>
      <trkpt lat="49.87239" lon="4.75806">
        <ele>378</ele>
        <time>2024-05-08T13:47:05Z</time>
      </trkpt>
      <trkpt lat="49.87239" lon="4.75807">
        <ele>379</ele>
        <time>2024-05-08T13:47:06Z</time>
      </trkpt>
      <trkpt lat="49.8724" lon="4.75808">
        <ele>379</ele>
        <time>2024-05-08T13:47:07Z</time>
      </trkpt>
      <trkpt lat="49.8724" lon="4.75809">
        <ele>379</ele>
        <time>2024-05-08T13:47:08Z</time>
      </trkpt>
      <trkpt lat="49.87241" lon="4.7581">
        <ele>379</ele>
        <time>2024-05-08T13:47:09Z</time>
      </trkpt>
      <trkpt lat="49.87241" lon="4.75811">
        <ele>379</ele>
        <time>2024-05-08T13:47:10Z</time>
      </trkpt>
      <trkpt lat="49.87241" lon="4.75812">
        <ele>380</ele>
        <time>2024-05-08T13:47:11Z</time>
      </trkpt>
      <trkpt lat="49.87242" lon="4.75813">
        <ele>380</ele>
        <time>2024-05-08T13:47:12Z</time>
      </trkpt>
      <trkpt lat="49.87242" lon="4.75814">
        <ele>380</ele>
        <time>2024-05-08T13:47:13Z</time>
      </trkpt>
      <trkpt lat="49.87242" lon="4.75816">
        <ele>380</ele>
        <time>2024-05-08T13:47:14Z</time>
      </trkpt>
      <trkpt lat="49.87242" lon="4.75817">
        <ele>380</ele>
        <time>2024-05-08T13:47:15Z</time>
      </trkpt>
      <trkpt lat="49.87243" lon="4.75818">
        <ele>380</ele>
        <time>2024-05-08T13:47:16Z</time>
      </trkpt>
      <trkpt lat="49.87243" lon="4.7582">
        <ele>380</ele>
        <time>2024-05-08T13:47:17Z</time>
      </trkpt>
      <trkpt lat="49.87243" lon="4.75821">
        <ele>380</ele>
        <time>2024-05-08T13:47:18Z</time>
      </trkpt>
      <trkpt lat="49.87243" lon="4.75823">
        <ele>380</ele>
        <time>2024-05-08T13:47:19Z</time>
      </trkpt>
      <trkpt lat="49.87243" lon="4.75825">
        <ele>380</ele>
        <time>2024-05-08T13:47:20Z</time>
      </trkpt>
      <trkpt lat="49.87243" lon="4.75826">
        <ele>381</ele>
        <time>2024-05-08T13:47:21Z</time>
      </trkpt>
      <trkpt lat="49.87244" lon="4.75828">
        <ele>381</ele>
        <time>2024-05-08T13:47:22Z</time>
      </trkpt>
      <trkpt lat="49.87244" lon="4.75829">
        <ele>381</ele>
        <time>2024-05-08T13:47:23Z</time>
      </trkpt>
      <trkpt lat="49.87245" lon="4.75831">
        <ele>381</ele>
        <time>2024-05-08T13:47:24Z</time>
      </trkpt>
      <trkpt lat="49.87245" lon="4.75832">
        <ele>381</ele>
        <time>2024-05-08T13:47:25Z</time>
      </trkpt>
      <trkpt lat="49.87246" lon="4.75833">
        <ele>382</ele>
        <time>2024-05-08T13:47:26Z</time>
      </trkpt>
      <trkpt lat="49.87247" lon="4.75834">
        <ele>382</ele>
        <time>2024-05-08T13:47:27Z</time>
      </trkpt>
      <trkpt lat="49.87248" lon="4.75835">
        <ele>382</ele>
        <time>2024-05-08T13:47:28Z</time>
      </trkpt>
      <trkpt lat="49.87248" lon="4.75836">
        <ele>382</ele>
        <time>2024-05-08T13:47:29Z</time>
      </trkpt>
      <trkpt lat="49.87249" lon="4.75837">
        <ele>382</ele>
        <time>2024-05-08T13:47:30Z</time>
      </trkpt>
      <trkpt lat="49.87249" lon="4.75838">
        <ele>383</ele>
        <time>2024-05-08T13:47:31Z</time>
      </trkpt>
      <trkpt lat="49.8725" lon="4.75839">
        <ele>383</ele>
        <time>2024-05-08T13:47:32Z</time>
      </trkpt>
      <trkpt lat="49.8725" lon="4.7584">
        <ele>383</ele>
        <time>2024-05-08T13:47:33Z</time>
      </trkpt>
      <trkpt lat="49.87251" lon="4.75842">
        <ele>383</ele>
        <time>2024-05-08T13:47:34Z</time>
      </trkpt>
      <trkpt lat="49.87251" lon="4.75843">
        <ele>383</ele>
        <time>2024-05-08T13:47:35Z</time>
      </trkpt>
      <trkpt lat="49.87252" lon="4.75844">
        <ele>383</ele>
        <time>2024-05-08T13:47:36Z</time>
      </trkpt>
      <trkpt lat="49.87253" lon="4.75845">
        <ele>383</ele>
        <time>2024-05-08T13:47:37Z</time>
      </trkpt>
      <trkpt lat="49.87254" lon="4.75846">
        <ele>383</ele>
        <time>2024-05-08T13:47:38Z</time>
      </trkpt>
      <trkpt lat="49.87254" lon="4.75848">
        <ele>383</ele>
        <time>2024-05-08T13:47:39Z</time>
      </trkpt>
      <trkpt lat="49.87255" lon="4.75849">
        <ele>383</ele>
        <time>2024-05-08T13:47:40Z</time>
      </trkpt>
      <trkpt lat="49.87256" lon="4.7585">
        <ele>384</ele>
        <time>2024-05-08T13:47:41Z</time>
      </trkpt>
      <trkpt lat="49.87257" lon="4.75851">
        <ele>384</ele>
        <time>2024-05-08T13:47:42Z</time>
      </trkpt>
      <trkpt lat="49.87257" lon="4.75852">
        <ele>384</ele>
        <time>2024-05-08T13:47:43Z</time>
      </trkpt>
      <trkpt lat="49.87258" lon="4.75853">
        <ele>384</ele>
        <time>2024-05-08T13:47:44Z</time>
      </trkpt>
      <trkpt lat="49.87259" lon="4.75855">
        <ele>384</ele>
        <time>2024-05-08T13:47:45Z</time>
      </trkpt>
      <trkpt lat="49.8726" lon="4.75856">
        <ele>384</ele>
        <time>2024-05-08T13:47:46Z</time>
      </trkpt>
      <trkpt lat="49.87261" lon="4.75858">
        <ele>384</ele>
        <time>2024-05-08T13:47:47Z</time>
      </trkpt>
      <trkpt lat="49.87262" lon="4.75859">
        <ele>384</ele>
        <time>2024-05-08T13:47:48Z</time>
      </trkpt>
      <trkpt lat="49.87263" lon="4.7586">
        <ele>384</ele>
        <time>2024-05-08T13:47:49Z</time>
      </trkpt>
      <trkpt lat="49.87263" lon="4.75862">
        <ele>384</ele>
        <time>2024-05-08T13:47:50Z</time>
      </trkpt>
      <trkpt lat="49.87264" lon="4.75863">
        <ele>384</ele>
        <time>2024-05-08T13:47:51Z</time>
      </trkpt>
      <trkpt lat="49.87265" lon="4.75864">
        <ele>384</ele>
        <time>2024-05-08T13:47:52Z</time>
      </trkpt>
      <trkpt lat="49.87265" lon="4.75865">
        <ele>384</ele>
        <time>2024-05-08T13:47:53Z</time>
      </trkpt>
      <trkpt lat="49.87266" lon="4.75866">
        <ele>384</ele>
        <time>2024-05-08T13:47:54Z</time>
      </trkpt>
      <trkpt lat="49.87267" lon="4.75867">
        <ele>384</ele>
        <time>2024-05-08T13:47:55Z</time>
      </trkpt>
      <trkpt lat="49.87267" lon="4.75868">
        <ele>384</ele>
        <time>2024-05-08T13:47:56Z</time>
      </trkpt>
      <trkpt lat="49.87268" lon="4.7587">
        <ele>384</ele>
        <time>2024-05-08T13:47:57Z</time>
      </trkpt>
      <trkpt lat="49.87269" lon="4.75871">
        <ele>384</ele>
        <time>2024-05-08T13:47:58Z</time>
      </trkpt>
      <trkpt lat="49.8727" lon="4.75872">
        <ele>384</ele>
        <time>2024-05-08T13:47:59Z</time>
      </trkpt>
      <trkpt lat="49.8727" lon="4.75873">
        <ele>384</ele>
        <time>2024-05-08T13:48:00Z</time>
      </trkpt>
      <trkpt lat="49.87271" lon="4.75874">
        <ele>385</ele>
        <time>2024-05-08T13:48:01Z</time>
      </trkpt>
      <trkpt lat="49.87272" lon="4.75875">
        <ele>385</ele>
        <time>2024-05-08T13:48:02Z</time>
      </trkpt>
      <trkpt lat="49.87273" lon="4.75877">
        <ele>385</ele>
        <time>2024-05-08T13:48:03Z</time>
      </trkpt>
      <trkpt lat="49.87273" lon="4.75877">
        <ele>385</ele>
        <time>2024-05-08T13:48:04Z</time>
      </trkpt>
      <trkpt lat="49.87273" lon="4.75877">
        <ele>385</ele>
        <time>2024-05-08T13:48:05Z</time>
      </trkpt>
      <trkpt lat="49.87273" lon="4.75878">
        <ele>385</ele>
        <time>2024-05-08T13:48:06Z</time>
      </trkpt>
      <trkpt lat="49.87274" lon="4.75879">
        <ele>385</ele>
        <time>2024-05-08T13:48:07Z</time>
      </trkpt>
      <trkpt lat="49.87274" lon="4.7588">
        <ele>385</ele>
        <time>2024-05-08T13:48:08Z</time>
      </trkpt>
      <trkpt lat="49.87275" lon="4.75881">
        <ele>385</ele>
        <time>2024-05-08T13:48:09Z</time>
      </trkpt>
      <trkpt lat="49.87275" lon="4.75881">
        <ele>385</ele>
        <time>2024-05-08T13:48:10Z</time>
      </trkpt>
      <trkpt lat="49.87276" lon="4.75883">
        <ele>386</ele>
        <time>2024-05-08T13:48:11Z</time>
      </trkpt>
      <trkpt lat="49.87277" lon="4.75884">
        <ele>386</ele>
        <time>2024-05-08T13:48:12Z</time>
      </trkpt>
      <trkpt lat="49.87277" lon="4.75885">
        <ele>386</ele>
        <time>2024-05-08T13:48:13Z</time>
      </trkpt>
      <trkpt lat="49.87278" lon="4.75886">
        <ele>386</ele>
        <time>2024-05-08T13:48:14Z</time>
      </trkpt>
      <trkpt lat="49.87279" lon="4.75888">
        <ele>386</ele>
        <time>2024-05-08T13:48:15Z</time>
      </trkpt>
      <trkpt lat="49.8728" lon="4.75889">
        <ele>386</ele>
        <time>2024-05-08T13:48:16Z</time>
      </trkpt>
      <trkpt lat="49.8728" lon="4.75891">
        <ele>386</ele>
        <time>2024-05-08T13:48:17Z</time>
      </trkpt>
      <trkpt lat="49.87281" lon="4.75892">
        <ele>386</ele>
        <time>2024-05-08T13:48:18Z</time>
      </trkpt>
      <trkpt lat="49.87281" lon="4.75894">
        <ele>386</ele>
        <time>2024-05-08T13:48:19Z</time>
      </trkpt>
      <trkpt lat="49.87282" lon="4.75895">
        <ele>386</ele>
        <time>2024-05-08T13:48:20Z</time>
      </trkpt>
      <trkpt lat="49.87283" lon="4.75897">
        <ele>387</ele>
        <time>2024-05-08T13:48:21Z</time>
      </trkpt>
      <trkpt lat="49.87284" lon="4.75898">
        <ele>387</ele>
        <time>2024-05-08T13:48:22Z</time>
      </trkpt>
      <trkpt lat="49.87285" lon="4.759">
        <ele>387</ele>
        <time>2024-05-08T13:48:23Z</time>
      </trkpt>
      <trkpt lat="49.87286" lon="4.75901">
        <ele>387</ele>
        <time>2024-05-08T13:48:24Z</time>
      </trkpt>
      <trkpt lat="49.87286" lon="4.75902">
        <ele>387</ele>
        <time>2024-05-08T13:48:25Z</time>
      </trkpt>
      <trkpt lat="49.87287" lon="4.75903">
        <ele>387</ele>
        <time>2024-05-08T13:48:26Z</time>
      </trkpt>
      <trkpt lat="49.87288" lon="4.75905">
        <ele>387</ele>
        <time>2024-05-08T13:48:27Z</time>
      </trkpt>
      <trkpt lat="49.87289" lon="4.75906">
        <ele>387</ele>
        <time>2024-05-08T13:48:28Z</time>
      </trkpt>
      <trkpt lat="49.87289" lon="4.75907">
        <ele>387</ele>
        <time>2024-05-08T13:48:29Z</time>
      </trkpt>
      <trkpt lat="49.8729" lon="4.75908">
        <ele>387</ele>
        <time>2024-05-08T13:48:30Z</time>
      </trkpt>
      <trkpt lat="49.87291" lon="4.7591">
        <ele>387</ele>
        <time>2024-05-08T13:48:31Z</time>
      </trkpt>
      <trkpt lat="49.87292" lon="4.75911">
        <ele>387</ele>
        <time>2024-05-08T13:48:32Z</time>
      </trkpt>
      <trkpt lat="49.87293" lon="4.75912">
        <ele>387</ele>
        <time>2024-05-08T13:48:33Z</time>
      </trkpt>
      <trkpt lat="49.87294" lon="4.75914">
        <ele>387</ele>
        <time>2024-05-08T13:48:34Z</time>
      </trkpt>
      <trkpt lat="49.87294" lon="4.75915">
        <ele>387</ele>
        <time>2024-05-08T13:48:35Z</time>
      </trkpt>
      <trkpt lat="49.87295" lon="4.75917">
        <ele>387</ele>
        <time>2024-05-08T13:48:36Z</time>
      </trkpt>
      <trkpt lat="49.87295" lon="4.75918">
        <ele>387</ele>
        <time>2024-05-08T13:48:37Z</time>
      </trkpt>
      <trkpt lat="49.87296" lon="4.75919">
        <ele>387</ele>
        <time>2024-05-08T13:48:38Z</time>
      </trkpt>
      <trkpt lat="49.87296" lon="4.75921">
        <ele>387</ele>
        <time>2024-05-08T13:48:39Z</time>
      </trkpt>
      <trkpt lat="49.87296" lon="4.75922">
        <ele>387</ele>
        <time>2024-05-08T13:48:40Z</time>
      </trkpt>
      <trkpt lat="49.87297" lon="4.75924">
        <ele>388</ele>
        <time>2024-05-08T13:48:41Z</time>
      </trkpt>
      <trkpt lat="49.87298" lon="4.75925">
        <ele>388</ele>
        <time>2024-05-08T13:48:42Z</time>
      </trkpt>
      <trkpt lat="49.87299" lon="4.75927">
        <ele>388</ele>
        <time>2024-05-08T13:48:43Z</time>
      </trkpt>
      <trkpt lat="49.873" lon="4.75928">
        <ele>388</ele>
        <time>2024-05-08T13:48:44Z</time>
      </trkpt>
      <trkpt lat="49.87301" lon="4.7593">
        <ele>388</ele>
        <time>2024-05-08T13:48:45Z</time>
      </trkpt>
      <trkpt lat="49.87301" lon="4.75932">
        <ele>388</ele>
        <time>2024-05-08T13:48:46Z</time>
      </trkpt>
      <trkpt lat="49.87302" lon="4.75933">
        <ele>388</ele>
        <time>2024-05-08T13:48:47Z</time>
      </trkpt>
      <trkpt lat="49.87303" lon="4.75935">
        <ele>388</ele>
        <time>2024-05-08T13:48:48Z</time>
      </trkpt>
      <trkpt lat="49.87304" lon="4.75936">
        <ele>388</ele>
        <time>2024-05-08T13:48:49Z</time>
      </trkpt>
      <trkpt lat="49.87304" lon="4.75937">
        <ele>388</ele>
        <time>2024-05-08T13:48:50Z</time>
      </trkpt>
      <trkpt lat="49.87305" lon="4.75938">
        <ele>388</ele>
        <time>2024-05-08T13:48:51Z</time>
      </trkpt>
      <trkpt lat="49.87306" lon="4.75939">
        <ele>388</ele>
        <time>2024-05-08T13:48:52Z</time>
      </trkpt>
      <trkpt lat="49.87307" lon="4.7594">
        <ele>388</ele>
        <time>2024-05-08T13:48:53Z</time>
      </trkpt>
      <trkpt lat="49.87308" lon="4.75941">
        <ele>388</ele>
        <time>2024-05-08T13:48:54Z</time>
      </trkpt>
      <trkpt lat="49.87309" lon="4.75942">
        <ele>388</ele>
        <time>2024-05-08T13:48:55Z</time>
      </trkpt>
      <trkpt lat="49.8731" lon="4.75943">
        <ele>389</ele>
        <time>2024-05-08T13:48:56Z</time>
      </trkpt>
      <trkpt lat="49.87311" lon="4.75944">
        <ele>389</ele>
        <time>2024-05-08T13:48:57Z</time>
      </trkpt>
      <trkpt lat="49.87311" lon="4.75945">
        <ele>389</ele>
        <time>2024-05-08T13:48:58Z</time>
      </trkpt>
      <trkpt lat="49.87312" lon="4.75946">
        <ele>389</ele>
        <time>2024-05-08T13:48:59Z</time>
      </trkpt>
      <trkpt lat="49.87313" lon="4.75948">
        <ele>389</ele>
        <time>2024-05-08T13:49:00Z</time>
      </trkpt>
      <trkpt lat="49.87313" lon="4.75949">
        <ele>389</ele>
        <time>2024-05-08T13:49:01Z</time>
      </trkpt>
      <trkpt lat="49.87314" lon="4.7595">
        <ele>389</ele>
        <time>2024-05-08T13:49:02Z</time>
      </trkpt>
      <trkpt lat="49.87314" lon="4.75951">
        <ele>389</ele>
        <time>2024-05-08T13:49:03Z</time>
      </trkpt>
      <trkpt lat="49.87315" lon="4.75952">
        <ele>389</ele>
        <time>2024-05-08T13:49:04Z</time>
      </trkpt>
      <trkpt lat="49.87316" lon="4.75953">
        <ele>389</ele>
        <time>2024-05-08T13:49:05Z</time>
      </trkpt>
      <trkpt lat="49.87316" lon="4.75954">
        <ele>389</ele>
        <time>2024-05-08T13:49:06Z</time>
      </trkpt>
      <trkpt lat="49.87317" lon="4.75955">
        <ele>389</ele>
        <time>2024-05-08T13:49:07Z</time>
      </trkpt>
      <trkpt lat="49.87317" lon="4.75956">
        <ele>389</ele>
        <time>2024-05-08T13:49:08Z</time>
      </trkpt>
      <trkpt lat="49.87318" lon="4.75957">
        <ele>389</ele>
        <time>2024-05-08T13:49:09Z</time>
      </trkpt>
      <trkpt lat="49.87318" lon="4.75958">
        <ele>389</ele>
        <time>2024-05-08T13:49:10Z</time>
      </trkpt>
      <trkpt lat="49.87318" lon="4.75959">
        <ele>389</ele>
        <time>2024-05-08T13:49:11Z</time>
      </trkpt>
      <trkpt lat="49.87319" lon="4.7596">
        <ele>389</ele>
        <time>2024-05-08T13:49:12Z</time>
      </trkpt>
      <trkpt lat="49.8732" lon="4.75961">
        <ele>389</ele>
        <time>2024-05-08T13:49:13Z</time>
      </trkpt>
      <trkpt lat="49.87321" lon="4.75962">
        <ele>389</ele>
        <time>2024-05-08T13:49:14Z</time>
      </trkpt>
      <trkpt lat="49.87321" lon="4.75962">
        <ele>389</ele>
        <time>2024-05-08T13:49:15Z</time>
      </trkpt>
      <trkpt lat="49.87322" lon="4.75964">
        <ele>390</ele>
        <time>2024-05-08T13:49:16Z</time>
      </trkpt>
      <trkpt lat="49.87322" lon="4.75965">
        <ele>390</ele>
        <time>2024-05-08T13:49:17Z</time>
      </trkpt>
      <trkpt lat="49.87323" lon="4.75966">
        <ele>390</ele>
        <time>2024-05-08T13:49:18Z</time>
      </trkpt>
      <trkpt lat="49.87323" lon="4.75967">
        <ele>390</ele>
        <time>2024-05-08T13:49:19Z</time>
      </trkpt>
      <trkpt lat="49.87324" lon="4.75968">
        <ele>390</ele>
        <time>2024-05-08T13:49:20Z</time>
      </trkpt>
      <trkpt lat="49.87325" lon="4.7597">
        <ele>390</ele>
        <time>2024-05-08T13:49:21Z</time>
      </trkpt>
      <trkpt lat="49.87325" lon="4.75971">
        <ele>390</ele>
        <time>2024-05-08T13:49:22Z</time>
      </trkpt>
      <trkpt lat="49.87326" lon="4.75973">
        <ele>390</ele>
        <time>2024-05-08T13:49:23Z</time>
      </trkpt>
      <trkpt lat="49.87327" lon="4.75974">
        <ele>390</ele>
        <time>2024-05-08T13:49:24Z</time>
      </trkpt>
      <trkpt lat="49.87327" lon="4.75976">
        <ele>390</ele>
        <time>2024-05-08T13:49:25Z</time>
      </trkpt>
      <trkpt lat="49.87328" lon="4.75977">
        <ele>390</ele>
        <time>2024-05-08T13:49:26Z</time>
      </trkpt>
      <trkpt lat="49.87329" lon="4.75979">
        <ele>390</ele>
        <time>2024-05-08T13:49:27Z</time>
      </trkpt>
      <trkpt lat="49.8733" lon="4.7598">
        <ele>390</ele>
        <time>2024-05-08T13:49:28Z</time>
      </trkpt>
      <trkpt lat="49.87331" lon="4.75982">
        <ele>390</ele>
        <time>2024-05-08T13:49:29Z</time>
      </trkpt>
      <trkpt lat="49.87331" lon="4.75983">
        <ele>390</ele>
        <time>2024-05-08T13:49:30Z</time>
      </trkpt>
      <trkpt lat="49.87332" lon="4.75984">
        <ele>391</ele>
        <time>2024-05-08T13:49:31Z</time>
      </trkpt>
      <trkpt lat="49.87333" lon="4.75985">
        <ele>391</ele>
        <time>2024-05-08T13:49:32Z</time>
      </trkpt>
      <trkpt lat="49.87333" lon="4.75985">
        <ele>391</ele>
        <time>2024-05-08T13:49:33Z</time>
      </trkpt>
      <trkpt lat="49.87334" lon="4.75986">
        <ele>391</ele>
        <time>2024-05-08T13:49:34Z</time>
      </trkpt>
      <trkpt lat="49.87334" lon="4.75987">
        <ele>391</ele>
        <time>2024-05-08T13:49:35Z</time>
      </trkpt>
      <trkpt lat="49.87335" lon="4.75988">
        <ele>391</ele>
        <time>2024-05-08T13:49:36Z</time>
      </trkpt>
      <trkpt lat="49.87335" lon="4.75989">
        <ele>391</ele>
        <time>2024-05-08T13:49:37Z</time>
      </trkpt>
      <trkpt lat="49.87336" lon="4.7599">
        <ele>391</ele>
        <time>2024-05-08T13:49:38Z</time>
      </trkpt>
      <trkpt lat="49.87337" lon="4.75991">
        <ele>391</ele>
        <time>2024-05-08T13:49:39Z</time>
      </trkpt>
      <trkpt lat="49.87338" lon="4.75992">
        <ele>391</ele>
        <time>2024-05-08T13:49:40Z</time>
      </trkpt>
      <trkpt lat="49.87339" lon="4.75992">
        <ele>391</ele>
        <time>2024-05-08T13:49:41Z</time>
      </trkpt>
      <trkpt lat="49.8734" lon="4.75993">
        <ele>391</ele>
        <time>2024-05-08T13:49:42Z</time>
      </trkpt>
      <trkpt lat="49.87341" lon="4.75995">
        <ele>391</ele>
        <time>2024-05-08T13:49:43Z</time>
      </trkpt>
      <trkpt lat="49.87343" lon="4.75996">
        <ele>391</ele>
        <time>2024-05-08T13:49:44Z</time>
      </trkpt>
      <trkpt lat="49.87344" lon="4.75997">
        <ele>391</ele>
        <time>2024-05-08T13:49:45Z</time>
      </trkpt>
      <trkpt lat="49.87345" lon="4.75998">
        <ele>391</ele>
        <time>2024-05-08T13:49:55Z</time>
      </trkpt>
      <trkpt lat="49.87345" lon="4.75999">
        <ele>391</ele>
        <time>2024-05-08T13:49:56Z</time>
      </trkpt>
      <trkpt lat="49.87346" lon="4.76">
        <ele>391</ele>
        <time>2024-05-08T13:49:57Z</time>
      </trkpt>
      <trkpt lat="49.87346" lon="4.76">
        <ele>391</ele>
        <time>2024-05-08T13:49:58Z</time>
      </trkpt>
      <trkpt lat="49.87347" lon="4.76001">
        <ele>391</ele>
        <time>2024-05-08T13:49:59Z</time>
      </trkpt>
      <trkpt lat="49.87347" lon="4.76002">
        <ele>391</ele>
        <time>2024-05-08T13:50:00Z</time>
      </trkpt>
      <trkpt lat="49.87348" lon="4.76004">
        <ele>391</ele>
        <time>2024-05-08T13:50:01Z</time>
      </trkpt>
      <trkpt lat="49.87349" lon="4.76005">
        <ele>391</ele>
        <time>2024-05-08T13:50:02Z</time>
      </trkpt>
      <trkpt lat="49.8735" lon="4.76006">
        <ele>391</ele>
        <time>2024-05-08T13:50:03Z</time>
      </trkpt>
      <trkpt lat="49.87351" lon="4.76007">
        <ele>391</ele>
        <time>2024-05-08T13:50:04Z</time>
      </trkpt>
      <trkpt lat="49.87352" lon="4.76008">
        <ele>391</ele>
        <time>2024-05-08T13:50:05Z</time>
      </trkpt>
      <trkpt lat="49.87353" lon="4.7601">
        <ele>391</ele>
        <time>2024-05-08T13:50:06Z</time>
      </trkpt>
      <trkpt lat="49.87354" lon="4.76011">
        <ele>391</ele>
        <time>2024-05-08T13:50:07Z</time>
      </trkpt>
      <trkpt lat="49.87355" lon="4.76012">
        <ele>391</ele>
        <time>2024-05-08T13:50:08Z</time>
      </trkpt>
      <trkpt lat="49.87356" lon="4.76013">
        <ele>391</ele>
        <time>2024-05-08T13:50:09Z</time>
      </trkpt>
      <trkpt lat="49.87357" lon="4.76015">
        <ele>391</ele>
        <time>2024-05-08T13:50:10Z</time>
      </trkpt>
      <trkpt lat="49.87357" lon="4.76016">
        <ele>391</ele>
        <time>2024-05-08T13:50:11Z</time>
      </trkpt>
      <trkpt lat="49.87358" lon="4.76018">
        <ele>391</ele>
        <time>2024-05-08T13:50:12Z</time>
      </trkpt>
      <trkpt lat="49.87359" lon="4.76019">
        <ele>391</ele>
        <time>2024-05-08T13:50:13Z</time>
      </trkpt>
      <trkpt lat="49.8736" lon="4.7602">
        <ele>391</ele>
        <time>2024-05-08T13:50:14Z</time>
      </trkpt>
      <trkpt lat="49.87361" lon="4.76022">
        <ele>391</ele>
        <time>2024-05-08T13:50:15Z</time>
      </trkpt>
      <trkpt lat="49.87362" lon="4.76023">
        <ele>391</ele>
        <time>2024-05-08T13:50:16Z</time>
      </trkpt>
      <trkpt lat="49.87362" lon="4.76024">
        <ele>391</ele>
        <time>2024-05-08T13:50:17Z</time>
      </trkpt>
      <trkpt lat="49.87363" lon="4.76026">
        <ele>391</ele>
        <time>2024-05-08T13:50:18Z</time>
      </trkpt>
      <trkpt lat="49.87364" lon="4.76027">
        <ele>391</ele>
        <time>2024-05-08T13:50:19Z</time>
      </trkpt>
      <trkpt lat="49.87364" lon="4.76029">
        <ele>391</ele>
        <time>2024-05-08T13:50:20Z</time>
      </trkpt>
      <trkpt lat="49.87365" lon="4.7603">
        <ele>392</ele>
        <time>2024-05-08T13:50:21Z</time>
      </trkpt>
      <trkpt lat="49.87366" lon="4.76031">
        <ele>392</ele>
        <time>2024-05-08T13:50:22Z</time>
      </trkpt>
      <trkpt lat="49.87367" lon="4.76033">
        <ele>392</ele>
        <time>2024-05-08T13:50:23Z</time>
      </trkpt>
      <trkpt lat="49.87368" lon="4.76034">
        <ele>392</ele>
        <time>2024-05-08T13:50:24Z</time>
      </trkpt>
      <trkpt lat="49.87368" lon="4.76035">
        <ele>392</ele>
        <time>2024-05-08T13:50:25Z</time>
      </trkpt>
      <trkpt lat="49.87369" lon="4.76036">
        <ele>392</ele>
        <time>2024-05-08T13:50:26Z</time>
      </trkpt>
      <trkpt lat="49.8737" lon="4.76037">
        <ele>392</ele>
        <time>2024-05-08T13:50:27Z</time>
      </trkpt>
      <trkpt lat="49.87371" lon="4.76039">
        <ele>392</ele>
        <time>2024-05-08T13:50:28Z</time>
      </trkpt>
      <trkpt lat="49.87372" lon="4.7604">
        <ele>392</ele>
        <time>2024-05-08T13:50:29Z</time>
      </trkpt>
      <trkpt lat="49.87373" lon="4.76041">
        <ele>392</ele>
        <time>2024-05-08T13:50:30Z</time>
      </trkpt>
      <trkpt lat="49.87374" lon="4.76042">
        <ele>392</ele>
        <time>2024-05-08T13:50:31Z</time>
      </trkpt>
      <trkpt lat="49.87375" lon="4.76043">
        <ele>392</ele>
        <time>2024-05-08T13:50:32Z</time>
      </trkpt>
      <trkpt lat="49.87376" lon="4.76044">
        <ele>392</ele>
        <time>2024-05-08T13:50:33Z</time>
      </trkpt>
      <trkpt lat="49.87377" lon="4.76045">
        <ele>392</ele>
        <time>2024-05-08T13:50:34Z</time>
      </trkpt>
      <trkpt lat="49.87378" lon="4.76046">
        <ele>392</ele>
        <time>2024-05-08T13:50:35Z</time>
      </trkpt>
      <trkpt lat="49.87379" lon="4.76047">
        <ele>392</ele>
        <time>2024-05-08T13:50:36Z</time>
      </trkpt>
      <trkpt lat="49.87379" lon="4.76048">
        <ele>392</ele>
        <time>2024-05-08T13:50:37Z</time>
      </trkpt>
      <trkpt lat="49.87381" lon="4.76049">
        <ele>392</ele>
        <time>2024-05-08T13:50:38Z</time>
      </trkpt>
      <trkpt lat="49.87382" lon="4.7605">
        <ele>392</ele>
        <time>2024-05-08T13:50:39Z</time>
      </trkpt>
      <trkpt lat="49.87383" lon="4.76051">
        <ele>392</ele>
        <time>2024-05-08T13:50:40Z</time>
      </trkpt>
      <trkpt lat="49.87384" lon="4.76052">
        <ele>393</ele>
        <time>2024-05-08T13:50:41Z</time>
      </trkpt>
      <trkpt lat="49.87386" lon="4.76053">
        <ele>393</ele>
        <time>2024-05-08T13:50:42Z</time>
      </trkpt>
      <trkpt lat="49.87387" lon="4.76055">
        <ele>393</ele>
        <time>2024-05-08T13:50:43Z</time>
      </trkpt>
      <trkpt lat="49.87388" lon="4.76056">
        <ele>393</ele>
        <time>2024-05-08T13:50:44Z</time>
      </trkpt>
      <trkpt lat="49.87389" lon="4.76057">
        <ele>393</ele>
        <time>2024-05-08T13:50:45Z</time>
      </trkpt>
      <trkpt lat="49.87389" lon="4.76059">
        <ele>393</ele>
        <time>2024-05-08T13:50:46Z</time>
      </trkpt>
      <trkpt lat="49.8739" lon="4.7606">
        <ele>393</ele>
        <time>2024-05-08T13:50:47Z</time>
      </trkpt>
      <trkpt lat="49.87391" lon="4.76062">
        <ele>393</ele>
        <time>2024-05-08T13:50:48Z</time>
      </trkpt>
      <trkpt lat="49.87392" lon="4.76063">
        <ele>393</ele>
        <time>2024-05-08T13:50:49Z</time>
      </trkpt>
      <trkpt lat="49.87393" lon="4.76064">
        <ele>393</ele>
        <time>2024-05-08T13:50:50Z</time>
      </trkpt>
      <trkpt lat="49.87394" lon="4.76066">
        <ele>393</ele>
        <time>2024-05-08T13:50:51Z</time>
      </trkpt>
      <trkpt lat="49.87394" lon="4.76067">
        <ele>393</ele>
        <time>2024-05-08T13:50:52Z</time>
      </trkpt>
      <trkpt lat="49.87395" lon="4.76068">
        <ele>393</ele>
        <time>2024-05-08T13:50:53Z</time>
      </trkpt>
      <trkpt lat="49.87396" lon="4.76069">
        <ele>393</ele>
        <time>2024-05-08T13:50:54Z</time>
      </trkpt>
      <trkpt lat="49.87397" lon="4.7607">
        <ele>393</ele>
        <time>2024-05-08T13:50:55Z</time>
      </trkpt>
      <trkpt lat="49.87398" lon="4.76072">
        <ele>393</ele>
        <time>2024-05-08T13:50:56Z</time>
      </trkpt>
      <trkpt lat="49.87399" lon="4.76073">
        <ele>393</ele>
        <time>2024-05-08T13:50:57Z</time>
      </trkpt>
      <trkpt lat="49.87399" lon="4.76074">
        <ele>393</ele>
        <time>2024-05-08T13:50:58Z</time>
      </trkpt>
      <trkpt lat="49.87399" lon="4.76076">
        <ele>393</ele>
        <time>2024-05-08T13:50:59Z</time>
      </trkpt>
      <trkpt lat="49.874" lon="4.76077">
        <ele>393</ele>
        <time>2024-05-08T13:51:00Z</time>
      </trkpt>
      <trkpt lat="49.87401" lon="4.76079">
        <ele>393</ele>
        <time>2024-05-08T13:51:01Z</time>
      </trkpt>
      <trkpt lat="49.87401" lon="4.7608">
        <ele>393</ele>
        <time>2024-05-08T13:51:02Z</time>
      </trkpt>
      <trkpt lat="49.87402" lon="4.76082">
        <ele>393</ele>
        <time>2024-05-08T13:51:03Z</time>
      </trkpt>
      <trkpt lat="49.87403" lon="4.76083">
        <ele>393</ele>
        <time>2024-05-08T13:51:04Z</time>
      </trkpt>
      <trkpt lat="49.87403" lon="4.76085">
        <ele>393</ele>
        <time>2024-05-08T13:51:05Z</time>
      </trkpt>
      <trkpt lat="49.87404" lon="4.76086">
        <ele>393</ele>
        <time>2024-05-08T13:51:06Z</time>
      </trkpt>
      <trkpt lat="49.87405" lon="4.76088">
        <ele>393</ele>
        <time>2024-05-08T13:51:07Z</time>
      </trkpt>
      <trkpt lat="49.87405" lon="4.7609">
        <ele>393</ele>
        <time>2024-05-08T13:51:08Z</time>
      </trkpt>
      <trkpt lat="49.87406" lon="4.76091">
        <ele>393</ele>
        <time>2024-05-08T13:51:09Z</time>
      </trkpt>
      <trkpt lat="49.87407" lon="4.76092">
        <ele>393</ele>
        <time>2024-05-08T13:51:10Z</time>
      </trkpt>
      <trkpt lat="49.87407" lon="4.76093">
        <ele>393</ele>
        <time>2024-05-08T13:51:11Z</time>
      </trkpt>
      <trkpt lat="49.87407" lon="4.76094">
        <ele>393</ele>
        <time>2024-05-08T13:51:12Z</time>
      </trkpt>
      <trkpt lat="49.87408" lon="4.76095">
        <ele>393</ele>
        <time>2024-05-08T13:51:13Z</time>
      </trkpt>
      <trkpt lat="49.87409" lon="4.76096">
        <ele>393</ele>
        <time>2024-05-08T13:51:14Z</time>
      </trkpt>
      <trkpt lat="49.87409" lon="4.76097">
        <ele>393</ele>
        <time>2024-05-08T13:51:15Z</time>
      </trkpt>
      <trkpt lat="49.8741" lon="4.76098">
        <ele>394</ele>
        <time>2024-05-08T13:51:16Z</time>
      </trkpt>
      <trkpt lat="49.87411" lon="4.76099">
        <ele>394</ele>
        <time>2024-05-08T13:51:17Z</time>
      </trkpt>
      <trkpt lat="49.87412" lon="4.761">
        <ele>394</ele>
        <time>2024-05-08T13:51:18Z</time>
      </trkpt>
      <trkpt lat="49.87413" lon="4.76101">
        <ele>394</ele>
        <time>2024-05-08T13:51:19Z</time>
      </trkpt>
      <trkpt lat="49.87414" lon="4.76102">
        <ele>394</ele>
        <time>2024-05-08T13:51:20Z</time>
      </trkpt>
      <trkpt lat="49.87415" lon="4.76103">
        <ele>394</ele>
        <time>2024-05-08T13:51:21Z</time>
      </trkpt>
      <trkpt lat="49.87416" lon="4.76104">
        <ele>394</ele>
        <time>2024-05-08T13:51:22Z</time>
      </trkpt>
      <trkpt lat="49.87417" lon="4.76105">
        <ele>394</ele>
        <time>2024-05-08T13:51:23Z</time>
      </trkpt>
      <trkpt lat="49.87418" lon="4.76106">
        <ele>394</ele>
        <time>2024-05-08T13:51:24Z</time>
      </trkpt>
      <trkpt lat="49.87419" lon="4.76107">
        <ele>394</ele>
        <time>2024-05-08T13:51:25Z</time>
      </trkpt>
      <trkpt lat="49.8742" lon="4.76109">
        <ele>394</ele>
        <time>2024-05-08T13:51:26Z</time>
      </trkpt>
      <trkpt lat="49.87421" lon="4.7611">
        <ele>394</ele>
        <time>2024-05-08T13:51:27Z</time>
      </trkpt>
      <trkpt lat="49.87422" lon="4.76112">
        <ele>394</ele>
        <time>2024-05-08T13:51:28Z</time>
      </trkpt>
      <trkpt lat="49.87422" lon="4.76113">
        <ele>394</ele>
        <time>2024-05-08T13:51:29Z</time>
      </trkpt>
      <trkpt lat="49.87423" lon="4.76115">
        <ele>394</ele>
        <time>2024-05-08T13:51:30Z</time>
      </trkpt>
      <trkpt lat="49.87424" lon="4.76116">
        <ele>394</ele>
        <time>2024-05-08T13:51:31Z</time>
      </trkpt>
      <trkpt lat="49.87424" lon="4.76118">
        <ele>394</ele>
        <time>2024-05-08T13:51:32Z</time>
      </trkpt>
      <trkpt lat="49.87425" lon="4.76119">
        <ele>394</ele>
        <time>2024-05-08T13:51:33Z</time>
      </trkpt>
      <trkpt lat="49.87426" lon="4.76121">
        <ele>394</ele>
        <time>2024-05-08T13:51:34Z</time>
      </trkpt>
      <trkpt lat="49.87427" lon="4.76122">
        <ele>394</ele>
        <time>2024-05-08T13:51:35Z</time>
      </trkpt>
      <trkpt lat="49.87427" lon="4.76124">
        <ele>394</ele>
        <time>2024-05-08T13:51:36Z</time>
      </trkpt>
      <trkpt lat="49.87428" lon="4.76125">
        <ele>394</ele>
        <time>2024-05-08T13:51:37Z</time>
      </trkpt>
      <trkpt lat="49.87429" lon="4.76127">
        <ele>394</ele>
        <time>2024-05-08T13:51:38Z</time>
      </trkpt>
      <trkpt lat="49.8743" lon="4.76128">
        <ele>394</ele>
        <time>2024-05-08T13:51:39Z</time>
      </trkpt>
      <trkpt lat="49.87431" lon="4.76129">
        <ele>394</ele>
        <time>2024-05-08T13:51:40Z</time>
      </trkpt>
      <trkpt lat="49.87431" lon="4.7613">
        <ele>394</ele>
        <time>2024-05-08T13:51:41Z</time>
      </trkpt>
      <trkpt lat="49.87432" lon="4.76131">
        <ele>394</ele>
        <time>2024-05-08T13:51:42Z</time>
      </trkpt>
      <trkpt lat="49.87433" lon="4.76132">
        <ele>394</ele>
        <time>2024-05-08T13:51:43Z</time>
      </trkpt>
      <trkpt lat="49.87434" lon="4.76133">
        <ele>394</ele>
        <time>2024-05-08T13:51:44Z</time>
      </trkpt>
      <trkpt lat="49.87435" lon="4.76134">
        <ele>394</ele>
        <time>2024-05-08T13:51:45Z</time>
      </trkpt>
      <trkpt lat="49.87436" lon="4.76135">
        <ele>394</ele>
        <time>2024-05-08T13:51:46Z</time>
      </trkpt>
      <trkpt lat="49.87437" lon="4.76136">
        <ele>394</ele>
        <time>2024-05-08T13:51:47Z</time>
      </trkpt>
      <trkpt lat="49.87438" lon="4.76137">
        <ele>394</ele>
        <time>2024-05-08T13:51:48Z</time>
      </trkpt>
      <trkpt lat="49.87439" lon="4.76138">
        <ele>394</ele>
        <time>2024-05-08T13:51:49Z</time>
      </trkpt>
      <trkpt lat="49.8744" lon="4.76139">
        <ele>394</ele>
        <time>2024-05-08T13:51:50Z</time>
      </trkpt>
      <trkpt lat="49.87441" lon="4.7614">
        <ele>394</ele>
        <time>2024-05-08T13:51:51Z</time>
      </trkpt>
      <trkpt lat="49.87441" lon="4.76141">
        <ele>394</ele>
        <time>2024-05-08T13:51:52Z</time>
      </trkpt>
      <trkpt lat="49.87442" lon="4.76142">
        <ele>394</ele>
        <time>2024-05-08T13:51:53Z</time>
      </trkpt>
      <trkpt lat="49.87443" lon="4.76144">
        <ele>395</ele>
        <time>2024-05-08T13:51:54Z</time>
      </trkpt>
      <trkpt lat="49.87443" lon="4.76145">
        <ele>395</ele>
        <time>2024-05-08T13:51:55Z</time>
      </trkpt>
      <trkpt lat="49.87444" lon="4.76146">
        <ele>396</ele>
        <time>2024-05-08T13:51:56Z</time>
      </trkpt>
      <trkpt lat="49.87445" lon="4.76147">
        <ele>396</ele>
        <time>2024-05-08T13:51:57Z</time>
      </trkpt>
      <trkpt lat="49.87446" lon="4.76149">
        <ele>396</ele>
        <time>2024-05-08T13:51:58Z</time>
      </trkpt>
      <trkpt lat="49.87447" lon="4.7615">
        <ele>396</ele>
        <time>2024-05-08T13:51:59Z</time>
      </trkpt>
      <trkpt lat="49.87448" lon="4.76151">
        <ele>396</ele>
        <time>2024-05-08T13:52:00Z</time>
      </trkpt>
      <trkpt lat="49.87449" lon="4.76152">
        <ele>396</ele>
        <time>2024-05-08T13:52:01Z</time>
      </trkpt>
      <trkpt lat="49.8745" lon="4.76154">
        <ele>396</ele>
        <time>2024-05-08T13:52:02Z</time>
      </trkpt>
      <trkpt lat="49.87452" lon="4.76155">
        <ele>396</ele>
        <time>2024-05-08T13:52:03Z</time>
      </trkpt>
      <trkpt lat="49.87453" lon="4.76156">
        <ele>396</ele>
        <time>2024-05-08T13:52:04Z</time>
      </trkpt>
      <trkpt lat="49.87455" lon="4.76157">
        <ele>396</ele>
        <time>2024-05-08T13:52:05Z</time>
      </trkpt>
      <trkpt lat="49.87456" lon="4.76159">
        <ele>396</ele>
        <time>2024-05-08T13:52:06Z</time>
      </trkpt>
      <trkpt lat="49.87457" lon="4.7616">
        <ele>396</ele>
        <time>2024-05-08T13:52:07Z</time>
      </trkpt>
      <trkpt lat="49.87458" lon="4.76161">
        <ele>396</ele>
        <time>2024-05-08T13:52:08Z</time>
      </trkpt>
      <trkpt lat="49.87459" lon="4.76162">
        <ele>396</ele>
        <time>2024-05-08T13:52:09Z</time>
      </trkpt>
      <trkpt lat="49.87459" lon="4.76163">
        <ele>396</ele>
        <time>2024-05-08T13:52:10Z</time>
      </trkpt>
      <trkpt lat="49.87459" lon="4.76164">
        <ele>396</ele>
        <time>2024-05-08T13:52:11Z</time>
      </trkpt>
      <trkpt lat="49.8746" lon="4.76166">
        <ele>396</ele>
        <time>2024-05-08T13:52:12Z</time>
      </trkpt>
      <trkpt lat="49.8746" lon="4.76167">
        <ele>396</ele>
        <time>2024-05-08T13:52:13Z</time>
      </trkpt>
      <trkpt lat="49.8746" lon="4.76168">
        <ele>396</ele>
        <time>2024-05-08T13:52:14Z</time>
      </trkpt>
      <trkpt lat="49.8746" lon="4.76169">
        <ele>396</ele>
        <time>2024-05-08T13:52:15Z</time>
      </trkpt>
      <trkpt lat="49.87461" lon="4.76169">
        <ele>396</ele>
        <time>2024-05-08T13:52:16Z</time>
      </trkpt>
      <trkpt lat="49.87461" lon="4.7617">
        <ele>396</ele>
        <time>2024-05-08T13:52:17Z</time>
      </trkpt>
      <trkpt lat="49.87461" lon="4.7617">
        <ele>396</ele>
        <time>2024-05-08T13:52:18Z</time>
      </trkpt>
      <trkpt lat="49.87462" lon="4.76171">
        <ele>396</ele>
        <time>2024-05-08T13:52:19Z</time>
      </trkpt>
      <trkpt lat="49.87462" lon="4.76172">
        <ele>396</ele>
        <time>2024-05-08T13:52:20Z</time>
      </trkpt>
      <trkpt lat="49.87463" lon="4.76173">
        <ele>396</ele>
        <time>2024-05-08T13:52:21Z</time>
      </trkpt>
      <trkpt lat="49.87464" lon="4.76175">
        <ele>396</ele>
        <time>2024-05-08T13:52:22Z</time>
      </trkpt>
      <trkpt lat="49.87464" lon="4.76176">
        <ele>396</ele>
        <time>2024-05-08T13:52:23Z</time>
      </trkpt>
      <trkpt lat="49.87465" lon="4.76177">
        <ele>396</ele>
        <time>2024-05-08T13:52:24Z</time>
      </trkpt>
      <trkpt lat="49.87467" lon="4.76179">
        <ele>396</ele>
        <time>2024-05-08T13:52:25Z</time>
      </trkpt>
      <trkpt lat="49.87468" lon="4.76181">
        <ele>396</ele>
        <time>2024-05-08T13:52:26Z</time>
      </trkpt>
      <trkpt lat="49.87469" lon="4.76182">
        <ele>396</ele>
        <time>2024-05-08T13:52:27Z</time>
      </trkpt>
      <trkpt lat="49.87469" lon="4.76184">
        <ele>396</ele>
        <time>2024-05-08T13:52:28Z</time>
      </trkpt>
      <trkpt lat="49.8747" lon="4.76186">
        <ele>396</ele>
        <time>2024-05-08T13:52:29Z</time>
      </trkpt>
      <trkpt lat="49.87471" lon="4.76188">
        <ele>396</ele>
        <time>2024-05-08T13:52:30Z</time>
      </trkpt>
      <trkpt lat="49.87472" lon="4.76189">
        <ele>396</ele>
        <time>2024-05-08T13:52:31Z</time>
      </trkpt>
      <trkpt lat="49.87473" lon="4.76191">
        <ele>395</ele>
        <time>2024-05-08T13:52:32Z</time>
      </trkpt>
      <trkpt lat="49.87473" lon="4.76192">
        <ele>395</ele>
        <time>2024-05-08T13:52:33Z</time>
      </trkpt>
      <trkpt lat="49.87474" lon="4.76194">
        <ele>394</ele>
        <time>2024-05-08T13:52:34Z</time>
      </trkpt>
      <trkpt lat="49.87475" lon="4.76195">
        <ele>394</ele>
        <time>2024-05-08T13:52:35Z</time>
      </trkpt>
      <trkpt lat="49.87475" lon="4.76197">
        <ele>394</ele>
        <time>2024-05-08T13:52:36Z</time>
      </trkpt>
      <trkpt lat="49.87476" lon="4.76198">
        <ele>394</ele>
        <time>2024-05-08T13:52:37Z</time>
      </trkpt>
      <trkpt lat="49.87476" lon="4.762">
        <ele>394</ele>
        <time>2024-05-08T13:52:38Z</time>
      </trkpt>
      <trkpt lat="49.87476" lon="4.76202">
        <ele>394</ele>
        <time>2024-05-08T13:52:39Z</time>
      </trkpt>
      <trkpt lat="49.87477" lon="4.76203">
        <ele>394</ele>
        <time>2024-05-08T13:52:40Z</time>
      </trkpt>
      <trkpt lat="49.87477" lon="4.76205">
        <ele>394</ele>
        <time>2024-05-08T13:52:41Z</time>
      </trkpt>
      <trkpt lat="49.87478" lon="4.76207">
        <ele>394</ele>
        <time>2024-05-08T13:52:42Z</time>
      </trkpt>
      <trkpt lat="49.87478" lon="4.76208">
        <ele>394</ele>
        <time>2024-05-08T13:52:43Z</time>
      </trkpt>
      <trkpt lat="49.87479" lon="4.7621">
        <ele>394</ele>
        <time>2024-05-08T13:52:44Z</time>
      </trkpt>
      <trkpt lat="49.87479" lon="4.76211">
        <ele>394</ele>
        <time>2024-05-08T13:52:45Z</time>
      </trkpt>
      <trkpt lat="49.8748" lon="4.76213">
        <ele>394</ele>
        <time>2024-05-08T13:52:46Z</time>
      </trkpt>
      <trkpt lat="49.8748" lon="4.76215">
        <ele>394</ele>
        <time>2024-05-08T13:52:47Z</time>
      </trkpt>
      <trkpt lat="49.87481" lon="4.76216">
        <ele>394</ele>
        <time>2024-05-08T13:52:48Z</time>
      </trkpt>
      <trkpt lat="49.87481" lon="4.76217">
        <ele>394</ele>
        <time>2024-05-08T13:52:49Z</time>
      </trkpt>
      <trkpt lat="49.87482" lon="4.76219">
        <ele>394</ele>
        <time>2024-05-08T13:52:50Z</time>
      </trkpt>
      <trkpt lat="49.87482" lon="4.76221">
        <ele>394</ele>
        <time>2024-05-08T13:52:51Z</time>
      </trkpt>
      <trkpt lat="49.87483" lon="4.76223">
        <ele>394</ele>
        <time>2024-05-08T13:52:52Z</time>
      </trkpt>
      <trkpt lat="49.87483" lon="4.76224">
        <ele>394</ele>
        <time>2024-05-08T13:52:53Z</time>
      </trkpt>
      <trkpt lat="49.87484" lon="4.76226">
        <ele>394</ele>
        <time>2024-05-08T13:52:54Z</time>
      </trkpt>
      <trkpt lat="49.87485" lon="4.76228">
        <ele>394</ele>
        <time>2024-05-08T13:52:55Z</time>
      </trkpt>
      <trkpt lat="49.87485" lon="4.7623">
        <ele>394</ele>
        <time>2024-05-08T13:52:56Z</time>
      </trkpt>
      <trkpt lat="49.87486" lon="4.76232">
        <ele>394</ele>
        <time>2024-05-08T13:52:57Z</time>
      </trkpt>
      <trkpt lat="49.87487" lon="4.76233">
        <ele>394</ele>
        <time>2024-05-08T13:52:58Z</time>
      </trkpt>
      <trkpt lat="49.87487" lon="4.76235">
        <ele>394</ele>
        <time>2024-05-08T13:52:59Z</time>
      </trkpt>
      <trkpt lat="49.87488" lon="4.76236">
        <ele>394</ele>
        <time>2024-05-08T13:53:00Z</time>
      </trkpt>
      <trkpt lat="49.87489" lon="4.76237">
        <ele>394</ele>
        <time>2024-05-08T13:53:01Z</time>
      </trkpt>
      <trkpt lat="49.8749" lon="4.76238">
        <ele>394</ele>
        <time>2024-05-08T13:53:02Z</time>
      </trkpt>
      <trkpt lat="49.87491" lon="4.76239">
        <ele>394</ele>
        <time>2024-05-08T13:53:03Z</time>
      </trkpt>
      <trkpt lat="49.87492" lon="4.76241">
        <ele>394</ele>
        <time>2024-05-08T13:53:04Z</time>
      </trkpt>
      <trkpt lat="49.87493" lon="4.76242">
        <ele>394</ele>
        <time>2024-05-08T13:53:05Z</time>
      </trkpt>
      <trkpt lat="49.87494" lon="4.76244">
        <ele>394</ele>
        <time>2024-05-08T13:53:06Z</time>
      </trkpt>
      <trkpt lat="49.87495" lon="4.76245">
        <ele>394</ele>
        <time>2024-05-08T13:53:07Z</time>
      </trkpt>
      <trkpt lat="49.87495" lon="4.76247">
        <ele>394</ele>
        <time>2024-05-08T13:53:08Z</time>
      </trkpt>
      <trkpt lat="49.87495" lon="4.76249">
        <ele>394</ele>
        <time>2024-05-08T13:53:09Z</time>
      </trkpt>
      <trkpt lat="49.87495" lon="4.7625">
        <ele>394</ele>
        <time>2024-05-08T13:53:10Z</time>
      </trkpt>
      <trkpt lat="49.87495" lon="4.76252">
        <ele>394</ele>
        <time>2024-05-08T13:53:11Z</time>
      </trkpt>
      <trkpt lat="49.87495" lon="4.76254">
        <ele>394</ele>
        <time>2024-05-08T13:53:12Z</time>
      </trkpt>
      <trkpt lat="49.87495" lon="4.76256">
        <ele>394</ele>
        <time>2024-05-08T13:53:13Z</time>
      </trkpt>
      <trkpt lat="49.87496" lon="4.76258">
        <ele>394</ele>
        <time>2024-05-08T13:53:14Z</time>
      </trkpt>
      <trkpt lat="49.87496" lon="4.76259">
        <ele>394</ele>
        <time>2024-05-08T13:53:15Z</time>
      </trkpt>
      <trkpt lat="49.87497" lon="4.76261">
        <ele>394</ele>
        <time>2024-05-08T13:53:16Z</time>
      </trkpt>
      <trkpt lat="49.87498" lon="4.76262">
        <ele>394</ele>
        <time>2024-05-08T13:53:17Z</time>
      </trkpt>
      <trkpt lat="49.87499" lon="4.76264">
        <ele>394</ele>
        <time>2024-05-08T13:53:18Z</time>
      </trkpt>
      <trkpt lat="49.875" lon="4.76265">
        <ele>394</ele>
        <time>2024-05-08T13:53:19Z</time>
      </trkpt>
      <trkpt lat="49.87501" lon="4.76267">
        <ele>394</ele>
        <time>2024-05-08T13:53:20Z</time>
      </trkpt>
      <trkpt lat="49.87502" lon="4.76268">
        <ele>394</ele>
        <time>2024-05-08T13:53:21Z</time>
      </trkpt>
      <trkpt lat="49.87502" lon="4.7627">
        <ele>394</ele>
        <time>2024-05-08T13:53:22Z</time>
      </trkpt>
      <trkpt lat="49.87503" lon="4.76272">
        <ele>394</ele>
        <time>2024-05-08T13:53:23Z</time>
      </trkpt>
      <trkpt lat="49.87503" lon="4.76274">
        <ele>394</ele>
        <time>2024-05-08T13:53:24Z</time>
      </trkpt>
      <trkpt lat="49.87503" lon="4.76276">
        <ele>394</ele>
        <time>2024-05-08T13:53:25Z</time>
      </trkpt>
      <trkpt lat="49.87503" lon="4.76277">
        <ele>394</ele>
        <time>2024-05-08T13:53:26Z</time>
      </trkpt>
      <trkpt lat="49.87503" lon="4.76279">
        <ele>394</ele>
        <time>2024-05-08T13:53:27Z</time>
      </trkpt>
      <trkpt lat="49.87503" lon="4.76281">
        <ele>394</ele>
        <time>2024-05-08T13:53:28Z</time>
      </trkpt>
      <trkpt lat="49.87504" lon="4.76283">
        <ele>394</ele>
        <time>2024-05-08T13:53:29Z</time>
      </trkpt>
      <trkpt lat="49.87504" lon="4.76284">
        <ele>394</ele>
        <time>2024-05-08T13:53:30Z</time>
      </trkpt>
      <trkpt lat="49.87505" lon="4.76286">
        <ele>394</ele>
        <time>2024-05-08T13:53:31Z</time>
      </trkpt>
      <trkpt lat="49.87505" lon="4.76287">
        <ele>394</ele>
        <time>2024-05-08T13:53:32Z</time>
      </trkpt>
      <trkpt lat="49.87506" lon="4.76289">
        <ele>394</ele>
        <time>2024-05-08T13:53:33Z</time>
      </trkpt>
      <trkpt lat="49.87506" lon="4.7629">
        <ele>394</ele>
        <time>2024-05-08T13:53:34Z</time>
      </trkpt>
      <trkpt lat="49.87507" lon="4.76292">
        <ele>394</ele>
        <time>2024-05-08T13:53:35Z</time>
      </trkpt>
      <trkpt lat="49.87508" lon="4.76293">
        <ele>394</ele>
        <time>2024-05-08T13:53:36Z</time>
      </trkpt>
      <trkpt lat="49.87508" lon="4.76295">
        <ele>394</ele>
        <time>2024-05-08T13:53:37Z</time>
      </trkpt>
      <trkpt lat="49.87509" lon="4.76296">
        <ele>394</ele>
        <time>2024-05-08T13:53:38Z</time>
      </trkpt>
      <trkpt lat="49.87509" lon="4.76298">
        <ele>394</ele>
        <time>2024-05-08T13:53:39Z</time>
      </trkpt>
      <trkpt lat="49.8751" lon="4.763">
        <ele>394</ele>
        <time>2024-05-08T13:53:40Z</time>
      </trkpt>
      <trkpt lat="49.8751" lon="4.76301">
        <ele>394</ele>
        <time>2024-05-08T13:53:41Z</time>
      </trkpt>
      <trkpt lat="49.87511" lon="4.76303">
        <ele>393</ele>
        <time>2024-05-08T13:53:42Z</time>
      </trkpt>
      <trkpt lat="49.87512" lon="4.76304">
        <ele>393</ele>
        <time>2024-05-08T13:53:43Z</time>
      </trkpt>
      <trkpt lat="49.87512" lon="4.76306">
        <ele>393</ele>
        <time>2024-05-08T13:53:44Z</time>
      </trkpt>
      <trkpt lat="49.87513" lon="4.76307">
        <ele>393</ele>
        <time>2024-05-08T13:53:45Z</time>
      </trkpt>
      <trkpt lat="49.87513" lon="4.76308">
        <ele>393</ele>
        <time>2024-05-08T13:53:46Z</time>
      </trkpt>
      <trkpt lat="49.87514" lon="4.7631">
        <ele>393</ele>
        <time>2024-05-08T13:53:47Z</time>
      </trkpt>
      <trkpt lat="49.87514" lon="4.76311">
        <ele>393</ele>
        <time>2024-05-08T13:53:48Z</time>
      </trkpt>
      <trkpt lat="49.87514" lon="4.76313">
        <ele>393</ele>
        <time>2024-05-08T13:53:49Z</time>
      </trkpt>
      <trkpt lat="49.87515" lon="4.76314">
        <ele>393</ele>
        <time>2024-05-08T13:53:50Z</time>
      </trkpt>
      <trkpt lat="49.87515" lon="4.76316">
        <ele>393</ele>
        <time>2024-05-08T13:53:51Z</time>
      </trkpt>
      <trkpt lat="49.87516" lon="4.76318">
        <ele>393</ele>
        <time>2024-05-08T13:53:52Z</time>
      </trkpt>
      <trkpt lat="49.87516" lon="4.76319">
        <ele>393</ele>
        <time>2024-05-08T13:53:53Z</time>
      </trkpt>
      <trkpt lat="49.87516" lon="4.76321">
        <ele>393</ele>
        <time>2024-05-08T13:53:54Z</time>
      </trkpt>
      <trkpt lat="49.87517" lon="4.76323">
        <ele>393</ele>
        <time>2024-05-08T13:53:55Z</time>
      </trkpt>
      <trkpt lat="49.87517" lon="4.76325">
        <ele>394</ele>
        <time>2024-05-08T13:53:56Z</time>
      </trkpt>
      <trkpt lat="49.87518" lon="4.76327">
        <ele>394</ele>
        <time>2024-05-08T13:53:57Z</time>
      </trkpt>
      <trkpt lat="49.87518" lon="4.76328">
        <ele>394</ele>
        <time>2024-05-08T13:53:58Z</time>
      </trkpt>
      <trkpt lat="49.87518" lon="4.7633">
        <ele>394</ele>
        <time>2024-05-08T13:53:59Z</time>
      </trkpt>
      <trkpt lat="49.87519" lon="4.76332">
        <ele>394</ele>
        <time>2024-05-08T13:54:00Z</time>
      </trkpt>
      <trkpt lat="49.87519" lon="4.76334">
        <ele>394</ele>
        <time>2024-05-08T13:54:01Z</time>
      </trkpt>
      <trkpt lat="49.8752" lon="4.76336">
        <ele>393</ele>
        <time>2024-05-08T13:54:02Z</time>
      </trkpt>
      <trkpt lat="49.8752" lon="4.76337">
        <ele>393</ele>
        <time>2024-05-08T13:54:03Z</time>
      </trkpt>
      <trkpt lat="49.87521" lon="4.76339">
        <ele>393</ele>
        <time>2024-05-08T13:54:04Z</time>
      </trkpt>
      <trkpt lat="49.87521" lon="4.76341">
        <ele>393</ele>
        <time>2024-05-08T13:54:05Z</time>
      </trkpt>
      <trkpt lat="49.87522" lon="4.76342">
        <ele>393</ele>
        <time>2024-05-08T13:54:06Z</time>
      </trkpt>
      <trkpt lat="49.87522" lon="4.76344">
        <ele>393</ele>
        <time>2024-05-08T13:54:07Z</time>
      </trkpt>
      <trkpt lat="49.87523" lon="4.76345">
        <ele>393</ele>
        <time>2024-05-08T13:54:08Z</time>
      </trkpt>
      <trkpt lat="49.87523" lon="4.76347">
        <ele>393</ele>
        <time>2024-05-08T13:54:09Z</time>
      </trkpt>
      <trkpt lat="49.87524" lon="4.76348">
        <ele>393</ele>
        <time>2024-05-08T13:54:10Z</time>
      </trkpt>
      <trkpt lat="49.87524" lon="4.7635">
        <ele>394</ele>
        <time>2024-05-08T13:54:11Z</time>
      </trkpt>
      <trkpt lat="49.87525" lon="4.76351">
        <ele>394</ele>
        <time>2024-05-08T13:54:12Z</time>
      </trkpt>
      <trkpt lat="49.87525" lon="4.76353">
        <ele>394</ele>
        <time>2024-05-08T13:54:13Z</time>
      </trkpt>
      <trkpt lat="49.87525" lon="4.76354">
        <ele>394</ele>
        <time>2024-05-08T13:54:14Z</time>
      </trkpt>
      <trkpt lat="49.87526" lon="4.76356">
        <ele>394</ele>
        <time>2024-05-08T13:54:15Z</time>
      </trkpt>
      <trkpt lat="49.87526" lon="4.76358">
        <ele>394</ele>
        <time>2024-05-08T13:54:16Z</time>
      </trkpt>
      <trkpt lat="49.87527" lon="4.76359">
        <ele>394</ele>
        <time>2024-05-08T13:54:17Z</time>
      </trkpt>
      <trkpt lat="49.87527" lon="4.76361">
        <ele>394</ele>
        <time>2024-05-08T13:54:18Z</time>
      </trkpt>
      <trkpt lat="49.87528" lon="4.76363">
        <ele>394</ele>
        <time>2024-05-08T13:54:19Z</time>
      </trkpt>
      <trkpt lat="49.87528" lon="4.76364">
        <ele>394</ele>
        <time>2024-05-08T13:54:20Z</time>
      </trkpt>
      <trkpt lat="49.87529" lon="4.76366">
        <ele>394</ele>
        <time>2024-05-08T13:54:21Z</time>
      </trkpt>
      <trkpt lat="49.87529" lon="4.76368">
        <ele>394</ele>
        <time>2024-05-08T13:54:22Z</time>
      </trkpt>
      <trkpt lat="49.8753" lon="4.76369">
        <ele>394</ele>
        <time>2024-05-08T13:54:23Z</time>
      </trkpt>
      <trkpt lat="49.8753" lon="4.76371">
        <ele>394</ele>
        <time>2024-05-08T13:54:24Z</time>
      </trkpt>
      <trkpt lat="49.8753" lon="4.76373">
        <ele>394</ele>
        <time>2024-05-08T13:54:25Z</time>
      </trkpt>
      <trkpt lat="49.8753" lon="4.76374">
        <ele>394</ele>
        <time>2024-05-08T13:54:26Z</time>
      </trkpt>
      <trkpt lat="49.8753" lon="4.76376">
        <ele>394</ele>
        <time>2024-05-08T13:54:27Z</time>
      </trkpt>
      <trkpt lat="49.8753" lon="4.76378">
        <ele>394</ele>
        <time>2024-05-08T13:54:28Z</time>
      </trkpt>
      <trkpt lat="49.87531" lon="4.7638">
        <ele>394</ele>
        <time>2024-05-08T13:54:29Z</time>
      </trkpt>
      <trkpt lat="49.87531" lon="4.7638">
        <ele>394</ele>
        <time>2024-05-08T13:54:30Z</time>
      </trkpt>
      <trkpt lat="49.87531" lon="4.76381">
        <ele>394</ele>
        <time>2024-05-08T13:54:31Z</time>
      </trkpt>
      <trkpt lat="49.87532" lon="4.76383">
        <ele>394</ele>
        <time>2024-05-08T13:54:32Z</time>
      </trkpt>
      <trkpt lat="49.87533" lon="4.76384">
        <ele>394</ele>
        <time>2024-05-08T13:54:33Z</time>
      </trkpt>
      <trkpt lat="49.87534" lon="4.76385">
        <ele>394</ele>
        <time>2024-05-08T13:54:34Z</time>
      </trkpt>
      <trkpt lat="49.87534" lon="4.76387">
        <ele>394</ele>
        <time>2024-05-08T13:54:35Z</time>
      </trkpt>
      <trkpt lat="49.87535" lon="4.76388">
        <ele>394</ele>
        <time>2024-05-08T13:54:36Z</time>
      </trkpt>
      <trkpt lat="49.87535" lon="4.7639">
        <ele>394</ele>
        <time>2024-05-08T13:54:37Z</time>
      </trkpt>
      <trkpt lat="49.87536" lon="4.76391">
        <ele>394</ele>
        <time>2024-05-08T13:54:38Z</time>
      </trkpt>
      <trkpt lat="49.87536" lon="4.76393">
        <ele>394</ele>
        <time>2024-05-08T13:54:39Z</time>
      </trkpt>
      <trkpt lat="49.87539" lon="4.76394">
        <ele>396</ele>
        <time>2024-05-08T14:02:33Z</time>
      </trkpt>
      <trkpt lat="49.8754" lon="4.76396">
        <ele>396</ele>
        <time>2024-05-08T14:02:34Z</time>
      </trkpt>
      <trkpt lat="49.87541" lon="4.76397">
        <ele>396</ele>
        <time>2024-05-08T14:02:35Z</time>
      </trkpt>
      <trkpt lat="49.87542" lon="4.76398">
        <ele>396</ele>
        <time>2024-05-08T14:02:36Z</time>
      </trkpt>
      <trkpt lat="49.87542" lon="4.76399">
        <ele>396</ele>
        <time>2024-05-08T14:02:37Z</time>
      </trkpt>
      <trkpt lat="49.87542" lon="4.76401">
        <ele>396</ele>
        <time>2024-05-08T14:02:38Z</time>
      </trkpt>
      <trkpt lat="49.87543" lon="4.76402">
        <ele>396</ele>
        <time>2024-05-08T14:02:39Z</time>
      </trkpt>
      <trkpt lat="49.87543" lon="4.76403">
        <ele>396</ele>
        <time>2024-05-08T14:02:40Z</time>
      </trkpt>
      <trkpt lat="49.87543" lon="4.76404">
        <ele>396</ele>
        <time>2024-05-08T14:02:41Z</time>
      </trkpt>
      <trkpt lat="49.87544" lon="4.76406">
        <ele>396</ele>
        <time>2024-05-08T14:02:42Z</time>
      </trkpt>
      <trkpt lat="49.87544" lon="4.76407">
        <ele>396</ele>
        <time>2024-05-08T14:02:43Z</time>
      </trkpt>
      <trkpt lat="49.87545" lon="4.76408">
        <ele>396</ele>
        <time>2024-05-08T14:02:44Z</time>
      </trkpt>
      <trkpt lat="49.87545" lon="4.7641">
        <ele>396</ele>
        <time>2024-05-08T14:02:45Z</time>
      </trkpt>
      <trkpt lat="49.87545" lon="4.76411">
        <ele>396</ele>
        <time>2024-05-08T14:02:46Z</time>
      </trkpt>
      <trkpt lat="49.87546" lon="4.76413">
        <ele>396</ele>
        <time>2024-05-08T14:02:47Z</time>
      </trkpt>
      <trkpt lat="49.87546" lon="4.76415">
        <ele>396</ele>
        <time>2024-05-08T14:02:48Z</time>
      </trkpt>
      <trkpt lat="49.87546" lon="4.76416">
        <ele>396</ele>
        <time>2024-05-08T14:02:49Z</time>
      </trkpt>
      <trkpt lat="49.87546" lon="4.76418">
        <ele>396</ele>
        <time>2024-05-08T14:02:50Z</time>
      </trkpt>
      <trkpt lat="49.87547" lon="4.76419">
        <ele>396</ele>
        <time>2024-05-08T14:02:51Z</time>
      </trkpt>
      <trkpt lat="49.87547" lon="4.76421">
        <ele>396</ele>
        <time>2024-05-08T14:02:52Z</time>
      </trkpt>
      <trkpt lat="49.87548" lon="4.76423">
        <ele>396</ele>
        <time>2024-05-08T14:02:53Z</time>
      </trkpt>
      <trkpt lat="49.87548" lon="4.76425">
        <ele>396</ele>
        <time>2024-05-08T14:02:54Z</time>
      </trkpt>
      <trkpt lat="49.87549" lon="4.76426">
        <ele>396</ele>
        <time>2024-05-08T14:02:55Z</time>
      </trkpt>
      <trkpt lat="49.8755" lon="4.76428">
        <ele>396</ele>
        <time>2024-05-08T14:02:56Z</time>
      </trkpt>
      <trkpt lat="49.8755" lon="4.7643">
        <ele>396</ele>
        <time>2024-05-08T14:02:57Z</time>
      </trkpt>
      <trkpt lat="49.8755" lon="4.76431">
        <ele>396</ele>
        <time>2024-05-08T14:02:58Z</time>
      </trkpt>
      <trkpt lat="49.87551" lon="4.76433">
        <ele>396</ele>
        <time>2024-05-08T14:02:59Z</time>
      </trkpt>
      <trkpt lat="49.87551" lon="4.76434">
        <ele>396</ele>
        <time>2024-05-08T14:03:00Z</time>
      </trkpt>
      <trkpt lat="49.87551" lon="4.76436">
        <ele>396</ele>
        <time>2024-05-08T14:03:01Z</time>
      </trkpt>
      <trkpt lat="49.87551" lon="4.76437">
        <ele>396</ele>
        <time>2024-05-08T14:03:02Z</time>
      </trkpt>
      <trkpt lat="49.87552" lon="4.76439">
        <ele>396</ele>
        <time>2024-05-08T14:03:03Z</time>
      </trkpt>
      <trkpt lat="49.87552" lon="4.7644">
        <ele>396</ele>
        <time>2024-05-08T14:03:04Z</time>
      </trkpt>
      <trkpt lat="49.87552" lon="4.76441">
        <ele>396</ele>
        <time>2024-05-08T14:03:05Z</time>
      </trkpt>
      <trkpt lat="49.87553" lon="4.76442">
        <ele>396</ele>
        <time>2024-05-08T14:03:06Z</time>
      </trkpt>
      <trkpt lat="49.87553" lon="4.76443">
        <ele>395</ele>
        <time>2024-05-08T14:03:07Z</time>
      </trkpt>
      <trkpt lat="49.87553" lon="4.76444">
        <ele>395</ele>
        <time>2024-05-08T14:03:08Z</time>
      </trkpt>
      <trkpt lat="49.87553" lon="4.76445">
        <ele>394</ele>
        <time>2024-05-08T14:03:09Z</time>
      </trkpt>
      <trkpt lat="49.87554" lon="4.76447">
        <ele>394</ele>
        <time>2024-05-08T14:03:10Z</time>
      </trkpt>
      <trkpt lat="49.87554" lon="4.76448">
        <ele>394</ele>
        <time>2024-05-08T14:03:11Z</time>
      </trkpt>
      <trkpt lat="49.87555" lon="4.76449">
        <ele>394</ele>
        <time>2024-05-08T14:03:12Z</time>
      </trkpt>
      <trkpt lat="49.87555" lon="4.76451">
        <ele>394</ele>
        <time>2024-05-08T14:03:13Z</time>
      </trkpt>
      <trkpt lat="49.87556" lon="4.76453">
        <ele>394</ele>
        <time>2024-05-08T14:03:14Z</time>
      </trkpt>
      <trkpt lat="49.87557" lon="4.76454">
        <ele>394</ele>
        <time>2024-05-08T14:03:15Z</time>
      </trkpt>
      <trkpt lat="49.87557" lon="4.76456">
        <ele>394</ele>
        <time>2024-05-08T14:03:16Z</time>
      </trkpt>
      <trkpt lat="49.87558" lon="4.76458">
        <ele>394</ele>
        <time>2024-05-08T14:03:17Z</time>
      </trkpt>
      <trkpt lat="49.87559" lon="4.7646">
        <ele>394</ele>
        <time>2024-05-08T14:03:18Z</time>
      </trkpt>
      <trkpt lat="49.87559" lon="4.76462">
        <ele>394</ele>
        <time>2024-05-08T14:03:19Z</time>
      </trkpt>
      <trkpt lat="49.8756" lon="4.76464">
        <ele>394</ele>
        <time>2024-05-08T14:03:20Z</time>
      </trkpt>
      <trkpt lat="49.8756" lon="4.76465">
        <ele>394</ele>
        <time>2024-05-08T14:03:21Z</time>
      </trkpt>
      <trkpt lat="49.87561" lon="4.76467">
        <ele>394</ele>
        <time>2024-05-08T14:03:22Z</time>
      </trkpt>
      <trkpt lat="49.87561" lon="4.76469">
        <ele>394</ele>
        <time>2024-05-08T14:03:23Z</time>
      </trkpt>
      <trkpt lat="49.87562" lon="4.7647">
        <ele>394</ele>
        <time>2024-05-08T14:03:24Z</time>
      </trkpt>
      <trkpt lat="49.87563" lon="4.76472">
        <ele>394</ele>
        <time>2024-05-08T14:03:25Z</time>
      </trkpt>
      <trkpt lat="49.87563" lon="4.76474">
        <ele>394</ele>
        <time>2024-05-08T14:03:26Z</time>
      </trkpt>
      <trkpt lat="49.87563" lon="4.76475">
        <ele>394</ele>
        <time>2024-05-08T14:03:27Z</time>
      </trkpt>
      <trkpt lat="49.87564" lon="4.76477">
        <ele>394</ele>
        <time>2024-05-08T14:03:28Z</time>
      </trkpt>
      <trkpt lat="49.87564" lon="4.76479">
        <ele>394</ele>
        <time>2024-05-08T14:03:29Z</time>
      </trkpt>
      <trkpt lat="49.87564" lon="4.76481">
        <ele>394</ele>
        <time>2024-05-08T14:03:30Z</time>
      </trkpt>
      <trkpt lat="49.87565" lon="4.76482">
        <ele>394</ele>
        <time>2024-05-08T14:03:31Z</time>
      </trkpt>
      <trkpt lat="49.87565" lon="4.76484">
        <ele>394</ele>
        <time>2024-05-08T14:03:32Z</time>
      </trkpt>
      <trkpt lat="49.87566" lon="4.76486">
        <ele>394</ele>
        <time>2024-05-08T14:03:33Z</time>
      </trkpt>
      <trkpt lat="49.87566" lon="4.76487">
        <ele>394</ele>
        <time>2024-05-08T14:03:34Z</time>
      </trkpt>
      <trkpt lat="49.87567" lon="4.76489">
        <ele>394</ele>
        <time>2024-05-08T14:03:35Z</time>
      </trkpt>
      <trkpt lat="49.87567" lon="4.7649">
        <ele>394</ele>
        <time>2024-05-08T14:03:36Z</time>
      </trkpt>
      <trkpt lat="49.87568" lon="4.76491">
        <ele>393</ele>
        <time>2024-05-08T14:03:37Z</time>
      </trkpt>
      <trkpt lat="49.87569" lon="4.76493">
        <ele>393</ele>
        <time>2024-05-08T14:03:38Z</time>
      </trkpt>
      <trkpt lat="49.87569" lon="4.76494">
        <ele>393</ele>
        <time>2024-05-08T14:03:39Z</time>
      </trkpt>
      <trkpt lat="49.8757" lon="4.76495">
        <ele>393</ele>
        <time>2024-05-08T14:03:40Z</time>
      </trkpt>
      <trkpt lat="49.8757" lon="4.76496">
        <ele>393</ele>
        <time>2024-05-08T14:03:41Z</time>
      </trkpt>
      <trkpt lat="49.87571" lon="4.76498">
        <ele>393</ele>
        <time>2024-05-08T14:03:42Z</time>
      </trkpt>
      <trkpt lat="49.87571" lon="4.76499">
        <ele>393</ele>
        <time>2024-05-08T14:03:43Z</time>
      </trkpt>
      <trkpt lat="49.87572" lon="4.765">
        <ele>393</ele>
        <time>2024-05-08T14:03:44Z</time>
      </trkpt>
      <trkpt lat="49.87572" lon="4.76502">
        <ele>393</ele>
        <time>2024-05-08T14:03:45Z</time>
      </trkpt>
      <trkpt lat="49.87572" lon="4.76503">
        <ele>393</ele>
        <time>2024-05-08T14:03:46Z</time>
      </trkpt>
      <trkpt lat="49.87572" lon="4.76505">
        <ele>393</ele>
        <time>2024-05-08T14:03:47Z</time>
      </trkpt>
      <trkpt lat="49.87572" lon="4.76506">
        <ele>393</ele>
        <time>2024-05-08T14:03:48Z</time>
      </trkpt>
      <trkpt lat="49.87572" lon="4.76508">
        <ele>393</ele>
        <time>2024-05-08T14:03:49Z</time>
      </trkpt>
      <trkpt lat="49.87572" lon="4.7651">
        <ele>393</ele>
        <time>2024-05-08T14:03:50Z</time>
      </trkpt>
      <trkpt lat="49.87572" lon="4.76511">
        <ele>393</ele>
        <time>2024-05-08T14:03:51Z</time>
      </trkpt>
      <trkpt lat="49.87572" lon="4.76513">
        <ele>393</ele>
        <time>2024-05-08T14:03:52Z</time>
      </trkpt>
      <trkpt lat="49.87572" lon="4.76515">
        <ele>393</ele>
        <time>2024-05-08T14:03:53Z</time>
      </trkpt>
      <trkpt lat="49.87573" lon="4.76517">
        <ele>393</ele>
        <time>2024-05-08T14:03:54Z</time>
      </trkpt>
      <trkpt lat="49.87573" lon="4.76519">
        <ele>393</ele>
        <time>2024-05-08T14:03:55Z</time>
      </trkpt>
      <trkpt lat="49.87574" lon="4.76521">
        <ele>393</ele>
        <time>2024-05-08T14:03:56Z</time>
      </trkpt>
      <trkpt lat="49.87575" lon="4.76522">
        <ele>392</ele>
        <time>2024-05-08T14:03:57Z</time>
      </trkpt>
      <trkpt lat="49.87575" lon="4.76524">
        <ele>392</ele>
        <time>2024-05-08T14:03:58Z</time>
      </trkpt>
      <trkpt lat="49.87576" lon="4.76526">
        <ele>392</ele>
        <time>2024-05-08T14:03:59Z</time>
      </trkpt>
      <trkpt lat="49.87576" lon="4.76527">
        <ele>392</ele>
        <time>2024-05-08T14:04:00Z</time>
      </trkpt>
      <trkpt lat="49.87577" lon="4.76529">
        <ele>392</ele>
        <time>2024-05-08T14:04:01Z</time>
      </trkpt>
      <trkpt lat="49.87577" lon="4.76531">
        <ele>391</ele>
        <time>2024-05-08T14:04:02Z</time>
      </trkpt>
      <trkpt lat="49.87578" lon="4.76533">
        <ele>391</ele>
        <time>2024-05-08T14:04:03Z</time>
      </trkpt>
      <trkpt lat="49.87578" lon="4.76535">
        <ele>391</ele>
        <time>2024-05-08T14:04:04Z</time>
      </trkpt>
      <trkpt lat="49.87579" lon="4.76537">
        <ele>391</ele>
        <time>2024-05-08T14:04:05Z</time>
      </trkpt>
      <trkpt lat="49.87579" lon="4.76539">
        <ele>391</ele>
        <time>2024-05-08T14:04:06Z</time>
      </trkpt>
      <trkpt lat="49.8758" lon="4.7654">
        <ele>391</ele>
        <time>2024-05-08T14:04:07Z</time>
      </trkpt>
      <trkpt lat="49.87581" lon="4.76542">
        <ele>391</ele>
        <time>2024-05-08T14:04:08Z</time>
      </trkpt>
      <trkpt lat="49.87581" lon="4.76543">
        <ele>391</ele>
        <time>2024-05-08T14:04:09Z</time>
      </trkpt>
      <trkpt lat="49.87582" lon="4.76545">
        <ele>391</ele>
        <time>2024-05-08T14:04:10Z</time>
      </trkpt>
      <trkpt lat="49.87582" lon="4.76547">
        <ele>391</ele>
        <time>2024-05-08T14:04:11Z</time>
      </trkpt>
      <trkpt lat="49.87582" lon="4.76549">
        <ele>390</ele>
        <time>2024-05-08T14:04:12Z</time>
      </trkpt>
      <trkpt lat="49.87583" lon="4.76551">
        <ele>390</ele>
        <time>2024-05-08T14:04:13Z</time>
      </trkpt>
      <trkpt lat="49.87583" lon="4.76553">
        <ele>390</ele>
        <time>2024-05-08T14:04:14Z</time>
      </trkpt>
      <trkpt lat="49.87583" lon="4.76554">
        <ele>390</ele>
        <time>2024-05-08T14:04:15Z</time>
      </trkpt>
      <trkpt lat="49.87583" lon="4.76556">
        <ele>390</ele>
        <time>2024-05-08T14:04:16Z</time>
      </trkpt>
      <trkpt lat="49.87584" lon="4.76558">
        <ele>390</ele>
        <time>2024-05-08T14:04:17Z</time>
      </trkpt>
      <trkpt lat="49.87584" lon="4.7656">
        <ele>390</ele>
        <time>2024-05-08T14:04:18Z</time>
      </trkpt>
      <trkpt lat="49.87584" lon="4.76561">
        <ele>390</ele>
        <time>2024-05-08T14:04:19Z</time>
      </trkpt>
      <trkpt lat="49.87585" lon="4.76563">
        <ele>390</ele>
        <time>2024-05-08T14:04:20Z</time>
      </trkpt>
      <trkpt lat="49.87585" lon="4.76565">
        <ele>390</ele>
        <time>2024-05-08T14:04:21Z</time>
      </trkpt>
      <trkpt lat="49.87585" lon="4.76566">
        <ele>389</ele>
        <time>2024-05-08T14:04:22Z</time>
      </trkpt>
      <trkpt lat="49.87585" lon="4.76568">
        <ele>389</ele>
        <time>2024-05-08T14:04:23Z</time>
      </trkpt>
      <trkpt lat="49.87585" lon="4.7657">
        <ele>389</ele>
        <time>2024-05-08T14:04:24Z</time>
      </trkpt>
      <trkpt lat="49.87585" lon="4.76572">
        <ele>389</ele>
        <time>2024-05-08T14:04:25Z</time>
      </trkpt>
      <trkpt lat="49.87586" lon="4.76575">
        <ele>389</ele>
        <time>2024-05-08T14:04:26Z</time>
      </trkpt>
      <trkpt lat="49.87586" lon="4.76577">
        <ele>389</ele>
        <time>2024-05-08T14:04:27Z</time>
      </trkpt>
      <trkpt lat="49.87586" lon="4.76579">
        <ele>389</ele>
        <time>2024-05-08T14:04:28Z</time>
      </trkpt>
      <trkpt lat="49.87586" lon="4.76581">
        <ele>389</ele>
        <time>2024-05-08T14:04:29Z</time>
      </trkpt>
      <trkpt lat="49.87586" lon="4.76583">
        <ele>389</ele>
        <time>2024-05-08T14:04:30Z</time>
      </trkpt>
      <trkpt lat="49.87586" lon="4.76585">
        <ele>389</ele>
        <time>2024-05-08T14:04:31Z</time>
      </trkpt>
      <trkpt lat="49.87587" lon="4.76587">
        <ele>389</ele>
        <time>2024-05-08T14:04:32Z</time>
      </trkpt>
      <trkpt lat="49.87587" lon="4.76589">
        <ele>389</ele>
        <time>2024-05-08T14:04:33Z</time>
      </trkpt>
      <trkpt lat="49.87587" lon="4.7659">
        <ele>389</ele>
        <time>2024-05-08T14:04:34Z</time>
      </trkpt>
      <trkpt lat="49.87587" lon="4.76592">
        <ele>389</ele>
        <time>2024-05-08T14:04:35Z</time>
      </trkpt>
      <trkpt lat="49.87588" lon="4.76594">
        <ele>389</ele>
        <time>2024-05-08T14:04:36Z</time>
      </trkpt>
      <trkpt lat="49.87588" lon="4.76596">
        <ele>389</ele>
        <time>2024-05-08T14:04:37Z</time>
      </trkpt>
      <trkpt lat="49.87588" lon="4.76598">
        <ele>389</ele>
        <time>2024-05-08T14:04:38Z</time>
      </trkpt>
      <trkpt lat="49.87588" lon="4.766">
        <ele>389</ele>
        <time>2024-05-08T14:04:39Z</time>
      </trkpt>
      <trkpt lat="49.87588" lon="4.76602">
        <ele>389</ele>
        <time>2024-05-08T14:04:40Z</time>
      </trkpt>
      <trkpt lat="49.87588" lon="4.76603">
        <ele>389</ele>
        <time>2024-05-08T14:04:41Z</time>
      </trkpt>
      <trkpt lat="49.87588" lon="4.76605">
        <ele>389</ele>
        <time>2024-05-08T14:04:42Z</time>
      </trkpt>
      <trkpt lat="49.87588" lon="4.76606">
        <ele>389</ele>
        <time>2024-05-08T14:04:43Z</time>
      </trkpt>
      <trkpt lat="49.87588" lon="4.76608">
        <ele>389</ele>
        <time>2024-05-08T14:04:44Z</time>
      </trkpt>
      <trkpt lat="49.87589" lon="4.7661">
        <ele>389</ele>
        <time>2024-05-08T14:04:45Z</time>
      </trkpt>
      <trkpt lat="49.87589" lon="4.76611">
        <ele>389</ele>
        <time>2024-05-08T14:04:46Z</time>
      </trkpt>
      <trkpt lat="49.87589" lon="4.76613">
        <ele>388</ele>
        <time>2024-05-08T14:04:47Z</time>
      </trkpt>
      <trkpt lat="49.87589" lon="4.76615">
        <ele>388</ele>
        <time>2024-05-08T14:04:48Z</time>
      </trkpt>
      <trkpt lat="49.87589" lon="4.76617">
        <ele>388</ele>
        <time>2024-05-08T14:04:49Z</time>
      </trkpt>
      <trkpt lat="49.87589" lon="4.76619">
        <ele>388</ele>
        <time>2024-05-08T14:04:50Z</time>
      </trkpt>
      <trkpt lat="49.8759" lon="4.76621">
        <ele>388</ele>
        <time>2024-05-08T14:04:51Z</time>
      </trkpt>
      <trkpt lat="49.8759" lon="4.76623">
        <ele>388</ele>
        <time>2024-05-08T14:04:52Z</time>
      </trkpt>
      <trkpt lat="49.8759" lon="4.76625">
        <ele>388</ele>
        <time>2024-05-08T14:04:53Z</time>
      </trkpt>
      <trkpt lat="49.87591" lon="4.76627">
        <ele>388</ele>
        <time>2024-05-08T14:04:54Z</time>
      </trkpt>
      <trkpt lat="49.87591" lon="4.76629">
        <ele>388</ele>
        <time>2024-05-08T14:04:55Z</time>
      </trkpt>
      <trkpt lat="49.87592" lon="4.76631">
        <ele>388</ele>
        <time>2024-05-08T14:04:56Z</time>
      </trkpt>
      <trkpt lat="49.87592" lon="4.76632">
        <ele>388</ele>
        <time>2024-05-08T14:04:57Z</time>
      </trkpt>
      <trkpt lat="49.87592" lon="4.76634">
        <ele>388</ele>
        <time>2024-05-08T14:04:58Z</time>
      </trkpt>
      <trkpt lat="49.87593" lon="4.76636">
        <ele>388</ele>
        <time>2024-05-08T14:04:59Z</time>
      </trkpt>
      <trkpt lat="49.87593" lon="4.76637">
        <ele>388</ele>
        <time>2024-05-08T14:05:00Z</time>
      </trkpt>
      <trkpt lat="49.87593" lon="4.76639">
        <ele>388</ele>
        <time>2024-05-08T14:05:01Z</time>
      </trkpt>
      <trkpt lat="49.87593" lon="4.76641">
        <ele>388</ele>
        <time>2024-05-08T14:05:02Z</time>
      </trkpt>
      <trkpt lat="49.87593" lon="4.76642">
        <ele>388</ele>
        <time>2024-05-08T14:05:03Z</time>
      </trkpt>
      <trkpt lat="49.87593" lon="4.76645">
        <ele>388</ele>
        <time>2024-05-08T14:05:04Z</time>
      </trkpt>
      <trkpt lat="49.87593" lon="4.76647">
        <ele>388</ele>
        <time>2024-05-08T14:05:05Z</time>
      </trkpt>
      <trkpt lat="49.87593" lon="4.76649">
        <ele>388</ele>
        <time>2024-05-08T14:05:06Z</time>
      </trkpt>
      <trkpt lat="49.87593" lon="4.76651">
        <ele>388</ele>
        <time>2024-05-08T14:05:07Z</time>
      </trkpt>
      <trkpt lat="49.87594" lon="4.76654">
        <ele>388</ele>
        <time>2024-05-08T14:05:08Z</time>
      </trkpt>
      <trkpt lat="49.87595" lon="4.76656">
        <ele>388</ele>
        <time>2024-05-08T14:05:09Z</time>
      </trkpt>
      <trkpt lat="49.87596" lon="4.76659">
        <ele>388</ele>
        <time>2024-05-08T14:05:10Z</time>
      </trkpt>
      <trkpt lat="49.87596" lon="4.76661">
        <ele>388</ele>
        <time>2024-05-08T14:05:11Z</time>
      </trkpt>
      <trkpt lat="49.87597" lon="4.76663">
        <ele>387</ele>
        <time>2024-05-08T14:05:12Z</time>
      </trkpt>
      <trkpt lat="49.87597" lon="4.76666">
        <ele>387</ele>
        <time>2024-05-08T14:05:13Z</time>
      </trkpt>
      <trkpt lat="49.87597" lon="4.76668">
        <ele>387</ele>
        <time>2024-05-08T14:05:14Z</time>
      </trkpt>
      <trkpt lat="49.87597" lon="4.7667">
        <ele>387</ele>
        <time>2024-05-08T14:05:15Z</time>
      </trkpt>
      <trkpt lat="49.87597" lon="4.76672">
        <ele>387</ele>
        <time>2024-05-08T14:05:16Z</time>
      </trkpt>
      <trkpt lat="49.87597" lon="4.76674">
        <ele>387</ele>
        <time>2024-05-08T14:05:17Z</time>
      </trkpt>
      <trkpt lat="49.87596" lon="4.76675">
        <ele>387</ele>
        <time>2024-05-08T14:05:18Z</time>
      </trkpt>
      <trkpt lat="49.87596" lon="4.76677">
        <ele>387</ele>
        <time>2024-05-08T14:05:19Z</time>
      </trkpt>
      <trkpt lat="49.87596" lon="4.76679">
        <ele>387</ele>
        <time>2024-05-08T14:05:20Z</time>
      </trkpt>
      <trkpt lat="49.87596" lon="4.76681">
        <ele>387</ele>
        <time>2024-05-08T14:05:21Z</time>
      </trkpt>
      <trkpt lat="49.87595" lon="4.76682">
        <ele>387</ele>
        <time>2024-05-08T14:05:22Z</time>
      </trkpt>
      <trkpt lat="49.87595" lon="4.76684">
        <ele>387</ele>
        <time>2024-05-08T14:05:23Z</time>
      </trkpt>
      <trkpt lat="49.87594" lon="4.76686">
        <ele>387</ele>
        <time>2024-05-08T14:05:24Z</time>
      </trkpt>
      <trkpt lat="49.87594" lon="4.76687">
        <ele>387</ele>
        <time>2024-05-08T14:05:25Z</time>
      </trkpt>
      <trkpt lat="49.87593" lon="4.76689">
        <ele>387</ele>
        <time>2024-05-08T14:05:26Z</time>
      </trkpt>
      <trkpt lat="49.87593" lon="4.76691">
        <ele>387</ele>
        <time>2024-05-08T14:05:27Z</time>
      </trkpt>
      <trkpt lat="49.87593" lon="4.76693">
        <ele>387</ele>
        <time>2024-05-08T14:05:28Z</time>
      </trkpt>
      <trkpt lat="49.87592" lon="4.76694">
        <ele>387</ele>
        <time>2024-05-08T14:05:29Z</time>
      </trkpt>
      <trkpt lat="49.87592" lon="4.76696">
        <ele>387</ele>
        <time>2024-05-08T14:05:30Z</time>
      </trkpt>
      <trkpt lat="49.87592" lon="4.76697">
        <ele>387</ele>
        <time>2024-05-08T14:05:31Z</time>
      </trkpt>
      <trkpt lat="49.87592" lon="4.76699">
        <ele>386</ele>
        <time>2024-05-08T14:05:32Z</time>
      </trkpt>
      <trkpt lat="49.87591" lon="4.767">
        <ele>386</ele>
        <time>2024-05-08T14:05:33Z</time>
      </trkpt>
      <trkpt lat="49.87591" lon="4.76702">
        <ele>386</ele>
        <time>2024-05-08T14:05:34Z</time>
      </trkpt>
      <trkpt lat="49.87591" lon="4.76704">
        <ele>386</ele>
        <time>2024-05-08T14:05:35Z</time>
      </trkpt>
      <trkpt lat="49.87591" lon="4.76706">
        <ele>386</ele>
        <time>2024-05-08T14:05:36Z</time>
      </trkpt>
      <trkpt lat="49.87591" lon="4.76707">
        <ele>386</ele>
        <time>2024-05-08T14:05:37Z</time>
      </trkpt>
      <trkpt lat="49.87591" lon="4.7671">
        <ele>386</ele>
        <time>2024-05-08T14:05:38Z</time>
      </trkpt>
      <trkpt lat="49.87591" lon="4.76712">
        <ele>386</ele>
        <time>2024-05-08T14:05:39Z</time>
      </trkpt>
      <trkpt lat="49.8759" lon="4.76713">
        <ele>386</ele>
        <time>2024-05-08T14:05:40Z</time>
      </trkpt>
      <trkpt lat="49.8759" lon="4.76715">
        <ele>387</ele>
        <time>2024-05-08T14:05:41Z</time>
      </trkpt>
      <trkpt lat="49.8759" lon="4.76718">
        <ele>387</ele>
        <time>2024-05-08T14:05:42Z</time>
      </trkpt>
      <trkpt lat="49.87589" lon="4.7672">
        <ele>387</ele>
        <time>2024-05-08T14:05:43Z</time>
      </trkpt>
      <trkpt lat="49.87589" lon="4.76722">
        <ele>387</ele>
        <time>2024-05-08T14:05:44Z</time>
      </trkpt>
      <trkpt lat="49.87588" lon="4.76724">
        <ele>387</ele>
        <time>2024-05-08T14:05:45Z</time>
      </trkpt>
      <trkpt lat="49.87588" lon="4.76726">
        <ele>387</ele>
        <time>2024-05-08T14:05:46Z</time>
      </trkpt>
      <trkpt lat="49.87588" lon="4.76728">
        <ele>387</ele>
        <time>2024-05-08T14:05:47Z</time>
      </trkpt>
      <trkpt lat="49.87588" lon="4.7673">
        <ele>387</ele>
        <time>2024-05-08T14:05:48Z</time>
      </trkpt>
      <trkpt lat="49.87587" lon="4.76732">
        <ele>387</ele>
        <time>2024-05-08T14:05:49Z</time>
      </trkpt>
      <trkpt lat="49.87587" lon="4.76734">
        <ele>387</ele>
        <time>2024-05-08T14:05:50Z</time>
      </trkpt>
      <trkpt lat="49.87587" lon="4.76736">
        <ele>387</ele>
        <time>2024-05-08T14:05:51Z</time>
      </trkpt>
      <trkpt lat="49.87587" lon="4.76738">
        <ele>386</ele>
        <time>2024-05-08T14:05:52Z</time>
      </trkpt>
      <trkpt lat="49.87587" lon="4.7674">
        <ele>386</ele>
        <time>2024-05-08T14:05:53Z</time>
      </trkpt>
      <trkpt lat="49.87587" lon="4.76742">
        <ele>386</ele>
        <time>2024-05-08T14:05:54Z</time>
      </trkpt>
      <trkpt lat="49.87587" lon="4.76744">
        <ele>386</ele>
        <time>2024-05-08T14:05:55Z</time>
      </trkpt>
      <trkpt lat="49.87588" lon="4.76746">
        <ele>386</ele>
        <time>2024-05-08T14:05:56Z</time>
      </trkpt>
      <trkpt lat="49.87588" lon="4.76748">
        <ele>386</ele>
        <time>2024-05-08T14:05:57Z</time>
      </trkpt>
      <trkpt lat="49.87589" lon="4.7675">
        <ele>386</ele>
        <time>2024-05-08T14:05:58Z</time>
      </trkpt>
      <trkpt lat="49.87589" lon="4.76752">
        <ele>386</ele>
        <time>2024-05-08T14:05:59Z</time>
      </trkpt>
      <trkpt lat="49.87589" lon="4.76754">
        <ele>386</ele>
        <time>2024-05-08T14:06:00Z</time>
      </trkpt>
      <trkpt lat="49.8759" lon="4.76756">
        <ele>386</ele>
        <time>2024-05-08T14:06:01Z</time>
      </trkpt>
      <trkpt lat="49.8759" lon="4.76758">
        <ele>386</ele>
        <time>2024-05-08T14:06:02Z</time>
      </trkpt>
      <trkpt lat="49.8759" lon="4.7676">
        <ele>386</ele>
        <time>2024-05-08T14:06:03Z</time>
      </trkpt>
      <trkpt lat="49.8759" lon="4.76762">
        <ele>386</ele>
        <time>2024-05-08T14:06:04Z</time>
      </trkpt>
      <trkpt lat="49.8759" lon="4.76764">
        <ele>386</ele>
        <time>2024-05-08T14:06:05Z</time>
      </trkpt>
      <trkpt lat="49.8759" lon="4.76767">
        <ele>386</ele>
        <time>2024-05-08T14:06:06Z</time>
      </trkpt>
      <trkpt lat="49.8759" lon="4.76769">
        <ele>385</ele>
        <time>2024-05-08T14:06:07Z</time>
      </trkpt>
      <trkpt lat="49.8759" lon="4.76771">
        <ele>385</ele>
        <time>2024-05-08T14:06:08Z</time>
      </trkpt>
      <trkpt lat="49.8759" lon="4.76773">
        <ele>385</ele>
        <time>2024-05-08T14:06:09Z</time>
      </trkpt>
      <trkpt lat="49.8759" lon="4.76775">
        <ele>385</ele>
        <time>2024-05-08T14:06:10Z</time>
      </trkpt>
      <trkpt lat="49.87591" lon="4.76776">
        <ele>385</ele>
        <time>2024-05-08T14:06:11Z</time>
      </trkpt>
      <trkpt lat="49.87591" lon="4.76778">
        <ele>385</ele>
        <time>2024-05-08T14:06:12Z</time>
      </trkpt>
      <trkpt lat="49.87592" lon="4.76779">
        <ele>385</ele>
        <time>2024-05-08T14:06:13Z</time>
      </trkpt>
      <trkpt lat="49.87592" lon="4.76781">
        <ele>385</ele>
        <time>2024-05-08T14:06:14Z</time>
      </trkpt>
      <trkpt lat="49.87592" lon="4.76783">
        <ele>385</ele>
        <time>2024-05-08T14:06:15Z</time>
      </trkpt>
      <trkpt lat="49.87592" lon="4.76785">
        <ele>385</ele>
        <time>2024-05-08T14:06:16Z</time>
      </trkpt>
      <trkpt lat="49.87592" lon="4.76787">
        <ele>385</ele>
        <time>2024-05-08T14:06:17Z</time>
      </trkpt>
      <trkpt lat="49.87592" lon="4.76789">
        <ele>385</ele>
        <time>2024-05-08T14:06:18Z</time>
      </trkpt>
      <trkpt lat="49.87592" lon="4.76792">
        <ele>385</ele>
        <time>2024-05-08T14:06:19Z</time>
      </trkpt>
      <trkpt lat="49.87592" lon="4.76794">
        <ele>385</ele>
        <time>2024-05-08T14:06:20Z</time>
      </trkpt>
      <trkpt lat="49.87592" lon="4.76796">
        <ele>385</ele>
        <time>2024-05-08T14:06:21Z</time>
      </trkpt>
      <trkpt lat="49.87591" lon="4.76799">
        <ele>385</ele>
        <time>2024-05-08T14:06:22Z</time>
      </trkpt>
      <trkpt lat="49.87591" lon="4.76801">
        <ele>385</ele>
        <time>2024-05-08T14:06:23Z</time>
      </trkpt>
      <trkpt lat="49.8759" lon="4.76803">
        <ele>385</ele>
        <time>2024-05-08T14:06:24Z</time>
      </trkpt>
      <trkpt lat="49.8759" lon="4.76805">
        <ele>385</ele>
        <time>2024-05-08T14:06:25Z</time>
      </trkpt>
      <trkpt lat="49.87589" lon="4.76807">
        <ele>385</ele>
        <time>2024-05-08T14:06:26Z</time>
      </trkpt>
      <trkpt lat="49.87589" lon="4.76809">
        <ele>384</ele>
        <time>2024-05-08T14:06:27Z</time>
      </trkpt>
      <trkpt lat="49.87589" lon="4.7681">
        <ele>384</ele>
        <time>2024-05-08T14:06:28Z</time>
      </trkpt>
      <trkpt lat="49.87589" lon="4.76812">
        <ele>384</ele>
        <time>2024-05-08T14:06:29Z</time>
      </trkpt>
      <trkpt lat="49.87589" lon="4.76814">
        <ele>384</ele>
        <time>2024-05-08T14:06:30Z</time>
      </trkpt>
      <trkpt lat="49.87588" lon="4.76815">
        <ele>384</ele>
        <time>2024-05-08T14:06:31Z</time>
      </trkpt>
      <trkpt lat="49.87588" lon="4.76817">
        <ele>384</ele>
        <time>2024-05-08T14:06:32Z</time>
      </trkpt>
      <trkpt lat="49.87588" lon="4.76818">
        <ele>384</ele>
        <time>2024-05-08T14:06:33Z</time>
      </trkpt>
      <trkpt lat="49.87588" lon="4.7682">
        <ele>384</ele>
        <time>2024-05-08T14:06:34Z</time>
      </trkpt>
      <trkpt lat="49.87588" lon="4.76822">
        <ele>384</ele>
        <time>2024-05-08T14:06:35Z</time>
      </trkpt>
      <trkpt lat="49.87588" lon="4.76823">
        <ele>384</ele>
        <time>2024-05-08T14:06:36Z</time>
      </trkpt>
      <trkpt lat="49.87588" lon="4.76825">
        <ele>383</ele>
        <time>2024-05-08T14:06:37Z</time>
      </trkpt>
      <trkpt lat="49.87588" lon="4.76827">
        <ele>383</ele>
        <time>2024-05-08T14:06:38Z</time>
      </trkpt>
      <trkpt lat="49.87588" lon="4.76829">
        <ele>383</ele>
        <time>2024-05-08T14:06:39Z</time>
      </trkpt>
      <trkpt lat="49.87588" lon="4.76831">
        <ele>383</ele>
        <time>2024-05-08T14:06:40Z</time>
      </trkpt>
      <trkpt lat="49.87589" lon="4.76833">
        <ele>383</ele>
        <time>2024-05-08T14:06:41Z</time>
      </trkpt>
      <trkpt lat="49.87589" lon="4.76835">
        <ele>383</ele>
        <time>2024-05-08T14:06:42Z</time>
      </trkpt>
      <trkpt lat="49.87589" lon="4.76837">
        <ele>383</ele>
        <time>2024-05-08T14:06:43Z</time>
      </trkpt>
      <trkpt lat="49.87589" lon="4.76839">
        <ele>383</ele>
        <time>2024-05-08T14:06:44Z</time>
      </trkpt>
      <trkpt lat="49.87589" lon="4.76841">
        <ele>383</ele>
        <time>2024-05-08T14:06:45Z</time>
      </trkpt>
      <trkpt lat="49.8759" lon="4.76844">
        <ele>383</ele>
        <time>2024-05-08T14:06:46Z</time>
      </trkpt>
      <trkpt lat="49.8759" lon="4.76846">
        <ele>382</ele>
        <time>2024-05-08T14:06:47Z</time>
      </trkpt>
      <trkpt lat="49.8759" lon="4.76848">
        <ele>382</ele>
        <time>2024-05-08T14:06:48Z</time>
      </trkpt>
      <trkpt lat="49.87591" lon="4.7685">
        <ele>382</ele>
        <time>2024-05-08T14:06:49Z</time>
      </trkpt>
      <trkpt lat="49.87591" lon="4.76852">
        <ele>382</ele>
        <time>2024-05-08T14:06:50Z</time>
      </trkpt>
      <trkpt lat="49.87591" lon="4.76854">
        <ele>382</ele>
        <time>2024-05-08T14:06:51Z</time>
      </trkpt>
      <trkpt lat="49.87591" lon="4.76856">
        <ele>382</ele>
        <time>2024-05-08T14:06:52Z</time>
      </trkpt>
      <trkpt lat="49.87591" lon="4.76858">
        <ele>382</ele>
        <time>2024-05-08T14:06:53Z</time>
      </trkpt>
      <trkpt lat="49.87591" lon="4.7686">
        <ele>382</ele>
        <time>2024-05-08T14:06:54Z</time>
      </trkpt>
      <trkpt lat="49.87591" lon="4.76861">
        <ele>382</ele>
        <time>2024-05-08T14:06:55Z</time>
      </trkpt>
      <trkpt lat="49.87591" lon="4.76863">
        <ele>382</ele>
        <time>2024-05-08T14:06:56Z</time>
      </trkpt>
      <trkpt lat="49.87591" lon="4.76865">
        <ele>381</ele>
        <time>2024-05-08T14:06:57Z</time>
      </trkpt>
      <trkpt lat="49.87591" lon="4.76867">
        <ele>381</ele>
        <time>2024-05-08T14:06:58Z</time>
      </trkpt>
      <trkpt lat="49.87591" lon="4.76868">
        <ele>381</ele>
        <time>2024-05-08T14:06:59Z</time>
      </trkpt>
      <trkpt lat="49.87591" lon="4.7687">
        <ele>381</ele>
        <time>2024-05-08T14:07:00Z</time>
      </trkpt>
      <trkpt lat="49.87592" lon="4.76872">
        <ele>381</ele>
        <time>2024-05-08T14:07:01Z</time>
      </trkpt>
      <trkpt lat="49.87592" lon="4.76873">
        <ele>381</ele>
        <time>2024-05-08T14:07:02Z</time>
      </trkpt>
      <trkpt lat="49.87593" lon="4.76875">
        <ele>381</ele>
        <time>2024-05-08T14:07:03Z</time>
      </trkpt>
      <trkpt lat="49.87593" lon="4.76876">
        <ele>381</ele>
        <time>2024-05-08T14:07:04Z</time>
      </trkpt>
      <trkpt lat="49.87594" lon="4.76878">
        <ele>381</ele>
        <time>2024-05-08T14:07:05Z</time>
      </trkpt>
      <trkpt lat="49.87594" lon="4.7688">
        <ele>381</ele>
        <time>2024-05-08T14:07:06Z</time>
      </trkpt>
      <trkpt lat="49.87595" lon="4.76881">
        <ele>380</ele>
        <time>2024-05-08T14:07:07Z</time>
      </trkpt>
      <trkpt lat="49.87595" lon="4.76883">
        <ele>380</ele>
        <time>2024-05-08T14:07:08Z</time>
      </trkpt>
      <trkpt lat="49.87596" lon="4.76884">
        <ele>380</ele>
        <time>2024-05-08T14:07:09Z</time>
      </trkpt>
      <trkpt lat="49.87596" lon="4.76886">
        <ele>380</ele>
        <time>2024-05-08T14:07:10Z</time>
      </trkpt>
      <trkpt lat="49.87597" lon="4.76887">
        <ele>380</ele>
        <time>2024-05-08T14:07:11Z</time>
      </trkpt>
      <trkpt lat="49.87598" lon="4.76889">
        <ele>379</ele>
        <time>2024-05-08T14:07:12Z</time>
      </trkpt>
      <trkpt lat="49.87599" lon="4.7689">
        <ele>379</ele>
        <time>2024-05-08T14:07:13Z</time>
      </trkpt>
      <trkpt lat="49.876" lon="4.76891">
        <ele>379</ele>
        <time>2024-05-08T14:07:14Z</time>
      </trkpt>
      <trkpt lat="49.87601" lon="4.76893">
        <ele>379</ele>
        <time>2024-05-08T14:07:15Z</time>
      </trkpt>
      <trkpt lat="49.87602" lon="4.76894">
        <ele>379</ele>
        <time>2024-05-08T14:07:16Z</time>
      </trkpt>
      <trkpt lat="49.87603" lon="4.76895">
        <ele>378</ele>
        <time>2024-05-08T14:07:17Z</time>
      </trkpt>
      <trkpt lat="49.87603" lon="4.76897">
        <ele>378</ele>
        <time>2024-05-08T14:07:18Z</time>
      </trkpt>
      <trkpt lat="49.87604" lon="4.76898">
        <ele>378</ele>
        <time>2024-05-08T14:07:19Z</time>
      </trkpt>
      <trkpt lat="49.87604" lon="4.76899">
        <ele>378</ele>
        <time>2024-05-08T14:07:20Z</time>
      </trkpt>
      <trkpt lat="49.87605" lon="4.76901">
        <ele>378</ele>
        <time>2024-05-08T14:07:21Z</time>
      </trkpt>
      <trkpt lat="49.87605" lon="4.76902">
        <ele>377</ele>
        <time>2024-05-08T14:07:22Z</time>
      </trkpt>
      <trkpt lat="49.87606" lon="4.76904">
        <ele>377</ele>
        <time>2024-05-08T14:07:23Z</time>
      </trkpt>
      <trkpt lat="49.87607" lon="4.76905">
        <ele>377</ele>
        <time>2024-05-08T14:07:24Z</time>
      </trkpt>
      <trkpt lat="49.87607" lon="4.76907">
        <ele>377</ele>
        <time>2024-05-08T14:07:25Z</time>
      </trkpt>
      <trkpt lat="49.87608" lon="4.76908">
        <ele>377</ele>
        <time>2024-05-08T14:07:26Z</time>
      </trkpt>
      <trkpt lat="49.87608" lon="4.76909">
        <ele>376</ele>
        <time>2024-05-08T14:07:27Z</time>
      </trkpt>
      <trkpt lat="49.87608" lon="4.7691">
        <ele>376</ele>
        <time>2024-05-08T14:07:28Z</time>
      </trkpt>
      <trkpt lat="49.87608" lon="4.76912">
        <ele>376</ele>
        <time>2024-05-08T14:07:29Z</time>
      </trkpt>
      <trkpt lat="49.87608" lon="4.76913">
        <ele>376</ele>
        <time>2024-05-08T14:07:30Z</time>
      </trkpt>
      <trkpt lat="49.87608" lon="4.76915">
        <ele>376</ele>
        <time>2024-05-08T14:07:31Z</time>
      </trkpt>
      <trkpt lat="49.87608" lon="4.76916">
        <ele>375</ele>
        <time>2024-05-08T14:07:32Z</time>
      </trkpt>
      <trkpt lat="49.87608" lon="4.76918">
        <ele>375</ele>
        <time>2024-05-08T14:07:33Z</time>
      </trkpt>
      <trkpt lat="49.87608" lon="4.7692">
        <ele>375</ele>
        <time>2024-05-08T14:07:34Z</time>
      </trkpt>
      <trkpt lat="49.87607" lon="4.76922">
        <ele>375</ele>
        <time>2024-05-08T14:07:35Z</time>
      </trkpt>
      <trkpt lat="49.87607" lon="4.76923">
        <ele>375</ele>
        <time>2024-05-08T14:07:36Z</time>
      </trkpt>
      <trkpt lat="49.87606" lon="4.76925">
        <ele>375</ele>
        <time>2024-05-08T14:07:37Z</time>
      </trkpt>
      <trkpt lat="49.87606" lon="4.76927">
        <ele>375</ele>
        <time>2024-05-08T14:07:38Z</time>
      </trkpt>
      <trkpt lat="49.87606" lon="4.76928">
        <ele>375</ele>
        <time>2024-05-08T14:07:39Z</time>
      </trkpt>
      <trkpt lat="49.87606" lon="4.7693">
        <ele>375</ele>
        <time>2024-05-08T14:07:40Z</time>
      </trkpt>
      <trkpt lat="49.87605" lon="4.76931">
        <ele>375</ele>
        <time>2024-05-08T14:07:41Z</time>
      </trkpt>
      <trkpt lat="49.87605" lon="4.76933">
        <ele>374</ele>
        <time>2024-05-08T14:07:42Z</time>
      </trkpt>
      <trkpt lat="49.87606" lon="4.76934">
        <ele>374</ele>
        <time>2024-05-08T14:07:43Z</time>
      </trkpt>
      <trkpt lat="49.87606" lon="4.76936">
        <ele>373</ele>
        <time>2024-05-08T14:07:44Z</time>
      </trkpt>
      <trkpt lat="49.87606" lon="4.76937">
        <ele>373</ele>
        <time>2024-05-08T14:07:45Z</time>
      </trkpt>
      <trkpt lat="49.87606" lon="4.76938">
        <ele>373</ele>
        <time>2024-05-08T14:07:46Z</time>
      </trkpt>
      <trkpt lat="49.87606" lon="4.7694">
        <ele>372</ele>
        <time>2024-05-08T14:07:47Z</time>
      </trkpt>
      <trkpt lat="49.87606" lon="4.76941">
        <ele>372</ele>
        <time>2024-05-08T14:07:48Z</time>
      </trkpt>
      <trkpt lat="49.87606" lon="4.76942">
        <ele>372</ele>
        <time>2024-05-08T14:07:49Z</time>
      </trkpt>
      <trkpt lat="49.87606" lon="4.76943">
        <ele>372</ele>
        <time>2024-05-08T14:07:50Z</time>
      </trkpt>
      <trkpt lat="49.87607" lon="4.76944">
        <ele>372</ele>
        <time>2024-05-08T14:07:51Z</time>
      </trkpt>
      <trkpt lat="49.87607" lon="4.76945">
        <ele>371</ele>
        <time>2024-05-08T14:07:52Z</time>
      </trkpt>
      <trkpt lat="49.87607" lon="4.76946">
        <ele>371</ele>
        <time>2024-05-08T14:07:53Z</time>
      </trkpt>
      <trkpt lat="49.87607" lon="4.76947">
        <ele>371</ele>
        <time>2024-05-08T14:07:54Z</time>
      </trkpt>
      <trkpt lat="49.87607" lon="4.76948">
        <ele>371</ele>
        <time>2024-05-08T14:07:55Z</time>
      </trkpt>
      <trkpt lat="49.87608" lon="4.76949">
        <ele>371</ele>
        <time>2024-05-08T14:07:56Z</time>
      </trkpt>
      <trkpt lat="49.87608" lon="4.7695">
        <ele>370</ele>
        <time>2024-05-08T14:07:57Z</time>
      </trkpt>
      <trkpt lat="49.87608" lon="4.76951">
        <ele>370</ele>
        <time>2024-05-08T14:07:58Z</time>
      </trkpt>
      <trkpt lat="49.87608" lon="4.76952">
        <ele>370</ele>
        <time>2024-05-08T14:07:59Z</time>
      </trkpt>
      <trkpt lat="49.87608" lon="4.76953">
        <ele>370</ele>
        <time>2024-05-08T14:08:00Z</time>
      </trkpt>
      <trkpt lat="49.87609" lon="4.76954">
        <ele>370</ele>
        <time>2024-05-08T14:08:01Z</time>
      </trkpt>
      <trkpt lat="49.87609" lon="4.76955">
        <ele>369</ele>
        <time>2024-05-08T14:08:02Z</time>
      </trkpt>
      <trkpt lat="49.8761" lon="4.76956">
        <ele>369</ele>
        <time>2024-05-08T14:08:03Z</time>
      </trkpt>
      <trkpt lat="49.8761" lon="4.76956">
        <ele>369</ele>
        <time>2024-05-08T14:08:04Z</time>
      </trkpt>
      <trkpt lat="49.87611" lon="4.76957">
        <ele>369</ele>
        <time>2024-05-08T14:08:05Z</time>
      </trkpt>
      <trkpt lat="49.87611" lon="4.76958">
        <ele>369</ele>
        <time>2024-05-08T14:08:06Z</time>
      </trkpt>
      <trkpt lat="49.87611" lon="4.76959">
        <ele>368</ele>
        <time>2024-05-08T14:08:07Z</time>
      </trkpt>
      <trkpt lat="49.87612" lon="4.7696">
        <ele>368</ele>
        <time>2024-05-08T14:08:08Z</time>
      </trkpt>
      <trkpt lat="49.87612" lon="4.76961">
        <ele>367</ele>
        <time>2024-05-08T14:08:09Z</time>
      </trkpt>
      <trkpt lat="49.87612" lon="4.76961">
        <ele>367</ele>
        <time>2024-05-08T14:08:10Z</time>
      </trkpt>
      <trkpt lat="49.87612" lon="4.76962">
        <ele>367</ele>
        <time>2024-05-08T14:08:11Z</time>
      </trkpt>
      <trkpt lat="49.87612" lon="4.76963">
        <ele>366</ele>
        <time>2024-05-08T14:08:12Z</time>
      </trkpt>
      <trkpt lat="49.87613" lon="4.76964">
        <ele>366</ele>
        <time>2024-05-08T14:08:13Z</time>
      </trkpt>
      <trkpt lat="49.87612" lon="4.76965">
        <ele>366</ele>
        <time>2024-05-08T14:08:14Z</time>
      </trkpt>
      <trkpt lat="49.87612" lon="4.76966">
        <ele>366</ele>
        <time>2024-05-08T14:08:15Z</time>
      </trkpt>
      <trkpt lat="49.87612" lon="4.76967">
        <ele>366</ele>
        <time>2024-05-08T14:08:16Z</time>
      </trkpt>
      <trkpt lat="49.87612" lon="4.76968">
        <ele>365</ele>
        <time>2024-05-08T14:08:17Z</time>
      </trkpt>
      <trkpt lat="49.87612" lon="4.7697">
        <ele>365</ele>
        <time>2024-05-08T14:08:18Z</time>
      </trkpt>
      <trkpt lat="49.87612" lon="4.76971">
        <ele>365</ele>
        <time>2024-05-08T14:08:19Z</time>
      </trkpt>
      <trkpt lat="49.87612" lon="4.76972">
        <ele>365</ele>
        <time>2024-05-08T14:08:20Z</time>
      </trkpt>
      <trkpt lat="49.87612" lon="4.76973">
        <ele>365</ele>
        <time>2024-05-08T14:08:21Z</time>
      </trkpt>
      <trkpt lat="49.87613" lon="4.76974">
        <ele>364</ele>
        <time>2024-05-08T14:08:22Z</time>
      </trkpt>
      <trkpt lat="49.87613" lon="4.76975">
        <ele>364</ele>
        <time>2024-05-08T14:08:23Z</time>
      </trkpt>
      <trkpt lat="49.87613" lon="4.76976">
        <ele>363</ele>
        <time>2024-05-08T14:08:24Z</time>
      </trkpt>
      <trkpt lat="49.87613" lon="4.76977">
        <ele>363</ele>
        <time>2024-05-08T14:08:25Z</time>
      </trkpt>
      <trkpt lat="49.87613" lon="4.76977">
        <ele>363</ele>
        <time>2024-05-08T14:08:26Z</time>
      </trkpt>
      <trkpt lat="49.87613" lon="4.76978">
        <ele>362</ele>
        <time>2024-05-08T14:08:27Z</time>
      </trkpt>
      <trkpt lat="49.87614" lon="4.76979">
        <ele>362</ele>
        <time>2024-05-08T14:08:28Z</time>
      </trkpt>
      <trkpt lat="49.87614" lon="4.76981">
        <ele>362</ele>
        <time>2024-05-08T14:08:29Z</time>
      </trkpt>
      <trkpt lat="49.87614" lon="4.76982">
        <ele>362</ele>
        <time>2024-05-08T14:08:30Z</time>
      </trkpt>
      <trkpt lat="49.87613" lon="4.76983">
        <ele>362</ele>
        <time>2024-05-08T14:08:31Z</time>
      </trkpt>
      <trkpt lat="49.87613" lon="4.76984">
        <ele>361</ele>
        <time>2024-05-08T14:08:32Z</time>
      </trkpt>
      <trkpt lat="49.87613" lon="4.76986">
        <ele>361</ele>
        <time>2024-05-08T14:08:33Z</time>
      </trkpt>
      <trkpt lat="49.87612" lon="4.76987">
        <ele>360</ele>
        <time>2024-05-08T14:08:34Z</time>
      </trkpt>
      <trkpt lat="49.87612" lon="4.76988">
        <ele>360</ele>
        <time>2024-05-08T14:08:35Z</time>
      </trkpt>
      <trkpt lat="49.87611" lon="4.76989">
        <ele>360</ele>
        <time>2024-05-08T14:08:36Z</time>
      </trkpt>
      <trkpt lat="49.87611" lon="4.76991">
        <ele>359</ele>
        <time>2024-05-08T14:08:45Z</time>
      </trkpt>
      <trkpt lat="49.87612" lon="4.76992">
        <ele>359</ele>
        <time>2024-05-08T14:08:46Z</time>
      </trkpt>
      <trkpt lat="49.87612" lon="4.76993">
        <ele>358</ele>
        <time>2024-05-08T14:08:47Z</time>
      </trkpt>
      <trkpt lat="49.87612" lon="4.76994">
        <ele>358</ele>
        <time>2024-05-08T14:08:48Z</time>
      </trkpt>
      <trkpt lat="49.87613" lon="4.76995">
        <ele>358</ele>
        <time>2024-05-08T14:08:49Z</time>
      </trkpt>
      <trkpt lat="49.87613" lon="4.76996">
        <ele>358</ele>
        <time>2024-05-08T14:08:50Z</time>
      </trkpt>
      <trkpt lat="49.87613" lon="4.76996">
        <ele>358</ele>
        <time>2024-05-08T14:08:51Z</time>
      </trkpt>
      <trkpt lat="49.87613" lon="4.76997">
        <ele>358</ele>
        <time>2024-05-08T14:08:52Z</time>
      </trkpt>
      <trkpt lat="49.87613" lon="4.76998">
        <ele>358</ele>
        <time>2024-05-08T14:08:53Z</time>
      </trkpt>
      <trkpt lat="49.87613" lon="4.76999">
        <ele>358</ele>
        <time>2024-05-08T14:08:54Z</time>
      </trkpt>
      <trkpt lat="49.87614" lon="4.77">
        <ele>358</ele>
        <time>2024-05-08T14:08:55Z</time>
      </trkpt>
      <trkpt lat="49.87614" lon="4.77002">
        <ele>358</ele>
        <time>2024-05-08T14:08:56Z</time>
      </trkpt>
      <trkpt lat="49.87614" lon="4.77004">
        <ele>357</ele>
        <time>2024-05-08T14:08:57Z</time>
      </trkpt>
      <trkpt lat="49.87614" lon="4.77006">
        <ele>357</ele>
        <time>2024-05-08T14:08:58Z</time>
      </trkpt>
      <trkpt lat="49.87615" lon="4.77008">
        <ele>357</ele>
        <time>2024-05-08T14:08:59Z</time>
      </trkpt>
      <trkpt lat="49.87615" lon="4.7701">
        <ele>357</ele>
        <time>2024-05-08T14:09:00Z</time>
      </trkpt>
      <trkpt lat="49.87616" lon="4.77011">
        <ele>357</ele>
        <time>2024-05-08T14:09:01Z</time>
      </trkpt>
      <trkpt lat="49.87617" lon="4.77013">
        <ele>356</ele>
        <time>2024-05-08T14:09:02Z</time>
      </trkpt>
      <trkpt lat="49.87617" lon="4.77014">
        <ele>356</ele>
        <time>2024-05-08T14:09:03Z</time>
      </trkpt>
      <trkpt lat="49.87618" lon="4.77015">
        <ele>356</ele>
        <time>2024-05-08T14:09:04Z</time>
      </trkpt>
      <trkpt lat="49.87619" lon="4.77016">
        <ele>356</ele>
        <time>2024-05-08T14:09:05Z</time>
      </trkpt>
      <trkpt lat="49.87619" lon="4.77017">
        <ele>356</ele>
        <time>2024-05-08T14:09:06Z</time>
      </trkpt>
      <trkpt lat="49.8762" lon="4.77018">
        <ele>355</ele>
        <time>2024-05-08T14:09:07Z</time>
      </trkpt>
      <trkpt lat="49.8762" lon="4.77019">
        <ele>355</ele>
        <time>2024-05-08T14:09:08Z</time>
      </trkpt>
      <trkpt lat="49.8762" lon="4.77021">
        <ele>355</ele>
        <time>2024-05-08T14:09:09Z</time>
      </trkpt>
      <trkpt lat="49.87621" lon="4.77022">
        <ele>355</ele>
        <time>2024-05-08T14:09:10Z</time>
      </trkpt>
      <trkpt lat="49.87621" lon="4.77023">
        <ele>355</ele>
        <time>2024-05-08T14:09:11Z</time>
      </trkpt>
      <trkpt lat="49.87621" lon="4.77025">
        <ele>354</ele>
        <time>2024-05-08T14:09:12Z</time>
      </trkpt>
      <trkpt lat="49.87622" lon="4.77026">
        <ele>354</ele>
        <time>2024-05-08T14:09:13Z</time>
      </trkpt>
      <trkpt lat="49.87623" lon="4.77028">
        <ele>354</ele>
        <time>2024-05-08T14:09:14Z</time>
      </trkpt>
      <trkpt lat="49.87624" lon="4.77029">
        <ele>354</ele>
        <time>2024-05-08T14:09:15Z</time>
      </trkpt>
      <trkpt lat="49.87625" lon="4.7703">
        <ele>354</ele>
        <time>2024-05-08T14:09:16Z</time>
      </trkpt>
      <trkpt lat="49.87625" lon="4.77031">
        <ele>354</ele>
        <time>2024-05-08T14:09:17Z</time>
      </trkpt>
      <trkpt lat="49.87626" lon="4.77033">
        <ele>354</ele>
        <time>2024-05-08T14:09:18Z</time>
      </trkpt>
      <trkpt lat="49.87626" lon="4.77034">
        <ele>354</ele>
        <time>2024-05-08T14:09:19Z</time>
      </trkpt>
      <trkpt lat="49.87627" lon="4.77035">
        <ele>354</ele>
        <time>2024-05-08T14:09:20Z</time>
      </trkpt>
      <trkpt lat="49.87627" lon="4.77037">
        <ele>354</ele>
        <time>2024-05-08T14:09:21Z</time>
      </trkpt>
      <trkpt lat="49.87627" lon="4.77038">
        <ele>353</ele>
        <time>2024-05-08T14:09:22Z</time>
      </trkpt>
      <trkpt lat="49.87627" lon="4.7704">
        <ele>353</ele>
        <time>2024-05-08T14:09:23Z</time>
      </trkpt>
      <trkpt lat="49.87627" lon="4.77042">
        <ele>353</ele>
        <time>2024-05-08T14:09:24Z</time>
      </trkpt>
      <trkpt lat="49.87627" lon="4.77044">
        <ele>353</ele>
        <time>2024-05-08T14:09:25Z</time>
      </trkpt>
      <trkpt lat="49.87627" lon="4.77045">
        <ele>353</ele>
        <time>2024-05-08T14:09:26Z</time>
      </trkpt>
      <trkpt lat="49.87627" lon="4.77047">
        <ele>353</ele>
        <time>2024-05-08T14:09:27Z</time>
      </trkpt>
      <trkpt lat="49.87627" lon="4.77049">
        <ele>353</ele>
        <time>2024-05-08T14:09:28Z</time>
      </trkpt>
      <trkpt lat="49.87628" lon="4.77051">
        <ele>353</ele>
        <time>2024-05-08T14:09:29Z</time>
      </trkpt>
      <trkpt lat="49.87629" lon="4.77052">
        <ele>353</ele>
        <time>2024-05-08T14:09:30Z</time>
      </trkpt>
      <trkpt lat="49.87629" lon="4.77054">
        <ele>353</ele>
        <time>2024-05-08T14:09:31Z</time>
      </trkpt>
      <trkpt lat="49.8763" lon="4.77056">
        <ele>352</ele>
        <time>2024-05-08T14:09:32Z</time>
      </trkpt>
      <trkpt lat="49.8763" lon="4.77057">
        <ele>352</ele>
        <time>2024-05-08T14:09:33Z</time>
      </trkpt>
      <trkpt lat="49.8763" lon="4.77058">
        <ele>352</ele>
        <time>2024-05-08T14:09:34Z</time>
      </trkpt>
      <trkpt lat="49.8763" lon="4.7706">
        <ele>352</ele>
        <time>2024-05-08T14:09:35Z</time>
      </trkpt>
      <trkpt lat="49.8763" lon="4.77061">
        <ele>352</ele>
        <time>2024-05-08T14:09:36Z</time>
      </trkpt>
      <trkpt lat="49.8763" lon="4.77063">
        <ele>352</ele>
        <time>2024-05-08T14:09:37Z</time>
      </trkpt>
      <trkpt lat="49.8763" lon="4.77065">
        <ele>352</ele>
        <time>2024-05-08T14:09:38Z</time>
      </trkpt>
      <trkpt lat="49.8763" lon="4.77067">
        <ele>352</ele>
        <time>2024-05-08T14:09:39Z</time>
      </trkpt>
      <trkpt lat="49.8763" lon="4.77069">
        <ele>352</ele>
        <time>2024-05-08T14:09:40Z</time>
      </trkpt>
      <trkpt lat="49.87629" lon="4.7707">
        <ele>352</ele>
        <time>2024-05-08T14:09:41Z</time>
      </trkpt>
      <trkpt lat="49.87629" lon="4.77072">
        <ele>352</ele>
        <time>2024-05-08T14:09:42Z</time>
      </trkpt>
      <trkpt lat="49.87629" lon="4.77074">
        <ele>352</ele>
        <time>2024-05-08T14:09:43Z</time>
      </trkpt>
      <trkpt lat="49.87629" lon="4.77076">
        <ele>352</ele>
        <time>2024-05-08T14:09:44Z</time>
      </trkpt>
      <trkpt lat="49.8763" lon="4.77078">
        <ele>352</ele>
        <time>2024-05-08T14:09:45Z</time>
      </trkpt>
      <trkpt lat="49.8763" lon="4.77081">
        <ele>352</ele>
        <time>2024-05-08T14:09:46Z</time>
      </trkpt>
      <trkpt lat="49.8763" lon="4.77083">
        <ele>352</ele>
        <time>2024-05-08T14:09:47Z</time>
      </trkpt>
      <trkpt lat="49.8763" lon="4.77086">
        <ele>352</ele>
        <time>2024-05-08T14:09:48Z</time>
      </trkpt>
      <trkpt lat="49.8763" lon="4.77088">
        <ele>352</ele>
        <time>2024-05-08T14:09:49Z</time>
      </trkpt>
      <trkpt lat="49.8763" lon="4.7709">
        <ele>352</ele>
        <time>2024-05-08T14:09:50Z</time>
      </trkpt>
      <trkpt lat="49.87629" lon="4.77092">
        <ele>352</ele>
        <time>2024-05-08T14:09:51Z</time>
      </trkpt>
      <trkpt lat="49.87629" lon="4.77095">
        <ele>352</ele>
        <time>2024-05-08T14:09:52Z</time>
      </trkpt>
      <trkpt lat="49.87629" lon="4.77096">
        <ele>352</ele>
        <time>2024-05-08T14:09:53Z</time>
      </trkpt>
      <trkpt lat="49.87629" lon="4.77098">
        <ele>352</ele>
        <time>2024-05-08T14:09:54Z</time>
      </trkpt>
      <trkpt lat="49.87629" lon="4.771">
        <ele>352</ele>
        <time>2024-05-08T14:09:55Z</time>
      </trkpt>
      <trkpt lat="49.87629" lon="4.77101">
        <ele>352</ele>
        <time>2024-05-08T14:09:56Z</time>
      </trkpt>
      <trkpt lat="49.87629" lon="4.77103">
        <ele>352</ele>
        <time>2024-05-08T14:09:57Z</time>
      </trkpt>
      <trkpt lat="49.8763" lon="4.77104">
        <ele>352</ele>
        <time>2024-05-08T14:09:58Z</time>
      </trkpt>
      <trkpt lat="49.87631" lon="4.77105">
        <ele>352</ele>
        <time>2024-05-08T14:09:59Z</time>
      </trkpt>
      <trkpt lat="49.87632" lon="4.77106">
        <ele>352</ele>
        <time>2024-05-08T14:10:00Z</time>
      </trkpt>
      <trkpt lat="49.87633" lon="4.77107">
        <ele>352</ele>
        <time>2024-05-08T14:10:01Z</time>
      </trkpt>
      <trkpt lat="49.87634" lon="4.77107">
        <ele>352</ele>
        <time>2024-05-08T14:10:02Z</time>
      </trkpt>
      <trkpt lat="49.87635" lon="4.77108">
        <ele>352</ele>
        <time>2024-05-08T14:10:03Z</time>
      </trkpt>
      <trkpt lat="49.87636" lon="4.77109">
        <ele>352</ele>
        <time>2024-05-08T14:10:04Z</time>
      </trkpt>
      <trkpt lat="49.87637" lon="4.7711">
        <ele>352</ele>
        <time>2024-05-08T14:10:05Z</time>
      </trkpt>
      <trkpt lat="49.87638" lon="4.7711">
        <ele>352</ele>
        <time>2024-05-08T14:10:06Z</time>
      </trkpt>
      <trkpt lat="49.8764" lon="4.77111">
        <ele>352</ele>
        <time>2024-05-08T14:10:07Z</time>
      </trkpt>
      <trkpt lat="49.87641" lon="4.77112">
        <ele>352</ele>
        <time>2024-05-08T14:10:08Z</time>
      </trkpt>
      <trkpt lat="49.87641" lon="4.77113">
        <ele>352</ele>
        <time>2024-05-08T14:10:09Z</time>
      </trkpt>
      <trkpt lat="49.87642" lon="4.77114">
        <ele>352</ele>
        <time>2024-05-08T14:10:10Z</time>
      </trkpt>
      <trkpt lat="49.87643" lon="4.77115">
        <ele>352</ele>
        <time>2024-05-08T14:10:11Z</time>
      </trkpt>
      <trkpt lat="49.87644" lon="4.77116">
        <ele>352</ele>
        <time>2024-05-08T14:10:12Z</time>
      </trkpt>
      <trkpt lat="49.87644" lon="4.77116">
        <ele>352</ele>
        <time>2024-05-08T14:10:13Z</time>
      </trkpt>
      <trkpt lat="49.87645" lon="4.77117">
        <ele>352</ele>
        <time>2024-05-08T14:10:14Z</time>
      </trkpt>
      <trkpt lat="49.87646" lon="4.77118">
        <ele>352</ele>
        <time>2024-05-08T14:10:15Z</time>
      </trkpt>
      <trkpt lat="49.87647" lon="4.77119">
        <ele>353</ele>
        <time>2024-05-08T14:10:16Z</time>
      </trkpt>
      <trkpt lat="49.87648" lon="4.7712">
        <ele>353</ele>
        <time>2024-05-08T14:10:17Z</time>
      </trkpt>
      <trkpt lat="49.87649" lon="4.77121">
        <ele>353</ele>
        <time>2024-05-08T14:10:18Z</time>
      </trkpt>
      <trkpt lat="49.8765" lon="4.77123">
        <ele>353</ele>
        <time>2024-05-08T14:10:19Z</time>
      </trkpt>
      <trkpt lat="49.8765" lon="4.77124">
        <ele>353</ele>
        <time>2024-05-08T14:10:20Z</time>
      </trkpt>
      <trkpt lat="49.87651" lon="4.77126">
        <ele>353</ele>
        <time>2024-05-08T14:10:21Z</time>
      </trkpt>
      <trkpt lat="49.87651" lon="4.77127">
        <ele>353</ele>
        <time>2024-05-08T14:10:22Z</time>
      </trkpt>
      <trkpt lat="49.87652" lon="4.77129">
        <ele>353</ele>
        <time>2024-05-08T14:10:23Z</time>
      </trkpt>
      <trkpt lat="49.87652" lon="4.77131">
        <ele>353</ele>
        <time>2024-05-08T14:10:24Z</time>
      </trkpt>
      <trkpt lat="49.87652" lon="4.77133">
        <ele>353</ele>
        <time>2024-05-08T14:10:25Z</time>
      </trkpt>
      <trkpt lat="49.87652" lon="4.77135">
        <ele>353</ele>
        <time>2024-05-08T14:10:26Z</time>
      </trkpt>
      <trkpt lat="49.87653" lon="4.77137">
        <ele>353</ele>
        <time>2024-05-08T14:10:27Z</time>
      </trkpt>
      <trkpt lat="49.87653" lon="4.77139">
        <ele>353</ele>
        <time>2024-05-08T14:10:28Z</time>
      </trkpt>
      <trkpt lat="49.87653" lon="4.77141">
        <ele>353</ele>
        <time>2024-05-08T14:10:29Z</time>
      </trkpt>
      <trkpt lat="49.87653" lon="4.77143">
        <ele>353</ele>
        <time>2024-05-08T14:10:30Z</time>
      </trkpt>
      <trkpt lat="49.87653" lon="4.77145">
        <ele>354</ele>
        <time>2024-05-08T14:10:31Z</time>
      </trkpt>
      <trkpt lat="49.87653" lon="4.77147">
        <ele>354</ele>
        <time>2024-05-08T14:10:32Z</time>
      </trkpt>
      <trkpt lat="49.87653" lon="4.7715">
        <ele>354</ele>
        <time>2024-05-08T14:10:33Z</time>
      </trkpt>
      <trkpt lat="49.87653" lon="4.77152">
        <ele>354</ele>
        <time>2024-05-08T14:10:34Z</time>
      </trkpt>
      <trkpt lat="49.87653" lon="4.77154">
        <ele>354</ele>
        <time>2024-05-08T14:10:35Z</time>
      </trkpt>
      <trkpt lat="49.87653" lon="4.77155">
        <ele>355</ele>
        <time>2024-05-08T14:10:36Z</time>
      </trkpt>
      <trkpt lat="49.87653" lon="4.77157">
        <ele>355</ele>
        <time>2024-05-08T14:10:37Z</time>
      </trkpt>
      <trkpt lat="49.87653" lon="4.77158">
        <ele>355</ele>
        <time>2024-05-08T14:10:38Z</time>
      </trkpt>
      <trkpt lat="49.87653" lon="4.7716">
        <ele>355</ele>
        <time>2024-05-08T14:10:39Z</time>
      </trkpt>
      <trkpt lat="49.87653" lon="4.77161">
        <ele>355</ele>
        <time>2024-05-08T14:10:40Z</time>
      </trkpt>
      <trkpt lat="49.87652" lon="4.77162">
        <ele>355</ele>
        <time>2024-05-08T14:10:41Z</time>
      </trkpt>
      <trkpt lat="49.87652" lon="4.77164">
        <ele>355</ele>
        <time>2024-05-08T14:10:42Z</time>
      </trkpt>
      <trkpt lat="49.87652" lon="4.77165">
        <ele>355</ele>
        <time>2024-05-08T14:10:43Z</time>
      </trkpt>
      <trkpt lat="49.87651" lon="4.77166">
        <ele>355</ele>
        <time>2024-05-08T14:10:44Z</time>
      </trkpt>
      <trkpt lat="49.87651" lon="4.77168">
        <ele>355</ele>
        <time>2024-05-08T14:10:45Z</time>
      </trkpt>
      <trkpt lat="49.8765" lon="4.77169">
        <ele>356</ele>
        <time>2024-05-08T14:10:46Z</time>
      </trkpt>
      <trkpt lat="49.8765" lon="4.77171">
        <ele>356</ele>
        <time>2024-05-08T14:10:47Z</time>
      </trkpt>
      <trkpt lat="49.87649" lon="4.77173">
        <ele>356</ele>
        <time>2024-05-08T14:10:48Z</time>
      </trkpt>
      <trkpt lat="49.87649" lon="4.77174">
        <ele>356</ele>
        <time>2024-05-08T14:10:49Z</time>
      </trkpt>
      <trkpt lat="49.87649" lon="4.77176">
        <ele>356</ele>
        <time>2024-05-08T14:10:50Z</time>
      </trkpt>
      <trkpt lat="49.87649" lon="4.77178">
        <ele>356</ele>
        <time>2024-05-08T14:10:51Z</time>
      </trkpt>
      <trkpt lat="49.87649" lon="4.77179">
        <ele>356</ele>
        <time>2024-05-08T14:10:52Z</time>
      </trkpt>
      <trkpt lat="49.87648" lon="4.77181">
        <ele>356</ele>
        <time>2024-05-08T14:10:53Z</time>
      </trkpt>
      <trkpt lat="49.87648" lon="4.77182">
        <ele>356</ele>
        <time>2024-05-08T14:10:54Z</time>
      </trkpt>
      <trkpt lat="49.87648" lon="4.77184">
        <ele>356</ele>
        <time>2024-05-08T14:10:55Z</time>
      </trkpt>
      <trkpt lat="49.87648" lon="4.77185">
        <ele>357</ele>
        <time>2024-05-08T14:10:56Z</time>
      </trkpt>
      <trkpt lat="49.87648" lon="4.77188">
        <ele>357</ele>
        <time>2024-05-08T14:10:57Z</time>
      </trkpt>
      <trkpt lat="49.87647" lon="4.7719">
        <ele>357</ele>
        <time>2024-05-08T14:10:58Z</time>
      </trkpt>
      <trkpt lat="49.87647" lon="4.77192">
        <ele>357</ele>
        <time>2024-05-08T14:10:59Z</time>
      </trkpt>
      <trkpt lat="49.87647" lon="4.77194">
        <ele>357</ele>
        <time>2024-05-08T14:11:00Z</time>
      </trkpt>
      <trkpt lat="49.87646" lon="4.77196">
        <ele>357</ele>
        <time>2024-05-08T14:11:01Z</time>
      </trkpt>
      <trkpt lat="49.87646" lon="4.77198">
        <ele>357</ele>
        <time>2024-05-08T14:11:02Z</time>
      </trkpt>
      <trkpt lat="49.87645" lon="4.772">
        <ele>357</ele>
        <time>2024-05-08T14:11:03Z</time>
      </trkpt>
      <trkpt lat="49.87645" lon="4.77203">
        <ele>357</ele>
        <time>2024-05-08T14:11:04Z</time>
      </trkpt>
      <trkpt lat="49.87644" lon="4.77204">
        <ele>357</ele>
        <time>2024-05-08T14:11:05Z</time>
      </trkpt>
      <trkpt lat="49.87644" lon="4.77206">
        <ele>358</ele>
        <time>2024-05-08T14:11:06Z</time>
      </trkpt>
      <trkpt lat="49.87644" lon="4.77207">
        <ele>358</ele>
        <time>2024-05-08T14:11:07Z</time>
      </trkpt>
      <trkpt lat="49.87643" lon="4.77209">
        <ele>358</ele>
        <time>2024-05-08T14:11:08Z</time>
      </trkpt>
      <trkpt lat="49.87643" lon="4.7721">
        <ele>358</ele>
        <time>2024-05-08T14:11:09Z</time>
      </trkpt>
      <trkpt lat="49.87643" lon="4.77211">
        <ele>358</ele>
        <time>2024-05-08T14:11:10Z</time>
      </trkpt>
      <trkpt lat="49.87642" lon="4.77212">
        <ele>358</ele>
        <time>2024-05-08T14:11:11Z</time>
      </trkpt>
      <trkpt lat="49.87642" lon="4.77214">
        <ele>358</ele>
        <time>2024-05-08T14:11:12Z</time>
      </trkpt>
      <trkpt lat="49.87642" lon="4.77216">
        <ele>358</ele>
        <time>2024-05-08T14:11:13Z</time>
      </trkpt>
      <trkpt lat="49.87642" lon="4.77217">
        <ele>358</ele>
        <time>2024-05-08T14:11:14Z</time>
      </trkpt>
      <trkpt lat="49.87642" lon="4.77219">
        <ele>358</ele>
        <time>2024-05-08T14:11:15Z</time>
      </trkpt>
      <trkpt lat="49.87642" lon="4.77221">
        <ele>358</ele>
        <time>2024-05-08T14:11:16Z</time>
      </trkpt>
      <trkpt lat="49.87642" lon="4.77223">
        <ele>358</ele>
        <time>2024-05-08T14:11:17Z</time>
      </trkpt>
      <trkpt lat="49.87641" lon="4.77224">
        <ele>358</ele>
        <time>2024-05-08T14:11:18Z</time>
      </trkpt>
      <trkpt lat="49.87641" lon="4.77226">
        <ele>358</ele>
        <time>2024-05-08T14:11:19Z</time>
      </trkpt>
      <trkpt lat="49.8764" lon="4.77227">
        <ele>358</ele>
        <time>2024-05-08T14:11:20Z</time>
      </trkpt>
      <trkpt lat="49.8764" lon="4.77229">
        <ele>359</ele>
        <time>2024-05-08T14:11:21Z</time>
      </trkpt>
      <trkpt lat="49.87639" lon="4.7723">
        <ele>358</ele>
        <time>2024-05-08T14:11:22Z</time>
      </trkpt>
      <trkpt lat="49.87639" lon="4.77231">
        <ele>358</ele>
        <time>2024-05-08T14:11:23Z</time>
      </trkpt>
      <trkpt lat="49.87638" lon="4.77231">
        <ele>358</ele>
        <time>2024-05-08T14:11:24Z</time>
      </trkpt>
      <trkpt lat="49.87637" lon="4.77232">
        <ele>358</ele>
        <time>2024-05-08T14:11:25Z</time>
      </trkpt>
      <trkpt lat="49.87637" lon="4.77233">
        <ele>358</ele>
        <time>2024-05-08T14:11:26Z</time>
      </trkpt>
      <trkpt lat="49.87637" lon="4.77235">
        <ele>358</ele>
        <time>2024-05-08T14:11:27Z</time>
      </trkpt>
      <trkpt lat="49.87636" lon="4.77236">
        <ele>358</ele>
        <time>2024-05-08T14:11:28Z</time>
      </trkpt>
      <trkpt lat="49.87636" lon="4.77238">
        <ele>358</ele>
        <time>2024-05-08T14:11:29Z</time>
      </trkpt>
      <trkpt lat="49.87636" lon="4.7724">
        <ele>358</ele>
        <time>2024-05-08T14:11:30Z</time>
      </trkpt>
      <trkpt lat="49.87636" lon="4.77242">
        <ele>358</ele>
        <time>2024-05-08T14:11:31Z</time>
      </trkpt>
      <trkpt lat="49.87636" lon="4.77244">
        <ele>358</ele>
        <time>2024-05-08T14:11:32Z</time>
      </trkpt>
      <trkpt lat="49.87635" lon="4.77246">
        <ele>358</ele>
        <time>2024-05-08T14:11:33Z</time>
      </trkpt>
      <trkpt lat="49.87635" lon="4.77247">
        <ele>358</ele>
        <time>2024-05-08T14:11:34Z</time>
      </trkpt>
      <trkpt lat="49.87634" lon="4.77249">
        <ele>358</ele>
        <time>2024-05-08T14:11:35Z</time>
      </trkpt>
      <trkpt lat="49.87634" lon="4.77251">
        <ele>358</ele>
        <time>2024-05-08T14:11:36Z</time>
      </trkpt>
      <trkpt lat="49.87634" lon="4.77252">
        <ele>358</ele>
        <time>2024-05-08T14:11:37Z</time>
      </trkpt>
      <trkpt lat="49.87633" lon="4.77254">
        <ele>358</ele>
        <time>2024-05-08T14:11:38Z</time>
      </trkpt>
      <trkpt lat="49.87633" lon="4.77256">
        <ele>358</ele>
        <time>2024-05-08T14:11:39Z</time>
      </trkpt>
      <trkpt lat="49.87633" lon="4.77257">
        <ele>358</ele>
        <time>2024-05-08T14:11:40Z</time>
      </trkpt>
      <trkpt lat="49.87633" lon="4.77259">
        <ele>358</ele>
        <time>2024-05-08T14:11:41Z</time>
      </trkpt>
      <trkpt lat="49.87632" lon="4.77261">
        <ele>358</ele>
        <time>2024-05-08T14:11:42Z</time>
      </trkpt>
      <trkpt lat="49.87632" lon="4.77263">
        <ele>358</ele>
        <time>2024-05-08T14:11:43Z</time>
      </trkpt>
      <trkpt lat="49.87632" lon="4.77264">
        <ele>358</ele>
        <time>2024-05-08T14:11:44Z</time>
      </trkpt>
      <trkpt lat="49.87632" lon="4.77266">
        <ele>358</ele>
        <time>2024-05-08T14:11:45Z</time>
      </trkpt>
      <trkpt lat="49.87632" lon="4.77268">
        <ele>358</ele>
        <time>2024-05-08T14:11:46Z</time>
      </trkpt>
      <trkpt lat="49.87631" lon="4.7727">
        <ele>358</ele>
        <time>2024-05-08T14:11:47Z</time>
      </trkpt>
      <trkpt lat="49.87631" lon="4.77272">
        <ele>358</ele>
        <time>2024-05-08T14:11:48Z</time>
      </trkpt>
      <trkpt lat="49.87631" lon="4.77273">
        <ele>358</ele>
        <time>2024-05-08T14:11:49Z</time>
      </trkpt>
      <trkpt lat="49.8763" lon="4.77275">
        <ele>358</ele>
        <time>2024-05-08T14:11:50Z</time>
      </trkpt>
      <trkpt lat="49.87629" lon="4.77277">
        <ele>358</ele>
        <time>2024-05-08T14:11:51Z</time>
      </trkpt>
      <trkpt lat="49.87629" lon="4.77279">
        <ele>358</ele>
        <time>2024-05-08T14:11:52Z</time>
      </trkpt>
      <trkpt lat="49.87628" lon="4.77282">
        <ele>358</ele>
        <time>2024-05-08T14:11:53Z</time>
      </trkpt>
      <trkpt lat="49.87627" lon="4.77284">
        <ele>358</ele>
        <time>2024-05-08T14:11:54Z</time>
      </trkpt>
      <trkpt lat="49.87626" lon="4.77286">
        <ele>358</ele>
        <time>2024-05-08T14:11:55Z</time>
      </trkpt>
      <trkpt lat="49.87626" lon="4.77287">
        <ele>358</ele>
        <time>2024-05-08T14:11:56Z</time>
      </trkpt>
      <trkpt lat="49.87625" lon="4.77289">
        <ele>357</ele>
        <time>2024-05-08T14:11:57Z</time>
      </trkpt>
      <trkpt lat="49.87625" lon="4.7729">
        <ele>357</ele>
        <time>2024-05-08T14:11:58Z</time>
      </trkpt>
      <trkpt lat="49.87625" lon="4.77292">
        <ele>357</ele>
        <time>2024-05-08T14:11:59Z</time>
      </trkpt>
      <trkpt lat="49.87625" lon="4.77293">
        <ele>357</ele>
        <time>2024-05-08T14:12:00Z</time>
      </trkpt>
      <trkpt lat="49.87625" lon="4.77294">
        <ele>357</ele>
        <time>2024-05-08T14:12:01Z</time>
      </trkpt>
      <trkpt lat="49.87625" lon="4.77296">
        <ele>357</ele>
        <time>2024-05-08T14:12:02Z</time>
      </trkpt>
      <trkpt lat="49.87625" lon="4.77298">
        <ele>357</ele>
        <time>2024-05-08T14:12:03Z</time>
      </trkpt>
      <trkpt lat="49.87624" lon="4.773">
        <ele>357</ele>
        <time>2024-05-08T14:12:04Z</time>
      </trkpt>
      <trkpt lat="49.87624" lon="4.77302">
        <ele>357</ele>
        <time>2024-05-08T14:12:05Z</time>
      </trkpt>
      <trkpt lat="49.87624" lon="4.77304">
        <ele>357</ele>
        <time>2024-05-08T14:12:06Z</time>
      </trkpt>
      <trkpt lat="49.87624" lon="4.77305">
        <ele>357</ele>
        <time>2024-05-08T14:12:07Z</time>
      </trkpt>
      <trkpt lat="49.87624" lon="4.77307">
        <ele>357</ele>
        <time>2024-05-08T14:12:08Z</time>
      </trkpt>
      <trkpt lat="49.87623" lon="4.77309">
        <ele>357</ele>
        <time>2024-05-08T14:12:09Z</time>
      </trkpt>
      <trkpt lat="49.87623" lon="4.77311">
        <ele>357</ele>
        <time>2024-05-08T14:12:10Z</time>
      </trkpt>
      <trkpt lat="49.87623" lon="4.77312">
        <ele>357</ele>
        <time>2024-05-08T14:12:11Z</time>
      </trkpt>
      <trkpt lat="49.87622" lon="4.77314">
        <ele>356</ele>
        <time>2024-05-08T14:12:12Z</time>
      </trkpt>
      <trkpt lat="49.87622" lon="4.77316">
        <ele>356</ele>
        <time>2024-05-08T14:12:13Z</time>
      </trkpt>
      <trkpt lat="49.87622" lon="4.77318">
        <ele>356</ele>
        <time>2024-05-08T14:12:14Z</time>
      </trkpt>
      <trkpt lat="49.87622" lon="4.77319">
        <ele>356</ele>
        <time>2024-05-08T14:12:15Z</time>
      </trkpt>
      <trkpt lat="49.87621" lon="4.77323">
        <ele>356</ele>
        <time>2024-05-08T14:12:21Z</time>
      </trkpt>
      <trkpt lat="49.87621" lon="4.77324">
        <ele>356</ele>
        <time>2024-05-08T14:12:22Z</time>
      </trkpt>
      <trkpt lat="49.87622" lon="4.77324">
        <ele>356</ele>
        <time>2024-05-08T14:12:23Z</time>
      </trkpt>
      <trkpt lat="49.87622" lon="4.77325">
        <ele>356</ele>
        <time>2024-05-08T14:12:24Z</time>
      </trkpt>
      <trkpt lat="49.87623" lon="4.77325">
        <ele>356</ele>
        <time>2024-05-08T14:12:25Z</time>
      </trkpt>
      <trkpt lat="49.87623" lon="4.77325">
        <ele>356</ele>
        <time>2024-05-08T14:12:26Z</time>
      </trkpt>
      <trkpt lat="49.87624" lon="4.77326">
        <ele>356</ele>
        <time>2024-05-08T14:12:27Z</time>
      </trkpt>
      <trkpt lat="49.87625" lon="4.77326">
        <ele>356</ele>
        <time>2024-05-08T14:12:28Z</time>
      </trkpt>
      <trkpt lat="49.87626" lon="4.77326">
        <ele>356</ele>
        <time>2024-05-08T14:12:29Z</time>
      </trkpt>
      <trkpt lat="49.87627" lon="4.77326">
        <ele>356</ele>
        <time>2024-05-08T14:12:30Z</time>
      </trkpt>
      <trkpt lat="49.87627" lon="4.77326">
        <ele>357</ele>
        <time>2024-05-08T14:12:31Z</time>
      </trkpt>
      <trkpt lat="49.87628" lon="4.77326">
        <ele>357</ele>
        <time>2024-05-08T14:12:32Z</time>
      </trkpt>
      <trkpt lat="49.87629" lon="4.77326">
        <ele>357</ele>
        <time>2024-05-08T14:12:33Z</time>
      </trkpt>
      <trkpt lat="49.8763" lon="4.77326">
        <ele>357</ele>
        <time>2024-05-08T14:12:34Z</time>
      </trkpt>
      <trkpt lat="49.87631" lon="4.77326">
        <ele>357</ele>
        <time>2024-05-08T14:12:35Z</time>
      </trkpt>
      <trkpt lat="49.87632" lon="4.77326">
        <ele>357</ele>
        <time>2024-05-08T14:12:36Z</time>
      </trkpt>
      <trkpt lat="49.87633" lon="4.77326">
        <ele>357</ele>
        <time>2024-05-08T14:12:37Z</time>
      </trkpt>
      <trkpt lat="49.87633" lon="4.77326">
        <ele>357</ele>
        <time>2024-05-08T14:12:38Z</time>
      </trkpt>
      <trkpt lat="49.87634" lon="4.77326">
        <ele>357</ele>
        <time>2024-05-08T14:12:39Z</time>
      </trkpt>
      <trkpt lat="49.87635" lon="4.77326">
        <ele>357</ele>
        <time>2024-05-08T14:12:40Z</time>
      </trkpt>
      <trkpt lat="49.87635" lon="4.77327">
        <ele>357</ele>
        <time>2024-05-08T14:12:41Z</time>
      </trkpt>
      <trkpt lat="49.87636" lon="4.77326">
        <ele>357</ele>
        <time>2024-05-08T14:12:42Z</time>
      </trkpt>
      <trkpt lat="49.87637" lon="4.77326">
        <ele>357</ele>
        <time>2024-05-08T14:12:43Z</time>
      </trkpt>
      <trkpt lat="49.87638" lon="4.77326">
        <ele>357</ele>
        <time>2024-05-08T14:12:44Z</time>
      </trkpt>
      <trkpt lat="49.8764" lon="4.77326">
        <ele>357</ele>
        <time>2024-05-08T14:12:45Z</time>
      </trkpt>
      <trkpt lat="49.87641" lon="4.77326">
        <ele>358</ele>
        <time>2024-05-08T14:12:46Z</time>
      </trkpt>
      <trkpt lat="49.87642" lon="4.77326">
        <ele>358</ele>
        <time>2024-05-08T14:12:47Z</time>
      </trkpt>
      <trkpt lat="49.87643" lon="4.77326">
        <ele>358</ele>
        <time>2024-05-08T14:12:48Z</time>
      </trkpt>
      <trkpt lat="49.87645" lon="4.77326">
        <ele>358</ele>
        <time>2024-05-08T14:12:49Z</time>
      </trkpt>
      <trkpt lat="49.87646" lon="4.77327">
        <ele>358</ele>
        <time>2024-05-08T14:12:50Z</time>
      </trkpt>
      <trkpt lat="49.87647" lon="4.77327">
        <ele>358</ele>
        <time>2024-05-08T14:12:51Z</time>
      </trkpt>
      <trkpt lat="49.87648" lon="4.77327">
        <ele>358</ele>
        <time>2024-05-08T14:12:52Z</time>
      </trkpt>
      <trkpt lat="49.87648" lon="4.77328">
        <ele>358</ele>
        <time>2024-05-08T14:12:53Z</time>
      </trkpt>
      <trkpt lat="49.87649" lon="4.77328">
        <ele>358</ele>
        <time>2024-05-08T14:12:54Z</time>
      </trkpt>
      <trkpt lat="49.8765" lon="4.77328">
        <ele>358</ele>
        <time>2024-05-08T14:12:55Z</time>
      </trkpt>
      <trkpt lat="49.87651" lon="4.77328">
        <ele>358</ele>
        <time>2024-05-08T14:12:56Z</time>
      </trkpt>
      <trkpt lat="49.87652" lon="4.77328">
        <ele>358</ele>
        <time>2024-05-08T14:12:57Z</time>
      </trkpt>
      <trkpt lat="49.87653" lon="4.77328">
        <ele>358</ele>
        <time>2024-05-08T14:12:58Z</time>
      </trkpt>
      <trkpt lat="49.87654" lon="4.77328">
        <ele>358</ele>
        <time>2024-05-08T14:12:59Z</time>
      </trkpt>
      <trkpt lat="49.87656" lon="4.77328">
        <ele>358</ele>
        <time>2024-05-08T14:13:00Z</time>
      </trkpt>
      <trkpt lat="49.87657" lon="4.77328">
        <ele>358</ele>
        <time>2024-05-08T14:13:01Z</time>
      </trkpt>
      <trkpt lat="49.87658" lon="4.77329">
        <ele>358</ele>
        <time>2024-05-08T14:13:02Z</time>
      </trkpt>
      <trkpt lat="49.87659" lon="4.7733">
        <ele>358</ele>
        <time>2024-05-08T14:13:03Z</time>
      </trkpt>
      <trkpt lat="49.8766" lon="4.77331">
        <ele>358</ele>
        <time>2024-05-08T14:13:04Z</time>
      </trkpt>
      <trkpt lat="49.8766" lon="4.77332">
        <ele>358</ele>
        <time>2024-05-08T14:13:05Z</time>
      </trkpt>
      <trkpt lat="49.87661" lon="4.77334">
        <ele>358</ele>
        <time>2024-05-08T14:13:06Z</time>
      </trkpt>
      <trkpt lat="49.87662" lon="4.77335">
        <ele>357</ele>
        <time>2024-05-08T14:13:07Z</time>
      </trkpt>
      <trkpt lat="49.87662" lon="4.77336">
        <ele>357</ele>
        <time>2024-05-08T14:13:08Z</time>
      </trkpt>
      <trkpt lat="49.87663" lon="4.77336">
        <ele>357</ele>
        <time>2024-05-08T14:13:09Z</time>
      </trkpt>
      <trkpt lat="49.87663" lon="4.77337">
        <ele>357</ele>
        <time>2024-05-08T14:13:10Z</time>
      </trkpt>
      <trkpt lat="49.87664" lon="4.77338">
        <ele>357</ele>
        <time>2024-05-08T14:13:11Z</time>
      </trkpt>
      <trkpt lat="49.87664" lon="4.77338">
        <ele>357</ele>
        <time>2024-05-08T14:13:12Z</time>
      </trkpt>
      <trkpt lat="49.87665" lon="4.77339">
        <ele>357</ele>
        <time>2024-05-08T14:13:13Z</time>
      </trkpt>
      <trkpt lat="49.87665" lon="4.77339">
        <ele>357</ele>
        <time>2024-05-08T14:13:14Z</time>
      </trkpt>
      <trkpt lat="49.87666" lon="4.7734">
        <ele>357</ele>
        <time>2024-05-08T14:13:15Z</time>
      </trkpt>
      <trkpt lat="49.87667" lon="4.77341">
        <ele>357</ele>
        <time>2024-05-08T14:13:16Z</time>
      </trkpt>
      <trkpt lat="49.87668" lon="4.77342">
        <ele>357</ele>
        <time>2024-05-08T14:13:17Z</time>
      </trkpt>
      <trkpt lat="49.87669" lon="4.77342">
        <ele>357</ele>
        <time>2024-05-08T14:13:18Z</time>
      </trkpt>
      <trkpt lat="49.87669" lon="4.77343">
        <ele>357</ele>
        <time>2024-05-08T14:13:19Z</time>
      </trkpt>
      <trkpt lat="49.87669" lon="4.77343">
        <ele>357</ele>
        <time>2024-05-08T14:13:20Z</time>
      </trkpt>
      <trkpt lat="49.87669" lon="4.77343">
        <ele>357</ele>
        <time>2024-05-08T14:13:21Z</time>
      </trkpt>
      <trkpt lat="49.8767" lon="4.77344">
        <ele>356</ele>
        <time>2024-05-08T14:13:22Z</time>
      </trkpt>
      <trkpt lat="49.8767" lon="4.77344">
        <ele>356</ele>
        <time>2024-05-08T14:13:23Z</time>
      </trkpt>
      <trkpt lat="49.87671" lon="4.77345">
        <ele>356</ele>
        <time>2024-05-08T14:13:24Z</time>
      </trkpt>
      <trkpt lat="49.87671" lon="4.77346">
        <ele>356</ele>
        <time>2024-05-08T14:13:25Z</time>
      </trkpt>
      <trkpt lat="49.87672" lon="4.77348">
        <ele>356</ele>
        <time>2024-05-08T14:13:26Z</time>
      </trkpt>
      <trkpt lat="49.87672" lon="4.7735">
        <ele>356</ele>
        <time>2024-05-08T14:13:27Z</time>
      </trkpt>
      <trkpt lat="49.87673" lon="4.77351">
        <ele>356</ele>
        <time>2024-05-08T14:13:28Z</time>
      </trkpt>
      <trkpt lat="49.87674" lon="4.77353">
        <ele>356</ele>
        <time>2024-05-08T14:13:29Z</time>
      </trkpt>
      <trkpt lat="49.87674" lon="4.77354">
        <ele>356</ele>
        <time>2024-05-08T14:13:30Z</time>
      </trkpt>
      <trkpt lat="49.87675" lon="4.77355">
        <ele>356</ele>
        <time>2024-05-08T14:13:31Z</time>
      </trkpt>
      <trkpt lat="49.87676" lon="4.77356">
        <ele>355</ele>
        <time>2024-05-08T14:13:32Z</time>
      </trkpt>
      <trkpt lat="49.87678" lon="4.77356">
        <ele>355</ele>
        <time>2024-05-08T14:13:33Z</time>
      </trkpt>
      <trkpt lat="49.87679" lon="4.77356">
        <ele>355</ele>
        <time>2024-05-08T14:13:34Z</time>
      </trkpt>
      <trkpt lat="49.8768" lon="4.77356">
        <ele>355</ele>
        <time>2024-05-08T14:13:35Z</time>
      </trkpt>
      <trkpt lat="49.87681" lon="4.77357">
        <ele>355</ele>
        <time>2024-05-08T14:13:36Z</time>
      </trkpt>
      <trkpt lat="49.87682" lon="4.77358">
        <ele>354</ele>
        <time>2024-05-08T14:13:37Z</time>
      </trkpt>
      <trkpt lat="49.87682" lon="4.77359">
        <ele>354</ele>
        <time>2024-05-08T14:13:38Z</time>
      </trkpt>
      <trkpt lat="49.87683" lon="4.77359">
        <ele>353</ele>
        <time>2024-05-08T14:13:39Z</time>
      </trkpt>
      <trkpt lat="49.87684" lon="4.77361">
        <ele>353</ele>
        <time>2024-05-08T14:13:40Z</time>
      </trkpt>
      <trkpt lat="49.87684" lon="4.77362">
        <ele>353</ele>
        <time>2024-05-08T14:13:41Z</time>
      </trkpt>
      <trkpt lat="49.87684" lon="4.77363">
        <ele>352</ele>
        <time>2024-05-08T14:13:42Z</time>
      </trkpt>
      <trkpt lat="49.87685" lon="4.77364">
        <ele>352</ele>
        <time>2024-05-08T14:13:43Z</time>
      </trkpt>
      <trkpt lat="49.87685" lon="4.77364">
        <ele>352</ele>
        <time>2024-05-08T14:13:44Z</time>
      </trkpt>
      <trkpt lat="49.87686" lon="4.77365">
        <ele>352</ele>
        <time>2024-05-08T14:13:45Z</time>
      </trkpt>
      <trkpt lat="49.87686" lon="4.77366">
        <ele>352</ele>
        <time>2024-05-08T14:13:46Z</time>
      </trkpt>
      <trkpt lat="49.87687" lon="4.77366">
        <ele>349</ele>
        <time>2024-05-08T14:14:04Z</time>
      </trkpt>
      <trkpt lat="49.87688" lon="4.77366">
        <ele>349</ele>
        <time>2024-05-08T14:14:05Z</time>
      </trkpt>
      <trkpt lat="49.87689" lon="4.77366">
        <ele>349</ele>
        <time>2024-05-08T14:14:06Z</time>
      </trkpt>
      <trkpt lat="49.8769" lon="4.77366">
        <ele>348</ele>
        <time>2024-05-08T14:14:07Z</time>
      </trkpt>
      <trkpt lat="49.87691" lon="4.77366">
        <ele>348</ele>
        <time>2024-05-08T14:14:08Z</time>
      </trkpt>
      <trkpt lat="49.87691" lon="4.77367">
        <ele>348</ele>
        <time>2024-05-08T14:14:09Z</time>
      </trkpt>
      <trkpt lat="49.87695" lon="4.77368">
        <ele>344</ele>
        <time>2024-05-08T14:14:29Z</time>
      </trkpt>
      <trkpt lat="49.87697" lon="4.77369">
        <ele>344</ele>
        <time>2024-05-08T14:14:30Z</time>
      </trkpt>
      <trkpt lat="49.87698" lon="4.7737">
        <ele>344</ele>
        <time>2024-05-08T14:14:31Z</time>
      </trkpt>
      <trkpt lat="49.87699" lon="4.77371">
        <ele>343</ele>
        <time>2024-05-08T14:14:32Z</time>
      </trkpt>
      <trkpt lat="49.877" lon="4.77372">
        <ele>343</ele>
        <time>2024-05-08T14:14:33Z</time>
      </trkpt>
      <trkpt lat="49.87703" lon="4.77375">
        <ele>340</ele>
        <time>2024-05-08T14:14:45Z</time>
      </trkpt>
      <trkpt lat="49.87704" lon="4.77377">
        <ele>340</ele>
        <time>2024-05-08T14:14:46Z</time>
      </trkpt>
      <trkpt lat="49.87704" lon="4.77378">
        <ele>339</ele>
        <time>2024-05-08T14:14:47Z</time>
      </trkpt>
      <trkpt lat="49.8771" lon="4.77385">
        <ele>330</ele>
        <time>2024-05-08T14:15:35Z</time>
      </trkpt>
      <trkpt lat="49.87712" lon="4.77388">
        <ele>330</ele>
        <time>2024-05-08T14:15:36Z</time>
      </trkpt>
      <trkpt lat="49.87715" lon="4.77392">
        <ele>329</ele>
        <time>2024-05-08T14:15:37Z</time>
      </trkpt>
      <trkpt lat="49.87717" lon="4.77393">
        <ele>329</ele>
        <time>2024-05-08T14:15:38Z</time>
      </trkpt>
      <trkpt lat="49.87718" lon="4.77395">
        <ele>328</ele>
        <time>2024-05-08T14:15:39Z</time>
      </trkpt>
      <trkpt lat="49.87719" lon="4.77396">
        <ele>328</ele>
        <time>2024-05-08T14:15:40Z</time>
      </trkpt>
      <trkpt lat="49.8772" lon="4.77396">
        <ele>328</ele>
        <time>2024-05-08T14:15:41Z</time>
      </trkpt>
      <trkpt lat="49.87721" lon="4.77397">
        <ele>327</ele>
        <time>2024-05-08T14:15:42Z</time>
      </trkpt>
      <trkpt lat="49.87722" lon="4.77397">
        <ele>327</ele>
        <time>2024-05-08T14:15:43Z</time>
      </trkpt>
      <trkpt lat="49.87723" lon="4.77398">
        <ele>327</ele>
        <time>2024-05-08T14:15:44Z</time>
      </trkpt>
      <trkpt lat="49.87724" lon="4.774">
        <ele>327</ele>
        <time>2024-05-08T14:15:45Z</time>
      </trkpt>
      <trkpt lat="49.87725" lon="4.77401">
        <ele>327</ele>
        <time>2024-05-08T14:15:46Z</time>
      </trkpt>
      <trkpt lat="49.87729" lon="4.77404">
        <ele>321</ele>
        <time>2024-05-08T14:16:57Z</time>
      </trkpt>
      <trkpt lat="49.8773" lon="4.77405">
        <ele>321</ele>
        <time>2024-05-08T14:16:58Z</time>
      </trkpt>
      <trkpt lat="49.87732" lon="4.77407">
        <ele>321</ele>
        <time>2024-05-08T14:16:59Z</time>
      </trkpt>
      <trkpt lat="49.87733" lon="4.77407">
        <ele>321</ele>
        <time>2024-05-08T14:17:00Z</time>
      </trkpt>
      <trkpt lat="49.87734" lon="4.77407">
        <ele>321</ele>
        <time>2024-05-08T14:17:01Z</time>
      </trkpt>
      <trkpt lat="49.87735" lon="4.77407">
        <ele>320</ele>
        <time>2024-05-08T14:17:02Z</time>
      </trkpt>
      <trkpt lat="49.87736" lon="4.77407">
        <ele>320</ele>
        <time>2024-05-08T14:17:03Z</time>
      </trkpt>
      <trkpt lat="49.87737" lon="4.77407">
        <ele>320</ele>
        <time>2024-05-08T14:17:04Z</time>
      </trkpt>
      <trkpt lat="49.87738" lon="4.77407">
        <ele>320</ele>
        <time>2024-05-08T14:17:05Z</time>
      </trkpt>
      <trkpt lat="49.87739" lon="4.77408">
        <ele>320</ele>
        <time>2024-05-08T14:17:06Z</time>
      </trkpt>
      <trkpt lat="49.87739" lon="4.77408">
        <ele>319</ele>
        <time>2024-05-08T14:17:07Z</time>
      </trkpt>
      <trkpt lat="49.8774" lon="4.77409">
        <ele>319</ele>
        <time>2024-05-08T14:17:08Z</time>
      </trkpt>
      <trkpt lat="49.8774" lon="4.77409">
        <ele>319</ele>
        <time>2024-05-08T14:17:09Z</time>
      </trkpt>
      <trkpt lat="49.87741" lon="4.77409">
        <ele>319</ele>
        <time>2024-05-08T14:17:10Z</time>
      </trkpt>
      <trkpt lat="49.87742" lon="4.7741">
        <ele>319</ele>
        <time>2024-05-08T14:17:11Z</time>
      </trkpt>
      <trkpt lat="49.87742" lon="4.77411">
        <ele>318</ele>
        <time>2024-05-08T14:17:12Z</time>
      </trkpt>
      <trkpt lat="49.87743" lon="4.77411">
        <ele>318</ele>
        <time>2024-05-08T14:17:13Z</time>
      </trkpt>
      <trkpt lat="49.87744" lon="4.77412">
        <ele>317</ele>
        <time>2024-05-08T14:17:14Z</time>
      </trkpt>
      <trkpt lat="49.87745" lon="4.77414">
        <ele>317</ele>
        <time>2024-05-08T14:17:24Z</time>
      </trkpt>
      <trkpt lat="49.87746" lon="4.77415">
        <ele>317</ele>
        <time>2024-05-08T14:17:25Z</time>
      </trkpt>
      <trkpt lat="49.87747" lon="4.77416">
        <ele>317</ele>
        <time>2024-05-08T14:17:26Z</time>
      </trkpt>
      <trkpt lat="49.87747" lon="4.77417">
        <ele>316</ele>
        <time>2024-05-08T14:17:27Z</time>
      </trkpt>
      <trkpt lat="49.87747" lon="4.77418">
        <ele>316</ele>
        <time>2024-05-08T14:17:28Z</time>
      </trkpt>
      <trkpt lat="49.87747" lon="4.77419">
        <ele>316</ele>
        <time>2024-05-08T14:17:29Z</time>
      </trkpt>
      <trkpt lat="49.87748" lon="4.7742">
        <ele>316</ele>
        <time>2024-05-08T14:17:30Z</time>
      </trkpt>
      <trkpt lat="49.87747" lon="4.77422">
        <ele>316</ele>
        <time>2024-05-08T14:17:31Z</time>
      </trkpt>
      <trkpt lat="49.87747" lon="4.77424">
        <ele>315</ele>
        <time>2024-05-08T14:17:32Z</time>
      </trkpt>
      <trkpt lat="49.87747" lon="4.77426">
        <ele>315</ele>
        <time>2024-05-08T14:17:33Z</time>
      </trkpt>
      <trkpt lat="49.87746" lon="4.77428">
        <ele>315</ele>
        <time>2024-05-08T14:17:34Z</time>
      </trkpt>
      <trkpt lat="49.87746" lon="4.77429">
        <ele>315</ele>
        <time>2024-05-08T14:17:35Z</time>
      </trkpt>
      <trkpt lat="49.87746" lon="4.7743">
        <ele>315</ele>
        <time>2024-05-08T14:17:36Z</time>
      </trkpt>
      <trkpt lat="49.87746" lon="4.77431">
        <ele>314</ele>
        <time>2024-05-08T14:17:37Z</time>
      </trkpt>
      <trkpt lat="49.87746" lon="4.77433">
        <ele>314</ele>
        <time>2024-05-08T14:17:38Z</time>
      </trkpt>
      <trkpt lat="49.87745" lon="4.77434">
        <ele>314</ele>
        <time>2024-05-08T14:17:39Z</time>
      </trkpt>
      <trkpt lat="49.87745" lon="4.77436">
        <ele>314</ele>
        <time>2024-05-08T14:17:40Z</time>
      </trkpt>
      <trkpt lat="49.87745" lon="4.77437">
        <ele>314</ele>
        <time>2024-05-08T14:17:41Z</time>
      </trkpt>
      <trkpt lat="49.87745" lon="4.77439">
        <ele>314</ele>
        <time>2024-05-08T14:17:42Z</time>
      </trkpt>
      <trkpt lat="49.87744" lon="4.7744">
        <ele>314</ele>
        <time>2024-05-08T14:17:43Z</time>
      </trkpt>
      <trkpt lat="49.87744" lon="4.77441">
        <ele>314</ele>
        <time>2024-05-08T14:17:44Z</time>
      </trkpt>
      <trkpt lat="49.87743" lon="4.77442">
        <ele>314</ele>
        <time>2024-05-08T14:17:45Z</time>
      </trkpt>
      <trkpt lat="49.87743" lon="4.77443">
        <ele>314</ele>
        <time>2024-05-08T14:17:46Z</time>
      </trkpt>
      <trkpt lat="49.87742" lon="4.77443">
        <ele>314</ele>
        <time>2024-05-08T14:17:47Z</time>
      </trkpt>
      <trkpt lat="49.87742" lon="4.77444">
        <ele>314</ele>
        <time>2024-05-08T14:17:48Z</time>
      </trkpt>
      <trkpt lat="49.87741" lon="4.77445">
        <ele>314</ele>
        <time>2024-05-08T14:17:49Z</time>
      </trkpt>
      <trkpt lat="49.87741" lon="4.77446">
        <ele>314</ele>
        <time>2024-05-08T14:17:50Z</time>
      </trkpt>
      <trkpt lat="49.8774" lon="4.77447">
        <ele>314</ele>
        <time>2024-05-08T14:17:51Z</time>
      </trkpt>
      <trkpt lat="49.87739" lon="4.77448">
        <ele>314</ele>
        <time>2024-05-08T14:17:52Z</time>
      </trkpt>
      <trkpt lat="49.87738" lon="4.7745">
        <ele>314</ele>
        <time>2024-05-08T14:17:53Z</time>
      </trkpt>
      <trkpt lat="49.87737" lon="4.77451">
        <ele>314</ele>
        <time>2024-05-08T14:17:54Z</time>
      </trkpt>
      <trkpt lat="49.87736" lon="4.77453">
        <ele>314</ele>
        <time>2024-05-08T14:17:55Z</time>
      </trkpt>
      <trkpt lat="49.87735" lon="4.77455">
        <ele>314</ele>
        <time>2024-05-08T14:17:56Z</time>
      </trkpt>
      <trkpt lat="49.87734" lon="4.77456">
        <ele>314</ele>
        <time>2024-05-08T14:17:57Z</time>
      </trkpt>
      <trkpt lat="49.87733" lon="4.77457">
        <ele>314</ele>
        <time>2024-05-08T14:17:58Z</time>
      </trkpt>
      <trkpt lat="49.87732" lon="4.77458">
        <ele>314</ele>
        <time>2024-05-08T14:17:59Z</time>
      </trkpt>
      <trkpt lat="49.87731" lon="4.77459">
        <ele>314</ele>
        <time>2024-05-08T14:18:00Z</time>
      </trkpt>
      <trkpt lat="49.8773" lon="4.77459">
        <ele>314</ele>
        <time>2024-05-08T14:18:01Z</time>
      </trkpt>
      <trkpt lat="49.87728" lon="4.7746">
        <ele>314</ele>
        <time>2024-05-08T14:18:02Z</time>
      </trkpt>
      <trkpt lat="49.87727" lon="4.77461">
        <ele>314</ele>
        <time>2024-05-08T14:18:03Z</time>
      </trkpt>
      <trkpt lat="49.87726" lon="4.77462">
        <ele>314</ele>
        <time>2024-05-08T14:18:04Z</time>
      </trkpt>
      <trkpt lat="49.87725" lon="4.77463">
        <ele>314</ele>
        <time>2024-05-08T14:18:05Z</time>
      </trkpt>
      <trkpt lat="49.87724" lon="4.77464">
        <ele>314</ele>
        <time>2024-05-08T14:18:06Z</time>
      </trkpt>
      <trkpt lat="49.87723" lon="4.77465">
        <ele>314</ele>
        <time>2024-05-08T14:18:07Z</time>
      </trkpt>
      <trkpt lat="49.87722" lon="4.77466">
        <ele>314</ele>
        <time>2024-05-08T14:18:08Z</time>
      </trkpt>
      <trkpt lat="49.87722" lon="4.77467">
        <ele>314</ele>
        <time>2024-05-08T14:18:09Z</time>
      </trkpt>
      <trkpt lat="49.87721" lon="4.77468">
        <ele>314</ele>
        <time>2024-05-08T14:18:10Z</time>
      </trkpt>
      <trkpt lat="49.8772" lon="4.77469">
        <ele>314</ele>
        <time>2024-05-08T14:18:11Z</time>
      </trkpt>
      <trkpt lat="49.87719" lon="4.7747">
        <ele>314</ele>
        <time>2024-05-08T14:18:12Z</time>
      </trkpt>
      <trkpt lat="49.87718" lon="4.7747">
        <ele>314</ele>
        <time>2024-05-08T14:18:13Z</time>
      </trkpt>
      <trkpt lat="49.87717" lon="4.77471">
        <ele>314</ele>
        <time>2024-05-08T14:18:14Z</time>
      </trkpt>
      <trkpt lat="49.87716" lon="4.77471">
        <ele>314</ele>
        <time>2024-05-08T14:18:15Z</time>
      </trkpt>
      <trkpt lat="49.87716" lon="4.77472">
        <ele>314</ele>
        <time>2024-05-08T14:18:16Z</time>
      </trkpt>
      <trkpt lat="49.87715" lon="4.77472">
        <ele>314</ele>
        <time>2024-05-08T14:18:17Z</time>
      </trkpt>
      <trkpt lat="49.87714" lon="4.77472">
        <ele>314</ele>
        <time>2024-05-08T14:18:18Z</time>
      </trkpt>
      <trkpt lat="49.87713" lon="4.77473">
        <ele>314</ele>
        <time>2024-05-08T14:18:19Z</time>
      </trkpt>
      <trkpt lat="49.87712" lon="4.77473">
        <ele>314</ele>
        <time>2024-05-08T14:18:20Z</time>
      </trkpt>
      <trkpt lat="49.87711" lon="4.77473">
        <ele>314</ele>
        <time>2024-05-08T14:18:21Z</time>
      </trkpt>
      <trkpt lat="49.87709" lon="4.77474">
        <ele>314</ele>
        <time>2024-05-08T14:18:22Z</time>
      </trkpt>
      <trkpt lat="49.87708" lon="4.77474">
        <ele>314</ele>
        <time>2024-05-08T14:18:23Z</time>
      </trkpt>
      <trkpt lat="49.87707" lon="4.77474">
        <ele>314</ele>
        <time>2024-05-08T14:18:24Z</time>
      </trkpt>
      <trkpt lat="49.87707" lon="4.77475">
        <ele>314</ele>
        <time>2024-05-08T14:18:25Z</time>
      </trkpt>
      <trkpt lat="49.87706" lon="4.77475">
        <ele>314</ele>
        <time>2024-05-08T14:18:26Z</time>
      </trkpt>
      <trkpt lat="49.87705" lon="4.77476">
        <ele>314</ele>
        <time>2024-05-08T14:18:27Z</time>
      </trkpt>
      <trkpt lat="49.87704" lon="4.77477">
        <ele>314</ele>
        <time>2024-05-08T14:18:28Z</time>
      </trkpt>
      <trkpt lat="49.87703" lon="4.77477">
        <ele>314</ele>
        <time>2024-05-08T14:18:29Z</time>
      </trkpt>
      <trkpt lat="49.87702" lon="4.77478">
        <ele>314</ele>
        <time>2024-05-08T14:18:30Z</time>
      </trkpt>
      <trkpt lat="49.87701" lon="4.77479">
        <ele>314</ele>
        <time>2024-05-08T14:18:31Z</time>
      </trkpt>
      <trkpt lat="49.87701" lon="4.77479">
        <ele>314</ele>
        <time>2024-05-08T14:18:32Z</time>
      </trkpt>
      <trkpt lat="49.877" lon="4.7748">
        <ele>314</ele>
        <time>2024-05-08T14:18:33Z</time>
      </trkpt>
      <trkpt lat="49.87699" lon="4.77481">
        <ele>314</ele>
        <time>2024-05-08T14:18:34Z</time>
      </trkpt>
      <trkpt lat="49.87699" lon="4.77482">
        <ele>314</ele>
        <time>2024-05-08T14:18:35Z</time>
      </trkpt>
      <trkpt lat="49.87699" lon="4.77483">
        <ele>314</ele>
        <time>2024-05-08T14:18:36Z</time>
      </trkpt>
      <trkpt lat="49.87698" lon="4.77484">
        <ele>314</ele>
        <time>2024-05-08T14:18:37Z</time>
      </trkpt>
      <trkpt lat="49.87698" lon="4.77486">
        <ele>314</ele>
        <time>2024-05-08T14:18:38Z</time>
      </trkpt>
      <trkpt lat="49.87698" lon="4.77487">
        <ele>314</ele>
        <time>2024-05-08T14:18:39Z</time>
      </trkpt>
      <trkpt lat="49.87698" lon="4.77489">
        <ele>314</ele>
        <time>2024-05-08T14:18:40Z</time>
      </trkpt>
      <trkpt lat="49.87698" lon="4.77491">
        <ele>314</ele>
        <time>2024-05-08T14:18:41Z</time>
      </trkpt>
      <trkpt lat="49.87697" lon="4.77492">
        <ele>314</ele>
        <time>2024-05-08T14:18:42Z</time>
      </trkpt>
      <trkpt lat="49.87697" lon="4.77494">
        <ele>314</ele>
        <time>2024-05-08T14:18:43Z</time>
      </trkpt>
      <trkpt lat="49.87696" lon="4.77495">
        <ele>314</ele>
        <time>2024-05-08T14:18:44Z</time>
      </trkpt>
      <trkpt lat="49.87695" lon="4.77497">
        <ele>314</ele>
        <time>2024-05-08T14:18:45Z</time>
      </trkpt>
      <trkpt lat="49.87694" lon="4.77499">
        <ele>314</ele>
        <time>2024-05-08T14:18:46Z</time>
      </trkpt>
      <trkpt lat="49.87693" lon="4.77502">
        <ele>314</ele>
        <time>2024-05-08T14:18:47Z</time>
      </trkpt>
      <trkpt lat="49.87692" lon="4.77504">
        <ele>314</ele>
        <time>2024-05-08T14:18:48Z</time>
      </trkpt>
      <trkpt lat="49.87691" lon="4.77505">
        <ele>314</ele>
        <time>2024-05-08T14:18:49Z</time>
      </trkpt>
      <trkpt lat="49.8769" lon="4.77507">
        <ele>314</ele>
        <time>2024-05-08T14:18:50Z</time>
      </trkpt>
      <trkpt lat="49.87689" lon="4.77508">
        <ele>314</ele>
        <time>2024-05-08T14:18:51Z</time>
      </trkpt>
      <trkpt lat="49.87688" lon="4.77509">
        <ele>314</ele>
        <time>2024-05-08T14:18:52Z</time>
      </trkpt>
      <trkpt lat="49.87687" lon="4.77511">
        <ele>314</ele>
        <time>2024-05-08T14:18:53Z</time>
      </trkpt>
      <trkpt lat="49.87686" lon="4.77512">
        <ele>314</ele>
        <time>2024-05-08T14:18:54Z</time>
      </trkpt>
      <trkpt lat="49.87686" lon="4.77513">
        <ele>314</ele>
        <time>2024-05-08T14:18:55Z</time>
      </trkpt>
      <trkpt lat="49.87685" lon="4.77514">
        <ele>314</ele>
        <time>2024-05-08T14:18:56Z</time>
      </trkpt>
      <trkpt lat="49.87684" lon="4.77515">
        <ele>314</ele>
        <time>2024-05-08T14:18:57Z</time>
      </trkpt>
      <trkpt lat="49.87683" lon="4.77516">
        <ele>314</ele>
        <time>2024-05-08T14:18:58Z</time>
      </trkpt>
      <trkpt lat="49.87682" lon="4.77517">
        <ele>314</ele>
        <time>2024-05-08T14:18:59Z</time>
      </trkpt>
      <trkpt lat="49.87682" lon="4.77518">
        <ele>314</ele>
        <time>2024-05-08T14:19:00Z</time>
      </trkpt>
      <trkpt lat="49.87681" lon="4.77519">
        <ele>314</ele>
        <time>2024-05-08T14:19:01Z</time>
      </trkpt>
      <trkpt lat="49.8768" lon="4.7752">
        <ele>314</ele>
        <time>2024-05-08T14:19:02Z</time>
      </trkpt>
      <trkpt lat="49.87679" lon="4.77521">
        <ele>314</ele>
        <time>2024-05-08T14:19:03Z</time>
      </trkpt>
      <trkpt lat="49.87678" lon="4.77522">
        <ele>314</ele>
        <time>2024-05-08T14:19:04Z</time>
      </trkpt>
      <trkpt lat="49.87677" lon="4.77523">
        <ele>314</ele>
        <time>2024-05-08T14:19:05Z</time>
      </trkpt>
      <trkpt lat="49.87676" lon="4.77524">
        <ele>314</ele>
        <time>2024-05-08T14:19:06Z</time>
      </trkpt>
      <trkpt lat="49.87675" lon="4.77524">
        <ele>314</ele>
        <time>2024-05-08T14:19:07Z</time>
      </trkpt>
      <trkpt lat="49.87674" lon="4.77525">
        <ele>314</ele>
        <time>2024-05-08T14:19:08Z</time>
      </trkpt>
      <trkpt lat="49.87674" lon="4.77526">
        <ele>314</ele>
        <time>2024-05-08T14:19:09Z</time>
      </trkpt>
      <trkpt lat="49.87673" lon="4.77527">
        <ele>314</ele>
        <time>2024-05-08T14:19:10Z</time>
      </trkpt>
      <trkpt lat="49.87673" lon="4.77529">
        <ele>314</ele>
        <time>2024-05-08T14:19:11Z</time>
      </trkpt>
      <trkpt lat="49.87673" lon="4.7753">
        <ele>313</ele>
        <time>2024-05-08T14:19:12Z</time>
      </trkpt>
      <trkpt lat="49.87673" lon="4.77531">
        <ele>313</ele>
        <time>2024-05-08T14:19:13Z</time>
      </trkpt>
      <trkpt lat="49.87672" lon="4.77533">
        <ele>313</ele>
        <time>2024-05-08T14:19:14Z</time>
      </trkpt>
      <trkpt lat="49.87672" lon="4.77534">
        <ele>313</ele>
        <time>2024-05-08T14:19:15Z</time>
      </trkpt>
      <trkpt lat="49.87672" lon="4.77535">
        <ele>313</ele>
        <time>2024-05-08T14:19:16Z</time>
      </trkpt>
      <trkpt lat="49.87672" lon="4.77535">
        <ele>312</ele>
        <time>2024-05-08T14:19:17Z</time>
      </trkpt>
      <trkpt lat="49.87672" lon="4.77536">
        <ele>312</ele>
        <time>2024-05-08T14:19:18Z</time>
      </trkpt>
      <trkpt lat="49.87672" lon="4.77537">
        <ele>312</ele>
        <time>2024-05-08T14:19:19Z</time>
      </trkpt>
      <trkpt lat="49.87671" lon="4.77538">
        <ele>312</ele>
        <time>2024-05-08T14:19:20Z</time>
      </trkpt>
      <trkpt lat="49.87671" lon="4.77539">
        <ele>312</ele>
        <time>2024-05-08T14:19:21Z</time>
      </trkpt>
      <trkpt lat="49.87671" lon="4.7754">
        <ele>311</ele>
        <time>2024-05-08T14:19:22Z</time>
      </trkpt>
      <trkpt lat="49.87671" lon="4.77541">
        <ele>311</ele>
        <time>2024-05-08T14:19:23Z</time>
      </trkpt>
      <trkpt lat="49.87671" lon="4.77542">
        <ele>311</ele>
        <time>2024-05-08T14:19:24Z</time>
      </trkpt>
      <trkpt lat="49.87671" lon="4.77543">
        <ele>311</ele>
        <time>2024-05-08T14:19:25Z</time>
      </trkpt>
      <trkpt lat="49.87671" lon="4.77544">
        <ele>311</ele>
        <time>2024-05-08T14:19:26Z</time>
      </trkpt>
      <trkpt lat="49.87671" lon="4.77545">
        <ele>310</ele>
        <time>2024-05-08T14:19:27Z</time>
      </trkpt>
      <trkpt lat="49.87671" lon="4.77546">
        <ele>310</ele>
        <time>2024-05-08T14:19:28Z</time>
      </trkpt>
      <trkpt lat="49.87671" lon="4.77546">
        <ele>309</ele>
        <time>2024-05-08T14:19:29Z</time>
      </trkpt>
      <trkpt lat="49.87671" lon="4.77547">
        <ele>309</ele>
        <time>2024-05-08T14:19:30Z</time>
      </trkpt>
      <trkpt lat="49.87671" lon="4.77547">
        <ele>309</ele>
        <time>2024-05-08T14:19:31Z</time>
      </trkpt>
      <trkpt lat="49.87671" lon="4.77547">
        <ele>308</ele>
        <time>2024-05-08T14:19:32Z</time>
      </trkpt>
      <trkpt lat="49.87672" lon="4.77549">
        <ele>308</ele>
        <time>2024-05-08T14:19:33Z</time>
      </trkpt>
      <trkpt lat="49.87672" lon="4.7755">
        <ele>307</ele>
        <time>2024-05-08T14:19:34Z</time>
      </trkpt>
      <trkpt lat="49.87672" lon="4.77551">
        <ele>307</ele>
        <time>2024-05-08T14:19:35Z</time>
      </trkpt>
      <trkpt lat="49.87672" lon="4.77552">
        <ele>307</ele>
        <time>2024-05-08T14:19:36Z</time>
      </trkpt>
      <trkpt lat="49.87673" lon="4.77552">
        <ele>306</ele>
        <time>2024-05-08T14:19:37Z</time>
      </trkpt>
      <trkpt lat="49.87673" lon="4.77553">
        <ele>306</ele>
        <time>2024-05-08T14:19:38Z</time>
      </trkpt>
      <trkpt lat="49.87673" lon="4.77554">
        <ele>306</ele>
        <time>2024-05-08T14:19:39Z</time>
      </trkpt>
      <trkpt lat="49.87673" lon="4.77555">
        <ele>306</ele>
        <time>2024-05-08T14:19:40Z</time>
      </trkpt>
      <trkpt lat="49.87673" lon="4.77556">
        <ele>306</ele>
        <time>2024-05-08T14:19:41Z</time>
      </trkpt>
      <trkpt lat="49.87673" lon="4.77557">
        <ele>305</ele>
        <time>2024-05-08T14:19:42Z</time>
      </trkpt>
      <trkpt lat="49.87673" lon="4.77558">
        <ele>305</ele>
        <time>2024-05-08T14:19:43Z</time>
      </trkpt>
      <trkpt lat="49.87673" lon="4.77559">
        <ele>304</ele>
        <time>2024-05-08T14:19:44Z</time>
      </trkpt>
      <trkpt lat="49.87673" lon="4.77559">
        <ele>304</ele>
        <time>2024-05-08T14:19:45Z</time>
      </trkpt>
      <trkpt lat="49.87673" lon="4.7756">
        <ele>304</ele>
        <time>2024-05-08T14:19:46Z</time>
      </trkpt>
      <trkpt lat="49.87673" lon="4.77561">
        <ele>303</ele>
        <time>2024-05-08T14:19:47Z</time>
      </trkpt>
      <trkpt lat="49.87673" lon="4.77562">
        <ele>303</ele>
        <time>2024-05-08T14:19:48Z</time>
      </trkpt>
      <trkpt lat="49.87673" lon="4.77562">
        <ele>303</ele>
        <time>2024-05-08T14:19:49Z</time>
      </trkpt>
      <trkpt lat="49.87674" lon="4.77563">
        <ele>303</ele>
        <time>2024-05-08T14:19:50Z</time>
      </trkpt>
      <trkpt lat="49.87675" lon="4.77564">
        <ele>300</ele>
        <time>2024-05-08T14:20:10Z</time>
      </trkpt>
      <trkpt lat="49.87676" lon="4.77565">
        <ele>300</ele>
        <time>2024-05-08T14:20:11Z</time>
      </trkpt>
      <trkpt lat="49.87677" lon="4.77566">
        <ele>300</ele>
        <time>2024-05-08T14:20:12Z</time>
      </trkpt>
      <trkpt lat="49.87678" lon="4.77566">
        <ele>300</ele>
        <time>2024-05-08T14:20:13Z</time>
      </trkpt>
      <trkpt lat="49.87679" lon="4.77567">
        <ele>300</ele>
        <time>2024-05-08T14:20:14Z</time>
      </trkpt>
      <trkpt lat="49.87679" lon="4.77568">
        <ele>300</ele>
        <time>2024-05-08T14:20:15Z</time>
      </trkpt>
      <trkpt lat="49.8768" lon="4.77568">
        <ele>300</ele>
        <time>2024-05-08T14:20:16Z</time>
      </trkpt>
      <trkpt lat="49.87682" lon="4.7757">
        <ele>297</ele>
        <time>2024-05-08T14:20:31Z</time>
      </trkpt>
      <trkpt lat="49.87684" lon="4.7757">
        <ele>297</ele>
        <time>2024-05-08T14:20:32Z</time>
      </trkpt>
      <trkpt lat="49.87685" lon="4.77571">
        <ele>297</ele>
        <time>2024-05-08T14:20:33Z</time>
      </trkpt>
      <trkpt lat="49.87685" lon="4.77571">
        <ele>297</ele>
        <time>2024-05-08T14:20:34Z</time>
      </trkpt>
      <trkpt lat="49.87686" lon="4.77571">
        <ele>297</ele>
        <time>2024-05-08T14:20:35Z</time>
      </trkpt>
      <trkpt lat="49.87686" lon="4.77571">
        <ele>297</ele>
        <time>2024-05-08T14:20:36Z</time>
      </trkpt>
      <trkpt lat="49.87687" lon="4.77571">
        <ele>296</ele>
        <time>2024-05-08T14:20:37Z</time>
      </trkpt>
      <trkpt lat="49.87687" lon="4.77571">
        <ele>296</ele>
        <time>2024-05-08T14:20:38Z</time>
      </trkpt>
      <trkpt lat="49.87688" lon="4.77571">
        <ele>296</ele>
        <time>2024-05-08T14:20:39Z</time>
      </trkpt>
      <trkpt lat="49.87689" lon="4.7757">
        <ele>296</ele>
        <time>2024-05-08T14:20:40Z</time>
      </trkpt>
      <trkpt lat="49.8769" lon="4.7757">
        <ele>296</ele>
        <time>2024-05-08T14:20:41Z</time>
      </trkpt>
      <trkpt lat="49.8769" lon="4.7757">
        <ele>295</ele>
        <time>2024-05-08T14:20:42Z</time>
      </trkpt>
      <trkpt lat="49.87693" lon="4.77569">
        <ele>291</ele>
        <time>2024-05-08T14:21:24Z</time>
      </trkpt>
      <trkpt lat="49.87694" lon="4.77569">
        <ele>291</ele>
        <time>2024-05-08T14:21:25Z</time>
      </trkpt>
      <trkpt lat="49.87696" lon="4.77569">
        <ele>291</ele>
        <time>2024-05-08T14:21:26Z</time>
      </trkpt>
      <trkpt lat="49.87697" lon="4.7757">
        <ele>290</ele>
        <time>2024-05-08T14:21:27Z</time>
      </trkpt>
      <trkpt lat="49.87697" lon="4.77571">
        <ele>290</ele>
        <time>2024-05-08T14:21:28Z</time>
      </trkpt>
      <trkpt lat="49.87699" lon="4.77572">
        <ele>290</ele>
        <time>2024-05-08T14:22:02Z</time>
      </trkpt>
      <trkpt lat="49.877" lon="4.77572">
        <ele>290</ele>
        <time>2024-05-08T14:22:03Z</time>
      </trkpt>
      <trkpt lat="49.87701" lon="4.77572">
        <ele>290</ele>
        <time>2024-05-08T14:22:04Z</time>
      </trkpt>
      <trkpt lat="49.87704" lon="4.77573">
        <ele>289</ele>
        <time>2024-05-08T14:22:39Z</time>
      </trkpt>
      <trkpt lat="49.87705" lon="4.77574">
        <ele>289</ele>
        <time>2024-05-08T14:22:40Z</time>
      </trkpt>
      <trkpt lat="49.87707" lon="4.77575">
        <ele>289</ele>
        <time>2024-05-08T14:22:41Z</time>
      </trkpt>
      <trkpt lat="49.87707" lon="4.77576">
        <ele>288</ele>
        <time>2024-05-08T14:22:42Z</time>
      </trkpt>
      <trkpt lat="49.87708" lon="4.77577">
        <ele>288</ele>
        <time>2024-05-08T14:22:43Z</time>
      </trkpt>
      <trkpt lat="49.87708" lon="4.77578">
        <ele>288</ele>
        <time>2024-05-08T14:22:44Z</time>
      </trkpt>
      <trkpt lat="49.87708" lon="4.77579">
        <ele>288</ele>
        <time>2024-05-08T14:22:45Z</time>
      </trkpt>
      <trkpt lat="49.87708" lon="4.7758">
        <ele>288</ele>
        <time>2024-05-08T14:22:46Z</time>
      </trkpt>
      <trkpt lat="49.87709" lon="4.77581">
        <ele>287</ele>
        <time>2024-05-08T14:22:47Z</time>
      </trkpt>
      <trkpt lat="49.87709" lon="4.77582">
        <ele>287</ele>
        <time>2024-05-08T14:22:48Z</time>
      </trkpt>
      <trkpt lat="49.87709" lon="4.77582">
        <ele>286</ele>
        <time>2024-05-08T14:22:49Z</time>
      </trkpt>
      <trkpt lat="49.87709" lon="4.77583">
        <ele>286</ele>
        <time>2024-05-08T14:22:50Z</time>
      </trkpt>
      <trkpt lat="49.87709" lon="4.77584">
        <ele>286</ele>
        <time>2024-05-08T14:22:51Z</time>
      </trkpt>
      <trkpt lat="49.87709" lon="4.77585">
        <ele>285</ele>
        <time>2024-05-08T14:22:52Z</time>
      </trkpt>
      <trkpt lat="49.87709" lon="4.77586">
        <ele>285</ele>
        <time>2024-05-08T14:22:53Z</time>
      </trkpt>
      <trkpt lat="49.8771" lon="4.77587">
        <ele>285</ele>
        <time>2024-05-08T14:22:54Z</time>
      </trkpt>
      <trkpt lat="49.8771" lon="4.77588">
        <ele>285</ele>
        <time>2024-05-08T14:22:55Z</time>
      </trkpt>
      <trkpt lat="49.87711" lon="4.77589">
        <ele>285</ele>
        <time>2024-05-08T14:22:56Z</time>
      </trkpt>
      <trkpt lat="49.87711" lon="4.7759">
        <ele>284</ele>
        <time>2024-05-08T14:22:57Z</time>
      </trkpt>
      <trkpt lat="49.87712" lon="4.77591">
        <ele>284</ele>
        <time>2024-05-08T14:22:58Z</time>
      </trkpt>
      <trkpt lat="49.87713" lon="4.77592">
        <ele>284</ele>
        <time>2024-05-08T14:22:59Z</time>
      </trkpt>
      <trkpt lat="49.87713" lon="4.77593">
        <ele>284</ele>
        <time>2024-05-08T14:23:00Z</time>
      </trkpt>
      <trkpt lat="49.87714" lon="4.77594">
        <ele>284</ele>
        <time>2024-05-08T14:23:01Z</time>
      </trkpt>
      <trkpt lat="49.87714" lon="4.77595">
        <ele>283</ele>
        <time>2024-05-08T14:23:02Z</time>
      </trkpt>
      <trkpt lat="49.87714" lon="4.77596">
        <ele>283</ele>
        <time>2024-05-08T14:23:03Z</time>
      </trkpt>
      <trkpt lat="49.87715" lon="4.77598">
        <ele>283</ele>
        <time>2024-05-08T14:23:04Z</time>
      </trkpt>
      <trkpt lat="49.87715" lon="4.77599">
        <ele>283</ele>
        <time>2024-05-08T14:23:05Z</time>
      </trkpt>
      <trkpt lat="49.87716" lon="4.776">
        <ele>283</ele>
        <time>2024-05-08T14:23:06Z</time>
      </trkpt>
      <trkpt lat="49.87717" lon="4.77601">
        <ele>282</ele>
        <time>2024-05-08T14:23:07Z</time>
      </trkpt>
      <trkpt lat="49.87717" lon="4.77602">
        <ele>282</ele>
        <time>2024-05-08T14:23:08Z</time>
      </trkpt>
      <trkpt lat="49.87717" lon="4.77603">
        <ele>281</ele>
        <time>2024-05-08T14:23:09Z</time>
      </trkpt>
      <trkpt lat="49.87718" lon="4.77603">
        <ele>281</ele>
        <time>2024-05-08T14:23:10Z</time>
      </trkpt>
      <trkpt lat="49.87718" lon="4.77604">
        <ele>281</ele>
        <time>2024-05-08T14:23:11Z</time>
      </trkpt>
      <trkpt lat="49.87718" lon="4.77605">
        <ele>281</ele>
        <time>2024-05-08T14:23:12Z</time>
      </trkpt>
      <trkpt lat="49.87718" lon="4.77605">
        <ele>281</ele>
        <time>2024-05-08T14:23:13Z</time>
      </trkpt>
      <trkpt lat="49.87718" lon="4.77606">
        <ele>281</ele>
        <time>2024-05-08T14:23:14Z</time>
      </trkpt>
      <trkpt lat="49.87718" lon="4.77607">
        <ele>281</ele>
        <time>2024-05-08T14:23:15Z</time>
      </trkpt>
      <trkpt lat="49.87718" lon="4.77608">
        <ele>281</ele>
        <time>2024-05-08T14:23:16Z</time>
      </trkpt>
      <trkpt lat="49.87719" lon="4.77611">
        <ele>277</ele>
        <time>2024-05-08T14:23:34Z</time>
      </trkpt>
      <trkpt lat="49.8772" lon="4.77613">
        <ele>277</ele>
        <time>2024-05-08T14:23:35Z</time>
      </trkpt>
      <trkpt lat="49.8772" lon="4.77615">
        <ele>277</ele>
        <time>2024-05-08T14:23:36Z</time>
      </trkpt>
      <trkpt lat="49.87721" lon="4.77616">
        <ele>276</ele>
        <time>2024-05-08T14:23:37Z</time>
      </trkpt>
      <trkpt lat="49.87721" lon="4.77617">
        <ele>276</ele>
        <time>2024-05-08T14:23:38Z</time>
      </trkpt>
      <trkpt lat="49.87721" lon="4.77618">
        <ele>276</ele>
        <time>2024-05-08T14:23:39Z</time>
      </trkpt>
      <trkpt lat="49.87721" lon="4.7762">
        <ele>276</ele>
        <time>2024-05-08T14:23:40Z</time>
      </trkpt>
      <trkpt lat="49.87721" lon="4.77621">
        <ele>276</ele>
        <time>2024-05-08T14:23:41Z</time>
      </trkpt>
      <trkpt lat="49.87721" lon="4.77622">
        <ele>275</ele>
        <time>2024-05-08T14:23:42Z</time>
      </trkpt>
      <trkpt lat="49.87722" lon="4.77623">
        <ele>275</ele>
        <time>2024-05-08T14:23:43Z</time>
      </trkpt>
      <trkpt lat="49.87722" lon="4.77624">
        <ele>274</ele>
        <time>2024-05-08T14:23:44Z</time>
      </trkpt>
      <trkpt lat="49.87723" lon="4.77625">
        <ele>274</ele>
        <time>2024-05-08T14:23:45Z</time>
      </trkpt>
      <trkpt lat="49.87723" lon="4.77626">
        <ele>274</ele>
        <time>2024-05-08T14:23:46Z</time>
      </trkpt>
      <trkpt lat="49.87724" lon="4.77627">
        <ele>273</ele>
        <time>2024-05-08T14:23:47Z</time>
      </trkpt>
      <trkpt lat="49.87724" lon="4.77628">
        <ele>273</ele>
        <time>2024-05-08T14:23:48Z</time>
      </trkpt>
      <trkpt lat="49.87725" lon="4.7763">
        <ele>273</ele>
        <time>2024-05-08T14:23:49Z</time>
      </trkpt>
      <trkpt lat="49.87726" lon="4.77631">
        <ele>273</ele>
        <time>2024-05-08T14:23:50Z</time>
      </trkpt>
      <trkpt lat="49.87726" lon="4.77633">
        <ele>273</ele>
        <time>2024-05-08T14:23:51Z</time>
      </trkpt>
      <trkpt lat="49.87727" lon="4.77636">
        <ele>271</ele>
        <time>2024-05-08T14:24:05Z</time>
      </trkpt>
      <trkpt lat="49.87727" lon="4.77637">
        <ele>271</ele>
        <time>2024-05-08T14:24:06Z</time>
      </trkpt>
      <trkpt lat="49.87727" lon="4.77638">
        <ele>270</ele>
        <time>2024-05-08T14:24:07Z</time>
      </trkpt>
      <trkpt lat="49.87727" lon="4.77639">
        <ele>270</ele>
        <time>2024-05-08T14:24:08Z</time>
      </trkpt>
      <trkpt lat="49.87728" lon="4.7764">
        <ele>270</ele>
        <time>2024-05-08T14:24:09Z</time>
      </trkpt>
      <trkpt lat="49.87728" lon="4.77641">
        <ele>270</ele>
        <time>2024-05-08T14:24:10Z</time>
      </trkpt>
      <trkpt lat="49.87728" lon="4.77641">
        <ele>270</ele>
        <time>2024-05-08T14:24:11Z</time>
      </trkpt>
      <trkpt lat="49.87728" lon="4.77643">
        <ele>269</ele>
        <time>2024-05-08T14:24:12Z</time>
      </trkpt>
      <trkpt lat="49.87728" lon="4.77644">
        <ele>269</ele>
        <time>2024-05-08T14:24:13Z</time>
      </trkpt>
      <trkpt lat="49.87728" lon="4.77644">
        <ele>269</ele>
        <time>2024-05-08T14:24:14Z</time>
      </trkpt>
      <trkpt lat="49.87728" lon="4.77645">
        <ele>269</ele>
        <time>2024-05-08T14:24:15Z</time>
      </trkpt>
      <trkpt lat="49.87728" lon="4.77645">
        <ele>269</ele>
        <time>2024-05-08T14:24:16Z</time>
      </trkpt>
      <trkpt lat="49.87728" lon="4.77647">
        <ele>268</ele>
        <time>2024-05-08T14:24:17Z</time>
      </trkpt>
      <trkpt lat="49.87729" lon="4.77648">
        <ele>268</ele>
        <time>2024-05-08T14:24:18Z</time>
      </trkpt>
      <trkpt lat="49.87729" lon="4.77649">
        <ele>268</ele>
        <time>2024-05-08T14:24:19Z</time>
      </trkpt>
      <trkpt lat="49.87729" lon="4.7765">
        <ele>268</ele>
        <time>2024-05-08T14:24:20Z</time>
      </trkpt>
      <trkpt lat="49.8773" lon="4.77651">
        <ele>268</ele>
        <time>2024-05-08T14:24:21Z</time>
      </trkpt>
      <trkpt lat="49.8773" lon="4.77653">
        <ele>267</ele>
        <time>2024-05-08T14:24:22Z</time>
      </trkpt>
      <trkpt lat="49.87731" lon="4.77654">
        <ele>267</ele>
        <time>2024-05-08T14:24:23Z</time>
      </trkpt>
      <trkpt lat="49.87731" lon="4.77655">
        <ele>267</ele>
        <time>2024-05-08T14:24:24Z</time>
      </trkpt>
      <trkpt lat="49.87732" lon="4.77656">
        <ele>267</ele>
        <time>2024-05-08T14:24:25Z</time>
      </trkpt>
      <trkpt lat="49.87732" lon="4.77657">
        <ele>267</ele>
        <time>2024-05-08T14:24:26Z</time>
      </trkpt>
      <trkpt lat="49.87732" lon="4.77657">
        <ele>266</ele>
        <time>2024-05-08T14:24:27Z</time>
      </trkpt>
      <trkpt lat="49.87732" lon="4.77657">
        <ele>266</ele>
        <time>2024-05-08T14:24:28Z</time>
      </trkpt>
      <trkpt lat="49.87732" lon="4.77658">
        <ele>266</ele>
        <time>2024-05-08T14:24:29Z</time>
      </trkpt>
      <trkpt lat="49.87732" lon="4.77658">
        <ele>266</ele>
        <time>2024-05-08T14:24:30Z</time>
      </trkpt>
      <trkpt lat="49.87733" lon="4.77659">
        <ele>266</ele>
        <time>2024-05-08T14:24:31Z</time>
      </trkpt>
      <trkpt lat="49.87733" lon="4.7766">
        <ele>265</ele>
        <time>2024-05-08T14:24:32Z</time>
      </trkpt>
      <trkpt lat="49.87733" lon="4.77661">
        <ele>265</ele>
        <time>2024-05-08T14:24:33Z</time>
      </trkpt>
      <trkpt lat="49.87733" lon="4.77662">
        <ele>265</ele>
        <time>2024-05-08T14:24:34Z</time>
      </trkpt>
      <trkpt lat="49.87733" lon="4.77663">
        <ele>265</ele>
        <time>2024-05-08T14:24:35Z</time>
      </trkpt>
      <trkpt lat="49.87733" lon="4.77664">
        <ele>265</ele>
        <time>2024-05-08T14:24:36Z</time>
      </trkpt>
      <trkpt lat="49.87733" lon="4.77665">
        <ele>264</ele>
        <time>2024-05-08T14:24:37Z</time>
      </trkpt>
      <trkpt lat="49.87733" lon="4.77666">
        <ele>264</ele>
        <time>2024-05-08T14:24:38Z</time>
      </trkpt>
      <trkpt lat="49.87734" lon="4.77667">
        <ele>264</ele>
        <time>2024-05-08T14:24:39Z</time>
      </trkpt>
      <trkpt lat="49.87733" lon="4.77669">
        <ele>262</ele>
        <time>2024-05-08T14:24:58Z</time>
      </trkpt>
      <trkpt lat="49.87733" lon="4.77669">
        <ele>262</ele>
        <time>2024-05-08T14:24:59Z</time>
      </trkpt>
      <trkpt lat="49.87733" lon="4.7767">
        <ele>262</ele>
        <time>2024-05-08T14:25:00Z</time>
      </trkpt>
      <trkpt lat="49.87733" lon="4.77671">
        <ele>262</ele>
        <time>2024-05-08T14:25:01Z</time>
      </trkpt>
      <trkpt lat="49.87733" lon="4.77672">
        <ele>261</ele>
        <time>2024-05-08T14:25:02Z</time>
      </trkpt>
      <trkpt lat="49.87733" lon="4.77673">
        <ele>261</ele>
        <time>2024-05-08T14:25:03Z</time>
      </trkpt>
      <trkpt lat="49.87733" lon="4.77674">
        <ele>261</ele>
        <time>2024-05-08T14:25:04Z</time>
      </trkpt>
      <trkpt lat="49.87733" lon="4.77675">
        <ele>261</ele>
        <time>2024-05-08T14:25:05Z</time>
      </trkpt>
      <trkpt lat="49.87734" lon="4.77676">
        <ele>261</ele>
        <time>2024-05-08T14:25:06Z</time>
      </trkpt>
      <trkpt lat="49.87734" lon="4.77677">
        <ele>260</ele>
        <time>2024-05-08T14:25:07Z</time>
      </trkpt>
      <trkpt lat="49.87734" lon="4.77678">
        <ele>260</ele>
        <time>2024-05-08T14:25:08Z</time>
      </trkpt>
      <trkpt lat="49.87734" lon="4.77679">
        <ele>260</ele>
        <time>2024-05-08T14:25:09Z</time>
      </trkpt>
      <trkpt lat="49.87734" lon="4.7768">
        <ele>260</ele>
        <time>2024-05-08T14:25:10Z</time>
      </trkpt>
      <trkpt lat="49.87734" lon="4.77682">
        <ele>260</ele>
        <time>2024-05-08T14:25:11Z</time>
      </trkpt>
      <trkpt lat="49.87734" lon="4.77683">
        <ele>259</ele>
        <time>2024-05-08T14:25:12Z</time>
      </trkpt>
      <trkpt lat="49.87734" lon="4.77684">
        <ele>259</ele>
        <time>2024-05-08T14:25:13Z</time>
      </trkpt>
      <trkpt lat="49.87734" lon="4.77685">
        <ele>258</ele>
        <time>2024-05-08T14:25:14Z</time>
      </trkpt>
      <trkpt lat="49.87733" lon="4.77686">
        <ele>258</ele>
        <time>2024-05-08T14:25:15Z</time>
      </trkpt>
      <trkpt lat="49.87733" lon="4.77687">
        <ele>258</ele>
        <time>2024-05-08T14:25:16Z</time>
      </trkpt>
      <trkpt lat="49.87733" lon="4.77688">
        <ele>257</ele>
        <time>2024-05-08T14:25:17Z</time>
      </trkpt>
      <trkpt lat="49.87733" lon="4.77689">
        <ele>257</ele>
        <time>2024-05-08T14:25:18Z</time>
      </trkpt>
      <trkpt lat="49.87734" lon="4.7769">
        <ele>257</ele>
        <time>2024-05-08T14:25:19Z</time>
      </trkpt>
      <trkpt lat="49.87734" lon="4.77691">
        <ele>257</ele>
        <time>2024-05-08T14:25:20Z</time>
      </trkpt>
      <trkpt lat="49.87735" lon="4.77692">
        <ele>257</ele>
        <time>2024-05-08T14:25:21Z</time>
      </trkpt>
      <trkpt lat="49.87735" lon="4.77693">
        <ele>256</ele>
        <time>2024-05-08T14:25:22Z</time>
      </trkpt>
      <trkpt lat="49.87735" lon="4.77694">
        <ele>256</ele>
        <time>2024-05-08T14:25:23Z</time>
      </trkpt>
      <trkpt lat="49.87735" lon="4.77695">
        <ele>256</ele>
        <time>2024-05-08T14:25:24Z</time>
      </trkpt>
      <trkpt lat="49.87735" lon="4.77697">
        <ele>256</ele>
        <time>2024-05-08T14:25:25Z</time>
      </trkpt>
      <trkpt lat="49.87735" lon="4.77699">
        <ele>256</ele>
        <time>2024-05-08T14:25:26Z</time>
      </trkpt>
      <trkpt lat="49.87735" lon="4.77703">
        <ele>254</ele>
        <time>2024-05-08T14:25:51Z</time>
      </trkpt>
      <trkpt lat="49.87735" lon="4.77704">
        <ele>253</ele>
        <time>2024-05-08T14:25:52Z</time>
      </trkpt>
      <trkpt lat="49.87736" lon="4.77706">
        <ele>253</ele>
        <time>2024-05-08T14:25:53Z</time>
      </trkpt>
      <trkpt lat="49.87736" lon="4.77706">
        <ele>253</ele>
        <time>2024-05-08T14:25:54Z</time>
      </trkpt>
      <trkpt lat="49.87736" lon="4.77707">
        <ele>253</ele>
        <time>2024-05-08T14:25:55Z</time>
      </trkpt>
      <trkpt lat="49.87736" lon="4.77708">
        <ele>253</ele>
        <time>2024-05-08T14:25:56Z</time>
      </trkpt>
      <trkpt lat="49.87736" lon="4.77709">
        <ele>252</ele>
        <time>2024-05-08T14:25:57Z</time>
      </trkpt>
      <trkpt lat="49.87736" lon="4.7771">
        <ele>252</ele>
        <time>2024-05-08T14:25:58Z</time>
      </trkpt>
      <trkpt lat="49.87736" lon="4.77711">
        <ele>252</ele>
        <time>2024-05-08T14:25:59Z</time>
      </trkpt>
      <trkpt lat="49.87737" lon="4.77712">
        <ele>252</ele>
        <time>2024-05-08T14:26:00Z</time>
      </trkpt>
      <trkpt lat="49.87736" lon="4.77714">
        <ele>250</ele>
        <time>2024-05-08T14:26:18Z</time>
      </trkpt>
      <trkpt lat="49.87736" lon="4.77716">
        <ele>250</ele>
        <time>2024-05-08T14:26:19Z</time>
      </trkpt>
      <trkpt lat="49.87736" lon="4.77718">
        <ele>250</ele>
        <time>2024-05-08T14:26:20Z</time>
      </trkpt>
      <trkpt lat="49.87737" lon="4.77719">
        <ele>250</ele>
        <time>2024-05-08T14:26:21Z</time>
      </trkpt>
      <trkpt lat="49.87737" lon="4.7772">
        <ele>249</ele>
        <time>2024-05-08T14:26:22Z</time>
      </trkpt>
      <trkpt lat="49.87737" lon="4.77721">
        <ele>249</ele>
        <time>2024-05-08T14:26:23Z</time>
      </trkpt>
      <trkpt lat="49.87737" lon="4.77722">
        <ele>249</ele>
        <time>2024-05-08T14:26:24Z</time>
      </trkpt>
      <trkpt lat="49.87737" lon="4.77724">
        <ele>249</ele>
        <time>2024-05-08T14:26:25Z</time>
      </trkpt>
      <trkpt lat="49.87737" lon="4.77725">
        <ele>249</ele>
        <time>2024-05-08T14:26:26Z</time>
      </trkpt>
      <trkpt lat="49.87737" lon="4.77726">
        <ele>248</ele>
        <time>2024-05-08T14:26:27Z</time>
      </trkpt>
      <trkpt lat="49.87738" lon="4.77727">
        <ele>248</ele>
        <time>2024-05-08T14:26:28Z</time>
      </trkpt>
      <trkpt lat="49.87738" lon="4.7773">
        <ele>246</ele>
        <time>2024-05-08T14:26:35Z</time>
      </trkpt>
      <trkpt lat="49.87739" lon="4.77731">
        <ele>246</ele>
        <time>2024-05-08T14:26:36Z</time>
      </trkpt>
      <trkpt lat="49.87739" lon="4.77733">
        <ele>245</ele>
        <time>2024-05-08T14:26:37Z</time>
      </trkpt>
      <trkpt lat="49.8774" lon="4.77734">
        <ele>245</ele>
        <time>2024-05-08T14:26:38Z</time>
      </trkpt>
      <trkpt lat="49.8774" lon="4.77735">
        <ele>245</ele>
        <time>2024-05-08T14:26:39Z</time>
      </trkpt>
      <trkpt lat="49.8774" lon="4.77736">
        <ele>245</ele>
        <time>2024-05-08T14:26:40Z</time>
      </trkpt>
      <trkpt lat="49.8774" lon="4.77736">
        <ele>245</ele>
        <time>2024-05-08T14:26:41Z</time>
      </trkpt>
      <trkpt lat="49.8774" lon="4.77737">
        <ele>244</ele>
        <time>2024-05-08T14:26:42Z</time>
      </trkpt>
      <trkpt lat="49.87741" lon="4.77738">
        <ele>244</ele>
        <time>2024-05-08T14:26:43Z</time>
      </trkpt>
      <trkpt lat="49.87741" lon="4.7774">
        <ele>244</ele>
        <time>2024-05-08T14:26:56Z</time>
      </trkpt>
      <trkpt lat="49.87741" lon="4.77741">
        <ele>243</ele>
        <time>2024-05-08T14:26:57Z</time>
      </trkpt>
      <trkpt lat="49.87742" lon="4.77743">
        <ele>243</ele>
        <time>2024-05-08T14:26:58Z</time>
      </trkpt>
      <trkpt lat="49.87742" lon="4.77744">
        <ele>242</ele>
        <time>2024-05-08T14:26:59Z</time>
      </trkpt>
      <trkpt lat="49.87742" lon="4.77745">
        <ele>242</ele>
        <time>2024-05-08T14:27:00Z</time>
      </trkpt>
      <trkpt lat="49.87743" lon="4.77746">
        <ele>242</ele>
        <time>2024-05-08T14:27:01Z</time>
      </trkpt>
      <trkpt lat="49.87743" lon="4.77747">
        <ele>241</ele>
        <time>2024-05-08T14:27:02Z</time>
      </trkpt>
      <trkpt lat="49.87743" lon="4.77748">
        <ele>241</ele>
        <time>2024-05-08T14:27:03Z</time>
      </trkpt>
      <trkpt lat="49.87743" lon="4.7775">
        <ele>241</ele>
        <time>2024-05-08T14:27:04Z</time>
      </trkpt>
      <trkpt lat="49.87744" lon="4.77751">
        <ele>241</ele>
        <time>2024-05-08T14:27:05Z</time>
      </trkpt>
      <trkpt lat="49.87744" lon="4.77751">
        <ele>241</ele>
        <time>2024-05-08T14:27:06Z</time>
      </trkpt>
      <trkpt lat="49.87744" lon="4.77753">
        <ele>240</ele>
        <time>2024-05-08T14:27:07Z</time>
      </trkpt>
      <trkpt lat="49.87744" lon="4.77754">
        <ele>240</ele>
        <time>2024-05-08T14:27:08Z</time>
      </trkpt>
      <trkpt lat="49.87744" lon="4.77756">
        <ele>240</ele>
        <time>2024-05-08T14:27:09Z</time>
      </trkpt>
      <trkpt lat="49.87744" lon="4.77757">
        <ele>240</ele>
        <time>2024-05-08T14:27:10Z</time>
      </trkpt>
      <trkpt lat="49.87744" lon="4.77758">
        <ele>240</ele>
        <time>2024-05-08T14:27:11Z</time>
      </trkpt>
      <trkpt lat="49.87744" lon="4.77758">
        <ele>239</ele>
        <time>2024-05-08T14:27:12Z</time>
      </trkpt>
      <trkpt lat="49.87744" lon="4.77759">
        <ele>239</ele>
        <time>2024-05-08T14:27:13Z</time>
      </trkpt>
      <trkpt lat="49.87744" lon="4.77761">
        <ele>238</ele>
        <time>2024-05-08T14:27:14Z</time>
      </trkpt>
      <trkpt lat="49.87744" lon="4.77762">
        <ele>238</ele>
        <time>2024-05-08T14:27:15Z</time>
      </trkpt>
      <trkpt lat="49.87744" lon="4.77763">
        <ele>238</ele>
        <time>2024-05-08T14:27:16Z</time>
      </trkpt>
      <trkpt lat="49.87744" lon="4.77764">
        <ele>237</ele>
        <time>2024-05-08T14:27:17Z</time>
      </trkpt>
      <trkpt lat="49.87744" lon="4.77766">
        <ele>237</ele>
        <time>2024-05-08T14:27:18Z</time>
      </trkpt>
      <trkpt lat="49.87744" lon="4.77767">
        <ele>237</ele>
        <time>2024-05-08T14:27:19Z</time>
      </trkpt>
      <trkpt lat="49.87744" lon="4.77767">
        <ele>237</ele>
        <time>2024-05-08T14:27:20Z</time>
      </trkpt>
      <trkpt lat="49.87744" lon="4.77768">
        <ele>237</ele>
        <time>2024-05-08T14:27:21Z</time>
      </trkpt>
      <trkpt lat="49.87744" lon="4.77769">
        <ele>237</ele>
        <time>2024-05-08T14:27:22Z</time>
      </trkpt>
      <trkpt lat="49.87744" lon="4.7777">
        <ele>237</ele>
        <time>2024-05-08T14:27:23Z</time>
      </trkpt>
      <trkpt lat="49.87744" lon="4.77771">
        <ele>237</ele>
        <time>2024-05-08T14:27:24Z</time>
      </trkpt>
      <trkpt lat="49.87744" lon="4.77772">
        <ele>237</ele>
        <time>2024-05-08T14:27:25Z</time>
      </trkpt>
      <trkpt lat="49.87744" lon="4.77772">
        <ele>237</ele>
        <time>2024-05-08T14:27:26Z</time>
      </trkpt>
      <trkpt lat="49.87744" lon="4.77773">
        <ele>236</ele>
        <time>2024-05-08T14:27:27Z</time>
      </trkpt>
      <trkpt lat="49.87744" lon="4.77774">
        <ele>236</ele>
        <time>2024-05-08T14:27:28Z</time>
      </trkpt>
      <trkpt lat="49.87743" lon="4.77774">
        <ele>236</ele>
        <time>2024-05-08T14:27:29Z</time>
      </trkpt>
      <trkpt lat="49.87743" lon="4.77776">
        <ele>236</ele>
        <time>2024-05-08T14:27:30Z</time>
      </trkpt>
      <trkpt lat="49.87742" lon="4.77777">
        <ele>236</ele>
        <time>2024-05-08T14:27:31Z</time>
      </trkpt>
      <trkpt lat="49.87742" lon="4.77777">
        <ele>235</ele>
        <time>2024-05-08T14:27:32Z</time>
      </trkpt>
      <trkpt lat="49.87742" lon="4.77778">
        <ele>235</ele>
        <time>2024-05-08T14:27:33Z</time>
      </trkpt>
      <trkpt lat="49.87742" lon="4.77778">
        <ele>235</ele>
        <time>2024-05-08T14:27:34Z</time>
      </trkpt>
      <trkpt lat="49.87742" lon="4.77779">
        <ele>235</ele>
        <time>2024-05-08T14:27:35Z</time>
      </trkpt>
      <trkpt lat="49.87742" lon="4.7778">
        <ele>235</ele>
        <time>2024-05-08T14:27:36Z</time>
      </trkpt>
      <trkpt lat="49.87742" lon="4.77781">
        <ele>234</ele>
        <time>2024-05-08T14:27:37Z</time>
      </trkpt>
      <trkpt lat="49.87742" lon="4.77782">
        <ele>234</ele>
        <time>2024-05-08T14:27:38Z</time>
      </trkpt>
      <trkpt lat="49.87742" lon="4.77783">
        <ele>234</ele>
        <time>2024-05-08T14:27:39Z</time>
      </trkpt>
      <trkpt lat="49.87742" lon="4.77784">
        <ele>234</ele>
        <time>2024-05-08T14:27:40Z</time>
      </trkpt>
      <trkpt lat="49.87742" lon="4.77785">
        <ele>234</ele>
        <time>2024-05-08T14:27:41Z</time>
      </trkpt>
      <trkpt lat="49.87743" lon="4.77786">
        <ele>233</ele>
        <time>2024-05-08T14:27:42Z</time>
      </trkpt>
      <trkpt lat="49.87743" lon="4.77788">
        <ele>233</ele>
        <time>2024-05-08T14:27:43Z</time>
      </trkpt>
      <trkpt lat="49.87743" lon="4.77788">
        <ele>233</ele>
        <time>2024-05-08T14:27:44Z</time>
      </trkpt>
      <trkpt lat="49.87743" lon="4.77789">
        <ele>233</ele>
        <time>2024-05-08T14:27:45Z</time>
      </trkpt>
      <trkpt lat="49.87743" lon="4.77791">
        <ele>231</ele>
        <time>2024-05-08T14:28:02Z</time>
      </trkpt>
      <trkpt lat="49.87743" lon="4.77793">
        <ele>231</ele>
        <time>2024-05-08T14:28:03Z</time>
      </trkpt>
      <trkpt lat="49.87742" lon="4.77794">
        <ele>231</ele>
        <time>2024-05-08T14:28:04Z</time>
      </trkpt>
      <trkpt lat="49.87742" lon="4.77795">
        <ele>231</ele>
        <time>2024-05-08T14:28:05Z</time>
      </trkpt>
      <trkpt lat="49.87742" lon="4.77796">
        <ele>231</ele>
        <time>2024-05-08T14:28:06Z</time>
      </trkpt>
      <trkpt lat="49.87741" lon="4.77796">
        <ele>230</ele>
        <time>2024-05-08T14:28:07Z</time>
      </trkpt>
      <trkpt lat="49.87741" lon="4.77797">
        <ele>230</ele>
        <time>2024-05-08T14:28:08Z</time>
      </trkpt>
      <trkpt lat="49.8774" lon="4.77798">
        <ele>230</ele>
        <time>2024-05-08T14:28:09Z</time>
      </trkpt>
      <trkpt lat="49.8774" lon="4.77799">
        <ele>230</ele>
        <time>2024-05-08T14:28:10Z</time>
      </trkpt>
      <trkpt lat="49.8774" lon="4.778">
        <ele>230</ele>
        <time>2024-05-08T14:28:11Z</time>
      </trkpt>
      <trkpt lat="49.8774" lon="4.77801">
        <ele>229</ele>
        <time>2024-05-08T14:28:12Z</time>
      </trkpt>
      <trkpt lat="49.8774" lon="4.77802">
        <ele>229</ele>
        <time>2024-05-08T14:28:13Z</time>
      </trkpt>
      <trkpt lat="49.8774" lon="4.77804">
        <ele>227</ele>
        <time>2024-05-08T14:28:37Z</time>
      </trkpt>
      <trkpt lat="49.8774" lon="4.77806">
        <ele>227</ele>
        <time>2024-05-08T14:28:38Z</time>
      </trkpt>
      <trkpt lat="49.8774" lon="4.77807">
        <ele>227</ele>
        <time>2024-05-08T14:28:39Z</time>
      </trkpt>
      <trkpt lat="49.8774" lon="4.77808">
        <ele>227</ele>
        <time>2024-05-08T14:28:40Z</time>
      </trkpt>
      <trkpt lat="49.8774" lon="4.77809">
        <ele>227</ele>
        <time>2024-05-08T14:28:41Z</time>
      </trkpt>
      <trkpt lat="49.8774" lon="4.77811">
        <ele>226</ele>
        <time>2024-05-08T14:28:42Z</time>
      </trkpt>
      <trkpt lat="49.8774" lon="4.77812">
        <ele>226</ele>
        <time>2024-05-08T14:28:43Z</time>
      </trkpt>
      <trkpt lat="49.8774" lon="4.77815">
        <ele>225</ele>
        <time>2024-05-08T14:28:50Z</time>
      </trkpt>
      <trkpt lat="49.8774" lon="4.77816">
        <ele>225</ele>
        <time>2024-05-08T14:28:51Z</time>
      </trkpt>
      <trkpt lat="49.87741" lon="4.77817">
        <ele>224</ele>
        <time>2024-05-08T14:28:52Z</time>
      </trkpt>
      <trkpt lat="49.87741" lon="4.77818">
        <ele>224</ele>
        <time>2024-05-08T14:28:53Z</time>
      </trkpt>
      <trkpt lat="49.87742" lon="4.77819">
        <ele>224</ele>
        <time>2024-05-08T14:28:54Z</time>
      </trkpt>
      <trkpt lat="49.87742" lon="4.77819">
        <ele>224</ele>
        <time>2024-05-08T14:28:55Z</time>
      </trkpt>
      <trkpt lat="49.87743" lon="4.77818">
        <ele>224</ele>
        <time>2024-05-08T14:28:56Z</time>
      </trkpt>
      <trkpt lat="49.87743" lon="4.77818">
        <ele>224</ele>
        <time>2024-05-08T14:28:57Z</time>
      </trkpt>
      <trkpt lat="49.87744" lon="4.77817">
        <ele>225</ele>
        <time>2024-05-08T14:29:04Z</time>
      </trkpt>
      <trkpt lat="49.87745" lon="4.77817">
        <ele>225</ele>
        <time>2024-05-08T14:29:05Z</time>
      </trkpt>
      <trkpt lat="49.87745" lon="4.77816">
        <ele>225</ele>
        <time>2024-05-08T14:29:06Z</time>
      </trkpt>
      <trkpt lat="49.87746" lon="4.77815">
        <ele>225</ele>
        <time>2024-05-08T14:29:07Z</time>
      </trkpt>
      <trkpt lat="49.87747" lon="4.77814">
        <ele>225</ele>
        <time>2024-05-08T14:29:08Z</time>
      </trkpt>
      <trkpt lat="49.87747" lon="4.77814">
        <ele>225</ele>
        <time>2024-05-08T14:29:09Z</time>
      </trkpt>
      <trkpt lat="49.87748" lon="4.77813">
        <ele>225</ele>
        <time>2024-05-08T14:29:10Z</time>
      </trkpt>
      <trkpt lat="49.8775" lon="4.77815">
        <ele>224</ele>
        <time>2024-05-08T14:30:06Z</time>
      </trkpt>
      <trkpt lat="49.87751" lon="4.77816">
        <ele>223</ele>
        <time>2024-05-08T14:30:07Z</time>
      </trkpt>
      <trkpt lat="49.87751" lon="4.77817">
        <ele>223</ele>
        <time>2024-05-08T14:30:08Z</time>
      </trkpt>
      <trkpt lat="49.87752" lon="4.77818">
        <ele>223</ele>
        <time>2024-05-08T14:30:09Z</time>
      </trkpt>
      <trkpt lat="49.87752" lon="4.77819">
        <ele>223</ele>
        <time>2024-05-08T14:30:10Z</time>
      </trkpt>
      <trkpt lat="49.87753" lon="4.77825">
        <ele>217</ele>
        <time>2024-05-08T14:31:02Z</time>
      </trkpt>
      <trkpt lat="49.87753" lon="4.77828">
        <ele>217</ele>
        <time>2024-05-08T14:31:03Z</time>
      </trkpt>
      <trkpt lat="49.87754" lon="4.77832">
        <ele>217</ele>
        <time>2024-05-08T14:31:04Z</time>
      </trkpt>
      <trkpt lat="49.87754" lon="4.77833">
        <ele>217</ele>
        <time>2024-05-08T14:31:05Z</time>
      </trkpt>
      <trkpt lat="49.87754" lon="4.77835">
        <ele>217</ele>
        <time>2024-05-08T14:31:06Z</time>
      </trkpt>
      <trkpt lat="49.87754" lon="4.77836">
        <ele>216</ele>
        <time>2024-05-08T14:31:07Z</time>
      </trkpt>
      <trkpt lat="49.87755" lon="4.77839">
        <ele>215</ele>
        <time>2024-05-08T14:31:13Z</time>
      </trkpt>
      <trkpt lat="49.87755" lon="4.7784">
        <ele>215</ele>
        <time>2024-05-08T14:31:14Z</time>
      </trkpt>
      <trkpt lat="49.87756" lon="4.77841">
        <ele>215</ele>
        <time>2024-05-08T14:31:15Z</time>
      </trkpt>
      <trkpt lat="49.87756" lon="4.77842">
        <ele>215</ele>
        <time>2024-05-08T14:31:16Z</time>
      </trkpt>
      <trkpt lat="49.87756" lon="4.77842">
        <ele>214</ele>
        <time>2024-05-08T14:31:17Z</time>
      </trkpt>
      <trkpt lat="49.87756" lon="4.77845">
        <ele>213</ele>
        <time>2024-05-08T14:31:31Z</time>
      </trkpt>
      <trkpt lat="49.87756" lon="4.77847">
        <ele>212</ele>
        <time>2024-05-08T14:31:32Z</time>
      </trkpt>
      <trkpt lat="49.87756" lon="4.77848">
        <ele>212</ele>
        <time>2024-05-08T14:31:33Z</time>
      </trkpt>
      <trkpt lat="49.87756" lon="4.7785">
        <ele>212</ele>
        <time>2024-05-08T14:31:34Z</time>
      </trkpt>
      <trkpt lat="49.87756" lon="4.77851">
        <ele>212</ele>
        <time>2024-05-08T14:31:35Z</time>
      </trkpt>
      <trkpt lat="49.87756" lon="4.77852">
        <ele>212</ele>
        <time>2024-05-08T14:31:36Z</time>
      </trkpt>
      <trkpt lat="49.87756" lon="4.77853">
        <ele>211</ele>
        <time>2024-05-08T14:31:37Z</time>
      </trkpt>
      <trkpt lat="49.87756" lon="4.77854">
        <ele>211</ele>
        <time>2024-05-08T14:31:38Z</time>
      </trkpt>
      <trkpt lat="49.87756" lon="4.77854">
        <ele>211</ele>
        <time>2024-05-08T14:31:39Z</time>
      </trkpt>
      <trkpt lat="49.87756" lon="4.77855">
        <ele>211</ele>
        <time>2024-05-08T14:31:40Z</time>
      </trkpt>
      <trkpt lat="49.87756" lon="4.77855">
        <ele>211</ele>
        <time>2024-05-08T14:31:41Z</time>
      </trkpt>
      <trkpt lat="49.87757" lon="4.77856">
        <ele>210</ele>
        <time>2024-05-08T14:31:42Z</time>
      </trkpt>
      <trkpt lat="49.87757" lon="4.77856">
        <ele>210</ele>
        <time>2024-05-08T14:31:43Z</time>
      </trkpt>
      <trkpt lat="49.87758" lon="4.77857">
        <ele>210</ele>
        <time>2024-05-08T14:31:44Z</time>
      </trkpt>
      <trkpt lat="49.87758" lon="4.77857">
        <ele>210</ele>
        <time>2024-05-08T14:31:45Z</time>
      </trkpt>
      <trkpt lat="49.87758" lon="4.77858">
        <ele>210</ele>
        <time>2024-05-08T14:31:46Z</time>
      </trkpt>
      <trkpt lat="49.87759" lon="4.77859">
        <ele>209</ele>
        <time>2024-05-08T14:31:47Z</time>
      </trkpt>
      <trkpt lat="49.87759" lon="4.7786">
        <ele>209</ele>
        <time>2024-05-08T14:31:48Z</time>
      </trkpt>
      <trkpt lat="49.87759" lon="4.77861">
        <ele>209</ele>
        <time>2024-05-08T14:31:49Z</time>
      </trkpt>
      <trkpt lat="49.87759" lon="4.77861">
        <ele>209</ele>
        <time>2024-05-08T14:31:50Z</time>
      </trkpt>
      <trkpt lat="49.87759" lon="4.77862">
        <ele>209</ele>
        <time>2024-05-08T14:31:51Z</time>
      </trkpt>
      <trkpt lat="49.87759" lon="4.77863">
        <ele>208</ele>
        <time>2024-05-08T14:31:52Z</time>
      </trkpt>
      <trkpt lat="49.87759" lon="4.77863">
        <ele>208</ele>
        <time>2024-05-08T14:31:53Z</time>
      </trkpt>
      <trkpt lat="49.87759" lon="4.77864">
        <ele>208</ele>
        <time>2024-05-08T14:31:54Z</time>
      </trkpt>
      <trkpt lat="49.87759" lon="4.77864">
        <ele>208</ele>
        <time>2024-05-08T14:31:55Z</time>
      </trkpt>
      <trkpt lat="49.8776" lon="4.77865">
        <ele>208</ele>
        <time>2024-05-08T14:31:56Z</time>
      </trkpt>
      <trkpt lat="49.8776" lon="4.77866">
        <ele>207</ele>
        <time>2024-05-08T14:31:57Z</time>
      </trkpt>
      <trkpt lat="49.8776" lon="4.77867">
        <ele>207</ele>
        <time>2024-05-08T14:31:58Z</time>
      </trkpt>
      <trkpt lat="49.8776" lon="4.77869">
        <ele>206</ele>
        <time>2024-05-08T14:32:06Z</time>
      </trkpt>
      <trkpt lat="49.87761" lon="4.7787">
        <ele>205</ele>
        <time>2024-05-08T14:32:07Z</time>
      </trkpt>
      <trkpt lat="49.87761" lon="4.7787">
        <ele>205</ele>
        <time>2024-05-08T14:32:08Z</time>
      </trkpt>
      <trkpt lat="49.87761" lon="4.77872">
        <ele>205</ele>
        <time>2024-05-08T14:32:14Z</time>
      </trkpt>
      <trkpt lat="49.87761" lon="4.77874">
        <ele>205</ele>
        <time>2024-05-08T14:32:15Z</time>
      </trkpt>
      <trkpt lat="49.87762" lon="4.77875">
        <ele>205</ele>
        <time>2024-05-08T14:32:16Z</time>
      </trkpt>
      <trkpt lat="49.87762" lon="4.77876">
        <ele>204</ele>
        <time>2024-05-08T14:32:17Z</time>
      </trkpt>
      <trkpt lat="49.87762" lon="4.77877">
        <ele>204</ele>
        <time>2024-05-08T14:32:18Z</time>
      </trkpt>
      <trkpt lat="49.87762" lon="4.77879">
        <ele>203</ele>
        <time>2024-05-08T14:32:19Z</time>
      </trkpt>
      <trkpt lat="49.87762" lon="4.7788">
        <ele>203</ele>
        <time>2024-05-08T14:32:20Z</time>
      </trkpt>
      <trkpt lat="49.87762" lon="4.77881">
        <ele>203</ele>
        <time>2024-05-08T14:32:21Z</time>
      </trkpt>
      <trkpt lat="49.87763" lon="4.77882">
        <ele>202</ele>
        <time>2024-05-08T14:32:22Z</time>
      </trkpt>
      <trkpt lat="49.87763" lon="4.77882">
        <ele>202</ele>
        <time>2024-05-08T14:32:23Z</time>
      </trkpt>
      <trkpt lat="49.87763" lon="4.77883">
        <ele>202</ele>
        <time>2024-05-08T14:32:24Z</time>
      </trkpt>
      <trkpt lat="49.87763" lon="4.77884">
        <ele>202</ele>
        <time>2024-05-08T14:32:25Z</time>
      </trkpt>
      <trkpt lat="49.87764" lon="4.77884">
        <ele>202</ele>
        <time>2024-05-08T14:32:26Z</time>
      </trkpt>
      <trkpt lat="49.87764" lon="4.77884">
        <ele>201</ele>
        <time>2024-05-08T14:32:27Z</time>
      </trkpt>
      <trkpt lat="49.87764" lon="4.77885">
        <ele>201</ele>
        <time>2024-05-08T14:32:28Z</time>
      </trkpt>
      <trkpt lat="49.87764" lon="4.77885">
        <ele>201</ele>
        <time>2024-05-08T14:32:29Z</time>
      </trkpt>
      <trkpt lat="49.87764" lon="4.77886">
        <ele>201</ele>
        <time>2024-05-08T14:32:30Z</time>
      </trkpt>
      <trkpt lat="49.87764" lon="4.77887">
        <ele>201</ele>
        <time>2024-05-08T14:32:31Z</time>
      </trkpt>
      <trkpt lat="49.87764" lon="4.77888">
        <ele>200</ele>
        <time>2024-05-08T14:32:32Z</time>
      </trkpt>
      <trkpt lat="49.87764" lon="4.77888">
        <ele>200</ele>
        <time>2024-05-08T14:32:33Z</time>
      </trkpt>
      <trkpt lat="49.87763" lon="4.77889">
        <ele>200</ele>
        <time>2024-05-08T14:32:34Z</time>
      </trkpt>
      <trkpt lat="49.87764" lon="4.7789">
        <ele>200</ele>
        <time>2024-05-08T14:32:35Z</time>
      </trkpt>
      <trkpt lat="49.87764" lon="4.77891">
        <ele>200</ele>
        <time>2024-05-08T14:32:36Z</time>
      </trkpt>
      <trkpt lat="49.87764" lon="4.77894">
        <ele>198</ele>
        <time>2024-05-08T14:32:45Z</time>
      </trkpt>
      <trkpt lat="49.87765" lon="4.77895">
        <ele>198</ele>
        <time>2024-05-08T14:32:46Z</time>
      </trkpt>
      <trkpt lat="49.87765" lon="4.77896">
        <ele>197</ele>
        <time>2024-05-08T14:32:47Z</time>
      </trkpt>
      <trkpt lat="49.87765" lon="4.77897">
        <ele>197</ele>
        <time>2024-05-08T14:32:48Z</time>
      </trkpt>
      <trkpt lat="49.87766" lon="4.77898">
        <ele>197</ele>
        <time>2024-05-08T14:32:49Z</time>
      </trkpt>
      <trkpt lat="49.87766" lon="4.77901">
        <ele>195</ele>
        <time>2024-05-08T14:32:59Z</time>
      </trkpt>
      <trkpt lat="49.87766" lon="4.77903">
        <ele>195</ele>
        <time>2024-05-08T14:33:00Z</time>
      </trkpt>
      <trkpt lat="49.87766" lon="4.77905">
        <ele>195</ele>
        <time>2024-05-08T14:33:01Z</time>
      </trkpt>
      <trkpt lat="49.87766" lon="4.77906">
        <ele>195</ele>
        <time>2024-05-08T14:33:02Z</time>
      </trkpt>
      <trkpt lat="49.87765" lon="4.77907">
        <ele>195</ele>
        <time>2024-05-08T14:33:03Z</time>
      </trkpt>
      <trkpt lat="49.87765" lon="4.77908">
        <ele>195</ele>
        <time>2024-05-08T14:33:04Z</time>
      </trkpt>
      <trkpt lat="49.87765" lon="4.77909">
        <ele>195</ele>
        <time>2024-05-08T14:33:05Z</time>
      </trkpt>
      <trkpt lat="49.87765" lon="4.7791">
        <ele>195</ele>
        <time>2024-05-08T14:33:06Z</time>
      </trkpt>
      <trkpt lat="49.87765" lon="4.77911">
        <ele>194</ele>
        <time>2024-05-08T14:33:07Z</time>
      </trkpt>
      <trkpt lat="49.87765" lon="4.77912">
        <ele>194</ele>
        <time>2024-05-08T14:33:08Z</time>
      </trkpt>
      <trkpt lat="49.87765" lon="4.77913">
        <ele>193</ele>
        <time>2024-05-08T14:33:09Z</time>
      </trkpt>
      <trkpt lat="49.87765" lon="4.77915">
        <ele>193</ele>
        <time>2024-05-08T14:33:10Z</time>
      </trkpt>
      <trkpt lat="49.87765" lon="4.77916">
        <ele>193</ele>
        <time>2024-05-08T14:33:11Z</time>
      </trkpt>
      <trkpt lat="49.87764" lon="4.77917">
        <ele>192</ele>
        <time>2024-05-08T14:33:12Z</time>
      </trkpt>
      <trkpt lat="49.87764" lon="4.77919">
        <ele>192</ele>
        <time>2024-05-08T14:33:13Z</time>
      </trkpt>
      <trkpt lat="49.87764" lon="4.77919">
        <ele>192</ele>
        <time>2024-05-08T14:33:14Z</time>
      </trkpt>
      <trkpt lat="49.87763" lon="4.7792">
        <ele>192</ele>
        <time>2024-05-08T14:33:15Z</time>
      </trkpt>
      <trkpt lat="49.87763" lon="4.77921">
        <ele>192</ele>
        <time>2024-05-08T14:33:16Z</time>
      </trkpt>
      <trkpt lat="49.87763" lon="4.77922">
        <ele>191</ele>
        <time>2024-05-08T14:33:17Z</time>
      </trkpt>
      <trkpt lat="49.87763" lon="4.77923">
        <ele>191</ele>
        <time>2024-05-08T14:33:18Z</time>
      </trkpt>
      <trkpt lat="49.87763" lon="4.77923">
        <ele>191</ele>
        <time>2024-05-08T14:33:19Z</time>
      </trkpt>
      <trkpt lat="49.87763" lon="4.77924">
        <ele>191</ele>
        <time>2024-05-08T14:33:20Z</time>
      </trkpt>
      <trkpt lat="49.87763" lon="4.77925">
        <ele>191</ele>
        <time>2024-05-08T14:33:21Z</time>
      </trkpt>
      <trkpt lat="49.87763" lon="4.77926">
        <ele>190</ele>
        <time>2024-05-08T14:33:22Z</time>
      </trkpt>
      <trkpt lat="49.87764" lon="4.77926">
        <ele>190</ele>
        <time>2024-05-08T14:33:23Z</time>
      </trkpt>
      <trkpt lat="49.87765" lon="4.77929">
        <ele>189</ele>
        <time>2024-05-08T14:33:55Z</time>
      </trkpt>
      <trkpt lat="49.87765" lon="4.7793">
        <ele>189</ele>
        <time>2024-05-08T14:33:56Z</time>
      </trkpt>
      <trkpt lat="49.87765" lon="4.77931">
        <ele>189</ele>
        <time>2024-05-08T14:33:57Z</time>
      </trkpt>
      <trkpt lat="49.87765" lon="4.77932">
        <ele>189</ele>
        <time>2024-05-08T14:33:58Z</time>
      </trkpt>
      <trkpt lat="49.87765" lon="4.77933">
        <ele>189</ele>
        <time>2024-05-08T14:33:59Z</time>
      </trkpt>
      <trkpt lat="49.87765" lon="4.77934">
        <ele>189</ele>
        <time>2024-05-08T14:34:00Z</time>
      </trkpt>
      <trkpt lat="49.87765" lon="4.77935">
        <ele>189</ele>
        <time>2024-05-08T14:34:01Z</time>
      </trkpt>
      <trkpt lat="49.87765" lon="4.77937">
        <ele>188</ele>
        <time>2024-05-08T14:34:02Z</time>
      </trkpt>
      <trkpt lat="49.87765" lon="4.77938">
        <ele>188</ele>
        <time>2024-05-08T14:34:03Z</time>
      </trkpt>
      <trkpt lat="49.87765" lon="4.7794">
        <ele>188</ele>
        <time>2024-05-08T14:34:04Z</time>
      </trkpt>
      <trkpt lat="49.87764" lon="4.77941">
        <ele>188</ele>
        <time>2024-05-08T14:34:05Z</time>
      </trkpt>
      <trkpt lat="49.87764" lon="4.77943">
        <ele>188</ele>
        <time>2024-05-08T14:34:06Z</time>
      </trkpt>
      <trkpt lat="49.87763" lon="4.77944">
        <ele>188</ele>
        <time>2024-05-08T14:34:07Z</time>
      </trkpt>
      <trkpt lat="49.87763" lon="4.77946">
        <ele>188</ele>
        <time>2024-05-08T14:34:08Z</time>
      </trkpt>
      <trkpt lat="49.87762" lon="4.77947">
        <ele>188</ele>
        <time>2024-05-08T14:34:09Z</time>
      </trkpt>
      <trkpt lat="49.87762" lon="4.77948">
        <ele>188</ele>
        <time>2024-05-08T14:34:10Z</time>
      </trkpt>
      <trkpt lat="49.87761" lon="4.77949">
        <ele>188</ele>
        <time>2024-05-08T14:34:11Z</time>
      </trkpt>
      <trkpt lat="49.8776" lon="4.7795">
        <ele>188</ele>
        <time>2024-05-08T14:34:12Z</time>
      </trkpt>
      <trkpt lat="49.8776" lon="4.77951">
        <ele>188</ele>
        <time>2024-05-08T14:34:13Z</time>
      </trkpt>
      <trkpt lat="49.87759" lon="4.77952">
        <ele>188</ele>
        <time>2024-05-08T14:34:14Z</time>
      </trkpt>
      <trkpt lat="49.87758" lon="4.77952">
        <ele>188</ele>
        <time>2024-05-08T14:34:15Z</time>
      </trkpt>
      <trkpt lat="49.87758" lon="4.77953">
        <ele>188</ele>
        <time>2024-05-08T14:34:16Z</time>
      </trkpt>
      <trkpt lat="49.87757" lon="4.77954">
        <ele>188</ele>
        <time>2024-05-08T14:34:17Z</time>
      </trkpt>
      <trkpt lat="49.87756" lon="4.77955">
        <ele>188</ele>
        <time>2024-05-08T14:34:18Z</time>
      </trkpt>
      <trkpt lat="49.87755" lon="4.77956">
        <ele>188</ele>
        <time>2024-05-08T14:34:19Z</time>
      </trkpt>
      <trkpt lat="49.87754" lon="4.77957">
        <ele>188</ele>
        <time>2024-05-08T14:34:20Z</time>
      </trkpt>
      <trkpt lat="49.87754" lon="4.77957">
        <ele>188</ele>
        <time>2024-05-08T14:34:21Z</time>
      </trkpt>
      <trkpt lat="49.87753" lon="4.77958">
        <ele>188</ele>
        <time>2024-05-08T14:34:22Z</time>
      </trkpt>
      <trkpt lat="49.87753" lon="4.77958">
        <ele>188</ele>
        <time>2024-05-08T14:34:23Z</time>
      </trkpt>
      <trkpt lat="49.87752" lon="4.77959">
        <ele>188</ele>
        <time>2024-05-08T14:34:24Z</time>
      </trkpt>
      <trkpt lat="49.87752" lon="4.77959">
        <ele>188</ele>
        <time>2024-05-08T14:34:25Z</time>
      </trkpt>
      <trkpt lat="49.87751" lon="4.7796">
        <ele>188</ele>
        <time>2024-05-08T14:34:26Z</time>
      </trkpt>
      <trkpt lat="49.87751" lon="4.7796">
        <ele>188</ele>
        <time>2024-05-08T14:34:27Z</time>
      </trkpt>
      <trkpt lat="49.8775" lon="4.77961">
        <ele>188</ele>
        <time>2024-05-08T14:34:28Z</time>
      </trkpt>
      <trkpt lat="49.8775" lon="4.77962">
        <ele>188</ele>
        <time>2024-05-08T14:34:29Z</time>
      </trkpt>
      <trkpt lat="49.87749" lon="4.77963">
        <ele>188</ele>
        <time>2024-05-08T14:34:30Z</time>
      </trkpt>
      <trkpt lat="49.87748" lon="4.77964">
        <ele>189</ele>
        <time>2024-05-08T14:34:31Z</time>
      </trkpt>
      <trkpt lat="49.87746" lon="4.77965">
        <ele>189</ele>
        <time>2024-05-08T14:34:32Z</time>
      </trkpt>
      <trkpt lat="49.87745" lon="4.77966">
        <ele>189</ele>
        <time>2024-05-08T14:34:33Z</time>
      </trkpt>
      <trkpt lat="49.87744" lon="4.77967">
        <ele>189</ele>
        <time>2024-05-08T14:34:34Z</time>
      </trkpt>
      <trkpt lat="49.87742" lon="4.77968">
        <ele>189</ele>
        <time>2024-05-08T14:34:35Z</time>
      </trkpt>
      <trkpt lat="49.87741" lon="4.77969">
        <ele>189</ele>
        <time>2024-05-08T14:34:36Z</time>
      </trkpt>
      <trkpt lat="49.8774" lon="4.7797">
        <ele>189</ele>
        <time>2024-05-08T14:34:37Z</time>
      </trkpt>
      <trkpt lat="49.87739" lon="4.7797">
        <ele>189</ele>
        <time>2024-05-08T14:34:38Z</time>
      </trkpt>
      <trkpt lat="49.87739" lon="4.7797">
        <ele>189</ele>
        <time>2024-05-08T14:34:39Z</time>
      </trkpt>
      <trkpt lat="49.87739" lon="4.7797">
        <ele>189</ele>
        <time>2024-05-08T14:34:40Z</time>
      </trkpt>
      <trkpt lat="49.87738" lon="4.7797">
        <ele>189</ele>
        <time>2024-05-08T14:34:41Z</time>
      </trkpt>
      <trkpt lat="49.87738" lon="4.77971">
        <ele>189</ele>
        <time>2024-05-08T14:34:42Z</time>
      </trkpt>
      <trkpt lat="49.87737" lon="4.77972">
        <ele>189</ele>
        <time>2024-05-08T14:34:43Z</time>
      </trkpt>
      <trkpt lat="49.87737" lon="4.77973">
        <ele>189</ele>
        <time>2024-05-08T14:34:44Z</time>
      </trkpt>
      <trkpt lat="49.87736" lon="4.77974">
        <ele>189</ele>
        <time>2024-05-08T14:34:45Z</time>
      </trkpt>
      <trkpt lat="49.87736" lon="4.77975">
        <ele>189</ele>
        <time>2024-05-08T14:34:46Z</time>
      </trkpt>
      <trkpt lat="49.87735" lon="4.77976">
        <ele>189</ele>
        <time>2024-05-08T14:34:47Z</time>
      </trkpt>
      <trkpt lat="49.87734" lon="4.77978">
        <ele>189</ele>
        <time>2024-05-08T14:34:48Z</time>
      </trkpt>
      <trkpt lat="49.87734" lon="4.77979">
        <ele>189</ele>
        <time>2024-05-08T14:34:49Z</time>
      </trkpt>
      <trkpt lat="49.87733" lon="4.77981">
        <ele>189</ele>
        <time>2024-05-08T14:34:50Z</time>
      </trkpt>
      <trkpt lat="49.87732" lon="4.77982">
        <ele>190</ele>
        <time>2024-05-08T14:34:51Z</time>
      </trkpt>
      <trkpt lat="49.87731" lon="4.77983">
        <ele>190</ele>
        <time>2024-05-08T14:34:52Z</time>
      </trkpt>
      <trkpt lat="49.8773" lon="4.77984">
        <ele>190</ele>
        <time>2024-05-08T14:34:53Z</time>
      </trkpt>
      <trkpt lat="49.87729" lon="4.77984">
        <ele>190</ele>
        <time>2024-05-08T14:34:54Z</time>
      </trkpt>
      <trkpt lat="49.87728" lon="4.77985">
        <ele>190</ele>
        <time>2024-05-08T14:34:55Z</time>
      </trkpt>
      <trkpt lat="49.87728" lon="4.77985">
        <ele>191</ele>
        <time>2024-05-08T14:34:56Z</time>
      </trkpt>
      <trkpt lat="49.87727" lon="4.77986">
        <ele>191</ele>
        <time>2024-05-08T14:34:57Z</time>
      </trkpt>
      <trkpt lat="49.87726" lon="4.77986">
        <ele>191</ele>
        <time>2024-05-08T14:34:58Z</time>
      </trkpt>
      <trkpt lat="49.87725" lon="4.77987">
        <ele>191</ele>
        <time>2024-05-08T14:34:59Z</time>
      </trkpt>
      <trkpt lat="49.87725" lon="4.77987">
        <ele>191</ele>
        <time>2024-05-08T14:35:00Z</time>
      </trkpt>
      <trkpt lat="49.87724" lon="4.77987">
        <ele>192</ele>
        <time>2024-05-08T14:35:01Z</time>
      </trkpt>
      <trkpt lat="49.87723" lon="4.77988">
        <ele>192</ele>
        <time>2024-05-08T14:35:02Z</time>
      </trkpt>
      <trkpt lat="49.87722" lon="4.77988">
        <ele>192</ele>
        <time>2024-05-08T14:35:03Z</time>
      </trkpt>
      <trkpt lat="49.87721" lon="4.77988">
        <ele>192</ele>
        <time>2024-05-08T14:35:04Z</time>
      </trkpt>
      <trkpt lat="49.8772" lon="4.77989">
        <ele>192</ele>
        <time>2024-05-08T14:35:05Z</time>
      </trkpt>
      <trkpt lat="49.87718" lon="4.7799">
        <ele>192</ele>
        <time>2024-05-08T14:35:06Z</time>
      </trkpt>
      <trkpt lat="49.87717" lon="4.7799">
        <ele>192</ele>
        <time>2024-05-08T14:35:07Z</time>
      </trkpt>
      <trkpt lat="49.87716" lon="4.77991">
        <ele>192</ele>
        <time>2024-05-08T14:35:08Z</time>
      </trkpt>
      <trkpt lat="49.87714" lon="4.77992">
        <ele>192</ele>
        <time>2024-05-08T14:35:09Z</time>
      </trkpt>
      <trkpt lat="49.87713" lon="4.77993">
        <ele>192</ele>
        <time>2024-05-08T14:35:10Z</time>
      </trkpt>
      <trkpt lat="49.87712" lon="4.77994">
        <ele>192</ele>
        <time>2024-05-08T14:35:11Z</time>
      </trkpt>
      <trkpt lat="49.87711" lon="4.77995">
        <ele>192</ele>
        <time>2024-05-08T14:35:12Z</time>
      </trkpt>
      <trkpt lat="49.8771" lon="4.77995">
        <ele>192</ele>
        <time>2024-05-08T14:35:13Z</time>
      </trkpt>
      <trkpt lat="49.87709" lon="4.77996">
        <ele>192</ele>
        <time>2024-05-08T14:35:14Z</time>
      </trkpt>
      <trkpt lat="49.87708" lon="4.77997">
        <ele>192</ele>
        <time>2024-05-08T14:35:15Z</time>
      </trkpt>
      <trkpt lat="49.87707" lon="4.77997">
        <ele>193</ele>
        <time>2024-05-08T14:35:16Z</time>
      </trkpt>
      <trkpt lat="49.87707" lon="4.77998">
        <ele>192</ele>
        <time>2024-05-08T14:35:17Z</time>
      </trkpt>
      <trkpt lat="49.87706" lon="4.77998">
        <ele>192</ele>
        <time>2024-05-08T14:35:18Z</time>
      </trkpt>
      <trkpt lat="49.87705" lon="4.77999">
        <ele>192</ele>
        <time>2024-05-08T14:35:19Z</time>
      </trkpt>
      <trkpt lat="49.87704" lon="4.78">
        <ele>192</ele>
        <time>2024-05-08T14:35:20Z</time>
      </trkpt>
      <trkpt lat="49.87704" lon="4.78001">
        <ele>192</ele>
        <time>2024-05-08T14:35:21Z</time>
      </trkpt>
      <trkpt lat="49.87703" lon="4.78003">
        <ele>192</ele>
        <time>2024-05-08T14:35:22Z</time>
      </trkpt>
      <trkpt lat="49.87703" lon="4.78004">
        <ele>192</ele>
        <time>2024-05-08T14:35:23Z</time>
      </trkpt>
      <trkpt lat="49.87702" lon="4.78006">
        <ele>192</ele>
        <time>2024-05-08T14:35:24Z</time>
      </trkpt>
      <trkpt lat="49.87701" lon="4.78007">
        <ele>192</ele>
        <time>2024-05-08T14:35:25Z</time>
      </trkpt>
      <trkpt lat="49.87701" lon="4.78008">
        <ele>192</ele>
        <time>2024-05-08T14:35:26Z</time>
      </trkpt>
      <trkpt lat="49.877" lon="4.7801">
        <ele>192</ele>
        <time>2024-05-08T14:35:27Z</time>
      </trkpt>
      <trkpt lat="49.877" lon="4.78011">
        <ele>192</ele>
        <time>2024-05-08T14:35:28Z</time>
      </trkpt>
      <trkpt lat="49.87699" lon="4.78012">
        <ele>192</ele>
        <time>2024-05-08T14:35:29Z</time>
      </trkpt>
      <trkpt lat="49.87698" lon="4.78013">
        <ele>192</ele>
        <time>2024-05-08T14:35:30Z</time>
      </trkpt>
      <trkpt lat="49.87698" lon="4.78014">
        <ele>192</ele>
        <time>2024-05-08T14:35:31Z</time>
      </trkpt>
      <trkpt lat="49.87697" lon="4.78015">
        <ele>191</ele>
        <time>2024-05-08T14:35:32Z</time>
      </trkpt>
      <trkpt lat="49.87697" lon="4.78016">
        <ele>191</ele>
        <time>2024-05-08T14:35:33Z</time>
      </trkpt>
      <trkpt lat="49.87696" lon="4.78017">
        <ele>191</ele>
        <time>2024-05-08T14:35:34Z</time>
      </trkpt>
      <trkpt lat="49.87696" lon="4.78018">
        <ele>191</ele>
        <time>2024-05-08T14:35:35Z</time>
      </trkpt>
      <trkpt lat="49.87696" lon="4.78019">
        <ele>191</ele>
        <time>2024-05-08T14:35:36Z</time>
      </trkpt>
      <trkpt lat="49.87697" lon="4.78021">
        <ele>191</ele>
        <time>2024-05-08T14:35:37Z</time>
      </trkpt>
      <trkpt lat="49.87697" lon="4.78022">
        <ele>191</ele>
        <time>2024-05-08T14:35:38Z</time>
      </trkpt>
      <trkpt lat="49.87697" lon="4.78023">
        <ele>191</ele>
        <time>2024-05-08T14:35:39Z</time>
      </trkpt>
      <trkpt lat="49.87698" lon="4.78025">
        <ele>191</ele>
        <time>2024-05-08T14:35:40Z</time>
      </trkpt>
      <trkpt lat="49.87698" lon="4.78026">
        <ele>191</ele>
        <time>2024-05-08T14:35:41Z</time>
      </trkpt>
      <trkpt lat="49.87699" lon="4.78027">
        <ele>191</ele>
        <time>2024-05-08T14:35:42Z</time>
      </trkpt>
      <trkpt lat="49.87699" lon="4.78029">
        <ele>191</ele>
        <time>2024-05-08T14:35:43Z</time>
      </trkpt>
      <trkpt lat="49.87699" lon="4.78031">
        <ele>191</ele>
        <time>2024-05-08T14:35:44Z</time>
      </trkpt>
      <trkpt lat="49.87699" lon="4.78032">
        <ele>191</ele>
        <time>2024-05-08T14:35:45Z</time>
      </trkpt>
      <trkpt lat="49.87699" lon="4.78034">
        <ele>191</ele>
        <time>2024-05-08T14:35:46Z</time>
      </trkpt>
      <trkpt lat="49.87699" lon="4.78035">
        <ele>191</ele>
        <time>2024-05-08T14:35:47Z</time>
      </trkpt>
      <trkpt lat="49.87699" lon="4.78037">
        <ele>191</ele>
        <time>2024-05-08T14:35:48Z</time>
      </trkpt>
      <trkpt lat="49.87699" lon="4.78039">
        <ele>191</ele>
        <time>2024-05-08T14:35:49Z</time>
      </trkpt>
      <trkpt lat="49.877" lon="4.7804">
        <ele>191</ele>
        <time>2024-05-08T14:35:50Z</time>
      </trkpt>
      <trkpt lat="49.877" lon="4.78042">
        <ele>191</ele>
        <time>2024-05-08T14:35:51Z</time>
      </trkpt>
      <trkpt lat="49.877" lon="4.78043">
        <ele>191</ele>
        <time>2024-05-08T14:35:52Z</time>
      </trkpt>
      <trkpt lat="49.87701" lon="4.78045">
        <ele>191</ele>
        <time>2024-05-08T14:35:53Z</time>
      </trkpt>
      <trkpt lat="49.87702" lon="4.78047">
        <ele>191</ele>
        <time>2024-05-08T14:35:54Z</time>
      </trkpt>
      <trkpt lat="49.87702" lon="4.78049">
        <ele>191</ele>
        <time>2024-05-08T14:35:55Z</time>
      </trkpt>
      <trkpt lat="49.87702" lon="4.7805">
        <ele>191</ele>
        <time>2024-05-08T14:35:56Z</time>
      </trkpt>
      <trkpt lat="49.87703" lon="4.78052">
        <ele>190</ele>
        <time>2024-05-08T14:35:57Z</time>
      </trkpt>
      <trkpt lat="49.87703" lon="4.78053">
        <ele>190</ele>
        <time>2024-05-08T14:35:58Z</time>
      </trkpt>
      <trkpt lat="49.87703" lon="4.78055">
        <ele>190</ele>
        <time>2024-05-08T14:35:59Z</time>
      </trkpt>
      <trkpt lat="49.87704" lon="4.78056">
        <ele>190</ele>
        <time>2024-05-08T14:36:00Z</time>
      </trkpt>
      <trkpt lat="49.87704" lon="4.78057">
        <ele>190</ele>
        <time>2024-05-08T14:36:01Z</time>
      </trkpt>
      <trkpt lat="49.87704" lon="4.78058">
        <ele>190</ele>
        <time>2024-05-08T14:36:02Z</time>
      </trkpt>
      <trkpt lat="49.87704" lon="4.78059">
        <ele>190</ele>
        <time>2024-05-08T14:36:03Z</time>
      </trkpt>
      <trkpt lat="49.87704" lon="4.78061">
        <ele>190</ele>
        <time>2024-05-08T14:36:04Z</time>
      </trkpt>
      <trkpt lat="49.87704" lon="4.78062">
        <ele>190</ele>
        <time>2024-05-08T14:36:05Z</time>
      </trkpt>
      <trkpt lat="49.87703" lon="4.78063">
        <ele>190</ele>
        <time>2024-05-08T14:36:06Z</time>
      </trkpt>
      <trkpt lat="49.87703" lon="4.78064">
        <ele>190</ele>
        <time>2024-05-08T14:36:07Z</time>
      </trkpt>
      <trkpt lat="49.87703" lon="4.78066">
        <ele>190</ele>
        <time>2024-05-08T14:36:08Z</time>
      </trkpt>
      <trkpt lat="49.87702" lon="4.78067">
        <ele>190</ele>
        <time>2024-05-08T14:36:09Z</time>
      </trkpt>
      <trkpt lat="49.87702" lon="4.78068">
        <ele>190</ele>
        <time>2024-05-08T14:36:10Z</time>
      </trkpt>
      <trkpt lat="49.87702" lon="4.7807">
        <ele>191</ele>
        <time>2024-05-08T14:36:11Z</time>
      </trkpt>
      <trkpt lat="49.87701" lon="4.78071">
        <ele>191</ele>
        <time>2024-05-08T14:36:12Z</time>
      </trkpt>
      <trkpt lat="49.87701" lon="4.78072">
        <ele>191</ele>
        <time>2024-05-08T14:36:13Z</time>
      </trkpt>
      <trkpt lat="49.877" lon="4.78074">
        <ele>191</ele>
        <time>2024-05-08T14:36:14Z</time>
      </trkpt>
      <trkpt lat="49.877" lon="4.78075">
        <ele>191</ele>
        <time>2024-05-08T14:36:20Z</time>
      </trkpt>
      <trkpt lat="49.877" lon="4.78076">
        <ele>191</ele>
        <time>2024-05-08T14:36:21Z</time>
      </trkpt>
      <trkpt lat="49.87699" lon="4.78077">
        <ele>191</ele>
        <time>2024-05-08T14:36:22Z</time>
      </trkpt>
      <trkpt lat="49.87699" lon="4.78078">
        <ele>191</ele>
        <time>2024-05-08T14:36:23Z</time>
      </trkpt>
      <trkpt lat="49.87699" lon="4.78079">
        <ele>191</ele>
        <time>2024-05-08T14:36:24Z</time>
      </trkpt>
      <trkpt lat="49.87699" lon="4.7808">
        <ele>191</ele>
        <time>2024-05-08T14:36:25Z</time>
      </trkpt>
      <trkpt lat="49.87699" lon="4.78082">
        <ele>191</ele>
        <time>2024-05-08T14:36:26Z</time>
      </trkpt>
      <trkpt lat="49.87698" lon="4.78083">
        <ele>191</ele>
        <time>2024-05-08T14:36:27Z</time>
      </trkpt>
      <trkpt lat="49.87698" lon="4.78085">
        <ele>191</ele>
        <time>2024-05-08T14:36:28Z</time>
      </trkpt>
      <trkpt lat="49.87698" lon="4.78086">
        <ele>191</ele>
        <time>2024-05-08T14:36:29Z</time>
      </trkpt>
      <trkpt lat="49.87697" lon="4.78088">
        <ele>191</ele>
        <time>2024-05-08T14:36:30Z</time>
      </trkpt>
      <trkpt lat="49.87697" lon="4.7809">
        <ele>191</ele>
        <time>2024-05-08T14:36:31Z</time>
      </trkpt>
      <trkpt lat="49.87697" lon="4.78091">
        <ele>191</ele>
        <time>2024-05-08T14:36:32Z</time>
      </trkpt>
      <trkpt lat="49.87696" lon="4.78093">
        <ele>191</ele>
        <time>2024-05-08T14:36:33Z</time>
      </trkpt>
      <trkpt lat="49.87696" lon="4.78094">
        <ele>191</ele>
        <time>2024-05-08T14:36:34Z</time>
      </trkpt>
      <trkpt lat="49.87696" lon="4.78096">
        <ele>191</ele>
        <time>2024-05-08T14:36:35Z</time>
      </trkpt>
      <trkpt lat="49.87695" lon="4.78097">
        <ele>191</ele>
        <time>2024-05-08T14:36:36Z</time>
      </trkpt>
      <trkpt lat="49.87695" lon="4.78099">
        <ele>191</ele>
        <time>2024-05-08T14:36:37Z</time>
      </trkpt>
      <trkpt lat="49.87695" lon="4.78101">
        <ele>191</ele>
        <time>2024-05-08T14:36:38Z</time>
      </trkpt>
      <trkpt lat="49.87694" lon="4.78102">
        <ele>191</ele>
        <time>2024-05-08T14:36:39Z</time>
      </trkpt>
      <trkpt lat="49.87694" lon="4.78104">
        <ele>191</ele>
        <time>2024-05-08T14:36:40Z</time>
      </trkpt>
      <trkpt lat="49.87693" lon="4.78105">
        <ele>191</ele>
        <time>2024-05-08T14:36:41Z</time>
      </trkpt>
      <trkpt lat="49.87693" lon="4.78107">
        <ele>191</ele>
        <time>2024-05-08T14:36:42Z</time>
      </trkpt>
      <trkpt lat="49.87692" lon="4.78108">
        <ele>191</ele>
        <time>2024-05-08T14:36:43Z</time>
      </trkpt>
      <trkpt lat="49.87692" lon="4.7811">
        <ele>191</ele>
        <time>2024-05-08T14:36:44Z</time>
      </trkpt>
      <trkpt lat="49.87691" lon="4.78112">
        <ele>191</ele>
        <time>2024-05-08T14:36:45Z</time>
      </trkpt>
      <trkpt lat="49.87691" lon="4.78113">
        <ele>191</ele>
        <time>2024-05-08T14:36:46Z</time>
      </trkpt>
      <trkpt lat="49.8769" lon="4.78115">
        <ele>191</ele>
        <time>2024-05-08T14:36:47Z</time>
      </trkpt>
      <trkpt lat="49.8769" lon="4.78117">
        <ele>191</ele>
        <time>2024-05-08T14:36:48Z</time>
      </trkpt>
      <trkpt lat="49.87689" lon="4.78118">
        <ele>191</ele>
        <time>2024-05-08T14:36:49Z</time>
      </trkpt>
      <trkpt lat="49.87689" lon="4.7812">
        <ele>191</ele>
        <time>2024-05-08T14:36:50Z</time>
      </trkpt>
      <trkpt lat="49.87688" lon="4.78121">
        <ele>191</ele>
        <time>2024-05-08T14:36:51Z</time>
      </trkpt>
      <trkpt lat="49.87688" lon="4.78123">
        <ele>191</ele>
        <time>2024-05-08T14:36:52Z</time>
      </trkpt>
      <trkpt lat="49.87687" lon="4.78125">
        <ele>191</ele>
        <time>2024-05-08T14:36:53Z</time>
      </trkpt>
      <trkpt lat="49.87687" lon="4.78126">
        <ele>191</ele>
        <time>2024-05-08T14:36:54Z</time>
      </trkpt>
      <trkpt lat="49.87687" lon="4.78128">
        <ele>191</ele>
        <time>2024-05-08T14:36:55Z</time>
      </trkpt>
      <trkpt lat="49.87686" lon="4.7813">
        <ele>191</ele>
        <time>2024-05-08T14:36:56Z</time>
      </trkpt>
      <trkpt lat="49.87686" lon="4.78131">
        <ele>191</ele>
        <time>2024-05-08T14:36:57Z</time>
      </trkpt>
      <trkpt lat="49.87685" lon="4.78133">
        <ele>191</ele>
        <time>2024-05-08T14:36:58Z</time>
      </trkpt>
      <trkpt lat="49.87684" lon="4.78134">
        <ele>191</ele>
        <time>2024-05-08T14:36:59Z</time>
      </trkpt>
      <trkpt lat="49.87684" lon="4.78136">
        <ele>191</ele>
        <time>2024-05-08T14:37:00Z</time>
      </trkpt>
      <trkpt lat="49.87683" lon="4.78138">
        <ele>191</ele>
        <time>2024-05-08T14:37:01Z</time>
      </trkpt>
      <trkpt lat="49.87682" lon="4.78139">
        <ele>191</ele>
        <time>2024-05-08T14:37:02Z</time>
      </trkpt>
      <trkpt lat="49.87682" lon="4.78141">
        <ele>191</ele>
        <time>2024-05-08T14:37:03Z</time>
      </trkpt>
      <trkpt lat="49.87681" lon="4.78142">
        <ele>191</ele>
        <time>2024-05-08T14:37:04Z</time>
      </trkpt>
      <trkpt lat="49.8768" lon="4.78144">
        <ele>191</ele>
        <time>2024-05-08T14:37:05Z</time>
      </trkpt>
      <trkpt lat="49.87679" lon="4.78145">
        <ele>192</ele>
        <time>2024-05-08T14:37:06Z</time>
      </trkpt>
      <trkpt lat="49.87677" lon="4.78146">
        <ele>192</ele>
        <time>2024-05-08T14:37:07Z</time>
      </trkpt>
      <trkpt lat="49.87676" lon="4.78147">
        <ele>192</ele>
        <time>2024-05-08T14:37:08Z</time>
      </trkpt>
      <trkpt lat="49.87675" lon="4.78148">
        <ele>192</ele>
        <time>2024-05-08T14:37:09Z</time>
      </trkpt>
      <trkpt lat="49.87674" lon="4.78149">
        <ele>192</ele>
        <time>2024-05-08T14:37:10Z</time>
      </trkpt>
      <trkpt lat="49.87673" lon="4.7815">
        <ele>192</ele>
        <time>2024-05-08T14:37:11Z</time>
      </trkpt>
      <trkpt lat="49.87672" lon="4.78152">
        <ele>192</ele>
        <time>2024-05-08T14:37:12Z</time>
      </trkpt>
      <trkpt lat="49.87671" lon="4.78153">
        <ele>192</ele>
        <time>2024-05-08T14:37:13Z</time>
      </trkpt>
      <trkpt lat="49.8767" lon="4.78154">
        <ele>192</ele>
        <time>2024-05-08T14:37:14Z</time>
      </trkpt>
      <trkpt lat="49.87669" lon="4.78154">
        <ele>192</ele>
        <time>2024-05-08T14:37:15Z</time>
      </trkpt>
      <trkpt lat="49.87667" lon="4.78155">
        <ele>192</ele>
        <time>2024-05-08T14:37:16Z</time>
      </trkpt>
      <trkpt lat="49.87666" lon="4.78155">
        <ele>192</ele>
        <time>2024-05-08T14:37:17Z</time>
      </trkpt>
      <trkpt lat="49.87665" lon="4.78155">
        <ele>192</ele>
        <time>2024-05-08T14:37:18Z</time>
      </trkpt>
      <trkpt lat="49.87664" lon="4.78155">
        <ele>192</ele>
        <time>2024-05-08T14:37:19Z</time>
      </trkpt>
      <trkpt lat="49.87663" lon="4.78155">
        <ele>192</ele>
        <time>2024-05-08T14:37:20Z</time>
      </trkpt>
      <trkpt lat="49.87662" lon="4.78156">
        <ele>192</ele>
        <time>2024-05-08T14:37:21Z</time>
      </trkpt>
      <trkpt lat="49.87661" lon="4.78156">
        <ele>192</ele>
        <time>2024-05-08T14:37:22Z</time>
      </trkpt>
      <trkpt lat="49.8766" lon="4.78157">
        <ele>192</ele>
        <time>2024-05-08T14:37:23Z</time>
      </trkpt>
      <trkpt lat="49.87659" lon="4.78158">
        <ele>192</ele>
        <time>2024-05-08T14:37:24Z</time>
      </trkpt>
      <trkpt lat="49.87658" lon="4.78159">
        <ele>192</ele>
        <time>2024-05-08T14:37:25Z</time>
      </trkpt>
      <trkpt lat="49.87657" lon="4.7816">
        <ele>192</ele>
        <time>2024-05-08T14:37:26Z</time>
      </trkpt>
      <trkpt lat="49.87656" lon="4.78161">
        <ele>192</ele>
        <time>2024-05-08T14:37:27Z</time>
      </trkpt>
      <trkpt lat="49.87655" lon="4.78163">
        <ele>192</ele>
        <time>2024-05-08T14:37:28Z</time>
      </trkpt>
      <trkpt lat="49.87654" lon="4.78164">
        <ele>192</ele>
        <time>2024-05-08T14:37:29Z</time>
      </trkpt>
      <trkpt lat="49.87653" lon="4.78165">
        <ele>192</ele>
        <time>2024-05-08T14:37:30Z</time>
      </trkpt>
      <trkpt lat="49.87652" lon="4.78166">
        <ele>192</ele>
        <time>2024-05-08T14:37:31Z</time>
      </trkpt>
      <trkpt lat="49.87652" lon="4.78167">
        <ele>192</ele>
        <time>2024-05-08T14:37:32Z</time>
      </trkpt>
      <trkpt lat="49.87651" lon="4.78167">
        <ele>192</ele>
        <time>2024-05-08T14:37:33Z</time>
      </trkpt>
      <trkpt lat="49.8765" lon="4.78168">
        <ele>192</ele>
        <time>2024-05-08T14:37:34Z</time>
      </trkpt>
      <trkpt lat="49.87649" lon="4.78168">
        <ele>192</ele>
        <time>2024-05-08T14:37:35Z</time>
      </trkpt>
      <trkpt lat="49.87647" lon="4.78169">
        <ele>192</ele>
        <time>2024-05-08T14:37:36Z</time>
      </trkpt>
      <trkpt lat="49.87646" lon="4.78169">
        <ele>192</ele>
        <time>2024-05-08T14:37:37Z</time>
      </trkpt>
      <trkpt lat="49.87645" lon="4.78169">
        <ele>192</ele>
        <time>2024-05-08T14:37:38Z</time>
      </trkpt>
      <trkpt lat="49.87644" lon="4.78168">
        <ele>192</ele>
        <time>2024-05-08T14:37:39Z</time>
      </trkpt>
      <trkpt lat="49.87643" lon="4.78168">
        <ele>192</ele>
        <time>2024-05-08T14:37:40Z</time>
      </trkpt>
      <trkpt lat="49.87642" lon="4.78168">
        <ele>192</ele>
        <time>2024-05-08T14:37:41Z</time>
      </trkpt>
      <trkpt lat="49.87641" lon="4.78168">
        <ele>192</ele>
        <time>2024-05-08T14:37:42Z</time>
      </trkpt>
      <trkpt lat="49.8764" lon="4.78168">
        <ele>192</ele>
        <time>2024-05-08T14:37:43Z</time>
      </trkpt>
      <trkpt lat="49.87639" lon="4.78168">
        <ele>192</ele>
        <time>2024-05-08T14:37:44Z</time>
      </trkpt>
      <trkpt lat="49.87638" lon="4.78168">
        <ele>192</ele>
        <time>2024-05-08T14:37:45Z</time>
      </trkpt>
      <trkpt lat="49.87637" lon="4.78168">
        <ele>192</ele>
        <time>2024-05-08T14:37:46Z</time>
      </trkpt>
      <trkpt lat="49.87636" lon="4.78168">
        <ele>191</ele>
        <time>2024-05-08T14:37:47Z</time>
      </trkpt>
      <trkpt lat="49.87635" lon="4.78168">
        <ele>191</ele>
        <time>2024-05-08T14:37:48Z</time>
      </trkpt>
      <trkpt lat="49.87634" lon="4.78169">
        <ele>191</ele>
        <time>2024-05-08T14:37:49Z</time>
      </trkpt>
      <trkpt lat="49.87633" lon="4.78169">
        <ele>191</ele>
        <time>2024-05-08T14:37:50Z</time>
      </trkpt>
      <trkpt lat="49.87632" lon="4.7817">
        <ele>191</ele>
        <time>2024-05-08T14:37:51Z</time>
      </trkpt>
      <trkpt lat="49.87631" lon="4.78171">
        <ele>190</ele>
        <time>2024-05-08T14:37:52Z</time>
      </trkpt>
      <trkpt lat="49.8763" lon="4.78172">
        <ele>190</ele>
        <time>2024-05-08T14:37:53Z</time>
      </trkpt>
      <trkpt lat="49.87629" lon="4.78172">
        <ele>190</ele>
        <time>2024-05-08T14:37:54Z</time>
      </trkpt>
      <trkpt lat="49.87628" lon="4.78173">
        <ele>190</ele>
        <time>2024-05-08T14:37:55Z</time>
      </trkpt>
      <trkpt lat="49.87628" lon="4.78174">
        <ele>190</ele>
        <time>2024-05-08T14:37:56Z</time>
      </trkpt>
      <trkpt lat="49.87627" lon="4.78175">
        <ele>189</ele>
        <time>2024-05-08T14:37:57Z</time>
      </trkpt>
      <trkpt lat="49.87626" lon="4.78176">
        <ele>189</ele>
        <time>2024-05-08T14:37:58Z</time>
      </trkpt>
      <trkpt lat="49.87625" lon="4.78177">
        <ele>189</ele>
        <time>2024-05-08T14:37:59Z</time>
      </trkpt>
      <trkpt lat="49.87624" lon="4.78177">
        <ele>189</ele>
        <time>2024-05-08T14:38:00Z</time>
      </trkpt>
      <trkpt lat="49.87623" lon="4.78177">
        <ele>189</ele>
        <time>2024-05-08T14:38:01Z</time>
      </trkpt>
      <trkpt lat="49.87623" lon="4.78178">
        <ele>188</ele>
        <time>2024-05-08T14:38:02Z</time>
      </trkpt>
      <trkpt lat="49.87622" lon="4.78177">
        <ele>188</ele>
        <time>2024-05-08T14:38:03Z</time>
      </trkpt>
      <trkpt lat="49.87621" lon="4.78177">
        <ele>187</ele>
        <time>2024-05-08T14:38:04Z</time>
      </trkpt>
      <trkpt lat="49.8762" lon="4.78176">
        <ele>187</ele>
        <time>2024-05-08T14:38:05Z</time>
      </trkpt>
      <trkpt lat="49.8762" lon="4.78176">
        <ele>187</ele>
        <time>2024-05-08T14:38:06Z</time>
      </trkpt>
      <trkpt lat="49.87619" lon="4.78175">
        <ele>186</ele>
        <time>2024-05-08T14:38:07Z</time>
      </trkpt>
      <trkpt lat="49.87618" lon="4.78175">
        <ele>186</ele>
        <time>2024-05-08T14:38:08Z</time>
      </trkpt>
      <trkpt lat="49.87617" lon="4.78175">
        <ele>186</ele>
        <time>2024-05-08T14:38:09Z</time>
      </trkpt>
      <trkpt lat="49.87616" lon="4.78175">
        <ele>186</ele>
        <time>2024-05-08T14:38:10Z</time>
      </trkpt>
      <trkpt lat="49.87615" lon="4.78175">
        <ele>186</ele>
        <time>2024-05-08T14:38:11Z</time>
      </trkpt>
      <trkpt lat="49.87615" lon="4.78175">
        <ele>185</ele>
        <time>2024-05-08T14:38:12Z</time>
      </trkpt>
      <trkpt lat="49.87614" lon="4.78174">
        <ele>185</ele>
        <time>2024-05-08T14:38:13Z</time>
      </trkpt>
      <trkpt lat="49.87613" lon="4.78174">
        <ele>185</ele>
        <time>2024-05-08T14:38:14Z</time>
      </trkpt>
      <trkpt lat="49.87612" lon="4.78174">
        <ele>185</ele>
        <time>2024-05-08T14:38:15Z</time>
      </trkpt>
      <trkpt lat="49.87612" lon="4.78174">
        <ele>185</ele>
        <time>2024-05-08T14:38:16Z</time>
      </trkpt>
      <trkpt lat="49.87611" lon="4.78174">
        <ele>184</ele>
        <time>2024-05-08T14:38:17Z</time>
      </trkpt>
      <trkpt lat="49.8761" lon="4.78175">
        <ele>184</ele>
        <time>2024-05-08T14:38:18Z</time>
      </trkpt>
      <trkpt lat="49.87609" lon="4.78175">
        <ele>184</ele>
        <time>2024-05-08T14:38:19Z</time>
      </trkpt>
      <trkpt lat="49.87608" lon="4.78175">
        <ele>184</ele>
        <time>2024-05-08T14:38:20Z</time>
      </trkpt>
      <trkpt lat="49.87607" lon="4.78176">
        <ele>184</ele>
        <time>2024-05-08T14:38:21Z</time>
      </trkpt>
      <trkpt lat="49.87606" lon="4.78176">
        <ele>183</ele>
        <time>2024-05-08T14:38:22Z</time>
      </trkpt>
      <trkpt lat="49.87605" lon="4.78177">
        <ele>183</ele>
        <time>2024-05-08T14:38:23Z</time>
      </trkpt>
      <trkpt lat="49.87604" lon="4.78177">
        <ele>183</ele>
        <time>2024-05-08T14:38:24Z</time>
      </trkpt>
      <trkpt lat="49.87602" lon="4.78177">
        <ele>183</ele>
        <time>2024-05-08T14:38:25Z</time>
      </trkpt>
      <trkpt lat="49.87601" lon="4.78178">
        <ele>183</ele>
        <time>2024-05-08T14:38:26Z</time>
      </trkpt>
      <trkpt lat="49.876" lon="4.78178">
        <ele>182</ele>
        <time>2024-05-08T14:38:27Z</time>
      </trkpt>
      <trkpt lat="49.87599" lon="4.78178">
        <ele>182</ele>
        <time>2024-05-08T14:38:28Z</time>
      </trkpt>
      <trkpt lat="49.87598" lon="4.78179">
        <ele>182</ele>
        <time>2024-05-08T14:38:29Z</time>
      </trkpt>
      <trkpt lat="49.87597" lon="4.78179">
        <ele>182</ele>
        <time>2024-05-08T14:38:30Z</time>
      </trkpt>
      <trkpt lat="49.87596" lon="4.7818">
        <ele>182</ele>
        <time>2024-05-08T14:38:31Z</time>
      </trkpt>
      <trkpt lat="49.87595" lon="4.7818">
        <ele>182</ele>
        <time>2024-05-08T14:38:32Z</time>
      </trkpt>
      <trkpt lat="49.87594" lon="4.7818">
        <ele>182</ele>
        <time>2024-05-08T14:38:33Z</time>
      </trkpt>
      <trkpt lat="49.87593" lon="4.78181">
        <ele>182</ele>
        <time>2024-05-08T14:38:34Z</time>
      </trkpt>
      <trkpt lat="49.87592" lon="4.78181">
        <ele>182</ele>
        <time>2024-05-08T14:38:35Z</time>
      </trkpt>
      <trkpt lat="49.87591" lon="4.78181">
        <ele>182</ele>
        <time>2024-05-08T14:38:36Z</time>
      </trkpt>
      <trkpt lat="49.8759" lon="4.78181">
        <ele>181</ele>
        <time>2024-05-08T14:38:37Z</time>
      </trkpt>
      <trkpt lat="49.8759" lon="4.78181">
        <ele>181</ele>
        <time>2024-05-08T14:38:38Z</time>
      </trkpt>
      <trkpt lat="49.87589" lon="4.78182">
        <ele>181</ele>
        <time>2024-05-08T14:38:39Z</time>
      </trkpt>
      <trkpt lat="49.87588" lon="4.78182">
        <ele>181</ele>
        <time>2024-05-08T14:38:40Z</time>
      </trkpt>
      <trkpt lat="49.87587" lon="4.78182">
        <ele>181</ele>
        <time>2024-05-08T14:38:41Z</time>
      </trkpt>
      <trkpt lat="49.87586" lon="4.78183">
        <ele>180</ele>
        <time>2024-05-08T14:38:42Z</time>
      </trkpt>
      <trkpt lat="49.87585" lon="4.78183">
        <ele>180</ele>
        <time>2024-05-08T14:38:43Z</time>
      </trkpt>
      <trkpt lat="49.87584" lon="4.78183">
        <ele>180</ele>
        <time>2024-05-08T14:38:44Z</time>
      </trkpt>
      <trkpt lat="49.87584" lon="4.78183">
        <ele>180</ele>
        <time>2024-05-08T14:38:45Z</time>
      </trkpt>
      <trkpt lat="49.87583" lon="4.78183">
        <ele>180</ele>
        <time>2024-05-08T14:38:46Z</time>
      </trkpt>
      <trkpt lat="49.87582" lon="4.78184">
        <ele>179</ele>
        <time>2024-05-08T14:38:47Z</time>
      </trkpt>
      <trkpt lat="49.87581" lon="4.78184">
        <ele>179</ele>
        <time>2024-05-08T14:38:48Z</time>
      </trkpt>
      <trkpt lat="49.87579" lon="4.78185">
        <ele>179</ele>
        <time>2024-05-08T14:38:49Z</time>
      </trkpt>
      <trkpt lat="49.87578" lon="4.78186">
        <ele>179</ele>
        <time>2024-05-08T14:38:50Z</time>
      </trkpt>
      <trkpt lat="49.87577" lon="4.78188">
        <ele>179</ele>
        <time>2024-05-08T14:38:51Z</time>
      </trkpt>
      <trkpt lat="49.87576" lon="4.78189">
        <ele>178</ele>
        <time>2024-05-08T14:38:52Z</time>
      </trkpt>
      <trkpt lat="49.87574" lon="4.78191">
        <ele>178</ele>
        <time>2024-05-08T14:38:53Z</time>
      </trkpt>
      <trkpt lat="49.87573" lon="4.78191">
        <ele>178</ele>
        <time>2024-05-08T14:38:54Z</time>
      </trkpt>
      <trkpt lat="49.87572" lon="4.78192">
        <ele>178</ele>
        <time>2024-05-08T14:38:55Z</time>
      </trkpt>
      <trkpt lat="49.87571" lon="4.78192">
        <ele>178</ele>
        <time>2024-05-08T14:38:56Z</time>
      </trkpt>
      <trkpt lat="49.8757" lon="4.78192">
        <ele>178</ele>
        <time>2024-05-08T14:38:57Z</time>
      </trkpt>
      <trkpt lat="49.87569" lon="4.78192">
        <ele>178</ele>
        <time>2024-05-08T14:38:58Z</time>
      </trkpt>
      <trkpt lat="49.87568" lon="4.78192">
        <ele>178</ele>
        <time>2024-05-08T14:38:59Z</time>
      </trkpt>
      <trkpt lat="49.87567" lon="4.78191">
        <ele>178</ele>
        <time>2024-05-08T14:39:00Z</time>
      </trkpt>
      <trkpt lat="49.87566" lon="4.78191">
        <ele>178</ele>
        <time>2024-05-08T14:39:01Z</time>
      </trkpt>
      <trkpt lat="49.87564" lon="4.78191">
        <ele>177</ele>
        <time>2024-05-08T14:39:02Z</time>
      </trkpt>
      <trkpt lat="49.87563" lon="4.78191">
        <ele>177</ele>
        <time>2024-05-08T14:39:03Z</time>
      </trkpt>
      <trkpt lat="49.87561" lon="4.78192">
        <ele>177</ele>
        <time>2024-05-08T14:39:04Z</time>
      </trkpt>
      <trkpt lat="49.87559" lon="4.78193">
        <ele>177</ele>
        <time>2024-05-08T14:39:05Z</time>
      </trkpt>
      <trkpt lat="49.87558" lon="4.78193">
        <ele>177</ele>
        <time>2024-05-08T14:39:06Z</time>
      </trkpt>
      <trkpt lat="49.87557" lon="4.78193">
        <ele>176</ele>
        <time>2024-05-08T14:39:07Z</time>
      </trkpt>
      <trkpt lat="49.87555" lon="4.78193">
        <ele>176</ele>
        <time>2024-05-08T14:39:08Z</time>
      </trkpt>
      <trkpt lat="49.87554" lon="4.78193">
        <ele>176</ele>
        <time>2024-05-08T14:39:09Z</time>
      </trkpt>
      <trkpt lat="49.87553" lon="4.78193">
        <ele>176</ele>
        <time>2024-05-08T14:39:10Z</time>
      </trkpt>
      <trkpt lat="49.87552" lon="4.78193">
        <ele>176</ele>
        <time>2024-05-08T14:39:11Z</time>
      </trkpt>
      <trkpt lat="49.87551" lon="4.78193">
        <ele>175</ele>
        <time>2024-05-08T14:39:12Z</time>
      </trkpt>
      <trkpt lat="49.8755" lon="4.78194">
        <ele>175</ele>
        <time>2024-05-08T14:39:13Z</time>
      </trkpt>
      <trkpt lat="49.87549" lon="4.78195">
        <ele>175</ele>
        <time>2024-05-08T14:39:14Z</time>
      </trkpt>
      <trkpt lat="49.87549" lon="4.78195">
        <ele>175</ele>
        <time>2024-05-08T14:39:15Z</time>
      </trkpt>
      <trkpt lat="49.87548" lon="4.78195">
        <ele>175</ele>
        <time>2024-05-08T14:39:16Z</time>
      </trkpt>
      <trkpt lat="49.87547" lon="4.78196">
        <ele>174</ele>
        <time>2024-05-08T14:39:17Z</time>
      </trkpt>
      <trkpt lat="49.87547" lon="4.78196">
        <ele>174</ele>
        <time>2024-05-08T14:39:18Z</time>
      </trkpt>
      <trkpt lat="49.87546" lon="4.78196">
        <ele>174</ele>
        <time>2024-05-08T14:39:19Z</time>
      </trkpt>
      <trkpt lat="49.87545" lon="4.78195">
        <ele>174</ele>
        <time>2024-05-08T14:39:20Z</time>
      </trkpt>
      <trkpt lat="49.87544" lon="4.78195">
        <ele>174</ele>
        <time>2024-05-08T14:39:21Z</time>
      </trkpt>
      <trkpt lat="49.87544" lon="4.78196">
        <ele>174</ele>
        <time>2024-05-08T14:39:22Z</time>
      </trkpt>
      <trkpt lat="49.87543" lon="4.78196">
        <ele>174</ele>
        <time>2024-05-08T14:39:23Z</time>
      </trkpt>
      <trkpt lat="49.87542" lon="4.78196">
        <ele>174</ele>
        <time>2024-05-08T14:39:24Z</time>
      </trkpt>
      <trkpt lat="49.87541" lon="4.78197">
        <ele>174</ele>
        <time>2024-05-08T14:39:25Z</time>
      </trkpt>
      <trkpt lat="49.8754" lon="4.78198">
        <ele>174</ele>
        <time>2024-05-08T14:39:26Z</time>
      </trkpt>
      <trkpt lat="49.8754" lon="4.78198">
        <ele>173</ele>
        <time>2024-05-08T14:39:27Z</time>
      </trkpt>
      <trkpt lat="49.87539" lon="4.78199">
        <ele>173</ele>
        <time>2024-05-08T14:39:28Z</time>
      </trkpt>
      <trkpt lat="49.87538" lon="4.78199">
        <ele>173</ele>
        <time>2024-05-08T14:39:29Z</time>
      </trkpt>
      <trkpt lat="49.87537" lon="4.78201">
        <ele>172</ele>
        <time>2024-05-08T14:39:37Z</time>
      </trkpt>
      <trkpt lat="49.87536" lon="4.78201">
        <ele>172</ele>
        <time>2024-05-08T14:39:38Z</time>
      </trkpt>
      <trkpt lat="49.87536" lon="4.78202">
        <ele>172</ele>
        <time>2024-05-08T14:39:39Z</time>
      </trkpt>
      <trkpt lat="49.87535" lon="4.78202">
        <ele>172</ele>
        <time>2024-05-08T14:39:40Z</time>
      </trkpt>
      <trkpt lat="49.87534" lon="4.78202">
        <ele>172</ele>
        <time>2024-05-08T14:39:41Z</time>
      </trkpt>
      <trkpt lat="49.87534" lon="4.78202">
        <ele>171</ele>
        <time>2024-05-08T14:39:42Z</time>
      </trkpt>
      <trkpt lat="49.87533" lon="4.78202">
        <ele>171</ele>
        <time>2024-05-08T14:39:43Z</time>
      </trkpt>
      <trkpt lat="49.87532" lon="4.78201">
        <ele>171</ele>
        <time>2024-05-08T14:39:44Z</time>
      </trkpt>
      <trkpt lat="49.87531" lon="4.78201">
        <ele>171</ele>
        <time>2024-05-08T14:39:45Z</time>
      </trkpt>
      <trkpt lat="49.8753" lon="4.782">
        <ele>171</ele>
        <time>2024-05-08T14:39:46Z</time>
      </trkpt>
      <trkpt lat="49.87529" lon="4.782">
        <ele>171</ele>
        <time>2024-05-08T14:39:47Z</time>
      </trkpt>
      <trkpt lat="49.87528" lon="4.782">
        <ele>171</ele>
        <time>2024-05-08T14:39:48Z</time>
      </trkpt>
      <trkpt lat="49.87527" lon="4.78199">
        <ele>171</ele>
        <time>2024-05-08T14:39:49Z</time>
      </trkpt>
      <trkpt lat="49.87525" lon="4.782">
        <ele>171</ele>
        <time>2024-05-08T14:39:50Z</time>
      </trkpt>
      <trkpt lat="49.87524" lon="4.782">
        <ele>171</ele>
        <time>2024-05-08T14:39:51Z</time>
      </trkpt>
      <trkpt lat="49.87523" lon="4.78201">
        <ele>170</ele>
        <time>2024-05-08T14:39:52Z</time>
      </trkpt>
      <trkpt lat="49.87522" lon="4.78202">
        <ele>170</ele>
        <time>2024-05-08T14:39:53Z</time>
      </trkpt>
      <trkpt lat="49.87521" lon="4.78202">
        <ele>170</ele>
        <time>2024-05-08T14:39:54Z</time>
      </trkpt>
      <trkpt lat="49.8752" lon="4.78202">
        <ele>170</ele>
        <time>2024-05-08T14:39:55Z</time>
      </trkpt>
      <trkpt lat="49.87519" lon="4.78201">
        <ele>170</ele>
        <time>2024-05-08T14:39:56Z</time>
      </trkpt>
      <trkpt lat="49.87518" lon="4.78201">
        <ele>170</ele>
        <time>2024-05-08T14:39:57Z</time>
      </trkpt>
      <trkpt lat="49.87517" lon="4.78201">
        <ele>170</ele>
        <time>2024-05-08T14:39:58Z</time>
      </trkpt>
      <trkpt lat="49.87516" lon="4.78201">
        <ele>170</ele>
        <time>2024-05-08T14:39:59Z</time>
      </trkpt>
      <trkpt lat="49.87515" lon="4.78202">
        <ele>170</ele>
        <time>2024-05-08T14:40:00Z</time>
      </trkpt>
      <trkpt lat="49.87514" lon="4.78202">
        <ele>170</ele>
        <time>2024-05-08T14:40:01Z</time>
      </trkpt>
      <trkpt lat="49.87513" lon="4.78203">
        <ele>169</ele>
        <time>2024-05-08T14:40:02Z</time>
      </trkpt>
      <trkpt lat="49.87511" lon="4.78204">
        <ele>169</ele>
        <time>2024-05-08T14:40:03Z</time>
      </trkpt>
      <trkpt lat="49.8751" lon="4.78205">
        <ele>169</ele>
        <time>2024-05-08T14:40:04Z</time>
      </trkpt>
      <trkpt lat="49.87509" lon="4.78206">
        <ele>169</ele>
        <time>2024-05-08T14:40:05Z</time>
      </trkpt>
      <trkpt lat="49.87508" lon="4.78206">
        <ele>169</ele>
        <time>2024-05-08T14:40:06Z</time>
      </trkpt>
      <trkpt lat="49.87507" lon="4.78206">
        <ele>168</ele>
        <time>2024-05-08T14:40:07Z</time>
      </trkpt>
      <trkpt lat="49.87505" lon="4.78206">
        <ele>168</ele>
        <time>2024-05-08T14:40:08Z</time>
      </trkpt>
      <trkpt lat="49.87504" lon="4.78207">
        <ele>168</ele>
        <time>2024-05-08T14:40:09Z</time>
      </trkpt>
      <trkpt lat="49.87503" lon="4.78207">
        <ele>168</ele>
        <time>2024-05-08T14:40:10Z</time>
      </trkpt>
      <trkpt lat="49.87502" lon="4.78208">
        <ele>168</ele>
        <time>2024-05-08T14:40:11Z</time>
      </trkpt>
      <trkpt lat="49.87501" lon="4.78208">
        <ele>168</ele>
        <time>2024-05-08T14:40:12Z</time>
      </trkpt>
      <trkpt lat="49.87499" lon="4.78209">
        <ele>168</ele>
        <time>2024-05-08T14:40:13Z</time>
      </trkpt>
      <trkpt lat="49.87498" lon="4.7821">
        <ele>168</ele>
        <time>2024-05-08T14:40:14Z</time>
      </trkpt>
      <trkpt lat="49.87497" lon="4.78211">
        <ele>168</ele>
        <time>2024-05-08T14:40:15Z</time>
      </trkpt>
      <trkpt lat="49.87496" lon="4.78212">
        <ele>168</ele>
        <time>2024-05-08T14:40:16Z</time>
      </trkpt>
      <trkpt lat="49.87495" lon="4.78213">
        <ele>167</ele>
        <time>2024-05-08T14:40:17Z</time>
      </trkpt>
      <trkpt lat="49.87495" lon="4.78214">
        <ele>167</ele>
        <time>2024-05-08T14:40:18Z</time>
      </trkpt>
      <trkpt lat="49.87494" lon="4.78215">
        <ele>167</ele>
        <time>2024-05-08T14:40:19Z</time>
      </trkpt>
      <trkpt lat="49.87493" lon="4.78216">
        <ele>167</ele>
        <time>2024-05-08T14:40:20Z</time>
      </trkpt>
      <trkpt lat="49.87493" lon="4.78217">
        <ele>167</ele>
        <time>2024-05-08T14:40:21Z</time>
      </trkpt>
      <trkpt lat="49.87492" lon="4.78218">
        <ele>166</ele>
        <time>2024-05-08T14:40:22Z</time>
      </trkpt>
      <trkpt lat="49.87491" lon="4.78219">
        <ele>166</ele>
        <time>2024-05-08T14:40:23Z</time>
      </trkpt>
      <trkpt lat="49.8749" lon="4.78221">
        <ele>166</ele>
        <time>2024-05-08T14:40:24Z</time>
      </trkpt>
      <trkpt lat="49.87489" lon="4.78222">
        <ele>166</ele>
        <time>2024-05-08T14:40:25Z</time>
      </trkpt>
      <trkpt lat="49.87489" lon="4.78224">
        <ele>166</ele>
        <time>2024-05-08T14:40:26Z</time>
      </trkpt>
      <trkpt lat="49.87488" lon="4.78225">
        <ele>165</ele>
        <time>2024-05-08T14:40:27Z</time>
      </trkpt>
      <trkpt lat="49.87488" lon="4.78226">
        <ele>165</ele>
        <time>2024-05-08T14:40:28Z</time>
      </trkpt>
      <trkpt lat="49.87487" lon="4.78227">
        <ele>165</ele>
        <time>2024-05-08T14:40:29Z</time>
      </trkpt>
      <trkpt lat="49.87486" lon="4.78228">
        <ele>165</ele>
        <time>2024-05-08T14:40:30Z</time>
      </trkpt>
      <trkpt lat="49.87485" lon="4.78229">
        <ele>165</ele>
        <time>2024-05-08T14:40:31Z</time>
      </trkpt>
      <trkpt lat="49.87485" lon="4.7823">
        <ele>164</ele>
        <time>2024-05-08T14:40:32Z</time>
      </trkpt>
      <trkpt lat="49.87484" lon="4.7823">
        <ele>164</ele>
        <time>2024-05-08T14:40:33Z</time>
      </trkpt>
      <trkpt lat="49.87483" lon="4.78231">
        <ele>164</ele>
        <time>2024-05-08T14:40:34Z</time>
      </trkpt>
      <trkpt lat="49.87482" lon="4.78231">
        <ele>164</ele>
        <time>2024-05-08T14:40:35Z</time>
      </trkpt>
      <trkpt lat="49.87481" lon="4.78231">
        <ele>164</ele>
        <time>2024-05-08T14:40:36Z</time>
      </trkpt>
      <trkpt lat="49.8748" lon="4.78232">
        <ele>164</ele>
        <time>2024-05-08T14:40:37Z</time>
      </trkpt>
      <trkpt lat="49.87479" lon="4.78232">
        <ele>164</ele>
        <time>2024-05-08T14:40:38Z</time>
      </trkpt>
      <trkpt lat="49.87478" lon="4.78232">
        <ele>164</ele>
        <time>2024-05-08T14:40:39Z</time>
      </trkpt>
      <trkpt lat="49.87477" lon="4.78232">
        <ele>164</ele>
        <time>2024-05-08T14:40:40Z</time>
      </trkpt>
      <trkpt lat="49.87476" lon="4.78233">
        <ele>164</ele>
        <time>2024-05-08T14:40:41Z</time>
      </trkpt>
      <trkpt lat="49.87475" lon="4.78233">
        <ele>163</ele>
        <time>2024-05-08T14:40:42Z</time>
      </trkpt>
      <trkpt lat="49.87474" lon="4.78234">
        <ele>163</ele>
        <time>2024-05-08T14:40:43Z</time>
      </trkpt>
      <trkpt lat="49.87473" lon="4.78235">
        <ele>163</ele>
        <time>2024-05-08T14:40:44Z</time>
      </trkpt>
      <trkpt lat="49.87472" lon="4.78235">
        <ele>163</ele>
        <time>2024-05-08T14:40:45Z</time>
      </trkpt>
      <trkpt lat="49.87471" lon="4.78236">
        <ele>163</ele>
        <time>2024-05-08T14:40:46Z</time>
      </trkpt>
      <trkpt lat="49.8747" lon="4.78237">
        <ele>162</ele>
        <time>2024-05-08T14:40:47Z</time>
      </trkpt>
      <trkpt lat="49.87469" lon="4.78238">
        <ele>162</ele>
        <time>2024-05-08T14:40:48Z</time>
      </trkpt>
      <trkpt lat="49.87468" lon="4.78238">
        <ele>162</ele>
        <time>2024-05-08T14:40:49Z</time>
      </trkpt>
      <trkpt lat="49.87467" lon="4.78239">
        <ele>162</ele>
        <time>2024-05-08T14:40:50Z</time>
      </trkpt>
      <trkpt lat="49.87466" lon="4.7824">
        <ele>162</ele>
        <time>2024-05-08T14:40:51Z</time>
      </trkpt>
      <trkpt lat="49.87465" lon="4.7824">
        <ele>161</ele>
        <time>2024-05-08T14:40:52Z</time>
      </trkpt>
      <trkpt lat="49.87464" lon="4.78241">
        <ele>161</ele>
        <time>2024-05-08T14:40:53Z</time>
      </trkpt>
      <trkpt lat="49.87463" lon="4.78242">
        <ele>161</ele>
        <time>2024-05-08T14:40:54Z</time>
      </trkpt>
      <trkpt lat="49.87462" lon="4.78242">
        <ele>161</ele>
        <time>2024-05-08T14:40:55Z</time>
      </trkpt>
      <trkpt lat="49.87461" lon="4.78242">
        <ele>161</ele>
        <time>2024-05-08T14:40:56Z</time>
      </trkpt>
      <trkpt lat="49.8746" lon="4.78242">
        <ele>161</ele>
        <time>2024-05-08T14:40:57Z</time>
      </trkpt>
      <trkpt lat="49.8746" lon="4.78243">
        <ele>161</ele>
        <time>2024-05-08T14:40:58Z</time>
      </trkpt>
      <trkpt lat="49.87459" lon="4.78243">
        <ele>161</ele>
        <time>2024-05-08T14:40:59Z</time>
      </trkpt>
      <trkpt lat="49.87458" lon="4.78243">
        <ele>161</ele>
        <time>2024-05-08T14:41:00Z</time>
      </trkpt>
      <trkpt lat="49.87457" lon="4.78243">
        <ele>161</ele>
        <time>2024-05-08T14:41:01Z</time>
      </trkpt>
      <trkpt lat="49.87455" lon="4.78243">
        <ele>160</ele>
        <time>2024-05-08T14:41:02Z</time>
      </trkpt>
      <trkpt lat="49.87454" lon="4.78243">
        <ele>160</ele>
        <time>2024-05-08T14:41:03Z</time>
      </trkpt>
      <trkpt lat="49.87453" lon="4.78243">
        <ele>160</ele>
        <time>2024-05-08T14:41:04Z</time>
      </trkpt>
      <trkpt lat="49.87452" lon="4.78244">
        <ele>160</ele>
        <time>2024-05-08T14:41:05Z</time>
      </trkpt>
      <trkpt lat="49.87451" lon="4.78244">
        <ele>160</ele>
        <time>2024-05-08T14:41:06Z</time>
      </trkpt>
      <trkpt lat="49.8745" lon="4.78244">
        <ele>160</ele>
        <time>2024-05-08T14:41:07Z</time>
      </trkpt>
      <trkpt lat="49.87449" lon="4.78245">
        <ele>160</ele>
        <time>2024-05-08T14:41:08Z</time>
      </trkpt>
      <trkpt lat="49.87448" lon="4.78245">
        <ele>160</ele>
        <time>2024-05-08T14:41:09Z</time>
      </trkpt>
      <trkpt lat="49.87447" lon="4.78246">
        <ele>160</ele>
        <time>2024-05-08T14:41:10Z</time>
      </trkpt>
      <trkpt lat="49.87445" lon="4.78247">
        <ele>160</ele>
        <time>2024-05-08T14:41:11Z</time>
      </trkpt>
      <trkpt lat="49.87444" lon="4.78248">
        <ele>159</ele>
        <time>2024-05-08T14:41:12Z</time>
      </trkpt>
      <trkpt lat="49.87443" lon="4.7825">
        <ele>159</ele>
        <time>2024-05-08T14:41:13Z</time>
      </trkpt>
      <trkpt lat="49.87442" lon="4.78251">
        <ele>159</ele>
        <time>2024-05-08T14:41:14Z</time>
      </trkpt>
      <trkpt lat="49.8744" lon="4.78252">
        <ele>159</ele>
        <time>2024-05-08T14:41:15Z</time>
      </trkpt>
      <trkpt lat="49.87439" lon="4.78253">
        <ele>159</ele>
        <time>2024-05-08T14:41:16Z</time>
      </trkpt>
      <trkpt lat="49.87438" lon="4.78253">
        <ele>158</ele>
        <time>2024-05-08T14:41:17Z</time>
      </trkpt>
      <trkpt lat="49.87437" lon="4.78253">
        <ele>158</ele>
        <time>2024-05-08T14:41:18Z</time>
      </trkpt>
      <trkpt lat="49.87435" lon="4.78253">
        <ele>158</ele>
        <time>2024-05-08T14:41:19Z</time>
      </trkpt>
      <trkpt lat="49.87434" lon="4.78252">
        <ele>158</ele>
        <time>2024-05-08T14:41:20Z</time>
      </trkpt>
      <trkpt lat="49.87433" lon="4.78252">
        <ele>158</ele>
        <time>2024-05-08T14:41:21Z</time>
      </trkpt>
      <trkpt lat="49.87432" lon="4.78251">
        <ele>157</ele>
        <time>2024-05-08T14:41:22Z</time>
      </trkpt>
      <trkpt lat="49.87431" lon="4.78251">
        <ele>157</ele>
        <time>2024-05-08T14:41:23Z</time>
      </trkpt>
      <trkpt lat="49.8743" lon="4.78252">
        <ele>157</ele>
        <time>2024-05-08T14:41:24Z</time>
      </trkpt>
      <trkpt lat="49.87429" lon="4.78253">
        <ele>157</ele>
        <time>2024-05-08T14:41:25Z</time>
      </trkpt>
      <trkpt lat="49.87428" lon="4.78254">
        <ele>157</ele>
        <time>2024-05-08T14:41:26Z</time>
      </trkpt>
      <trkpt lat="49.87428" lon="4.78256">
        <ele>156</ele>
        <time>2024-05-08T14:41:27Z</time>
      </trkpt>
      <trkpt lat="49.87427" lon="4.78257">
        <ele>156</ele>
        <time>2024-05-08T14:41:28Z</time>
      </trkpt>
      <trkpt lat="49.87426" lon="4.78258">
        <ele>156</ele>
        <time>2024-05-08T14:41:29Z</time>
      </trkpt>
      <trkpt lat="49.87425" lon="4.78259">
        <ele>156</ele>
        <time>2024-05-08T14:41:30Z</time>
      </trkpt>
      <trkpt lat="49.87424" lon="4.7826">
        <ele>156</ele>
        <time>2024-05-08T14:41:31Z</time>
      </trkpt>
      <trkpt lat="49.87423" lon="4.7826">
        <ele>156</ele>
        <time>2024-05-08T14:41:32Z</time>
      </trkpt>
      <trkpt lat="49.87422" lon="4.78261">
        <ele>156</ele>
        <time>2024-05-08T14:41:33Z</time>
      </trkpt>
      <trkpt lat="49.87422" lon="4.78261">
        <ele>156</ele>
        <time>2024-05-08T14:41:34Z</time>
      </trkpt>
      <trkpt lat="49.87421" lon="4.78261">
        <ele>156</ele>
        <time>2024-05-08T14:41:35Z</time>
      </trkpt>
      <trkpt lat="49.8742" lon="4.7826">
        <ele>156</ele>
        <time>2024-05-08T14:41:36Z</time>
      </trkpt>
      <trkpt lat="49.87419" lon="4.7826">
        <ele>156</ele>
        <time>2024-05-08T14:41:37Z</time>
      </trkpt>
      <trkpt lat="49.87418" lon="4.78259">
        <ele>156</ele>
        <time>2024-05-08T14:41:38Z</time>
      </trkpt>
      <trkpt lat="49.87417" lon="4.78259">
        <ele>156</ele>
        <time>2024-05-08T14:41:39Z</time>
      </trkpt>
      <trkpt lat="49.87416" lon="4.78258">
        <ele>156</ele>
        <time>2024-05-08T14:41:40Z</time>
      </trkpt>
      <trkpt lat="49.87415" lon="4.78258">
        <ele>156</ele>
        <time>2024-05-08T14:41:41Z</time>
      </trkpt>
      <trkpt lat="49.87414" lon="4.78258">
        <ele>156</ele>
        <time>2024-05-08T14:41:42Z</time>
      </trkpt>
      <trkpt lat="49.87413" lon="4.78257">
        <ele>156</ele>
        <time>2024-05-08T14:41:43Z</time>
      </trkpt>
      <trkpt lat="49.87412" lon="4.78257">
        <ele>156</ele>
        <time>2024-05-08T14:41:44Z</time>
      </trkpt>
      <trkpt lat="49.87411" lon="4.78257">
        <ele>156</ele>
        <time>2024-05-08T14:41:45Z</time>
      </trkpt>
      <trkpt lat="49.87409" lon="4.78257">
        <ele>156</ele>
        <time>2024-05-08T14:41:46Z</time>
      </trkpt>
      <trkpt lat="49.87408" lon="4.78257">
        <ele>156</ele>
        <time>2024-05-08T14:41:47Z</time>
      </trkpt>
      <trkpt lat="49.87407" lon="4.78256">
        <ele>156</ele>
        <time>2024-05-08T14:41:48Z</time>
      </trkpt>
      <trkpt lat="49.87406" lon="4.78255">
        <ele>156</ele>
        <time>2024-05-08T14:41:49Z</time>
      </trkpt>
      <trkpt lat="49.87405" lon="4.78255">
        <ele>156</ele>
        <time>2024-05-08T14:41:50Z</time>
      </trkpt>
      <trkpt lat="49.87404" lon="4.78254">
        <ele>157</ele>
        <time>2024-05-08T14:41:51Z</time>
      </trkpt>
      <trkpt lat="49.87403" lon="4.78254">
        <ele>157</ele>
        <time>2024-05-08T14:41:52Z</time>
      </trkpt>
      <trkpt lat="49.87402" lon="4.78253">
        <ele>157</ele>
        <time>2024-05-08T14:41:53Z</time>
      </trkpt>
      <trkpt lat="49.87401" lon="4.78253">
        <ele>157</ele>
        <time>2024-05-08T14:41:54Z</time>
      </trkpt>
      <trkpt lat="49.874" lon="4.78252">
        <ele>157</ele>
        <time>2024-05-08T14:41:55Z</time>
      </trkpt>
      <trkpt lat="49.87399" lon="4.78252">
        <ele>157</ele>
        <time>2024-05-08T14:41:56Z</time>
      </trkpt>
      <trkpt lat="49.87398" lon="4.78251">
        <ele>157</ele>
        <time>2024-05-08T14:41:57Z</time>
      </trkpt>
      <trkpt lat="49.87397" lon="4.78251">
        <ele>157</ele>
        <time>2024-05-08T14:41:58Z</time>
      </trkpt>
      <trkpt lat="49.87396" lon="4.7825">
        <ele>157</ele>
        <time>2024-05-08T14:41:59Z</time>
      </trkpt>
      <trkpt lat="49.87395" lon="4.7825">
        <ele>157</ele>
        <time>2024-05-08T14:42:00Z</time>
      </trkpt>
      <trkpt lat="49.87394" lon="4.7825">
        <ele>157</ele>
        <time>2024-05-08T14:42:01Z</time>
      </trkpt>
      <trkpt lat="49.87392" lon="4.7825">
        <ele>157</ele>
        <time>2024-05-08T14:42:02Z</time>
      </trkpt>
      <trkpt lat="49.87391" lon="4.78249">
        <ele>157</ele>
        <time>2024-05-08T14:42:03Z</time>
      </trkpt>
      <trkpt lat="49.8739" lon="4.78249">
        <ele>157</ele>
        <time>2024-05-08T14:42:04Z</time>
      </trkpt>
      <trkpt lat="49.87389" lon="4.78249">
        <ele>157</ele>
        <time>2024-05-08T14:42:05Z</time>
      </trkpt>
      <trkpt lat="49.87388" lon="4.78248">
        <ele>157</ele>
        <time>2024-05-08T14:42:06Z</time>
      </trkpt>
      <trkpt lat="49.87387" lon="4.78248">
        <ele>157</ele>
        <time>2024-05-08T14:42:07Z</time>
      </trkpt>
      <trkpt lat="49.87386" lon="4.78247">
        <ele>157</ele>
        <time>2024-05-08T14:42:08Z</time>
      </trkpt>
      <trkpt lat="49.87385" lon="4.78246">
        <ele>157</ele>
        <time>2024-05-08T14:42:09Z</time>
      </trkpt>
      <trkpt lat="49.87384" lon="4.78245">
        <ele>157</ele>
        <time>2024-05-08T14:42:10Z</time>
      </trkpt>
      <trkpt lat="49.87383" lon="4.78244">
        <ele>158</ele>
        <time>2024-05-08T14:42:11Z</time>
      </trkpt>
      <trkpt lat="49.87382" lon="4.78243">
        <ele>158</ele>
        <time>2024-05-08T14:42:12Z</time>
      </trkpt>
      <trkpt lat="49.87381" lon="4.78242">
        <ele>158</ele>
        <time>2024-05-08T14:42:13Z</time>
      </trkpt>
      <trkpt lat="49.8738" lon="4.78241">
        <ele>158</ele>
        <time>2024-05-08T14:42:14Z</time>
      </trkpt>
      <trkpt lat="49.87379" lon="4.78241">
        <ele>158</ele>
        <time>2024-05-08T14:42:15Z</time>
      </trkpt>
      <trkpt lat="49.87378" lon="4.7824">
        <ele>158</ele>
        <time>2024-05-08T14:42:16Z</time>
      </trkpt>
      <trkpt lat="49.87377" lon="4.78239">
        <ele>158</ele>
        <time>2024-05-08T14:42:17Z</time>
      </trkpt>
      <trkpt lat="49.87375" lon="4.78239">
        <ele>158</ele>
        <time>2024-05-08T14:42:18Z</time>
      </trkpt>
      <trkpt lat="49.87373" lon="4.78239">
        <ele>159</ele>
        <time>2024-05-08T14:42:50Z</time>
      </trkpt>
      <trkpt lat="49.87373" lon="4.78238">
        <ele>159</ele>
        <time>2024-05-08T14:42:51Z</time>
      </trkpt>
      <trkpt lat="49.87372" lon="4.78238">
        <ele>159</ele>
        <time>2024-05-08T14:42:52Z</time>
      </trkpt>
      <trkpt lat="49.87371" lon="4.78238">
        <ele>159</ele>
        <time>2024-05-08T14:42:53Z</time>
      </trkpt>
      <trkpt lat="49.87371" lon="4.78237">
        <ele>159</ele>
        <time>2024-05-08T14:42:54Z</time>
      </trkpt>
      <trkpt lat="49.8737" lon="4.78237">
        <ele>159</ele>
        <time>2024-05-08T14:42:55Z</time>
      </trkpt>
      <trkpt lat="49.87369" lon="4.78236">
        <ele>159</ele>
        <time>2024-05-08T14:42:56Z</time>
      </trkpt>
      <trkpt lat="49.87368" lon="4.78235">
        <ele>159</ele>
        <time>2024-05-08T14:42:57Z</time>
      </trkpt>
      <trkpt lat="49.87366" lon="4.78235">
        <ele>159</ele>
        <time>2024-05-08T14:42:58Z</time>
      </trkpt>
      <trkpt lat="49.87365" lon="4.78234">
        <ele>159</ele>
        <time>2024-05-08T14:42:59Z</time>
      </trkpt>
      <trkpt lat="49.87364" lon="4.78233">
        <ele>159</ele>
        <time>2024-05-08T14:43:00Z</time>
      </trkpt>
      <trkpt lat="49.87363" lon="4.78232">
        <ele>159</ele>
        <time>2024-05-08T14:43:01Z</time>
      </trkpt>
      <trkpt lat="49.87362" lon="4.78232">
        <ele>159</ele>
        <time>2024-05-08T14:43:02Z</time>
      </trkpt>
      <trkpt lat="49.87361" lon="4.78231">
        <ele>159</ele>
        <time>2024-05-08T14:43:03Z</time>
      </trkpt>
      <trkpt lat="49.8736" lon="4.7823">
        <ele>159</ele>
        <time>2024-05-08T14:43:04Z</time>
      </trkpt>
      <trkpt lat="49.87358" lon="4.7823">
        <ele>159</ele>
        <time>2024-05-08T14:43:05Z</time>
      </trkpt>
      <trkpt lat="49.87357" lon="4.7823">
        <ele>160</ele>
        <time>2024-05-08T14:43:06Z</time>
      </trkpt>
      <trkpt lat="49.87356" lon="4.78229">
        <ele>160</ele>
        <time>2024-05-08T14:43:07Z</time>
      </trkpt>
      <trkpt lat="49.87355" lon="4.78228">
        <ele>160</ele>
        <time>2024-05-08T14:43:08Z</time>
      </trkpt>
      <trkpt lat="49.87354" lon="4.78227">
        <ele>160</ele>
        <time>2024-05-08T14:43:09Z</time>
      </trkpt>
      <trkpt lat="49.87353" lon="4.78226">
        <ele>160</ele>
        <time>2024-05-08T14:43:10Z</time>
      </trkpt>
      <trkpt lat="49.87352" lon="4.78225">
        <ele>160</ele>
        <time>2024-05-08T14:43:11Z</time>
      </trkpt>
      <trkpt lat="49.87351" lon="4.78224">
        <ele>160</ele>
        <time>2024-05-08T14:43:12Z</time>
      </trkpt>
      <trkpt lat="49.8735" lon="4.78223">
        <ele>160</ele>
        <time>2024-05-08T14:43:13Z</time>
      </trkpt>
      <trkpt lat="49.87349" lon="4.78222">
        <ele>160</ele>
        <time>2024-05-08T14:43:14Z</time>
      </trkpt>
      <trkpt lat="49.87347" lon="4.78221">
        <ele>160</ele>
        <time>2024-05-08T14:43:15Z</time>
      </trkpt>
      <trkpt lat="49.87346" lon="4.7822">
        <ele>161</ele>
        <time>2024-05-08T14:43:16Z</time>
      </trkpt>
      <trkpt lat="49.87345" lon="4.78219">
        <ele>161</ele>
        <time>2024-05-08T14:43:17Z</time>
      </trkpt>
      <trkpt lat="49.87344" lon="4.78218">
        <ele>161</ele>
        <time>2024-05-08T14:43:18Z</time>
      </trkpt>
      <trkpt lat="49.87343" lon="4.78217">
        <ele>161</ele>
        <time>2024-05-08T14:43:19Z</time>
      </trkpt>
      <trkpt lat="49.87342" lon="4.78217">
        <ele>161</ele>
        <time>2024-05-08T14:43:20Z</time>
      </trkpt>
      <trkpt lat="49.87342" lon="4.78216">
        <ele>161</ele>
        <time>2024-05-08T14:43:21Z</time>
      </trkpt>
      <trkpt lat="49.87341" lon="4.78215">
        <ele>161</ele>
        <time>2024-05-08T14:43:22Z</time>
      </trkpt>
      <trkpt lat="49.8734" lon="4.78214">
        <ele>161</ele>
        <time>2024-05-08T14:43:23Z</time>
      </trkpt>
      <trkpt lat="49.87339" lon="4.78213">
        <ele>161</ele>
        <time>2024-05-08T14:43:24Z</time>
      </trkpt>
      <trkpt lat="49.87338" lon="4.78212">
        <ele>161</ele>
        <time>2024-05-08T14:43:25Z</time>
      </trkpt>
      <trkpt lat="49.87337" lon="4.78211">
        <ele>161</ele>
        <time>2024-05-08T14:43:26Z</time>
      </trkpt>
      <trkpt lat="49.87336" lon="4.78209">
        <ele>161</ele>
        <time>2024-05-08T14:43:27Z</time>
      </trkpt>
      <trkpt lat="49.87335" lon="4.78208">
        <ele>161</ele>
        <time>2024-05-08T14:43:28Z</time>
      </trkpt>
      <trkpt lat="49.87334" lon="4.78207">
        <ele>161</ele>
        <time>2024-05-08T14:43:29Z</time>
      </trkpt>
      <trkpt lat="49.87333" lon="4.78205">
        <ele>161</ele>
        <time>2024-05-08T14:43:30Z</time>
      </trkpt>
      <trkpt lat="49.87332" lon="4.78204">
        <ele>162</ele>
        <time>2024-05-08T14:43:31Z</time>
      </trkpt>
      <trkpt lat="49.87332" lon="4.78203">
        <ele>162</ele>
        <time>2024-05-08T14:43:32Z</time>
      </trkpt>
      <trkpt lat="49.87331" lon="4.78201">
        <ele>162</ele>
        <time>2024-05-08T14:43:33Z</time>
      </trkpt>
      <trkpt lat="49.8733" lon="4.782">
        <ele>162</ele>
        <time>2024-05-08T14:43:34Z</time>
      </trkpt>
      <trkpt lat="49.87329" lon="4.78198">
        <ele>162</ele>
        <time>2024-05-08T14:43:35Z</time>
      </trkpt>
      <trkpt lat="49.87328" lon="4.78197">
        <ele>162</ele>
        <time>2024-05-08T14:43:36Z</time>
      </trkpt>
      <trkpt lat="49.87327" lon="4.78196">
        <ele>162</ele>
        <time>2024-05-08T14:43:37Z</time>
      </trkpt>
      <trkpt lat="49.87326" lon="4.78194">
        <ele>162</ele>
        <time>2024-05-08T14:43:38Z</time>
      </trkpt>
      <trkpt lat="49.87325" lon="4.78193">
        <ele>162</ele>
        <time>2024-05-08T14:43:39Z</time>
      </trkpt>
      <trkpt lat="49.87324" lon="4.78192">
        <ele>162</ele>
        <time>2024-05-08T14:43:40Z</time>
      </trkpt>
      <trkpt lat="49.87323" lon="4.78192">
        <ele>162</ele>
        <time>2024-05-08T14:43:41Z</time>
      </trkpt>
      <trkpt lat="49.87321" lon="4.78192">
        <ele>162</ele>
        <time>2024-05-08T14:43:42Z</time>
      </trkpt>
      <trkpt lat="49.8732" lon="4.78192">
        <ele>162</ele>
        <time>2024-05-08T14:43:43Z</time>
      </trkpt>
      <trkpt lat="49.87319" lon="4.78192">
        <ele>162</ele>
        <time>2024-05-08T14:43:44Z</time>
      </trkpt>
      <trkpt lat="49.87318" lon="4.78192">
        <ele>162</ele>
        <time>2024-05-08T14:43:45Z</time>
      </trkpt>
      <trkpt lat="49.87317" lon="4.78193">
        <ele>162</ele>
        <time>2024-05-08T14:43:46Z</time>
      </trkpt>
      <trkpt lat="49.87316" lon="4.78194">
        <ele>161</ele>
        <time>2024-05-08T14:43:47Z</time>
      </trkpt>
      <trkpt lat="49.87315" lon="4.78195">
        <ele>161</ele>
        <time>2024-05-08T14:43:48Z</time>
      </trkpt>
      <trkpt lat="49.87314" lon="4.78196">
        <ele>161</ele>
        <time>2024-05-08T14:43:49Z</time>
      </trkpt>
      <trkpt lat="49.87313" lon="4.78197">
        <ele>161</ele>
        <time>2024-05-08T14:43:50Z</time>
      </trkpt>
      <trkpt lat="49.87312" lon="4.78198">
        <ele>161</ele>
        <time>2024-05-08T14:43:51Z</time>
      </trkpt>
      <trkpt lat="49.87311" lon="4.78199">
        <ele>161</ele>
        <time>2024-05-08T14:43:52Z</time>
      </trkpt>
      <trkpt lat="49.8731" lon="4.782">
        <ele>161</ele>
        <time>2024-05-08T14:43:53Z</time>
      </trkpt>
      <trkpt lat="49.87308" lon="4.78201">
        <ele>161</ele>
        <time>2024-05-08T14:43:54Z</time>
      </trkpt>
      <trkpt lat="49.87308" lon="4.78202">
        <ele>161</ele>
        <time>2024-05-08T14:43:55Z</time>
      </trkpt>
      <trkpt lat="49.87307" lon="4.78203">
        <ele>161</ele>
        <time>2024-05-08T14:43:56Z</time>
      </trkpt>
      <trkpt lat="49.87306" lon="4.78204">
        <ele>160</ele>
        <time>2024-05-08T14:43:57Z</time>
      </trkpt>
      <trkpt lat="49.87305" lon="4.78205">
        <ele>160</ele>
        <time>2024-05-08T14:43:58Z</time>
      </trkpt>
      <trkpt lat="49.87304" lon="4.78206">
        <ele>160</ele>
        <time>2024-05-08T14:43:59Z</time>
      </trkpt>
      <trkpt lat="49.87303" lon="4.78207">
        <ele>160</ele>
        <time>2024-05-08T14:44:00Z</time>
      </trkpt>
      <trkpt lat="49.87302" lon="4.78208">
        <ele>160</ele>
        <time>2024-05-08T14:44:01Z</time>
      </trkpt>
      <trkpt lat="49.87301" lon="4.78208">
        <ele>159</ele>
        <time>2024-05-08T14:44:02Z</time>
      </trkpt>
      <trkpt lat="49.87301" lon="4.78209">
        <ele>159</ele>
        <time>2024-05-08T14:44:03Z</time>
      </trkpt>
      <trkpt lat="49.873" lon="4.78209">
        <ele>159</ele>
        <time>2024-05-08T14:44:04Z</time>
      </trkpt>
      <trkpt lat="49.87299" lon="4.7821">
        <ele>159</ele>
        <time>2024-05-08T14:44:05Z</time>
      </trkpt>
      <trkpt lat="49.87298" lon="4.78211">
        <ele>159</ele>
        <time>2024-05-08T14:44:06Z</time>
      </trkpt>
      <trkpt lat="49.87297" lon="4.78212">
        <ele>158</ele>
        <time>2024-05-08T14:44:07Z</time>
      </trkpt>
      <trkpt lat="49.87296" lon="4.78213">
        <ele>158</ele>
        <time>2024-05-08T14:44:08Z</time>
      </trkpt>
      <trkpt lat="49.87295" lon="4.78214">
        <ele>158</ele>
        <time>2024-05-08T14:44:09Z</time>
      </trkpt>
      <trkpt lat="49.87294" lon="4.78215">
        <ele>158</ele>
        <time>2024-05-08T14:44:10Z</time>
      </trkpt>
      <trkpt lat="49.87293" lon="4.78215">
        <ele>158</ele>
        <time>2024-05-08T14:44:11Z</time>
      </trkpt>
      <trkpt lat="49.87292" lon="4.78216">
        <ele>158</ele>
        <time>2024-05-08T14:44:12Z</time>
      </trkpt>
      <trkpt lat="49.87291" lon="4.78217">
        <ele>158</ele>
        <time>2024-05-08T14:44:13Z</time>
      </trkpt>
      <trkpt lat="49.8729" lon="4.78218">
        <ele>158</ele>
        <time>2024-05-08T14:44:14Z</time>
      </trkpt>
      <trkpt lat="49.87289" lon="4.78219">
        <ele>158</ele>
        <time>2024-05-08T14:44:15Z</time>
      </trkpt>
      <trkpt lat="49.87288" lon="4.7822">
        <ele>158</ele>
        <time>2024-05-08T14:44:16Z</time>
      </trkpt>
      <trkpt lat="49.87288" lon="4.78221">
        <ele>157</ele>
        <time>2024-05-08T14:44:17Z</time>
      </trkpt>
      <trkpt lat="49.87287" lon="4.78222">
        <ele>157</ele>
        <time>2024-05-08T14:44:18Z</time>
      </trkpt>
      <trkpt lat="49.87286" lon="4.78223">
        <ele>157</ele>
        <time>2024-05-08T14:44:19Z</time>
      </trkpt>
      <trkpt lat="49.87285" lon="4.78224">
        <ele>157</ele>
        <time>2024-05-08T14:44:20Z</time>
      </trkpt>
      <trkpt lat="49.87285" lon="4.78225">
        <ele>157</ele>
        <time>2024-05-08T14:44:21Z</time>
      </trkpt>
      <trkpt lat="49.87284" lon="4.78226">
        <ele>156</ele>
        <time>2024-05-08T14:44:22Z</time>
      </trkpt>
      <trkpt lat="49.87283" lon="4.78227">
        <ele>156</ele>
        <time>2024-05-08T14:44:23Z</time>
      </trkpt>
      <trkpt lat="49.87282" lon="4.78229">
        <ele>156</ele>
        <time>2024-05-08T14:44:24Z</time>
      </trkpt>
      <trkpt lat="49.87282" lon="4.7823">
        <ele>156</ele>
        <time>2024-05-08T14:44:25Z</time>
      </trkpt>
      <trkpt lat="49.87281" lon="4.78231">
        <ele>156</ele>
        <time>2024-05-08T14:44:26Z</time>
      </trkpt>
      <trkpt lat="49.87281" lon="4.78232">
        <ele>155</ele>
        <time>2024-05-08T14:44:27Z</time>
      </trkpt>
      <trkpt lat="49.8728" lon="4.78233">
        <ele>155</ele>
        <time>2024-05-08T14:44:28Z</time>
      </trkpt>
      <trkpt lat="49.8728" lon="4.78234">
        <ele>155</ele>
        <time>2024-05-08T14:44:29Z</time>
      </trkpt>
      <trkpt lat="49.87279" lon="4.78235">
        <ele>155</ele>
        <time>2024-05-08T14:44:30Z</time>
      </trkpt>
      <trkpt lat="49.87279" lon="4.78236">
        <ele>155</ele>
        <time>2024-05-08T14:44:31Z</time>
      </trkpt>
      <trkpt lat="49.87278" lon="4.78237">
        <ele>154</ele>
        <time>2024-05-08T14:44:32Z</time>
      </trkpt>
      <trkpt lat="49.87278" lon="4.78238">
        <ele>154</ele>
        <time>2024-05-08T14:44:33Z</time>
      </trkpt>
      <trkpt lat="49.87277" lon="4.7824">
        <ele>154</ele>
        <time>2024-05-08T14:44:34Z</time>
      </trkpt>
      <trkpt lat="49.87277" lon="4.78241">
        <ele>154</ele>
        <time>2024-05-08T14:44:35Z</time>
      </trkpt>
      <trkpt lat="49.87276" lon="4.78242">
        <ele>154</ele>
        <time>2024-05-08T14:44:36Z</time>
      </trkpt>
      <trkpt lat="49.87276" lon="4.78243">
        <ele>153</ele>
        <time>2024-05-08T14:44:37Z</time>
      </trkpt>
      <trkpt lat="49.87275" lon="4.78244">
        <ele>153</ele>
        <time>2024-05-08T14:44:38Z</time>
      </trkpt>
      <trkpt lat="49.87275" lon="4.78245">
        <ele>153</ele>
        <time>2024-05-08T14:44:39Z</time>
      </trkpt>
      <trkpt lat="49.87274" lon="4.78246">
        <ele>153</ele>
        <time>2024-05-08T14:44:40Z</time>
      </trkpt>
      <trkpt lat="49.87274" lon="4.78247">
        <ele>153</ele>
        <time>2024-05-08T14:44:41Z</time>
      </trkpt>
      <trkpt lat="49.87273" lon="4.78249">
        <ele>152</ele>
        <time>2024-05-08T14:44:42Z</time>
      </trkpt>
      <trkpt lat="49.87273" lon="4.7825">
        <ele>152</ele>
        <time>2024-05-08T14:44:43Z</time>
      </trkpt>
      <trkpt lat="49.87272" lon="4.78251">
        <ele>152</ele>
        <time>2024-05-08T14:44:44Z</time>
      </trkpt>
      <trkpt lat="49.87271" lon="4.78253">
        <ele>152</ele>
        <time>2024-05-08T14:44:45Z</time>
      </trkpt>
      <trkpt lat="49.87271" lon="4.78254">
        <ele>152</ele>
        <time>2024-05-08T14:44:46Z</time>
      </trkpt>
      <trkpt lat="49.8727" lon="4.78255">
        <ele>151</ele>
        <time>2024-05-08T14:44:47Z</time>
      </trkpt>
      <trkpt lat="49.87269" lon="4.78257">
        <ele>151</ele>
        <time>2024-05-08T14:44:48Z</time>
      </trkpt>
      <trkpt lat="49.87268" lon="4.78258">
        <ele>151</ele>
        <time>2024-05-08T14:44:49Z</time>
      </trkpt>
      <trkpt lat="49.87268" lon="4.78259">
        <ele>151</ele>
        <time>2024-05-08T14:44:50Z</time>
      </trkpt>
      <trkpt lat="49.87267" lon="4.78261">
        <ele>151</ele>
        <time>2024-05-08T14:44:51Z</time>
      </trkpt>
      <trkpt lat="49.87267" lon="4.78262">
        <ele>150</ele>
        <time>2024-05-08T14:44:52Z</time>
      </trkpt>
      <trkpt lat="49.87266" lon="4.78264">
        <ele>150</ele>
        <time>2024-05-08T14:44:53Z</time>
      </trkpt>
      <trkpt lat="49.87266" lon="4.78265">
        <ele>150</ele>
        <time>2024-05-08T14:44:54Z</time>
      </trkpt>
      <trkpt lat="49.87265" lon="4.78267">
        <ele>150</ele>
        <time>2024-05-08T14:44:55Z</time>
      </trkpt>
      <trkpt lat="49.87265" lon="4.78268">
        <ele>150</ele>
        <time>2024-05-08T14:44:56Z</time>
      </trkpt>
      <trkpt lat="49.87264" lon="4.7827">
        <ele>149</ele>
        <time>2024-05-08T14:44:57Z</time>
      </trkpt>
      <trkpt lat="49.87264" lon="4.78271">
        <ele>149</ele>
        <time>2024-05-08T14:44:58Z</time>
      </trkpt>
      <trkpt lat="49.87264" lon="4.78272">
        <ele>149</ele>
        <time>2024-05-08T14:44:59Z</time>
      </trkpt>
      <trkpt lat="49.87264" lon="4.78273">
        <ele>149</ele>
        <time>2024-05-08T14:45:00Z</time>
      </trkpt>
      <trkpt lat="49.87264" lon="4.78274">
        <ele>149</ele>
        <time>2024-05-08T14:45:01Z</time>
      </trkpt>
      <trkpt lat="49.87264" lon="4.78275">
        <ele>148</ele>
        <time>2024-05-08T14:45:02Z</time>
      </trkpt>
      <trkpt lat="49.87265" lon="4.78277">
        <ele>148</ele>
        <time>2024-05-08T14:45:03Z</time>
      </trkpt>
      <trkpt lat="49.87266" lon="4.78278">
        <ele>148</ele>
        <time>2024-05-08T14:45:04Z</time>
      </trkpt>
      <trkpt lat="49.87266" lon="4.78279">
        <ele>148</ele>
        <time>2024-05-08T14:45:05Z</time>
      </trkpt>
      <trkpt lat="49.87267" lon="4.7828">
        <ele>148</ele>
        <time>2024-05-08T14:45:06Z</time>
      </trkpt>
      <trkpt lat="49.87267" lon="4.78281">
        <ele>147</ele>
        <time>2024-05-08T14:45:07Z</time>
      </trkpt>
      <trkpt lat="49.87268" lon="4.78283">
        <ele>147</ele>
        <time>2024-05-08T14:45:08Z</time>
      </trkpt>
      <trkpt lat="49.87269" lon="4.78284">
        <ele>147</ele>
        <time>2024-05-08T14:45:09Z</time>
      </trkpt>
      <trkpt lat="49.87269" lon="4.78285">
        <ele>147</ele>
        <time>2024-05-08T14:45:10Z</time>
      </trkpt>
      <trkpt lat="49.8727" lon="4.78286">
        <ele>147</ele>
        <time>2024-05-08T14:45:11Z</time>
      </trkpt>
      <trkpt lat="49.8727" lon="4.78288">
        <ele>146</ele>
        <time>2024-05-08T14:45:12Z</time>
      </trkpt>
      <trkpt lat="49.87271" lon="4.78289">
        <ele>146</ele>
        <time>2024-05-08T14:45:13Z</time>
      </trkpt>
      <trkpt lat="49.87271" lon="4.7829">
        <ele>146</ele>
        <time>2024-05-08T14:45:14Z</time>
      </trkpt>
      <trkpt lat="49.87272" lon="4.78292">
        <ele>146</ele>
        <time>2024-05-08T14:45:15Z</time>
      </trkpt>
      <trkpt lat="49.87272" lon="4.78293">
        <ele>146</ele>
        <time>2024-05-08T14:45:16Z</time>
      </trkpt>
      <trkpt lat="49.87272" lon="4.78295">
        <ele>145</ele>
        <time>2024-05-08T14:45:17Z</time>
      </trkpt>
      <trkpt lat="49.87273" lon="4.78296">
        <ele>145</ele>
        <time>2024-05-08T14:45:18Z</time>
      </trkpt>
      <trkpt lat="49.87273" lon="4.78297">
        <ele>145</ele>
        <time>2024-05-08T14:45:19Z</time>
      </trkpt>
      <trkpt lat="49.87274" lon="4.78299">
        <ele>145</ele>
        <time>2024-05-08T14:45:20Z</time>
      </trkpt>
      <trkpt lat="49.87274" lon="4.783">
        <ele>145</ele>
        <time>2024-05-08T14:45:21Z</time>
      </trkpt>
      <trkpt lat="49.87275" lon="4.78302">
        <ele>144</ele>
        <time>2024-05-08T14:45:22Z</time>
      </trkpt>
      <trkpt lat="49.87275" lon="4.78303">
        <ele>144</ele>
        <time>2024-05-08T14:45:23Z</time>
      </trkpt>
      <trkpt lat="49.87276" lon="4.78305">
        <ele>144</ele>
        <time>2024-05-08T14:45:24Z</time>
      </trkpt>
      <trkpt lat="49.87277" lon="4.78306">
        <ele>144</ele>
        <time>2024-05-08T14:45:25Z</time>
      </trkpt>
      <trkpt lat="49.87277" lon="4.78307">
        <ele>144</ele>
        <time>2024-05-08T14:45:26Z</time>
      </trkpt>
      <trkpt lat="49.87278" lon="4.78309">
        <ele>144</ele>
        <time>2024-05-08T14:45:27Z</time>
      </trkpt>
      <trkpt lat="49.87278" lon="4.7831">
        <ele>144</ele>
        <time>2024-05-08T14:45:28Z</time>
      </trkpt>
      <trkpt lat="49.87279" lon="4.78311">
        <ele>144</ele>
        <time>2024-05-08T14:45:29Z</time>
      </trkpt>
      <trkpt lat="49.87279" lon="4.78313">
        <ele>144</ele>
        <time>2024-05-08T14:45:30Z</time>
      </trkpt>
      <trkpt lat="49.8728" lon="4.78314">
        <ele>144</ele>
        <time>2024-05-08T14:45:31Z</time>
      </trkpt>
      <trkpt lat="49.87281" lon="4.78315">
        <ele>143</ele>
        <time>2024-05-08T14:45:32Z</time>
      </trkpt>
      <trkpt lat="49.87281" lon="4.78317">
        <ele>143</ele>
        <time>2024-05-08T14:45:33Z</time>
      </trkpt>
      <trkpt lat="49.87282" lon="4.78318">
        <ele>143</ele>
        <time>2024-05-08T14:45:34Z</time>
      </trkpt>
      <trkpt lat="49.87283" lon="4.78319">
        <ele>143</ele>
        <time>2024-05-08T14:45:35Z</time>
      </trkpt>
      <trkpt lat="49.87284" lon="4.78321">
        <ele>143</ele>
        <time>2024-05-08T14:45:36Z</time>
      </trkpt>
      <trkpt lat="49.87284" lon="4.78322">
        <ele>143</ele>
        <time>2024-05-08T14:45:37Z</time>
      </trkpt>
      <trkpt lat="49.87285" lon="4.78323">
        <ele>143</ele>
        <time>2024-05-08T14:45:38Z</time>
      </trkpt>
      <trkpt lat="49.87286" lon="4.78324">
        <ele>143</ele>
        <time>2024-05-08T14:45:39Z</time>
      </trkpt>
      <trkpt lat="49.87287" lon="4.78326">
        <ele>143</ele>
        <time>2024-05-08T14:45:40Z</time>
      </trkpt>
      <trkpt lat="49.87288" lon="4.78327">
        <ele>143</ele>
        <time>2024-05-08T14:45:41Z</time>
      </trkpt>
      <trkpt lat="49.87289" lon="4.78328">
        <ele>143</ele>
        <time>2024-05-08T14:45:42Z</time>
      </trkpt>
      <trkpt lat="49.87289" lon="4.78329">
        <ele>143</ele>
        <time>2024-05-08T14:45:43Z</time>
      </trkpt>
      <trkpt lat="49.8729" lon="4.78331">
        <ele>143</ele>
        <time>2024-05-08T14:45:44Z</time>
      </trkpt>
      <trkpt lat="49.87291" lon="4.78332">
        <ele>143</ele>
        <time>2024-05-08T14:45:45Z</time>
      </trkpt>
      <trkpt lat="49.87292" lon="4.78334">
        <ele>143</ele>
        <time>2024-05-08T14:45:46Z</time>
      </trkpt>
      <trkpt lat="49.87292" lon="4.78335">
        <ele>142</ele>
        <time>2024-05-08T14:45:47Z</time>
      </trkpt>
      <trkpt lat="49.87293" lon="4.78337">
        <ele>142</ele>
        <time>2024-05-08T14:45:48Z</time>
      </trkpt>
      <trkpt lat="49.87293" lon="4.78338">
        <ele>142</ele>
        <time>2024-05-08T14:45:49Z</time>
      </trkpt>
      <trkpt lat="49.87294" lon="4.78339">
        <ele>142</ele>
        <time>2024-05-08T14:45:50Z</time>
      </trkpt>
      <trkpt lat="49.87294" lon="4.7834">
        <ele>142</ele>
        <time>2024-05-08T14:45:51Z</time>
      </trkpt>
      <trkpt lat="49.87295" lon="4.78342">
        <ele>142</ele>
        <time>2024-05-08T14:45:52Z</time>
      </trkpt>
      <trkpt lat="49.87296" lon="4.78343">
        <ele>142</ele>
        <time>2024-05-08T14:45:53Z</time>
      </trkpt>
      <trkpt lat="49.87296" lon="4.78344">
        <ele>142</ele>
        <time>2024-05-08T14:45:54Z</time>
      </trkpt>
      <trkpt lat="49.87297" lon="4.78346">
        <ele>142</ele>
        <time>2024-05-08T14:45:55Z</time>
      </trkpt>
      <trkpt lat="49.87298" lon="4.78347">
        <ele>142</ele>
        <time>2024-05-08T14:45:56Z</time>
      </trkpt>
      <trkpt lat="49.87298" lon="4.78349">
        <ele>142</ele>
        <time>2024-05-08T14:45:57Z</time>
      </trkpt>
      <trkpt lat="49.87299" lon="4.7835">
        <ele>142</ele>
        <time>2024-05-08T14:45:58Z</time>
      </trkpt>
      <trkpt lat="49.873" lon="4.78351">
        <ele>142</ele>
        <time>2024-05-08T14:45:59Z</time>
      </trkpt>
      <trkpt lat="49.873" lon="4.78353">
        <ele>142</ele>
        <time>2024-05-08T14:46:00Z</time>
      </trkpt>
      <trkpt lat="49.87301" lon="4.78354">
        <ele>142</ele>
        <time>2024-05-08T14:46:01Z</time>
      </trkpt>
      <trkpt lat="49.87302" lon="4.78356">
        <ele>142</ele>
        <time>2024-05-08T14:46:02Z</time>
      </trkpt>
      <trkpt lat="49.87302" lon="4.78357">
        <ele>142</ele>
        <time>2024-05-08T14:46:03Z</time>
      </trkpt>
      <trkpt lat="49.87303" lon="4.78359">
        <ele>142</ele>
        <time>2024-05-08T14:46:04Z</time>
      </trkpt>
      <trkpt lat="49.87304" lon="4.7836">
        <ele>142</ele>
        <time>2024-05-08T14:46:05Z</time>
      </trkpt>
      <trkpt lat="49.87304" lon="4.78361">
        <ele>142</ele>
        <time>2024-05-08T14:46:06Z</time>
      </trkpt>
      <trkpt lat="49.87305" lon="4.78363">
        <ele>142</ele>
        <time>2024-05-08T14:46:07Z</time>
      </trkpt>
      <trkpt lat="49.87306" lon="4.78364">
        <ele>142</ele>
        <time>2024-05-08T14:46:08Z</time>
      </trkpt>
      <trkpt lat="49.87306" lon="4.78365">
        <ele>142</ele>
        <time>2024-05-08T14:46:09Z</time>
      </trkpt>
      <trkpt lat="49.87307" lon="4.78366">
        <ele>142</ele>
        <time>2024-05-08T14:46:10Z</time>
      </trkpt>
      <trkpt lat="49.87308" lon="4.78367">
        <ele>142</ele>
        <time>2024-05-08T14:46:11Z</time>
      </trkpt>
      <trkpt lat="49.87309" lon="4.78368">
        <ele>142</ele>
        <time>2024-05-08T14:46:12Z</time>
      </trkpt>
      <trkpt lat="49.87309" lon="4.7837">
        <ele>142</ele>
        <time>2024-05-08T14:46:13Z</time>
      </trkpt>
      <trkpt lat="49.8731" lon="4.78371">
        <ele>142</ele>
        <time>2024-05-08T14:46:14Z</time>
      </trkpt>
      <trkpt lat="49.87311" lon="4.78372">
        <ele>142</ele>
        <time>2024-05-08T14:46:15Z</time>
      </trkpt>
      <trkpt lat="49.87311" lon="4.78373">
        <ele>142</ele>
        <time>2024-05-08T14:46:16Z</time>
      </trkpt>
      <trkpt lat="49.87312" lon="4.78374">
        <ele>142</ele>
        <time>2024-05-08T14:46:17Z</time>
      </trkpt>
      <trkpt lat="49.87312" lon="4.78376">
        <ele>142</ele>
        <time>2024-05-08T14:46:18Z</time>
      </trkpt>
      <trkpt lat="49.87313" lon="4.78377">
        <ele>142</ele>
        <time>2024-05-08T14:46:19Z</time>
      </trkpt>
      <trkpt lat="49.87314" lon="4.78378">
        <ele>142</ele>
        <time>2024-05-08T14:46:20Z</time>
      </trkpt>
      <trkpt lat="49.87315" lon="4.7838">
        <ele>142</ele>
        <time>2024-05-08T14:46:21Z</time>
      </trkpt>
      <trkpt lat="49.87315" lon="4.78381">
        <ele>142</ele>
        <time>2024-05-08T14:46:22Z</time>
      </trkpt>
      <trkpt lat="49.87316" lon="4.78382">
        <ele>142</ele>
        <time>2024-05-08T14:46:23Z</time>
      </trkpt>
      <trkpt lat="49.87317" lon="4.78384">
        <ele>142</ele>
        <time>2024-05-08T14:46:24Z</time>
      </trkpt>
      <trkpt lat="49.87318" lon="4.78385">
        <ele>142</ele>
        <time>2024-05-08T14:46:25Z</time>
      </trkpt>
      <trkpt lat="49.87318" lon="4.78387">
        <ele>142</ele>
        <time>2024-05-08T14:46:26Z</time>
      </trkpt>
      <trkpt lat="49.87319" lon="4.78388">
        <ele>142</ele>
        <time>2024-05-08T14:46:27Z</time>
      </trkpt>
      <trkpt lat="49.8732" lon="4.7839">
        <ele>142</ele>
        <time>2024-05-08T14:46:28Z</time>
      </trkpt>
      <trkpt lat="49.87321" lon="4.78391">
        <ele>142</ele>
        <time>2024-05-08T14:46:29Z</time>
      </trkpt>
      <trkpt lat="49.87321" lon="4.78393">
        <ele>142</ele>
        <time>2024-05-08T14:46:30Z</time>
      </trkpt>
      <trkpt lat="49.87322" lon="4.78394">
        <ele>142</ele>
        <time>2024-05-08T14:46:31Z</time>
      </trkpt>
      <trkpt lat="49.87323" lon="4.78395">
        <ele>142</ele>
        <time>2024-05-08T14:46:32Z</time>
      </trkpt>
      <trkpt lat="49.87323" lon="4.78397">
        <ele>142</ele>
        <time>2024-05-08T14:46:33Z</time>
      </trkpt>
      <trkpt lat="49.87324" lon="4.78398">
        <ele>142</ele>
        <time>2024-05-08T14:46:34Z</time>
      </trkpt>
      <trkpt lat="49.87325" lon="4.784">
        <ele>142</ele>
        <time>2024-05-08T14:46:35Z</time>
      </trkpt>
      <trkpt lat="49.87325" lon="4.78402">
        <ele>142</ele>
        <time>2024-05-08T14:46:36Z</time>
      </trkpt>
      <trkpt lat="49.87326" lon="4.78403">
        <ele>142</ele>
        <time>2024-05-08T14:46:37Z</time>
      </trkpt>
      <trkpt lat="49.87326" lon="4.78405">
        <ele>142</ele>
        <time>2024-05-08T14:46:38Z</time>
      </trkpt>
      <trkpt lat="49.87327" lon="4.78406">
        <ele>142</ele>
        <time>2024-05-08T14:46:39Z</time>
      </trkpt>
      <trkpt lat="49.87328" lon="4.78407">
        <ele>142</ele>
        <time>2024-05-08T14:46:40Z</time>
      </trkpt>
      <trkpt lat="49.87329" lon="4.78409">
        <ele>142</ele>
        <time>2024-05-08T14:46:41Z</time>
      </trkpt>
      <trkpt lat="49.87329" lon="4.7841">
        <ele>142</ele>
        <time>2024-05-08T14:46:42Z</time>
      </trkpt>
      <trkpt lat="49.8733" lon="4.78411">
        <ele>142</ele>
        <time>2024-05-08T14:46:43Z</time>
      </trkpt>
      <trkpt lat="49.87331" lon="4.78412">
        <ele>142</ele>
        <time>2024-05-08T14:46:44Z</time>
      </trkpt>
      <trkpt lat="49.87332" lon="4.78414">
        <ele>142</ele>
        <time>2024-05-08T14:46:45Z</time>
      </trkpt>
      <trkpt lat="49.87332" lon="4.78415">
        <ele>142</ele>
        <time>2024-05-08T14:46:46Z</time>
      </trkpt>
      <trkpt lat="49.87333" lon="4.78416">
        <ele>142</ele>
        <time>2024-05-08T14:46:47Z</time>
      </trkpt>
      <trkpt lat="49.87334" lon="4.78418">
        <ele>142</ele>
        <time>2024-05-08T14:46:48Z</time>
      </trkpt>
      <trkpt lat="49.87335" lon="4.78419">
        <ele>142</ele>
        <time>2024-05-08T14:46:49Z</time>
      </trkpt>
      <trkpt lat="49.87335" lon="4.7842">
        <ele>142</ele>
        <time>2024-05-08T14:46:50Z</time>
      </trkpt>
      <trkpt lat="49.87336" lon="4.78421">
        <ele>142</ele>
        <time>2024-05-08T14:46:51Z</time>
      </trkpt>
      <trkpt lat="49.87337" lon="4.78423">
        <ele>141</ele>
        <time>2024-05-08T14:46:52Z</time>
      </trkpt>
      <trkpt lat="49.87337" lon="4.78424">
        <ele>141</ele>
        <time>2024-05-08T14:46:53Z</time>
      </trkpt>
      <trkpt lat="49.87338" lon="4.78425">
        <ele>141</ele>
        <time>2024-05-08T14:46:54Z</time>
      </trkpt>
      <trkpt lat="49.87338" lon="4.78425">
        <ele>141</ele>
        <time>2024-05-08T14:46:55Z</time>
      </trkpt>
      <trkpt lat="49.87338" lon="4.78426">
        <ele>141</ele>
        <time>2024-05-08T14:46:56Z</time>
      </trkpt>
      <trkpt lat="49.87336" lon="4.78427">
        <ele>140</ele>
        <time>2024-05-08T14:47:02Z</time>
      </trkpt>
      <trkpt lat="49.87336" lon="4.78427">
        <ele>140</ele>
        <time>2024-05-08T14:47:03Z</time>
      </trkpt>
      <trkpt lat="49.87336" lon="4.78428">
        <ele>140</ele>
        <time>2024-05-08T14:47:04Z</time>
      </trkpt>
      <trkpt lat="49.87336" lon="4.78428">
        <ele>140</ele>
        <time>2024-05-08T14:47:05Z</time>
      </trkpt>
      <trkpt lat="49.87336" lon="4.78429">
        <ele>140</ele>
        <time>2024-05-08T14:47:06Z</time>
      </trkpt>
      <trkpt lat="49.87336" lon="4.7843">
        <ele>140</ele>
        <time>2024-05-08T14:47:07Z</time>
      </trkpt>
      <trkpt lat="49.87336" lon="4.78431">
        <ele>140</ele>
        <time>2024-05-08T14:47:08Z</time>
      </trkpt>
      <trkpt lat="49.87336" lon="4.78432">
        <ele>140</ele>
        <time>2024-05-08T14:47:09Z</time>
      </trkpt>
      <trkpt lat="49.87337" lon="4.78434">
        <ele>140</ele>
        <time>2024-05-08T14:47:10Z</time>
      </trkpt>
      <trkpt lat="49.87337" lon="4.78435">
        <ele>140</ele>
        <time>2024-05-08T14:47:11Z</time>
      </trkpt>
      <trkpt lat="49.87337" lon="4.78436">
        <ele>140</ele>
        <time>2024-05-08T14:47:12Z</time>
      </trkpt>
      <trkpt lat="49.87338" lon="4.78437">
        <ele>140</ele>
        <time>2024-05-08T14:47:13Z</time>
      </trkpt>
      <trkpt lat="49.87338" lon="4.78438">
        <ele>140</ele>
        <time>2024-05-08T14:47:14Z</time>
      </trkpt>
      <trkpt lat="49.87339" lon="4.78439">
        <ele>140</ele>
        <time>2024-05-08T14:47:15Z</time>
      </trkpt>
      <trkpt lat="49.87339" lon="4.7844">
        <ele>140</ele>
        <time>2024-05-08T14:47:16Z</time>
      </trkpt>
      <trkpt lat="49.8734" lon="4.78441">
        <ele>140</ele>
        <time>2024-05-08T14:47:17Z</time>
      </trkpt>
      <trkpt lat="49.8734" lon="4.78442">
        <ele>140</ele>
        <time>2024-05-08T14:47:18Z</time>
      </trkpt>
      <trkpt lat="49.87341" lon="4.78444">
        <ele>140</ele>
        <time>2024-05-08T14:47:19Z</time>
      </trkpt>
      <trkpt lat="49.87341" lon="4.78445">
        <ele>140</ele>
        <time>2024-05-08T14:47:20Z</time>
      </trkpt>
      <trkpt lat="49.87342" lon="4.78446">
        <ele>140</ele>
        <time>2024-05-08T14:47:21Z</time>
      </trkpt>
      <trkpt lat="49.87343" lon="4.78447">
        <ele>139</ele>
        <time>2024-05-08T14:47:22Z</time>
      </trkpt>
      <trkpt lat="49.87343" lon="4.78449">
        <ele>139</ele>
        <time>2024-05-08T14:47:23Z</time>
      </trkpt>
      <trkpt lat="49.87344" lon="4.7845">
        <ele>139</ele>
        <time>2024-05-08T14:47:24Z</time>
      </trkpt>
      <trkpt lat="49.87344" lon="4.78451">
        <ele>139</ele>
        <time>2024-05-08T14:47:25Z</time>
      </trkpt>
      <trkpt lat="49.87345" lon="4.78452">
        <ele>139</ele>
        <time>2024-05-08T14:47:26Z</time>
      </trkpt>
      <trkpt lat="49.87345" lon="4.78453">
        <ele>139</ele>
        <time>2024-05-08T14:47:27Z</time>
      </trkpt>
      <trkpt lat="49.87346" lon="4.78454">
        <ele>139</ele>
        <time>2024-05-08T14:47:28Z</time>
      </trkpt>
      <trkpt lat="49.87346" lon="4.78456">
        <ele>139</ele>
        <time>2024-05-08T14:47:29Z</time>
      </trkpt>
      <trkpt lat="49.87347" lon="4.78457">
        <ele>139</ele>
        <time>2024-05-08T14:47:30Z</time>
      </trkpt>
      <trkpt lat="49.87347" lon="4.78458">
        <ele>140</ele>
        <time>2024-05-08T14:47:31Z</time>
      </trkpt>
      <trkpt lat="49.87347" lon="4.78458">
        <ele>139</ele>
        <time>2024-05-08T14:47:32Z</time>
      </trkpt>
      <trkpt lat="49.87347" lon="4.78459">
        <ele>139</ele>
        <time>2024-05-08T14:47:33Z</time>
      </trkpt>
      <trkpt lat="49.87347" lon="4.7846">
        <ele>139</ele>
        <time>2024-05-08T14:47:34Z</time>
      </trkpt>
      <trkpt lat="49.87347" lon="4.7846">
        <ele>139</ele>
        <time>2024-05-08T14:47:35Z</time>
      </trkpt>
      <trkpt lat="49.87347" lon="4.78461">
        <ele>139</ele>
        <time>2024-05-08T14:47:36Z</time>
      </trkpt>
      <trkpt lat="49.87347" lon="4.7846">
        <ele>139</ele>
        <time>2024-05-08T14:47:37Z</time>
      </trkpt>
      <trkpt lat="49.87346" lon="4.7846">
        <ele>139</ele>
        <time>2024-05-08T14:47:38Z</time>
      </trkpt>
      <trkpt lat="49.87346" lon="4.78458">
        <ele>139</ele>
        <time>2024-05-08T14:47:39Z</time>
      </trkpt>
      <trkpt lat="49.87345" lon="4.78457">
        <ele>139</ele>
        <time>2024-05-08T14:47:40Z</time>
      </trkpt>
      <trkpt lat="49.87344" lon="4.78456">
        <ele>139</ele>
        <time>2024-05-08T14:47:41Z</time>
      </trkpt>
      <trkpt lat="49.87344" lon="4.78454">
        <ele>139</ele>
        <time>2024-05-08T14:47:42Z</time>
      </trkpt>
      <trkpt lat="49.87343" lon="4.78452">
        <ele>139</ele>
        <time>2024-05-08T14:47:43Z</time>
      </trkpt>
      <trkpt lat="49.87342" lon="4.78451">
        <ele>139</ele>
        <time>2024-05-08T14:47:44Z</time>
      </trkpt>
      <trkpt lat="49.87341" lon="4.7845">
        <ele>139</ele>
        <time>2024-05-08T14:47:45Z</time>
      </trkpt>
      <trkpt lat="49.8734" lon="4.78448">
        <ele>139</ele>
        <time>2024-05-08T14:47:46Z</time>
      </trkpt>
      <trkpt lat="49.8734" lon="4.78447">
        <ele>139</ele>
        <time>2024-05-08T14:47:47Z</time>
      </trkpt>
      <trkpt lat="49.87339" lon="4.78446">
        <ele>139</ele>
        <time>2024-05-08T14:47:48Z</time>
      </trkpt>
      <trkpt lat="49.87338" lon="4.78444">
        <ele>139</ele>
        <time>2024-05-08T14:47:49Z</time>
      </trkpt>
      <trkpt lat="49.87337" lon="4.78443">
        <ele>139</ele>
        <time>2024-05-08T14:47:50Z</time>
      </trkpt>
      <trkpt lat="49.87337" lon="4.78441">
        <ele>140</ele>
        <time>2024-05-08T14:47:51Z</time>
      </trkpt>
      <trkpt lat="49.87336" lon="4.78439">
        <ele>140</ele>
        <time>2024-05-08T14:47:52Z</time>
      </trkpt>
      <trkpt lat="49.87336" lon="4.78437">
        <ele>140</ele>
        <time>2024-05-08T14:47:53Z</time>
      </trkpt>
      <trkpt lat="49.87335" lon="4.78435">
        <ele>140</ele>
        <time>2024-05-08T14:47:54Z</time>
      </trkpt>
      <trkpt lat="49.87335" lon="4.78434">
        <ele>140</ele>
        <time>2024-05-08T14:47:55Z</time>
      </trkpt>
      <trkpt lat="49.87335" lon="4.78432">
        <ele>140</ele>
        <time>2024-05-08T14:47:56Z</time>
      </trkpt>
      <trkpt lat="49.87334" lon="4.78431">
        <ele>140</ele>
        <time>2024-05-08T14:47:57Z</time>
      </trkpt>
      <trkpt lat="49.87334" lon="4.7843">
        <ele>140</ele>
        <time>2024-05-08T14:47:58Z</time>
      </trkpt>
      <trkpt lat="49.87334" lon="4.78429">
        <ele>141</ele>
        <time>2024-05-08T14:48:06Z</time>
      </trkpt>
      <trkpt lat="49.87335" lon="4.78429">
        <ele>141</ele>
        <time>2024-05-08T14:48:07Z</time>
      </trkpt>
      <trkpt lat="49.87335" lon="4.78428">
        <ele>141</ele>
        <time>2024-05-08T14:48:08Z</time>
      </trkpt>
      <trkpt lat="49.87336" lon="4.78429">
        <ele>141</ele>
        <time>2024-05-08T14:48:09Z</time>
      </trkpt>
      <trkpt lat="49.87336" lon="4.78429">
        <ele>141</ele>
        <time>2024-05-08T14:48:10Z</time>
      </trkpt>
      <trkpt lat="49.87337" lon="4.7843">
        <ele>141</ele>
        <time>2024-05-08T14:48:11Z</time>
      </trkpt>
      <trkpt lat="49.87337" lon="4.78431">
        <ele>141</ele>
        <time>2024-05-08T14:48:12Z</time>
      </trkpt>
      <trkpt lat="49.87338" lon="4.78433">
        <ele>141</ele>
        <time>2024-05-08T14:48:19Z</time>
      </trkpt>
      <trkpt lat="49.87339" lon="4.78433">
        <ele>141</ele>
        <time>2024-05-08T14:48:20Z</time>
      </trkpt>
      <trkpt lat="49.8734" lon="4.78433">
        <ele>141</ele>
        <time>2024-05-08T14:48:21Z</time>
      </trkpt>
      <trkpt lat="49.87341" lon="4.78433">
        <ele>141</ele>
        <time>2024-05-08T14:48:22Z</time>
      </trkpt>
      <trkpt lat="49.87341" lon="4.78433">
        <ele>141</ele>
        <time>2024-05-08T14:48:23Z</time>
      </trkpt>
      <trkpt lat="49.87342" lon="4.78433">
        <ele>141</ele>
        <time>2024-05-08T14:48:24Z</time>
      </trkpt>
      <trkpt lat="49.87343" lon="4.78432">
        <ele>141</ele>
        <time>2024-05-08T14:48:25Z</time>
      </trkpt>
      <trkpt lat="49.87344" lon="4.78431">
        <ele>141</ele>
        <time>2024-05-08T14:48:26Z</time>
      </trkpt>
      <trkpt lat="49.87345" lon="4.78431">
        <ele>141</ele>
        <time>2024-05-08T14:48:27Z</time>
      </trkpt>
      <trkpt lat="49.87345" lon="4.78431">
        <ele>141</ele>
        <time>2024-05-08T14:48:28Z</time>
      </trkpt>
      <trkpt lat="49.87346" lon="4.78431">
        <ele>141</ele>
        <time>2024-05-08T14:48:29Z</time>
      </trkpt>
      <trkpt lat="49.87347" lon="4.78431">
        <ele>141</ele>
        <time>2024-05-08T14:48:30Z</time>
      </trkpt>
      <trkpt lat="49.87348" lon="4.7843">
        <ele>141</ele>
        <time>2024-05-08T14:48:31Z</time>
      </trkpt>
      <trkpt lat="49.8735" lon="4.7843">
        <ele>141</ele>
        <time>2024-05-08T14:48:32Z</time>
      </trkpt>
      <trkpt lat="49.87351" lon="4.7843">
        <ele>141</ele>
        <time>2024-05-08T14:48:33Z</time>
      </trkpt>
      <trkpt lat="49.87352" lon="4.7843">
        <ele>141</ele>
        <time>2024-05-08T14:48:34Z</time>
      </trkpt>
      <trkpt lat="49.87353" lon="4.7843">
        <ele>141</ele>
        <time>2024-05-08T14:48:35Z</time>
      </trkpt>
      <trkpt lat="49.87354" lon="4.7843">
        <ele>141</ele>
        <time>2024-05-08T14:48:36Z</time>
      </trkpt>
      <trkpt lat="49.87355" lon="4.7843">
        <ele>141</ele>
        <time>2024-05-08T14:48:37Z</time>
      </trkpt>
      <trkpt lat="49.87356" lon="4.78431">
        <ele>141</ele>
        <time>2024-05-08T14:48:38Z</time>
      </trkpt>
      <trkpt lat="49.87357" lon="4.78431">
        <ele>141</ele>
        <time>2024-05-08T14:48:39Z</time>
      </trkpt>
      <trkpt lat="49.87358" lon="4.78432">
        <ele>141</ele>
        <time>2024-05-08T14:48:40Z</time>
      </trkpt>
      <trkpt lat="49.87359" lon="4.78432">
        <ele>141</ele>
        <time>2024-05-08T14:48:41Z</time>
      </trkpt>
      <trkpt lat="49.8736" lon="4.78433">
        <ele>141</ele>
        <time>2024-05-08T14:48:42Z</time>
      </trkpt>
      <trkpt lat="49.8736" lon="4.78435">
        <ele>141</ele>
        <time>2024-05-08T14:48:43Z</time>
      </trkpt>
      <trkpt lat="49.87361" lon="4.78436">
        <ele>141</ele>
        <time>2024-05-08T14:48:44Z</time>
      </trkpt>
      <trkpt lat="49.87362" lon="4.78438">
        <ele>141</ele>
        <time>2024-05-08T14:48:45Z</time>
      </trkpt>
      <trkpt lat="49.87363" lon="4.78439">
        <ele>141</ele>
        <time>2024-05-08T14:48:46Z</time>
      </trkpt>
      <trkpt lat="49.87363" lon="4.78441">
        <ele>141</ele>
        <time>2024-05-08T14:48:47Z</time>
      </trkpt>
      <trkpt lat="49.87364" lon="4.78443">
        <ele>141</ele>
        <time>2024-05-08T14:48:48Z</time>
      </trkpt>
      <trkpt lat="49.87365" lon="4.78445">
        <ele>141</ele>
        <time>2024-05-08T14:48:49Z</time>
      </trkpt>
      <trkpt lat="49.87365" lon="4.78447">
        <ele>141</ele>
        <time>2024-05-08T14:48:50Z</time>
      </trkpt>
      <trkpt lat="49.87366" lon="4.7845">
        <ele>141</ele>
        <time>2024-05-08T14:48:51Z</time>
      </trkpt>
      <trkpt lat="49.87367" lon="4.78452">
        <ele>141</ele>
        <time>2024-05-08T14:48:52Z</time>
      </trkpt>
      <trkpt lat="49.87368" lon="4.78454">
        <ele>141</ele>
        <time>2024-05-08T14:48:53Z</time>
      </trkpt>
      <trkpt lat="49.87368" lon="4.78456">
        <ele>141</ele>
        <time>2024-05-08T14:48:54Z</time>
      </trkpt>
      <trkpt lat="49.87369" lon="4.78458">
        <ele>141</ele>
        <time>2024-05-08T14:48:55Z</time>
      </trkpt>
      <trkpt lat="49.87369" lon="4.7846">
        <ele>142</ele>
        <time>2024-05-08T14:48:56Z</time>
      </trkpt>
      <trkpt lat="49.87369" lon="4.78461">
        <ele>142</ele>
        <time>2024-05-08T14:48:57Z</time>
      </trkpt>
      <trkpt lat="49.87368" lon="4.78463">
        <ele>142</ele>
        <time>2024-05-08T14:48:58Z</time>
      </trkpt>
      <trkpt lat="49.87368" lon="4.78464">
        <ele>142</ele>
        <time>2024-05-08T14:48:59Z</time>
      </trkpt>
      <trkpt lat="49.87367" lon="4.78466">
        <ele>142</ele>
        <time>2024-05-08T14:49:00Z</time>
      </trkpt>
      <trkpt lat="49.87366" lon="4.78467">
        <ele>143</ele>
        <time>2024-05-08T14:49:01Z</time>
      </trkpt>
      <trkpt lat="49.87365" lon="4.78468">
        <ele>143</ele>
        <time>2024-05-08T14:49:02Z</time>
      </trkpt>
      <trkpt lat="49.87364" lon="4.78469">
        <ele>143</ele>
        <time>2024-05-08T14:49:03Z</time>
      </trkpt>
      <trkpt lat="49.87364" lon="4.7847">
        <ele>143</ele>
        <time>2024-05-08T14:49:04Z</time>
      </trkpt>
      <trkpt lat="49.87363" lon="4.78471">
        <ele>143</ele>
        <time>2024-05-08T14:49:05Z</time>
      </trkpt>
      <trkpt lat="49.87362" lon="4.78472">
        <ele>143</ele>
        <time>2024-05-08T14:49:06Z</time>
      </trkpt>
      <trkpt lat="49.87361" lon="4.78473">
        <ele>143</ele>
        <time>2024-05-08T14:49:07Z</time>
      </trkpt>
      <trkpt lat="49.8736" lon="4.78473">
        <ele>143</ele>
        <time>2024-05-08T14:49:08Z</time>
      </trkpt>
      <trkpt lat="49.87359" lon="4.78474">
        <ele>143</ele>
        <time>2024-05-08T14:49:09Z</time>
      </trkpt>
      <trkpt lat="49.87358" lon="4.78475">
        <ele>143</ele>
        <time>2024-05-08T14:49:10Z</time>
      </trkpt>
      <trkpt lat="49.87357" lon="4.78475">
        <ele>143</ele>
        <time>2024-05-08T14:49:36Z</time>
      </trkpt>
      <trkpt lat="49.87356" lon="4.78476">
        <ele>143</ele>
        <time>2024-05-08T14:49:37Z</time>
      </trkpt>
      <trkpt lat="49.87356" lon="4.78476">
        <ele>143</ele>
        <time>2024-05-08T14:49:38Z</time>
      </trkpt>
      <trkpt lat="49.87355" lon="4.78477">
        <ele>143</ele>
        <time>2024-05-08T14:49:39Z</time>
      </trkpt>
      <trkpt lat="49.87355" lon="4.78477">
        <ele>143</ele>
        <time>2024-05-08T14:49:40Z</time>
      </trkpt>
      <trkpt lat="49.87354" lon="4.78478">
        <ele>143</ele>
        <time>2024-05-08T14:49:41Z</time>
      </trkpt>
      <trkpt lat="49.87353" lon="4.78478">
        <ele>143</ele>
        <time>2024-05-08T14:49:42Z</time>
      </trkpt>
      <trkpt lat="49.87353" lon="4.78479">
        <ele>143</ele>
        <time>2024-05-08T14:49:43Z</time>
      </trkpt>
      <trkpt lat="49.87352" lon="4.7848">
        <ele>143</ele>
        <time>2024-05-08T14:49:44Z</time>
      </trkpt>
      <trkpt lat="49.87351" lon="4.78481">
        <ele>143</ele>
        <time>2024-05-08T14:49:45Z</time>
      </trkpt>
      <trkpt lat="49.8735" lon="4.78482">
        <ele>144</ele>
        <time>2024-05-08T14:49:46Z</time>
      </trkpt>
      <trkpt lat="49.87349" lon="4.78482">
        <ele>144</ele>
        <time>2024-05-08T14:49:47Z</time>
      </trkpt>
      <trkpt lat="49.87348" lon="4.78483">
        <ele>144</ele>
        <time>2024-05-08T14:49:48Z</time>
      </trkpt>
      <trkpt lat="49.87347" lon="4.78484">
        <ele>144</ele>
        <time>2024-05-08T14:49:49Z</time>
      </trkpt>
      <trkpt lat="49.87346" lon="4.78485">
        <ele>144</ele>
        <time>2024-05-08T14:49:50Z</time>
      </trkpt>
      <trkpt lat="49.87345" lon="4.78486">
        <ele>144</ele>
        <time>2024-05-08T14:49:51Z</time>
      </trkpt>
      <trkpt lat="49.87344" lon="4.78487">
        <ele>144</ele>
        <time>2024-05-08T14:49:52Z</time>
      </trkpt>
      <trkpt lat="49.87343" lon="4.78487">
        <ele>144</ele>
        <time>2024-05-08T14:49:53Z</time>
      </trkpt>
      <trkpt lat="49.87342" lon="4.78488">
        <ele>144</ele>
        <time>2024-05-08T14:49:54Z</time>
      </trkpt>
      <trkpt lat="49.87341" lon="4.78489">
        <ele>144</ele>
        <time>2024-05-08T14:49:55Z</time>
      </trkpt>
      <trkpt lat="49.8734" lon="4.7849">
        <ele>144</ele>
        <time>2024-05-08T14:49:56Z</time>
      </trkpt>
      <trkpt lat="49.87339" lon="4.7849">
        <ele>144</ele>
        <time>2024-05-08T14:49:57Z</time>
      </trkpt>
      <trkpt lat="49.87338" lon="4.78491">
        <ele>144</ele>
        <time>2024-05-08T14:49:58Z</time>
      </trkpt>
      <trkpt lat="49.87337" lon="4.78492">
        <ele>144</ele>
        <time>2024-05-08T14:49:59Z</time>
      </trkpt>
      <trkpt lat="49.87336" lon="4.78492">
        <ele>144</ele>
        <time>2024-05-08T14:50:00Z</time>
      </trkpt>
      <trkpt lat="49.87335" lon="4.78493">
        <ele>144</ele>
        <time>2024-05-08T14:50:01Z</time>
      </trkpt>
      <trkpt lat="49.87334" lon="4.78494">
        <ele>144</ele>
        <time>2024-05-08T14:50:02Z</time>
      </trkpt>
      <trkpt lat="49.87333" lon="4.78495">
        <ele>144</ele>
        <time>2024-05-08T14:50:03Z</time>
      </trkpt>
      <trkpt lat="49.87332" lon="4.78496">
        <ele>144</ele>
        <time>2024-05-08T14:50:04Z</time>
      </trkpt>
      <trkpt lat="49.87332" lon="4.78497">
        <ele>144</ele>
        <time>2024-05-08T14:50:05Z</time>
      </trkpt>
      <trkpt lat="49.87331" lon="4.78498">
        <ele>144</ele>
        <time>2024-05-08T14:50:06Z</time>
      </trkpt>
      <trkpt lat="49.87329" lon="4.785">
        <ele>144</ele>
        <time>2024-05-08T14:50:15Z</time>
      </trkpt>
      <trkpt lat="49.87328" lon="4.78501">
        <ele>144</ele>
        <time>2024-05-08T14:50:16Z</time>
      </trkpt>
      <trkpt lat="49.87328" lon="4.78501">
        <ele>144</ele>
        <time>2024-05-08T14:50:17Z</time>
      </trkpt>
      <trkpt lat="49.87327" lon="4.78502">
        <ele>144</ele>
        <time>2024-05-08T14:50:18Z</time>
      </trkpt>
      <trkpt lat="49.87327" lon="4.78502">
        <ele>144</ele>
        <time>2024-05-08T14:50:19Z</time>
      </trkpt>
      <trkpt lat="49.87326" lon="4.78503">
        <ele>144</ele>
        <time>2024-05-08T14:50:20Z</time>
      </trkpt>
      <trkpt lat="49.87325" lon="4.78503">
        <ele>144</ele>
        <time>2024-05-08T14:50:21Z</time>
      </trkpt>
      <trkpt lat="49.87324" lon="4.78504">
        <ele>144</ele>
        <time>2024-05-08T14:50:22Z</time>
      </trkpt>
      <trkpt lat="49.87323" lon="4.78505">
        <ele>144</ele>
        <time>2024-05-08T14:50:23Z</time>
      </trkpt>
      <trkpt lat="49.87322" lon="4.78506">
        <ele>144</ele>
        <time>2024-05-08T14:50:24Z</time>
      </trkpt>
      <trkpt lat="49.87321" lon="4.78506">
        <ele>144</ele>
        <time>2024-05-08T14:50:25Z</time>
      </trkpt>
      <trkpt lat="49.8732" lon="4.78507">
        <ele>144</ele>
        <time>2024-05-08T14:50:26Z</time>
      </trkpt>
      <trkpt lat="49.87319" lon="4.78508">
        <ele>144</ele>
        <time>2024-05-08T14:50:27Z</time>
      </trkpt>
      <trkpt lat="49.87317" lon="4.7851">
        <ele>144</ele>
        <time>2024-05-08T14:50:45Z</time>
      </trkpt>
      <trkpt lat="49.87316" lon="4.78511">
        <ele>144</ele>
        <time>2024-05-08T14:50:46Z</time>
      </trkpt>
      <trkpt lat="49.87315" lon="4.78513">
        <ele>144</ele>
        <time>2024-05-08T14:50:47Z</time>
      </trkpt>
      <trkpt lat="49.87314" lon="4.78514">
        <ele>144</ele>
        <time>2024-05-08T14:50:48Z</time>
      </trkpt>
      <trkpt lat="49.87313" lon="4.78515">
        <ele>144</ele>
        <time>2024-05-08T14:50:49Z</time>
      </trkpt>
      <trkpt lat="49.87312" lon="4.78516">
        <ele>144</ele>
        <time>2024-05-08T14:50:50Z</time>
      </trkpt>
      <trkpt lat="49.87311" lon="4.78517">
        <ele>144</ele>
        <time>2024-05-08T14:50:51Z</time>
      </trkpt>
      <trkpt lat="49.8731" lon="4.78518">
        <ele>144</ele>
        <time>2024-05-08T14:50:52Z</time>
      </trkpt>
      <trkpt lat="49.87309" lon="4.78519">
        <ele>144</ele>
        <time>2024-05-08T14:50:53Z</time>
      </trkpt>
      <trkpt lat="49.87308" lon="4.78519">
        <ele>144</ele>
        <time>2024-05-08T14:50:54Z</time>
      </trkpt>
      <trkpt lat="49.87308" lon="4.7852">
        <ele>144</ele>
        <time>2024-05-08T14:50:55Z</time>
      </trkpt>
      <trkpt lat="49.87307" lon="4.78521">
        <ele>144</ele>
        <time>2024-05-08T14:50:56Z</time>
      </trkpt>
      <trkpt lat="49.87306" lon="4.78522">
        <ele>143</ele>
        <time>2024-05-08T14:50:57Z</time>
      </trkpt>
      <trkpt lat="49.87305" lon="4.78523">
        <ele>143</ele>
        <time>2024-05-08T14:51:08Z</time>
      </trkpt>
      <trkpt lat="49.87304" lon="4.78523">
        <ele>143</ele>
        <time>2024-05-08T14:51:09Z</time>
      </trkpt>
      <trkpt lat="49.87303" lon="4.78523">
        <ele>143</ele>
        <time>2024-05-08T14:51:10Z</time>
      </trkpt>
      <trkpt lat="49.87303" lon="4.78524">
        <ele>143</ele>
        <time>2024-05-08T14:51:11Z</time>
      </trkpt>
      <trkpt lat="49.87302" lon="4.78524">
        <ele>143</ele>
        <time>2024-05-08T14:51:12Z</time>
      </trkpt>
      <trkpt lat="49.87301" lon="4.78525">
        <ele>143</ele>
        <time>2024-05-08T14:51:13Z</time>
      </trkpt>
      <trkpt lat="49.87301" lon="4.78526">
        <ele>143</ele>
        <time>2024-05-08T14:51:14Z</time>
      </trkpt>
      <trkpt lat="49.873" lon="4.78527">
        <ele>143</ele>
        <time>2024-05-08T14:51:15Z</time>
      </trkpt>
      <trkpt lat="49.87299" lon="4.78528">
        <ele>143</ele>
        <time>2024-05-08T14:51:16Z</time>
      </trkpt>
      <trkpt lat="49.87299" lon="4.78529">
        <ele>142</ele>
        <time>2024-05-08T14:51:17Z</time>
      </trkpt>
      <trkpt lat="49.87298" lon="4.7853">
        <ele>142</ele>
        <time>2024-05-08T14:51:18Z</time>
      </trkpt>
      <trkpt lat="49.87297" lon="4.78531">
        <ele>142</ele>
        <time>2024-05-08T14:51:19Z</time>
      </trkpt>
      <trkpt lat="49.87296" lon="4.78532">
        <ele>142</ele>
        <time>2024-05-08T14:51:20Z</time>
      </trkpt>
      <trkpt lat="49.87295" lon="4.78533">
        <ele>142</ele>
        <time>2024-05-08T14:51:21Z</time>
      </trkpt>
      <trkpt lat="49.87295" lon="4.78534">
        <ele>142</ele>
        <time>2024-05-08T14:51:22Z</time>
      </trkpt>
      <trkpt lat="49.87294" lon="4.78535">
        <ele>142</ele>
        <time>2024-05-08T14:51:23Z</time>
      </trkpt>
      <trkpt lat="49.87293" lon="4.78536">
        <ele>142</ele>
        <time>2024-05-08T14:51:24Z</time>
      </trkpt>
      <trkpt lat="49.87292" lon="4.78537">
        <ele>142</ele>
        <time>2024-05-08T14:51:25Z</time>
      </trkpt>
      <trkpt lat="49.87292" lon="4.78538">
        <ele>142</ele>
        <time>2024-05-08T14:51:26Z</time>
      </trkpt>
      <trkpt lat="49.87291" lon="4.78539">
        <ele>142</ele>
        <time>2024-05-08T14:51:27Z</time>
      </trkpt>
      <trkpt lat="49.8729" lon="4.7854">
        <ele>142</ele>
        <time>2024-05-08T14:51:28Z</time>
      </trkpt>
      <trkpt lat="49.87289" lon="4.78541">
        <ele>142</ele>
        <time>2024-05-08T14:51:29Z</time>
      </trkpt>
      <trkpt lat="49.87289" lon="4.78542">
        <ele>142</ele>
        <time>2024-05-08T14:51:30Z</time>
      </trkpt>
      <trkpt lat="49.87288" lon="4.78543">
        <ele>142</ele>
        <time>2024-05-08T14:51:31Z</time>
      </trkpt>
      <trkpt lat="49.87287" lon="4.78543">
        <ele>141</ele>
        <time>2024-05-08T14:51:32Z</time>
      </trkpt>
      <trkpt lat="49.87287" lon="4.78543">
        <ele>141</ele>
        <time>2024-05-08T14:51:33Z</time>
      </trkpt>
      <trkpt lat="49.87287" lon="4.78544">
        <ele>141</ele>
        <time>2024-05-08T14:51:34Z</time>
      </trkpt>
      <trkpt lat="49.87287" lon="4.78544">
        <ele>141</ele>
        <time>2024-05-08T14:51:35Z</time>
      </trkpt>
      <trkpt lat="49.87287" lon="4.78544">
        <ele>141</ele>
        <time>2024-05-08T14:51:36Z</time>
      </trkpt>
      <trkpt lat="49.87287" lon="4.78544">
        <ele>141</ele>
        <time>2024-05-08T14:51:37Z</time>
      </trkpt>
      <trkpt lat="49.87287" lon="4.78545">
        <ele>141</ele>
        <time>2024-05-08T14:51:38Z</time>
      </trkpt>
      <trkpt lat="49.87286" lon="4.78546">
        <ele>141</ele>
        <time>2024-05-08T14:51:39Z</time>
      </trkpt>
      <trkpt lat="49.87286" lon="4.78547">
        <ele>141</ele>
        <time>2024-05-08T14:51:40Z</time>
      </trkpt>
      <trkpt lat="49.87286" lon="4.78548">
        <ele>141</ele>
        <time>2024-05-08T14:51:41Z</time>
      </trkpt>
      <trkpt lat="49.87286" lon="4.78549">
        <ele>141</ele>
        <time>2024-05-08T14:51:42Z</time>
      </trkpt>
      <trkpt lat="49.87286" lon="4.7855">
        <ele>141</ele>
        <time>2024-05-08T14:51:43Z</time>
      </trkpt>
      <trkpt lat="49.87286" lon="4.78552">
        <ele>141</ele>
        <time>2024-05-08T14:51:44Z</time>
      </trkpt>
      <trkpt lat="49.87287" lon="4.78553">
        <ele>141</ele>
        <time>2024-05-08T14:51:45Z</time>
      </trkpt>
      <trkpt lat="49.87287" lon="4.78554">
        <ele>141</ele>
        <time>2024-05-08T14:51:46Z</time>
      </trkpt>
      <trkpt lat="49.87288" lon="4.78555">
        <ele>141</ele>
        <time>2024-05-08T14:51:47Z</time>
      </trkpt>
      <trkpt lat="49.87289" lon="4.78555">
        <ele>141</ele>
        <time>2024-05-08T14:51:48Z</time>
      </trkpt>
      <trkpt lat="49.87289" lon="4.78556">
        <ele>141</ele>
        <time>2024-05-08T14:51:49Z</time>
      </trkpt>
      <trkpt lat="49.8729" lon="4.78557">
        <ele>141</ele>
        <time>2024-05-08T14:51:50Z</time>
      </trkpt>
      <trkpt lat="49.87291" lon="4.78557">
        <ele>141</ele>
        <time>2024-05-08T14:51:51Z</time>
      </trkpt>
      <trkpt lat="49.87293" lon="4.78558">
        <ele>141</ele>
        <time>2024-05-08T14:51:52Z</time>
      </trkpt>
      <trkpt lat="49.87294" lon="4.78558">
        <ele>141</ele>
        <time>2024-05-08T14:51:53Z</time>
      </trkpt>
      <trkpt lat="49.87295" lon="4.78558">
        <ele>141</ele>
        <time>2024-05-08T14:51:54Z</time>
      </trkpt>
      <trkpt lat="49.87296" lon="4.78559">
        <ele>141</ele>
        <time>2024-05-08T14:51:55Z</time>
      </trkpt>
      <trkpt lat="49.87297" lon="4.78559">
        <ele>141</ele>
        <time>2024-05-08T14:51:56Z</time>
      </trkpt>
      <trkpt lat="49.87298" lon="4.7856">
        <ele>141</ele>
        <time>2024-05-08T14:51:57Z</time>
      </trkpt>
      <trkpt lat="49.87299" lon="4.78561">
        <ele>141</ele>
        <time>2024-05-08T14:51:58Z</time>
      </trkpt>
      <trkpt lat="49.87299" lon="4.78562">
        <ele>141</ele>
        <time>2024-05-08T14:51:59Z</time>
      </trkpt>
      <trkpt lat="49.873" lon="4.78564">
        <ele>141</ele>
        <time>2024-05-08T14:52:00Z</time>
      </trkpt>
      <trkpt lat="49.873" lon="4.78566">
        <ele>141</ele>
        <time>2024-05-08T14:52:01Z</time>
      </trkpt>
      <trkpt lat="49.873" lon="4.78567">
        <ele>141</ele>
        <time>2024-05-08T14:52:02Z</time>
        <extensions>
          <visugpx:TrkExtension xmlns:visugpx="https://www.visugpx.com/editgpx/">
            <visugpx:node>1</visugpx:node>
            </visugpx:TrkExtension>
        </extensions>
      </trkpt>
    </trkseg>
  </trk>
</gpx>